<?xml version="1.0" encoding="UTF-8" standalone="no" ?>
<gpx xmlns="http://www.topografix.com/GPX/1/1" xmlns:xsi="http://www.w3.org/2001/XMLSchema-instance" xsi:schemaLocation="http://www.topografix.com/GPX/1/1 http://www.topografix.com/GPX/1/1/gpx.xsd" version="1.1" creator="VisuGPX - https://www.visugpx.com">
  <metadata>
    <name>23-06-18</name>
    <desc><![CDATA[ADV]]></desc>
  </metadata>
  <trk>
    <name><![CDATA[23-06-18]]></name>
    <trkseg>
      <trkpt lat="47.13567" lon="4.99558">
        <ele>231.39999389648</ele>
        <time>2023-06-17T05:31:22.000Z</time>
      </trkpt>
      <trkpt lat="47.13567" lon="4.99558">
        <ele>224.80000305176</ele>
        <time>2023-06-17T05:31:23.000Z</time>
      </trkpt>
      <trkpt lat="47.13567" lon="4.99555">
        <ele>224.39999389648</ele>
        <time>2023-06-17T05:31:28.000Z</time>
      </trkpt>
      <trkpt lat="47.13569" lon="4.9955">
        <ele>224.39999389648</ele>
        <time>2023-06-17T05:31:30.000Z</time>
      </trkpt>
      <trkpt lat="47.13575" lon="4.99537">
        <ele>224.39999389648</ele>
        <time>2023-06-17T05:31:34.000Z</time>
      </trkpt>
      <trkpt lat="47.13578" lon="4.99529">
        <ele>224.39999389648</ele>
        <time>2023-06-17T05:31:36.000Z</time>
      </trkpt>
      <trkpt lat="47.13593" lon="4.99501">
        <ele>224.80000305176</ele>
        <time>2023-06-17T05:31:43.000Z</time>
      </trkpt>
      <trkpt lat="47.13617" lon="4.99466">
        <ele>225.19999694824</ele>
        <time>2023-06-17T05:31:52.000Z</time>
      </trkpt>
      <trkpt lat="47.13637" lon="4.99446">
        <ele>225.80000305176</ele>
        <time>2023-06-17T05:31:59.000Z</time>
      </trkpt>
      <trkpt lat="47.13644" lon="4.99427">
        <ele>226</ele>
        <time>2023-06-17T05:32:03.000Z</time>
      </trkpt>
      <trkpt lat="47.13646" lon="4.99422">
        <ele>226.19999694824</ele>
        <time>2023-06-17T05:32:04.000Z</time>
      </trkpt>
      <trkpt lat="47.13656" lon="4.99402">
        <ele>226.39999389648</ele>
        <time>2023-06-17T05:32:08.000Z</time>
      </trkpt>
      <trkpt lat="47.13674" lon="4.99353">
        <ele>226.80000305176</ele>
        <time>2023-06-17T05:32:17.000Z</time>
      </trkpt>
      <trkpt lat="47.13681" lon="4.99329">
        <ele>227.19999694824</ele>
        <time>2023-06-17T05:32:21.000Z</time>
      </trkpt>
      <trkpt lat="47.13682" lon="4.99323">
        <ele>227.19999694824</ele>
        <time>2023-06-17T05:32:22.000Z</time>
      </trkpt>
      <trkpt lat="47.13684" lon="4.9931">
        <ele>227.19999694824</ele>
        <time>2023-06-17T05:32:24.000Z</time>
      </trkpt>
      <trkpt lat="47.13684" lon="4.99297">
        <ele>227.39999389648</ele>
        <time>2023-06-17T05:32:26.000Z</time>
      </trkpt>
      <trkpt lat="47.13682" lon="4.99277">
        <ele>227.39999389648</ele>
        <time>2023-06-17T05:32:29.000Z</time>
      </trkpt>
      <trkpt lat="47.13681" lon="4.9927">
        <ele>227.39999389648</ele>
        <time>2023-06-17T05:32:30.000Z</time>
      </trkpt>
      <trkpt lat="47.13668" lon="4.99206">
        <ele>228</ele>
        <time>2023-06-17T05:32:39.000Z</time>
      </trkpt>
      <trkpt lat="47.13668" lon="4.99198">
        <ele>228</ele>
        <time>2023-06-17T05:32:40.000Z</time>
      </trkpt>
      <trkpt lat="47.13668" lon="4.99182">
        <ele>228.19999694824</ele>
        <time>2023-06-17T05:32:42.000Z</time>
      </trkpt>
      <trkpt lat="47.13669" lon="4.99174">
        <ele>228.19999694824</ele>
        <time>2023-06-17T05:32:43.000Z</time>
      </trkpt>
      <trkpt lat="47.13671" lon="4.99166">
        <ele>228.19999694824</ele>
        <time>2023-06-17T05:32:44.000Z</time>
      </trkpt>
      <trkpt lat="47.13674" lon="4.99151">
        <ele>228.39999389648</ele>
        <time>2023-06-17T05:32:46.000Z</time>
      </trkpt>
      <trkpt lat="47.13682" lon="4.99121">
        <ele>228.60000610352</ele>
        <time>2023-06-17T05:32:50.000Z</time>
      </trkpt>
      <trkpt lat="47.13701" lon="4.99084">
        <ele>229.19999694824</ele>
        <time>2023-06-17T05:32:56.000Z</time>
      </trkpt>
      <trkpt lat="47.13725" lon="4.99058">
        <ele>229.80000305176</ele>
        <time>2023-06-17T05:33:02.000Z</time>
      </trkpt>
      <trkpt lat="47.13733" lon="4.99049">
        <ele>230</ele>
        <time>2023-06-17T05:33:04.000Z</time>
      </trkpt>
      <trkpt lat="47.13738" lon="4.99045">
        <ele>230.19999694824</ele>
        <time>2023-06-17T05:33:05.000Z</time>
      </trkpt>
      <trkpt lat="47.13755" lon="4.9903">
        <ele>230.60000610352</ele>
        <time>2023-06-17T05:33:09.000Z</time>
      </trkpt>
      <trkpt lat="47.13761" lon="4.9902">
        <ele>231</ele>
        <time>2023-06-17T05:33:11.000Z</time>
      </trkpt>
      <trkpt lat="47.13768" lon="4.99009">
        <ele>231.39999389648</ele>
        <time>2023-06-17T05:33:13.000Z</time>
      </trkpt>
      <trkpt lat="47.13774" lon="4.98988">
        <ele>231.80000305176</ele>
        <time>2023-06-17T05:33:16.000Z</time>
      </trkpt>
      <trkpt lat="47.13795" lon="4.98921">
        <ele>232.19999694824</ele>
        <time>2023-06-17T05:33:25.000Z</time>
      </trkpt>
      <trkpt lat="47.13798" lon="4.98914">
        <ele>232.19999694824</ele>
        <time>2023-06-17T05:33:26.000Z</time>
      </trkpt>
      <trkpt lat="47.13821" lon="4.98838">
        <ele>232.39999389648</ele>
        <time>2023-06-17T05:33:36.000Z</time>
      </trkpt>
      <trkpt lat="47.13823" lon="4.9883">
        <ele>232.60000610352</ele>
        <time>2023-06-17T05:33:37.000Z</time>
      </trkpt>
      <trkpt lat="47.13847" lon="4.98752">
        <ele>233</ele>
        <time>2023-06-17T05:33:47.000Z</time>
      </trkpt>
      <trkpt lat="47.13853" lon="4.98728">
        <ele>233.19999694824</ele>
        <time>2023-06-17T05:33:50.000Z</time>
      </trkpt>
      <trkpt lat="47.13866" lon="4.9867">
        <ele>233.39999389648</ele>
        <time>2023-06-17T05:33:57.000Z</time>
      </trkpt>
      <trkpt lat="47.13875" lon="4.98621">
        <ele>233.60000610352</ele>
        <time>2023-06-17T05:34:03.000Z</time>
      </trkpt>
      <trkpt lat="47.1388" lon="4.98596">
        <ele>233.80000305176</ele>
        <time>2023-06-17T05:34:06.000Z</time>
      </trkpt>
      <trkpt lat="47.13885" lon="4.98519">
        <ele>234.19999694824</ele>
        <time>2023-06-17T05:34:15.000Z</time>
      </trkpt>
      <trkpt lat="47.13883" lon="4.98484">
        <ele>234.60000610352</ele>
        <time>2023-06-17T05:34:19.000Z</time>
      </trkpt>
      <trkpt lat="47.13881" lon="4.98467">
        <ele>234.80000305176</ele>
        <time>2023-06-17T05:34:21.000Z</time>
      </trkpt>
      <trkpt lat="47.13879" lon="4.9845">
        <ele>234.80000305176</ele>
        <time>2023-06-17T05:34:23.000Z</time>
      </trkpt>
      <trkpt lat="47.13866" lon="4.98371">
        <ele>235.60000610352</ele>
        <time>2023-06-17T05:34:32.000Z</time>
      </trkpt>
      <trkpt lat="47.13864" lon="4.98363">
        <ele>235.60000610352</ele>
        <time>2023-06-17T05:34:33.000Z</time>
      </trkpt>
      <trkpt lat="47.13854" lon="4.98283">
        <ele>236</ele>
        <time>2023-06-17T05:34:42.000Z</time>
      </trkpt>
      <trkpt lat="47.13853" lon="4.98226">
        <ele>236.39999389648</ele>
        <time>2023-06-17T05:34:49.000Z</time>
      </trkpt>
      <trkpt lat="47.13854" lon="4.9821">
        <ele>236.80000305176</ele>
        <time>2023-06-17T05:34:51.000Z</time>
      </trkpt>
      <trkpt lat="47.13858" lon="4.98171">
        <ele>237.80000305176</ele>
        <time>2023-06-17T05:34:56.000Z</time>
      </trkpt>
      <trkpt lat="47.13859" lon="4.98163">
        <ele>238</ele>
        <time>2023-06-17T05:34:57.000Z</time>
      </trkpt>
      <trkpt lat="47.13862" lon="4.9813">
        <ele>238.39999389648</ele>
        <time>2023-06-17T05:35:01.000Z</time>
      </trkpt>
      <trkpt lat="47.13866" lon="4.98105">
        <ele>238.80000305176</ele>
        <time>2023-06-17T05:35:04.000Z</time>
      </trkpt>
      <trkpt lat="47.1387" lon="4.98071">
        <ele>238.80000305176</ele>
        <time>2023-06-17T05:35:08.000Z</time>
      </trkpt>
      <trkpt lat="47.13878" lon="4.98005">
        <ele>238.19999694824</ele>
        <time>2023-06-17T05:35:16.000Z</time>
      </trkpt>
      <trkpt lat="47.13883" lon="4.97962">
        <ele>237.80000305176</ele>
        <time>2023-06-17T05:35:21.000Z</time>
      </trkpt>
      <trkpt lat="47.13886" lon="4.97933">
        <ele>237.39999389648</ele>
        <time>2023-06-17T05:35:24.000Z</time>
      </trkpt>
      <trkpt lat="47.13888" lon="4.97893">
        <ele>236.60000610352</ele>
        <time>2023-06-17T05:35:28.000Z</time>
      </trkpt>
      <trkpt lat="47.13888" lon="4.9784">
        <ele>235.80000305176</ele>
        <time>2023-06-17T05:35:33.000Z</time>
      </trkpt>
      <trkpt lat="47.13888" lon="4.9783">
        <ele>235.60000610352</ele>
        <time>2023-06-17T05:35:34.000Z</time>
      </trkpt>
      <trkpt lat="47.13888" lon="4.97801">
        <ele>234.39999389648</ele>
        <time>2023-06-17T05:35:37.000Z</time>
      </trkpt>
      <trkpt lat="47.13887" lon="4.97764">
        <ele>234</ele>
        <time>2023-06-17T05:35:41.000Z</time>
      </trkpt>
      <trkpt lat="47.13887" lon="4.97682">
        <ele>234.19999694824</ele>
        <time>2023-06-17T05:35:50.000Z</time>
      </trkpt>
      <trkpt lat="47.13886" lon="4.976">
        <ele>234.19999694824</ele>
        <time>2023-06-17T05:35:59.000Z</time>
      </trkpt>
      <trkpt lat="47.13887" lon="4.97591">
        <ele>234.19999694824</ele>
        <time>2023-06-17T05:36:00.000Z</time>
      </trkpt>
      <trkpt lat="47.13886" lon="4.97556">
        <ele>234.19999694824</ele>
        <time>2023-06-17T05:36:04.000Z</time>
      </trkpt>
      <trkpt lat="47.13886" lon="4.97495">
        <ele>234.60000610352</ele>
        <time>2023-06-17T05:36:11.000Z</time>
      </trkpt>
      <trkpt lat="47.13886" lon="4.97415">
        <ele>234.80000305176</ele>
        <time>2023-06-17T05:36:20.000Z</time>
      </trkpt>
      <trkpt lat="47.13886" lon="4.97397">
        <ele>235</ele>
        <time>2023-06-17T05:36:22.000Z</time>
      </trkpt>
      <trkpt lat="47.13884" lon="4.97317">
        <ele>235.19999694824</ele>
        <time>2023-06-17T05:36:31.000Z</time>
      </trkpt>
      <trkpt lat="47.13883" lon="4.97308">
        <ele>235.39999389648</ele>
        <time>2023-06-17T05:36:32.000Z</time>
      </trkpt>
      <trkpt lat="47.13882" lon="4.97227">
        <ele>235.60000610352</ele>
        <time>2023-06-17T05:36:41.000Z</time>
      </trkpt>
      <trkpt lat="47.13882" lon="4.97218">
        <ele>235.60000610352</ele>
        <time>2023-06-17T05:36:42.000Z</time>
      </trkpt>
      <trkpt lat="47.1388" lon="4.97132">
        <ele>236</ele>
        <time>2023-06-17T05:36:52.000Z</time>
      </trkpt>
      <trkpt lat="47.1388" lon="4.97124">
        <ele>236</ele>
        <time>2023-06-17T05:36:53.000Z</time>
      </trkpt>
      <trkpt lat="47.13879" lon="4.97091">
        <ele>236.39999389648</ele>
        <time>2023-06-17T05:36:57.000Z</time>
      </trkpt>
      <trkpt lat="47.13874" lon="4.97049">
        <ele>236.80000305176</ele>
        <time>2023-06-17T05:37:02.000Z</time>
      </trkpt>
      <trkpt lat="47.13856" lon="4.96986">
        <ele>237</ele>
        <time>2023-06-17T05:37:10.000Z</time>
      </trkpt>
      <trkpt lat="47.13841" lon="4.96955">
        <ele>237</ele>
        <time>2023-06-17T05:37:14.000Z</time>
      </trkpt>
      <trkpt lat="47.13833" lon="4.96943">
        <ele>237</ele>
        <time>2023-06-17T05:37:16.000Z</time>
      </trkpt>
      <trkpt lat="47.13831" lon="4.96928">
        <ele>237</ele>
        <time>2023-06-17T05:37:18.000Z</time>
      </trkpt>
      <trkpt lat="47.13832" lon="4.96921">
        <ele>237</ele>
        <time>2023-06-17T05:37:19.000Z</time>
      </trkpt>
      <trkpt lat="47.13834" lon="4.96916">
        <ele>237</ele>
        <time>2023-06-17T05:37:20.000Z</time>
      </trkpt>
      <trkpt lat="47.13839" lon="4.9691">
        <ele>237.19999694824</ele>
        <time>2023-06-17T05:37:21.000Z</time>
      </trkpt>
      <trkpt lat="47.13843" lon="4.96907">
        <ele>237.19999694824</ele>
        <time>2023-06-17T05:37:22.000Z</time>
      </trkpt>
      <trkpt lat="47.13852" lon="4.96898">
        <ele>237.19999694824</ele>
        <time>2023-06-17T05:37:24.000Z</time>
      </trkpt>
      <trkpt lat="47.1386" lon="4.96886">
        <ele>237.39999389648</ele>
        <time>2023-06-17T05:37:26.000Z</time>
      </trkpt>
      <trkpt lat="47.13864" lon="4.9688">
        <ele>237.39999389648</ele>
        <time>2023-06-17T05:37:27.000Z</time>
      </trkpt>
      <trkpt lat="47.13867" lon="4.96873">
        <ele>237.60000610352</ele>
        <time>2023-06-17T05:37:28.000Z</time>
      </trkpt>
      <trkpt lat="47.13871" lon="4.96859">
        <ele>237.60000610352</ele>
        <time>2023-06-17T05:37:30.000Z</time>
      </trkpt>
      <trkpt lat="47.13872" lon="4.96849">
        <ele>237.60000610352</ele>
        <time>2023-06-17T05:37:31.000Z</time>
      </trkpt>
      <trkpt lat="47.13868" lon="4.9679">
        <ele>237.80000305176</ele>
        <time>2023-06-17T05:37:38.000Z</time>
      </trkpt>
      <trkpt lat="47.13855" lon="4.96733">
        <ele>238.39999389648</ele>
        <time>2023-06-17T05:37:45.000Z</time>
      </trkpt>
      <trkpt lat="47.13849" lon="4.96715">
        <ele>238.60000610352</ele>
        <time>2023-06-17T05:37:47.000Z</time>
      </trkpt>
      <trkpt lat="47.13829" lon="4.96661">
        <ele>238.80000305176</ele>
        <time>2023-06-17T05:37:54.000Z</time>
      </trkpt>
      <trkpt lat="47.13806" lon="4.96594">
        <ele>239</ele>
        <time>2023-06-17T05:38:02.000Z</time>
      </trkpt>
      <trkpt lat="47.13805" lon="4.96587">
        <ele>239</ele>
        <time>2023-06-17T05:38:03.000Z</time>
      </trkpt>
      <trkpt lat="47.13803" lon="4.96577">
        <ele>239</ele>
        <time>2023-06-17T05:38:04.000Z</time>
      </trkpt>
      <trkpt lat="47.13804" lon="4.96546">
        <ele>239</ele>
        <time>2023-06-17T05:38:07.000Z</time>
      </trkpt>
      <trkpt lat="47.13812" lon="4.96464">
        <ele>238.39999389648</ele>
        <time>2023-06-17T05:38:16.000Z</time>
      </trkpt>
      <trkpt lat="47.13811" lon="4.96386">
        <ele>238</ele>
        <time>2023-06-17T05:38:24.000Z</time>
      </trkpt>
      <trkpt lat="47.13806" lon="4.96337">
        <ele>237.39999389648</ele>
        <time>2023-06-17T05:38:29.000Z</time>
      </trkpt>
      <trkpt lat="47.13801" lon="4.96311">
        <ele>237.19999694824</ele>
        <time>2023-06-17T05:38:32.000Z</time>
      </trkpt>
      <trkpt lat="47.13785" lon="4.96253">
        <ele>236.39999389648</ele>
        <time>2023-06-17T05:38:38.000Z</time>
      </trkpt>
      <trkpt lat="47.13782" lon="4.96242">
        <ele>236.39999389648</ele>
        <time>2023-06-17T05:38:39.000Z</time>
      </trkpt>
      <trkpt lat="47.13758" lon="4.96168">
        <ele>235.39999389648</ele>
        <time>2023-06-17T05:38:47.000Z</time>
      </trkpt>
      <trkpt lat="47.13756" lon="4.96159">
        <ele>235.19999694824</ele>
        <time>2023-06-17T05:38:48.000Z</time>
      </trkpt>
      <trkpt lat="47.13753" lon="4.9614">
        <ele>235.19999694824</ele>
        <time>2023-06-17T05:38:50.000Z</time>
      </trkpt>
      <trkpt lat="47.13751" lon="4.96111">
        <ele>234.80000305176</ele>
        <time>2023-06-17T05:38:53.000Z</time>
      </trkpt>
      <trkpt lat="47.1375" lon="4.96063">
        <ele>234.80000305176</ele>
        <time>2023-06-17T05:38:58.000Z</time>
      </trkpt>
      <trkpt lat="47.13752" lon="4.96055">
        <ele>234.60000610352</ele>
        <time>2023-06-17T05:38:59.000Z</time>
      </trkpt>
      <trkpt lat="47.13755" lon="4.9605">
        <ele>234.60000610352</ele>
        <time>2023-06-17T05:39:00.000Z</time>
      </trkpt>
      <trkpt lat="47.13765" lon="4.96047">
        <ele>234.39999389648</ele>
        <time>2023-06-17T05:39:02.000Z</time>
      </trkpt>
      <trkpt lat="47.13775" lon="4.96049">
        <ele>234.39999389648</ele>
        <time>2023-06-17T05:39:04.000Z</time>
      </trkpt>
      <trkpt lat="47.13798" lon="4.96055">
        <ele>234.19999694824</ele>
        <time>2023-06-17T05:39:08.000Z</time>
      </trkpt>
      <trkpt lat="47.13843" lon="4.96072">
        <ele>234.80000305176</ele>
        <time>2023-06-17T05:39:16.000Z</time>
      </trkpt>
      <trkpt lat="47.13881" lon="4.96083">
        <ele>235.39999389648</ele>
        <time>2023-06-17T05:39:23.000Z</time>
      </trkpt>
      <trkpt lat="47.13892" lon="4.96086">
        <ele>235.60000610352</ele>
        <time>2023-06-17T05:39:25.000Z</time>
      </trkpt>
      <trkpt lat="47.1391" lon="4.9609">
        <ele>236.39999389648</ele>
        <time>2023-06-17T05:39:28.000Z</time>
      </trkpt>
      <trkpt lat="47.13935" lon="4.96096">
        <ele>237</ele>
        <time>2023-06-17T05:39:33.000Z</time>
      </trkpt>
      <trkpt lat="47.13956" lon="4.96102">
        <ele>237.60000610352</ele>
        <time>2023-06-17T05:39:37.000Z</time>
      </trkpt>
      <trkpt lat="47.13971" lon="4.96108">
        <ele>238.39999389648</ele>
        <time>2023-06-17T05:39:40.000Z</time>
      </trkpt>
      <trkpt lat="47.1398" lon="4.96112">
        <ele>238.60000610352</ele>
        <time>2023-06-17T05:39:42.000Z</time>
      </trkpt>
      <trkpt lat="47.1401" lon="4.96127">
        <ele>239.80000305176</ele>
        <time>2023-06-17T05:39:48.000Z</time>
      </trkpt>
      <trkpt lat="47.14015" lon="4.9613">
        <ele>240</ele>
        <time>2023-06-17T05:39:49.000Z</time>
      </trkpt>
      <trkpt lat="47.14029" lon="4.96133">
        <ele>240.80000305176</ele>
        <time>2023-06-17T05:39:52.000Z</time>
      </trkpt>
      <trkpt lat="47.14033" lon="4.96133">
        <ele>241</ele>
        <time>2023-06-17T05:39:53.000Z</time>
      </trkpt>
      <trkpt lat="47.14068" lon="4.96141">
        <ele>242</ele>
        <time>2023-06-17T05:39:59.000Z</time>
      </trkpt>
      <trkpt lat="47.14074" lon="4.96142">
        <ele>242</ele>
        <time>2023-06-17T05:40:00.000Z</time>
      </trkpt>
      <trkpt lat="47.14122" lon="4.96155">
        <ele>242</ele>
        <time>2023-06-17T05:40:08.000Z</time>
      </trkpt>
      <trkpt lat="47.14176" lon="4.96167">
        <ele>241.19999694824</ele>
        <time>2023-06-17T05:40:17.000Z</time>
      </trkpt>
      <trkpt lat="47.14183" lon="4.96168">
        <ele>241.19999694824</ele>
        <time>2023-06-17T05:40:18.000Z</time>
      </trkpt>
      <trkpt lat="47.14212" lon="4.96173">
        <ele>241.19999694824</ele>
        <time>2023-06-17T05:40:23.000Z</time>
      </trkpt>
      <trkpt lat="47.14216" lon="4.96172">
        <ele>241.19999694824</ele>
        <time>2023-06-17T05:40:24.000Z</time>
      </trkpt>
      <trkpt lat="47.1422" lon="4.96169">
        <ele>241.19999694824</ele>
        <time>2023-06-17T05:40:25.000Z</time>
      </trkpt>
      <trkpt lat="47.14223" lon="4.96156">
        <ele>241.19999694824</ele>
        <time>2023-06-17T05:40:27.000Z</time>
      </trkpt>
      <trkpt lat="47.14224" lon="4.96142">
        <ele>241.19999694824</ele>
        <time>2023-06-17T05:40:29.000Z</time>
      </trkpt>
      <trkpt lat="47.14227" lon="4.96113">
        <ele>241.19999694824</ele>
        <time>2023-06-17T05:40:33.000Z</time>
      </trkpt>
      <trkpt lat="47.14227" lon="4.96107">
        <ele>241.19999694824</ele>
        <time>2023-06-17T05:40:34.000Z</time>
      </trkpt>
      <trkpt lat="47.14224" lon="4.96095">
        <ele>241.39999389648</ele>
        <time>2023-06-17T05:40:36.000Z</time>
      </trkpt>
      <trkpt lat="47.14221" lon="4.96087">
        <ele>241.60000610352</ele>
        <time>2023-06-17T05:40:37.000Z</time>
      </trkpt>
      <trkpt lat="47.14218" lon="4.96081">
        <ele>241.60000610352</ele>
        <time>2023-06-17T05:40:38.000Z</time>
      </trkpt>
      <trkpt lat="47.14204" lon="4.96059">
        <ele>241.80000305176</ele>
        <time>2023-06-17T05:40:42.000Z</time>
      </trkpt>
      <trkpt lat="47.14184" lon="4.96015">
        <ele>242</ele>
        <time>2023-06-17T05:40:49.000Z</time>
      </trkpt>
      <trkpt lat="47.14166" lon="4.95966">
        <ele>242.39999389648</ele>
        <time>2023-06-17T05:40:56.000Z</time>
      </trkpt>
      <trkpt lat="47.1416" lon="4.95951">
        <ele>242.60000610352</ele>
        <time>2023-06-17T05:40:58.000Z</time>
      </trkpt>
      <trkpt lat="47.14153" lon="4.95941">
        <ele>242.80000305176</ele>
        <time>2023-06-17T05:41:00.000Z</time>
      </trkpt>
      <trkpt lat="47.14149" lon="4.95937">
        <ele>242.80000305176</ele>
        <time>2023-06-17T05:41:01.000Z</time>
      </trkpt>
      <trkpt lat="47.14142" lon="4.95933">
        <ele>242.80000305176</ele>
        <time>2023-06-17T05:41:02.000Z</time>
      </trkpt>
      <trkpt lat="47.14132" lon="4.95928">
        <ele>243</ele>
        <time>2023-06-17T05:41:04.000Z</time>
      </trkpt>
      <trkpt lat="47.1412" lon="4.95923">
        <ele>243</ele>
        <time>2023-06-17T05:41:06.000Z</time>
      </trkpt>
      <trkpt lat="47.14105" lon="4.95918">
        <ele>243</ele>
        <time>2023-06-17T05:41:09.000Z</time>
      </trkpt>
      <trkpt lat="47.14099" lon="4.95909">
        <ele>243.19999694824</ele>
        <time>2023-06-17T05:41:11.000Z</time>
      </trkpt>
      <trkpt lat="47.14101" lon="4.95888">
        <ele>243.39999389648</ele>
        <time>2023-06-17T05:41:14.000Z</time>
      </trkpt>
      <trkpt lat="47.14113" lon="4.95816">
        <ele>243.80000305176</ele>
        <time>2023-06-17T05:41:23.000Z</time>
      </trkpt>
      <trkpt lat="47.14118" lon="4.95792">
        <ele>244</ele>
        <time>2023-06-17T05:41:26.000Z</time>
      </trkpt>
      <trkpt lat="47.14127" lon="4.95743">
        <ele>244.19999694824</ele>
        <time>2023-06-17T05:41:32.000Z</time>
      </trkpt>
      <trkpt lat="47.14134" lon="4.95705">
        <ele>244.39999389648</ele>
        <time>2023-06-17T05:41:37.000Z</time>
      </trkpt>
      <trkpt lat="47.14134" lon="4.95699">
        <ele>244.39999389648</ele>
        <time>2023-06-17T05:41:38.000Z</time>
      </trkpt>
      <trkpt lat="47.14133" lon="4.95694">
        <ele>244.39999389648</ele>
        <time>2023-06-17T05:41:39.000Z</time>
      </trkpt>
      <trkpt lat="47.14128" lon="4.95684">
        <ele>244.39999389648</ele>
        <time>2023-06-17T05:41:41.000Z</time>
      </trkpt>
      <trkpt lat="47.14108" lon="4.95662">
        <ele>244.60000610352</ele>
        <time>2023-06-17T05:41:46.000Z</time>
      </trkpt>
      <trkpt lat="47.14106" lon="4.95656">
        <ele>244.60000610352</ele>
        <time>2023-06-17T05:41:47.000Z</time>
      </trkpt>
      <trkpt lat="47.14106" lon="4.95646">
        <ele>244.60000610352</ele>
        <time>2023-06-17T05:41:48.000Z</time>
      </trkpt>
      <trkpt lat="47.14108" lon="4.95631">
        <ele>244.60000610352</ele>
        <time>2023-06-17T05:41:50.000Z</time>
      </trkpt>
      <trkpt lat="47.14118" lon="4.95583">
        <ele>244.60000610352</ele>
        <time>2023-06-17T05:41:56.000Z</time>
      </trkpt>
      <trkpt lat="47.14131" lon="4.95516">
        <ele>245</ele>
        <time>2023-06-17T05:42:04.000Z</time>
      </trkpt>
      <trkpt lat="47.14132" lon="4.95509">
        <ele>245</ele>
        <time>2023-06-17T05:42:05.000Z</time>
      </trkpt>
      <trkpt lat="47.14142" lon="4.95465">
        <ele>245</ele>
        <time>2023-06-17T05:42:11.000Z</time>
      </trkpt>
      <trkpt lat="47.14146" lon="4.95455">
        <ele>245</ele>
        <time>2023-06-17T05:42:14.000Z</time>
      </trkpt>
      <trkpt lat="47.14143" lon="4.9544">
        <ele>244.80000305176</ele>
        <time>2023-06-17T05:42:17.000Z</time>
      </trkpt>
      <trkpt lat="47.14128" lon="4.95414">
        <ele>244.80000305176</ele>
        <time>2023-06-17T05:42:21.000Z</time>
      </trkpt>
      <trkpt lat="47.1411" lon="4.95378">
        <ele>244.39999389648</ele>
        <time>2023-06-17T05:42:26.000Z</time>
      </trkpt>
      <trkpt lat="47.14106" lon="4.9537">
        <ele>244.19999694824</ele>
        <time>2023-06-17T05:42:27.000Z</time>
      </trkpt>
      <trkpt lat="47.14095" lon="4.95348">
        <ele>243.80000305176</ele>
        <time>2023-06-17T05:42:30.000Z</time>
      </trkpt>
      <trkpt lat="47.14075" lon="4.95308">
        <ele>243.19999694824</ele>
        <time>2023-06-17T05:42:35.000Z</time>
      </trkpt>
      <trkpt lat="47.14066" lon="4.95285">
        <ele>243</ele>
        <time>2023-06-17T05:42:38.000Z</time>
      </trkpt>
      <trkpt lat="47.14064" lon="4.95278">
        <ele>242.80000305176</ele>
        <time>2023-06-17T05:42:39.000Z</time>
      </trkpt>
      <trkpt lat="47.14065" lon="4.95272">
        <ele>242.80000305176</ele>
        <time>2023-06-17T05:42:40.000Z</time>
      </trkpt>
      <trkpt lat="47.14066" lon="4.95265">
        <ele>242.60000610352</ele>
        <time>2023-06-17T05:42:43.000Z</time>
      </trkpt>
      <trkpt lat="47.14066" lon="4.95265">
        <ele>242.39999389648</ele>
        <time>2023-06-17T05:42:44.000Z</time>
      </trkpt>
      <trkpt lat="47.14067" lon="4.95258">
        <ele>241.80000305176</ele>
        <time>2023-06-17T05:42:57.000Z</time>
      </trkpt>
      <trkpt lat="47.14065" lon="4.95251">
        <ele>241.80000305176</ele>
        <time>2023-06-17T05:42:59.000Z</time>
      </trkpt>
      <trkpt lat="47.14054" lon="4.95239">
        <ele>241.80000305176</ele>
        <time>2023-06-17T05:43:03.000Z</time>
      </trkpt>
      <trkpt lat="47.1405" lon="4.95235">
        <ele>241.80000305176</ele>
        <time>2023-06-17T05:43:04.000Z</time>
      </trkpt>
      <trkpt lat="47.14027" lon="4.9521">
        <ele>241.80000305176</ele>
        <time>2023-06-17T05:43:09.000Z</time>
      </trkpt>
      <trkpt lat="47.13984" lon="4.95152">
        <ele>241.80000305176</ele>
        <time>2023-06-17T05:43:18.000Z</time>
      </trkpt>
      <trkpt lat="47.13952" lon="4.9511">
        <ele>241.60000610352</ele>
        <time>2023-06-17T05:43:24.000Z</time>
      </trkpt>
      <trkpt lat="47.13948" lon="4.95104">
        <ele>241.60000610352</ele>
        <time>2023-06-17T05:43:25.000Z</time>
      </trkpt>
      <trkpt lat="47.13947" lon="4.95092">
        <ele>241.39999389648</ele>
        <time>2023-06-17T05:43:27.000Z</time>
      </trkpt>
      <trkpt lat="47.13959" lon="4.9507">
        <ele>240.80000305176</ele>
        <time>2023-06-17T05:43:30.000Z</time>
      </trkpt>
      <trkpt lat="47.13962" lon="4.95064">
        <ele>240.80000305176</ele>
        <time>2023-06-17T05:43:31.000Z</time>
      </trkpt>
      <trkpt lat="47.13999" lon="4.94996">
        <ele>240.39999389648</ele>
        <time>2023-06-17T05:43:40.000Z</time>
      </trkpt>
      <trkpt lat="47.14006" lon="4.94982">
        <ele>240.39999389648</ele>
        <time>2023-06-17T05:43:42.000Z</time>
      </trkpt>
      <trkpt lat="47.14042" lon="4.94912">
        <ele>240.39999389648</ele>
        <time>2023-06-17T05:43:51.000Z</time>
      </trkpt>
      <trkpt lat="47.14045" lon="4.94906">
        <ele>240.39999389648</ele>
        <time>2023-06-17T05:43:52.000Z</time>
      </trkpt>
      <trkpt lat="47.1408" lon="4.94837">
        <ele>240.80000305176</ele>
        <time>2023-06-17T05:44:01.000Z</time>
      </trkpt>
      <trkpt lat="47.14084" lon="4.94829">
        <ele>241</ele>
        <time>2023-06-17T05:44:02.000Z</time>
      </trkpt>
      <trkpt lat="47.14114" lon="4.9477">
        <ele>241.19999694824</ele>
        <time>2023-06-17T05:44:10.000Z</time>
      </trkpt>
      <trkpt lat="47.14132" lon="4.94733">
        <ele>241.19999694824</ele>
        <time>2023-06-17T05:44:15.000Z</time>
      </trkpt>
      <trkpt lat="47.14166" lon="4.94668">
        <ele>241.60000610352</ele>
        <time>2023-06-17T05:44:24.000Z</time>
      </trkpt>
      <trkpt lat="47.14169" lon="4.94663">
        <ele>241.60000610352</ele>
        <time>2023-06-17T05:44:25.000Z</time>
      </trkpt>
      <trkpt lat="47.142" lon="4.94596">
        <ele>242.19999694824</ele>
        <time>2023-06-17T05:44:34.000Z</time>
      </trkpt>
      <trkpt lat="47.14231" lon="4.94523">
        <ele>242.39999389648</ele>
        <time>2023-06-17T05:44:44.000Z</time>
      </trkpt>
      <trkpt lat="47.14238" lon="4.9451">
        <ele>242.39999389648</ele>
        <time>2023-06-17T05:44:46.000Z</time>
      </trkpt>
      <trkpt lat="47.14268" lon="4.94453">
        <ele>242.60000610352</ele>
        <time>2023-06-17T05:44:54.000Z</time>
      </trkpt>
      <trkpt lat="47.14275" lon="4.9444">
        <ele>242.60000610352</ele>
        <time>2023-06-17T05:44:56.000Z</time>
      </trkpt>
      <trkpt lat="47.14297" lon="4.94398">
        <ele>243.19999694824</ele>
        <time>2023-06-17T05:45:02.000Z</time>
      </trkpt>
      <trkpt lat="47.14321" lon="4.94348">
        <ele>243.60000610352</ele>
        <time>2023-06-17T05:45:09.000Z</time>
      </trkpt>
      <trkpt lat="47.14336" lon="4.94311">
        <ele>244</ele>
        <time>2023-06-17T05:45:14.000Z</time>
      </trkpt>
      <trkpt lat="47.14356" lon="4.94238">
        <ele>244.19999694824</ele>
        <time>2023-06-17T05:45:23.000Z</time>
      </trkpt>
      <trkpt lat="47.14372" lon="4.94162">
        <ele>244</ele>
        <time>2023-06-17T05:45:32.000Z</time>
      </trkpt>
      <trkpt lat="47.1438" lon="4.94119">
        <ele>244</ele>
        <time>2023-06-17T05:45:37.000Z</time>
      </trkpt>
      <trkpt lat="47.14383" lon="4.94083">
        <ele>243.80000305176</ele>
        <time>2023-06-17T05:45:41.000Z</time>
      </trkpt>
      <trkpt lat="47.14384" lon="4.94074">
        <ele>243.80000305176</ele>
        <time>2023-06-17T05:45:42.000Z</time>
      </trkpt>
      <trkpt lat="47.14386" lon="4.94065">
        <ele>243.80000305176</ele>
        <time>2023-06-17T05:45:43.000Z</time>
      </trkpt>
      <trkpt lat="47.14398" lon="4.94021">
        <ele>243.60000610352</ele>
        <time>2023-06-17T05:45:48.000Z</time>
      </trkpt>
      <trkpt lat="47.14412" lon="4.93969">
        <ele>243.39999389648</ele>
        <time>2023-06-17T05:45:54.000Z</time>
      </trkpt>
      <trkpt lat="47.14417" lon="4.93951">
        <ele>243.39999389648</ele>
        <time>2023-06-17T05:45:56.000Z</time>
      </trkpt>
      <trkpt lat="47.14423" lon="4.93935">
        <ele>243.39999389648</ele>
        <time>2023-06-17T05:45:58.000Z</time>
      </trkpt>
      <trkpt lat="47.14428" lon="4.93919">
        <ele>243.60000610352</ele>
        <time>2023-06-17T05:46:00.000Z</time>
      </trkpt>
      <trkpt lat="47.14431" lon="4.93912">
        <ele>243.60000610352</ele>
        <time>2023-06-17T05:46:01.000Z</time>
      </trkpt>
      <trkpt lat="47.14437" lon="4.93888">
        <ele>244.19999694824</ele>
        <time>2023-06-17T05:46:04.000Z</time>
      </trkpt>
      <trkpt lat="47.14441" lon="4.93872">
        <ele>244.60000610352</ele>
        <time>2023-06-17T05:46:06.000Z</time>
      </trkpt>
      <trkpt lat="47.14447" lon="4.93848">
        <ele>244.60000610352</ele>
        <time>2023-06-17T05:46:09.000Z</time>
      </trkpt>
      <trkpt lat="47.14454" lon="4.93824">
        <ele>244.80000305176</ele>
        <time>2023-06-17T05:46:12.000Z</time>
      </trkpt>
      <trkpt lat="47.14472" lon="4.93761">
        <ele>245.39999389648</ele>
        <time>2023-06-17T05:46:20.000Z</time>
      </trkpt>
      <trkpt lat="47.14479" lon="4.93738">
        <ele>245.60000610352</ele>
        <time>2023-06-17T05:46:23.000Z</time>
      </trkpt>
      <trkpt lat="47.14485" lon="4.93723">
        <ele>245.80000305176</ele>
        <time>2023-06-17T05:46:25.000Z</time>
      </trkpt>
      <trkpt lat="47.14488" lon="4.93715">
        <ele>245.80000305176</ele>
        <time>2023-06-17T05:46:26.000Z</time>
      </trkpt>
      <trkpt lat="47.1449" lon="4.93709">
        <ele>245.80000305176</ele>
        <time>2023-06-17T05:46:27.000Z</time>
      </trkpt>
      <trkpt lat="47.14511" lon="4.93657">
        <ele>246.19999694824</ele>
        <time>2023-06-17T05:46:34.000Z</time>
      </trkpt>
      <trkpt lat="47.14535" lon="4.93619">
        <ele>246.60000610352</ele>
        <time>2023-06-17T05:46:40.000Z</time>
      </trkpt>
      <trkpt lat="47.14542" lon="4.93608">
        <ele>246.80000305176</ele>
        <time>2023-06-17T05:46:42.000Z</time>
      </trkpt>
      <trkpt lat="47.14567" lon="4.93571">
        <ele>247.39999389648</ele>
        <time>2023-06-17T05:46:48.000Z</time>
      </trkpt>
      <trkpt lat="47.14607" lon="4.9351">
        <ele>247.80000305176</ele>
        <time>2023-06-17T05:46:58.000Z</time>
      </trkpt>
      <trkpt lat="47.14612" lon="4.93504">
        <ele>247.60000610352</ele>
        <time>2023-06-17T05:46:59.000Z</time>
      </trkpt>
      <trkpt lat="47.14634" lon="4.93464">
        <ele>248</ele>
        <time>2023-06-17T05:47:05.000Z</time>
      </trkpt>
      <trkpt lat="47.14657" lon="4.93394">
        <ele>248.19999694824</ele>
        <time>2023-06-17T05:47:14.000Z</time>
      </trkpt>
      <trkpt lat="47.14674" lon="4.93332">
        <ele>248.80000305176</ele>
        <time>2023-06-17T05:47:22.000Z</time>
      </trkpt>
      <trkpt lat="47.14676" lon="4.93325">
        <ele>248.80000305176</ele>
        <time>2023-06-17T05:47:23.000Z</time>
      </trkpt>
      <trkpt lat="47.14678" lon="4.93318">
        <ele>248.80000305176</ele>
        <time>2023-06-17T05:47:24.000Z</time>
      </trkpt>
      <trkpt lat="47.14689" lon="4.93268">
        <ele>249.80000305176</ele>
        <time>2023-06-17T05:47:31.000Z</time>
      </trkpt>
      <trkpt lat="47.1469" lon="4.93261">
        <ele>249.80000305176</ele>
        <time>2023-06-17T05:47:32.000Z</time>
      </trkpt>
      <trkpt lat="47.14694" lon="4.93232">
        <ele>250.80000305176</ele>
        <time>2023-06-17T05:47:36.000Z</time>
      </trkpt>
      <trkpt lat="47.14697" lon="4.93211">
        <ele>251.19999694824</ele>
        <time>2023-06-17T05:47:39.000Z</time>
      </trkpt>
      <trkpt lat="47.14699" lon="4.9319">
        <ele>251.80000305176</ele>
        <time>2023-06-17T05:47:42.000Z</time>
      </trkpt>
      <trkpt lat="47.14701" lon="4.93161">
        <ele>252.60000610352</ele>
        <time>2023-06-17T05:47:46.000Z</time>
      </trkpt>
      <trkpt lat="47.14702" lon="4.93154">
        <ele>253</ele>
        <time>2023-06-17T05:47:47.000Z</time>
      </trkpt>
      <trkpt lat="47.14703" lon="4.93118">
        <ele>254</ele>
        <time>2023-06-17T05:47:52.000Z</time>
      </trkpt>
      <trkpt lat="47.14703" lon="4.93103">
        <ele>254.39999389648</ele>
        <time>2023-06-17T05:47:54.000Z</time>
      </trkpt>
      <trkpt lat="47.14703" lon="4.93054">
        <ele>255</ele>
        <time>2023-06-17T05:48:00.000Z</time>
      </trkpt>
      <trkpt lat="47.14702" lon="4.93036">
        <ele>255.19999694824</ele>
        <time>2023-06-17T05:48:02.000Z</time>
      </trkpt>
      <trkpt lat="47.14698" lon="4.92977">
        <ele>255.80000305176</ele>
        <time>2023-06-17T05:48:09.000Z</time>
      </trkpt>
      <trkpt lat="47.14696" lon="4.92961">
        <ele>255.80000305176</ele>
        <time>2023-06-17T05:48:11.000Z</time>
      </trkpt>
      <trkpt lat="47.14694" lon="4.92936">
        <ele>256</ele>
        <time>2023-06-17T05:48:14.000Z</time>
      </trkpt>
      <trkpt lat="47.1469" lon="4.92903">
        <ele>256</ele>
        <time>2023-06-17T05:48:18.000Z</time>
      </trkpt>
      <trkpt lat="47.14685" lon="4.92871">
        <ele>256</ele>
        <time>2023-06-17T05:48:22.000Z</time>
      </trkpt>
      <trkpt lat="47.14682" lon="4.92847">
        <ele>256.20001220703</ele>
        <time>2023-06-17T05:48:25.000Z</time>
      </trkpt>
      <trkpt lat="47.14679" lon="4.92816">
        <ele>256.39999389648</ele>
        <time>2023-06-17T05:48:29.000Z</time>
      </trkpt>
      <trkpt lat="47.14677" lon="4.92799">
        <ele>256.60000610352</ele>
        <time>2023-06-17T05:48:31.000Z</time>
      </trkpt>
      <trkpt lat="47.14673" lon="4.92767">
        <ele>256.79998779297</ele>
        <time>2023-06-17T05:48:35.000Z</time>
      </trkpt>
      <trkpt lat="47.14672" lon="4.92758">
        <ele>257</ele>
        <time>2023-06-17T05:48:36.000Z</time>
      </trkpt>
      <trkpt lat="47.14667" lon="4.92697">
        <ele>257.39999389648</ele>
        <time>2023-06-17T05:48:43.000Z</time>
      </trkpt>
      <trkpt lat="47.14666" lon="4.92688">
        <ele>257.39999389648</ele>
        <time>2023-06-17T05:48:44.000Z</time>
      </trkpt>
      <trkpt lat="47.14666" lon="4.92679">
        <ele>257.39999389648</ele>
        <time>2023-06-17T05:48:45.000Z</time>
      </trkpt>
      <trkpt lat="47.14661" lon="4.92642">
        <ele>257.39999389648</ele>
        <time>2023-06-17T05:48:49.000Z</time>
      </trkpt>
      <trkpt lat="47.14651" lon="4.92569">
        <ele>256.79998779297</ele>
        <time>2023-06-17T05:48:57.000Z</time>
      </trkpt>
      <trkpt lat="47.14645" lon="4.92532">
        <ele>256.79998779297</ele>
        <time>2023-06-17T05:49:01.000Z</time>
      </trkpt>
      <trkpt lat="47.14641" lon="4.92515">
        <ele>256.79998779297</ele>
        <time>2023-06-17T05:49:03.000Z</time>
      </trkpt>
      <trkpt lat="47.14631" lon="4.92471">
        <ele>256.79998779297</ele>
        <time>2023-06-17T05:49:08.000Z</time>
      </trkpt>
      <trkpt lat="47.14624" lon="4.92438">
        <ele>257</ele>
        <time>2023-06-17T05:49:12.000Z</time>
      </trkpt>
      <trkpt lat="47.14622" lon="4.92428">
        <ele>257</ele>
        <time>2023-06-17T05:49:13.000Z</time>
      </trkpt>
      <trkpt lat="47.14621" lon="4.92419">
        <ele>257</ele>
        <time>2023-06-17T05:49:14.000Z</time>
      </trkpt>
      <trkpt lat="47.14619" lon="4.92401">
        <ele>256.79998779297</ele>
        <time>2023-06-17T05:49:16.000Z</time>
      </trkpt>
      <trkpt lat="47.14617" lon="4.92392">
        <ele>256.79998779297</ele>
        <time>2023-06-17T05:49:17.000Z</time>
      </trkpt>
      <trkpt lat="47.14614" lon="4.92358">
        <ele>256.60000610352</ele>
        <time>2023-06-17T05:49:21.000Z</time>
      </trkpt>
      <trkpt lat="47.14614" lon="4.92349">
        <ele>256.60000610352</ele>
        <time>2023-06-17T05:49:22.000Z</time>
      </trkpt>
      <trkpt lat="47.14616" lon="4.92323">
        <ele>256.60000610352</ele>
        <time>2023-06-17T05:49:25.000Z</time>
      </trkpt>
      <trkpt lat="47.14615" lon="4.92304">
        <ele>256.79998779297</ele>
        <time>2023-06-17T05:49:27.000Z</time>
      </trkpt>
      <trkpt lat="47.14617" lon="4.9226">
        <ele>256.79998779297</ele>
        <time>2023-06-17T05:49:32.000Z</time>
      </trkpt>
      <trkpt lat="47.14616" lon="4.92242">
        <ele>256.79998779297</ele>
        <time>2023-06-17T05:49:34.000Z</time>
      </trkpt>
      <trkpt lat="47.14626" lon="4.92192">
        <ele>256.60000610352</ele>
        <time>2023-06-17T05:49:40.000Z</time>
      </trkpt>
      <trkpt lat="47.14633" lon="4.9214">
        <ele>256.60000610352</ele>
        <time>2023-06-17T05:49:46.000Z</time>
      </trkpt>
      <trkpt lat="47.14644" lon="4.92072">
        <ele>257</ele>
        <time>2023-06-17T05:49:54.000Z</time>
      </trkpt>
      <trkpt lat="47.14649" lon="4.92008">
        <ele>257</ele>
        <time>2023-06-17T05:50:01.000Z</time>
      </trkpt>
      <trkpt lat="47.14648" lon="4.91928">
        <ele>257</ele>
        <time>2023-06-17T05:50:10.000Z</time>
      </trkpt>
      <trkpt lat="47.14646" lon="4.91904">
        <ele>257</ele>
        <time>2023-06-17T05:50:13.000Z</time>
      </trkpt>
      <trkpt lat="47.14644" lon="4.9188">
        <ele>257.39999389648</ele>
        <time>2023-06-17T05:50:16.000Z</time>
      </trkpt>
      <trkpt lat="47.14643" lon="4.91871">
        <ele>257.39999389648</ele>
        <time>2023-06-17T05:50:17.000Z</time>
      </trkpt>
      <trkpt lat="47.14641" lon="4.9184">
        <ele>257.60000610352</ele>
        <time>2023-06-17T05:50:21.000Z</time>
      </trkpt>
      <trkpt lat="47.1464" lon="4.91833">
        <ele>257.60000610352</ele>
        <time>2023-06-17T05:50:22.000Z</time>
      </trkpt>
      <trkpt lat="47.14632" lon="4.91772">
        <ele>258</ele>
        <time>2023-06-17T05:50:29.000Z</time>
      </trkpt>
      <trkpt lat="47.14625" lon="4.91746">
        <ele>258.20001220703</ele>
        <time>2023-06-17T05:50:32.000Z</time>
      </trkpt>
      <trkpt lat="47.14623" lon="4.91738">
        <ele>258.20001220703</ele>
        <time>2023-06-17T05:50:33.000Z</time>
      </trkpt>
      <trkpt lat="47.14606" lon="4.91684">
        <ele>258.20001220703</ele>
        <time>2023-06-17T05:50:40.000Z</time>
      </trkpt>
      <trkpt lat="47.14588" lon="4.9164">
        <ele>258.20001220703</ele>
        <time>2023-06-17T05:50:46.000Z</time>
      </trkpt>
      <trkpt lat="47.14574" lon="4.91614">
        <ele>259</ele>
        <time>2023-06-17T05:50:50.000Z</time>
      </trkpt>
      <trkpt lat="47.14564" lon="4.91595">
        <ele>259.39999389648</ele>
        <time>2023-06-17T05:50:53.000Z</time>
      </trkpt>
      <trkpt lat="47.14561" lon="4.91589">
        <ele>259.39999389648</ele>
        <time>2023-06-17T05:50:54.000Z</time>
      </trkpt>
      <trkpt lat="47.14543" lon="4.91555">
        <ele>259.60000610352</ele>
        <time>2023-06-17T05:50:59.000Z</time>
      </trkpt>
      <trkpt lat="47.14538" lon="4.9154">
        <ele>259.39999389648</ele>
        <time>2023-06-17T05:51:01.000Z</time>
      </trkpt>
      <trkpt lat="47.1453" lon="4.91517">
        <ele>259.39999389648</ele>
        <time>2023-06-17T05:51:04.000Z</time>
      </trkpt>
      <trkpt lat="47.14518" lon="4.91476">
        <ele>259.39999389648</ele>
        <time>2023-06-17T05:51:09.000Z</time>
      </trkpt>
      <trkpt lat="47.14515" lon="4.9146">
        <ele>259.39999389648</ele>
        <time>2023-06-17T05:51:11.000Z</time>
      </trkpt>
      <trkpt lat="47.14505" lon="4.91419">
        <ele>259.79998779297</ele>
        <time>2023-06-17T05:51:16.000Z</time>
      </trkpt>
      <trkpt lat="47.14498" lon="4.91403">
        <ele>260</ele>
        <time>2023-06-17T05:51:18.000Z</time>
      </trkpt>
      <trkpt lat="47.1449" lon="4.9139">
        <ele>260</ele>
        <time>2023-06-17T05:51:20.000Z</time>
      </trkpt>
      <trkpt lat="47.1448" lon="4.9138">
        <ele>260</ele>
        <time>2023-06-17T05:51:22.000Z</time>
      </trkpt>
      <trkpt lat="47.14468" lon="4.91373">
        <ele>259.79998779297</ele>
        <time>2023-06-17T05:51:24.000Z</time>
      </trkpt>
      <trkpt lat="47.14423" lon="4.91348">
        <ele>259.20001220703</ele>
        <time>2023-06-17T05:51:31.000Z</time>
      </trkpt>
      <trkpt lat="47.14383" lon="4.91321">
        <ele>259</ele>
        <time>2023-06-17T05:51:38.000Z</time>
      </trkpt>
      <trkpt lat="47.14374" lon="4.91311">
        <ele>258.79998779297</ele>
        <time>2023-06-17T05:51:40.000Z</time>
      </trkpt>
      <trkpt lat="47.14367" lon="4.91299">
        <ele>259.20001220703</ele>
        <time>2023-06-17T05:51:42.000Z</time>
      </trkpt>
      <trkpt lat="47.14359" lon="4.9128">
        <ele>259.79998779297</ele>
        <time>2023-06-17T05:51:45.000Z</time>
      </trkpt>
      <trkpt lat="47.14357" lon="4.91273">
        <ele>260</ele>
        <time>2023-06-17T05:51:46.000Z</time>
      </trkpt>
      <trkpt lat="47.14353" lon="4.91252">
        <ele>260.79998779297</ele>
        <time>2023-06-17T05:51:49.000Z</time>
      </trkpt>
      <trkpt lat="47.1435" lon="4.91237">
        <ele>261.39999389648</ele>
        <time>2023-06-17T05:51:51.000Z</time>
      </trkpt>
      <trkpt lat="47.1435" lon="4.91229">
        <ele>261.39999389648</ele>
        <time>2023-06-17T05:51:52.000Z</time>
      </trkpt>
      <trkpt lat="47.14351" lon="4.91204">
        <ele>262</ele>
        <time>2023-06-17T05:51:55.000Z</time>
      </trkpt>
      <trkpt lat="47.14353" lon="4.91179">
        <ele>262.20001220703</ele>
        <time>2023-06-17T05:51:58.000Z</time>
      </trkpt>
      <trkpt lat="47.14359" lon="4.9113">
        <ele>263</ele>
        <time>2023-06-17T05:52:04.000Z</time>
      </trkpt>
      <trkpt lat="47.14364" lon="4.91108">
        <ele>263.39999389648</ele>
        <time>2023-06-17T05:52:07.000Z</time>
      </trkpt>
      <trkpt lat="47.14368" lon="4.91077">
        <ele>264.20001220703</ele>
        <time>2023-06-17T05:52:11.000Z</time>
      </trkpt>
      <trkpt lat="47.14369" lon="4.91061">
        <ele>264.60000610352</ele>
        <time>2023-06-17T05:52:13.000Z</time>
      </trkpt>
      <trkpt lat="47.14371" lon="4.91054">
        <ele>264.79998779297</ele>
        <time>2023-06-17T05:52:14.000Z</time>
      </trkpt>
      <trkpt lat="47.14371" lon="4.9103">
        <ele>265.20001220703</ele>
        <time>2023-06-17T05:52:17.000Z</time>
      </trkpt>
      <trkpt lat="47.14371" lon="4.90997">
        <ele>265.60000610352</ele>
        <time>2023-06-17T05:52:21.000Z</time>
      </trkpt>
      <trkpt lat="47.14369" lon="4.90936">
        <ele>266.20001220703</ele>
        <time>2023-06-17T05:52:28.000Z</time>
      </trkpt>
      <trkpt lat="47.14369" lon="4.90919">
        <ele>266.20001220703</ele>
        <time>2023-06-17T05:52:30.000Z</time>
      </trkpt>
      <trkpt lat="47.14364" lon="4.90865">
        <ele>266</ele>
        <time>2023-06-17T05:52:36.000Z</time>
      </trkpt>
      <trkpt lat="47.1435" lon="4.90806">
        <ele>266.20001220703</ele>
        <time>2023-06-17T05:52:43.000Z</time>
      </trkpt>
      <trkpt lat="47.14327" lon="4.90746">
        <ele>266.39999389648</ele>
        <time>2023-06-17T05:52:51.000Z</time>
      </trkpt>
      <trkpt lat="47.14307" lon="4.90699">
        <ele>266.60000610352</ele>
        <time>2023-06-17T05:52:59.000Z</time>
      </trkpt>
      <trkpt lat="47.14306" lon="4.90696">
        <ele>266.60000610352</ele>
        <time>2023-06-17T05:53:01.000Z</time>
      </trkpt>
      <trkpt lat="47.14306" lon="4.90696">
        <ele>266.79998779297</ele>
        <time>2023-06-17T05:53:02.000Z</time>
      </trkpt>
      <trkpt lat="47.14306" lon="4.90696">
        <ele>266.60000610352</ele>
        <time>2023-06-17T05:53:03.000Z</time>
      </trkpt>
      <trkpt lat="47.14303" lon="4.90691">
        <ele>266.60000610352</ele>
        <time>2023-06-17T05:54:12.000Z</time>
      </trkpt>
      <trkpt lat="47.14299" lon="4.90683">
        <ele>266.60000610352</ele>
        <time>2023-06-17T05:54:14.000Z</time>
      </trkpt>
      <trkpt lat="47.14287" lon="4.90655">
        <ele>266.79998779297</ele>
        <time>2023-06-17T05:54:19.000Z</time>
      </trkpt>
      <trkpt lat="47.14265" lon="4.90604">
        <ele>266.79998779297</ele>
        <time>2023-06-17T05:54:26.000Z</time>
      </trkpt>
      <trkpt lat="47.14237" lon="4.90536">
        <ele>266.60000610352</ele>
        <time>2023-06-17T05:54:35.000Z</time>
      </trkpt>
      <trkpt lat="47.14207" lon="4.90465">
        <ele>266.79998779297</ele>
        <time>2023-06-17T05:54:44.000Z</time>
      </trkpt>
      <trkpt lat="47.14193" lon="4.90424">
        <ele>266.79998779297</ele>
        <time>2023-06-17T05:54:49.000Z</time>
      </trkpt>
      <trkpt lat="47.14183" lon="4.90379">
        <ele>267</ele>
        <time>2023-06-17T05:54:54.000Z</time>
      </trkpt>
      <trkpt lat="47.1418" lon="4.9036">
        <ele>267</ele>
        <time>2023-06-17T05:54:56.000Z</time>
      </trkpt>
      <trkpt lat="47.14169" lon="4.90273">
        <ele>267</ele>
        <time>2023-06-17T05:55:05.000Z</time>
      </trkpt>
      <trkpt lat="47.14168" lon="4.90264">
        <ele>267</ele>
        <time>2023-06-17T05:55:06.000Z</time>
      </trkpt>
      <trkpt lat="47.14159" lon="4.90187">
        <ele>266.79998779297</ele>
        <time>2023-06-17T05:55:14.000Z</time>
      </trkpt>
      <trkpt lat="47.14152" lon="4.90103">
        <ele>266.79998779297</ele>
        <time>2023-06-17T05:55:23.000Z</time>
      </trkpt>
      <trkpt lat="47.14151" lon="4.90094">
        <ele>266.79998779297</ele>
        <time>2023-06-17T05:55:24.000Z</time>
      </trkpt>
      <trkpt lat="47.14148" lon="4.90011">
        <ele>266.79998779297</ele>
        <time>2023-06-17T05:55:33.000Z</time>
      </trkpt>
      <trkpt lat="47.14148" lon="4.89993">
        <ele>267</ele>
        <time>2023-06-17T05:55:35.000Z</time>
      </trkpt>
      <trkpt lat="47.14156" lon="4.89911">
        <ele>267</ele>
        <time>2023-06-17T05:55:44.000Z</time>
      </trkpt>
      <trkpt lat="47.14166" lon="4.89831">
        <ele>266.79998779297</ele>
        <time>2023-06-17T05:55:53.000Z</time>
      </trkpt>
      <trkpt lat="47.14172" lon="4.89768">
        <ele>267</ele>
        <time>2023-06-17T05:56:00.000Z</time>
      </trkpt>
      <trkpt lat="47.14174" lon="4.89708">
        <ele>267.60000610352</ele>
        <time>2023-06-17T05:56:07.000Z</time>
      </trkpt>
      <trkpt lat="47.14175" lon="4.89645">
        <ele>268.20001220703</ele>
        <time>2023-06-17T05:56:14.000Z</time>
      </trkpt>
      <trkpt lat="47.14174" lon="4.89596">
        <ele>268.60000610352</ele>
        <time>2023-06-17T05:56:20.000Z</time>
      </trkpt>
      <trkpt lat="47.14174" lon="4.8959">
        <ele>268.60000610352</ele>
        <time>2023-06-17T05:56:21.000Z</time>
      </trkpt>
      <trkpt lat="47.14174" lon="4.89581">
        <ele>268.79998779297</ele>
        <time>2023-06-17T05:56:22.000Z</time>
      </trkpt>
      <trkpt lat="47.14169" lon="4.89521">
        <ele>269</ele>
        <time>2023-06-17T05:56:29.000Z</time>
      </trkpt>
      <trkpt lat="47.1416" lon="4.89449">
        <ele>269.20001220703</ele>
        <time>2023-06-17T05:56:37.000Z</time>
      </trkpt>
      <trkpt lat="47.14153" lon="4.89376">
        <ele>268.79998779297</ele>
        <time>2023-06-17T05:56:44.000Z</time>
      </trkpt>
      <trkpt lat="47.14154" lon="4.89303">
        <ele>267.79998779297</ele>
        <time>2023-06-17T05:56:51.000Z</time>
      </trkpt>
      <trkpt lat="47.14154" lon="4.89296">
        <ele>267.60000610352</ele>
        <time>2023-06-17T05:56:52.000Z</time>
      </trkpt>
      <trkpt lat="47.1416" lon="4.89228">
        <ele>267.39999389648</ele>
        <time>2023-06-17T05:56:59.000Z</time>
      </trkpt>
      <trkpt lat="47.14168" lon="4.8916">
        <ele>268</ele>
        <time>2023-06-17T05:57:07.000Z</time>
      </trkpt>
      <trkpt lat="47.1417" lon="4.89138">
        <ele>268.60000610352</ele>
        <time>2023-06-17T05:57:10.000Z</time>
      </trkpt>
      <trkpt lat="47.14172" lon="4.891">
        <ele>269.79998779297</ele>
        <time>2023-06-17T05:57:15.000Z</time>
      </trkpt>
      <trkpt lat="47.14168" lon="4.89044">
        <ele>270.79998779297</ele>
        <time>2023-06-17T05:57:22.000Z</time>
      </trkpt>
      <trkpt lat="47.14167" lon="4.89035">
        <ele>271</ele>
        <time>2023-06-17T05:57:23.000Z</time>
      </trkpt>
      <trkpt lat="47.14156" lon="4.88989">
        <ele>271.60000610352</ele>
        <time>2023-06-17T05:57:29.000Z</time>
      </trkpt>
      <trkpt lat="47.14142" lon="4.88953">
        <ele>272</ele>
        <time>2023-06-17T05:57:34.000Z</time>
      </trkpt>
      <trkpt lat="47.14136" lon="4.8894">
        <ele>272</ele>
        <time>2023-06-17T05:57:36.000Z</time>
      </trkpt>
      <trkpt lat="47.141" lon="4.88877">
        <ele>271.79998779297</ele>
        <time>2023-06-17T05:57:45.000Z</time>
      </trkpt>
      <trkpt lat="47.14097" lon="4.88872">
        <ele>271.60000610352</ele>
        <time>2023-06-17T05:57:46.000Z</time>
      </trkpt>
      <trkpt lat="47.14066" lon="4.8882">
        <ele>271.20001220703</ele>
        <time>2023-06-17T05:57:53.000Z</time>
      </trkpt>
      <trkpt lat="47.1404" lon="4.88767">
        <ele>271.20001220703</ele>
        <time>2023-06-17T05:58:00.000Z</time>
      </trkpt>
      <trkpt lat="47.14027" lon="4.88713">
        <ele>271.20001220703</ele>
        <time>2023-06-17T05:58:06.000Z</time>
      </trkpt>
      <trkpt lat="47.14025" lon="4.88658">
        <ele>271.20001220703</ele>
        <time>2023-06-17T05:58:12.000Z</time>
      </trkpt>
      <trkpt lat="47.14033" lon="4.88605">
        <ele>271</ele>
        <time>2023-06-17T05:58:18.000Z</time>
      </trkpt>
      <trkpt lat="47.14035" lon="4.88596">
        <ele>271</ele>
        <time>2023-06-17T05:58:19.000Z</time>
      </trkpt>
      <trkpt lat="47.14041" lon="4.88574">
        <ele>271</ele>
        <time>2023-06-17T05:58:22.000Z</time>
      </trkpt>
      <trkpt lat="47.14051" lon="4.88537">
        <ele>270.39999389648</ele>
        <time>2023-06-17T05:58:26.000Z</time>
      </trkpt>
      <trkpt lat="47.14059" lon="4.88479">
        <ele>270.20001220703</ele>
        <time>2023-06-17T05:58:32.000Z</time>
      </trkpt>
      <trkpt lat="47.14062" lon="4.88408">
        <ele>270.39999389648</ele>
        <time>2023-06-17T05:58:39.000Z</time>
      </trkpt>
      <trkpt lat="47.14063" lon="4.8834">
        <ele>270.20001220703</ele>
        <time>2023-06-17T05:58:46.000Z</time>
      </trkpt>
      <trkpt lat="47.14064" lon="4.88284">
        <ele>270.60000610352</ele>
        <time>2023-06-17T05:58:52.000Z</time>
      </trkpt>
      <trkpt lat="47.14068" lon="4.88233">
        <ele>270.79998779297</ele>
        <time>2023-06-17T05:58:58.000Z</time>
      </trkpt>
      <trkpt lat="47.14073" lon="4.88169">
        <ele>271.60000610352</ele>
        <time>2023-06-17T05:59:05.000Z</time>
      </trkpt>
      <trkpt lat="47.14073" lon="4.8816">
        <ele>271.79998779297</ele>
        <time>2023-06-17T05:59:06.000Z</time>
      </trkpt>
      <trkpt lat="47.14072" lon="4.8808">
        <ele>272.60000610352</ele>
        <time>2023-06-17T05:59:15.000Z</time>
      </trkpt>
      <trkpt lat="47.14072" lon="4.88035">
        <ele>272.79998779297</ele>
        <time>2023-06-17T05:59:20.000Z</time>
      </trkpt>
      <trkpt lat="47.14071" lon="4.88008">
        <ele>273</ele>
        <time>2023-06-17T05:59:23.000Z</time>
      </trkpt>
      <trkpt lat="47.1407" lon="4.87993">
        <ele>273</ele>
        <time>2023-06-17T05:59:25.000Z</time>
      </trkpt>
      <trkpt lat="47.14067" lon="4.87974">
        <ele>273</ele>
        <time>2023-06-17T05:59:27.000Z</time>
      </trkpt>
      <trkpt lat="47.14065" lon="4.87966">
        <ele>273.20001220703</ele>
        <time>2023-06-17T05:59:28.000Z</time>
      </trkpt>
      <trkpt lat="47.14053" lon="4.8791">
        <ele>273.60000610352</ele>
        <time>2023-06-17T05:59:35.000Z</time>
      </trkpt>
      <trkpt lat="47.1405" lon="4.879">
        <ele>273.79998779297</ele>
        <time>2023-06-17T05:59:36.000Z</time>
      </trkpt>
      <trkpt lat="47.14047" lon="4.87885">
        <ele>274</ele>
        <time>2023-06-17T05:59:38.000Z</time>
      </trkpt>
      <trkpt lat="47.14046" lon="4.87858">
        <ele>274.39999389648</ele>
        <time>2023-06-17T05:59:41.000Z</time>
      </trkpt>
      <trkpt lat="47.14048" lon="4.87841">
        <ele>274.60000610352</ele>
        <time>2023-06-17T05:59:43.000Z</time>
      </trkpt>
      <trkpt lat="47.14049" lon="4.87834">
        <ele>274.60000610352</ele>
        <time>2023-06-17T05:59:44.000Z</time>
      </trkpt>
      <trkpt lat="47.1405" lon="4.87826">
        <ele>274.79998779297</ele>
        <time>2023-06-17T05:59:45.000Z</time>
      </trkpt>
      <trkpt lat="47.14053" lon="4.878">
        <ele>275.20001220703</ele>
        <time>2023-06-17T05:59:48.000Z</time>
      </trkpt>
      <trkpt lat="47.14054" lon="4.87793">
        <ele>275.20001220703</ele>
        <time>2023-06-17T05:59:49.000Z</time>
      </trkpt>
      <trkpt lat="47.14066" lon="4.87718">
        <ele>275.39999389648</ele>
        <time>2023-06-17T05:59:58.000Z</time>
      </trkpt>
      <trkpt lat="47.14081" lon="4.87664">
        <ele>276</ele>
        <time>2023-06-17T06:00:05.000Z</time>
      </trkpt>
      <trkpt lat="47.14087" lon="4.87647">
        <ele>276.20001220703</ele>
        <time>2023-06-17T06:00:07.000Z</time>
      </trkpt>
      <trkpt lat="47.14104" lon="4.87596">
        <ele>277</ele>
        <time>2023-06-17T06:00:14.000Z</time>
      </trkpt>
      <trkpt lat="47.14109" lon="4.87579">
        <ele>277.20001220703</ele>
        <time>2023-06-17T06:00:16.000Z</time>
      </trkpt>
      <trkpt lat="47.14128" lon="4.8752">
        <ele>278</ele>
        <time>2023-06-17T06:00:24.000Z</time>
      </trkpt>
      <trkpt lat="47.14134" lon="4.87503">
        <ele>278</ele>
        <time>2023-06-17T06:00:26.000Z</time>
      </trkpt>
      <trkpt lat="47.14151" lon="4.8745">
        <ele>278.39999389648</ele>
        <time>2023-06-17T06:00:33.000Z</time>
      </trkpt>
      <trkpt lat="47.1417" lon="4.87401">
        <ele>278.79998779297</ele>
        <time>2023-06-17T06:00:40.000Z</time>
      </trkpt>
      <trkpt lat="47.14174" lon="4.87376">
        <ele>279.20001220703</ele>
        <time>2023-06-17T06:00:43.000Z</time>
      </trkpt>
      <trkpt lat="47.14176" lon="4.87361">
        <ele>279.20001220703</ele>
        <time>2023-06-17T06:00:45.000Z</time>
      </trkpt>
      <trkpt lat="47.14182" lon="4.87291">
        <ele>280.20001220703</ele>
        <time>2023-06-17T06:00:53.000Z</time>
      </trkpt>
      <trkpt lat="47.14185" lon="4.87205">
        <ele>280.79998779297</ele>
        <time>2023-06-17T06:01:03.000Z</time>
      </trkpt>
      <trkpt lat="47.14185" lon="4.87149">
        <ele>281.20001220703</ele>
        <time>2023-06-17T06:01:10.000Z</time>
      </trkpt>
      <trkpt lat="47.14185" lon="4.87141">
        <ele>281.20001220703</ele>
        <time>2023-06-17T06:01:11.000Z</time>
      </trkpt>
      <trkpt lat="47.14189" lon="4.87082">
        <ele>281.60000610352</ele>
        <time>2023-06-17T06:01:18.000Z</time>
      </trkpt>
      <trkpt lat="47.14191" lon="4.87008">
        <ele>285.60000610352</ele>
        <time>2023-06-17T06:01:27.000Z</time>
      </trkpt>
      <trkpt lat="47.14192" lon="4.87">
        <ele>282.39999389648</ele>
        <time>2023-06-17T06:01:28.000Z</time>
      </trkpt>
      <trkpt lat="47.14192" lon="4.86968">
        <ele>282.79998779297</ele>
        <time>2023-06-17T06:01:32.000Z</time>
      </trkpt>
      <trkpt lat="47.14194" lon="4.86938">
        <ele>283.60000610352</ele>
        <time>2023-06-17T06:01:36.000Z</time>
      </trkpt>
      <trkpt lat="47.14195" lon="4.86877">
        <ele>284.60000610352</ele>
        <time>2023-06-17T06:01:44.000Z</time>
      </trkpt>
      <trkpt lat="47.14196" lon="4.86851">
        <ele>285</ele>
        <time>2023-06-17T06:01:47.000Z</time>
      </trkpt>
      <trkpt lat="47.14191" lon="4.86812">
        <ele>285.79998779297</ele>
        <time>2023-06-17T06:01:52.000Z</time>
      </trkpt>
      <trkpt lat="47.14187" lon="4.86797">
        <ele>286</ele>
        <time>2023-06-17T06:01:54.000Z</time>
      </trkpt>
      <trkpt lat="47.14179" lon="4.86768">
        <ele>286.79998779297</ele>
        <time>2023-06-17T06:01:58.000Z</time>
      </trkpt>
      <trkpt lat="47.14166" lon="4.86731">
        <ele>287</ele>
        <time>2023-06-17T06:02:03.000Z</time>
      </trkpt>
      <trkpt lat="47.14138" lon="4.8666">
        <ele>287.60000610352</ele>
        <time>2023-06-17T06:02:13.000Z</time>
      </trkpt>
      <trkpt lat="47.14133" lon="4.86645">
        <ele>287.79998779297</ele>
        <time>2023-06-17T06:02:15.000Z</time>
      </trkpt>
      <trkpt lat="47.14114" lon="4.86595">
        <ele>288.39999389648</ele>
        <time>2023-06-17T06:02:22.000Z</time>
      </trkpt>
      <trkpt lat="47.14106" lon="4.86573">
        <ele>288.79998779297</ele>
        <time>2023-06-17T06:02:25.000Z</time>
      </trkpt>
      <trkpt lat="47.14088" lon="4.86522">
        <ele>289.39999389648</ele>
        <time>2023-06-17T06:02:32.000Z</time>
      </trkpt>
      <trkpt lat="47.14078" lon="4.86493">
        <ele>289.79998779297</ele>
        <time>2023-06-17T06:02:36.000Z</time>
      </trkpt>
      <trkpt lat="47.1406" lon="4.86435">
        <ele>290.60000610352</ele>
        <time>2023-06-17T06:02:44.000Z</time>
      </trkpt>
      <trkpt lat="47.14054" lon="4.86413">
        <ele>290.79998779297</ele>
        <time>2023-06-17T06:02:47.000Z</time>
      </trkpt>
      <trkpt lat="47.14037" lon="4.86353">
        <ele>291.79998779297</ele>
        <time>2023-06-17T06:02:55.000Z</time>
      </trkpt>
      <trkpt lat="47.14035" lon="4.86346">
        <ele>292</ele>
        <time>2023-06-17T06:02:56.000Z</time>
      </trkpt>
      <trkpt lat="47.1402" lon="4.86284">
        <ele>292.79998779297</ele>
        <time>2023-06-17T06:03:04.000Z</time>
      </trkpt>
      <trkpt lat="47.14013" lon="4.86254">
        <ele>293.20001220703</ele>
        <time>2023-06-17T06:03:08.000Z</time>
      </trkpt>
      <trkpt lat="47.14005" lon="4.86207">
        <ele>293.79998779297</ele>
        <time>2023-06-17T06:03:14.000Z</time>
      </trkpt>
      <trkpt lat="47.13998" lon="4.86177">
        <ele>294.20001220703</ele>
        <time>2023-06-17T06:03:18.000Z</time>
      </trkpt>
      <trkpt lat="47.1399" lon="4.86131">
        <ele>294.60000610352</ele>
        <time>2023-06-17T06:03:24.000Z</time>
      </trkpt>
      <trkpt lat="47.13989" lon="4.86124">
        <ele>294.60000610352</ele>
        <time>2023-06-17T06:03:25.000Z</time>
      </trkpt>
      <trkpt lat="47.13985" lon="4.86102">
        <ele>295</ele>
        <time>2023-06-17T06:03:28.000Z</time>
      </trkpt>
      <trkpt lat="47.13982" lon="4.86087">
        <ele>295.39999389648</ele>
        <time>2023-06-17T06:03:30.000Z</time>
      </trkpt>
      <trkpt lat="47.13977" lon="4.86056">
        <ele>296</ele>
        <time>2023-06-17T06:03:34.000Z</time>
      </trkpt>
      <trkpt lat="47.13968" lon="4.86003">
        <ele>297.20001220703</ele>
        <time>2023-06-17T06:03:41.000Z</time>
      </trkpt>
      <trkpt lat="47.13961" lon="4.8595">
        <ele>298.20001220703</ele>
        <time>2023-06-17T06:03:48.000Z</time>
      </trkpt>
      <trkpt lat="47.13958" lon="4.85926">
        <ele>298.60000610352</ele>
        <time>2023-06-17T06:03:51.000Z</time>
      </trkpt>
      <trkpt lat="47.13954" lon="4.85869">
        <ele>299</ele>
        <time>2023-06-17T06:03:58.000Z</time>
      </trkpt>
      <trkpt lat="47.1395" lon="4.85822">
        <ele>299.60000610352</ele>
        <time>2023-06-17T06:04:04.000Z</time>
      </trkpt>
      <trkpt lat="47.13947" lon="4.85791">
        <ele>300.20001220703</ele>
        <time>2023-06-17T06:04:08.000Z</time>
      </trkpt>
      <trkpt lat="47.13945" lon="4.85761">
        <ele>300.60000610352</ele>
        <time>2023-06-17T06:04:12.000Z</time>
      </trkpt>
      <trkpt lat="47.13943" lon="4.85746">
        <ele>301</ele>
        <time>2023-06-17T06:04:14.000Z</time>
      </trkpt>
      <trkpt lat="47.1394" lon="4.85709">
        <ele>301.79998779297</ele>
        <time>2023-06-17T06:04:19.000Z</time>
      </trkpt>
      <trkpt lat="47.13938" lon="4.85694">
        <ele>302</ele>
        <time>2023-06-17T06:04:21.000Z</time>
      </trkpt>
      <trkpt lat="47.13936" lon="4.85658">
        <ele>303</ele>
        <time>2023-06-17T06:04:26.000Z</time>
      </trkpt>
      <trkpt lat="47.13935" lon="4.8565">
        <ele>303</ele>
        <time>2023-06-17T06:04:27.000Z</time>
      </trkpt>
      <trkpt lat="47.13932" lon="4.85614">
        <ele>304.20001220703</ele>
        <time>2023-06-17T06:04:32.000Z</time>
      </trkpt>
      <trkpt lat="47.13931" lon="4.85607">
        <ele>304.39999389648</ele>
        <time>2023-06-17T06:04:33.000Z</time>
      </trkpt>
      <trkpt lat="47.1393" lon="4.85593">
        <ele>304.60000610352</ele>
        <time>2023-06-17T06:04:35.000Z</time>
      </trkpt>
      <trkpt lat="47.13929" lon="4.85578">
        <ele>305</ele>
        <time>2023-06-17T06:04:37.000Z</time>
      </trkpt>
      <trkpt lat="47.13928" lon="4.8557">
        <ele>305.20001220703</ele>
        <time>2023-06-17T06:04:38.000Z</time>
      </trkpt>
      <trkpt lat="47.13928" lon="4.85563">
        <ele>305.20001220703</ele>
        <time>2023-06-17T06:04:39.000Z</time>
      </trkpt>
      <trkpt lat="47.13927" lon="4.85524">
        <ele>306.20001220703</ele>
        <time>2023-06-17T06:04:44.000Z</time>
      </trkpt>
      <trkpt lat="47.13927" lon="4.8551">
        <ele>306.60000610352</ele>
        <time>2023-06-17T06:04:46.000Z</time>
      </trkpt>
      <trkpt lat="47.13928" lon="4.85466">
        <ele>307.39999389648</ele>
        <time>2023-06-17T06:04:52.000Z</time>
      </trkpt>
      <trkpt lat="47.13929" lon="4.85443">
        <ele>307.79998779297</ele>
        <time>2023-06-17T06:04:55.000Z</time>
      </trkpt>
      <trkpt lat="47.13929" lon="4.85421">
        <ele>308.39999389648</ele>
        <time>2023-06-17T06:04:58.000Z</time>
      </trkpt>
      <trkpt lat="47.13929" lon="4.85374">
        <ele>309</ele>
        <time>2023-06-17T06:05:04.000Z</time>
      </trkpt>
      <trkpt lat="47.13926" lon="4.85342">
        <ele>309.39999389648</ele>
        <time>2023-06-17T06:05:08.000Z</time>
      </trkpt>
      <trkpt lat="47.13925" lon="4.85335">
        <ele>309.60000610352</ele>
        <time>2023-06-17T06:05:09.000Z</time>
      </trkpt>
      <trkpt lat="47.13922" lon="4.85319">
        <ele>309.79998779297</ele>
        <time>2023-06-17T06:05:11.000Z</time>
      </trkpt>
      <trkpt lat="47.1392" lon="4.85311">
        <ele>310</ele>
        <time>2023-06-17T06:05:12.000Z</time>
      </trkpt>
      <trkpt lat="47.13907" lon="4.85264">
        <ele>310.20001220703</ele>
        <time>2023-06-17T06:05:18.000Z</time>
      </trkpt>
      <trkpt lat="47.13899" lon="4.85241">
        <ele>310.39999389648</ele>
        <time>2023-06-17T06:05:21.000Z</time>
      </trkpt>
      <trkpt lat="47.13891" lon="4.85218">
        <ele>310.60000610352</ele>
        <time>2023-06-17T06:05:24.000Z</time>
      </trkpt>
      <trkpt lat="47.13887" lon="4.85202">
        <ele>310.39999389648</ele>
        <time>2023-06-17T06:05:26.000Z</time>
      </trkpt>
      <trkpt lat="47.13877" lon="4.85162">
        <ele>310.39999389648</ele>
        <time>2023-06-17T06:05:31.000Z</time>
      </trkpt>
      <trkpt lat="47.13867" lon="4.85111">
        <ele>310.60000610352</ele>
        <time>2023-06-17T06:05:37.000Z</time>
      </trkpt>
      <trkpt lat="47.13864" lon="4.85095">
        <ele>310.79998779297</ele>
        <time>2023-06-17T06:05:39.000Z</time>
      </trkpt>
      <trkpt lat="47.13855" lon="4.85044">
        <ele>311.39999389648</ele>
        <time>2023-06-17T06:05:45.000Z</time>
      </trkpt>
      <trkpt lat="47.13849" lon="4.8501">
        <ele>311.60000610352</ele>
        <time>2023-06-17T06:05:49.000Z</time>
      </trkpt>
      <trkpt lat="47.13839" lon="4.84933">
        <ele>311.60000610352</ele>
        <time>2023-06-17T06:05:58.000Z</time>
      </trkpt>
      <trkpt lat="47.13839" lon="4.84906">
        <ele>311.79998779297</ele>
        <time>2023-06-17T06:06:01.000Z</time>
      </trkpt>
      <trkpt lat="47.1384" lon="4.84889">
        <ele>311.79998779297</ele>
        <time>2023-06-17T06:06:03.000Z</time>
      </trkpt>
      <trkpt lat="47.13841" lon="4.84839">
        <ele>312</ele>
        <time>2023-06-17T06:06:09.000Z</time>
      </trkpt>
      <trkpt lat="47.13845" lon="4.84781">
        <ele>312.20001220703</ele>
        <time>2023-06-17T06:06:16.000Z</time>
      </trkpt>
      <trkpt lat="47.13848" lon="4.84749">
        <ele>312.39999389648</ele>
        <time>2023-06-17T06:06:20.000Z</time>
      </trkpt>
      <trkpt lat="47.1385" lon="4.84725">
        <ele>312.79998779297</ele>
        <time>2023-06-17T06:06:23.000Z</time>
      </trkpt>
      <trkpt lat="47.1385" lon="4.8471">
        <ele>313.20001220703</ele>
        <time>2023-06-17T06:06:25.000Z</time>
      </trkpt>
      <trkpt lat="47.13851" lon="4.84679">
        <ele>313.60000610352</ele>
        <time>2023-06-17T06:06:29.000Z</time>
      </trkpt>
      <trkpt lat="47.13851" lon="4.84671">
        <ele>313.60000610352</ele>
        <time>2023-06-17T06:06:30.000Z</time>
      </trkpt>
      <trkpt lat="47.13851" lon="4.84664">
        <ele>313.60000610352</ele>
        <time>2023-06-17T06:06:31.000Z</time>
      </trkpt>
      <trkpt lat="47.13851" lon="4.84656">
        <ele>314</ele>
        <time>2023-06-17T06:06:32.000Z</time>
      </trkpt>
      <trkpt lat="47.1385" lon="4.8464">
        <ele>314.39999389648</ele>
        <time>2023-06-17T06:06:34.000Z</time>
      </trkpt>
      <trkpt lat="47.1385" lon="4.84632">
        <ele>314.60000610352</ele>
        <time>2023-06-17T06:06:35.000Z</time>
      </trkpt>
      <trkpt lat="47.13851" lon="4.84624">
        <ele>314.60000610352</ele>
        <time>2023-06-17T06:06:36.000Z</time>
      </trkpt>
      <trkpt lat="47.13855" lon="4.8457">
        <ele>315.60000610352</ele>
        <time>2023-06-17T06:06:43.000Z</time>
      </trkpt>
      <trkpt lat="47.13856" lon="4.84564">
        <ele>315.79998779297</ele>
        <time>2023-06-17T06:06:44.000Z</time>
      </trkpt>
      <trkpt lat="47.13864" lon="4.84532">
        <ele>316.79998779297</ele>
        <time>2023-06-17T06:06:49.000Z</time>
      </trkpt>
      <trkpt lat="47.13868" lon="4.8452">
        <ele>317.39999389648</ele>
        <time>2023-06-17T06:06:51.000Z</time>
      </trkpt>
      <trkpt lat="47.1387" lon="4.84515">
        <ele>317.60000610352</ele>
        <time>2023-06-17T06:06:52.000Z</time>
      </trkpt>
      <trkpt lat="47.13872" lon="4.8451">
        <ele>317.79998779297</ele>
        <time>2023-06-17T06:06:53.000Z</time>
      </trkpt>
      <trkpt lat="47.13873" lon="4.84503">
        <ele>318</ele>
        <time>2023-06-17T06:06:54.000Z</time>
      </trkpt>
      <trkpt lat="47.13874" lon="4.8449">
        <ele>318.39999389648</ele>
        <time>2023-06-17T06:06:56.000Z</time>
      </trkpt>
      <trkpt lat="47.13873" lon="4.84476">
        <ele>318.79998779297</ele>
        <time>2023-06-17T06:06:58.000Z</time>
      </trkpt>
      <trkpt lat="47.13872" lon="4.84469">
        <ele>319</ele>
        <time>2023-06-17T06:06:59.000Z</time>
      </trkpt>
      <trkpt lat="47.13869" lon="4.84447">
        <ele>319.39999389648</ele>
        <time>2023-06-17T06:07:02.000Z</time>
      </trkpt>
      <trkpt lat="47.13867" lon="4.84433">
        <ele>319.79998779297</ele>
        <time>2023-06-17T06:07:04.000Z</time>
      </trkpt>
      <trkpt lat="47.13869" lon="4.8442">
        <ele>320</ele>
        <time>2023-06-17T06:07:06.000Z</time>
      </trkpt>
      <trkpt lat="47.1387" lon="4.84413">
        <ele>320.20001220703</ele>
        <time>2023-06-17T06:07:07.000Z</time>
      </trkpt>
      <trkpt lat="47.13871" lon="4.84406">
        <ele>320.60000610352</ele>
        <time>2023-06-17T06:07:08.000Z</time>
      </trkpt>
      <trkpt lat="47.13873" lon="4.84393">
        <ele>321</ele>
        <time>2023-06-17T06:07:10.000Z</time>
      </trkpt>
      <trkpt lat="47.13874" lon="4.84386">
        <ele>321.20001220703</ele>
        <time>2023-06-17T06:07:11.000Z</time>
      </trkpt>
      <trkpt lat="47.13878" lon="4.84359">
        <ele>322</ele>
        <time>2023-06-17T06:07:15.000Z</time>
      </trkpt>
      <trkpt lat="47.13879" lon="4.84353">
        <ele>322.39999389648</ele>
        <time>2023-06-17T06:07:16.000Z</time>
      </trkpt>
      <trkpt lat="47.13881" lon="4.84348">
        <ele>322.39999389648</ele>
        <time>2023-06-17T06:07:17.000Z</time>
      </trkpt>
      <trkpt lat="47.13883" lon="4.84344">
        <ele>322.79998779297</ele>
        <time>2023-06-17T06:07:18.000Z</time>
      </trkpt>
      <trkpt lat="47.1389" lon="4.84342">
        <ele>323.20001220703</ele>
        <time>2023-06-17T06:07:20.000Z</time>
      </trkpt>
      <trkpt lat="47.13896" lon="4.84346">
        <ele>323.60000610352</ele>
        <time>2023-06-17T06:07:22.000Z</time>
      </trkpt>
      <trkpt lat="47.13901" lon="4.84355">
        <ele>324.39999389648</ele>
        <time>2023-06-17T06:07:24.000Z</time>
      </trkpt>
      <trkpt lat="47.13911" lon="4.84374">
        <ele>325.39999389648</ele>
        <time>2023-06-17T06:07:28.000Z</time>
      </trkpt>
      <trkpt lat="47.13921" lon="4.84395">
        <ele>326.39999389648</ele>
        <time>2023-06-17T06:07:33.000Z</time>
      </trkpt>
      <trkpt lat="47.13938" lon="4.84422">
        <ele>327.60000610352</ele>
        <time>2023-06-17T06:07:39.000Z</time>
      </trkpt>
      <trkpt lat="47.13944" lon="4.84429">
        <ele>328</ele>
        <time>2023-06-17T06:07:41.000Z</time>
      </trkpt>
      <trkpt lat="47.13961" lon="4.84443">
        <ele>328.79998779297</ele>
        <time>2023-06-17T06:07:46.000Z</time>
      </trkpt>
      <trkpt lat="47.13965" lon="4.84443">
        <ele>328.79998779297</ele>
        <time>2023-06-17T06:07:47.000Z</time>
      </trkpt>
      <trkpt lat="47.1398" lon="4.84442">
        <ele>329.79998779297</ele>
        <time>2023-06-17T06:07:51.000Z</time>
      </trkpt>
      <trkpt lat="47.13988" lon="4.84441">
        <ele>330.39999389648</ele>
        <time>2023-06-17T06:07:53.000Z</time>
      </trkpt>
      <trkpt lat="47.13992" lon="4.8444">
        <ele>330.79998779297</ele>
        <time>2023-06-17T06:07:54.000Z</time>
      </trkpt>
      <trkpt lat="47.14021" lon="4.84432">
        <ele>331.79998779297</ele>
        <time>2023-06-17T06:08:02.000Z</time>
      </trkpt>
      <trkpt lat="47.14025" lon="4.84431">
        <ele>332</ele>
        <time>2023-06-17T06:08:03.000Z</time>
      </trkpt>
      <trkpt lat="47.14035" lon="4.84436">
        <ele>332.79998779297</ele>
        <time>2023-06-17T06:08:06.000Z</time>
      </trkpt>
      <trkpt lat="47.14037" lon="4.84439">
        <ele>333</ele>
        <time>2023-06-17T06:08:07.000Z</time>
      </trkpt>
      <trkpt lat="47.14043" lon="4.84454">
        <ele>333.79998779297</ele>
        <time>2023-06-17T06:08:10.000Z</time>
      </trkpt>
      <trkpt lat="47.14045" lon="4.84465">
        <ele>334</ele>
        <time>2023-06-17T06:08:12.000Z</time>
      </trkpt>
      <trkpt lat="47.14044" lon="4.84483">
        <ele>334.60000610352</ele>
        <time>2023-06-17T06:08:15.000Z</time>
      </trkpt>
      <trkpt lat="47.14042" lon="4.84495">
        <ele>335.20001220703</ele>
        <time>2023-06-17T06:08:17.000Z</time>
      </trkpt>
      <trkpt lat="47.14037" lon="4.84517">
        <ele>336.20001220703</ele>
        <time>2023-06-17T06:08:21.000Z</time>
      </trkpt>
      <trkpt lat="47.14035" lon="4.84523">
        <ele>336.20001220703</ele>
        <time>2023-06-17T06:08:22.000Z</time>
      </trkpt>
      <trkpt lat="47.14028" lon="4.84545">
        <ele>337.20001220703</ele>
        <time>2023-06-17T06:08:26.000Z</time>
      </trkpt>
      <trkpt lat="47.14022" lon="4.84561">
        <ele>337.60000610352</ele>
        <time>2023-06-17T06:08:29.000Z</time>
      </trkpt>
      <trkpt lat="47.14014" lon="4.84582">
        <ele>338.20001220703</ele>
        <time>2023-06-17T06:08:33.000Z</time>
      </trkpt>
      <trkpt lat="47.14005" lon="4.84603">
        <ele>338.60000610352</ele>
        <time>2023-06-17T06:08:37.000Z</time>
      </trkpt>
      <trkpt lat="47.14003" lon="4.84609">
        <ele>338.79998779297</ele>
        <time>2023-06-17T06:08:38.000Z</time>
      </trkpt>
      <trkpt lat="47.13997" lon="4.84625">
        <ele>339.20001220703</ele>
        <time>2023-06-17T06:08:41.000Z</time>
      </trkpt>
      <trkpt lat="47.13988" lon="4.84646">
        <ele>340.20001220703</ele>
        <time>2023-06-17T06:08:45.000Z</time>
      </trkpt>
      <trkpt lat="47.13985" lon="4.84656">
        <ele>340.39999389648</ele>
        <time>2023-06-17T06:08:47.000Z</time>
      </trkpt>
      <trkpt lat="47.13976" lon="4.84683">
        <ele>341.60000610352</ele>
        <time>2023-06-17T06:08:52.000Z</time>
      </trkpt>
      <trkpt lat="47.13971" lon="4.84698">
        <ele>342</ele>
        <time>2023-06-17T06:08:55.000Z</time>
      </trkpt>
      <trkpt lat="47.13968" lon="4.84708">
        <ele>342.39999389648</ele>
        <time>2023-06-17T06:08:57.000Z</time>
      </trkpt>
      <trkpt lat="47.13966" lon="4.8473">
        <ele>343.20001220703</ele>
        <time>2023-06-17T06:09:01.000Z</time>
      </trkpt>
      <trkpt lat="47.13966" lon="4.84741">
        <ele>343.60000610352</ele>
        <time>2023-06-17T06:09:03.000Z</time>
      </trkpt>
      <trkpt lat="47.13969" lon="4.84761">
        <ele>344.60000610352</ele>
        <time>2023-06-17T06:09:07.000Z</time>
      </trkpt>
      <trkpt lat="47.1397" lon="4.84765">
        <ele>344.60000610352</ele>
        <time>2023-06-17T06:09:08.000Z</time>
      </trkpt>
      <trkpt lat="47.13978" lon="4.84782">
        <ele>345.79998779297</ele>
        <time>2023-06-17T06:09:12.000Z</time>
      </trkpt>
      <trkpt lat="47.13991" lon="4.84785">
        <ele>346.60000610352</ele>
        <time>2023-06-17T06:09:16.000Z</time>
      </trkpt>
      <trkpt lat="47.13998" lon="4.8478">
        <ele>347</ele>
        <time>2023-06-17T06:09:18.000Z</time>
      </trkpt>
      <trkpt lat="47.14007" lon="4.84771">
        <ele>347.79998779297</ele>
        <time>2023-06-17T06:09:21.000Z</time>
      </trkpt>
      <trkpt lat="47.14013" lon="4.84765">
        <ele>348.39999389648</ele>
        <time>2023-06-17T06:09:23.000Z</time>
      </trkpt>
      <trkpt lat="47.14026" lon="4.84748">
        <ele>349.60000610352</ele>
        <time>2023-06-17T06:09:28.000Z</time>
      </trkpt>
      <trkpt lat="47.14029" lon="4.84743">
        <ele>349.79998779297</ele>
        <time>2023-06-17T06:09:29.000Z</time>
      </trkpt>
      <trkpt lat="47.14036" lon="4.84737">
        <ele>350.60000610352</ele>
        <time>2023-06-17T06:09:31.000Z</time>
      </trkpt>
      <trkpt lat="47.14049" lon="4.84722">
        <ele>351.60000610352</ele>
        <time>2023-06-17T06:09:35.000Z</time>
      </trkpt>
      <trkpt lat="47.1407" lon="4.84697">
        <ele>352.79998779297</ele>
        <time>2023-06-17T06:09:41.000Z</time>
      </trkpt>
      <trkpt lat="47.14081" lon="4.84682">
        <ele>353.79998779297</ele>
        <time>2023-06-17T06:09:45.000Z</time>
      </trkpt>
      <trkpt lat="47.14092" lon="4.84668">
        <ele>354.79998779297</ele>
        <time>2023-06-17T06:09:49.000Z</time>
      </trkpt>
      <trkpt lat="47.14106" lon="4.8465">
        <ele>355.79998779297</ele>
        <time>2023-06-17T06:09:54.000Z</time>
      </trkpt>
      <trkpt lat="47.14109" lon="4.84646">
        <ele>356</ele>
        <time>2023-06-17T06:09:55.000Z</time>
      </trkpt>
      <trkpt lat="47.14119" lon="4.8463">
        <ele>357.20001220703</ele>
        <time>2023-06-17T06:09:59.000Z</time>
      </trkpt>
      <trkpt lat="47.14129" lon="4.84615">
        <ele>357.79998779297</ele>
        <time>2023-06-17T06:10:03.000Z</time>
      </trkpt>
      <trkpt lat="47.14131" lon="4.84611">
        <ele>358.20001220703</ele>
        <time>2023-06-17T06:10:04.000Z</time>
      </trkpt>
      <trkpt lat="47.14136" lon="4.84603">
        <ele>358.60000610352</ele>
        <time>2023-06-17T06:10:06.000Z</time>
      </trkpt>
      <trkpt lat="47.14143" lon="4.84591">
        <ele>359.39999389648</ele>
        <time>2023-06-17T06:10:09.000Z</time>
      </trkpt>
      <trkpt lat="47.1415" lon="4.84579">
        <ele>360.60000610352</ele>
        <time>2023-06-17T06:10:12.000Z</time>
      </trkpt>
      <trkpt lat="47.14163" lon="4.8455">
        <ele>361.60000610352</ele>
        <time>2023-06-17T06:10:19.000Z</time>
      </trkpt>
      <trkpt lat="47.14163" lon="4.8455">
        <ele>361.79998779297</ele>
        <time>2023-06-17T06:10:20.000Z</time>
      </trkpt>
      <trkpt lat="47.14174" lon="4.84531">
        <ele>362.60000610352</ele>
        <time>2023-06-17T06:10:24.000Z</time>
      </trkpt>
      <trkpt lat="47.14184" lon="4.84512">
        <ele>363.79998779297</ele>
        <time>2023-06-17T06:10:29.000Z</time>
      </trkpt>
      <trkpt lat="47.14196" lon="4.8449">
        <ele>365.20001220703</ele>
        <time>2023-06-17T06:10:35.000Z</time>
      </trkpt>
      <trkpt lat="47.14202" lon="4.8448">
        <ele>366</ele>
        <time>2023-06-17T06:10:38.000Z</time>
      </trkpt>
      <trkpt lat="47.14206" lon="4.84472">
        <ele>366.39999389648</ele>
        <time>2023-06-17T06:10:40.000Z</time>
      </trkpt>
      <trkpt lat="47.14217" lon="4.84452">
        <ele>367.60000610352</ele>
        <time>2023-06-17T06:10:45.000Z</time>
      </trkpt>
      <trkpt lat="47.14221" lon="4.84444">
        <ele>368.60000610352</ele>
        <time>2023-06-17T06:10:48.000Z</time>
      </trkpt>
      <trkpt lat="47.14224" lon="4.84436">
        <ele>368.60000610352</ele>
        <time>2023-06-17T06:10:49.000Z</time>
      </trkpt>
      <trkpt lat="47.14234" lon="4.84416">
        <ele>369.60000610352</ele>
        <time>2023-06-17T06:10:54.000Z</time>
      </trkpt>
      <trkpt lat="47.14236" lon="4.84412">
        <ele>369.79998779297</ele>
        <time>2023-06-17T06:10:55.000Z</time>
      </trkpt>
      <trkpt lat="47.14243" lon="4.84401">
        <ele>370.60000610352</ele>
        <time>2023-06-17T06:10:58.000Z</time>
      </trkpt>
      <trkpt lat="47.14256" lon="4.84377">
        <ele>371.79998779297</ele>
        <time>2023-06-17T06:11:04.000Z</time>
      </trkpt>
      <trkpt lat="47.14266" lon="4.84357">
        <ele>373</ele>
        <time>2023-06-17T06:11:09.000Z</time>
      </trkpt>
      <trkpt lat="47.14275" lon="4.84342">
        <ele>374</ele>
        <time>2023-06-17T06:11:13.000Z</time>
      </trkpt>
      <trkpt lat="47.14278" lon="4.84338">
        <ele>374.20001220703</ele>
        <time>2023-06-17T06:11:14.000Z</time>
      </trkpt>
      <trkpt lat="47.14291" lon="4.84318">
        <ele>375.39999389648</ele>
        <time>2023-06-17T06:11:19.000Z</time>
      </trkpt>
      <trkpt lat="47.14302" lon="4.84304">
        <ele>376.39999389648</ele>
        <time>2023-06-17T06:11:23.000Z</time>
      </trkpt>
      <trkpt lat="47.14305" lon="4.84301">
        <ele>376.60000610352</ele>
        <time>2023-06-17T06:11:24.000Z</time>
      </trkpt>
      <trkpt lat="47.14319" lon="4.84286">
        <ele>377.79998779297</ele>
        <time>2023-06-17T06:11:29.000Z</time>
      </trkpt>
      <trkpt lat="47.14327" lon="4.84278">
        <ele>378.39999389648</ele>
        <time>2023-06-17T06:11:32.000Z</time>
      </trkpt>
      <trkpt lat="47.14333" lon="4.84272">
        <ele>379</ele>
        <time>2023-06-17T06:11:34.000Z</time>
      </trkpt>
      <trkpt lat="47.14347" lon="4.84259">
        <ele>380.20001220703</ele>
        <time>2023-06-17T06:11:40.000Z</time>
      </trkpt>
      <trkpt lat="47.14365" lon="4.84245">
        <ele>381.39999389648</ele>
        <time>2023-06-17T06:11:45.000Z</time>
      </trkpt>
      <trkpt lat="47.1438" lon="4.84234">
        <ele>382.60000610352</ele>
        <time>2023-06-17T06:11:50.000Z</time>
      </trkpt>
      <trkpt lat="47.14391" lon="4.84225">
        <ele>383.39999389648</ele>
        <time>2023-06-17T06:11:54.000Z</time>
      </trkpt>
      <trkpt lat="47.14395" lon="4.84223">
        <ele>383.79998779297</ele>
        <time>2023-06-17T06:11:55.000Z</time>
      </trkpt>
      <trkpt lat="47.1441" lon="4.84212">
        <ele>385.20001220703</ele>
        <time>2023-06-17T06:12:00.000Z</time>
      </trkpt>
      <trkpt lat="47.14419" lon="4.84201">
        <ele>386.20001220703</ele>
        <time>2023-06-17T06:12:04.000Z</time>
      </trkpt>
      <trkpt lat="47.14431" lon="4.84184">
        <ele>387.39999389648</ele>
        <time>2023-06-17T06:12:09.000Z</time>
      </trkpt>
      <trkpt lat="47.14436" lon="4.84176">
        <ele>387.60000610352</ele>
        <time>2023-06-17T06:12:11.000Z</time>
      </trkpt>
      <trkpt lat="47.1444" lon="4.84163">
        <ele>388.60000610352</ele>
        <time>2023-06-17T06:12:14.000Z</time>
      </trkpt>
      <trkpt lat="47.14444" lon="4.84148">
        <ele>389.20001220703</ele>
        <time>2023-06-17T06:12:17.000Z</time>
      </trkpt>
      <trkpt lat="47.14447" lon="4.84138">
        <ele>389.60000610352</ele>
        <time>2023-06-17T06:12:19.000Z</time>
      </trkpt>
      <trkpt lat="47.14451" lon="4.84116">
        <ele>390.79998779297</ele>
        <time>2023-06-17T06:12:23.000Z</time>
      </trkpt>
      <trkpt lat="47.14452" lon="4.8411">
        <ele>391</ele>
        <time>2023-06-17T06:12:24.000Z</time>
      </trkpt>
      <trkpt lat="47.14453" lon="4.84088">
        <ele>391.60000610352</ele>
        <time>2023-06-17T06:12:29.000Z</time>
      </trkpt>
      <trkpt lat="47.1445" lon="4.84073">
        <ele>392</ele>
        <time>2023-06-17T06:12:31.000Z</time>
      </trkpt>
      <trkpt lat="47.14446" lon="4.84059">
        <ele>392.60000610352</ele>
        <time>2023-06-17T06:12:34.000Z</time>
      </trkpt>
      <trkpt lat="47.1444" lon="4.84041">
        <ele>393.79998779297</ele>
        <time>2023-06-17T06:12:38.000Z</time>
      </trkpt>
      <trkpt lat="47.14438" lon="4.84037">
        <ele>393.79998779297</ele>
        <time>2023-06-17T06:12:39.000Z</time>
      </trkpt>
      <trkpt lat="47.14429" lon="4.84021">
        <ele>394.79998779297</ele>
        <time>2023-06-17T06:12:44.000Z</time>
      </trkpt>
      <trkpt lat="47.14419" lon="4.84007">
        <ele>395.79998779297</ele>
        <time>2023-06-17T06:12:47.000Z</time>
      </trkpt>
      <trkpt lat="47.14416" lon="4.84003">
        <ele>396</ele>
        <time>2023-06-17T06:12:48.000Z</time>
      </trkpt>
      <trkpt lat="47.14397" lon="4.83981">
        <ele>397</ele>
        <time>2023-06-17T06:12:55.000Z</time>
      </trkpt>
      <trkpt lat="47.14391" lon="4.83974">
        <ele>397.39999389648</ele>
        <time>2023-06-17T06:12:57.000Z</time>
      </trkpt>
      <trkpt lat="47.14382" lon="4.83964">
        <ele>398</ele>
        <time>2023-06-17T06:13:00.000Z</time>
      </trkpt>
      <trkpt lat="47.14375" lon="4.83951">
        <ele>399</ele>
        <time>2023-06-17T06:13:04.000Z</time>
      </trkpt>
      <trkpt lat="47.14371" lon="4.83942">
        <ele>399.20001220703</ele>
        <time>2023-06-17T06:13:05.000Z</time>
      </trkpt>
      <trkpt lat="47.14366" lon="4.83917">
        <ele>400.20001220703</ele>
        <time>2023-06-17T06:13:10.000Z</time>
      </trkpt>
      <trkpt lat="47.14366" lon="4.83912">
        <ele>400.39999389648</ele>
        <time>2023-06-17T06:13:11.000Z</time>
      </trkpt>
      <trkpt lat="47.14363" lon="4.83882">
        <ele>401.79998779297</ele>
        <time>2023-06-17T06:13:17.000Z</time>
      </trkpt>
      <trkpt lat="47.14362" lon="4.83868">
        <ele>402.79998779297</ele>
        <time>2023-06-17T06:13:20.000Z</time>
      </trkpt>
      <trkpt lat="47.14362" lon="4.83863">
        <ele>403.20001220703</ele>
        <time>2023-06-17T06:13:21.000Z</time>
      </trkpt>
      <trkpt lat="47.14363" lon="4.83838">
        <ele>404.39999389648</ele>
        <time>2023-06-17T06:13:26.000Z</time>
      </trkpt>
      <trkpt lat="47.14364" lon="4.83828">
        <ele>405</ele>
        <time>2023-06-17T06:13:28.000Z</time>
      </trkpt>
      <trkpt lat="47.14365" lon="4.83818">
        <ele>405.60000610352</ele>
        <time>2023-06-17T06:13:30.000Z</time>
      </trkpt>
      <trkpt lat="47.14367" lon="4.83797">
        <ele>406.79998779297</ele>
        <time>2023-06-17T06:13:35.000Z</time>
      </trkpt>
      <trkpt lat="47.14369" lon="4.83775">
        <ele>407.39999389648</ele>
        <time>2023-06-17T06:13:38.000Z</time>
      </trkpt>
      <trkpt lat="47.1437" lon="4.83764">
        <ele>408</ele>
        <time>2023-06-17T06:13:40.000Z</time>
      </trkpt>
      <trkpt lat="47.1437" lon="4.83738">
        <ele>409</ele>
        <time>2023-06-17T06:13:45.000Z</time>
      </trkpt>
      <trkpt lat="47.14369" lon="4.83733">
        <ele>409.20001220703</ele>
        <time>2023-06-17T06:13:46.000Z</time>
      </trkpt>
      <trkpt lat="47.14366" lon="4.83712">
        <ele>410.20001220703</ele>
        <time>2023-06-17T06:13:50.000Z</time>
      </trkpt>
      <trkpt lat="47.1436" lon="4.83688">
        <ele>411.20001220703</ele>
        <time>2023-06-17T06:13:55.000Z</time>
      </trkpt>
      <trkpt lat="47.14353" lon="4.83664">
        <ele>412.39999389648</ele>
        <time>2023-06-17T06:14:00.000Z</time>
      </trkpt>
      <trkpt lat="47.14347" lon="4.83644">
        <ele>413.39999389648</ele>
        <time>2023-06-17T06:14:04.000Z</time>
      </trkpt>
      <trkpt lat="47.14345" lon="4.83639">
        <ele>413.79998779297</ele>
        <time>2023-06-17T06:14:05.000Z</time>
      </trkpt>
      <trkpt lat="47.1434" lon="4.83624">
        <ele>414.60000610352</ele>
        <time>2023-06-17T06:14:08.000Z</time>
      </trkpt>
      <trkpt lat="47.14331" lon="4.83599">
        <ele>415.60000610352</ele>
        <time>2023-06-17T06:14:13.000Z</time>
      </trkpt>
      <trkpt lat="47.14326" lon="4.83585">
        <ele>416.60000610352</ele>
        <time>2023-06-17T06:14:16.000Z</time>
      </trkpt>
      <trkpt lat="47.14325" lon="4.83579">
        <ele>416.79998779297</ele>
        <time>2023-06-17T06:14:17.000Z</time>
      </trkpt>
      <trkpt lat="47.14318" lon="4.83555">
        <ele>417.79998779297</ele>
        <time>2023-06-17T06:14:22.000Z</time>
      </trkpt>
      <trkpt lat="47.14315" lon="4.83546">
        <ele>418.20001220703</ele>
        <time>2023-06-17T06:14:24.000Z</time>
      </trkpt>
      <trkpt lat="47.14313" lon="4.83534">
        <ele>418.79998779297</ele>
        <time>2023-06-17T06:14:26.000Z</time>
      </trkpt>
      <trkpt lat="47.14311" lon="4.83514">
        <ele>419.79998779297</ele>
        <time>2023-06-17T06:14:30.000Z</time>
      </trkpt>
      <trkpt lat="47.14309" lon="4.83498">
        <ele>420.60000610352</ele>
        <time>2023-06-17T06:14:33.000Z</time>
      </trkpt>
      <trkpt lat="47.14308" lon="4.83487">
        <ele>421</ele>
        <time>2023-06-17T06:14:35.000Z</time>
      </trkpt>
      <trkpt lat="47.14307" lon="4.83461">
        <ele>422.39999389648</ele>
        <time>2023-06-17T06:14:40.000Z</time>
      </trkpt>
      <trkpt lat="47.14307" lon="4.83454">
        <ele>422.39999389648</ele>
        <time>2023-06-17T06:14:41.000Z</time>
      </trkpt>
      <trkpt lat="47.14309" lon="4.83433">
        <ele>423.60000610352</ele>
        <time>2023-06-17T06:14:45.000Z</time>
      </trkpt>
      <trkpt lat="47.14313" lon="4.83422">
        <ele>424.20001220703</ele>
        <time>2023-06-17T06:14:47.000Z</time>
      </trkpt>
      <trkpt lat="47.14322" lon="4.83412">
        <ele>424.79998779297</ele>
        <time>2023-06-17T06:14:50.000Z</time>
      </trkpt>
      <trkpt lat="47.14329" lon="4.83408">
        <ele>425.39999389648</ele>
        <time>2023-06-17T06:14:52.000Z</time>
      </trkpt>
      <trkpt lat="47.14341" lon="4.83406">
        <ele>426.39999389648</ele>
        <time>2023-06-17T06:14:55.000Z</time>
      </trkpt>
      <trkpt lat="47.14351" lon="4.83408">
        <ele>427.20001220703</ele>
        <time>2023-06-17T06:14:58.000Z</time>
      </trkpt>
      <trkpt lat="47.14354" lon="4.83409">
        <ele>427.39999389648</ele>
        <time>2023-06-17T06:14:59.000Z</time>
      </trkpt>
      <trkpt lat="47.1437" lon="4.83414">
        <ele>428.60000610352</ele>
        <time>2023-06-17T06:15:03.000Z</time>
      </trkpt>
      <trkpt lat="47.14374" lon="4.83416">
        <ele>428.79998779297</ele>
        <time>2023-06-17T06:15:04.000Z</time>
      </trkpt>
      <trkpt lat="47.14388" lon="4.83421">
        <ele>429.39999389648</ele>
        <time>2023-06-17T06:15:08.000Z</time>
      </trkpt>
      <trkpt lat="47.14392" lon="4.83423">
        <ele>429.79998779297</ele>
        <time>2023-06-17T06:15:09.000Z</time>
      </trkpt>
      <trkpt lat="47.14411" lon="4.83431">
        <ele>430.79998779297</ele>
        <time>2023-06-17T06:15:14.000Z</time>
      </trkpt>
      <trkpt lat="47.14418" lon="4.83434">
        <ele>431.20001220703</ele>
        <time>2023-06-17T06:15:16.000Z</time>
      </trkpt>
      <trkpt lat="47.14436" lon="4.83441">
        <ele>432.20001220703</ele>
        <time>2023-06-17T06:15:21.000Z</time>
      </trkpt>
      <trkpt lat="47.1445" lon="4.83445">
        <ele>433</ele>
        <time>2023-06-17T06:15:25.000Z</time>
      </trkpt>
      <trkpt lat="47.14457" lon="4.83446">
        <ele>433.20001220703</ele>
        <time>2023-06-17T06:15:27.000Z</time>
      </trkpt>
      <trkpt lat="47.14465" lon="4.83444">
        <ele>434</ele>
        <time>2023-06-17T06:15:30.000Z</time>
      </trkpt>
      <trkpt lat="47.14475" lon="4.83435">
        <ele>434.20001220703</ele>
        <time>2023-06-17T06:15:32.000Z</time>
      </trkpt>
      <trkpt lat="47.1448" lon="4.83427">
        <ele>434.39999389648</ele>
        <time>2023-06-17T06:15:34.000Z</time>
      </trkpt>
      <trkpt lat="47.14483" lon="4.83412">
        <ele>435.39999389648</ele>
        <time>2023-06-17T06:15:37.000Z</time>
      </trkpt>
      <trkpt lat="47.14484" lon="4.83404">
        <ele>435.79998779297</ele>
        <time>2023-06-17T06:15:39.000Z</time>
      </trkpt>
      <trkpt lat="47.14484" lon="4.8339">
        <ele>436.60000610352</ele>
        <time>2023-06-17T06:15:42.000Z</time>
      </trkpt>
      <trkpt lat="47.14486" lon="4.83379">
        <ele>437</ele>
        <time>2023-06-17T06:15:44.000Z</time>
      </trkpt>
      <trkpt lat="47.14489" lon="4.83362">
        <ele>437.60000610352</ele>
        <time>2023-06-17T06:15:47.000Z</time>
      </trkpt>
      <trkpt lat="47.14492" lon="4.83347">
        <ele>438.39999389648</ele>
        <time>2023-06-17T06:15:50.000Z</time>
      </trkpt>
      <trkpt lat="47.14495" lon="4.83337">
        <ele>438.79998779297</ele>
        <time>2023-06-17T06:15:52.000Z</time>
      </trkpt>
      <trkpt lat="47.14506" lon="4.83319">
        <ele>439.79998779297</ele>
        <time>2023-06-17T06:15:56.000Z</time>
      </trkpt>
      <trkpt lat="47.14527" lon="4.83306">
        <ele>440.79998779297</ele>
        <time>2023-06-17T06:16:01.000Z</time>
      </trkpt>
      <trkpt lat="47.14531" lon="4.83305">
        <ele>441</ele>
        <time>2023-06-17T06:16:02.000Z</time>
      </trkpt>
      <trkpt lat="47.14546" lon="4.83299">
        <ele>442.20001220703</ele>
        <time>2023-06-17T06:16:06.000Z</time>
      </trkpt>
      <trkpt lat="47.14569" lon="4.83298">
        <ele>443.20001220703</ele>
        <time>2023-06-17T06:16:12.000Z</time>
      </trkpt>
      <trkpt lat="47.14577" lon="4.833">
        <ele>443.60000610352</ele>
        <time>2023-06-17T06:16:14.000Z</time>
      </trkpt>
      <trkpt lat="47.14604" lon="4.83308">
        <ele>444.39999389648</ele>
        <time>2023-06-17T06:16:21.000Z</time>
      </trkpt>
      <trkpt lat="47.14612" lon="4.8331">
        <ele>444.60000610352</ele>
        <time>2023-06-17T06:16:23.000Z</time>
      </trkpt>
      <trkpt lat="47.14621" lon="4.83313">
        <ele>445.20001220703</ele>
        <time>2023-06-17T06:16:26.000Z</time>
      </trkpt>
      <trkpt lat="47.14624" lon="4.83314">
        <ele>445.39999389648</ele>
        <time>2023-06-17T06:16:27.000Z</time>
      </trkpt>
      <trkpt lat="47.14639" lon="4.83318">
        <ele>446.60000610352</ele>
        <time>2023-06-17T06:16:31.000Z</time>
      </trkpt>
      <trkpt lat="47.14644" lon="4.83319">
        <ele>446.60000610352</ele>
        <time>2023-06-17T06:16:32.000Z</time>
      </trkpt>
      <trkpt lat="47.14661" lon="4.8332">
        <ele>447.60000610352</ele>
        <time>2023-06-17T06:16:37.000Z</time>
      </trkpt>
      <trkpt lat="47.14664" lon="4.8332">
        <ele>447.79998779297</ele>
        <time>2023-06-17T06:16:38.000Z</time>
      </trkpt>
      <trkpt lat="47.1468" lon="4.83322">
        <ele>448.79998779297</ele>
        <time>2023-06-17T06:16:42.000Z</time>
      </trkpt>
      <trkpt lat="47.14688" lon="4.83324">
        <ele>449</ele>
        <time>2023-06-17T06:16:44.000Z</time>
      </trkpt>
      <trkpt lat="47.14711" lon="4.83324">
        <ele>450.39999389648</ele>
        <time>2023-06-17T06:16:49.000Z</time>
      </trkpt>
      <trkpt lat="47.14719" lon="4.83325">
        <ele>451</ele>
        <time>2023-06-17T06:16:51.000Z</time>
      </trkpt>
      <trkpt lat="47.14724" lon="4.83325">
        <ele>451.39999389648</ele>
        <time>2023-06-17T06:16:54.000Z</time>
      </trkpt>
      <trkpt lat="47.1474" lon="4.83326">
        <ele>452</ele>
        <time>2023-06-17T06:16:57.000Z</time>
      </trkpt>
      <trkpt lat="47.14747" lon="4.83326">
        <ele>452.39999389648</ele>
        <time>2023-06-17T06:16:59.000Z</time>
      </trkpt>
      <trkpt lat="47.14766" lon="4.83326">
        <ele>453.20001220703</ele>
        <time>2023-06-17T06:17:03.000Z</time>
      </trkpt>
      <trkpt lat="47.14771" lon="4.83327">
        <ele>453.39999389648</ele>
        <time>2023-06-17T06:17:04.000Z</time>
      </trkpt>
      <trkpt lat="47.14791" lon="4.83327">
        <ele>454.60000610352</ele>
        <time>2023-06-17T06:17:09.000Z</time>
      </trkpt>
      <trkpt lat="47.14795" lon="4.83326">
        <ele>454.60000610352</ele>
        <time>2023-06-17T06:17:10.000Z</time>
      </trkpt>
      <trkpt lat="47.14815" lon="4.83326">
        <ele>455.60000610352</ele>
        <time>2023-06-17T06:17:15.000Z</time>
      </trkpt>
      <trkpt lat="47.14819" lon="4.83325">
        <ele>455.79998779297</ele>
        <time>2023-06-17T06:17:16.000Z</time>
      </trkpt>
      <trkpt lat="47.14836" lon="4.83325">
        <ele>456.79998779297</ele>
        <time>2023-06-17T06:17:20.000Z</time>
      </trkpt>
      <trkpt lat="47.14852" lon="4.83323">
        <ele>457.39999389648</ele>
        <time>2023-06-17T06:17:24.000Z</time>
      </trkpt>
      <trkpt lat="47.1486" lon="4.83323">
        <ele>457.79998779297</ele>
        <time>2023-06-17T06:17:26.000Z</time>
      </trkpt>
      <trkpt lat="47.14882" lon="4.83323">
        <ele>458.79998779297</ele>
        <time>2023-06-17T06:17:31.000Z</time>
      </trkpt>
      <trkpt lat="47.14905" lon="4.83322">
        <ele>459.39999389648</ele>
        <time>2023-06-17T06:17:36.000Z</time>
      </trkpt>
      <trkpt lat="47.14933" lon="4.83319">
        <ele>459.79998779297</ele>
        <time>2023-06-17T06:17:42.000Z</time>
      </trkpt>
      <trkpt lat="47.14941" lon="4.83316">
        <ele>460.20001220703</ele>
        <time>2023-06-17T06:17:44.000Z</time>
      </trkpt>
      <trkpt lat="47.1495" lon="4.8331">
        <ele>460.39999389648</ele>
        <time>2023-06-17T06:17:46.000Z</time>
      </trkpt>
      <trkpt lat="47.14955" lon="4.83306">
        <ele>460.60000610352</ele>
        <time>2023-06-17T06:17:47.000Z</time>
      </trkpt>
      <trkpt lat="47.14958" lon="4.83301">
        <ele>460.79998779297</ele>
        <time>2023-06-17T06:17:48.000Z</time>
      </trkpt>
      <trkpt lat="47.14962" lon="4.83297">
        <ele>461</ele>
        <time>2023-06-17T06:17:49.000Z</time>
      </trkpt>
      <trkpt lat="47.14968" lon="4.83286">
        <ele>461</ele>
        <time>2023-06-17T06:17:51.000Z</time>
      </trkpt>
      <trkpt lat="47.14971" lon="4.83275">
        <ele>461.20001220703</ele>
        <time>2023-06-17T06:17:53.000Z</time>
      </trkpt>
      <trkpt lat="47.14972" lon="4.83268">
        <ele>461.20001220703</ele>
        <time>2023-06-17T06:17:54.000Z</time>
      </trkpt>
      <trkpt lat="47.14972" lon="4.83243">
        <ele>461.79998779297</ele>
        <time>2023-06-17T06:17:58.000Z</time>
      </trkpt>
      <trkpt lat="47.14971" lon="4.83237">
        <ele>461.79998779297</ele>
        <time>2023-06-17T06:17:59.000Z</time>
      </trkpt>
      <trkpt lat="47.14971" lon="4.83231">
        <ele>462</ele>
        <time>2023-06-17T06:18:00.000Z</time>
      </trkpt>
      <trkpt lat="47.14969" lon="4.83207">
        <ele>463</ele>
        <time>2023-06-17T06:18:04.000Z</time>
      </trkpt>
      <trkpt lat="47.14968" lon="4.83201">
        <ele>463</ele>
        <time>2023-06-17T06:18:05.000Z</time>
      </trkpt>
      <trkpt lat="47.14966" lon="4.83183">
        <ele>463.79998779297</ele>
        <time>2023-06-17T06:18:08.000Z</time>
      </trkpt>
      <trkpt lat="47.14965" lon="4.83177">
        <ele>464</ele>
        <time>2023-06-17T06:18:09.000Z</time>
      </trkpt>
      <trkpt lat="47.14962" lon="4.83141">
        <ele>465.20001220703</ele>
        <time>2023-06-17T06:18:15.000Z</time>
      </trkpt>
      <trkpt lat="47.14959" lon="4.83113">
        <ele>466.39999389648</ele>
        <time>2023-06-17T06:18:20.000Z</time>
      </trkpt>
      <trkpt lat="47.14959" lon="4.83095">
        <ele>467.39999389648</ele>
        <time>2023-06-17T06:18:23.000Z</time>
      </trkpt>
      <trkpt lat="47.14959" lon="4.83089">
        <ele>467.39999389648</ele>
        <time>2023-06-17T06:18:24.000Z</time>
      </trkpt>
      <trkpt lat="47.14956" lon="4.83065">
        <ele>468.39999389648</ele>
        <time>2023-06-17T06:18:28.000Z</time>
      </trkpt>
      <trkpt lat="47.14954" lon="4.83054">
        <ele>468.79998779297</ele>
        <time>2023-06-17T06:18:30.000Z</time>
      </trkpt>
      <trkpt lat="47.14946" lon="4.83032">
        <ele>469.60000610352</ele>
        <time>2023-06-17T06:18:34.000Z</time>
      </trkpt>
      <trkpt lat="47.14941" lon="4.83021">
        <ele>470</ele>
        <time>2023-06-17T06:18:36.000Z</time>
      </trkpt>
      <trkpt lat="47.14931" lon="4.83002">
        <ele>471</ele>
        <time>2023-06-17T06:18:40.000Z</time>
      </trkpt>
      <trkpt lat="47.14918" lon="4.82981">
        <ele>472.20001220703</ele>
        <time>2023-06-17T06:18:45.000Z</time>
      </trkpt>
      <trkpt lat="47.14904" lon="4.82959">
        <ele>473.20001220703</ele>
        <time>2023-06-17T06:18:50.000Z</time>
      </trkpt>
      <trkpt lat="47.14896" lon="4.82946">
        <ele>473.79998779297</ele>
        <time>2023-06-17T06:18:53.000Z</time>
      </trkpt>
      <trkpt lat="47.14891" lon="4.82936">
        <ele>474.20001220703</ele>
        <time>2023-06-17T06:18:55.000Z</time>
      </trkpt>
      <trkpt lat="47.14889" lon="4.82931">
        <ele>474.60000610352</ele>
        <time>2023-06-17T06:18:56.000Z</time>
      </trkpt>
      <trkpt lat="47.14878" lon="4.82899">
        <ele>475.60000610352</ele>
        <time>2023-06-17T06:19:02.000Z</time>
      </trkpt>
      <trkpt lat="47.14876" lon="4.82894">
        <ele>475.79998779297</ele>
        <time>2023-06-17T06:19:03.000Z</time>
      </trkpt>
      <trkpt lat="47.14869" lon="4.82866">
        <ele>476.79998779297</ele>
        <time>2023-06-17T06:19:08.000Z</time>
      </trkpt>
      <trkpt lat="47.14867" lon="4.82855">
        <ele>477.20001220703</ele>
        <time>2023-06-17T06:19:10.000Z</time>
      </trkpt>
      <trkpt lat="47.14865" lon="4.82849">
        <ele>477.60000610352</ele>
        <time>2023-06-17T06:19:11.000Z</time>
      </trkpt>
      <trkpt lat="47.14863" lon="4.82838">
        <ele>478</ele>
        <time>2023-06-17T06:19:13.000Z</time>
      </trkpt>
      <trkpt lat="47.14858" lon="4.82805">
        <ele>479.20001220703</ele>
        <time>2023-06-17T06:19:19.000Z</time>
      </trkpt>
      <trkpt lat="47.14857" lon="4.82799">
        <ele>479.39999389648</ele>
        <time>2023-06-17T06:19:20.000Z</time>
      </trkpt>
      <trkpt lat="47.14854" lon="4.82772">
        <ele>480.20001220703</ele>
        <time>2023-06-17T06:19:25.000Z</time>
      </trkpt>
      <trkpt lat="47.14855" lon="4.82757">
        <ele>480.79998779297</ele>
        <time>2023-06-17T06:19:28.000Z</time>
      </trkpt>
      <trkpt lat="47.14855" lon="4.82747">
        <ele>481.39999389648</ele>
        <time>2023-06-17T06:19:30.000Z</time>
      </trkpt>
      <trkpt lat="47.14857" lon="4.82718">
        <ele>482.39999389648</ele>
        <time>2023-06-17T06:19:35.000Z</time>
      </trkpt>
      <trkpt lat="47.14862" lon="4.82684">
        <ele>483.60000610352</ele>
        <time>2023-06-17T06:19:41.000Z</time>
      </trkpt>
      <trkpt lat="47.14865" lon="4.82667">
        <ele>484.60000610352</ele>
        <time>2023-06-17T06:19:44.000Z</time>
      </trkpt>
      <trkpt lat="47.14867" lon="4.82662">
        <ele>484.60000610352</ele>
        <time>2023-06-17T06:19:45.000Z</time>
      </trkpt>
      <trkpt lat="47.14872" lon="4.82627">
        <ele>486</ele>
        <time>2023-06-17T06:19:51.000Z</time>
      </trkpt>
      <trkpt lat="47.14877" lon="4.82604">
        <ele>486.60000610352</ele>
        <time>2023-06-17T06:19:55.000Z</time>
      </trkpt>
      <trkpt lat="47.14879" lon="4.82593">
        <ele>487</ele>
        <time>2023-06-17T06:19:57.000Z</time>
      </trkpt>
      <trkpt lat="47.14886" lon="4.82561">
        <ele>488</ele>
        <time>2023-06-17T06:20:03.000Z</time>
      </trkpt>
      <trkpt lat="47.14887" lon="4.82555">
        <ele>488.20001220703</ele>
        <time>2023-06-17T06:20:04.000Z</time>
      </trkpt>
      <trkpt lat="47.14891" lon="4.82533">
        <ele>489.39999389648</ele>
        <time>2023-06-17T06:20:08.000Z</time>
      </trkpt>
      <trkpt lat="47.14898" lon="4.82506">
        <ele>490.20001220703</ele>
        <time>2023-06-17T06:20:13.000Z</time>
      </trkpt>
      <trkpt lat="47.149" lon="4.82494">
        <ele>490.39999389648</ele>
        <time>2023-06-17T06:20:15.000Z</time>
      </trkpt>
      <trkpt lat="47.14905" lon="4.82473">
        <ele>491.60000610352</ele>
        <time>2023-06-17T06:20:19.000Z</time>
      </trkpt>
      <trkpt lat="47.14907" lon="4.82462">
        <ele>491.79998779297</ele>
        <time>2023-06-17T06:20:21.000Z</time>
      </trkpt>
      <trkpt lat="47.14912" lon="4.8244">
        <ele>492.60000610352</ele>
        <time>2023-06-17T06:20:25.000Z</time>
      </trkpt>
      <trkpt lat="47.14917" lon="4.82423">
        <ele>493</ele>
        <time>2023-06-17T06:20:28.000Z</time>
      </trkpt>
      <trkpt lat="47.14921" lon="4.82408">
        <ele>493.79998779297</ele>
        <time>2023-06-17T06:20:31.000Z</time>
      </trkpt>
      <trkpt lat="47.14927" lon="4.82388">
        <ele>494.60000610352</ele>
        <time>2023-06-17T06:20:35.000Z</time>
      </trkpt>
      <trkpt lat="47.14929" lon="4.82382">
        <ele>494.79998779297</ele>
        <time>2023-06-17T06:20:36.000Z</time>
      </trkpt>
      <trkpt lat="47.14934" lon="4.82365">
        <ele>495.39999389648</ele>
        <time>2023-06-17T06:20:39.000Z</time>
      </trkpt>
      <trkpt lat="47.1494" lon="4.82347">
        <ele>495.79998779297</ele>
        <time>2023-06-17T06:20:42.000Z</time>
      </trkpt>
      <trkpt lat="47.14942" lon="4.82342">
        <ele>496</ele>
        <time>2023-06-17T06:20:43.000Z</time>
      </trkpt>
      <trkpt lat="47.14958" lon="4.82293">
        <ele>497.20001220703</ele>
        <time>2023-06-17T06:20:51.000Z</time>
      </trkpt>
      <trkpt lat="47.14972" lon="4.82248">
        <ele>498</ele>
        <time>2023-06-17T06:20:58.000Z</time>
      </trkpt>
      <trkpt lat="47.14977" lon="4.82235">
        <ele>498.20001220703</ele>
        <time>2023-06-17T06:21:00.000Z</time>
      </trkpt>
      <trkpt lat="47.14994" lon="4.8218">
        <ele>499</ele>
        <time>2023-06-17T06:21:08.000Z</time>
      </trkpt>
      <trkpt lat="47.15011" lon="4.82105">
        <ele>500</ele>
        <time>2023-06-17T06:21:18.000Z</time>
      </trkpt>
      <trkpt lat="47.15012" lon="4.82098">
        <ele>500</ele>
        <time>2023-06-17T06:21:19.000Z</time>
      </trkpt>
      <trkpt lat="47.15023" lon="4.82045">
        <ele>500.79998779297</ele>
        <time>2023-06-17T06:21:26.000Z</time>
      </trkpt>
      <trkpt lat="47.15025" lon="4.82029">
        <ele>501</ele>
        <time>2023-06-17T06:21:28.000Z</time>
      </trkpt>
      <trkpt lat="47.15025" lon="4.82022">
        <ele>501.20001220703</ele>
        <time>2023-06-17T06:21:29.000Z</time>
      </trkpt>
      <trkpt lat="47.15025" lon="4.82006">
        <ele>501.39999389648</ele>
        <time>2023-06-17T06:21:31.000Z</time>
      </trkpt>
      <trkpt lat="47.15024" lon="4.81998">
        <ele>501.60000610352</ele>
        <time>2023-06-17T06:21:32.000Z</time>
      </trkpt>
      <trkpt lat="47.15023" lon="4.8199">
        <ele>501.79998779297</ele>
        <time>2023-06-17T06:21:33.000Z</time>
      </trkpt>
      <trkpt lat="47.15018" lon="4.81975">
        <ele>502</ele>
        <time>2023-06-17T06:21:35.000Z</time>
      </trkpt>
      <trkpt lat="47.15013" lon="4.81961">
        <ele>502.20001220703</ele>
        <time>2023-06-17T06:21:37.000Z</time>
      </trkpt>
      <trkpt lat="47.15001" lon="4.81942">
        <ele>502.20001220703</ele>
        <time>2023-06-17T06:21:40.000Z</time>
      </trkpt>
      <trkpt lat="47.14995" lon="4.8193">
        <ele>502.39999389648</ele>
        <time>2023-06-17T06:21:42.000Z</time>
      </trkpt>
      <trkpt lat="47.14992" lon="4.81923">
        <ele>502.60000610352</ele>
        <time>2023-06-17T06:21:43.000Z</time>
      </trkpt>
      <trkpt lat="47.14984" lon="4.81893">
        <ele>502.79998779297</ele>
        <time>2023-06-17T06:21:47.000Z</time>
      </trkpt>
      <trkpt lat="47.14977" lon="4.81864">
        <ele>503.39999389648</ele>
        <time>2023-06-17T06:21:51.000Z</time>
      </trkpt>
      <trkpt lat="47.14974" lon="4.81842">
        <ele>503.79998779297</ele>
        <time>2023-06-17T06:21:54.000Z</time>
      </trkpt>
      <trkpt lat="47.14971" lon="4.81821">
        <ele>504</ele>
        <time>2023-06-17T06:21:57.000Z</time>
      </trkpt>
      <trkpt lat="47.14971" lon="4.81814">
        <ele>504.20001220703</ele>
        <time>2023-06-17T06:21:58.000Z</time>
      </trkpt>
      <trkpt lat="47.14971" lon="4.81807">
        <ele>504.39999389648</ele>
        <time>2023-06-17T06:21:59.000Z</time>
      </trkpt>
      <trkpt lat="47.14972" lon="4.81764">
        <ele>505.39999389648</ele>
        <time>2023-06-17T06:22:05.000Z</time>
      </trkpt>
      <trkpt lat="47.14972" lon="4.81743">
        <ele>505.79998779297</ele>
        <time>2023-06-17T06:22:08.000Z</time>
      </trkpt>
      <trkpt lat="47.14971" lon="4.81729">
        <ele>506.39999389648</ele>
        <time>2023-06-17T06:22:10.000Z</time>
      </trkpt>
      <trkpt lat="47.14969" lon="4.81722">
        <ele>506.60000610352</ele>
        <time>2023-06-17T06:22:11.000Z</time>
      </trkpt>
      <trkpt lat="47.14968" lon="4.81715">
        <ele>506.79998779297</ele>
        <time>2023-06-17T06:22:12.000Z</time>
      </trkpt>
      <trkpt lat="47.14958" lon="4.81681">
        <ele>507.79998779297</ele>
        <time>2023-06-17T06:22:17.000Z</time>
      </trkpt>
      <trkpt lat="47.14948" lon="4.81644">
        <ele>508.60000610352</ele>
        <time>2023-06-17T06:22:22.000Z</time>
      </trkpt>
      <trkpt lat="47.14946" lon="4.81637">
        <ele>508.79998779297</ele>
        <time>2023-06-17T06:22:23.000Z</time>
      </trkpt>
      <trkpt lat="47.14936" lon="4.81586">
        <ele>509.60000610352</ele>
        <time>2023-06-17T06:22:30.000Z</time>
      </trkpt>
      <trkpt lat="47.14934" lon="4.81564">
        <ele>510</ele>
        <time>2023-06-17T06:22:33.000Z</time>
      </trkpt>
      <trkpt lat="47.14931" lon="4.81512">
        <ele>510.60000610352</ele>
        <time>2023-06-17T06:22:40.000Z</time>
      </trkpt>
      <trkpt lat="47.1493" lon="4.81489">
        <ele>511</ele>
        <time>2023-06-17T06:22:43.000Z</time>
      </trkpt>
      <trkpt lat="47.1493" lon="4.81468">
        <ele>511.60000610352</ele>
        <time>2023-06-17T06:22:46.000Z</time>
      </trkpt>
      <trkpt lat="47.14931" lon="4.81461">
        <ele>511.79998779297</ele>
        <time>2023-06-17T06:22:47.000Z</time>
      </trkpt>
      <trkpt lat="47.14932" lon="4.8144">
        <ele>512</ele>
        <time>2023-06-17T06:22:50.000Z</time>
      </trkpt>
      <trkpt lat="47.14934" lon="4.81406">
        <ele>513.20001220703</ele>
        <time>2023-06-17T06:22:55.000Z</time>
      </trkpt>
      <trkpt lat="47.14935" lon="4.81399">
        <ele>513.20001220703</ele>
        <time>2023-06-17T06:22:56.000Z</time>
      </trkpt>
      <trkpt lat="47.14939" lon="4.81362">
        <ele>514.20001220703</ele>
        <time>2023-06-17T06:23:01.000Z</time>
      </trkpt>
      <trkpt lat="47.14939" lon="4.81355">
        <ele>514.59997558594</ele>
        <time>2023-06-17T06:23:03.000Z</time>
      </trkpt>
      <trkpt lat="47.14945" lon="4.81301">
        <ele>515.40002441406</ele>
        <time>2023-06-17T06:23:09.000Z</time>
      </trkpt>
      <trkpt lat="47.14947" lon="4.81279">
        <ele>515.59997558594</ele>
        <time>2023-06-17T06:23:12.000Z</time>
      </trkpt>
      <trkpt lat="47.1496" lon="4.81202">
        <ele>516.20001220703</ele>
        <time>2023-06-17T06:23:22.000Z</time>
      </trkpt>
      <trkpt lat="47.14962" lon="4.81194">
        <ele>516.20001220703</ele>
        <time>2023-06-17T06:23:23.000Z</time>
      </trkpt>
      <trkpt lat="47.14971" lon="4.81155">
        <ele>516.40002441406</ele>
        <time>2023-06-17T06:23:28.000Z</time>
      </trkpt>
      <trkpt lat="47.14976" lon="4.81139">
        <ele>516.59997558594</ele>
        <time>2023-06-17T06:23:30.000Z</time>
      </trkpt>
      <trkpt lat="47.15004" lon="4.81062">
        <ele>516.59997558594</ele>
        <time>2023-06-17T06:23:40.000Z</time>
      </trkpt>
      <trkpt lat="47.15006" lon="4.81054">
        <ele>516.59997558594</ele>
        <time>2023-06-17T06:23:41.000Z</time>
      </trkpt>
      <trkpt lat="47.1503" lon="4.80989">
        <ele>517</ele>
        <time>2023-06-17T06:23:50.000Z</time>
      </trkpt>
      <trkpt lat="47.1504" lon="4.8096">
        <ele>517.59997558594</ele>
        <time>2023-06-17T06:23:54.000Z</time>
      </trkpt>
      <trkpt lat="47.15048" lon="4.80939">
        <ele>517.59997558594</ele>
        <time>2023-06-17T06:23:57.000Z</time>
      </trkpt>
      <trkpt lat="47.15055" lon="4.80919">
        <ele>517.59997558594</ele>
        <time>2023-06-17T06:24:00.000Z</time>
      </trkpt>
      <trkpt lat="47.15059" lon="4.80906">
        <ele>518</ele>
        <time>2023-06-17T06:24:02.000Z</time>
      </trkpt>
      <trkpt lat="47.15065" lon="4.80886">
        <ele>518.40002441406</ele>
        <time>2023-06-17T06:24:05.000Z</time>
      </trkpt>
      <trkpt lat="47.15068" lon="4.80879">
        <ele>518.40002441406</ele>
        <time>2023-06-17T06:24:06.000Z</time>
      </trkpt>
      <trkpt lat="47.1507" lon="4.80872">
        <ele>518.59997558594</ele>
        <time>2023-06-17T06:24:07.000Z</time>
      </trkpt>
      <trkpt lat="47.15074" lon="4.80857">
        <ele>519</ele>
        <time>2023-06-17T06:24:09.000Z</time>
      </trkpt>
      <trkpt lat="47.15081" lon="4.80836">
        <ele>519.40002441406</ele>
        <time>2023-06-17T06:24:12.000Z</time>
      </trkpt>
      <trkpt lat="47.15084" lon="4.80829">
        <ele>519.59997558594</ele>
        <time>2023-06-17T06:24:13.000Z</time>
      </trkpt>
      <trkpt lat="47.1509" lon="4.80807">
        <ele>520.40002441406</ele>
        <time>2023-06-17T06:24:16.000Z</time>
      </trkpt>
      <trkpt lat="47.15092" lon="4.808">
        <ele>520.59997558594</ele>
        <time>2023-06-17T06:24:17.000Z</time>
      </trkpt>
      <trkpt lat="47.15105" lon="4.80758">
        <ele>521.59997558594</ele>
        <time>2023-06-17T06:24:23.000Z</time>
      </trkpt>
      <trkpt lat="47.15116" lon="4.80722">
        <ele>522.20001220703</ele>
        <time>2023-06-17T06:24:28.000Z</time>
      </trkpt>
      <trkpt lat="47.15126" lon="4.80693">
        <ele>522.40002441406</ele>
        <time>2023-06-17T06:24:32.000Z</time>
      </trkpt>
      <trkpt lat="47.15146" lon="4.80645">
        <ele>523</ele>
        <time>2023-06-17T06:24:39.000Z</time>
      </trkpt>
      <trkpt lat="47.15163" lon="4.80613">
        <ele>523.20001220703</ele>
        <time>2023-06-17T06:24:44.000Z</time>
      </trkpt>
      <trkpt lat="47.15166" lon="4.80608">
        <ele>523.20001220703</ele>
        <time>2023-06-17T06:24:45.000Z</time>
      </trkpt>
      <trkpt lat="47.15176" lon="4.80584">
        <ele>523.59997558594</ele>
        <time>2023-06-17T06:24:49.000Z</time>
      </trkpt>
      <trkpt lat="47.15182" lon="4.80573">
        <ele>523.59997558594</ele>
        <time>2023-06-17T06:24:51.000Z</time>
      </trkpt>
      <trkpt lat="47.15187" lon="4.80563">
        <ele>523.79998779297</ele>
        <time>2023-06-17T06:24:53.000Z</time>
      </trkpt>
      <trkpt lat="47.15191" lon="4.80551">
        <ele>524</ele>
        <time>2023-06-17T06:24:55.000Z</time>
      </trkpt>
      <trkpt lat="47.152" lon="4.80528">
        <ele>524.40002441406</ele>
        <time>2023-06-17T06:24:59.000Z</time>
      </trkpt>
      <trkpt lat="47.15205" lon="4.80513">
        <ele>524.59997558594</ele>
        <time>2023-06-17T06:25:01.000Z</time>
      </trkpt>
      <trkpt lat="47.1521" lon="4.80499">
        <ele>524.79998779297</ele>
        <time>2023-06-17T06:25:03.000Z</time>
      </trkpt>
      <trkpt lat="47.15214" lon="4.80492">
        <ele>525</ele>
        <time>2023-06-17T06:25:04.000Z</time>
      </trkpt>
      <trkpt lat="47.15221" lon="4.80478">
        <ele>525.40002441406</ele>
        <time>2023-06-17T06:25:06.000Z</time>
      </trkpt>
      <trkpt lat="47.15227" lon="4.80463">
        <ele>525.59997558594</ele>
        <time>2023-06-17T06:25:08.000Z</time>
      </trkpt>
      <trkpt lat="47.15236" lon="4.80441">
        <ele>525.79998779297</ele>
        <time>2023-06-17T06:25:11.000Z</time>
      </trkpt>
      <trkpt lat="47.15245" lon="4.80421">
        <ele>526.59997558594</ele>
        <time>2023-06-17T06:25:14.000Z</time>
      </trkpt>
      <trkpt lat="47.15249" lon="4.80414">
        <ele>526.79998779297</ele>
        <time>2023-06-17T06:25:15.000Z</time>
      </trkpt>
      <trkpt lat="47.15256" lon="4.80402">
        <ele>527.20001220703</ele>
        <time>2023-06-17T06:25:17.000Z</time>
      </trkpt>
      <trkpt lat="47.15264" lon="4.80381">
        <ele>527.59997558594</ele>
        <time>2023-06-17T06:25:20.000Z</time>
      </trkpt>
      <trkpt lat="47.15268" lon="4.80373">
        <ele>527.79998779297</ele>
        <time>2023-06-17T06:25:21.000Z</time>
      </trkpt>
      <trkpt lat="47.15285" lon="4.8034">
        <ele>528.40002441406</ele>
        <time>2023-06-17T06:25:26.000Z</time>
      </trkpt>
      <trkpt lat="47.15292" lon="4.80327">
        <ele>529</ele>
        <time>2023-06-17T06:25:28.000Z</time>
      </trkpt>
      <trkpt lat="47.15303" lon="4.8031">
        <ele>529.20001220703</ele>
        <time>2023-06-17T06:25:31.000Z</time>
      </trkpt>
      <trkpt lat="47.15317" lon="4.80287">
        <ele>529.79998779297</ele>
        <time>2023-06-17T06:25:35.000Z</time>
      </trkpt>
      <trkpt lat="47.15329" lon="4.80269">
        <ele>530</ele>
        <time>2023-06-17T06:25:38.000Z</time>
      </trkpt>
      <trkpt lat="47.15333" lon="4.80264">
        <ele>530</ele>
        <time>2023-06-17T06:25:39.000Z</time>
      </trkpt>
      <trkpt lat="47.15337" lon="4.80259">
        <ele>530.20001220703</ele>
        <time>2023-06-17T06:25:40.000Z</time>
      </trkpt>
      <trkpt lat="47.1536" lon="4.80228">
        <ele>530.79998779297</ele>
        <time>2023-06-17T06:25:46.000Z</time>
      </trkpt>
      <trkpt lat="47.15363" lon="4.80222">
        <ele>530.79998779297</ele>
        <time>2023-06-17T06:25:47.000Z</time>
      </trkpt>
      <trkpt lat="47.15366" lon="4.80216">
        <ele>531</ele>
        <time>2023-06-17T06:25:48.000Z</time>
      </trkpt>
      <trkpt lat="47.15378" lon="4.80189">
        <ele>531.59997558594</ele>
        <time>2023-06-17T06:25:52.000Z</time>
      </trkpt>
      <trkpt lat="47.15383" lon="4.80175">
        <ele>531.79998779297</ele>
        <time>2023-06-17T06:25:54.000Z</time>
      </trkpt>
      <trkpt lat="47.15388" lon="4.80162">
        <ele>531.79998779297</ele>
        <time>2023-06-17T06:25:56.000Z</time>
      </trkpt>
      <trkpt lat="47.15389" lon="4.80155">
        <ele>532</ele>
        <time>2023-06-17T06:25:57.000Z</time>
      </trkpt>
      <trkpt lat="47.15394" lon="4.80134">
        <ele>532.20001220703</ele>
        <time>2023-06-17T06:26:00.000Z</time>
      </trkpt>
      <trkpt lat="47.15395" lon="4.80126">
        <ele>532.40002441406</ele>
        <time>2023-06-17T06:26:01.000Z</time>
      </trkpt>
      <trkpt lat="47.15408" lon="4.80089">
        <ele>532.79998779297</ele>
        <time>2023-06-17T06:26:06.000Z</time>
      </trkpt>
      <trkpt lat="47.15414" lon="4.80076">
        <ele>533</ele>
        <time>2023-06-17T06:26:08.000Z</time>
      </trkpt>
      <trkpt lat="47.15429" lon="4.80053">
        <ele>533.40002441406</ele>
        <time>2023-06-17T06:26:12.000Z</time>
      </trkpt>
      <trkpt lat="47.15443" lon="4.80039">
        <ele>533.59997558594</ele>
        <time>2023-06-17T06:26:15.000Z</time>
      </trkpt>
      <trkpt lat="47.15452" lon="4.80031">
        <ele>534</ele>
        <time>2023-06-17T06:26:17.000Z</time>
      </trkpt>
      <trkpt lat="47.15481" lon="4.80009">
        <ele>534.40002441406</ele>
        <time>2023-06-17T06:26:23.000Z</time>
      </trkpt>
      <trkpt lat="47.155" lon="4.79995">
        <ele>535</ele>
        <time>2023-06-17T06:26:27.000Z</time>
      </trkpt>
      <trkpt lat="47.15509" lon="4.79989">
        <ele>535.20001220703</ele>
        <time>2023-06-17T06:26:29.000Z</time>
      </trkpt>
      <trkpt lat="47.15533" lon="4.79972">
        <ele>535.59997558594</ele>
        <time>2023-06-17T06:26:34.000Z</time>
      </trkpt>
      <trkpt lat="47.15538" lon="4.79969">
        <ele>535.59997558594</ele>
        <time>2023-06-17T06:26:35.000Z</time>
      </trkpt>
      <trkpt lat="47.15558" lon="4.79958">
        <ele>535.79998779297</ele>
        <time>2023-06-17T06:26:39.000Z</time>
      </trkpt>
      <trkpt lat="47.15563" lon="4.79954">
        <ele>535.79998779297</ele>
        <time>2023-06-17T06:26:40.000Z</time>
      </trkpt>
      <trkpt lat="47.15571" lon="4.79946">
        <ele>536</ele>
        <time>2023-06-17T06:26:42.000Z</time>
      </trkpt>
      <trkpt lat="47.15585" lon="4.79935">
        <ele>536.20001220703</ele>
        <time>2023-06-17T06:26:45.000Z</time>
      </trkpt>
      <trkpt lat="47.15593" lon="4.79928">
        <ele>536.20001220703</ele>
        <time>2023-06-17T06:26:47.000Z</time>
      </trkpt>
      <trkpt lat="47.15608" lon="4.79914">
        <ele>536.40002441406</ele>
        <time>2023-06-17T06:26:50.000Z</time>
      </trkpt>
      <trkpt lat="47.15623" lon="4.79899">
        <ele>536.59997558594</ele>
        <time>2023-06-17T06:26:53.000Z</time>
      </trkpt>
      <trkpt lat="47.15638" lon="4.79884">
        <ele>536.59997558594</ele>
        <time>2023-06-17T06:26:56.000Z</time>
      </trkpt>
      <trkpt lat="47.15643" lon="4.79879">
        <ele>536.59997558594</ele>
        <time>2023-06-17T06:26:57.000Z</time>
      </trkpt>
      <trkpt lat="47.15651" lon="4.79864">
        <ele>536.59997558594</ele>
        <time>2023-06-17T06:26:59.000Z</time>
      </trkpt>
      <trkpt lat="47.15654" lon="4.79855">
        <ele>536.59997558594</ele>
        <time>2023-06-17T06:27:00.000Z</time>
      </trkpt>
      <trkpt lat="47.15656" lon="4.79845">
        <ele>536.59997558594</ele>
        <time>2023-06-17T06:27:01.000Z</time>
      </trkpt>
      <trkpt lat="47.15656" lon="4.79827">
        <ele>536.40002441406</ele>
        <time>2023-06-17T06:27:03.000Z</time>
      </trkpt>
      <trkpt lat="47.15653" lon="4.79809">
        <ele>536.40002441406</ele>
        <time>2023-06-17T06:27:05.000Z</time>
      </trkpt>
      <trkpt lat="47.15648" lon="4.79787">
        <ele>536.59997558594</ele>
        <time>2023-06-17T06:27:08.000Z</time>
      </trkpt>
      <trkpt lat="47.15641" lon="4.79752">
        <ele>537</ele>
        <time>2023-06-17T06:27:13.000Z</time>
      </trkpt>
      <trkpt lat="47.15639" lon="4.79745">
        <ele>537.20001220703</ele>
        <time>2023-06-17T06:27:14.000Z</time>
      </trkpt>
      <trkpt lat="47.15636" lon="4.79739">
        <ele>537.40002441406</ele>
        <time>2023-06-17T06:27:15.000Z</time>
      </trkpt>
      <trkpt lat="47.1563" lon="4.7973">
        <ele>537.59997558594</ele>
        <time>2023-06-17T06:27:17.000Z</time>
      </trkpt>
      <trkpt lat="47.15626" lon="4.79727">
        <ele>538</ele>
        <time>2023-06-17T06:27:18.000Z</time>
      </trkpt>
      <trkpt lat="47.15622" lon="4.79724">
        <ele>538.20001220703</ele>
        <time>2023-06-17T06:27:19.000Z</time>
      </trkpt>
      <trkpt lat="47.15618" lon="4.79721">
        <ele>538.40002441406</ele>
        <time>2023-06-17T06:27:20.000Z</time>
      </trkpt>
      <trkpt lat="47.15609" lon="4.79719">
        <ele>538.79998779297</ele>
        <time>2023-06-17T06:27:22.000Z</time>
      </trkpt>
      <trkpt lat="47.15604" lon="4.79719">
        <ele>539</ele>
        <time>2023-06-17T06:27:23.000Z</time>
      </trkpt>
      <trkpt lat="47.156" lon="4.7972">
        <ele>539.20001220703</ele>
        <time>2023-06-17T06:27:24.000Z</time>
      </trkpt>
      <trkpt lat="47.15592" lon="4.79722">
        <ele>539.79998779297</ele>
        <time>2023-06-17T06:27:26.000Z</time>
      </trkpt>
      <trkpt lat="47.15584" lon="4.79725">
        <ele>540</ele>
        <time>2023-06-17T06:27:28.000Z</time>
      </trkpt>
      <trkpt lat="47.1558" lon="4.79726">
        <ele>540.40002441406</ele>
        <time>2023-06-17T06:27:29.000Z</time>
      </trkpt>
      <trkpt lat="47.15569" lon="4.79731">
        <ele>541.40002441406</ele>
        <time>2023-06-17T06:27:32.000Z</time>
      </trkpt>
      <trkpt lat="47.15561" lon="4.79735">
        <ele>542</ele>
        <time>2023-06-17T06:27:34.000Z</time>
      </trkpt>
      <trkpt lat="47.15549" lon="4.7974">
        <ele>542.59997558594</ele>
        <time>2023-06-17T06:27:37.000Z</time>
      </trkpt>
      <trkpt lat="47.15532" lon="4.79747">
        <ele>543.79998779297</ele>
        <time>2023-06-17T06:27:42.000Z</time>
      </trkpt>
      <trkpt lat="47.15511" lon="4.79755">
        <ele>545</ele>
        <time>2023-06-17T06:27:48.000Z</time>
      </trkpt>
      <trkpt lat="47.15493" lon="4.79763">
        <ele>546.20001220703</ele>
        <time>2023-06-17T06:27:53.000Z</time>
      </trkpt>
      <trkpt lat="47.15484" lon="4.79766">
        <ele>547.20001220703</ele>
        <time>2023-06-17T06:27:56.000Z</time>
      </trkpt>
      <trkpt lat="47.15481" lon="4.79767">
        <ele>547.40002441406</ele>
        <time>2023-06-17T06:27:57.000Z</time>
      </trkpt>
      <trkpt lat="47.15473" lon="4.79765">
        <ele>548.40002441406</ele>
        <time>2023-06-17T06:28:00.000Z</time>
      </trkpt>
      <trkpt lat="47.15469" lon="4.79763">
        <ele>548.59997558594</ele>
        <time>2023-06-17T06:28:01.000Z</time>
      </trkpt>
      <trkpt lat="47.15455" lon="4.79749">
        <ele>549.40002441406</ele>
        <time>2023-06-17T06:28:06.000Z</time>
      </trkpt>
      <trkpt lat="47.15452" lon="4.79745">
        <ele>549.59997558594</ele>
        <time>2023-06-17T06:28:07.000Z</time>
      </trkpt>
      <trkpt lat="47.15446" lon="4.79733">
        <ele>550.40002441406</ele>
        <time>2023-06-17T06:28:10.000Z</time>
      </trkpt>
      <trkpt lat="47.15435" lon="4.79714">
        <ele>551.59997558594</ele>
        <time>2023-06-17T06:28:15.000Z</time>
      </trkpt>
      <trkpt lat="47.15433" lon="4.7971">
        <ele>551.59997558594</ele>
        <time>2023-06-17T06:28:16.000Z</time>
      </trkpt>
      <trkpt lat="47.15428" lon="4.79699">
        <ele>552.59997558594</ele>
        <time>2023-06-17T06:28:19.000Z</time>
      </trkpt>
      <trkpt lat="47.15419" lon="4.79684">
        <ele>553.59997558594</ele>
        <time>2023-06-17T06:28:23.000Z</time>
      </trkpt>
      <trkpt lat="47.15417" lon="4.79681">
        <ele>554</ele>
        <time>2023-06-17T06:28:24.000Z</time>
      </trkpt>
      <trkpt lat="47.15407" lon="4.79668">
        <ele>555.20001220703</ele>
        <time>2023-06-17T06:28:28.000Z</time>
      </trkpt>
      <trkpt lat="47.15402" lon="4.79662">
        <ele>555.79998779297</ele>
        <time>2023-06-17T06:28:30.000Z</time>
      </trkpt>
      <trkpt lat="47.15399" lon="4.79659">
        <ele>556.20001220703</ele>
        <time>2023-06-17T06:28:31.000Z</time>
      </trkpt>
      <trkpt lat="47.15384" lon="4.79645">
        <ele>557.40002441406</ele>
        <time>2023-06-17T06:28:36.000Z</time>
      </trkpt>
      <trkpt lat="47.15381" lon="4.79642">
        <ele>557.59997558594</ele>
        <time>2023-06-17T06:28:37.000Z</time>
      </trkpt>
      <trkpt lat="47.15368" lon="4.79632">
        <ele>558.40002441406</ele>
        <time>2023-06-17T06:28:41.000Z</time>
      </trkpt>
      <trkpt lat="47.15362" lon="4.79627">
        <ele>559</ele>
        <time>2023-06-17T06:28:43.000Z</time>
      </trkpt>
      <trkpt lat="47.15353" lon="4.7962">
        <ele>559.79998779297</ele>
        <time>2023-06-17T06:28:46.000Z</time>
      </trkpt>
      <trkpt lat="47.15341" lon="4.79611">
        <ele>560.79998779297</ele>
        <time>2023-06-17T06:28:50.000Z</time>
      </trkpt>
      <trkpt lat="47.15338" lon="4.79609">
        <ele>561</ele>
        <time>2023-06-17T06:28:51.000Z</time>
      </trkpt>
      <trkpt lat="47.15323" lon="4.79595">
        <ele>562.20001220703</ele>
        <time>2023-06-17T06:28:56.000Z</time>
      </trkpt>
      <trkpt lat="47.15318" lon="4.79588">
        <ele>562.59997558594</ele>
        <time>2023-06-17T06:28:58.000Z</time>
      </trkpt>
      <trkpt lat="47.15312" lon="4.79577">
        <ele>563.20001220703</ele>
        <time>2023-06-17T06:29:01.000Z</time>
      </trkpt>
      <trkpt lat="47.15304" lon="4.7956">
        <ele>564</ele>
        <time>2023-06-17T06:29:05.000Z</time>
      </trkpt>
      <trkpt lat="47.153" lon="4.79551">
        <ele>564.40002441406</ele>
        <time>2023-06-17T06:29:07.000Z</time>
      </trkpt>
      <trkpt lat="47.15292" lon="4.79534">
        <ele>565.59997558594</ele>
        <time>2023-06-17T06:29:11.000Z</time>
      </trkpt>
      <trkpt lat="47.15285" lon="4.79511">
        <ele>566.79998779297</ele>
        <time>2023-06-17T06:29:16.000Z</time>
      </trkpt>
      <trkpt lat="47.15282" lon="4.79501">
        <ele>567</ele>
        <time>2023-06-17T06:29:18.000Z</time>
      </trkpt>
      <trkpt lat="47.15277" lon="4.79486">
        <ele>567.59997558594</ele>
        <time>2023-06-17T06:29:21.000Z</time>
      </trkpt>
      <trkpt lat="47.15271" lon="4.79469">
        <ele>568.59997558594</ele>
        <time>2023-06-17T06:29:25.000Z</time>
      </trkpt>
      <trkpt lat="47.15268" lon="4.79463">
        <ele>569</ele>
        <time>2023-06-17T06:29:26.000Z</time>
      </trkpt>
      <trkpt lat="47.15259" lon="4.79438">
        <ele>570</ele>
        <time>2023-06-17T06:29:31.000Z</time>
      </trkpt>
      <trkpt lat="47.15252" lon="4.7942">
        <ele>571.20001220703</ele>
        <time>2023-06-17T06:29:35.000Z</time>
      </trkpt>
      <trkpt lat="47.15245" lon="4.79399">
        <ele>572</ele>
        <time>2023-06-17T06:29:39.000Z</time>
      </trkpt>
      <trkpt lat="47.15244" lon="4.79394">
        <ele>572.20001220703</ele>
        <time>2023-06-17T06:29:40.000Z</time>
      </trkpt>
      <trkpt lat="47.15234" lon="4.79371">
        <ele>573.40002441406</ele>
        <time>2023-06-17T06:29:45.000Z</time>
      </trkpt>
      <trkpt lat="47.15227" lon="4.79353">
        <ele>574.20001220703</ele>
        <time>2023-06-17T06:29:49.000Z</time>
      </trkpt>
      <trkpt lat="47.15225" lon="4.79348">
        <ele>574.59997558594</ele>
        <time>2023-06-17T06:29:50.000Z</time>
      </trkpt>
      <trkpt lat="47.15218" lon="4.79325">
        <ele>575.59997558594</ele>
        <time>2023-06-17T06:29:55.000Z</time>
      </trkpt>
      <trkpt lat="47.15215" lon="4.79315">
        <ele>576.20001220703</ele>
        <time>2023-06-17T06:29:57.000Z</time>
      </trkpt>
      <trkpt lat="47.1521" lon="4.79299">
        <ele>576.59997558594</ele>
        <time>2023-06-17T06:30:00.000Z</time>
      </trkpt>
      <trkpt lat="47.152" lon="4.79271">
        <ele>578</ele>
        <time>2023-06-17T06:30:05.000Z</time>
      </trkpt>
      <trkpt lat="47.15193" lon="4.79249">
        <ele>579</ele>
        <time>2023-06-17T06:30:09.000Z</time>
      </trkpt>
      <trkpt lat="47.15185" lon="4.79229">
        <ele>580</ele>
        <time>2023-06-17T06:30:13.000Z</time>
      </trkpt>
      <trkpt lat="47.15182" lon="4.79219">
        <ele>580.40002441406</ele>
        <time>2023-06-17T06:30:15.000Z</time>
      </trkpt>
      <trkpt lat="47.15175" lon="4.79197">
        <ele>581.40002441406</ele>
        <time>2023-06-17T06:30:19.000Z</time>
      </trkpt>
      <trkpt lat="47.15167" lon="4.79171">
        <ele>582.59997558594</ele>
        <time>2023-06-17T06:30:24.000Z</time>
      </trkpt>
      <trkpt lat="47.15165" lon="4.79165">
        <ele>582.79998779297</ele>
        <time>2023-06-17T06:30:25.000Z</time>
      </trkpt>
      <trkpt lat="47.15152" lon="4.79129">
        <ele>583.59997558594</ele>
        <time>2023-06-17T06:30:31.000Z</time>
      </trkpt>
      <trkpt lat="47.15145" lon="4.79108">
        <ele>583.59997558594</ele>
        <time>2023-06-17T06:30:34.000Z</time>
      </trkpt>
      <trkpt lat="47.15141" lon="4.79092">
        <ele>583.79998779297</ele>
        <time>2023-06-17T06:30:36.000Z</time>
      </trkpt>
      <trkpt lat="47.15136" lon="4.79076">
        <ele>583.59997558594</ele>
        <time>2023-06-17T06:30:38.000Z</time>
      </trkpt>
      <trkpt lat="47.15127" lon="4.7905">
        <ele>583.59997558594</ele>
        <time>2023-06-17T06:30:41.000Z</time>
      </trkpt>
      <trkpt lat="47.15108" lon="4.78991">
        <ele>582.59997558594</ele>
        <time>2023-06-17T06:30:47.000Z</time>
      </trkpt>
      <trkpt lat="47.15104" lon="4.78982">
        <ele>582.40002441406</ele>
        <time>2023-06-17T06:30:48.000Z</time>
      </trkpt>
      <trkpt lat="47.1509" lon="4.78956">
        <ele>582</ele>
        <time>2023-06-17T06:30:51.000Z</time>
      </trkpt>
      <trkpt lat="47.15084" lon="4.78949">
        <ele>581.59997558594</ele>
        <time>2023-06-17T06:30:52.000Z</time>
      </trkpt>
      <trkpt lat="47.15071" lon="4.78936">
        <ele>581.40002441406</ele>
        <time>2023-06-17T06:30:54.000Z</time>
      </trkpt>
      <trkpt lat="47.1505" lon="4.78923">
        <ele>581.20001220703</ele>
        <time>2023-06-17T06:30:57.000Z</time>
      </trkpt>
      <trkpt lat="47.15008" lon="4.78909">
        <ele>581</ele>
        <time>2023-06-17T06:31:03.000Z</time>
      </trkpt>
      <trkpt lat="47.14968" lon="4.78903">
        <ele>581.40002441406</ele>
        <time>2023-06-17T06:31:09.000Z</time>
      </trkpt>
      <trkpt lat="47.14949" lon="4.78901">
        <ele>581.20001220703</ele>
        <time>2023-06-17T06:31:12.000Z</time>
      </trkpt>
      <trkpt lat="47.14936" lon="4.78902">
        <ele>581.40002441406</ele>
        <time>2023-06-17T06:31:14.000Z</time>
      </trkpt>
      <trkpt lat="47.14893" lon="4.78897">
        <ele>582</ele>
        <time>2023-06-17T06:31:21.000Z</time>
      </trkpt>
      <trkpt lat="47.14869" lon="4.78886">
        <ele>582.20001220703</ele>
        <time>2023-06-17T06:31:25.000Z</time>
      </trkpt>
      <trkpt lat="47.14858" lon="4.78878">
        <ele>582.40002441406</ele>
        <time>2023-06-17T06:31:27.000Z</time>
      </trkpt>
      <trkpt lat="47.14832" lon="4.7885">
        <ele>582.59997558594</ele>
        <time>2023-06-17T06:31:32.000Z</time>
      </trkpt>
      <trkpt lat="47.14825" lon="4.78836">
        <ele>582.59997558594</ele>
        <time>2023-06-17T06:31:34.000Z</time>
      </trkpt>
      <trkpt lat="47.14811" lon="4.78795">
        <ele>582.40002441406</ele>
        <time>2023-06-17T06:31:39.000Z</time>
      </trkpt>
      <trkpt lat="47.14809" lon="4.78787">
        <ele>582.40002441406</ele>
        <time>2023-06-17T06:31:40.000Z</time>
      </trkpt>
      <trkpt lat="47.14798" lon="4.78724">
        <ele>583</ele>
        <time>2023-06-17T06:31:48.000Z</time>
      </trkpt>
      <trkpt lat="47.14797" lon="4.78711">
        <ele>583.20001220703</ele>
        <time>2023-06-17T06:31:50.000Z</time>
      </trkpt>
      <trkpt lat="47.14795" lon="4.78694">
        <ele>583.59997558594</ele>
        <time>2023-06-17T06:31:53.000Z</time>
      </trkpt>
      <trkpt lat="47.14791" lon="4.78673">
        <ele>584</ele>
        <time>2023-06-17T06:31:56.000Z</time>
      </trkpt>
      <trkpt lat="47.14788" lon="4.78653">
        <ele>584.79998779297</ele>
        <time>2023-06-17T06:31:59.000Z</time>
      </trkpt>
      <trkpt lat="47.14786" lon="4.78637">
        <ele>585</ele>
        <time>2023-06-17T06:32:01.000Z</time>
      </trkpt>
      <trkpt lat="47.14783" lon="4.78615">
        <ele>586.20001220703</ele>
        <time>2023-06-17T06:32:04.000Z</time>
      </trkpt>
      <trkpt lat="47.14778" lon="4.78586">
        <ele>587</ele>
        <time>2023-06-17T06:32:08.000Z</time>
      </trkpt>
      <trkpt lat="47.14777" lon="4.78573">
        <ele>587.20001220703</ele>
        <time>2023-06-17T06:32:10.000Z</time>
      </trkpt>
      <trkpt lat="47.1478" lon="4.7856">
        <ele>588</ele>
        <time>2023-06-17T06:32:12.000Z</time>
      </trkpt>
      <trkpt lat="47.14783" lon="4.78554">
        <ele>588.40002441406</ele>
        <time>2023-06-17T06:32:13.000Z</time>
      </trkpt>
      <trkpt lat="47.14785" lon="4.7855">
        <ele>588.59997558594</ele>
        <time>2023-06-17T06:32:14.000Z</time>
      </trkpt>
      <trkpt lat="47.14797" lon="4.78536">
        <ele>589.20001220703</ele>
        <time>2023-06-17T06:32:17.000Z</time>
      </trkpt>
      <trkpt lat="47.14801" lon="4.78531">
        <ele>589.40002441406</ele>
        <time>2023-06-17T06:32:18.000Z</time>
      </trkpt>
      <trkpt lat="47.14826" lon="4.78502">
        <ele>589.40002441406</ele>
        <time>2023-06-17T06:32:25.000Z</time>
      </trkpt>
      <trkpt lat="47.14858" lon="4.78474">
        <ele>589.20001220703</ele>
        <time>2023-06-17T06:32:31.000Z</time>
      </trkpt>
      <trkpt lat="47.14878" lon="4.78466">
        <ele>589</ele>
        <time>2023-06-17T06:32:34.000Z</time>
      </trkpt>
      <trkpt lat="47.14886" lon="4.78464">
        <ele>588.79998779297</ele>
        <time>2023-06-17T06:32:35.000Z</time>
      </trkpt>
      <trkpt lat="47.14909" lon="4.78462">
        <ele>588.20001220703</ele>
        <time>2023-06-17T06:32:38.000Z</time>
      </trkpt>
      <trkpt lat="47.14926" lon="4.78459">
        <ele>587</ele>
        <time>2023-06-17T06:32:40.000Z</time>
      </trkpt>
      <trkpt lat="47.14934" lon="4.78457">
        <ele>586.59997558594</ele>
        <time>2023-06-17T06:32:41.000Z</time>
      </trkpt>
      <trkpt lat="47.14952" lon="4.78454">
        <ele>585.79998779297</ele>
        <time>2023-06-17T06:32:43.000Z</time>
      </trkpt>
      <trkpt lat="47.14978" lon="4.78449">
        <ele>585</ele>
        <time>2023-06-17T06:32:46.000Z</time>
      </trkpt>
      <trkpt lat="47.14987" lon="4.78447">
        <ele>584.79998779297</ele>
        <time>2023-06-17T06:32:47.000Z</time>
      </trkpt>
      <trkpt lat="47.14997" lon="4.78446">
        <ele>584.59997558594</ele>
        <time>2023-06-17T06:32:48.000Z</time>
      </trkpt>
      <trkpt lat="47.15027" lon="4.78445">
        <ele>583.59997558594</ele>
        <time>2023-06-17T06:32:51.000Z</time>
      </trkpt>
      <trkpt lat="47.15047" lon="4.78445">
        <ele>581.79998779297</ele>
        <time>2023-06-17T06:32:53.000Z</time>
      </trkpt>
      <trkpt lat="47.15067" lon="4.78446">
        <ele>580.79998779297</ele>
        <time>2023-06-17T06:32:55.000Z</time>
      </trkpt>
      <trkpt lat="47.15077" lon="4.78446">
        <ele>580.40002441406</ele>
        <time>2023-06-17T06:32:56.000Z</time>
      </trkpt>
      <trkpt lat="47.15095" lon="4.78447">
        <ele>579</ele>
        <time>2023-06-17T06:32:58.000Z</time>
      </trkpt>
      <trkpt lat="47.15118" lon="4.78448">
        <ele>577.79998779297</ele>
        <time>2023-06-17T06:33:00.000Z</time>
      </trkpt>
      <trkpt lat="47.15139" lon="4.78449">
        <ele>576.59997558594</ele>
        <time>2023-06-17T06:33:02.000Z</time>
      </trkpt>
      <trkpt lat="47.1515" lon="4.78449">
        <ele>576</ele>
        <time>2023-06-17T06:33:03.000Z</time>
      </trkpt>
      <trkpt lat="47.15171" lon="4.7845">
        <ele>575</ele>
        <time>2023-06-17T06:33:05.000Z</time>
      </trkpt>
      <trkpt lat="47.15193" lon="4.78449">
        <ele>573.79998779297</ele>
        <time>2023-06-17T06:33:07.000Z</time>
      </trkpt>
      <trkpt lat="47.15215" lon="4.78449">
        <ele>573</ele>
        <time>2023-06-17T06:33:09.000Z</time>
      </trkpt>
      <trkpt lat="47.15226" lon="4.78449">
        <ele>572.40002441406</ele>
        <time>2023-06-17T06:33:10.000Z</time>
      </trkpt>
      <trkpt lat="47.15248" lon="4.78446">
        <ele>571.40002441406</ele>
        <time>2023-06-17T06:33:12.000Z</time>
      </trkpt>
      <trkpt lat="47.1526" lon="4.78442">
        <ele>571.20001220703</ele>
        <time>2023-06-17T06:33:13.000Z</time>
      </trkpt>
      <trkpt lat="47.1527" lon="4.78436">
        <ele>570.79998779297</ele>
        <time>2023-06-17T06:33:14.000Z</time>
      </trkpt>
      <trkpt lat="47.15289" lon="4.78418">
        <ele>569.79998779297</ele>
        <time>2023-06-17T06:33:16.000Z</time>
      </trkpt>
      <trkpt lat="47.15303" lon="4.78395">
        <ele>568.79998779297</ele>
        <time>2023-06-17T06:33:18.000Z</time>
      </trkpt>
      <trkpt lat="47.15309" lon="4.78381">
        <ele>568.20001220703</ele>
        <time>2023-06-17T06:33:19.000Z</time>
      </trkpt>
      <trkpt lat="47.15318" lon="4.78352">
        <ele>567</ele>
        <time>2023-06-17T06:33:21.000Z</time>
      </trkpt>
      <trkpt lat="47.15331" lon="4.78306">
        <ele>565.20001220703</ele>
        <time>2023-06-17T06:33:24.000Z</time>
      </trkpt>
      <trkpt lat="47.15335" lon="4.78291">
        <ele>564.79998779297</ele>
        <time>2023-06-17T06:33:25.000Z</time>
      </trkpt>
      <trkpt lat="47.1534" lon="4.78275">
        <ele>564</ele>
        <time>2023-06-17T06:33:26.000Z</time>
      </trkpt>
      <trkpt lat="47.15349" lon="4.78245">
        <ele>563</ele>
        <time>2023-06-17T06:33:28.000Z</time>
      </trkpt>
      <trkpt lat="47.15353" lon="4.78233">
        <ele>561.59997558594</ele>
        <time>2023-06-17T06:33:29.000Z</time>
      </trkpt>
      <trkpt lat="47.15363" lon="4.78199">
        <ele>560.20001220703</ele>
        <time>2023-06-17T06:33:31.000Z</time>
      </trkpt>
      <trkpt lat="47.15375" lon="4.78158">
        <ele>558.40002441406</ele>
        <time>2023-06-17T06:33:34.000Z</time>
      </trkpt>
      <trkpt lat="47.15386" lon="4.78126">
        <ele>557.40002441406</ele>
        <time>2023-06-17T06:33:36.000Z</time>
      </trkpt>
      <trkpt lat="47.15398" lon="4.78085">
        <ele>555.79998779297</ele>
        <time>2023-06-17T06:33:39.000Z</time>
      </trkpt>
      <trkpt lat="47.15412" lon="4.78041">
        <ele>554.59997558594</ele>
        <time>2023-06-17T06:33:42.000Z</time>
      </trkpt>
      <trkpt lat="47.15422" lon="4.78008">
        <ele>553.79998779297</ele>
        <time>2023-06-17T06:33:44.000Z</time>
      </trkpt>
      <trkpt lat="47.15426" lon="4.77992">
        <ele>553.40002441406</ele>
        <time>2023-06-17T06:33:45.000Z</time>
      </trkpt>
      <trkpt lat="47.15435" lon="4.77963">
        <ele>552</ele>
        <time>2023-06-17T06:33:47.000Z</time>
      </trkpt>
      <trkpt lat="47.15444" lon="4.77933">
        <ele>551</ele>
        <time>2023-06-17T06:33:49.000Z</time>
      </trkpt>
      <trkpt lat="47.15448" lon="4.77918">
        <ele>549.79998779297</ele>
        <time>2023-06-17T06:33:50.000Z</time>
      </trkpt>
      <trkpt lat="47.15457" lon="4.77891">
        <ele>548.79998779297</ele>
        <time>2023-06-17T06:33:52.000Z</time>
      </trkpt>
      <trkpt lat="47.1546" lon="4.77878">
        <ele>547.79998779297</ele>
        <time>2023-06-17T06:33:53.000Z</time>
      </trkpt>
      <trkpt lat="47.15475" lon="4.77833">
        <ele>547</ele>
        <time>2023-06-17T06:33:57.000Z</time>
      </trkpt>
      <trkpt lat="47.15487" lon="4.77794">
        <ele>547.20001220703</ele>
        <time>2023-06-17T06:34:01.000Z</time>
      </trkpt>
      <trkpt lat="47.15489" lon="4.77787">
        <ele>547.79998779297</ele>
        <time>2023-06-17T06:34:02.000Z</time>
      </trkpt>
      <trkpt lat="47.15491" lon="4.77778">
        <ele>548.20001220703</ele>
        <time>2023-06-17T06:34:03.000Z</time>
      </trkpt>
      <trkpt lat="47.15494" lon="4.77758">
        <ele>549</ele>
        <time>2023-06-17T06:34:05.000Z</time>
      </trkpt>
      <trkpt lat="47.15495" lon="4.7775">
        <ele>549.20001220703</ele>
        <time>2023-06-17T06:34:06.000Z</time>
      </trkpt>
      <trkpt lat="47.15495" lon="4.77734">
        <ele>550</ele>
        <time>2023-06-17T06:34:08.000Z</time>
      </trkpt>
      <trkpt lat="47.15495" lon="4.77719">
        <ele>550.40002441406</ele>
        <time>2023-06-17T06:34:10.000Z</time>
      </trkpt>
      <trkpt lat="47.15493" lon="4.77706">
        <ele>551</ele>
        <time>2023-06-17T06:34:12.000Z</time>
      </trkpt>
      <trkpt lat="47.1549" lon="4.77692">
        <ele>551.79998779297</ele>
        <time>2023-06-17T06:34:14.000Z</time>
      </trkpt>
      <trkpt lat="47.15488" lon="4.77686">
        <ele>552.20001220703</ele>
        <time>2023-06-17T06:34:15.000Z</time>
      </trkpt>
      <trkpt lat="47.1548" lon="4.7767">
        <ele>552.79998779297</ele>
        <time>2023-06-17T06:34:18.000Z</time>
      </trkpt>
      <trkpt lat="47.15477" lon="4.77664">
        <ele>553.20001220703</ele>
        <time>2023-06-17T06:34:19.000Z</time>
      </trkpt>
      <trkpt lat="47.15471" lon="4.77654">
        <ele>553.40002441406</ele>
        <time>2023-06-17T06:34:21.000Z</time>
      </trkpt>
      <trkpt lat="47.15465" lon="4.77644">
        <ele>554.20001220703</ele>
        <time>2023-06-17T06:34:23.000Z</time>
      </trkpt>
      <trkpt lat="47.1546" lon="4.77638">
        <ele>554.40002441406</ele>
        <time>2023-06-17T06:34:24.000Z</time>
      </trkpt>
      <trkpt lat="47.15449" lon="4.77627">
        <ele>555</ele>
        <time>2023-06-17T06:34:27.000Z</time>
      </trkpt>
      <trkpt lat="47.15444" lon="4.77624">
        <ele>555.20001220703</ele>
        <time>2023-06-17T06:34:28.000Z</time>
      </trkpt>
      <trkpt lat="47.15422" lon="4.7761">
        <ele>556.20001220703</ele>
        <time>2023-06-17T06:34:33.000Z</time>
      </trkpt>
      <trkpt lat="47.15417" lon="4.77608">
        <ele>556.20001220703</ele>
        <time>2023-06-17T06:34:34.000Z</time>
      </trkpt>
      <trkpt lat="47.1539" lon="4.77596">
        <ele>557.40002441406</ele>
        <time>2023-06-17T06:34:40.000Z</time>
      </trkpt>
      <trkpt lat="47.15373" lon="4.77591">
        <ele>558.40002441406</ele>
        <time>2023-06-17T06:34:44.000Z</time>
      </trkpt>
      <trkpt lat="47.15364" lon="4.77587">
        <ele>558.79998779297</ele>
        <time>2023-06-17T06:34:46.000Z</time>
      </trkpt>
      <trkpt lat="47.15352" lon="4.77582">
        <ele>559.59997558594</ele>
        <time>2023-06-17T06:34:49.000Z</time>
      </trkpt>
      <trkpt lat="47.15333" lon="4.77573">
        <ele>560.59997558594</ele>
        <time>2023-06-17T06:34:54.000Z</time>
      </trkpt>
      <trkpt lat="47.15313" lon="4.77562">
        <ele>561.79998779297</ele>
        <time>2023-06-17T06:35:00.000Z</time>
      </trkpt>
      <trkpt lat="47.15311" lon="4.7756">
        <ele>562</ele>
        <time>2023-06-17T06:35:01.000Z</time>
      </trkpt>
      <trkpt lat="47.15303" lon="4.77554">
        <ele>562.40002441406</ele>
        <time>2023-06-17T06:35:04.000Z</time>
      </trkpt>
      <trkpt lat="47.15298" lon="4.77552">
        <ele>562.79998779297</ele>
        <time>2023-06-17T06:35:06.000Z</time>
      </trkpt>
      <trkpt lat="47.15283" lon="4.77545">
        <ele>563.79998779297</ele>
        <time>2023-06-17T06:35:11.000Z</time>
      </trkpt>
      <trkpt lat="47.15279" lon="4.77543">
        <ele>563.79998779297</ele>
        <time>2023-06-17T06:35:12.000Z</time>
      </trkpt>
      <trkpt lat="47.1527" lon="4.77536">
        <ele>564.59997558594</ele>
        <time>2023-06-17T06:35:15.000Z</time>
      </trkpt>
      <trkpt lat="47.15258" lon="4.7753">
        <ele>565.40002441406</ele>
        <time>2023-06-17T06:35:18.000Z</time>
      </trkpt>
      <trkpt lat="47.15247" lon="4.77524">
        <ele>565.79998779297</ele>
        <time>2023-06-17T06:35:21.000Z</time>
      </trkpt>
      <trkpt lat="47.15232" lon="4.77511">
        <ele>566.59997558594</ele>
        <time>2023-06-17T06:35:25.000Z</time>
      </trkpt>
      <trkpt lat="47.15226" lon="4.77503">
        <ele>567.20001220703</ele>
        <time>2023-06-17T06:35:27.000Z</time>
      </trkpt>
      <trkpt lat="47.15214" lon="4.77483">
        <ele>568.40002441406</ele>
        <time>2023-06-17T06:35:32.000Z</time>
      </trkpt>
      <trkpt lat="47.152" lon="4.77447">
        <ele>569.40002441406</ele>
        <time>2023-06-17T06:35:39.000Z</time>
      </trkpt>
      <trkpt lat="47.15197" lon="4.77434">
        <ele>569.59997558594</ele>
        <time>2023-06-17T06:35:41.000Z</time>
      </trkpt>
      <trkpt lat="47.15194" lon="4.77414">
        <ele>570</ele>
        <time>2023-06-17T06:35:44.000Z</time>
      </trkpt>
      <trkpt lat="47.15193" lon="4.77394">
        <ele>570.20001220703</ele>
        <time>2023-06-17T06:35:47.000Z</time>
      </trkpt>
      <trkpt lat="47.15192" lon="4.77386">
        <ele>570.20001220703</ele>
        <time>2023-06-17T06:35:48.000Z</time>
      </trkpt>
      <trkpt lat="47.15193" lon="4.77377">
        <ele>570.20001220703</ele>
        <time>2023-06-17T06:35:49.000Z</time>
      </trkpt>
      <trkpt lat="47.15194" lon="4.77361">
        <ele>570</ele>
        <time>2023-06-17T06:35:51.000Z</time>
      </trkpt>
      <trkpt lat="47.15195" lon="4.77351">
        <ele>569.79998779297</ele>
        <time>2023-06-17T06:35:52.000Z</time>
      </trkpt>
      <trkpt lat="47.152" lon="4.77329">
        <ele>569.59997558594</ele>
        <time>2023-06-17T06:35:54.000Z</time>
      </trkpt>
      <trkpt lat="47.15207" lon="4.7731">
        <ele>569.40002441406</ele>
        <time>2023-06-17T06:35:56.000Z</time>
      </trkpt>
      <trkpt lat="47.15221" lon="4.77276">
        <ele>568.20001220703</ele>
        <time>2023-06-17T06:35:59.000Z</time>
      </trkpt>
      <trkpt lat="47.15231" lon="4.77258">
        <ele>567.40002441406</ele>
        <time>2023-06-17T06:36:01.000Z</time>
      </trkpt>
      <trkpt lat="47.15237" lon="4.77249">
        <ele>567</ele>
        <time>2023-06-17T06:36:02.000Z</time>
      </trkpt>
      <trkpt lat="47.15258" lon="4.77218">
        <ele>565.79998779297</ele>
        <time>2023-06-17T06:36:05.000Z</time>
      </trkpt>
      <trkpt lat="47.1527" lon="4.77199">
        <ele>565.20001220703</ele>
        <time>2023-06-17T06:36:07.000Z</time>
      </trkpt>
      <trkpt lat="47.15278" lon="4.77186">
        <ele>564.40002441406</ele>
        <time>2023-06-17T06:36:08.000Z</time>
      </trkpt>
      <trkpt lat="47.15293" lon="4.77165">
        <ele>563.20001220703</ele>
        <time>2023-06-17T06:36:10.000Z</time>
      </trkpt>
      <trkpt lat="47.15306" lon="4.77145">
        <ele>562.20001220703</ele>
        <time>2023-06-17T06:36:12.000Z</time>
      </trkpt>
      <trkpt lat="47.15313" lon="4.77134">
        <ele>561.79998779297</ele>
        <time>2023-06-17T06:36:13.000Z</time>
      </trkpt>
      <trkpt lat="47.1533" lon="4.77109">
        <ele>560.59997558594</ele>
        <time>2023-06-17T06:36:15.000Z</time>
      </trkpt>
      <trkpt lat="47.15351" lon="4.77079">
        <ele>559.20001220703</ele>
        <time>2023-06-17T06:36:18.000Z</time>
      </trkpt>
      <trkpt lat="47.15358" lon="4.77068">
        <ele>558.79998779297</ele>
        <time>2023-06-17T06:36:19.000Z</time>
      </trkpt>
      <trkpt lat="47.15372" lon="4.77046">
        <ele>557.59997558594</ele>
        <time>2023-06-17T06:36:21.000Z</time>
      </trkpt>
      <trkpt lat="47.15388" lon="4.77021">
        <ele>555.59997558594</ele>
        <time>2023-06-17T06:36:23.000Z</time>
      </trkpt>
      <trkpt lat="47.15396" lon="4.7701">
        <ele>555.20001220703</ele>
        <time>2023-06-17T06:36:24.000Z</time>
      </trkpt>
      <trkpt lat="47.15408" lon="4.76987">
        <ele>554.40002441406</ele>
        <time>2023-06-17T06:36:26.000Z</time>
      </trkpt>
      <trkpt lat="47.15415" lon="4.76976">
        <ele>553.40002441406</ele>
        <time>2023-06-17T06:36:27.000Z</time>
      </trkpt>
      <trkpt lat="47.15422" lon="4.76964">
        <ele>552.79998779297</ele>
        <time>2023-06-17T06:36:28.000Z</time>
      </trkpt>
      <trkpt lat="47.15431" lon="4.7695">
        <ele>552.20001220703</ele>
        <time>2023-06-17T06:36:29.000Z</time>
      </trkpt>
      <trkpt lat="47.1546" lon="4.76903">
        <ele>551</ele>
        <time>2023-06-17T06:36:33.000Z</time>
      </trkpt>
      <trkpt lat="47.15468" lon="4.76892">
        <ele>550</ele>
        <time>2023-06-17T06:36:34.000Z</time>
      </trkpt>
      <trkpt lat="47.15476" lon="4.76882">
        <ele>549.40002441406</ele>
        <time>2023-06-17T06:36:35.000Z</time>
      </trkpt>
      <trkpt lat="47.15492" lon="4.76865">
        <ele>548.40002441406</ele>
        <time>2023-06-17T06:36:37.000Z</time>
      </trkpt>
      <trkpt lat="47.15504" lon="4.76855">
        <ele>548</ele>
        <time>2023-06-17T06:36:38.000Z</time>
      </trkpt>
      <trkpt lat="47.15514" lon="4.76849">
        <ele>547.40002441406</ele>
        <time>2023-06-17T06:36:39.000Z</time>
      </trkpt>
      <trkpt lat="47.15533" lon="4.76837">
        <ele>546.20001220703</ele>
        <time>2023-06-17T06:36:41.000Z</time>
      </trkpt>
      <trkpt lat="47.15556" lon="4.76825">
        <ele>544.79998779297</ele>
        <time>2023-06-17T06:36:43.000Z</time>
      </trkpt>
      <trkpt lat="47.15585" lon="4.76813">
        <ele>542.59997558594</ele>
        <time>2023-06-17T06:36:46.000Z</time>
      </trkpt>
      <trkpt lat="47.15608" lon="4.76805">
        <ele>541.20001220703</ele>
        <time>2023-06-17T06:36:48.000Z</time>
      </trkpt>
      <trkpt lat="47.15628" lon="4.76796">
        <ele>540.20001220703</ele>
        <time>2023-06-17T06:36:50.000Z</time>
      </trkpt>
      <trkpt lat="47.15635" lon="4.7679">
        <ele>539.59997558594</ele>
        <time>2023-06-17T06:36:51.000Z</time>
      </trkpt>
      <trkpt lat="47.15643" lon="4.76781">
        <ele>539</ele>
        <time>2023-06-17T06:36:52.000Z</time>
      </trkpt>
      <trkpt lat="47.15655" lon="4.76754">
        <ele>537.79998779297</ele>
        <time>2023-06-17T06:36:54.000Z</time>
      </trkpt>
      <trkpt lat="47.15659" lon="4.76727">
        <ele>536.59997558594</ele>
        <time>2023-06-17T06:36:56.000Z</time>
      </trkpt>
      <trkpt lat="47.15659" lon="4.76709">
        <ele>536.40002441406</ele>
        <time>2023-06-17T06:36:57.000Z</time>
      </trkpt>
      <trkpt lat="47.15657" lon="4.76695">
        <ele>535.40002441406</ele>
        <time>2023-06-17T06:36:58.000Z</time>
      </trkpt>
      <trkpt lat="47.1565" lon="4.76669">
        <ele>534.20001220703</ele>
        <time>2023-06-17T06:37:00.000Z</time>
      </trkpt>
      <trkpt lat="47.15637" lon="4.76625">
        <ele>532.40002441406</ele>
        <time>2023-06-17T06:37:03.000Z</time>
      </trkpt>
      <trkpt lat="47.15622" lon="4.76578">
        <ele>531.40002441406</ele>
        <time>2023-06-17T06:37:06.000Z</time>
      </trkpt>
      <trkpt lat="47.15617" lon="4.76562">
        <ele>530.79998779297</ele>
        <time>2023-06-17T06:37:07.000Z</time>
      </trkpt>
      <trkpt lat="47.15612" lon="4.76547">
        <ele>530</ele>
        <time>2023-06-17T06:37:08.000Z</time>
      </trkpt>
      <trkpt lat="47.15602" lon="4.76515">
        <ele>528.79998779297</ele>
        <time>2023-06-17T06:37:10.000Z</time>
      </trkpt>
      <trkpt lat="47.15592" lon="4.76483">
        <ele>527.40002441406</ele>
        <time>2023-06-17T06:37:12.000Z</time>
      </trkpt>
      <trkpt lat="47.15582" lon="4.76453">
        <ele>526.20001220703</ele>
        <time>2023-06-17T06:37:14.000Z</time>
      </trkpt>
      <trkpt lat="47.15579" lon="4.76441">
        <ele>524.79998779297</ele>
        <time>2023-06-17T06:37:15.000Z</time>
      </trkpt>
      <trkpt lat="47.15569" lon="4.7641">
        <ele>523.59997558594</ele>
        <time>2023-06-17T06:37:17.000Z</time>
      </trkpt>
      <trkpt lat="47.15557" lon="4.76374">
        <ele>522.40002441406</ele>
        <time>2023-06-17T06:37:20.000Z</time>
      </trkpt>
      <trkpt lat="47.15542" lon="4.76321">
        <ele>521.79998779297</ele>
        <time>2023-06-17T06:37:25.000Z</time>
      </trkpt>
      <trkpt lat="47.15531" lon="4.7626">
        <ele>523.20001220703</ele>
        <time>2023-06-17T06:37:31.000Z</time>
      </trkpt>
      <trkpt lat="47.15528" lon="4.76243">
        <ele>523.40002441406</ele>
        <time>2023-06-17T06:37:33.000Z</time>
      </trkpt>
      <trkpt lat="47.15526" lon="4.76234">
        <ele>523.79998779297</ele>
        <time>2023-06-17T06:37:34.000Z</time>
      </trkpt>
      <trkpt lat="47.15522" lon="4.76208">
        <ele>524.20001220703</ele>
        <time>2023-06-17T06:37:37.000Z</time>
      </trkpt>
      <trkpt lat="47.15519" lon="4.76192">
        <ele>524.59997558594</ele>
        <time>2023-06-17T06:37:39.000Z</time>
      </trkpt>
      <trkpt lat="47.15513" lon="4.7616">
        <ele>525.79998779297</ele>
        <time>2023-06-17T06:37:43.000Z</time>
      </trkpt>
      <trkpt lat="47.15511" lon="4.76148">
        <ele>526</ele>
        <time>2023-06-17T06:37:45.000Z</time>
      </trkpt>
      <trkpt lat="47.15506" lon="4.76126">
        <ele>526.79998779297</ele>
        <time>2023-06-17T06:37:48.000Z</time>
      </trkpt>
      <trkpt lat="47.15499" lon="4.76088">
        <ele>527.79998779297</ele>
        <time>2023-06-17T06:37:54.000Z</time>
      </trkpt>
      <trkpt lat="47.15493" lon="4.76048">
        <ele>529</ele>
        <time>2023-06-17T06:38:00.000Z</time>
      </trkpt>
      <trkpt lat="47.15492" lon="4.76021">
        <ele>529.79998779297</ele>
        <time>2023-06-17T06:38:04.000Z</time>
      </trkpt>
      <trkpt lat="47.15492" lon="4.76014">
        <ele>530</ele>
        <time>2023-06-17T06:38:05.000Z</time>
      </trkpt>
      <trkpt lat="47.15495" lon="4.75972">
        <ele>531.20001220703</ele>
        <time>2023-06-17T06:38:11.000Z</time>
      </trkpt>
      <trkpt lat="47.15497" lon="4.75958">
        <ele>531.59997558594</ele>
        <time>2023-06-17T06:38:13.000Z</time>
      </trkpt>
      <trkpt lat="47.155" lon="4.75924">
        <ele>532.20001220703</ele>
        <time>2023-06-17T06:38:18.000Z</time>
      </trkpt>
      <trkpt lat="47.15505" lon="4.75882">
        <ele>533</ele>
        <time>2023-06-17T06:38:24.000Z</time>
      </trkpt>
      <trkpt lat="47.15507" lon="4.75861">
        <ele>533.20001220703</ele>
        <time>2023-06-17T06:38:27.000Z</time>
      </trkpt>
      <trkpt lat="47.15514" lon="4.75806">
        <ele>534.20001220703</ele>
        <time>2023-06-17T06:38:35.000Z</time>
      </trkpt>
      <trkpt lat="47.15514" lon="4.758">
        <ele>534.40002441406</ele>
        <time>2023-06-17T06:38:36.000Z</time>
      </trkpt>
      <trkpt lat="47.15521" lon="4.75742">
        <ele>535.59997558594</ele>
        <time>2023-06-17T06:38:45.000Z</time>
      </trkpt>
      <trkpt lat="47.15526" lon="4.75696">
        <ele>536.79998779297</ele>
        <time>2023-06-17T06:38:52.000Z</time>
      </trkpt>
      <trkpt lat="47.15527" lon="4.75646">
        <ele>538</ele>
        <time>2023-06-17T06:38:59.000Z</time>
      </trkpt>
      <trkpt lat="47.15527" lon="4.7564">
        <ele>538.20001220703</ele>
        <time>2023-06-17T06:39:00.000Z</time>
      </trkpt>
      <trkpt lat="47.15524" lon="4.75586">
        <ele>539.20001220703</ele>
        <time>2023-06-17T06:39:08.000Z</time>
      </trkpt>
      <trkpt lat="47.15523" lon="4.75579">
        <ele>539</ele>
        <time>2023-06-17T06:39:09.000Z</time>
      </trkpt>
      <trkpt lat="47.15523" lon="4.75522">
        <ele>540</ele>
        <time>2023-06-17T06:39:17.000Z</time>
      </trkpt>
      <trkpt lat="47.15524" lon="4.75509">
        <ele>540.20001220703</ele>
        <time>2023-06-17T06:39:19.000Z</time>
      </trkpt>
      <trkpt lat="47.15525" lon="4.75493">
        <ele>540.59997558594</ele>
        <time>2023-06-17T06:39:21.000Z</time>
      </trkpt>
      <trkpt lat="47.1553" lon="4.75468">
        <ele>540.79998779297</ele>
        <time>2023-06-17T06:39:25.000Z</time>
      </trkpt>
      <trkpt lat="47.15533" lon="4.75455">
        <ele>541.20001220703</ele>
        <time>2023-06-17T06:39:27.000Z</time>
      </trkpt>
      <trkpt lat="47.15545" lon="4.75404">
        <ele>542.40002441406</ele>
        <time>2023-06-17T06:39:35.000Z</time>
      </trkpt>
      <trkpt lat="47.15552" lon="4.75372">
        <ele>543.20001220703</ele>
        <time>2023-06-17T06:39:40.000Z</time>
      </trkpt>
      <trkpt lat="47.15562" lon="4.75327">
        <ele>544</ele>
        <time>2023-06-17T06:39:47.000Z</time>
      </trkpt>
      <trkpt lat="47.15567" lon="4.75307">
        <ele>544.20001220703</ele>
        <time>2023-06-17T06:39:50.000Z</time>
      </trkpt>
      <trkpt lat="47.15574" lon="4.75295">
        <ele>544.40002441406</ele>
        <time>2023-06-17T06:39:52.000Z</time>
      </trkpt>
      <trkpt lat="47.15577" lon="4.75292">
        <ele>544.40002441406</ele>
        <time>2023-06-17T06:39:53.000Z</time>
      </trkpt>
      <trkpt lat="47.15591" lon="4.75276">
        <ele>544.59997558594</ele>
        <time>2023-06-17T06:39:57.000Z</time>
      </trkpt>
      <trkpt lat="47.15599" lon="4.75271">
        <ele>545</ele>
        <time>2023-06-17T06:39:59.000Z</time>
      </trkpt>
      <trkpt lat="47.15603" lon="4.75269">
        <ele>545.20001220703</ele>
        <time>2023-06-17T06:40:00.000Z</time>
      </trkpt>
      <trkpt lat="47.15606" lon="4.75268">
        <ele>545.40002441406</ele>
        <time>2023-06-17T06:40:01.000Z</time>
      </trkpt>
      <trkpt lat="47.1561" lon="4.75267">
        <ele>545.59997558594</ele>
        <time>2023-06-17T06:40:02.000Z</time>
      </trkpt>
      <trkpt lat="47.15613" lon="4.75267">
        <ele>546</ele>
        <time>2023-06-17T06:40:03.000Z</time>
      </trkpt>
      <trkpt lat="47.15622" lon="4.75265">
        <ele>546.59997558594</ele>
        <time>2023-06-17T06:40:05.000Z</time>
      </trkpt>
      <trkpt lat="47.15634" lon="4.75264">
        <ele>547.59997558594</ele>
        <time>2023-06-17T06:40:09.000Z</time>
      </trkpt>
      <trkpt lat="47.15637" lon="4.75265">
        <ele>547.79998779297</ele>
        <time>2023-06-17T06:40:10.000Z</time>
      </trkpt>
      <trkpt lat="47.15646" lon="4.75266">
        <ele>548.40002441406</ele>
        <time>2023-06-17T06:40:13.000Z</time>
      </trkpt>
      <trkpt lat="47.15652" lon="4.75264">
        <ele>548.79998779297</ele>
        <time>2023-06-17T06:40:15.000Z</time>
      </trkpt>
      <trkpt lat="47.15664" lon="4.75259">
        <ele>549.40002441406</ele>
        <time>2023-06-17T06:40:19.000Z</time>
      </trkpt>
      <trkpt lat="47.15673" lon="4.75257">
        <ele>549.79998779297</ele>
        <time>2023-06-17T06:40:21.000Z</time>
      </trkpt>
      <trkpt lat="47.15687" lon="4.75253">
        <ele>550.79998779297</ele>
        <time>2023-06-17T06:40:24.000Z</time>
      </trkpt>
      <trkpt lat="47.15712" lon="4.75246">
        <ele>551.79998779297</ele>
        <time>2023-06-17T06:40:29.000Z</time>
      </trkpt>
      <trkpt lat="47.1573" lon="4.75239">
        <ele>552.40002441406</ele>
        <time>2023-06-17T06:40:33.000Z</time>
      </trkpt>
      <trkpt lat="47.15751" lon="4.75233">
        <ele>553</ele>
        <time>2023-06-17T06:40:37.000Z</time>
      </trkpt>
      <trkpt lat="47.15768" lon="4.75229">
        <ele>553.79998779297</ele>
        <time>2023-06-17T06:40:41.000Z</time>
      </trkpt>
      <trkpt lat="47.15776" lon="4.75227">
        <ele>554.20001220703</ele>
        <time>2023-06-17T06:40:43.000Z</time>
      </trkpt>
      <trkpt lat="47.15796" lon="4.75224">
        <ele>554.79998779297</ele>
        <time>2023-06-17T06:40:47.000Z</time>
      </trkpt>
      <trkpt lat="47.15806" lon="4.75222">
        <ele>555.40002441406</ele>
        <time>2023-06-17T06:40:49.000Z</time>
      </trkpt>
      <trkpt lat="47.15823" lon="4.75222">
        <ele>556.40002441406</ele>
        <time>2023-06-17T06:40:53.000Z</time>
      </trkpt>
      <trkpt lat="47.15831" lon="4.7522">
        <ele>556.79998779297</ele>
        <time>2023-06-17T06:40:55.000Z</time>
      </trkpt>
      <trkpt lat="47.15853" lon="4.75216">
        <ele>557.59997558594</ele>
        <time>2023-06-17T06:41:00.000Z</time>
      </trkpt>
      <trkpt lat="47.15862" lon="4.75214">
        <ele>558</ele>
        <time>2023-06-17T06:41:03.000Z</time>
      </trkpt>
      <trkpt lat="47.15879" lon="4.75212">
        <ele>558.79998779297</ele>
        <time>2023-06-17T06:41:08.000Z</time>
      </trkpt>
      <trkpt lat="47.15893" lon="4.75209">
        <ele>559.40002441406</ele>
        <time>2023-06-17T06:41:12.000Z</time>
      </trkpt>
      <trkpt lat="47.15904" lon="4.75207">
        <ele>560</ele>
        <time>2023-06-17T06:41:15.000Z</time>
      </trkpt>
      <trkpt lat="47.15925" lon="4.75205">
        <ele>560.59997558594</ele>
        <time>2023-06-17T06:41:20.000Z</time>
      </trkpt>
      <trkpt lat="47.1593" lon="4.75204">
        <ele>560.79998779297</ele>
        <time>2023-06-17T06:41:21.000Z</time>
      </trkpt>
      <trkpt lat="47.15954" lon="4.75202">
        <ele>562</ele>
        <time>2023-06-17T06:41:27.000Z</time>
      </trkpt>
      <trkpt lat="47.15958" lon="4.75201">
        <ele>562</ele>
        <time>2023-06-17T06:41:28.000Z</time>
      </trkpt>
      <trkpt lat="47.15977" lon="4.75198">
        <ele>563</ele>
        <time>2023-06-17T06:41:33.000Z</time>
      </trkpt>
      <trkpt lat="47.15993" lon="4.75197">
        <ele>563.59997558594</ele>
        <time>2023-06-17T06:41:37.000Z</time>
      </trkpt>
      <trkpt lat="47.16004" lon="4.75196">
        <ele>564.20001220703</ele>
        <time>2023-06-17T06:41:40.000Z</time>
      </trkpt>
      <trkpt lat="47.16019" lon="4.75196">
        <ele>564.79998779297</ele>
        <time>2023-06-17T06:41:44.000Z</time>
      </trkpt>
      <trkpt lat="47.16022" lon="4.75196">
        <ele>565.20001220703</ele>
        <time>2023-06-17T06:41:45.000Z</time>
      </trkpt>
      <trkpt lat="47.16032" lon="4.752">
        <ele>566.20001220703</ele>
        <time>2023-06-17T06:41:48.000Z</time>
      </trkpt>
      <trkpt lat="47.1604" lon="4.75206">
        <ele>566.59997558594</ele>
        <time>2023-06-17T06:41:50.000Z</time>
      </trkpt>
      <trkpt lat="47.16048" lon="4.75214">
        <ele>567.40002441406</ele>
        <time>2023-06-17T06:41:53.000Z</time>
      </trkpt>
      <trkpt lat="47.16058" lon="4.75229">
        <ele>568.40002441406</ele>
        <time>2023-06-17T06:41:57.000Z</time>
      </trkpt>
      <trkpt lat="47.16072" lon="4.75254">
        <ele>569.59997558594</ele>
        <time>2023-06-17T06:42:02.000Z</time>
      </trkpt>
      <trkpt lat="47.16075" lon="4.75259">
        <ele>569.79998779297</ele>
        <time>2023-06-17T06:42:03.000Z</time>
      </trkpt>
      <trkpt lat="47.16078" lon="4.75264">
        <ele>570.20001220703</ele>
        <time>2023-06-17T06:42:04.000Z</time>
      </trkpt>
      <trkpt lat="47.16088" lon="4.75277">
        <ele>570.79998779297</ele>
        <time>2023-06-17T06:42:07.000Z</time>
      </trkpt>
      <trkpt lat="47.16095" lon="4.75285">
        <ele>571.20001220703</ele>
        <time>2023-06-17T06:42:09.000Z</time>
      </trkpt>
      <trkpt lat="47.16098" lon="4.75289">
        <ele>571.20001220703</ele>
        <time>2023-06-17T06:42:10.000Z</time>
      </trkpt>
      <trkpt lat="47.16105" lon="4.75294">
        <ele>571.40002441406</ele>
        <time>2023-06-17T06:42:12.000Z</time>
      </trkpt>
      <trkpt lat="47.16116" lon="4.75302">
        <ele>571.79998779297</ele>
        <time>2023-06-17T06:42:16.000Z</time>
      </trkpt>
      <trkpt lat="47.16118" lon="4.75304">
        <ele>572</ele>
        <time>2023-06-17T06:42:17.000Z</time>
      </trkpt>
      <trkpt lat="47.16125" lon="4.75309">
        <ele>573</ele>
        <time>2023-06-17T06:42:20.000Z</time>
      </trkpt>
      <trkpt lat="47.16134" lon="4.75315">
        <ele>574</ele>
        <time>2023-06-17T06:42:23.000Z</time>
      </trkpt>
      <trkpt lat="47.16144" lon="4.75321">
        <ele>575.40002441406</ele>
        <time>2023-06-17T06:42:28.000Z</time>
      </trkpt>
      <trkpt lat="47.16156" lon="4.75325">
        <ele>576.40002441406</ele>
        <time>2023-06-17T06:42:32.000Z</time>
      </trkpt>
      <trkpt lat="47.16159" lon="4.75326">
        <ele>576.79998779297</ele>
        <time>2023-06-17T06:42:33.000Z</time>
      </trkpt>
      <trkpt lat="47.16174" lon="4.75325">
        <ele>577.40002441406</ele>
        <time>2023-06-17T06:42:37.000Z</time>
      </trkpt>
      <trkpt lat="47.16203" lon="4.75328">
        <ele>577.20001220703</ele>
        <time>2023-06-17T06:42:43.000Z</time>
      </trkpt>
      <trkpt lat="47.16232" lon="4.75337">
        <ele>576.40002441406</ele>
        <time>2023-06-17T06:42:47.000Z</time>
      </trkpt>
      <trkpt lat="47.16254" lon="4.75339">
        <ele>575.40002441406</ele>
        <time>2023-06-17T06:42:49.000Z</time>
      </trkpt>
      <trkpt lat="47.16267" lon="4.75338">
        <ele>574.79998779297</ele>
        <time>2023-06-17T06:42:50.000Z</time>
      </trkpt>
      <trkpt lat="47.16277" lon="4.75336">
        <ele>574.20001220703</ele>
        <time>2023-06-17T06:42:51.000Z</time>
      </trkpt>
      <trkpt lat="47.16292" lon="4.75333">
        <ele>573.20001220703</ele>
        <time>2023-06-17T06:42:52.000Z</time>
      </trkpt>
      <trkpt lat="47.1632" lon="4.75323">
        <ele>571.79998779297</ele>
        <time>2023-06-17T06:42:54.000Z</time>
      </trkpt>
      <trkpt lat="47.16341" lon="4.75312">
        <ele>570.20001220703</ele>
        <time>2023-06-17T06:42:56.000Z</time>
      </trkpt>
      <trkpt lat="47.16373" lon="4.75298">
        <ele>568.79998779297</ele>
        <time>2023-06-17T06:42:59.000Z</time>
      </trkpt>
      <trkpt lat="47.16396" lon="4.75286">
        <ele>567.79998779297</ele>
        <time>2023-06-17T06:43:01.000Z</time>
      </trkpt>
      <trkpt lat="47.16404" lon="4.75282">
        <ele>567.20001220703</ele>
        <time>2023-06-17T06:43:02.000Z</time>
      </trkpt>
      <trkpt lat="47.16426" lon="4.75271">
        <ele>565.59997558594</ele>
        <time>2023-06-17T06:43:04.000Z</time>
      </trkpt>
      <trkpt lat="47.16454" lon="4.75258">
        <ele>564.59997558594</ele>
        <time>2023-06-17T06:43:07.000Z</time>
      </trkpt>
      <trkpt lat="47.16475" lon="4.75248">
        <ele>563</ele>
        <time>2023-06-17T06:43:09.000Z</time>
      </trkpt>
      <trkpt lat="47.16499" lon="4.75232">
        <ele>562.20001220703</ele>
        <time>2023-06-17T06:43:12.000Z</time>
      </trkpt>
      <trkpt lat="47.16506" lon="4.75224">
        <ele>561.79998779297</ele>
        <time>2023-06-17T06:43:13.000Z</time>
      </trkpt>
      <trkpt lat="47.16518" lon="4.75204">
        <ele>561.40002441406</ele>
        <time>2023-06-17T06:43:15.000Z</time>
      </trkpt>
      <trkpt lat="47.16542" lon="4.75163">
        <ele>560.79998779297</ele>
        <time>2023-06-17T06:43:19.000Z</time>
      </trkpt>
      <trkpt lat="47.16576" lon="4.75106">
        <ele>560.20001220703</ele>
        <time>2023-06-17T06:43:25.000Z</time>
      </trkpt>
      <trkpt lat="47.16585" lon="4.75088">
        <ele>559.79998779297</ele>
        <time>2023-06-17T06:43:27.000Z</time>
      </trkpt>
      <trkpt lat="47.16591" lon="4.75079">
        <ele>559.40002441406</ele>
        <time>2023-06-17T06:43:28.000Z</time>
      </trkpt>
      <trkpt lat="47.16604" lon="4.75061">
        <ele>558.59997558594</ele>
        <time>2023-06-17T06:43:30.000Z</time>
      </trkpt>
      <trkpt lat="47.1661" lon="4.75055">
        <ele>558.40002441406</ele>
        <time>2023-06-17T06:43:31.000Z</time>
      </trkpt>
      <trkpt lat="47.16638" lon="4.75026">
        <ele>557.40002441406</ele>
        <time>2023-06-17T06:43:35.000Z</time>
      </trkpt>
      <trkpt lat="47.16644" lon="4.75021">
        <ele>557.20001220703</ele>
        <time>2023-06-17T06:43:36.000Z</time>
      </trkpt>
      <trkpt lat="47.16656" lon="4.75005">
        <ele>556.20001220703</ele>
        <time>2023-06-17T06:43:38.000Z</time>
      </trkpt>
      <trkpt lat="47.16669" lon="4.74986">
        <ele>555.20001220703</ele>
        <time>2023-06-17T06:43:40.000Z</time>
      </trkpt>
      <trkpt lat="47.16673" lon="4.74977">
        <ele>555.20001220703</ele>
        <time>2023-06-17T06:43:41.000Z</time>
      </trkpt>
      <trkpt lat="47.1668" lon="4.74968">
        <ele>555</ele>
        <time>2023-06-17T06:43:42.000Z</time>
      </trkpt>
      <trkpt lat="47.16699" lon="4.74953">
        <ele>554.20001220703</ele>
        <time>2023-06-17T06:43:44.000Z</time>
      </trkpt>
      <trkpt lat="47.16707" lon="4.74949">
        <ele>553.79998779297</ele>
        <time>2023-06-17T06:43:45.000Z</time>
      </trkpt>
      <trkpt lat="47.16716" lon="4.74945">
        <ele>552.79998779297</ele>
        <time>2023-06-17T06:43:46.000Z</time>
      </trkpt>
      <trkpt lat="47.16726" lon="4.74942">
        <ele>551.79998779297</ele>
        <time>2023-06-17T06:43:47.000Z</time>
      </trkpt>
      <trkpt lat="47.16736" lon="4.74941">
        <ele>551.40002441406</ele>
        <time>2023-06-17T06:43:48.000Z</time>
      </trkpt>
      <trkpt lat="47.16747" lon="4.74941">
        <ele>550</ele>
        <time>2023-06-17T06:43:49.000Z</time>
      </trkpt>
      <trkpt lat="47.16759" lon="4.74944">
        <ele>549.40002441406</ele>
        <time>2023-06-17T06:43:50.000Z</time>
      </trkpt>
      <trkpt lat="47.16769" lon="4.74947">
        <ele>548.20001220703</ele>
        <time>2023-06-17T06:43:51.000Z</time>
      </trkpt>
      <trkpt lat="47.16778" lon="4.74951">
        <ele>547.59997558594</ele>
        <time>2023-06-17T06:43:52.000Z</time>
      </trkpt>
      <trkpt lat="47.16787" lon="4.74953">
        <ele>546</ele>
        <time>2023-06-17T06:43:53.000Z</time>
      </trkpt>
      <trkpt lat="47.16801" lon="4.74953">
        <ele>544.59997558594</ele>
        <time>2023-06-17T06:43:54.000Z</time>
      </trkpt>
      <trkpt lat="47.16812" lon="4.74951">
        <ele>543.79998779297</ele>
        <time>2023-06-17T06:43:55.000Z</time>
      </trkpt>
      <trkpt lat="47.16823" lon="4.74947">
        <ele>542.40002441406</ele>
        <time>2023-06-17T06:43:56.000Z</time>
      </trkpt>
      <trkpt lat="47.16845" lon="4.7494">
        <ele>539.40002441406</ele>
        <time>2023-06-17T06:43:58.000Z</time>
      </trkpt>
      <trkpt lat="47.16856" lon="4.74935">
        <ele>538.20001220703</ele>
        <time>2023-06-17T06:43:59.000Z</time>
      </trkpt>
      <trkpt lat="47.16866" lon="4.74931">
        <ele>537.59997558594</ele>
        <time>2023-06-17T06:44:00.000Z</time>
      </trkpt>
      <trkpt lat="47.16877" lon="4.74926">
        <ele>536.20001220703</ele>
        <time>2023-06-17T06:44:01.000Z</time>
      </trkpt>
      <trkpt lat="47.16898" lon="4.74918">
        <ele>533.59997558594</ele>
        <time>2023-06-17T06:44:03.000Z</time>
      </trkpt>
      <trkpt lat="47.16917" lon="4.74912">
        <ele>531.79998779297</ele>
        <time>2023-06-17T06:44:05.000Z</time>
      </trkpt>
      <trkpt lat="47.16927" lon="4.74913">
        <ele>529.79998779297</ele>
        <time>2023-06-17T06:44:06.000Z</time>
      </trkpt>
      <trkpt lat="47.16948" lon="4.74918">
        <ele>527.79998779297</ele>
        <time>2023-06-17T06:44:08.000Z</time>
      </trkpt>
      <trkpt lat="47.16967" lon="4.74927">
        <ele>526</ele>
        <time>2023-06-17T06:44:10.000Z</time>
      </trkpt>
      <trkpt lat="47.16985" lon="4.74942">
        <ele>523.40002441406</ele>
        <time>2023-06-17T06:44:12.000Z</time>
      </trkpt>
      <trkpt lat="47.16992" lon="4.7495">
        <ele>521.79998779297</ele>
        <time>2023-06-17T06:44:13.000Z</time>
      </trkpt>
      <trkpt lat="47.17002" lon="4.74961">
        <ele>520.79998779297</ele>
        <time>2023-06-17T06:44:14.000Z</time>
      </trkpt>
      <trkpt lat="47.1701" lon="4.74969">
        <ele>519.40002441406</ele>
        <time>2023-06-17T06:44:15.000Z</time>
      </trkpt>
      <trkpt lat="47.17023" lon="4.74982">
        <ele>516.59997558594</ele>
        <time>2023-06-17T06:44:17.000Z</time>
      </trkpt>
      <trkpt lat="47.17031" lon="4.74985">
        <ele>515.40002441406</ele>
        <time>2023-06-17T06:44:18.000Z</time>
      </trkpt>
      <trkpt lat="47.17039" lon="4.74982">
        <ele>514.79998779297</ele>
        <time>2023-06-17T06:44:19.000Z</time>
      </trkpt>
      <trkpt lat="47.17048" lon="4.74976">
        <ele>513.79998779297</ele>
        <time>2023-06-17T06:44:20.000Z</time>
      </trkpt>
      <trkpt lat="47.17054" lon="4.74968">
        <ele>513</ele>
        <time>2023-06-17T06:44:21.000Z</time>
      </trkpt>
      <trkpt lat="47.17058" lon="4.74959">
        <ele>511.60000610352</ele>
        <time>2023-06-17T06:44:22.000Z</time>
      </trkpt>
      <trkpt lat="47.17061" lon="4.74948">
        <ele>510.79998779297</ele>
        <time>2023-06-17T06:44:23.000Z</time>
      </trkpt>
      <trkpt lat="47.17063" lon="4.74936">
        <ele>509.20001220703</ele>
        <time>2023-06-17T06:44:24.000Z</time>
      </trkpt>
      <trkpt lat="47.17064" lon="4.74922">
        <ele>508.20001220703</ele>
        <time>2023-06-17T06:44:25.000Z</time>
      </trkpt>
      <trkpt lat="47.17066" lon="4.74908">
        <ele>507.60000610352</ele>
        <time>2023-06-17T06:44:26.000Z</time>
      </trkpt>
      <trkpt lat="47.17071" lon="4.74895">
        <ele>506.79998779297</ele>
        <time>2023-06-17T06:44:27.000Z</time>
      </trkpt>
      <trkpt lat="47.17076" lon="4.74884">
        <ele>506</ele>
        <time>2023-06-17T06:44:28.000Z</time>
      </trkpt>
      <trkpt lat="47.17082" lon="4.74873">
        <ele>504.79998779297</ele>
        <time>2023-06-17T06:44:29.000Z</time>
      </trkpt>
      <trkpt lat="47.17089" lon="4.74862">
        <ele>504.20001220703</ele>
        <time>2023-06-17T06:44:30.000Z</time>
      </trkpt>
      <trkpt lat="47.17098" lon="4.74853">
        <ele>503</ele>
        <time>2023-06-17T06:44:31.000Z</time>
      </trkpt>
      <trkpt lat="47.17106" lon="4.74846">
        <ele>502</ele>
        <time>2023-06-17T06:44:32.000Z</time>
      </trkpt>
      <trkpt lat="47.17116" lon="4.74839">
        <ele>501.60000610352</ele>
        <time>2023-06-17T06:44:33.000Z</time>
      </trkpt>
      <trkpt lat="47.17125" lon="4.74833">
        <ele>500.60000610352</ele>
        <time>2023-06-17T06:44:34.000Z</time>
      </trkpt>
      <trkpt lat="47.17135" lon="4.74829">
        <ele>500</ele>
        <time>2023-06-17T06:44:35.000Z</time>
      </trkpt>
      <trkpt lat="47.17145" lon="4.74827">
        <ele>499.20001220703</ele>
        <time>2023-06-17T06:44:36.000Z</time>
      </trkpt>
      <trkpt lat="47.17167" lon="4.74826">
        <ele>497.79998779297</ele>
        <time>2023-06-17T06:44:38.000Z</time>
      </trkpt>
      <trkpt lat="47.17177" lon="4.74827">
        <ele>496</ele>
        <time>2023-06-17T06:44:39.000Z</time>
      </trkpt>
      <trkpt lat="47.17187" lon="4.74827">
        <ele>495.39999389648</ele>
        <time>2023-06-17T06:44:40.000Z</time>
      </trkpt>
      <trkpt lat="47.17196" lon="4.74825">
        <ele>494.20001220703</ele>
        <time>2023-06-17T06:44:41.000Z</time>
      </trkpt>
      <trkpt lat="47.17214" lon="4.74814">
        <ele>492.20001220703</ele>
        <time>2023-06-17T06:44:43.000Z</time>
      </trkpt>
      <trkpt lat="47.17231" lon="4.74796">
        <ele>490.20001220703</ele>
        <time>2023-06-17T06:44:45.000Z</time>
      </trkpt>
      <trkpt lat="47.17239" lon="4.74787">
        <ele>488.60000610352</ele>
        <time>2023-06-17T06:44:46.000Z</time>
      </trkpt>
      <trkpt lat="47.17255" lon="4.74769">
        <ele>486.39999389648</ele>
        <time>2023-06-17T06:44:48.000Z</time>
      </trkpt>
      <trkpt lat="47.17263" lon="4.74761">
        <ele>485</ele>
        <time>2023-06-17T06:44:49.000Z</time>
      </trkpt>
      <trkpt lat="47.17272" lon="4.74753">
        <ele>483.20001220703</ele>
        <time>2023-06-17T06:44:50.000Z</time>
      </trkpt>
      <trkpt lat="47.17279" lon="4.74746">
        <ele>482</ele>
        <time>2023-06-17T06:44:51.000Z</time>
      </trkpt>
      <trkpt lat="47.17298" lon="4.74728">
        <ele>480</ele>
        <time>2023-06-17T06:44:53.000Z</time>
      </trkpt>
      <trkpt lat="47.17307" lon="4.7472">
        <ele>479</ele>
        <time>2023-06-17T06:44:54.000Z</time>
      </trkpt>
      <trkpt lat="47.17315" lon="4.74712">
        <ele>477.60000610352</ele>
        <time>2023-06-17T06:44:55.000Z</time>
      </trkpt>
      <trkpt lat="47.17331" lon="4.74696">
        <ele>476</ele>
        <time>2023-06-17T06:44:57.000Z</time>
      </trkpt>
      <trkpt lat="47.17339" lon="4.74688">
        <ele>474.79998779297</ele>
        <time>2023-06-17T06:44:58.000Z</time>
      </trkpt>
      <trkpt lat="47.17346" lon="4.74679">
        <ele>474.39999389648</ele>
        <time>2023-06-17T06:44:59.000Z</time>
      </trkpt>
      <trkpt lat="47.17355" lon="4.74673">
        <ele>473.20001220703</ele>
        <time>2023-06-17T06:45:00.000Z</time>
      </trkpt>
      <trkpt lat="47.17364" lon="4.74666">
        <ele>472.20001220703</ele>
        <time>2023-06-17T06:45:01.000Z</time>
      </trkpt>
      <trkpt lat="47.17374" lon="4.7466">
        <ele>470.79998779297</ele>
        <time>2023-06-17T06:45:02.000Z</time>
      </trkpt>
      <trkpt lat="47.17384" lon="4.74654">
        <ele>469.39999389648</ele>
        <time>2023-06-17T06:45:03.000Z</time>
      </trkpt>
      <trkpt lat="47.17403" lon="4.7464">
        <ele>467.79998779297</ele>
        <time>2023-06-17T06:45:05.000Z</time>
      </trkpt>
      <trkpt lat="47.17422" lon="4.74628">
        <ele>466.60000610352</ele>
        <time>2023-06-17T06:45:07.000Z</time>
      </trkpt>
      <trkpt lat="47.17442" lon="4.74615">
        <ele>464.60000610352</ele>
        <time>2023-06-17T06:45:09.000Z</time>
      </trkpt>
      <trkpt lat="47.17452" lon="4.74608">
        <ele>462.79998779297</ele>
        <time>2023-06-17T06:45:10.000Z</time>
      </trkpt>
      <trkpt lat="47.17471" lon="4.74593">
        <ele>461.60000610352</ele>
        <time>2023-06-17T06:45:12.000Z</time>
      </trkpt>
      <trkpt lat="47.17484" lon="4.74577">
        <ele>459</ele>
        <time>2023-06-17T06:45:14.000Z</time>
      </trkpt>
      <trkpt lat="47.17489" lon="4.7457">
        <ele>457.39999389648</ele>
        <time>2023-06-17T06:45:15.000Z</time>
      </trkpt>
      <trkpt lat="47.17494" lon="4.74563">
        <ele>456.39999389648</ele>
        <time>2023-06-17T06:45:16.000Z</time>
      </trkpt>
      <trkpt lat="47.17497" lon="4.74555">
        <ele>455.20001220703</ele>
        <time>2023-06-17T06:45:17.000Z</time>
      </trkpt>
      <trkpt lat="47.17498" lon="4.74548">
        <ele>454.60000610352</ele>
        <time>2023-06-17T06:45:18.000Z</time>
      </trkpt>
      <trkpt lat="47.17497" lon="4.74539">
        <ele>453.60000610352</ele>
        <time>2023-06-17T06:45:19.000Z</time>
      </trkpt>
      <trkpt lat="47.17492" lon="4.7453">
        <ele>453</ele>
        <time>2023-06-17T06:45:20.000Z</time>
      </trkpt>
      <trkpt lat="47.17487" lon="4.74521">
        <ele>452</ele>
        <time>2023-06-17T06:45:21.000Z</time>
      </trkpt>
      <trkpt lat="47.17481" lon="4.74513">
        <ele>450.60000610352</ele>
        <time>2023-06-17T06:45:22.000Z</time>
      </trkpt>
      <trkpt lat="47.17474" lon="4.74505">
        <ele>450</ele>
        <time>2023-06-17T06:45:23.000Z</time>
      </trkpt>
      <trkpt lat="47.17467" lon="4.74499">
        <ele>449</ele>
        <time>2023-06-17T06:45:24.000Z</time>
      </trkpt>
      <trkpt lat="47.1746" lon="4.74493">
        <ele>448.60000610352</ele>
        <time>2023-06-17T06:45:25.000Z</time>
      </trkpt>
      <trkpt lat="47.17452" lon="4.74489">
        <ele>447.60000610352</ele>
        <time>2023-06-17T06:45:26.000Z</time>
      </trkpt>
      <trkpt lat="47.17445" lon="4.74486">
        <ele>447.20001220703</ele>
        <time>2023-06-17T06:45:27.000Z</time>
      </trkpt>
      <trkpt lat="47.17438" lon="4.74486">
        <ele>446.20001220703</ele>
        <time>2023-06-17T06:45:28.000Z</time>
      </trkpt>
      <trkpt lat="47.17431" lon="4.74487">
        <ele>445.39999389648</ele>
        <time>2023-06-17T06:45:29.000Z</time>
      </trkpt>
      <trkpt lat="47.17423" lon="4.74489">
        <ele>444.79998779297</ele>
        <time>2023-06-17T06:45:30.000Z</time>
      </trkpt>
      <trkpt lat="47.17407" lon="4.74494">
        <ele>443.39999389648</ele>
        <time>2023-06-17T06:45:32.000Z</time>
      </trkpt>
      <trkpt lat="47.17391" lon="4.745">
        <ele>441.79998779297</ele>
        <time>2023-06-17T06:45:34.000Z</time>
      </trkpt>
      <trkpt lat="47.17376" lon="4.74506">
        <ele>440.39999389648</ele>
        <time>2023-06-17T06:45:36.000Z</time>
      </trkpt>
      <trkpt lat="47.17355" lon="4.74514">
        <ele>439.20001220703</ele>
        <time>2023-06-17T06:45:39.000Z</time>
      </trkpt>
      <trkpt lat="47.17349" lon="4.74518">
        <ele>438.79998779297</ele>
        <time>2023-06-17T06:45:40.000Z</time>
      </trkpt>
      <trkpt lat="47.17324" lon="4.7453">
        <ele>438.20001220703</ele>
        <time>2023-06-17T06:45:44.000Z</time>
      </trkpt>
      <trkpt lat="47.17318" lon="4.74533">
        <ele>438</ele>
        <time>2023-06-17T06:45:45.000Z</time>
      </trkpt>
      <trkpt lat="47.17312" lon="4.74536">
        <ele>438</ele>
        <time>2023-06-17T06:45:46.000Z</time>
      </trkpt>
      <trkpt lat="47.17267" lon="4.74558">
        <ele>438</ele>
        <time>2023-06-17T06:45:54.000Z</time>
      </trkpt>
      <trkpt lat="47.17262" lon="4.7456">
        <ele>438.20001220703</ele>
        <time>2023-06-17T06:45:55.000Z</time>
      </trkpt>
      <trkpt lat="47.17234" lon="4.74574">
        <ele>438.60000610352</ele>
        <time>2023-06-17T06:46:00.000Z</time>
      </trkpt>
      <trkpt lat="47.17199" lon="4.74592">
        <ele>439.20001220703</ele>
        <time>2023-06-17T06:46:07.000Z</time>
      </trkpt>
      <trkpt lat="47.17176" lon="4.74603">
        <ele>440.60000610352</ele>
        <time>2023-06-17T06:46:12.000Z</time>
      </trkpt>
      <trkpt lat="47.17167" lon="4.74608">
        <ele>441.20001220703</ele>
        <time>2023-06-17T06:46:14.000Z</time>
      </trkpt>
      <trkpt lat="47.17163" lon="4.7461">
        <ele>441.39999389648</ele>
        <time>2023-06-17T06:46:15.000Z</time>
      </trkpt>
      <trkpt lat="47.17159" lon="4.7461">
        <ele>441.60000610352</ele>
        <time>2023-06-17T06:46:16.000Z</time>
      </trkpt>
      <trkpt lat="47.17155" lon="4.74608">
        <ele>441.79998779297</ele>
        <time>2023-06-17T06:46:17.000Z</time>
      </trkpt>
      <trkpt lat="47.17151" lon="4.74597">
        <ele>442.60000610352</ele>
        <time>2023-06-17T06:46:19.000Z</time>
      </trkpt>
      <trkpt lat="47.17151" lon="4.74588">
        <ele>442.60000610352</ele>
        <time>2023-06-17T06:46:20.000Z</time>
      </trkpt>
      <trkpt lat="47.17151" lon="4.74578">
        <ele>442.60000610352</ele>
        <time>2023-06-17T06:46:21.000Z</time>
      </trkpt>
      <trkpt lat="47.17149" lon="4.74546">
        <ele>442.60000610352</ele>
        <time>2023-06-17T06:46:24.000Z</time>
      </trkpt>
      <trkpt lat="47.17145" lon="4.74528">
        <ele>441.79998779297</ele>
        <time>2023-06-17T06:46:26.000Z</time>
      </trkpt>
      <trkpt lat="47.17141" lon="4.74522">
        <ele>441.39999389648</ele>
        <time>2023-06-17T06:46:27.000Z</time>
      </trkpt>
      <trkpt lat="47.17137" lon="4.74516">
        <ele>440.60000610352</ele>
        <time>2023-06-17T06:46:28.000Z</time>
      </trkpt>
      <trkpt lat="47.17127" lon="4.74508">
        <ele>439.79998779297</ele>
        <time>2023-06-17T06:46:30.000Z</time>
      </trkpt>
      <trkpt lat="47.17121" lon="4.74504">
        <ele>439.20001220703</ele>
        <time>2023-06-17T06:46:31.000Z</time>
      </trkpt>
      <trkpt lat="47.17116" lon="4.745">
        <ele>439</ele>
        <time>2023-06-17T06:46:32.000Z</time>
      </trkpt>
      <trkpt lat="47.17108" lon="4.74487">
        <ele>438.60000610352</ele>
        <time>2023-06-17T06:46:34.000Z</time>
      </trkpt>
      <trkpt lat="47.17105" lon="4.74479">
        <ele>438.60000610352</ele>
        <time>2023-06-17T06:46:35.000Z</time>
      </trkpt>
      <trkpt lat="47.17105" lon="4.74471">
        <ele>438.60000610352</ele>
        <time>2023-06-17T06:46:36.000Z</time>
      </trkpt>
      <trkpt lat="47.17109" lon="4.74453">
        <ele>438.39999389648</ele>
        <time>2023-06-17T06:46:38.000Z</time>
      </trkpt>
      <trkpt lat="47.17115" lon="4.74432">
        <ele>438</ele>
        <time>2023-06-17T06:46:40.000Z</time>
      </trkpt>
      <trkpt lat="47.17122" lon="4.74408">
        <ele>437.39999389648</ele>
        <time>2023-06-17T06:46:42.000Z</time>
      </trkpt>
      <trkpt lat="47.17135" lon="4.7437">
        <ele>436.20001220703</ele>
        <time>2023-06-17T06:46:45.000Z</time>
      </trkpt>
      <trkpt lat="47.17141" lon="4.74359">
        <ele>435.79998779297</ele>
        <time>2023-06-17T06:46:46.000Z</time>
      </trkpt>
      <trkpt lat="47.17149" lon="4.74349">
        <ele>435.20001220703</ele>
        <time>2023-06-17T06:46:47.000Z</time>
      </trkpt>
      <trkpt lat="47.17157" lon="4.7434">
        <ele>434.79998779297</ele>
        <time>2023-06-17T06:46:48.000Z</time>
      </trkpt>
      <trkpt lat="47.17165" lon="4.74331">
        <ele>433.20001220703</ele>
        <time>2023-06-17T06:46:49.000Z</time>
      </trkpt>
      <trkpt lat="47.17174" lon="4.74323">
        <ele>432.20001220703</ele>
        <time>2023-06-17T06:46:50.000Z</time>
      </trkpt>
      <trkpt lat="47.17193" lon="4.74309">
        <ele>431</ele>
        <time>2023-06-17T06:46:52.000Z</time>
      </trkpt>
      <trkpt lat="47.17212" lon="4.74295">
        <ele>429.60000610352</ele>
        <time>2023-06-17T06:46:54.000Z</time>
      </trkpt>
      <trkpt lat="47.17231" lon="4.74278">
        <ele>427.79998779297</ele>
        <time>2023-06-17T06:46:56.000Z</time>
      </trkpt>
      <trkpt lat="47.17241" lon="4.74271">
        <ele>426.79998779297</ele>
        <time>2023-06-17T06:46:57.000Z</time>
      </trkpt>
      <trkpt lat="47.17263" lon="4.74256">
        <ele>425.39999389648</ele>
        <time>2023-06-17T06:46:59.000Z</time>
      </trkpt>
      <trkpt lat="47.17282" lon="4.74243">
        <ele>424</ele>
        <time>2023-06-17T06:47:01.000Z</time>
      </trkpt>
      <trkpt lat="47.17291" lon="4.74236">
        <ele>422.79998779297</ele>
        <time>2023-06-17T06:47:02.000Z</time>
      </trkpt>
      <trkpt lat="47.17301" lon="4.7423">
        <ele>421.39999389648</ele>
        <time>2023-06-17T06:47:03.000Z</time>
      </trkpt>
      <trkpt lat="47.17311" lon="4.74223">
        <ele>420.39999389648</ele>
        <time>2023-06-17T06:47:04.000Z</time>
      </trkpt>
      <trkpt lat="47.17321" lon="4.74215">
        <ele>420</ele>
        <time>2023-06-17T06:47:05.000Z</time>
      </trkpt>
      <trkpt lat="47.1733" lon="4.74207">
        <ele>419.39999389648</ele>
        <time>2023-06-17T06:47:06.000Z</time>
      </trkpt>
      <trkpt lat="47.17349" lon="4.74191">
        <ele>418.20001220703</ele>
        <time>2023-06-17T06:47:08.000Z</time>
      </trkpt>
      <trkpt lat="47.17366" lon="4.74175">
        <ele>417.20001220703</ele>
        <time>2023-06-17T06:47:10.000Z</time>
      </trkpt>
      <trkpt lat="47.17375" lon="4.74167">
        <ele>416.60000610352</ele>
        <time>2023-06-17T06:47:11.000Z</time>
      </trkpt>
      <trkpt lat="47.17392" lon="4.7415">
        <ele>415.79998779297</ele>
        <time>2023-06-17T06:47:13.000Z</time>
      </trkpt>
      <trkpt lat="47.1741" lon="4.74134">
        <ele>414.79998779297</ele>
        <time>2023-06-17T06:47:15.000Z</time>
      </trkpt>
      <trkpt lat="47.17418" lon="4.74126">
        <ele>413.60000610352</ele>
        <time>2023-06-17T06:47:16.000Z</time>
      </trkpt>
      <trkpt lat="47.17427" lon="4.74118">
        <ele>413.20001220703</ele>
        <time>2023-06-17T06:47:17.000Z</time>
      </trkpt>
      <trkpt lat="47.17444" lon="4.74104">
        <ele>412.39999389648</ele>
        <time>2023-06-17T06:47:19.000Z</time>
      </trkpt>
      <trkpt lat="47.17463" lon="4.74094">
        <ele>411.39999389648</ele>
        <time>2023-06-17T06:47:21.000Z</time>
      </trkpt>
      <trkpt lat="47.17473" lon="4.74089">
        <ele>411</ele>
        <time>2023-06-17T06:47:22.000Z</time>
      </trkpt>
      <trkpt lat="47.17497" lon="4.74072">
        <ele>410.20001220703</ele>
        <time>2023-06-17T06:47:25.000Z</time>
      </trkpt>
      <trkpt lat="47.17521" lon="4.74051">
        <ele>408.79998779297</ele>
        <time>2023-06-17T06:47:28.000Z</time>
      </trkpt>
      <trkpt lat="47.17555" lon="4.74018">
        <ele>407.39999389648</ele>
        <time>2023-06-17T06:47:32.000Z</time>
      </trkpt>
      <trkpt lat="47.17572" lon="4.74001">
        <ele>406.60000610352</ele>
        <time>2023-06-17T06:47:34.000Z</time>
      </trkpt>
      <trkpt lat="47.17581" lon="4.73992">
        <ele>405.60000610352</ele>
        <time>2023-06-17T06:47:35.000Z</time>
      </trkpt>
      <trkpt lat="47.17598" lon="4.73973">
        <ele>404.39999389648</ele>
        <time>2023-06-17T06:47:37.000Z</time>
      </trkpt>
      <trkpt lat="47.17616" lon="4.73954">
        <ele>403.20001220703</ele>
        <time>2023-06-17T06:47:39.000Z</time>
      </trkpt>
      <trkpt lat="47.17642" lon="4.73924">
        <ele>401.79998779297</ele>
        <time>2023-06-17T06:47:42.000Z</time>
      </trkpt>
      <trkpt lat="47.1766" lon="4.73904">
        <ele>401</ele>
        <time>2023-06-17T06:47:44.000Z</time>
      </trkpt>
      <trkpt lat="47.1767" lon="4.73895">
        <ele>400.39999389648</ele>
        <time>2023-06-17T06:47:45.000Z</time>
      </trkpt>
      <trkpt lat="47.17689" lon="4.73876">
        <ele>399</ele>
        <time>2023-06-17T06:47:47.000Z</time>
      </trkpt>
      <trkpt lat="47.17718" lon="4.73851">
        <ele>397.60000610352</ele>
        <time>2023-06-17T06:47:50.000Z</time>
      </trkpt>
      <trkpt lat="47.17728" lon="4.73843">
        <ele>397</ele>
        <time>2023-06-17T06:47:51.000Z</time>
      </trkpt>
      <trkpt lat="47.17738" lon="4.73835">
        <ele>396.60000610352</ele>
        <time>2023-06-17T06:47:52.000Z</time>
      </trkpt>
      <trkpt lat="47.17757" lon="4.73818">
        <ele>395</ele>
        <time>2023-06-17T06:47:54.000Z</time>
      </trkpt>
      <trkpt lat="47.17777" lon="4.73802">
        <ele>393.60000610352</ele>
        <time>2023-06-17T06:47:56.000Z</time>
      </trkpt>
      <trkpt lat="47.17798" lon="4.73789">
        <ele>392.20001220703</ele>
        <time>2023-06-17T06:47:58.000Z</time>
      </trkpt>
      <trkpt lat="47.1782" lon="4.73779">
        <ele>391.20001220703</ele>
        <time>2023-06-17T06:48:00.000Z</time>
      </trkpt>
      <trkpt lat="47.17843" lon="4.73772">
        <ele>390.20001220703</ele>
        <time>2023-06-17T06:48:02.000Z</time>
      </trkpt>
      <trkpt lat="47.17877" lon="4.73766">
        <ele>387.79998779297</ele>
        <time>2023-06-17T06:48:05.000Z</time>
      </trkpt>
      <trkpt lat="47.17888" lon="4.73764">
        <ele>386.39999389648</ele>
        <time>2023-06-17T06:48:06.000Z</time>
      </trkpt>
      <trkpt lat="47.17911" lon="4.73762">
        <ele>385.20001220703</ele>
        <time>2023-06-17T06:48:08.000Z</time>
      </trkpt>
      <trkpt lat="47.17921" lon="4.73761">
        <ele>384.79998779297</ele>
        <time>2023-06-17T06:48:09.000Z</time>
      </trkpt>
      <trkpt lat="47.17932" lon="4.73759">
        <ele>384.20001220703</ele>
        <time>2023-06-17T06:48:10.000Z</time>
      </trkpt>
      <trkpt lat="47.17943" lon="4.73757">
        <ele>383</ele>
        <time>2023-06-17T06:48:11.000Z</time>
      </trkpt>
      <trkpt lat="47.17974" lon="4.7375">
        <ele>381.79998779297</ele>
        <time>2023-06-17T06:48:14.000Z</time>
      </trkpt>
      <trkpt lat="47.17994" lon="4.73741">
        <ele>381</ele>
        <time>2023-06-17T06:48:16.000Z</time>
      </trkpt>
      <trkpt lat="47.18003" lon="4.73735">
        <ele>380.60000610352</ele>
        <time>2023-06-17T06:48:17.000Z</time>
      </trkpt>
      <trkpt lat="47.18012" lon="4.73727">
        <ele>380</ele>
        <time>2023-06-17T06:48:18.000Z</time>
      </trkpt>
      <trkpt lat="47.18019" lon="4.73718">
        <ele>379.39999389648</ele>
        <time>2023-06-17T06:48:19.000Z</time>
      </trkpt>
      <trkpt lat="47.18026" lon="4.73709">
        <ele>378.79998779297</ele>
        <time>2023-06-17T06:48:20.000Z</time>
      </trkpt>
      <trkpt lat="47.1804" lon="4.73689">
        <ele>378</ele>
        <time>2023-06-17T06:48:22.000Z</time>
      </trkpt>
      <trkpt lat="47.18071" lon="4.73644">
        <ele>377</ele>
        <time>2023-06-17T06:48:27.000Z</time>
      </trkpt>
      <trkpt lat="47.18104" lon="4.73589">
        <ele>376.39999389648</ele>
        <time>2023-06-17T06:48:33.000Z</time>
      </trkpt>
      <trkpt lat="47.18125" lon="4.73551">
        <ele>375.79998779297</ele>
        <time>2023-06-17T06:48:37.000Z</time>
      </trkpt>
      <trkpt lat="47.18131" lon="4.73541">
        <ele>375.60000610352</ele>
        <time>2023-06-17T06:48:38.000Z</time>
      </trkpt>
      <trkpt lat="47.18151" lon="4.73496">
        <ele>375</ele>
        <time>2023-06-17T06:48:42.000Z</time>
      </trkpt>
      <trkpt lat="47.18156" lon="4.73484">
        <ele>374.79998779297</ele>
        <time>2023-06-17T06:48:43.000Z</time>
      </trkpt>
      <trkpt lat="47.18161" lon="4.73473">
        <ele>374.39999389648</ele>
        <time>2023-06-17T06:48:44.000Z</time>
      </trkpt>
      <trkpt lat="47.18179" lon="4.73421">
        <ele>373.39999389648</ele>
        <time>2023-06-17T06:48:48.000Z</time>
      </trkpt>
      <trkpt lat="47.18198" lon="4.73355">
        <ele>372.20001220703</ele>
        <time>2023-06-17T06:48:53.000Z</time>
      </trkpt>
      <trkpt lat="47.18215" lon="4.73302">
        <ele>371.20001220703</ele>
        <time>2023-06-17T06:48:57.000Z</time>
      </trkpt>
      <trkpt lat="47.18224" lon="4.73277">
        <ele>370</ele>
        <time>2023-06-17T06:48:59.000Z</time>
      </trkpt>
      <trkpt lat="47.18229" lon="4.73266">
        <ele>369.39999389648</ele>
        <time>2023-06-17T06:49:00.000Z</time>
      </trkpt>
      <trkpt lat="47.18235" lon="4.73255">
        <ele>368.79998779297</ele>
        <time>2023-06-17T06:49:01.000Z</time>
      </trkpt>
      <trkpt lat="47.18247" lon="4.73232">
        <ele>367.79998779297</ele>
        <time>2023-06-17T06:49:03.000Z</time>
      </trkpt>
      <trkpt lat="47.18272" lon="4.73189">
        <ele>366.20001220703</ele>
        <time>2023-06-17T06:49:07.000Z</time>
      </trkpt>
      <trkpt lat="47.18293" lon="4.73157">
        <ele>364.60000610352</ele>
        <time>2023-06-17T06:49:10.000Z</time>
      </trkpt>
      <trkpt lat="47.18308" lon="4.73135">
        <ele>363.60000610352</ele>
        <time>2023-06-17T06:49:12.000Z</time>
      </trkpt>
      <trkpt lat="47.18329" lon="4.731">
        <ele>361.79998779297</ele>
        <time>2023-06-17T06:49:15.000Z</time>
      </trkpt>
      <trkpt lat="47.18336" lon="4.73088">
        <ele>361.20001220703</ele>
        <time>2023-06-17T06:49:16.000Z</time>
      </trkpt>
      <trkpt lat="47.18343" lon="4.73076">
        <ele>360.60000610352</ele>
        <time>2023-06-17T06:49:17.000Z</time>
      </trkpt>
      <trkpt lat="47.18363" lon="4.73038">
        <ele>358.79998779297</ele>
        <time>2023-06-17T06:49:20.000Z</time>
      </trkpt>
      <trkpt lat="47.18376" lon="4.73013">
        <ele>357.79998779297</ele>
        <time>2023-06-17T06:49:22.000Z</time>
      </trkpt>
      <trkpt lat="47.18389" lon="4.72988">
        <ele>357</ele>
        <time>2023-06-17T06:49:24.000Z</time>
      </trkpt>
      <trkpt lat="47.18395" lon="4.72975">
        <ele>356.39999389648</ele>
        <time>2023-06-17T06:49:25.000Z</time>
      </trkpt>
      <trkpt lat="47.18408" lon="4.72951">
        <ele>354.79998779297</ele>
        <time>2023-06-17T06:49:27.000Z</time>
      </trkpt>
      <trkpt lat="47.18427" lon="4.72918">
        <ele>353.60000610352</ele>
        <time>2023-06-17T06:49:30.000Z</time>
      </trkpt>
      <trkpt lat="47.18441" lon="4.72898">
        <ele>352.60000610352</ele>
        <time>2023-06-17T06:49:32.000Z</time>
      </trkpt>
      <trkpt lat="47.18448" lon="4.72888">
        <ele>352.39999389648</ele>
        <time>2023-06-17T06:49:33.000Z</time>
      </trkpt>
      <trkpt lat="47.1847" lon="4.72861">
        <ele>351.39999389648</ele>
        <time>2023-06-17T06:49:36.000Z</time>
      </trkpt>
      <trkpt lat="47.18492" lon="4.72834">
        <ele>350.20001220703</ele>
        <time>2023-06-17T06:49:39.000Z</time>
      </trkpt>
      <trkpt lat="47.18506" lon="4.72817">
        <ele>349.79998779297</ele>
        <time>2023-06-17T06:49:41.000Z</time>
      </trkpt>
      <trkpt lat="47.18521" lon="4.728">
        <ele>349</ele>
        <time>2023-06-17T06:49:43.000Z</time>
      </trkpt>
      <trkpt lat="47.18556" lon="4.72758">
        <ele>347.79998779297</ele>
        <time>2023-06-17T06:49:48.000Z</time>
      </trkpt>
      <trkpt lat="47.18577" lon="4.72728">
        <ele>346.60000610352</ele>
        <time>2023-06-17T06:49:51.000Z</time>
      </trkpt>
      <trkpt lat="47.18599" lon="4.72684">
        <ele>345.60000610352</ele>
        <time>2023-06-17T06:49:55.000Z</time>
      </trkpt>
      <trkpt lat="47.1861" lon="4.72661">
        <ele>344.60000610352</ele>
        <time>2023-06-17T06:49:57.000Z</time>
      </trkpt>
      <trkpt lat="47.18615" lon="4.7265">
        <ele>344.20001220703</ele>
        <time>2023-06-17T06:49:58.000Z</time>
      </trkpt>
      <trkpt lat="47.18642" lon="4.72591">
        <ele>342.60000610352</ele>
        <time>2023-06-17T06:50:03.000Z</time>
      </trkpt>
      <trkpt lat="47.18648" lon="4.72579">
        <ele>342.20001220703</ele>
        <time>2023-06-17T06:50:04.000Z</time>
      </trkpt>
      <trkpt lat="47.18662" lon="4.72542">
        <ele>341.20001220703</ele>
        <time>2023-06-17T06:50:07.000Z</time>
      </trkpt>
      <trkpt lat="47.18677" lon="4.72505">
        <ele>339.79998779297</ele>
        <time>2023-06-17T06:50:10.000Z</time>
      </trkpt>
      <trkpt lat="47.18687" lon="4.72482">
        <ele>339.39999389648</ele>
        <time>2023-06-17T06:50:12.000Z</time>
      </trkpt>
      <trkpt lat="47.18699" lon="4.7246">
        <ele>338.79998779297</ele>
        <time>2023-06-17T06:50:14.000Z</time>
      </trkpt>
      <trkpt lat="47.18715" lon="4.72441">
        <ele>337.79998779297</ele>
        <time>2023-06-17T06:50:16.000Z</time>
      </trkpt>
      <trkpt lat="47.18729" lon="4.72426">
        <ele>336.60000610352</ele>
        <time>2023-06-17T06:50:18.000Z</time>
      </trkpt>
      <trkpt lat="47.18754" lon="4.72399">
        <ele>334.79998779297</ele>
        <time>2023-06-17T06:50:21.000Z</time>
      </trkpt>
      <trkpt lat="47.18761" lon="4.72389">
        <ele>334.39999389648</ele>
        <time>2023-06-17T06:50:22.000Z</time>
      </trkpt>
      <trkpt lat="47.18774" lon="4.72368">
        <ele>333.79998779297</ele>
        <time>2023-06-17T06:50:24.000Z</time>
      </trkpt>
      <trkpt lat="47.18792" lon="4.72333">
        <ele>332.60000610352</ele>
        <time>2023-06-17T06:50:27.000Z</time>
      </trkpt>
      <trkpt lat="47.18802" lon="4.72308">
        <ele>331.39999389648</ele>
        <time>2023-06-17T06:50:29.000Z</time>
      </trkpt>
      <trkpt lat="47.18816" lon="4.72268">
        <ele>330.60000610352</ele>
        <time>2023-06-17T06:50:32.000Z</time>
      </trkpt>
      <trkpt lat="47.1882" lon="4.72255">
        <ele>330</ele>
        <time>2023-06-17T06:50:33.000Z</time>
      </trkpt>
      <trkpt lat="47.18824" lon="4.72241">
        <ele>329</ele>
        <time>2023-06-17T06:50:34.000Z</time>
      </trkpt>
      <trkpt lat="47.18833" lon="4.72214">
        <ele>327.79998779297</ele>
        <time>2023-06-17T06:50:36.000Z</time>
      </trkpt>
      <trkpt lat="47.18846" lon="4.72174">
        <ele>326.60000610352</ele>
        <time>2023-06-17T06:50:39.000Z</time>
      </trkpt>
      <trkpt lat="47.18854" lon="4.72147">
        <ele>325.39999389648</ele>
        <time>2023-06-17T06:50:41.000Z</time>
      </trkpt>
      <trkpt lat="47.18862" lon="4.7212">
        <ele>324</ele>
        <time>2023-06-17T06:50:43.000Z</time>
      </trkpt>
      <trkpt lat="47.18866" lon="4.72106">
        <ele>323.79998779297</ele>
        <time>2023-06-17T06:50:44.000Z</time>
      </trkpt>
      <trkpt lat="47.18874" lon="4.72064">
        <ele>322.79998779297</ele>
        <time>2023-06-17T06:50:47.000Z</time>
      </trkpt>
      <trkpt lat="47.1888" lon="4.72022">
        <ele>321.20001220703</ele>
        <time>2023-06-17T06:50:50.000Z</time>
      </trkpt>
      <trkpt lat="47.18882" lon="4.72009">
        <ele>321</ele>
        <time>2023-06-17T06:50:51.000Z</time>
      </trkpt>
      <trkpt lat="47.18879" lon="4.71985">
        <ele>319.79998779297</ele>
        <time>2023-06-17T06:50:53.000Z</time>
      </trkpt>
      <trkpt lat="47.18872" lon="4.71956">
        <ele>318.60000610352</ele>
        <time>2023-06-17T06:50:56.000Z</time>
      </trkpt>
      <trkpt lat="47.18868" lon="4.71939">
        <ele>317.60000610352</ele>
        <time>2023-06-17T06:50:58.000Z</time>
      </trkpt>
      <trkpt lat="47.18868" lon="4.71932">
        <ele>317</ele>
        <time>2023-06-17T06:50:59.000Z</time>
      </trkpt>
      <trkpt lat="47.18869" lon="4.71925">
        <ele>316.60000610352</ele>
        <time>2023-06-17T06:51:00.000Z</time>
      </trkpt>
      <trkpt lat="47.18877" lon="4.7192">
        <ele>316</ele>
        <time>2023-06-17T06:51:02.000Z</time>
      </trkpt>
      <trkpt lat="47.18881" lon="4.71921">
        <ele>315.79998779297</ele>
        <time>2023-06-17T06:51:03.000Z</time>
      </trkpt>
      <trkpt lat="47.18897" lon="4.71926">
        <ele>315.20001220703</ele>
        <time>2023-06-17T06:51:06.000Z</time>
      </trkpt>
      <trkpt lat="47.18903" lon="4.71928">
        <ele>315.20001220703</ele>
        <time>2023-06-17T06:51:07.000Z</time>
      </trkpt>
      <trkpt lat="47.18921" lon="4.71932">
        <ele>315</ele>
        <time>2023-06-17T06:51:10.000Z</time>
      </trkpt>
      <trkpt lat="47.18976" lon="4.71943">
        <ele>315.39999389648</ele>
        <time>2023-06-17T06:51:19.000Z</time>
      </trkpt>
      <trkpt lat="47.18982" lon="4.71944">
        <ele>315.39999389648</ele>
        <time>2023-06-17T06:51:20.000Z</time>
      </trkpt>
      <trkpt lat="47.19037" lon="4.71949">
        <ele>316.20001220703</ele>
        <time>2023-06-17T06:51:29.000Z</time>
      </trkpt>
      <trkpt lat="47.19049" lon="4.7195">
        <ele>316.60000610352</ele>
        <time>2023-06-17T06:51:31.000Z</time>
      </trkpt>
      <trkpt lat="47.19061" lon="4.7195">
        <ele>317</ele>
        <time>2023-06-17T06:51:33.000Z</time>
      </trkpt>
      <trkpt lat="47.19078" lon="4.71951">
        <ele>317.60000610352</ele>
        <time>2023-06-17T06:51:36.000Z</time>
      </trkpt>
      <trkpt lat="47.19102" lon="4.71953">
        <ele>318.60000610352</ele>
        <time>2023-06-17T06:51:40.000Z</time>
      </trkpt>
      <trkpt lat="47.19114" lon="4.71954">
        <ele>319</ele>
        <time>2023-06-17T06:51:42.000Z</time>
      </trkpt>
      <trkpt lat="47.19133" lon="4.71958">
        <ele>319.60000610352</ele>
        <time>2023-06-17T06:51:45.000Z</time>
      </trkpt>
      <trkpt lat="47.19159" lon="4.71968">
        <ele>319.79998779297</ele>
        <time>2023-06-17T06:51:49.000Z</time>
      </trkpt>
      <trkpt lat="47.19199" lon="4.71995">
        <ele>319.39999389648</ele>
        <time>2023-06-17T06:51:55.000Z</time>
      </trkpt>
      <trkpt lat="47.19242" lon="4.72039">
        <ele>318.79998779297</ele>
        <time>2023-06-17T06:52:02.000Z</time>
      </trkpt>
      <trkpt lat="47.19248" lon="4.72045">
        <ele>318.60000610352</ele>
        <time>2023-06-17T06:52:03.000Z</time>
      </trkpt>
      <trkpt lat="47.19289" lon="4.72091">
        <ele>318</ele>
        <time>2023-06-17T06:52:10.000Z</time>
      </trkpt>
      <trkpt lat="47.19335" lon="4.72144">
        <ele>317.39999389648</ele>
        <time>2023-06-17T06:52:18.000Z</time>
      </trkpt>
      <trkpt lat="47.19362" lon="4.72179">
        <ele>317.39999389648</ele>
        <time>2023-06-17T06:52:23.000Z</time>
      </trkpt>
      <trkpt lat="47.19404" lon="4.72231">
        <ele>317.79998779297</ele>
        <time>2023-06-17T06:52:31.000Z</time>
      </trkpt>
      <trkpt lat="47.1942" lon="4.72248">
        <ele>318</ele>
        <time>2023-06-17T06:52:34.000Z</time>
      </trkpt>
      <trkpt lat="47.19442" lon="4.72269">
        <ele>318.60000610352</ele>
        <time>2023-06-17T06:52:38.000Z</time>
      </trkpt>
      <trkpt lat="47.19465" lon="4.72286">
        <ele>319</ele>
        <time>2023-06-17T06:52:42.000Z</time>
      </trkpt>
      <trkpt lat="47.19511" lon="4.72316">
        <ele>319.60000610352</ele>
        <time>2023-06-17T06:52:50.000Z</time>
      </trkpt>
      <trkpt lat="47.19523" lon="4.72323">
        <ele>319.79998779297</ele>
        <time>2023-06-17T06:52:52.000Z</time>
      </trkpt>
      <trkpt lat="47.19575" lon="4.7235">
        <ele>320.39999389648</ele>
        <time>2023-06-17T06:53:00.000Z</time>
      </trkpt>
      <trkpt lat="47.19601" lon="4.72364">
        <ele>320.39999389648</ele>
        <time>2023-06-17T06:53:04.000Z</time>
      </trkpt>
      <trkpt lat="47.19656" lon="4.72403">
        <ele>319.39999389648</ele>
        <time>2023-06-17T06:53:12.000Z</time>
      </trkpt>
      <trkpt lat="47.19662" lon="4.72409">
        <ele>319.20001220703</ele>
        <time>2023-06-17T06:53:13.000Z</time>
      </trkpt>
      <trkpt lat="47.19697" lon="4.72439">
        <ele>318.79998779297</ele>
        <time>2023-06-17T06:53:18.000Z</time>
      </trkpt>
      <trkpt lat="47.1973" lon="4.72471">
        <ele>318.20001220703</ele>
        <time>2023-06-17T06:53:23.000Z</time>
      </trkpt>
      <trkpt lat="47.1977" lon="4.72517">
        <ele>318</ele>
        <time>2023-06-17T06:53:30.000Z</time>
      </trkpt>
      <trkpt lat="47.198" lon="4.72566">
        <ele>318.79998779297</ele>
        <time>2023-06-17T06:53:37.000Z</time>
      </trkpt>
      <trkpt lat="47.19819" lon="4.72596">
        <ele>319.79998779297</ele>
        <time>2023-06-17T06:53:42.000Z</time>
      </trkpt>
      <trkpt lat="47.19828" lon="4.7261">
        <ele>320.20001220703</ele>
        <time>2023-06-17T06:53:44.000Z</time>
      </trkpt>
      <trkpt lat="47.19838" lon="4.72626">
        <ele>320.79998779297</ele>
        <time>2023-06-17T06:53:47.000Z</time>
      </trkpt>
      <trkpt lat="47.19847" lon="4.72637">
        <ele>321</ele>
        <time>2023-06-17T06:53:49.000Z</time>
      </trkpt>
      <trkpt lat="47.1986" lon="4.72651">
        <ele>322</ele>
        <time>2023-06-17T06:53:52.000Z</time>
      </trkpt>
      <trkpt lat="47.19878" lon="4.72662">
        <ele>322.60000610352</ele>
        <time>2023-06-17T06:53:55.000Z</time>
      </trkpt>
      <trkpt lat="47.19884" lon="4.72664">
        <ele>322.79998779297</ele>
        <time>2023-06-17T06:53:56.000Z</time>
      </trkpt>
      <trkpt lat="47.19917" lon="4.7267">
        <ele>323</ele>
        <time>2023-06-17T06:54:01.000Z</time>
      </trkpt>
      <trkpt lat="47.19959" lon="4.72663">
        <ele>322.60000610352</ele>
        <time>2023-06-17T06:54:06.000Z</time>
      </trkpt>
      <trkpt lat="47.20004" lon="4.7265">
        <ele>321.20001220703</ele>
        <time>2023-06-17T06:54:11.000Z</time>
      </trkpt>
      <trkpt lat="47.20014" lon="4.72647">
        <ele>320.79998779297</ele>
        <time>2023-06-17T06:54:12.000Z</time>
      </trkpt>
      <trkpt lat="47.20043" lon="4.72641">
        <ele>319.20001220703</ele>
        <time>2023-06-17T06:54:15.000Z</time>
      </trkpt>
      <trkpt lat="47.2006" lon="4.7264">
        <ele>318.60000610352</ele>
        <time>2023-06-17T06:54:17.000Z</time>
      </trkpt>
      <trkpt lat="47.2007" lon="4.72641">
        <ele>318</ele>
        <time>2023-06-17T06:54:18.000Z</time>
      </trkpt>
      <trkpt lat="47.20097" lon="4.72644">
        <ele>316.79998779297</ele>
        <time>2023-06-17T06:54:21.000Z</time>
      </trkpt>
      <trkpt lat="47.20114" lon="4.72647">
        <ele>316.20001220703</ele>
        <time>2023-06-17T06:54:23.000Z</time>
      </trkpt>
      <trkpt lat="47.20165" lon="4.72655">
        <ele>315.79998779297</ele>
        <time>2023-06-17T06:54:29.000Z</time>
      </trkpt>
      <trkpt lat="47.20173" lon="4.72654">
        <ele>315.79998779297</ele>
        <time>2023-06-17T06:54:30.000Z</time>
      </trkpt>
      <trkpt lat="47.20226" lon="4.72643">
        <ele>315.60000610352</ele>
        <time>2023-06-17T06:54:37.000Z</time>
      </trkpt>
      <trkpt lat="47.20264" lon="4.72639">
        <ele>315.79998779297</ele>
        <time>2023-06-17T06:54:42.000Z</time>
      </trkpt>
      <trkpt lat="47.20318" lon="4.72648">
        <ele>315.79998779297</ele>
        <time>2023-06-17T06:54:49.000Z</time>
      </trkpt>
      <trkpt lat="47.20326" lon="4.72651">
        <ele>316</ele>
        <time>2023-06-17T06:54:50.000Z</time>
      </trkpt>
      <trkpt lat="47.20373" lon="4.72681">
        <ele>315.79998779297</ele>
        <time>2023-06-17T06:54:57.000Z</time>
      </trkpt>
      <trkpt lat="47.20414" lon="4.72727">
        <ele>316.60000610352</ele>
        <time>2023-06-17T06:55:04.000Z</time>
      </trkpt>
      <trkpt lat="47.20435" lon="4.72751">
        <ele>317</ele>
        <time>2023-06-17T06:55:08.000Z</time>
      </trkpt>
      <trkpt lat="47.2046" lon="4.72772">
        <ele>317.60000610352</ele>
        <time>2023-06-17T06:55:12.000Z</time>
      </trkpt>
      <trkpt lat="47.20478" lon="4.72784">
        <ele>318.20001220703</ele>
        <time>2023-06-17T06:55:15.000Z</time>
      </trkpt>
      <trkpt lat="47.20514" lon="4.72808">
        <ele>319</ele>
        <time>2023-06-17T06:55:21.000Z</time>
      </trkpt>
      <trkpt lat="47.20525" lon="4.72817">
        <ele>319.39999389648</ele>
        <time>2023-06-17T06:55:23.000Z</time>
      </trkpt>
      <trkpt lat="47.20554" lon="4.72848">
        <ele>320</ele>
        <time>2023-06-17T06:55:28.000Z</time>
      </trkpt>
      <trkpt lat="47.20572" lon="4.72867">
        <ele>320.39999389648</ele>
        <time>2023-06-17T06:55:31.000Z</time>
      </trkpt>
      <trkpt lat="47.2059" lon="4.72884">
        <ele>320.39999389648</ele>
        <time>2023-06-17T06:55:34.000Z</time>
      </trkpt>
      <trkpt lat="47.20644" lon="4.7292">
        <ele>320.39999389648</ele>
        <time>2023-06-17T06:55:42.000Z</time>
      </trkpt>
      <trkpt lat="47.20687" lon="4.72941">
        <ele>320.20001220703</ele>
        <time>2023-06-17T06:55:48.000Z</time>
      </trkpt>
      <trkpt lat="47.20736" lon="4.72961">
        <ele>320.20001220703</ele>
        <time>2023-06-17T06:55:55.000Z</time>
      </trkpt>
      <trkpt lat="47.20788" lon="4.72971">
        <ele>320.39999389648</ele>
        <time>2023-06-17T06:56:02.000Z</time>
      </trkpt>
      <trkpt lat="47.20843" lon="4.72971">
        <ele>320.39999389648</ele>
        <time>2023-06-17T06:56:09.000Z</time>
      </trkpt>
      <trkpt lat="47.20851" lon="4.72971">
        <ele>320.39999389648</ele>
        <time>2023-06-17T06:56:10.000Z</time>
      </trkpt>
      <trkpt lat="47.20876" lon="4.72969">
        <ele>320.20001220703</ele>
        <time>2023-06-17T06:56:13.000Z</time>
      </trkpt>
      <trkpt lat="47.20893" lon="4.72967">
        <ele>319.60000610352</ele>
        <time>2023-06-17T06:56:15.000Z</time>
      </trkpt>
      <trkpt lat="47.20901" lon="4.72965">
        <ele>319.20001220703</ele>
        <time>2023-06-17T06:56:16.000Z</time>
      </trkpt>
      <trkpt lat="47.2091" lon="4.72963">
        <ele>318.79998779297</ele>
        <time>2023-06-17T06:56:17.000Z</time>
      </trkpt>
      <trkpt lat="47.20927" lon="4.72956">
        <ele>317.79998779297</ele>
        <time>2023-06-17T06:56:19.000Z</time>
      </trkpt>
      <trkpt lat="47.20936" lon="4.72951">
        <ele>317.39999389648</ele>
        <time>2023-06-17T06:56:20.000Z</time>
      </trkpt>
      <trkpt lat="47.20954" lon="4.72939">
        <ele>316.39999389648</ele>
        <time>2023-06-17T06:56:22.000Z</time>
      </trkpt>
      <trkpt lat="47.20962" lon="4.72932">
        <ele>316.20001220703</ele>
        <time>2023-06-17T06:56:23.000Z</time>
      </trkpt>
      <trkpt lat="47.20969" lon="4.72925">
        <ele>315.60000610352</ele>
        <time>2023-06-17T06:56:24.000Z</time>
      </trkpt>
      <trkpt lat="47.20984" lon="4.72908">
        <ele>315.20001220703</ele>
        <time>2023-06-17T06:56:26.000Z</time>
      </trkpt>
      <trkpt lat="47.20999" lon="4.72892">
        <ele>314.39999389648</ele>
        <time>2023-06-17T06:56:28.000Z</time>
      </trkpt>
      <trkpt lat="47.21006" lon="4.72884">
        <ele>314</ele>
        <time>2023-06-17T06:56:29.000Z</time>
      </trkpt>
      <trkpt lat="47.21041" lon="4.72841">
        <ele>312.79998779297</ele>
        <time>2023-06-17T06:56:34.000Z</time>
      </trkpt>
      <trkpt lat="47.21048" lon="4.72831">
        <ele>312.60000610352</ele>
        <time>2023-06-17T06:56:35.000Z</time>
      </trkpt>
      <trkpt lat="47.21067" lon="4.72802">
        <ele>311.60000610352</ele>
        <time>2023-06-17T06:56:38.000Z</time>
      </trkpt>
      <trkpt lat="47.21083" lon="4.72773">
        <ele>310.60000610352</ele>
        <time>2023-06-17T06:56:41.000Z</time>
      </trkpt>
      <trkpt lat="47.21088" lon="4.72763">
        <ele>310.39999389648</ele>
        <time>2023-06-17T06:56:42.000Z</time>
      </trkpt>
      <trkpt lat="47.21107" lon="4.72718">
        <ele>309.60000610352</ele>
        <time>2023-06-17T06:56:47.000Z</time>
      </trkpt>
      <trkpt lat="47.21117" lon="4.72692">
        <ele>309.39999389648</ele>
        <time>2023-06-17T06:56:50.000Z</time>
      </trkpt>
      <trkpt lat="47.21127" lon="4.72659">
        <ele>309.39999389648</ele>
        <time>2023-06-17T06:56:54.000Z</time>
      </trkpt>
      <trkpt lat="47.21138" lon="4.72617">
        <ele>310</ele>
        <time>2023-06-17T06:57:00.000Z</time>
      </trkpt>
      <trkpt lat="47.21146" lon="4.72594">
        <ele>310.39999389648</ele>
        <time>2023-06-17T06:57:04.000Z</time>
      </trkpt>
      <trkpt lat="47.21148" lon="4.72589">
        <ele>310.60000610352</ele>
        <time>2023-06-17T06:57:05.000Z</time>
      </trkpt>
      <trkpt lat="47.21158" lon="4.72566">
        <ele>311.60000610352</ele>
        <time>2023-06-17T06:57:10.000Z</time>
      </trkpt>
      <trkpt lat="47.2116" lon="4.7256">
        <ele>311.60000610352</ele>
        <time>2023-06-17T06:57:11.000Z</time>
      </trkpt>
      <trkpt lat="47.21166" lon="4.72544">
        <ele>312.39999389648</ele>
        <time>2023-06-17T06:57:14.000Z</time>
      </trkpt>
      <trkpt lat="47.21174" lon="4.72528">
        <ele>313</ele>
        <time>2023-06-17T06:57:17.000Z</time>
      </trkpt>
      <trkpt lat="47.212" lon="4.72491">
        <ele>313</ele>
        <time>2023-06-17T06:57:24.000Z</time>
      </trkpt>
      <trkpt lat="47.21207" lon="4.72488">
        <ele>312.60000610352</ele>
        <time>2023-06-17T06:57:27.000Z</time>
      </trkpt>
      <trkpt lat="47.21211" lon="4.72487">
        <ele>312.20001220703</ele>
        <time>2023-06-17T06:57:30.000Z</time>
      </trkpt>
      <trkpt lat="47.21212" lon="4.72486">
        <ele>311.79998779297</ele>
        <time>2023-06-17T06:57:31.000Z</time>
      </trkpt>
      <trkpt lat="47.21216" lon="4.72484">
        <ele>311.39999389648</ele>
        <time>2023-06-17T06:57:33.000Z</time>
      </trkpt>
      <trkpt lat="47.21217" lon="4.72485">
        <ele>311</ele>
        <time>2023-06-17T06:57:38.000Z</time>
      </trkpt>
      <trkpt lat="47.2122" lon="4.72482">
        <ele>310.20001220703</ele>
        <time>2023-06-17T06:59:20.000Z</time>
      </trkpt>
      <trkpt lat="47.21226" lon="4.72477">
        <ele>310</ele>
        <time>2023-06-17T06:59:22.000Z</time>
      </trkpt>
      <trkpt lat="47.2123" lon="4.72473">
        <ele>310</ele>
        <time>2023-06-17T06:59:23.000Z</time>
      </trkpt>
      <trkpt lat="47.21241" lon="4.72466">
        <ele>310</ele>
        <time>2023-06-17T06:59:25.000Z</time>
      </trkpt>
      <trkpt lat="47.21279" lon="4.72447">
        <ele>309.60000610352</ele>
        <time>2023-06-17T06:59:31.000Z</time>
      </trkpt>
      <trkpt lat="47.21294" lon="4.72443">
        <ele>309</ele>
        <time>2023-06-17T06:59:33.000Z</time>
      </trkpt>
      <trkpt lat="47.21318" lon="4.72439">
        <ele>308.20001220703</ele>
        <time>2023-06-17T06:59:36.000Z</time>
      </trkpt>
      <trkpt lat="47.21325" lon="4.72436">
        <ele>308</ele>
        <time>2023-06-17T06:59:37.000Z</time>
      </trkpt>
      <trkpt lat="47.21348" lon="4.72427">
        <ele>307</ele>
        <time>2023-06-17T06:59:40.000Z</time>
      </trkpt>
      <trkpt lat="47.21355" lon="4.72422">
        <ele>306.60000610352</ele>
        <time>2023-06-17T06:59:41.000Z</time>
      </trkpt>
      <trkpt lat="47.21376" lon="4.72398">
        <ele>305.79998779297</ele>
        <time>2023-06-17T06:59:45.000Z</time>
      </trkpt>
      <trkpt lat="47.21419" lon="4.72356">
        <ele>304.79998779297</ele>
        <time>2023-06-17T06:59:52.000Z</time>
      </trkpt>
      <trkpt lat="47.21425" lon="4.72352">
        <ele>304.60000610352</ele>
        <time>2023-06-17T06:59:53.000Z</time>
      </trkpt>
      <trkpt lat="47.21442" lon="4.72344">
        <ele>304.20001220703</ele>
        <time>2023-06-17T06:59:55.000Z</time>
      </trkpt>
      <trkpt lat="47.2145" lon="4.72343">
        <ele>304.20001220703</ele>
        <time>2023-06-17T06:59:56.000Z</time>
      </trkpt>
      <trkpt lat="47.21458" lon="4.72343">
        <ele>303.79998779297</ele>
        <time>2023-06-17T06:59:57.000Z</time>
      </trkpt>
      <trkpt lat="47.21467" lon="4.72345">
        <ele>303.39999389648</ele>
        <time>2023-06-17T06:59:58.000Z</time>
      </trkpt>
      <trkpt lat="47.21473" lon="4.72348">
        <ele>303.20001220703</ele>
        <time>2023-06-17T06:59:59.000Z</time>
      </trkpt>
      <trkpt lat="47.21482" lon="4.72354">
        <ele>303.20001220703</ele>
        <time>2023-06-17T07:00:00.000Z</time>
      </trkpt>
      <trkpt lat="47.21496" lon="4.72365">
        <ele>302.60000610352</ele>
        <time>2023-06-17T07:00:02.000Z</time>
      </trkpt>
      <trkpt lat="47.21502" lon="4.72371">
        <ele>302.39999389648</ele>
        <time>2023-06-17T07:00:03.000Z</time>
      </trkpt>
      <trkpt lat="47.21529" lon="4.72395">
        <ele>301.39999389648</ele>
        <time>2023-06-17T07:00:07.000Z</time>
      </trkpt>
      <trkpt lat="47.21561" lon="4.72424">
        <ele>301.20001220703</ele>
        <time>2023-06-17T07:00:12.000Z</time>
      </trkpt>
      <trkpt lat="47.21571" lon="4.72432">
        <ele>301</ele>
        <time>2023-06-17T07:00:14.000Z</time>
      </trkpt>
      <trkpt lat="47.21584" lon="4.72431">
        <ele>300.79998779297</ele>
        <time>2023-06-17T07:00:16.000Z</time>
      </trkpt>
      <trkpt lat="47.21602" lon="4.72414">
        <ele>300.79998779297</ele>
        <time>2023-06-17T07:00:20.000Z</time>
      </trkpt>
      <trkpt lat="47.21607" lon="4.72411">
        <ele>301</ele>
        <time>2023-06-17T07:00:21.000Z</time>
      </trkpt>
      <trkpt lat="47.21616" lon="4.72407">
        <ele>301.20001220703</ele>
        <time>2023-06-17T07:00:23.000Z</time>
      </trkpt>
      <trkpt lat="47.21627" lon="4.72404">
        <ele>301.60000610352</ele>
        <time>2023-06-17T07:00:25.000Z</time>
      </trkpt>
      <trkpt lat="47.21631" lon="4.724">
        <ele>302</ele>
        <time>2023-06-17T07:00:26.000Z</time>
      </trkpt>
      <trkpt lat="47.21636" lon="4.72395">
        <ele>302.20001220703</ele>
        <time>2023-06-17T07:00:27.000Z</time>
      </trkpt>
      <trkpt lat="47.21644" lon="4.72384">
        <ele>302.60000610352</ele>
        <time>2023-06-17T07:00:29.000Z</time>
      </trkpt>
      <trkpt lat="47.21646" lon="4.72378">
        <ele>302.79998779297</ele>
        <time>2023-06-17T07:00:30.000Z</time>
      </trkpt>
      <trkpt lat="47.21667" lon="4.72327">
        <ele>303.79998779297</ele>
        <time>2023-06-17T07:00:37.000Z</time>
      </trkpt>
      <trkpt lat="47.21681" lon="4.72282">
        <ele>304.79998779297</ele>
        <time>2023-06-17T07:00:43.000Z</time>
      </trkpt>
      <trkpt lat="47.21684" lon="4.72266">
        <ele>305</ele>
        <time>2023-06-17T07:00:45.000Z</time>
      </trkpt>
      <trkpt lat="47.21693" lon="4.72206">
        <ele>305.39999389648</ele>
        <time>2023-06-17T07:00:52.000Z</time>
      </trkpt>
      <trkpt lat="47.21698" lon="4.72155">
        <ele>305.79998779297</ele>
        <time>2023-06-17T07:00:58.000Z</time>
      </trkpt>
      <trkpt lat="47.21703" lon="4.7213">
        <ele>306</ele>
        <time>2023-06-17T07:01:01.000Z</time>
      </trkpt>
      <trkpt lat="47.21712" lon="4.72081">
        <ele>306.39999389648</ele>
        <time>2023-06-17T07:01:07.000Z</time>
      </trkpt>
      <trkpt lat="47.21719" lon="4.72041">
        <ele>306.79998779297</ele>
        <time>2023-06-17T07:01:12.000Z</time>
      </trkpt>
      <trkpt lat="47.21725" lon="4.72009">
        <ele>307.20001220703</ele>
        <time>2023-06-17T07:01:16.000Z</time>
      </trkpt>
      <trkpt lat="47.21723" lon="4.71948">
        <ele>307.60000610352</ele>
        <time>2023-06-17T07:01:23.000Z</time>
      </trkpt>
      <trkpt lat="47.21721" lon="4.71939">
        <ele>307.60000610352</ele>
        <time>2023-06-17T07:01:24.000Z</time>
      </trkpt>
      <trkpt lat="47.21716" lon="4.71904">
        <ele>307.39999389648</ele>
        <time>2023-06-17T07:01:28.000Z</time>
      </trkpt>
      <trkpt lat="47.21715" lon="4.71896">
        <ele>307.20001220703</ele>
        <time>2023-06-17T07:01:29.000Z</time>
      </trkpt>
      <trkpt lat="47.21713" lon="4.71851">
        <ele>307.39999389648</ele>
        <time>2023-06-17T07:01:34.000Z</time>
      </trkpt>
      <trkpt lat="47.21713" lon="4.71791">
        <ele>307.60000610352</ele>
        <time>2023-06-17T07:01:41.000Z</time>
      </trkpt>
      <trkpt lat="47.21713" lon="4.71784">
        <ele>307.60000610352</ele>
        <time>2023-06-17T07:01:42.000Z</time>
      </trkpt>
      <trkpt lat="47.21714" lon="4.71778">
        <ele>307.39999389648</ele>
        <time>2023-06-17T07:01:43.000Z</time>
      </trkpt>
      <trkpt lat="47.21719" lon="4.71767">
        <ele>307.60000610352</ele>
        <time>2023-06-17T07:01:45.000Z</time>
      </trkpt>
      <trkpt lat="47.21721" lon="4.71759">
        <ele>307.60000610352</ele>
        <time>2023-06-17T07:01:46.000Z</time>
      </trkpt>
      <trkpt lat="47.21724" lon="4.71748">
        <ele>308</ele>
        <time>2023-06-17T07:01:48.000Z</time>
      </trkpt>
      <trkpt lat="47.21727" lon="4.71744">
        <ele>308</ele>
        <time>2023-06-17T07:01:49.000Z</time>
      </trkpt>
      <trkpt lat="47.21738" lon="4.71721">
        <ele>309</ele>
        <time>2023-06-17T07:01:54.000Z</time>
      </trkpt>
      <trkpt lat="47.2174" lon="4.71717">
        <ele>309.20001220703</ele>
        <time>2023-06-17T07:01:55.000Z</time>
      </trkpt>
      <trkpt lat="47.21746" lon="4.71704">
        <ele>310.39999389648</ele>
        <time>2023-06-17T07:01:58.000Z</time>
      </trkpt>
      <trkpt lat="47.21755" lon="4.71684">
        <ele>311.79998779297</ele>
        <time>2023-06-17T07:02:02.000Z</time>
      </trkpt>
      <trkpt lat="47.21762" lon="4.71667">
        <ele>312.79998779297</ele>
        <time>2023-06-17T07:02:05.000Z</time>
      </trkpt>
      <trkpt lat="47.21771" lon="4.71649">
        <ele>313.39999389648</ele>
        <time>2023-06-17T07:02:08.000Z</time>
      </trkpt>
      <trkpt lat="47.21774" lon="4.71643">
        <ele>313.39999389648</ele>
        <time>2023-06-17T07:02:09.000Z</time>
      </trkpt>
      <trkpt lat="47.21786" lon="4.71619">
        <ele>314</ele>
        <time>2023-06-17T07:02:13.000Z</time>
      </trkpt>
      <trkpt lat="47.21795" lon="4.71598">
        <ele>314.20001220703</ele>
        <time>2023-06-17T07:02:16.000Z</time>
      </trkpt>
      <trkpt lat="47.2181" lon="4.71541">
        <ele>314.60000610352</ele>
        <time>2023-06-17T07:02:23.000Z</time>
      </trkpt>
      <trkpt lat="47.21826" lon="4.71477">
        <ele>314.60000610352</ele>
        <time>2023-06-17T07:02:30.000Z</time>
      </trkpt>
      <trkpt lat="47.21846" lon="4.71404">
        <ele>314.20001220703</ele>
        <time>2023-06-17T07:02:38.000Z</time>
      </trkpt>
      <trkpt lat="47.21865" lon="4.71329">
        <ele>314</ele>
        <time>2023-06-17T07:02:46.000Z</time>
      </trkpt>
      <trkpt lat="47.21871" lon="4.713">
        <ele>314</ele>
        <time>2023-06-17T07:02:49.000Z</time>
      </trkpt>
      <trkpt lat="47.21887" lon="4.71226">
        <ele>314.60000610352</ele>
        <time>2023-06-17T07:02:57.000Z</time>
      </trkpt>
      <trkpt lat="47.21894" lon="4.7116">
        <ele>314.79998779297</ele>
        <time>2023-06-17T07:03:04.000Z</time>
      </trkpt>
      <trkpt lat="47.21894" lon="4.7115">
        <ele>314.79998779297</ele>
        <time>2023-06-17T07:03:05.000Z</time>
      </trkpt>
      <trkpt lat="47.21891" lon="4.71084">
        <ele>315.20001220703</ele>
        <time>2023-06-17T07:03:12.000Z</time>
      </trkpt>
      <trkpt lat="47.2189" lon="4.71075">
        <ele>315.20001220703</ele>
        <time>2023-06-17T07:03:13.000Z</time>
      </trkpt>
      <trkpt lat="47.21889" lon="4.71046">
        <ele>315.39999389648</ele>
        <time>2023-06-17T07:03:16.000Z</time>
      </trkpt>
      <trkpt lat="47.21886" lon="4.71">
        <ele>315.79998779297</ele>
        <time>2023-06-17T07:03:21.000Z</time>
      </trkpt>
      <trkpt lat="47.21885" lon="4.70983">
        <ele>316</ele>
        <time>2023-06-17T07:03:23.000Z</time>
      </trkpt>
      <trkpt lat="47.21884" lon="4.70974">
        <ele>316.20001220703</ele>
        <time>2023-06-17T07:03:24.000Z</time>
      </trkpt>
      <trkpt lat="47.2188" lon="4.70947">
        <ele>316.20001220703</ele>
        <time>2023-06-17T07:03:27.000Z</time>
      </trkpt>
      <trkpt lat="47.21872" lon="4.70932">
        <ele>316.39999389648</ele>
        <time>2023-06-17T07:03:29.000Z</time>
      </trkpt>
      <trkpt lat="47.21847" lon="4.70901">
        <ele>316.39999389648</ele>
        <time>2023-06-17T07:03:34.000Z</time>
      </trkpt>
      <trkpt lat="47.21824" lon="4.70879">
        <ele>316.79998779297</ele>
        <time>2023-06-17T07:03:39.000Z</time>
      </trkpt>
      <trkpt lat="47.21797" lon="4.7085">
        <ele>317.60000610352</ele>
        <time>2023-06-17T07:03:45.000Z</time>
      </trkpt>
      <trkpt lat="47.21792" lon="4.70845">
        <ele>317.79998779297</ele>
        <time>2023-06-17T07:03:46.000Z</time>
      </trkpt>
      <trkpt lat="47.21758" lon="4.70807">
        <ele>318.39999389648</ele>
        <time>2023-06-17T07:03:53.000Z</time>
      </trkpt>
      <trkpt lat="47.2173" lon="4.70776">
        <ele>319</ele>
        <time>2023-06-17T07:03:59.000Z</time>
      </trkpt>
      <trkpt lat="47.21711" lon="4.70757">
        <ele>319.20001220703</ele>
        <time>2023-06-17T07:04:03.000Z</time>
      </trkpt>
      <trkpt lat="47.21671" lon="4.70713">
        <ele>320</ele>
        <time>2023-06-17T07:04:12.000Z</time>
      </trkpt>
      <trkpt lat="47.21664" lon="4.70701">
        <ele>320.20001220703</ele>
        <time>2023-06-17T07:04:14.000Z</time>
      </trkpt>
      <trkpt lat="47.21656" lon="4.70681">
        <ele>320.60000610352</ele>
        <time>2023-06-17T07:04:17.000Z</time>
      </trkpt>
      <trkpt lat="47.21653" lon="4.70667">
        <ele>320.79998779297</ele>
        <time>2023-06-17T07:04:19.000Z</time>
      </trkpt>
      <trkpt lat="47.21652" lon="4.70654">
        <ele>321.39999389648</ele>
        <time>2023-06-17T07:04:21.000Z</time>
      </trkpt>
      <trkpt lat="47.21651" lon="4.70648">
        <ele>321.79998779297</ele>
        <time>2023-06-17T07:04:22.000Z</time>
      </trkpt>
      <trkpt lat="47.21649" lon="4.70624">
        <ele>322.79998779297</ele>
        <time>2023-06-17T07:04:26.000Z</time>
      </trkpt>
      <trkpt lat="47.21645" lon="4.70604">
        <ele>323.60000610352</ele>
        <time>2023-06-17T07:04:29.000Z</time>
      </trkpt>
      <trkpt lat="47.21643" lon="4.70597">
        <ele>323.79998779297</ele>
        <time>2023-06-17T07:04:30.000Z</time>
      </trkpt>
      <trkpt lat="47.21635" lon="4.70551">
        <ele>325</ele>
        <time>2023-06-17T07:04:36.000Z</time>
      </trkpt>
      <trkpt lat="47.21632" lon="4.70514">
        <ele>326.39999389648</ele>
        <time>2023-06-17T07:04:41.000Z</time>
      </trkpt>
      <trkpt lat="47.21631" lon="4.70507">
        <ele>326.60000610352</ele>
        <time>2023-06-17T07:04:42.000Z</time>
      </trkpt>
      <trkpt lat="47.21628" lon="4.70485">
        <ele>327</ele>
        <time>2023-06-17T07:04:45.000Z</time>
      </trkpt>
      <trkpt lat="47.21625" lon="4.70462">
        <ele>327.39999389648</ele>
        <time>2023-06-17T07:04:48.000Z</time>
      </trkpt>
      <trkpt lat="47.21623" lon="4.70413">
        <ele>328</ele>
        <time>2023-06-17T07:04:54.000Z</time>
      </trkpt>
      <trkpt lat="47.21629" lon="4.70332">
        <ele>328.39999389648</ele>
        <time>2023-06-17T07:05:04.000Z</time>
      </trkpt>
      <trkpt lat="47.2163" lon="4.70326">
        <ele>328.60000610352</ele>
        <time>2023-06-17T07:05:05.000Z</time>
      </trkpt>
      <trkpt lat="47.21632" lon="4.70317">
        <ele>328.60000610352</ele>
        <time>2023-06-17T07:05:06.000Z</time>
      </trkpt>
      <trkpt lat="47.21634" lon="4.70302">
        <ele>328.79998779297</ele>
        <time>2023-06-17T07:05:08.000Z</time>
      </trkpt>
      <trkpt lat="47.21635" lon="4.70295">
        <ele>329.20001220703</ele>
        <time>2023-06-17T07:05:09.000Z</time>
      </trkpt>
      <trkpt lat="47.21637" lon="4.70283">
        <ele>329.60000610352</ele>
        <time>2023-06-17T07:05:11.000Z</time>
      </trkpt>
      <trkpt lat="47.21639" lon="4.70267">
        <ele>330</ele>
        <time>2023-06-17T07:05:13.000Z</time>
      </trkpt>
      <trkpt lat="47.2164" lon="4.70254">
        <ele>330.60000610352</ele>
        <time>2023-06-17T07:05:15.000Z</time>
      </trkpt>
      <trkpt lat="47.21643" lon="4.70207">
        <ele>331.79998779297</ele>
        <time>2023-06-17T07:05:21.000Z</time>
      </trkpt>
      <trkpt lat="47.21645" lon="4.7016">
        <ele>332.79998779297</ele>
        <time>2023-06-17T07:05:27.000Z</time>
      </trkpt>
      <trkpt lat="47.21647" lon="4.70145">
        <ele>333</ele>
        <time>2023-06-17T07:05:29.000Z</time>
      </trkpt>
      <trkpt lat="47.2165" lon="4.70106">
        <ele>334</ele>
        <time>2023-06-17T07:05:34.000Z</time>
      </trkpt>
      <trkpt lat="47.21652" lon="4.70075">
        <ele>334.79998779297</ele>
        <time>2023-06-17T07:05:38.000Z</time>
      </trkpt>
      <trkpt lat="47.21653" lon="4.70052">
        <ele>335</ele>
        <time>2023-06-17T07:05:41.000Z</time>
      </trkpt>
      <trkpt lat="47.21653" lon="4.70037">
        <ele>335.20001220703</ele>
        <time>2023-06-17T07:05:43.000Z</time>
      </trkpt>
      <trkpt lat="47.21653" lon="4.70022">
        <ele>335.39999389648</ele>
        <time>2023-06-17T07:05:45.000Z</time>
      </trkpt>
      <trkpt lat="47.21652" lon="4.69984">
        <ele>336</ele>
        <time>2023-06-17T07:05:50.000Z</time>
      </trkpt>
      <trkpt lat="47.21655" lon="4.69937">
        <ele>337</ele>
        <time>2023-06-17T07:05:56.000Z</time>
      </trkpt>
      <trkpt lat="47.21657" lon="4.69906">
        <ele>337.60000610352</ele>
        <time>2023-06-17T07:06:00.000Z</time>
      </trkpt>
      <trkpt lat="47.21659" lon="4.69875">
        <ele>338.20001220703</ele>
        <time>2023-06-17T07:06:04.000Z</time>
      </trkpt>
      <trkpt lat="47.2166" lon="4.6986">
        <ele>338.39999389648</ele>
        <time>2023-06-17T07:06:06.000Z</time>
      </trkpt>
      <trkpt lat="47.21664" lon="4.69825">
        <ele>339.20001220703</ele>
        <time>2023-06-17T07:06:11.000Z</time>
      </trkpt>
      <trkpt lat="47.21664" lon="4.69812">
        <ele>339.79998779297</ele>
        <time>2023-06-17T07:06:13.000Z</time>
      </trkpt>
      <trkpt lat="47.21665" lon="4.69805">
        <ele>340</ele>
        <time>2023-06-17T07:06:14.000Z</time>
      </trkpt>
      <trkpt lat="47.21667" lon="4.69791">
        <ele>340.39999389648</ele>
        <time>2023-06-17T07:06:16.000Z</time>
      </trkpt>
      <trkpt lat="47.2167" lon="4.6977">
        <ele>340.79998779297</ele>
        <time>2023-06-17T07:06:19.000Z</time>
      </trkpt>
      <trkpt lat="47.21677" lon="4.69739">
        <ele>341.39999389648</ele>
        <time>2023-06-17T07:06:23.000Z</time>
      </trkpt>
      <trkpt lat="47.21682" lon="4.69714">
        <ele>341.60000610352</ele>
        <time>2023-06-17T07:06:26.000Z</time>
      </trkpt>
      <trkpt lat="47.2169" lon="4.69658">
        <ele>341.60000610352</ele>
        <time>2023-06-17T07:06:32.000Z</time>
      </trkpt>
      <trkpt lat="47.21691" lon="4.69649">
        <ele>341.39999389648</ele>
        <time>2023-06-17T07:06:33.000Z</time>
      </trkpt>
      <trkpt lat="47.217" lon="4.69604">
        <ele>341.20001220703</ele>
        <time>2023-06-17T07:06:38.000Z</time>
      </trkpt>
      <trkpt lat="47.21703" lon="4.69595">
        <ele>341.20001220703</ele>
        <time>2023-06-17T07:06:39.000Z</time>
      </trkpt>
      <trkpt lat="47.21715" lon="4.69564">
        <ele>341</ele>
        <time>2023-06-17T07:06:43.000Z</time>
      </trkpt>
      <trkpt lat="47.21739" lon="4.69507">
        <ele>342.39999389648</ele>
        <time>2023-06-17T07:06:51.000Z</time>
      </trkpt>
      <trkpt lat="47.21761" lon="4.69455">
        <ele>343</ele>
        <time>2023-06-17T07:06:58.000Z</time>
      </trkpt>
      <trkpt lat="47.21783" lon="4.69395">
        <ele>342.20001220703</ele>
        <time>2023-06-17T07:07:04.000Z</time>
      </trkpt>
      <trkpt lat="47.21788" lon="4.6937">
        <ele>341</ele>
        <time>2023-06-17T07:07:06.000Z</time>
      </trkpt>
      <trkpt lat="47.21789" lon="4.69357">
        <ele>340.39999389648</ele>
        <time>2023-06-17T07:07:07.000Z</time>
      </trkpt>
      <trkpt lat="47.21789" lon="4.69344">
        <ele>340.20001220703</ele>
        <time>2023-06-17T07:07:08.000Z</time>
      </trkpt>
      <trkpt lat="47.21786" lon="4.69294">
        <ele>338.79998779297</ele>
        <time>2023-06-17T07:07:12.000Z</time>
      </trkpt>
      <trkpt lat="47.21787" lon="4.69283">
        <ele>338.39999389648</ele>
        <time>2023-06-17T07:07:13.000Z</time>
      </trkpt>
      <trkpt lat="47.21788" lon="4.6927">
        <ele>338.20001220703</ele>
        <time>2023-06-17T07:07:14.000Z</time>
      </trkpt>
      <trkpt lat="47.21796" lon="4.69236">
        <ele>337.60000610352</ele>
        <time>2023-06-17T07:07:17.000Z</time>
      </trkpt>
      <trkpt lat="47.21813" lon="4.6916">
        <ele>337.39999389648</ele>
        <time>2023-06-17T07:07:24.000Z</time>
      </trkpt>
      <trkpt lat="47.21822" lon="4.69118">
        <ele>337.20001220703</ele>
        <time>2023-06-17T07:07:28.000Z</time>
      </trkpt>
      <trkpt lat="47.21834" lon="4.69068">
        <ele>336.79998779297</ele>
        <time>2023-06-17T07:07:33.000Z</time>
      </trkpt>
      <trkpt lat="47.21843" lon="4.69031">
        <ele>337</ele>
        <time>2023-06-17T07:07:37.000Z</time>
      </trkpt>
      <trkpt lat="47.21855" lon="4.68968">
        <ele>337.79998779297</ele>
        <time>2023-06-17T07:07:44.000Z</time>
      </trkpt>
      <trkpt lat="47.21856" lon="4.68959">
        <ele>337.79998779297</ele>
        <time>2023-06-17T07:07:45.000Z</time>
      </trkpt>
      <trkpt lat="47.21857" lon="4.68951">
        <ele>338</ele>
        <time>2023-06-17T07:07:46.000Z</time>
      </trkpt>
      <trkpt lat="47.21856" lon="4.68925">
        <ele>338.39999389648</ele>
        <time>2023-06-17T07:07:49.000Z</time>
      </trkpt>
      <trkpt lat="47.21855" lon="4.68875">
        <ele>338.79998779297</ele>
        <time>2023-06-17T07:07:54.000Z</time>
      </trkpt>
      <trkpt lat="47.21852" lon="4.68866">
        <ele>338.79998779297</ele>
        <time>2023-06-17T07:07:55.000Z</time>
      </trkpt>
      <trkpt lat="47.21848" lon="4.68858">
        <ele>338.79998779297</ele>
        <time>2023-06-17T07:07:56.000Z</time>
      </trkpt>
      <trkpt lat="47.21838" lon="4.68847">
        <ele>338.60000610352</ele>
        <time>2023-06-17T07:07:58.000Z</time>
      </trkpt>
      <trkpt lat="47.21827" lon="4.68841">
        <ele>338.39999389648</ele>
        <time>2023-06-17T07:08:00.000Z</time>
      </trkpt>
      <trkpt lat="47.21816" lon="4.6884">
        <ele>338.39999389648</ele>
        <time>2023-06-17T07:08:02.000Z</time>
      </trkpt>
      <trkpt lat="47.21811" lon="4.68839">
        <ele>338.20001220703</ele>
        <time>2023-06-17T07:08:03.000Z</time>
      </trkpt>
      <trkpt lat="47.21801" lon="4.68829">
        <ele>338.39999389648</ele>
        <time>2023-06-17T07:08:06.000Z</time>
      </trkpt>
      <trkpt lat="47.218" lon="4.68807">
        <ele>339.20001220703</ele>
        <time>2023-06-17T07:08:10.000Z</time>
      </trkpt>
      <trkpt lat="47.21801" lon="4.68789">
        <ele>340.60000610352</ele>
        <time>2023-06-17T07:08:14.000Z</time>
      </trkpt>
      <trkpt lat="47.21802" lon="4.68785">
        <ele>341.20001220703</ele>
        <time>2023-06-17T07:08:15.000Z</time>
      </trkpt>
      <trkpt lat="47.21804" lon="4.68777">
        <ele>342.20001220703</ele>
        <time>2023-06-17T07:08:17.000Z</time>
      </trkpt>
      <trkpt lat="47.21809" lon="4.68762">
        <ele>343.20001220703</ele>
        <time>2023-06-17T07:08:21.000Z</time>
      </trkpt>
      <trkpt lat="47.21814" lon="4.68742">
        <ele>344.60000610352</ele>
        <time>2023-06-17T07:08:26.000Z</time>
      </trkpt>
      <trkpt lat="47.21821" lon="4.68723">
        <ele>345.39999389648</ele>
        <time>2023-06-17T07:08:31.000Z</time>
      </trkpt>
      <trkpt lat="47.21824" lon="4.68716">
        <ele>346</ele>
        <time>2023-06-17T07:08:33.000Z</time>
      </trkpt>
      <trkpt lat="47.21825" lon="4.68713">
        <ele>346.20001220703</ele>
        <time>2023-06-17T07:08:34.000Z</time>
      </trkpt>
      <trkpt lat="47.21828" lon="4.68707">
        <ele>346.60000610352</ele>
        <time>2023-06-17T07:08:36.000Z</time>
      </trkpt>
      <trkpt lat="47.21832" lon="4.68698">
        <ele>348</ele>
        <time>2023-06-17T07:08:39.000Z</time>
      </trkpt>
      <trkpt lat="47.21838" lon="4.68685">
        <ele>349.20001220703</ele>
        <time>2023-06-17T07:08:43.000Z</time>
      </trkpt>
      <trkpt lat="47.2184" lon="4.68678">
        <ele>349.39999389648</ele>
        <time>2023-06-17T07:08:45.000Z</time>
      </trkpt>
      <trkpt lat="47.21844" lon="4.68667">
        <ele>350.39999389648</ele>
        <time>2023-06-17T07:08:48.000Z</time>
      </trkpt>
      <trkpt lat="47.21849" lon="4.68658">
        <ele>350.79998779297</ele>
        <time>2023-06-17T07:08:51.000Z</time>
      </trkpt>
      <trkpt lat="47.21853" lon="4.68647">
        <ele>351.60000610352</ele>
        <time>2023-06-17T07:08:54.000Z</time>
      </trkpt>
      <trkpt lat="47.21855" lon="4.68644">
        <ele>351.79998779297</ele>
        <time>2023-06-17T07:08:55.000Z</time>
      </trkpt>
      <trkpt lat="47.21861" lon="4.68633">
        <ele>352.79998779297</ele>
        <time>2023-06-17T07:08:58.000Z</time>
      </trkpt>
      <trkpt lat="47.21871" lon="4.68617">
        <ele>353.60000610352</ele>
        <time>2023-06-17T07:09:03.000Z</time>
      </trkpt>
      <trkpt lat="47.21873" lon="4.68614">
        <ele>353.79998779297</ele>
        <time>2023-06-17T07:09:04.000Z</time>
      </trkpt>
      <trkpt lat="47.21876" lon="4.68608">
        <ele>354.20001220703</ele>
        <time>2023-06-17T07:09:06.000Z</time>
      </trkpt>
      <trkpt lat="47.21879" lon="4.68601">
        <ele>354.60000610352</ele>
        <time>2023-06-17T07:09:08.000Z</time>
      </trkpt>
      <trkpt lat="47.21881" lon="4.68598">
        <ele>354.79998779297</ele>
        <time>2023-06-17T07:09:09.000Z</time>
      </trkpt>
      <trkpt lat="47.21887" lon="4.68585">
        <ele>356</ele>
        <time>2023-06-17T07:09:13.000Z</time>
      </trkpt>
      <trkpt lat="47.2189" lon="4.68579">
        <ele>356.79998779297</ele>
        <time>2023-06-17T07:09:15.000Z</time>
      </trkpt>
      <trkpt lat="47.21894" lon="4.68572">
        <ele>357</ele>
        <time>2023-06-17T07:09:17.000Z</time>
      </trkpt>
      <trkpt lat="47.21905" lon="4.68558">
        <ele>358.20001220703</ele>
        <time>2023-06-17T07:09:22.000Z</time>
      </trkpt>
      <trkpt lat="47.21914" lon="4.68542">
        <ele>359.39999389648</ele>
        <time>2023-06-17T07:09:27.000Z</time>
      </trkpt>
      <trkpt lat="47.2192" lon="4.68531">
        <ele>360.20001220703</ele>
        <time>2023-06-17T07:09:31.000Z</time>
      </trkpt>
      <trkpt lat="47.21924" lon="4.68524">
        <ele>360.79998779297</ele>
        <time>2023-06-17T07:09:33.000Z</time>
      </trkpt>
      <trkpt lat="47.21925" lon="4.68522">
        <ele>361</ele>
        <time>2023-06-17T07:09:34.000Z</time>
      </trkpt>
      <trkpt lat="47.21933" lon="4.68509">
        <ele>362</ele>
        <time>2023-06-17T07:09:38.000Z</time>
      </trkpt>
      <trkpt lat="47.21938" lon="4.68501">
        <ele>363</ele>
        <time>2023-06-17T07:09:41.000Z</time>
      </trkpt>
      <trkpt lat="47.21942" lon="4.68494">
        <ele>363.39999389648</ele>
        <time>2023-06-17T07:09:43.000Z</time>
      </trkpt>
      <trkpt lat="47.21952" lon="4.68476">
        <ele>364.60000610352</ele>
        <time>2023-06-17T07:09:49.000Z</time>
      </trkpt>
      <trkpt lat="47.21959" lon="4.68462">
        <ele>365.60000610352</ele>
        <time>2023-06-17T07:09:54.000Z</time>
      </trkpt>
      <trkpt lat="47.21962" lon="4.68457">
        <ele>366</ele>
        <time>2023-06-17T07:09:56.000Z</time>
      </trkpt>
      <trkpt lat="47.21965" lon="4.6845">
        <ele>366.60000610352</ele>
        <time>2023-06-17T07:09:58.000Z</time>
      </trkpt>
      <trkpt lat="47.2197" lon="4.68432">
        <ele>367.79998779297</ele>
        <time>2023-06-17T07:10:03.000Z</time>
      </trkpt>
      <trkpt lat="47.21974" lon="4.68417">
        <ele>369.20001220703</ele>
        <time>2023-06-17T07:10:07.000Z</time>
      </trkpt>
      <trkpt lat="47.21979" lon="4.68398">
        <ele>370.39999389648</ele>
        <time>2023-06-17T07:10:12.000Z</time>
      </trkpt>
      <trkpt lat="47.21984" lon="4.68375">
        <ele>371.39999389648</ele>
        <time>2023-06-17T07:10:18.000Z</time>
      </trkpt>
      <trkpt lat="47.21986" lon="4.68363">
        <ele>372</ele>
        <time>2023-06-17T07:10:21.000Z</time>
      </trkpt>
      <trkpt lat="47.21988" lon="4.68356">
        <ele>372.60000610352</ele>
        <time>2023-06-17T07:10:23.000Z</time>
      </trkpt>
      <trkpt lat="47.21993" lon="4.68333">
        <ele>373.60000610352</ele>
        <time>2023-06-17T07:10:29.000Z</time>
      </trkpt>
      <trkpt lat="47.21995" lon="4.68319">
        <ele>374.79998779297</ele>
        <time>2023-06-17T07:10:33.000Z</time>
      </trkpt>
      <trkpt lat="47.21996" lon="4.68308">
        <ele>375.60000610352</ele>
        <time>2023-06-17T07:10:36.000Z</time>
      </trkpt>
      <trkpt lat="47.21997" lon="4.68304">
        <ele>375.79998779297</ele>
        <time>2023-06-17T07:10:37.000Z</time>
      </trkpt>
      <trkpt lat="47.21999" lon="4.68289">
        <ele>377.20001220703</ele>
        <time>2023-06-17T07:10:41.000Z</time>
      </trkpt>
      <trkpt lat="47.22001" lon="4.68273">
        <ele>378.39999389648</ele>
        <time>2023-06-17T07:10:45.000Z</time>
      </trkpt>
      <trkpt lat="47.22006" lon="4.68246">
        <ele>379.39999389648</ele>
        <time>2023-06-17T07:10:51.000Z</time>
      </trkpt>
      <trkpt lat="47.22006" lon="4.68242">
        <ele>379.79998779297</ele>
        <time>2023-06-17T07:10:52.000Z</time>
      </trkpt>
      <trkpt lat="47.22008" lon="4.68229">
        <ele>380.60000610352</ele>
        <time>2023-06-17T07:10:55.000Z</time>
      </trkpt>
      <trkpt lat="47.22011" lon="4.6821">
        <ele>381.79998779297</ele>
        <time>2023-06-17T07:11:00.000Z</time>
      </trkpt>
      <trkpt lat="47.22012" lon="4.68207">
        <ele>382</ele>
        <time>2023-06-17T07:11:01.000Z</time>
      </trkpt>
      <trkpt lat="47.22016" lon="4.6819">
        <ele>383</ele>
        <time>2023-06-17T07:11:05.000Z</time>
      </trkpt>
      <trkpt lat="47.2202" lon="4.68175">
        <ele>383.60000610352</ele>
        <time>2023-06-17T07:11:09.000Z</time>
      </trkpt>
      <trkpt lat="47.22023" lon="4.68167">
        <ele>384</ele>
        <time>2023-06-17T07:11:11.000Z</time>
      </trkpt>
      <trkpt lat="47.2203" lon="4.68147">
        <ele>385.20001220703</ele>
        <time>2023-06-17T07:11:16.000Z</time>
      </trkpt>
      <trkpt lat="47.22033" lon="4.6814">
        <ele>385.60000610352</ele>
        <time>2023-06-17T07:11:18.000Z</time>
      </trkpt>
      <trkpt lat="47.22038" lon="4.68129">
        <ele>386.20001220703</ele>
        <time>2023-06-17T07:11:21.000Z</time>
      </trkpt>
      <trkpt lat="47.22045" lon="4.6811">
        <ele>387.39999389648</ele>
        <time>2023-06-17T07:11:26.000Z</time>
      </trkpt>
      <trkpt lat="47.22052" lon="4.68092">
        <ele>388.60000610352</ele>
        <time>2023-06-17T07:11:31.000Z</time>
      </trkpt>
      <trkpt lat="47.22057" lon="4.68077">
        <ele>389.79998779297</ele>
        <time>2023-06-17T07:11:35.000Z</time>
      </trkpt>
      <trkpt lat="47.22058" lon="4.68073">
        <ele>390.20001220703</ele>
        <time>2023-06-17T07:11:36.000Z</time>
      </trkpt>
      <trkpt lat="47.22061" lon="4.68059">
        <ele>391.20001220703</ele>
        <time>2023-06-17T07:11:40.000Z</time>
      </trkpt>
      <trkpt lat="47.22062" lon="4.68055">
        <ele>391.39999389648</ele>
        <time>2023-06-17T07:11:41.000Z</time>
      </trkpt>
      <trkpt lat="47.22067" lon="4.68042">
        <ele>392.39999389648</ele>
        <time>2023-06-17T07:11:45.000Z</time>
      </trkpt>
      <trkpt lat="47.22073" lon="4.68028">
        <ele>393.39999389648</ele>
        <time>2023-06-17T07:11:49.000Z</time>
      </trkpt>
      <trkpt lat="47.22074" lon="4.68025">
        <ele>393.79998779297</ele>
        <time>2023-06-17T07:11:50.000Z</time>
      </trkpt>
      <trkpt lat="47.22081" lon="4.68008">
        <ele>395.20001220703</ele>
        <time>2023-06-17T07:11:55.000Z</time>
      </trkpt>
      <trkpt lat="47.22084" lon="4.67996">
        <ele>395.79998779297</ele>
        <time>2023-06-17T07:11:58.000Z</time>
      </trkpt>
      <trkpt lat="47.22087" lon="4.67983">
        <ele>396.39999389648</ele>
        <time>2023-06-17T07:12:01.000Z</time>
      </trkpt>
      <trkpt lat="47.22091" lon="4.67963">
        <ele>397.60000610352</ele>
        <time>2023-06-17T07:12:05.000Z</time>
      </trkpt>
      <trkpt lat="47.22092" lon="4.67959">
        <ele>398</ele>
        <time>2023-06-17T07:12:06.000Z</time>
      </trkpt>
      <trkpt lat="47.22094" lon="4.67945">
        <ele>398.60000610352</ele>
        <time>2023-06-17T07:12:09.000Z</time>
      </trkpt>
      <trkpt lat="47.22098" lon="4.67922">
        <ele>399.79998779297</ele>
        <time>2023-06-17T07:12:14.000Z</time>
      </trkpt>
      <trkpt lat="47.22099" lon="4.67917">
        <ele>400</ele>
        <time>2023-06-17T07:12:15.000Z</time>
      </trkpt>
      <trkpt lat="47.22101" lon="4.67904">
        <ele>401</ele>
        <time>2023-06-17T07:12:18.000Z</time>
      </trkpt>
      <trkpt lat="47.22104" lon="4.67882">
        <ele>402</ele>
        <time>2023-06-17T07:12:23.000Z</time>
      </trkpt>
      <trkpt lat="47.22107" lon="4.6787">
        <ele>403</ele>
        <time>2023-06-17T07:12:26.000Z</time>
      </trkpt>
      <trkpt lat="47.2211" lon="4.67854">
        <ele>404.20001220703</ele>
        <time>2023-06-17T07:12:30.000Z</time>
      </trkpt>
      <trkpt lat="47.2211" lon="4.67845">
        <ele>404.60000610352</ele>
        <time>2023-06-17T07:12:32.000Z</time>
      </trkpt>
      <trkpt lat="47.22112" lon="4.67833">
        <ele>405.20001220703</ele>
        <time>2023-06-17T07:12:35.000Z</time>
      </trkpt>
      <trkpt lat="47.22114" lon="4.67821">
        <ele>406.20001220703</ele>
        <time>2023-06-17T07:12:38.000Z</time>
      </trkpt>
      <trkpt lat="47.22115" lon="4.67817">
        <ele>406.39999389648</ele>
        <time>2023-06-17T07:12:39.000Z</time>
      </trkpt>
      <trkpt lat="47.22119" lon="4.67797">
        <ele>407.60000610352</ele>
        <time>2023-06-17T07:12:44.000Z</time>
      </trkpt>
      <trkpt lat="47.2212" lon="4.67793">
        <ele>408</ele>
        <time>2023-06-17T07:12:45.000Z</time>
      </trkpt>
      <trkpt lat="47.22122" lon="4.67781">
        <ele>408.79998779297</ele>
        <time>2023-06-17T07:12:48.000Z</time>
      </trkpt>
      <trkpt lat="47.22128" lon="4.67762">
        <ele>410</ele>
        <time>2023-06-17T07:12:53.000Z</time>
      </trkpt>
      <trkpt lat="47.22134" lon="4.67748">
        <ele>411</ele>
        <time>2023-06-17T07:12:57.000Z</time>
      </trkpt>
      <trkpt lat="47.22139" lon="4.67731">
        <ele>412.20001220703</ele>
        <time>2023-06-17T07:13:01.000Z</time>
      </trkpt>
      <trkpt lat="47.2214" lon="4.67726">
        <ele>412.39999389648</ele>
        <time>2023-06-17T07:13:02.000Z</time>
      </trkpt>
      <trkpt lat="47.22143" lon="4.6771">
        <ele>413.60000610352</ele>
        <time>2023-06-17T07:13:06.000Z</time>
      </trkpt>
      <trkpt lat="47.22144" lon="4.67698">
        <ele>414</ele>
        <time>2023-06-17T07:13:09.000Z</time>
      </trkpt>
      <trkpt lat="47.22145" lon="4.67694">
        <ele>414.20001220703</ele>
        <time>2023-06-17T07:13:10.000Z</time>
      </trkpt>
      <trkpt lat="47.22146" lon="4.6769">
        <ele>414.60000610352</ele>
        <time>2023-06-17T07:13:11.000Z</time>
      </trkpt>
      <trkpt lat="47.22154" lon="4.67666">
        <ele>415.79998779297</ele>
        <time>2023-06-17T07:13:17.000Z</time>
      </trkpt>
      <trkpt lat="47.22157" lon="4.67657">
        <ele>416</ele>
        <time>2023-06-17T07:13:19.000Z</time>
      </trkpt>
      <trkpt lat="47.22162" lon="4.67646">
        <ele>416.79998779297</ele>
        <time>2023-06-17T07:13:22.000Z</time>
      </trkpt>
      <trkpt lat="47.22168" lon="4.67631">
        <ele>417.79998779297</ele>
        <time>2023-06-17T07:13:26.000Z</time>
      </trkpt>
      <trkpt lat="47.22169" lon="4.67628">
        <ele>418.20001220703</ele>
        <time>2023-06-17T07:13:27.000Z</time>
      </trkpt>
      <trkpt lat="47.22173" lon="4.67615">
        <ele>419.20001220703</ele>
        <time>2023-06-17T07:13:30.000Z</time>
      </trkpt>
      <trkpt lat="47.2218" lon="4.67601">
        <ele>420.20001220703</ele>
        <time>2023-06-17T07:13:34.000Z</time>
      </trkpt>
      <trkpt lat="47.22185" lon="4.67585">
        <ele>421.39999389648</ele>
        <time>2023-06-17T07:13:38.000Z</time>
      </trkpt>
      <trkpt lat="47.2219" lon="4.67569">
        <ele>422.60000610352</ele>
        <time>2023-06-17T07:13:42.000Z</time>
      </trkpt>
      <trkpt lat="47.22194" lon="4.67547">
        <ele>423.60000610352</ele>
        <time>2023-06-17T07:13:47.000Z</time>
      </trkpt>
      <trkpt lat="47.22195" lon="4.67535">
        <ele>424.20001220703</ele>
        <time>2023-06-17T07:13:50.000Z</time>
      </trkpt>
      <trkpt lat="47.22198" lon="4.67523">
        <ele>425</ele>
        <time>2023-06-17T07:13:53.000Z</time>
      </trkpt>
      <trkpt lat="47.22203" lon="4.67507">
        <ele>426</ele>
        <time>2023-06-17T07:13:57.000Z</time>
      </trkpt>
      <trkpt lat="47.22206" lon="4.67494">
        <ele>426.79998779297</ele>
        <time>2023-06-17T07:14:00.000Z</time>
      </trkpt>
      <trkpt lat="47.22209" lon="4.67488">
        <ele>427</ele>
        <time>2023-06-17T07:14:02.000Z</time>
      </trkpt>
      <trkpt lat="47.22213" lon="4.67477">
        <ele>428</ele>
        <time>2023-06-17T07:14:05.000Z</time>
      </trkpt>
      <trkpt lat="47.22215" lon="4.67473">
        <ele>428.39999389648</ele>
        <time>2023-06-17T07:14:06.000Z</time>
      </trkpt>
      <trkpt lat="47.22219" lon="4.67458">
        <ele>429.39999389648</ele>
        <time>2023-06-17T07:14:10.000Z</time>
      </trkpt>
      <trkpt lat="47.2222" lon="4.67455">
        <ele>429.39999389648</ele>
        <time>2023-06-17T07:14:11.000Z</time>
      </trkpt>
      <trkpt lat="47.22222" lon="4.67448">
        <ele>430</ele>
        <time>2023-06-17T07:14:13.000Z</time>
      </trkpt>
      <trkpt lat="47.22225" lon="4.67442">
        <ele>430.60000610352</ele>
        <time>2023-06-17T07:14:15.000Z</time>
      </trkpt>
      <trkpt lat="47.22226" lon="4.67438">
        <ele>430.60000610352</ele>
        <time>2023-06-17T07:14:16.000Z</time>
      </trkpt>
      <trkpt lat="47.22235" lon="4.67426">
        <ele>431.79998779297</ele>
        <time>2023-06-17T07:14:20.000Z</time>
      </trkpt>
      <trkpt lat="47.22242" lon="4.67418">
        <ele>432.39999389648</ele>
        <time>2023-06-17T07:14:23.000Z</time>
      </trkpt>
      <trkpt lat="47.22246" lon="4.6741">
        <ele>433</ele>
        <time>2023-06-17T07:14:25.000Z</time>
      </trkpt>
      <trkpt lat="47.22258" lon="4.67392">
        <ele>434</ele>
        <time>2023-06-17T07:14:30.000Z</time>
      </trkpt>
      <trkpt lat="47.22261" lon="4.67388">
        <ele>434.39999389648</ele>
        <time>2023-06-17T07:14:31.000Z</time>
      </trkpt>
      <trkpt lat="47.22267" lon="4.67377">
        <ele>435.39999389648</ele>
        <time>2023-06-17T07:14:34.000Z</time>
      </trkpt>
      <trkpt lat="47.22273" lon="4.67367">
        <ele>436.60000610352</ele>
        <time>2023-06-17T07:14:37.000Z</time>
      </trkpt>
      <trkpt lat="47.22277" lon="4.67359">
        <ele>437</ele>
        <time>2023-06-17T07:14:39.000Z</time>
      </trkpt>
      <trkpt lat="47.22278" lon="4.67355">
        <ele>437.20001220703</ele>
        <time>2023-06-17T07:14:40.000Z</time>
      </trkpt>
      <trkpt lat="47.22284" lon="4.67347">
        <ele>437.79998779297</ele>
        <time>2023-06-17T07:14:43.000Z</time>
      </trkpt>
      <trkpt lat="47.22286" lon="4.67343">
        <ele>438.20001220703</ele>
        <time>2023-06-17T07:14:44.000Z</time>
      </trkpt>
      <trkpt lat="47.22289" lon="4.67337">
        <ele>438.79998779297</ele>
        <time>2023-06-17T07:14:46.000Z</time>
      </trkpt>
      <trkpt lat="47.22296" lon="4.67324">
        <ele>440.20001220703</ele>
        <time>2023-06-17T07:14:50.000Z</time>
      </trkpt>
      <trkpt lat="47.22298" lon="4.6732">
        <ele>440.60000610352</ele>
        <time>2023-06-17T07:14:51.000Z</time>
      </trkpt>
      <trkpt lat="47.22306" lon="4.67304">
        <ele>441.39999389648</ele>
        <time>2023-06-17T07:14:55.000Z</time>
      </trkpt>
      <trkpt lat="47.22309" lon="4.67298">
        <ele>442.79998779297</ele>
        <time>2023-06-17T07:14:57.000Z</time>
      </trkpt>
      <trkpt lat="47.22315" lon="4.6728">
        <ele>443.79998779297</ele>
        <time>2023-06-17T07:15:02.000Z</time>
      </trkpt>
      <trkpt lat="47.22317" lon="4.67268">
        <ele>444.20001220703</ele>
        <time>2023-06-17T07:15:05.000Z</time>
      </trkpt>
      <trkpt lat="47.22322" lon="4.67257">
        <ele>444.60000610352</ele>
        <time>2023-06-17T07:15:08.000Z</time>
      </trkpt>
      <trkpt lat="47.22324" lon="4.67253">
        <ele>445</ele>
        <time>2023-06-17T07:15:09.000Z</time>
      </trkpt>
      <trkpt lat="47.22326" lon="4.67249">
        <ele>445.39999389648</ele>
        <time>2023-06-17T07:15:10.000Z</time>
      </trkpt>
      <trkpt lat="47.22331" lon="4.67238">
        <ele>446</ele>
        <time>2023-06-17T07:15:13.000Z</time>
      </trkpt>
      <trkpt lat="47.22337" lon="4.6722">
        <ele>447.20001220703</ele>
        <time>2023-06-17T07:15:18.000Z</time>
      </trkpt>
      <trkpt lat="47.22338" lon="4.67216">
        <ele>447.60000610352</ele>
        <time>2023-06-17T07:15:19.000Z</time>
      </trkpt>
      <trkpt lat="47.2235" lon="4.67198">
        <ele>448.60000610352</ele>
        <time>2023-06-17T07:15:24.000Z</time>
      </trkpt>
      <trkpt lat="47.22351" lon="4.67194">
        <ele>448.79998779297</ele>
        <time>2023-06-17T07:15:25.000Z</time>
      </trkpt>
      <trkpt lat="47.22355" lon="4.67182">
        <ele>449.60000610352</ele>
        <time>2023-06-17T07:15:28.000Z</time>
      </trkpt>
      <trkpt lat="47.22358" lon="4.67176">
        <ele>450</ele>
        <time>2023-06-17T07:15:30.000Z</time>
      </trkpt>
      <trkpt lat="47.2236" lon="4.67167">
        <ele>450.79998779297</ele>
        <time>2023-06-17T07:15:33.000Z</time>
      </trkpt>
      <trkpt lat="47.22361" lon="4.67161">
        <ele>451.20001220703</ele>
        <time>2023-06-17T07:15:35.000Z</time>
      </trkpt>
      <trkpt lat="47.22361" lon="4.67158">
        <ele>451.60000610352</ele>
        <time>2023-06-17T07:15:36.000Z</time>
      </trkpt>
      <trkpt lat="47.22362" lon="4.67155">
        <ele>451.79998779297</ele>
        <time>2023-06-17T07:15:37.000Z</time>
      </trkpt>
      <trkpt lat="47.22363" lon="4.67151">
        <ele>452.20001220703</ele>
        <time>2023-06-17T07:15:38.000Z</time>
      </trkpt>
      <trkpt lat="47.22365" lon="4.67142">
        <ele>452.79998779297</ele>
        <time>2023-06-17T07:15:41.000Z</time>
      </trkpt>
      <trkpt lat="47.22366" lon="4.67138">
        <ele>453</ele>
        <time>2023-06-17T07:15:42.000Z</time>
      </trkpt>
      <trkpt lat="47.2237" lon="4.67122">
        <ele>454.39999389648</ele>
        <time>2023-06-17T07:15:47.000Z</time>
      </trkpt>
      <trkpt lat="47.22376" lon="4.67103">
        <ele>455.39999389648</ele>
        <time>2023-06-17T07:15:52.000Z</time>
      </trkpt>
      <trkpt lat="47.22378" lon="4.671">
        <ele>455.60000610352</ele>
        <time>2023-06-17T07:15:53.000Z</time>
      </trkpt>
      <trkpt lat="47.22382" lon="4.67083">
        <ele>456.60000610352</ele>
        <time>2023-06-17T07:15:57.000Z</time>
      </trkpt>
      <trkpt lat="47.22386" lon="4.67073">
        <ele>457.20001220703</ele>
        <time>2023-06-17T07:16:00.000Z</time>
      </trkpt>
      <trkpt lat="47.22389" lon="4.67066">
        <ele>458</ele>
        <time>2023-06-17T07:16:02.000Z</time>
      </trkpt>
      <trkpt lat="47.22396" lon="4.67052">
        <ele>459</ele>
        <time>2023-06-17T07:16:06.000Z</time>
      </trkpt>
      <trkpt lat="47.22397" lon="4.67044">
        <ele>459.60000610352</ele>
        <time>2023-06-17T07:16:08.000Z</time>
      </trkpt>
      <trkpt lat="47.224" lon="4.67036">
        <ele>460.39999389648</ele>
        <time>2023-06-17T07:16:10.000Z</time>
      </trkpt>
      <trkpt lat="47.22407" lon="4.67017">
        <ele>461.60000610352</ele>
        <time>2023-06-17T07:16:14.000Z</time>
      </trkpt>
      <trkpt lat="47.22411" lon="4.67006">
        <ele>462.39999389648</ele>
        <time>2023-06-17T07:16:17.000Z</time>
      </trkpt>
      <trkpt lat="47.22413" lon="4.67002">
        <ele>462.60000610352</ele>
        <time>2023-06-17T07:16:18.000Z</time>
      </trkpt>
      <trkpt lat="47.22414" lon="4.66993">
        <ele>463</ele>
        <time>2023-06-17T07:16:20.000Z</time>
      </trkpt>
      <trkpt lat="47.22415" lon="4.66989">
        <ele>463.60000610352</ele>
        <time>2023-06-17T07:16:21.000Z</time>
      </trkpt>
      <trkpt lat="47.22421" lon="4.66968">
        <ele>464.20001220703</ele>
        <time>2023-06-17T07:16:26.000Z</time>
      </trkpt>
      <trkpt lat="47.22422" lon="4.66964">
        <ele>464.39999389648</ele>
        <time>2023-06-17T07:16:27.000Z</time>
      </trkpt>
      <trkpt lat="47.22428" lon="4.6694">
        <ele>465.79998779297</ele>
        <time>2023-06-17T07:16:32.000Z</time>
      </trkpt>
      <trkpt lat="47.22429" lon="4.66937">
        <ele>466</ele>
        <time>2023-06-17T07:16:33.000Z</time>
      </trkpt>
      <trkpt lat="47.2244" lon="4.66918">
        <ele>466.79998779297</ele>
        <time>2023-06-17T07:16:38.000Z</time>
      </trkpt>
      <trkpt lat="47.22445" lon="4.66907">
        <ele>467.60000610352</ele>
        <time>2023-06-17T07:16:41.000Z</time>
      </trkpt>
      <trkpt lat="47.22446" lon="4.66902">
        <ele>467.79998779297</ele>
        <time>2023-06-17T07:16:42.000Z</time>
      </trkpt>
      <trkpt lat="47.22447" lon="4.66898">
        <ele>468.20001220703</ele>
        <time>2023-06-17T07:16:43.000Z</time>
      </trkpt>
      <trkpt lat="47.22449" lon="4.66891">
        <ele>469</ele>
        <time>2023-06-17T07:16:46.000Z</time>
      </trkpt>
      <trkpt lat="47.22451" lon="4.66884">
        <ele>469.60000610352</ele>
        <time>2023-06-17T07:16:48.000Z</time>
      </trkpt>
      <trkpt lat="47.22452" lon="4.66879">
        <ele>470.20001220703</ele>
        <time>2023-06-17T07:16:51.000Z</time>
      </trkpt>
      <trkpt lat="47.22453" lon="4.66873">
        <ele>471</ele>
        <time>2023-06-17T07:16:53.000Z</time>
      </trkpt>
      <trkpt lat="47.22455" lon="4.66867">
        <ele>471.39999389648</ele>
        <time>2023-06-17T07:16:55.000Z</time>
      </trkpt>
      <trkpt lat="47.22461" lon="4.66846">
        <ele>472.60000610352</ele>
        <time>2023-06-17T07:17:00.000Z</time>
      </trkpt>
      <trkpt lat="47.22468" lon="4.66823">
        <ele>473.79998779297</ele>
        <time>2023-06-17T07:17:05.000Z</time>
      </trkpt>
      <trkpt lat="47.22469" lon="4.66819">
        <ele>474.20001220703</ele>
        <time>2023-06-17T07:17:06.000Z</time>
      </trkpt>
      <trkpt lat="47.22471" lon="4.66804">
        <ele>474.79998779297</ele>
        <time>2023-06-17T07:17:10.000Z</time>
      </trkpt>
      <trkpt lat="47.2247" lon="4.66791">
        <ele>475.39999389648</ele>
        <time>2023-06-17T07:17:13.000Z</time>
      </trkpt>
      <trkpt lat="47.22468" lon="4.66783">
        <ele>475.79998779297</ele>
        <time>2023-06-17T07:17:15.000Z</time>
      </trkpt>
      <trkpt lat="47.22465" lon="4.66769">
        <ele>476.79998779297</ele>
        <time>2023-06-17T07:17:19.000Z</time>
      </trkpt>
      <trkpt lat="47.22462" lon="4.66765">
        <ele>477.20001220703</ele>
        <time>2023-06-17T07:17:20.000Z</time>
      </trkpt>
      <trkpt lat="47.22457" lon="4.66749">
        <ele>478</ele>
        <time>2023-06-17T07:17:24.000Z</time>
      </trkpt>
      <trkpt lat="47.22451" lon="4.66739">
        <ele>478.79998779297</ele>
        <time>2023-06-17T07:17:27.000Z</time>
      </trkpt>
      <trkpt lat="47.22446" lon="4.66733">
        <ele>479.39999389648</ele>
        <time>2023-06-17T07:17:29.000Z</time>
      </trkpt>
      <trkpt lat="47.22435" lon="4.66726">
        <ele>480.60000610352</ele>
        <time>2023-06-17T07:17:33.000Z</time>
      </trkpt>
      <trkpt lat="47.22425" lon="4.66722">
        <ele>481.60000610352</ele>
        <time>2023-06-17T07:17:37.000Z</time>
      </trkpt>
      <trkpt lat="47.22414" lon="4.66716">
        <ele>482.60000610352</ele>
        <time>2023-06-17T07:17:41.000Z</time>
      </trkpt>
      <trkpt lat="47.22411" lon="4.66715">
        <ele>482.60000610352</ele>
        <time>2023-06-17T07:17:42.000Z</time>
      </trkpt>
      <trkpt lat="47.22399" lon="4.66712">
        <ele>483.79998779297</ele>
        <time>2023-06-17T07:17:46.000Z</time>
      </trkpt>
      <trkpt lat="47.22393" lon="4.6671">
        <ele>484</ele>
        <time>2023-06-17T07:17:48.000Z</time>
      </trkpt>
      <trkpt lat="47.22387" lon="4.66707">
        <ele>484.79998779297</ele>
        <time>2023-06-17T07:17:51.000Z</time>
      </trkpt>
      <trkpt lat="47.22372" lon="4.667">
        <ele>486</ele>
        <time>2023-06-17T07:17:57.000Z</time>
      </trkpt>
      <trkpt lat="47.2236" lon="4.66693">
        <ele>487</ele>
        <time>2023-06-17T07:18:01.000Z</time>
      </trkpt>
      <trkpt lat="47.22355" lon="4.66689">
        <ele>487.20001220703</ele>
        <time>2023-06-17T07:18:03.000Z</time>
      </trkpt>
      <trkpt lat="47.22346" lon="4.66678">
        <ele>488.20001220703</ele>
        <time>2023-06-17T07:18:07.000Z</time>
      </trkpt>
      <trkpt lat="47.22341" lon="4.66668">
        <ele>489.20001220703</ele>
        <time>2023-06-17T07:18:10.000Z</time>
      </trkpt>
      <trkpt lat="47.22339" lon="4.66665">
        <ele>489.39999389648</ele>
        <time>2023-06-17T07:18:11.000Z</time>
      </trkpt>
      <trkpt lat="47.22333" lon="4.66645">
        <ele>490.39999389648</ele>
        <time>2023-06-17T07:18:16.000Z</time>
      </trkpt>
      <trkpt lat="47.22333" lon="4.66635">
        <ele>490.79998779297</ele>
        <time>2023-06-17T07:18:18.000Z</time>
      </trkpt>
      <trkpt lat="47.22341" lon="4.66614">
        <ele>491.20001220703</ele>
        <time>2023-06-17T07:18:23.000Z</time>
      </trkpt>
      <trkpt lat="47.2235" lon="4.666">
        <ele>492.20001220703</ele>
        <time>2023-06-17T07:18:27.000Z</time>
      </trkpt>
      <trkpt lat="47.22357" lon="4.66585">
        <ele>493.39999389648</ele>
        <time>2023-06-17T07:18:31.000Z</time>
      </trkpt>
      <trkpt lat="47.2236" lon="4.66582">
        <ele>493.60000610352</ele>
        <time>2023-06-17T07:18:32.000Z</time>
      </trkpt>
      <trkpt lat="47.22365" lon="4.6657">
        <ele>494.60000610352</ele>
        <time>2023-06-17T07:18:35.000Z</time>
      </trkpt>
      <trkpt lat="47.2238" lon="4.66545">
        <ele>495.79998779297</ele>
        <time>2023-06-17T07:18:42.000Z</time>
      </trkpt>
      <trkpt lat="47.22382" lon="4.66541">
        <ele>496</ele>
        <time>2023-06-17T07:18:43.000Z</time>
      </trkpt>
      <trkpt lat="47.22392" lon="4.6653">
        <ele>496.79998779297</ele>
        <time>2023-06-17T07:18:47.000Z</time>
      </trkpt>
      <trkpt lat="47.22395" lon="4.66527">
        <ele>497</ele>
        <time>2023-06-17T07:18:48.000Z</time>
      </trkpt>
      <trkpt lat="47.22412" lon="4.66515">
        <ele>498</ele>
        <time>2023-06-17T07:18:53.000Z</time>
      </trkpt>
      <trkpt lat="47.22415" lon="4.66513">
        <ele>498.20001220703</ele>
        <time>2023-06-17T07:18:54.000Z</time>
      </trkpt>
      <trkpt lat="47.22431" lon="4.66505">
        <ele>499</ele>
        <time>2023-06-17T07:18:58.000Z</time>
      </trkpt>
      <trkpt lat="47.22439" lon="4.66502">
        <ele>499.39999389648</ele>
        <time>2023-06-17T07:19:00.000Z</time>
      </trkpt>
      <trkpt lat="47.22452" lon="4.66496">
        <ele>500</ele>
        <time>2023-06-17T07:19:03.000Z</time>
      </trkpt>
      <trkpt lat="47.22475" lon="4.66486">
        <ele>501.20001220703</ele>
        <time>2023-06-17T07:19:09.000Z</time>
      </trkpt>
      <trkpt lat="47.22499" lon="4.66477">
        <ele>502.20001220703</ele>
        <time>2023-06-17T07:19:15.000Z</time>
      </trkpt>
      <trkpt lat="47.22508" lon="4.66474">
        <ele>502.39999389648</ele>
        <time>2023-06-17T07:19:17.000Z</time>
      </trkpt>
      <trkpt lat="47.22516" lon="4.66472">
        <ele>502.60000610352</ele>
        <time>2023-06-17T07:19:19.000Z</time>
      </trkpt>
      <trkpt lat="47.22532" lon="4.66466">
        <ele>503.20001220703</ele>
        <time>2023-06-17T07:19:23.000Z</time>
      </trkpt>
      <trkpt lat="47.22548" lon="4.66462">
        <ele>503.60000610352</ele>
        <time>2023-06-17T07:19:27.000Z</time>
      </trkpt>
      <trkpt lat="47.22552" lon="4.66461">
        <ele>503.60000610352</ele>
        <time>2023-06-17T07:19:28.000Z</time>
      </trkpt>
      <trkpt lat="47.22571" lon="4.66457">
        <ele>504.20001220703</ele>
        <time>2023-06-17T07:19:33.000Z</time>
      </trkpt>
      <trkpt lat="47.22579" lon="4.66454">
        <ele>504.79998779297</ele>
        <time>2023-06-17T07:19:35.000Z</time>
      </trkpt>
      <trkpt lat="47.22596" lon="4.66448">
        <ele>505.20001220703</ele>
        <time>2023-06-17T07:19:39.000Z</time>
      </trkpt>
      <trkpt lat="47.22605" lon="4.66444">
        <ele>505.60000610352</ele>
        <time>2023-06-17T07:19:41.000Z</time>
      </trkpt>
      <trkpt lat="47.22613" lon="4.66438">
        <ele>505.79998779297</ele>
        <time>2023-06-17T07:19:43.000Z</time>
      </trkpt>
      <trkpt lat="47.22631" lon="4.66421">
        <ele>506.60000610352</ele>
        <time>2023-06-17T07:19:48.000Z</time>
      </trkpt>
      <trkpt lat="47.22642" lon="4.66409">
        <ele>506.60000610352</ele>
        <time>2023-06-17T07:19:51.000Z</time>
      </trkpt>
      <trkpt lat="47.22656" lon="4.66393">
        <ele>507.39999389648</ele>
        <time>2023-06-17T07:19:55.000Z</time>
      </trkpt>
      <trkpt lat="47.22667" lon="4.66382">
        <ele>507.60000610352</ele>
        <time>2023-06-17T07:19:58.000Z</time>
      </trkpt>
      <trkpt lat="47.22688" lon="4.66359">
        <ele>508.39999389648</ele>
        <time>2023-06-17T07:20:04.000Z</time>
      </trkpt>
      <trkpt lat="47.22698" lon="4.66347">
        <ele>508.60000610352</ele>
        <time>2023-06-17T07:20:07.000Z</time>
      </trkpt>
      <trkpt lat="47.22701" lon="4.66343">
        <ele>508.79998779297</ele>
        <time>2023-06-17T07:20:08.000Z</time>
      </trkpt>
      <trkpt lat="47.22722" lon="4.66321">
        <ele>509</ele>
        <time>2023-06-17T07:20:15.000Z</time>
      </trkpt>
      <trkpt lat="47.22727" lon="4.66319">
        <ele>509.20001220703</ele>
        <time>2023-06-17T07:20:19.000Z</time>
      </trkpt>
      <trkpt lat="47.22728" lon="4.66319">
        <ele>509.39999389648</ele>
        <time>2023-06-17T07:20:21.000Z</time>
      </trkpt>
      <trkpt lat="47.22729" lon="4.66314">
        <ele>509.79998779297</ele>
        <time>2023-06-17T07:24:47.000Z</time>
      </trkpt>
      <trkpt lat="47.2273" lon="4.66312">
        <ele>509.79998779297</ele>
        <time>2023-06-17T07:24:48.000Z</time>
      </trkpt>
      <trkpt lat="47.22739" lon="4.66299">
        <ele>510</ele>
        <time>2023-06-17T07:24:55.000Z</time>
      </trkpt>
      <trkpt lat="47.22752" lon="4.66284">
        <ele>510</ele>
        <time>2023-06-17T07:25:03.000Z</time>
      </trkpt>
      <trkpt lat="47.22767" lon="4.66265">
        <ele>510.39999389648</ele>
        <time>2023-06-17T07:25:08.000Z</time>
      </trkpt>
      <trkpt lat="47.22801" lon="4.66235">
        <ele>510.60000610352</ele>
        <time>2023-06-17T07:25:16.000Z</time>
      </trkpt>
      <trkpt lat="47.22817" lon="4.66223">
        <ele>510.60000610352</ele>
        <time>2023-06-17T07:25:19.000Z</time>
      </trkpt>
      <trkpt lat="47.22834" lon="4.66213">
        <ele>510.20001220703</ele>
        <time>2023-06-17T07:25:22.000Z</time>
      </trkpt>
      <trkpt lat="47.22873" lon="4.66195">
        <ele>509.20001220703</ele>
        <time>2023-06-17T07:25:28.000Z</time>
      </trkpt>
      <trkpt lat="47.22887" lon="4.66188">
        <ele>508.79998779297</ele>
        <time>2023-06-17T07:25:30.000Z</time>
      </trkpt>
      <trkpt lat="47.22917" lon="4.66173">
        <ele>507.60000610352</ele>
        <time>2023-06-17T07:25:34.000Z</time>
      </trkpt>
      <trkpt lat="47.22965" lon="4.66143">
        <ele>506.20001220703</ele>
        <time>2023-06-17T07:25:41.000Z</time>
      </trkpt>
      <trkpt lat="47.22978" lon="4.66134">
        <ele>505.79998779297</ele>
        <time>2023-06-17T07:25:43.000Z</time>
      </trkpt>
      <trkpt lat="47.23007" lon="4.66105">
        <ele>505.39999389648</ele>
        <time>2023-06-17T07:25:48.000Z</time>
      </trkpt>
      <trkpt lat="47.2301" lon="4.66097">
        <ele>505.20001220703</ele>
        <time>2023-06-17T07:25:49.000Z</time>
      </trkpt>
      <trkpt lat="47.23013" lon="4.66087">
        <ele>505.20001220703</ele>
        <time>2023-06-17T07:25:50.000Z</time>
      </trkpt>
      <trkpt lat="47.23014" lon="4.66065">
        <ele>505.20001220703</ele>
        <time>2023-06-17T07:25:52.000Z</time>
      </trkpt>
      <trkpt lat="47.2301" lon="4.66044">
        <ele>505.20001220703</ele>
        <time>2023-06-17T07:25:54.000Z</time>
      </trkpt>
      <trkpt lat="47.23003" lon="4.66023">
        <ele>504.79998779297</ele>
        <time>2023-06-17T07:25:56.000Z</time>
      </trkpt>
      <trkpt lat="47.22987" lon="4.65983">
        <ele>504.20001220703</ele>
        <time>2023-06-17T07:26:00.000Z</time>
      </trkpt>
      <trkpt lat="47.22984" lon="4.65971">
        <ele>503.79998779297</ele>
        <time>2023-06-17T07:26:01.000Z</time>
      </trkpt>
      <trkpt lat="47.22982" lon="4.6596">
        <ele>503.60000610352</ele>
        <time>2023-06-17T07:26:02.000Z</time>
      </trkpt>
      <trkpt lat="47.2298" lon="4.65935">
        <ele>503.20001220703</ele>
        <time>2023-06-17T07:26:04.000Z</time>
      </trkpt>
      <trkpt lat="47.2298" lon="4.65923">
        <ele>502.79998779297</ele>
        <time>2023-06-17T07:26:05.000Z</time>
      </trkpt>
      <trkpt lat="47.22981" lon="4.65899">
        <ele>502.20001220703</ele>
        <time>2023-06-17T07:26:07.000Z</time>
      </trkpt>
      <trkpt lat="47.22981" lon="4.65887">
        <ele>501.60000610352</ele>
        <time>2023-06-17T07:26:08.000Z</time>
      </trkpt>
      <trkpt lat="47.22982" lon="4.65837">
        <ele>500.60000610352</ele>
        <time>2023-06-17T07:26:12.000Z</time>
      </trkpt>
      <trkpt lat="47.22981" lon="4.65801">
        <ele>499.39999389648</ele>
        <time>2023-06-17T07:26:15.000Z</time>
      </trkpt>
      <trkpt lat="47.2298" lon="4.6578">
        <ele>499</ele>
        <time>2023-06-17T07:26:17.000Z</time>
      </trkpt>
      <trkpt lat="47.22978" lon="4.65769">
        <ele>498.79998779297</ele>
        <time>2023-06-17T07:26:18.000Z</time>
      </trkpt>
      <trkpt lat="47.22971" lon="4.65746">
        <ele>498.39999389648</ele>
        <time>2023-06-17T07:26:20.000Z</time>
      </trkpt>
      <trkpt lat="47.22966" lon="4.65732">
        <ele>498</ele>
        <time>2023-06-17T07:26:21.000Z</time>
      </trkpt>
      <trkpt lat="47.22955" lon="4.65696">
        <ele>496.20001220703</ele>
        <time>2023-06-17T07:26:24.000Z</time>
      </trkpt>
      <trkpt lat="47.22946" lon="4.65668">
        <ele>495.20001220703</ele>
        <time>2023-06-17T07:26:26.000Z</time>
      </trkpt>
      <trkpt lat="47.22939" lon="4.6564">
        <ele>494</ele>
        <time>2023-06-17T07:26:28.000Z</time>
      </trkpt>
      <trkpt lat="47.22937" lon="4.65626">
        <ele>493.20001220703</ele>
        <time>2023-06-17T07:26:29.000Z</time>
      </trkpt>
      <trkpt lat="47.22937" lon="4.65612">
        <ele>492.79998779297</ele>
        <time>2023-06-17T07:26:30.000Z</time>
      </trkpt>
      <trkpt lat="47.22937" lon="4.65598">
        <ele>492</ele>
        <time>2023-06-17T07:26:31.000Z</time>
      </trkpt>
      <trkpt lat="47.22938" lon="4.65583">
        <ele>491.39999389648</ele>
        <time>2023-06-17T07:26:32.000Z</time>
      </trkpt>
      <trkpt lat="47.2294" lon="4.65569">
        <ele>490.20001220703</ele>
        <time>2023-06-17T07:26:33.000Z</time>
      </trkpt>
      <trkpt lat="47.22941" lon="4.65555">
        <ele>489.39999389648</ele>
        <time>2023-06-17T07:26:34.000Z</time>
      </trkpt>
      <trkpt lat="47.22941" lon="4.65541">
        <ele>489.20001220703</ele>
        <time>2023-06-17T07:26:35.000Z</time>
      </trkpt>
      <trkpt lat="47.22938" lon="4.65527">
        <ele>488.20001220703</ele>
        <time>2023-06-17T07:26:36.000Z</time>
      </trkpt>
      <trkpt lat="47.22934" lon="4.65514">
        <ele>487.79998779297</ele>
        <time>2023-06-17T07:26:37.000Z</time>
      </trkpt>
      <trkpt lat="47.22924" lon="4.65488">
        <ele>486.60000610352</ele>
        <time>2023-06-17T07:26:39.000Z</time>
      </trkpt>
      <trkpt lat="47.22919" lon="4.65474">
        <ele>485.60000610352</ele>
        <time>2023-06-17T07:26:40.000Z</time>
      </trkpt>
      <trkpt lat="47.22908" lon="4.6545">
        <ele>484.20001220703</ele>
        <time>2023-06-17T07:26:42.000Z</time>
      </trkpt>
      <trkpt lat="47.22902" lon="4.65436">
        <ele>483</ele>
        <time>2023-06-17T07:26:43.000Z</time>
      </trkpt>
      <trkpt lat="47.2289" lon="4.65407">
        <ele>481.60000610352</ele>
        <time>2023-06-17T07:26:45.000Z</time>
      </trkpt>
      <trkpt lat="47.22884" lon="4.65393">
        <ele>480.60000610352</ele>
        <time>2023-06-17T07:26:46.000Z</time>
      </trkpt>
      <trkpt lat="47.22874" lon="4.6537">
        <ele>478.79998779297</ele>
        <time>2023-06-17T07:26:48.000Z</time>
      </trkpt>
      <trkpt lat="47.22868" lon="4.65357">
        <ele>478.39999389648</ele>
        <time>2023-06-17T07:26:49.000Z</time>
      </trkpt>
      <trkpt lat="47.22859" lon="4.65342">
        <ele>477.39999389648</ele>
        <time>2023-06-17T07:26:50.000Z</time>
      </trkpt>
      <trkpt lat="47.22845" lon="4.6532">
        <ele>476.20001220703</ele>
        <time>2023-06-17T07:26:52.000Z</time>
      </trkpt>
      <trkpt lat="47.22836" lon="4.65307">
        <ele>475.39999389648</ele>
        <time>2023-06-17T07:26:53.000Z</time>
      </trkpt>
      <trkpt lat="47.22826" lon="4.65293">
        <ele>475</ele>
        <time>2023-06-17T07:26:54.000Z</time>
      </trkpt>
      <trkpt lat="47.22817" lon="4.65282">
        <ele>473.60000610352</ele>
        <time>2023-06-17T07:26:55.000Z</time>
      </trkpt>
      <trkpt lat="47.228" lon="4.65261">
        <ele>472</ele>
        <time>2023-06-17T07:26:57.000Z</time>
      </trkpt>
      <trkpt lat="47.22779" lon="4.65236">
        <ele>469.60000610352</ele>
        <time>2023-06-17T07:26:59.000Z</time>
      </trkpt>
      <trkpt lat="47.2277" lon="4.65224">
        <ele>468.60000610352</ele>
        <time>2023-06-17T07:27:00.000Z</time>
      </trkpt>
      <trkpt lat="47.22755" lon="4.65203">
        <ele>467.20001220703</ele>
        <time>2023-06-17T07:27:02.000Z</time>
      </trkpt>
      <trkpt lat="47.22738" lon="4.65177">
        <ele>466</ele>
        <time>2023-06-17T07:27:04.000Z</time>
      </trkpt>
      <trkpt lat="47.22732" lon="4.65164">
        <ele>465.20001220703</ele>
        <time>2023-06-17T07:27:05.000Z</time>
      </trkpt>
      <trkpt lat="47.22728" lon="4.6515">
        <ele>464.20001220703</ele>
        <time>2023-06-17T07:27:06.000Z</time>
      </trkpt>
      <trkpt lat="47.22721" lon="4.65122">
        <ele>462.60000610352</ele>
        <time>2023-06-17T07:27:08.000Z</time>
      </trkpt>
      <trkpt lat="47.22718" lon="4.65102">
        <ele>461.60000610352</ele>
        <time>2023-06-17T07:27:09.000Z</time>
      </trkpt>
      <trkpt lat="47.2271" lon="4.6507">
        <ele>459.79998779297</ele>
        <time>2023-06-17T07:27:11.000Z</time>
      </trkpt>
      <trkpt lat="47.22706" lon="4.65055">
        <ele>458.60000610352</ele>
        <time>2023-06-17T07:27:12.000Z</time>
      </trkpt>
      <trkpt lat="47.22701" lon="4.65039">
        <ele>458</ele>
        <time>2023-06-17T07:27:13.000Z</time>
      </trkpt>
      <trkpt lat="47.22696" lon="4.65024">
        <ele>456.79998779297</ele>
        <time>2023-06-17T07:27:14.000Z</time>
      </trkpt>
      <trkpt lat="47.22685" lon="4.64995">
        <ele>455.39999389648</ele>
        <time>2023-06-17T07:27:16.000Z</time>
      </trkpt>
      <trkpt lat="47.22673" lon="4.64968">
        <ele>453.60000610352</ele>
        <time>2023-06-17T07:27:18.000Z</time>
      </trkpt>
      <trkpt lat="47.22666" lon="4.64955">
        <ele>452.20001220703</ele>
        <time>2023-06-17T07:27:19.000Z</time>
      </trkpt>
      <trkpt lat="47.22651" lon="4.64929">
        <ele>450.79998779297</ele>
        <time>2023-06-17T07:27:21.000Z</time>
      </trkpt>
      <trkpt lat="47.22635" lon="4.64908">
        <ele>448.79998779297</ele>
        <time>2023-06-17T07:27:23.000Z</time>
      </trkpt>
      <trkpt lat="47.22625" lon="4.64898">
        <ele>448.20001220703</ele>
        <time>2023-06-17T07:27:24.000Z</time>
      </trkpt>
      <trkpt lat="47.22613" lon="4.64888">
        <ele>446.79998779297</ele>
        <time>2023-06-17T07:27:25.000Z</time>
      </trkpt>
      <trkpt lat="47.22602" lon="4.64881">
        <ele>445.79998779297</ele>
        <time>2023-06-17T07:27:26.000Z</time>
      </trkpt>
      <trkpt lat="47.2259" lon="4.64874">
        <ele>445.20001220703</ele>
        <time>2023-06-17T07:27:27.000Z</time>
      </trkpt>
      <trkpt lat="47.22579" lon="4.64869">
        <ele>444</ele>
        <time>2023-06-17T07:27:28.000Z</time>
      </trkpt>
      <trkpt lat="47.2257" lon="4.64864">
        <ele>443.39999389648</ele>
        <time>2023-06-17T07:27:29.000Z</time>
      </trkpt>
      <trkpt lat="47.22557" lon="4.64858">
        <ele>442.39999389648</ele>
        <time>2023-06-17T07:27:30.000Z</time>
      </trkpt>
      <trkpt lat="47.22546" lon="4.64852">
        <ele>442</ele>
        <time>2023-06-17T07:27:31.000Z</time>
      </trkpt>
      <trkpt lat="47.22536" lon="4.64846">
        <ele>440.39999389648</ele>
        <time>2023-06-17T07:27:32.000Z</time>
      </trkpt>
      <trkpt lat="47.22515" lon="4.64836">
        <ele>439</ele>
        <time>2023-06-17T07:27:34.000Z</time>
      </trkpt>
      <trkpt lat="47.22505" lon="4.64831">
        <ele>437.79998779297</ele>
        <time>2023-06-17T07:27:35.000Z</time>
      </trkpt>
      <trkpt lat="47.22494" lon="4.64826">
        <ele>437.60000610352</ele>
        <time>2023-06-17T07:27:36.000Z</time>
      </trkpt>
      <trkpt lat="47.22475" lon="4.64814">
        <ele>436.39999389648</ele>
        <time>2023-06-17T07:27:38.000Z</time>
      </trkpt>
      <trkpt lat="47.22458" lon="4.64801">
        <ele>435</ele>
        <time>2023-06-17T07:27:40.000Z</time>
      </trkpt>
      <trkpt lat="47.22412" lon="4.64764">
        <ele>434</ele>
        <time>2023-06-17T07:27:46.000Z</time>
      </trkpt>
      <trkpt lat="47.22378" lon="4.64741">
        <ele>434</ele>
        <time>2023-06-17T07:27:51.000Z</time>
      </trkpt>
      <trkpt lat="47.22333" lon="4.64715">
        <ele>434.20001220703</ele>
        <time>2023-06-17T07:27:58.000Z</time>
      </trkpt>
      <trkpt lat="47.22302" lon="4.64689">
        <ele>434.79998779297</ele>
        <time>2023-06-17T07:28:04.000Z</time>
      </trkpt>
      <trkpt lat="47.22294" lon="4.6468">
        <ele>435.20001220703</ele>
        <time>2023-06-17T07:28:06.000Z</time>
      </trkpt>
      <trkpt lat="47.22277" lon="4.64661">
        <ele>436.20001220703</ele>
        <time>2023-06-17T07:28:10.000Z</time>
      </trkpt>
      <trkpt lat="47.22269" lon="4.64651">
        <ele>436.39999389648</ele>
        <time>2023-06-17T07:28:12.000Z</time>
      </trkpt>
      <trkpt lat="47.2225" lon="4.64618">
        <ele>437.39999389648</ele>
        <time>2023-06-17T07:28:18.000Z</time>
      </trkpt>
      <trkpt lat="47.22222" lon="4.64576">
        <ele>438.39999389648</ele>
        <time>2023-06-17T07:28:26.000Z</time>
      </trkpt>
      <trkpt lat="47.22215" lon="4.64566">
        <ele>438.39999389648</ele>
        <time>2023-06-17T07:28:28.000Z</time>
      </trkpt>
      <trkpt lat="47.22192" lon="4.6454">
        <ele>439.39999389648</ele>
        <time>2023-06-17T07:28:34.000Z</time>
      </trkpt>
      <trkpt lat="47.22188" lon="4.64536">
        <ele>439.60000610352</ele>
        <time>2023-06-17T07:28:35.000Z</time>
      </trkpt>
      <trkpt lat="47.22157" lon="4.64501">
        <ele>440.39999389648</ele>
        <time>2023-06-17T07:28:43.000Z</time>
      </trkpt>
      <trkpt lat="47.22151" lon="4.64491">
        <ele>440.60000610352</ele>
        <time>2023-06-17T07:28:45.000Z</time>
      </trkpt>
      <trkpt lat="47.22119" lon="4.64433">
        <ele>441.60000610352</ele>
        <time>2023-06-17T07:28:55.000Z</time>
      </trkpt>
      <trkpt lat="47.22116" lon="4.64427">
        <ele>441.79998779297</ele>
        <time>2023-06-17T07:28:56.000Z</time>
      </trkpt>
      <trkpt lat="47.22096" lon="4.64391">
        <ele>442.20001220703</ele>
        <time>2023-06-17T07:29:02.000Z</time>
      </trkpt>
      <trkpt lat="47.22085" lon="4.64373">
        <ele>442.39999389648</ele>
        <time>2023-06-17T07:29:05.000Z</time>
      </trkpt>
      <trkpt lat="47.22061" lon="4.64337">
        <ele>442.79998779297</ele>
        <time>2023-06-17T07:29:12.000Z</time>
      </trkpt>
      <trkpt lat="47.22039" lon="4.64315">
        <ele>443.79998779297</ele>
        <time>2023-06-17T07:29:18.000Z</time>
      </trkpt>
      <trkpt lat="47.22033" lon="4.64308">
        <ele>444.39999389648</ele>
        <time>2023-06-17T07:29:20.000Z</time>
      </trkpt>
      <trkpt lat="47.22024" lon="4.64299">
        <ele>445</ele>
        <time>2023-06-17T07:29:23.000Z</time>
      </trkpt>
      <trkpt lat="47.22016" lon="4.64288">
        <ele>445.60000610352</ele>
        <time>2023-06-17T07:29:26.000Z</time>
      </trkpt>
      <trkpt lat="47.22014" lon="4.64285">
        <ele>446</ele>
        <time>2023-06-17T07:29:27.000Z</time>
      </trkpt>
      <trkpt lat="47.22004" lon="4.64271">
        <ele>446.79998779297</ele>
        <time>2023-06-17T07:29:31.000Z</time>
      </trkpt>
      <trkpt lat="47.22002" lon="4.64268">
        <ele>447</ele>
        <time>2023-06-17T07:29:32.000Z</time>
      </trkpt>
      <trkpt lat="47.21988" lon="4.64253">
        <ele>448</ele>
        <time>2023-06-17T07:29:37.000Z</time>
      </trkpt>
      <trkpt lat="47.21981" lon="4.64243">
        <ele>448.79998779297</ele>
        <time>2023-06-17T07:29:40.000Z</time>
      </trkpt>
      <trkpt lat="47.21978" lon="4.64239">
        <ele>449.20001220703</ele>
        <time>2023-06-17T07:29:41.000Z</time>
      </trkpt>
      <trkpt lat="47.21968" lon="4.64226">
        <ele>450.39999389648</ele>
        <time>2023-06-17T07:29:45.000Z</time>
      </trkpt>
      <trkpt lat="47.21958" lon="4.64213">
        <ele>451.39999389648</ele>
        <time>2023-06-17T07:29:49.000Z</time>
      </trkpt>
      <trkpt lat="47.21957" lon="4.6421">
        <ele>451.60000610352</ele>
        <time>2023-06-17T07:29:50.000Z</time>
      </trkpt>
      <trkpt lat="47.21951" lon="4.64192">
        <ele>452.60000610352</ele>
        <time>2023-06-17T07:29:54.000Z</time>
      </trkpt>
      <trkpt lat="47.21947" lon="4.6418">
        <ele>453.79998779297</ele>
        <time>2023-06-17T07:29:57.000Z</time>
      </trkpt>
      <trkpt lat="47.21941" lon="4.64162">
        <ele>454.60000610352</ele>
        <time>2023-06-17T07:30:02.000Z</time>
      </trkpt>
      <trkpt lat="47.21939" lon="4.64159">
        <ele>455</ele>
        <time>2023-06-17T07:30:03.000Z</time>
      </trkpt>
      <trkpt lat="47.21932" lon="4.64153">
        <ele>455.79998779297</ele>
        <time>2023-06-17T07:30:06.000Z</time>
      </trkpt>
      <trkpt lat="47.21929" lon="4.64152">
        <ele>456.39999389648</ele>
        <time>2023-06-17T07:30:07.000Z</time>
      </trkpt>
      <trkpt lat="47.21927" lon="4.64149">
        <ele>456.39999389648</ele>
        <time>2023-06-17T07:30:08.000Z</time>
      </trkpt>
      <trkpt lat="47.21927" lon="4.64146">
        <ele>456.79998779297</ele>
        <time>2023-06-17T07:30:09.000Z</time>
      </trkpt>
      <trkpt lat="47.21927" lon="4.64138">
        <ele>457.39999389648</ele>
        <time>2023-06-17T07:30:11.000Z</time>
      </trkpt>
      <trkpt lat="47.21927" lon="4.64122">
        <ele>458.20001220703</ele>
        <time>2023-06-17T07:30:15.000Z</time>
      </trkpt>
      <trkpt lat="47.21927" lon="4.64117">
        <ele>458.60000610352</ele>
        <time>2023-06-17T07:30:16.000Z</time>
      </trkpt>
      <trkpt lat="47.21927" lon="4.64105">
        <ele>459.79998779297</ele>
        <time>2023-06-17T07:30:19.000Z</time>
      </trkpt>
      <trkpt lat="47.21925" lon="4.64092">
        <ele>460.79998779297</ele>
        <time>2023-06-17T07:30:22.000Z</time>
      </trkpt>
      <trkpt lat="47.21925" lon="4.64088">
        <ele>461.20001220703</ele>
        <time>2023-06-17T07:30:23.000Z</time>
      </trkpt>
      <trkpt lat="47.21925" lon="4.64076">
        <ele>462.60000610352</ele>
        <time>2023-06-17T07:30:26.000Z</time>
      </trkpt>
      <trkpt lat="47.21927" lon="4.64068">
        <ele>463.39999389648</ele>
        <time>2023-06-17T07:30:28.000Z</time>
      </trkpt>
      <trkpt lat="47.21927" lon="4.64063">
        <ele>463.60000610352</ele>
        <time>2023-06-17T07:30:29.000Z</time>
      </trkpt>
      <trkpt lat="47.21927" lon="4.64047">
        <ele>464.60000610352</ele>
        <time>2023-06-17T07:30:32.000Z</time>
      </trkpt>
      <trkpt lat="47.21927" lon="4.64043">
        <ele>465</ele>
        <time>2023-06-17T07:30:33.000Z</time>
      </trkpt>
      <trkpt lat="47.21925" lon="4.64032">
        <ele>465.39999389648</ele>
        <time>2023-06-17T07:30:36.000Z</time>
      </trkpt>
      <trkpt lat="47.21922" lon="4.6403">
        <ele>465.60000610352</ele>
        <time>2023-06-17T07:30:37.000Z</time>
      </trkpt>
      <trkpt lat="47.21914" lon="4.64025">
        <ele>465.60000610352</ele>
        <time>2023-06-17T07:30:40.000Z</time>
      </trkpt>
      <trkpt lat="47.2191" lon="4.64022">
        <ele>465.60000610352</ele>
        <time>2023-06-17T07:30:42.000Z</time>
      </trkpt>
      <trkpt lat="47.2191" lon="4.64019">
        <ele>465.60000610352</ele>
        <time>2023-06-17T07:30:43.000Z</time>
      </trkpt>
      <trkpt lat="47.2191" lon="4.64009">
        <ele>465.20001220703</ele>
        <time>2023-06-17T07:30:48.000Z</time>
      </trkpt>
      <trkpt lat="47.2191" lon="4.64009">
        <ele>465.20001220703</ele>
        <time>2023-06-17T07:30:49.000Z</time>
      </trkpt>
      <trkpt lat="47.21911" lon="4.64004">
        <ele>465.20001220703</ele>
        <time>2023-06-17T07:31:04.000Z</time>
      </trkpt>
      <trkpt lat="47.2191" lon="4.64002">
        <ele>465.20001220703</ele>
        <time>2023-06-17T07:31:05.000Z</time>
      </trkpt>
      <trkpt lat="47.21908" lon="4.64002">
        <ele>465.20001220703</ele>
        <time>2023-06-17T07:31:06.000Z</time>
      </trkpt>
      <trkpt lat="47.21907" lon="4.6401">
        <ele>465</ele>
        <time>2023-06-17T07:31:10.000Z</time>
      </trkpt>
      <trkpt lat="47.21906" lon="4.6402">
        <ele>465.20001220703</ele>
        <time>2023-06-17T07:31:13.000Z</time>
      </trkpt>
      <trkpt lat="47.21904" lon="4.64022">
        <ele>465</ele>
        <time>2023-06-17T07:31:14.000Z</time>
      </trkpt>
      <trkpt lat="47.21897" lon="4.64026">
        <ele>465</ele>
        <time>2023-06-17T07:31:18.000Z</time>
      </trkpt>
      <trkpt lat="47.21897" lon="4.64026">
        <ele>464.79998779297</ele>
        <time>2023-06-17T07:31:19.000Z</time>
      </trkpt>
      <trkpt lat="47.21897" lon="4.64026">
        <ele>465.20001220703</ele>
        <time>2023-06-17T07:31:20.000Z</time>
      </trkpt>
      <trkpt lat="47.21894" lon="4.64028">
        <ele>465.20001220703</ele>
        <time>2023-06-17T07:31:23.000Z</time>
      </trkpt>
      <trkpt lat="47.21892" lon="4.64033">
        <ele>465.20001220703</ele>
        <time>2023-06-17T07:31:25.000Z</time>
      </trkpt>
      <trkpt lat="47.21891" lon="4.64034">
        <ele>465</ele>
        <time>2023-06-17T07:31:27.000Z</time>
      </trkpt>
      <trkpt lat="47.21876" lon="4.6403">
        <ele>464.79998779297</ele>
        <time>2023-06-17T07:31:31.000Z</time>
      </trkpt>
      <trkpt lat="47.21872" lon="4.6403">
        <ele>464.60000610352</ele>
        <time>2023-06-17T07:31:32.000Z</time>
      </trkpt>
      <trkpt lat="47.21863" lon="4.64028">
        <ele>463.79998779297</ele>
        <time>2023-06-17T07:31:36.000Z</time>
      </trkpt>
      <trkpt lat="47.21856" lon="4.64027">
        <ele>463.60000610352</ele>
        <time>2023-06-17T07:31:38.000Z</time>
      </trkpt>
      <trkpt lat="47.21849" lon="4.64025">
        <ele>463</ele>
        <time>2023-06-17T07:31:41.000Z</time>
      </trkpt>
      <trkpt lat="47.21848" lon="4.64024">
        <ele>462.79998779297</ele>
        <time>2023-06-17T07:31:42.000Z</time>
      </trkpt>
      <trkpt lat="47.21845" lon="4.64021">
        <ele>462.39999389648</ele>
        <time>2023-06-17T07:31:44.000Z</time>
      </trkpt>
      <trkpt lat="47.21845" lon="4.6402">
        <ele>462.39999389648</ele>
        <time>2023-06-17T07:31:45.000Z</time>
      </trkpt>
      <trkpt lat="47.21845" lon="4.6402">
        <ele>462</ele>
        <time>2023-06-17T07:31:46.000Z</time>
      </trkpt>
      <trkpt lat="47.21841" lon="4.64014">
        <ele>462.39999389648</ele>
        <time>2023-06-17T07:32:26.000Z</time>
      </trkpt>
      <trkpt lat="47.21839" lon="4.64012">
        <ele>462.39999389648</ele>
        <time>2023-06-17T07:32:29.000Z</time>
      </trkpt>
      <trkpt lat="47.21838" lon="4.6401">
        <ele>462.20001220703</ele>
        <time>2023-06-17T07:32:33.000Z</time>
      </trkpt>
      <trkpt lat="47.21838" lon="4.6401">
        <ele>462</ele>
        <time>2023-06-17T07:32:38.000Z</time>
      </trkpt>
      <trkpt lat="47.21838" lon="4.6401">
        <ele>462</ele>
        <time>2023-06-17T07:32:42.000Z</time>
      </trkpt>
      <trkpt lat="47.21837" lon="4.64003">
        <ele>461.79998779297</ele>
        <time>2023-06-17T07:32:43.000Z</time>
      </trkpt>
      <trkpt lat="47.21837" lon="4.64001">
        <ele>461.79998779297</ele>
        <time>2023-06-17T07:32:44.000Z</time>
      </trkpt>
      <trkpt lat="47.21837" lon="4.64">
        <ele>461.79998779297</ele>
        <time>2023-06-17T07:32:46.000Z</time>
      </trkpt>
      <trkpt lat="47.21837" lon="4.64">
        <ele>461.79998779297</ele>
        <time>2023-06-17T07:32:47.000Z</time>
      </trkpt>
      <trkpt lat="47.21841" lon="4.64009">
        <ele>462.20001220703</ele>
        <time>2023-06-17T07:37:20.000Z</time>
      </trkpt>
      <trkpt lat="47.21844" lon="4.64012">
        <ele>462.39999389648</ele>
        <time>2023-06-17T07:37:23.000Z</time>
      </trkpt>
      <trkpt lat="47.21845" lon="4.64014">
        <ele>462.39999389648</ele>
        <time>2023-06-17T07:37:27.000Z</time>
      </trkpt>
      <trkpt lat="47.21856" lon="4.64023">
        <ele>462.79998779297</ele>
        <time>2023-06-17T07:38:30.000Z</time>
      </trkpt>
      <trkpt lat="47.21859" lon="4.64023">
        <ele>463</ele>
        <time>2023-06-17T07:38:31.000Z</time>
      </trkpt>
      <trkpt lat="47.21872" lon="4.64028">
        <ele>463.20001220703</ele>
        <time>2023-06-17T07:38:36.000Z</time>
      </trkpt>
      <trkpt lat="47.21877" lon="4.6403">
        <ele>463.79998779297</ele>
        <time>2023-06-17T07:38:41.000Z</time>
      </trkpt>
      <trkpt lat="47.21874" lon="4.6403">
        <ele>464.39999389648</ele>
        <time>2023-06-17T07:40:18.000Z</time>
      </trkpt>
      <trkpt lat="47.21867" lon="4.64028">
        <ele>464.39999389648</ele>
        <time>2023-06-17T07:40:20.000Z</time>
      </trkpt>
      <trkpt lat="47.21859" lon="4.64025">
        <ele>464.20001220703</ele>
        <time>2023-06-17T07:40:22.000Z</time>
      </trkpt>
      <trkpt lat="47.21846" lon="4.64024">
        <ele>463.79998779297</ele>
        <time>2023-06-17T07:40:25.000Z</time>
      </trkpt>
      <trkpt lat="47.2184" lon="4.64024">
        <ele>463.79998779297</ele>
        <time>2023-06-17T07:40:26.000Z</time>
      </trkpt>
      <trkpt lat="47.2183" lon="4.64024">
        <ele>463.20001220703</ele>
        <time>2023-06-17T07:40:28.000Z</time>
      </trkpt>
      <trkpt lat="47.2182" lon="4.64025">
        <ele>462.39999389648</ele>
        <time>2023-06-17T07:40:31.000Z</time>
      </trkpt>
      <trkpt lat="47.21819" lon="4.64026">
        <ele>462</ele>
        <time>2023-06-17T07:40:32.000Z</time>
      </trkpt>
      <trkpt lat="47.21817" lon="4.64029">
        <ele>460.79998779297</ele>
        <time>2023-06-17T07:40:34.000Z</time>
      </trkpt>
      <trkpt lat="47.21814" lon="4.64033">
        <ele>459.79998779297</ele>
        <time>2023-06-17T07:40:38.000Z</time>
      </trkpt>
      <trkpt lat="47.2181" lon="4.64034">
        <ele>459.39999389648</ele>
        <time>2023-06-17T07:40:41.000Z</time>
      </trkpt>
      <trkpt lat="47.21809" lon="4.64034">
        <ele>459</ele>
        <time>2023-06-17T07:40:45.000Z</time>
      </trkpt>
      <trkpt lat="47.21814" lon="4.64043">
        <ele>458.79998779297</ele>
        <time>2023-06-17T07:42:46.000Z</time>
      </trkpt>
      <trkpt lat="47.21813" lon="4.64063">
        <ele>458.20001220703</ele>
        <time>2023-06-17T07:42:51.000Z</time>
      </trkpt>
      <trkpt lat="47.21809" lon="4.64082">
        <ele>457.60000610352</ele>
        <time>2023-06-17T07:42:54.000Z</time>
      </trkpt>
      <trkpt lat="47.21805" lon="4.64087">
        <ele>457.39999389648</ele>
        <time>2023-06-17T07:42:55.000Z</time>
      </trkpt>
      <trkpt lat="47.21799" lon="4.64095">
        <ele>456.60000610352</ele>
        <time>2023-06-17T07:42:57.000Z</time>
      </trkpt>
      <trkpt lat="47.21796" lon="4.64098">
        <ele>456</ele>
        <time>2023-06-17T07:42:58.000Z</time>
      </trkpt>
      <trkpt lat="47.21793" lon="4.64099">
        <ele>455.79998779297</ele>
        <time>2023-06-17T07:42:59.000Z</time>
      </trkpt>
      <trkpt lat="47.21787" lon="4.64099">
        <ele>455.39999389648</ele>
        <time>2023-06-17T07:43:00.000Z</time>
      </trkpt>
      <trkpt lat="47.21782" lon="4.641">
        <ele>454.79998779297</ele>
        <time>2023-06-17T07:43:01.000Z</time>
      </trkpt>
      <trkpt lat="47.21775" lon="4.64101">
        <ele>454.39999389648</ele>
        <time>2023-06-17T07:43:02.000Z</time>
      </trkpt>
      <trkpt lat="47.21769" lon="4.64102">
        <ele>453.79998779297</ele>
        <time>2023-06-17T07:43:03.000Z</time>
      </trkpt>
      <trkpt lat="47.21762" lon="4.64102">
        <ele>453.20001220703</ele>
        <time>2023-06-17T07:43:04.000Z</time>
      </trkpt>
      <trkpt lat="47.21747" lon="4.64103">
        <ele>451.79998779297</ele>
        <time>2023-06-17T07:43:06.000Z</time>
      </trkpt>
      <trkpt lat="47.21735" lon="4.64101">
        <ele>450.60000610352</ele>
        <time>2023-06-17T07:43:08.000Z</time>
      </trkpt>
      <trkpt lat="47.21727" lon="4.641">
        <ele>450.20001220703</ele>
        <time>2023-06-17T07:43:09.000Z</time>
      </trkpt>
      <trkpt lat="47.2172" lon="4.64098">
        <ele>449.60000610352</ele>
        <time>2023-06-17T07:43:10.000Z</time>
      </trkpt>
      <trkpt lat="47.21711" lon="4.64096">
        <ele>449.20001220703</ele>
        <time>2023-06-17T07:43:11.000Z</time>
      </trkpt>
      <trkpt lat="47.21697" lon="4.64094">
        <ele>448.20001220703</ele>
        <time>2023-06-17T07:43:13.000Z</time>
      </trkpt>
      <trkpt lat="47.21692" lon="4.64093">
        <ele>448</ele>
        <time>2023-06-17T07:43:14.000Z</time>
      </trkpt>
      <trkpt lat="47.21686" lon="4.64091">
        <ele>446.60000610352</ele>
        <time>2023-06-17T07:43:15.000Z</time>
      </trkpt>
      <trkpt lat="47.2168" lon="4.64089">
        <ele>446.20001220703</ele>
        <time>2023-06-17T07:43:16.000Z</time>
      </trkpt>
      <trkpt lat="47.21677" lon="4.64088">
        <ele>445.60000610352</ele>
        <time>2023-06-17T07:43:17.000Z</time>
      </trkpt>
      <trkpt lat="47.21669" lon="4.64083">
        <ele>443.79998779297</ele>
        <time>2023-06-17T07:43:20.000Z</time>
      </trkpt>
      <trkpt lat="47.21666" lon="4.6408">
        <ele>443.60000610352</ele>
        <time>2023-06-17T07:43:21.000Z</time>
      </trkpt>
      <trkpt lat="47.2166" lon="4.64066">
        <ele>442.60000610352</ele>
        <time>2023-06-17T07:43:24.000Z</time>
      </trkpt>
      <trkpt lat="47.21658" lon="4.64059">
        <ele>442.39999389648</ele>
        <time>2023-06-17T07:43:25.000Z</time>
      </trkpt>
      <trkpt lat="47.21657" lon="4.64044">
        <ele>441.79998779297</ele>
        <time>2023-06-17T07:43:27.000Z</time>
      </trkpt>
      <trkpt lat="47.21656" lon="4.64028">
        <ele>441.39999389648</ele>
        <time>2023-06-17T07:43:29.000Z</time>
      </trkpt>
      <trkpt lat="47.21657" lon="4.64009">
        <ele>441</ele>
        <time>2023-06-17T07:43:31.000Z</time>
      </trkpt>
      <trkpt lat="47.21662" lon="4.63993">
        <ele>440.60000610352</ele>
        <time>2023-06-17T07:43:33.000Z</time>
      </trkpt>
      <trkpt lat="47.21665" lon="4.63987">
        <ele>440</ele>
        <time>2023-06-17T07:43:34.000Z</time>
      </trkpt>
      <trkpt lat="47.2168" lon="4.6395">
        <ele>439.20001220703</ele>
        <time>2023-06-17T07:43:38.000Z</time>
      </trkpt>
      <trkpt lat="47.21685" lon="4.6394">
        <ele>438.79998779297</ele>
        <time>2023-06-17T07:43:39.000Z</time>
      </trkpt>
      <trkpt lat="47.21692" lon="4.63922">
        <ele>437.60000610352</ele>
        <time>2023-06-17T07:43:41.000Z</time>
      </trkpt>
      <trkpt lat="47.21699" lon="4.63904">
        <ele>436.39999389648</ele>
        <time>2023-06-17T07:43:43.000Z</time>
      </trkpt>
      <trkpt lat="47.21701" lon="4.63895">
        <ele>436</ele>
        <time>2023-06-17T07:43:44.000Z</time>
      </trkpt>
      <trkpt lat="47.21702" lon="4.63886">
        <ele>435</ele>
        <time>2023-06-17T07:43:45.000Z</time>
      </trkpt>
      <trkpt lat="47.21702" lon="4.63877">
        <ele>433.79998779297</ele>
        <time>2023-06-17T07:43:46.000Z</time>
      </trkpt>
      <trkpt lat="47.217" lon="4.63866">
        <ele>433.39999389648</ele>
        <time>2023-06-17T07:43:47.000Z</time>
      </trkpt>
      <trkpt lat="47.21698" lon="4.63859">
        <ele>432.60000610352</ele>
        <time>2023-06-17T07:43:48.000Z</time>
      </trkpt>
      <trkpt lat="47.21693" lon="4.63839">
        <ele>431.39999389648</ele>
        <time>2023-06-17T07:43:50.000Z</time>
      </trkpt>
      <trkpt lat="47.21685" lon="4.63817">
        <ele>429.79998779297</ele>
        <time>2023-06-17T07:43:52.000Z</time>
      </trkpt>
      <trkpt lat="47.2168" lon="4.63798">
        <ele>428</ele>
        <time>2023-06-17T07:43:54.000Z</time>
      </trkpt>
      <trkpt lat="47.21677" lon="4.63788">
        <ele>426.79998779297</ele>
        <time>2023-06-17T07:43:55.000Z</time>
      </trkpt>
      <trkpt lat="47.21673" lon="4.63764">
        <ele>424.60000610352</ele>
        <time>2023-06-17T07:43:57.000Z</time>
      </trkpt>
      <trkpt lat="47.21674" lon="4.63753">
        <ele>423</ele>
        <time>2023-06-17T07:43:58.000Z</time>
      </trkpt>
      <trkpt lat="47.21675" lon="4.63743">
        <ele>422.20001220703</ele>
        <time>2023-06-17T07:43:59.000Z</time>
      </trkpt>
      <trkpt lat="47.21679" lon="4.63733">
        <ele>420.79998779297</ele>
        <time>2023-06-17T07:44:00.000Z</time>
      </trkpt>
      <trkpt lat="47.21684" lon="4.63724">
        <ele>420.39999389648</ele>
        <time>2023-06-17T07:44:01.000Z</time>
      </trkpt>
      <trkpt lat="47.2169" lon="4.63716">
        <ele>418.79998779297</ele>
        <time>2023-06-17T07:44:02.000Z</time>
      </trkpt>
      <trkpt lat="47.21704" lon="4.637">
        <ele>416.39999389648</ele>
        <time>2023-06-17T07:44:04.000Z</time>
      </trkpt>
      <trkpt lat="47.21711" lon="4.63692">
        <ele>415.39999389648</ele>
        <time>2023-06-17T07:44:05.000Z</time>
      </trkpt>
      <trkpt lat="47.21724" lon="4.63676">
        <ele>413.39999389648</ele>
        <time>2023-06-17T07:44:07.000Z</time>
      </trkpt>
      <trkpt lat="47.21738" lon="4.6366">
        <ele>411.39999389648</ele>
        <time>2023-06-17T07:44:09.000Z</time>
      </trkpt>
      <trkpt lat="47.21744" lon="4.63652">
        <ele>410.79998779297</ele>
        <time>2023-06-17T07:44:10.000Z</time>
      </trkpt>
      <trkpt lat="47.21751" lon="4.63644">
        <ele>409.39999389648</ele>
        <time>2023-06-17T07:44:11.000Z</time>
      </trkpt>
      <trkpt lat="47.21756" lon="4.63638">
        <ele>408</ele>
        <time>2023-06-17T07:44:12.000Z</time>
      </trkpt>
      <trkpt lat="47.21771" lon="4.6362">
        <ele>405.79998779297</ele>
        <time>2023-06-17T07:44:14.000Z</time>
      </trkpt>
      <trkpt lat="47.21782" lon="4.63606">
        <ele>403.79998779297</ele>
        <time>2023-06-17T07:44:16.000Z</time>
      </trkpt>
      <trkpt lat="47.21797" lon="4.63589">
        <ele>401.79998779297</ele>
        <time>2023-06-17T07:44:18.000Z</time>
      </trkpt>
      <trkpt lat="47.21802" lon="4.63583">
        <ele>400.20001220703</ele>
        <time>2023-06-17T07:44:19.000Z</time>
      </trkpt>
      <trkpt lat="47.21808" lon="4.63574">
        <ele>399.60000610352</ele>
        <time>2023-06-17T07:44:20.000Z</time>
      </trkpt>
      <trkpt lat="47.21814" lon="4.63566">
        <ele>398.39999389648</ele>
        <time>2023-06-17T07:44:21.000Z</time>
      </trkpt>
      <trkpt lat="47.21827" lon="4.63551">
        <ele>396.79998779297</ele>
        <time>2023-06-17T07:44:23.000Z</time>
      </trkpt>
      <trkpt lat="47.21839" lon="4.63535">
        <ele>394.39999389648</ele>
        <time>2023-06-17T07:44:25.000Z</time>
      </trkpt>
      <trkpt lat="47.21846" lon="4.63526">
        <ele>392.60000610352</ele>
        <time>2023-06-17T07:44:26.000Z</time>
      </trkpt>
      <trkpt lat="47.21859" lon="4.6351">
        <ele>390.60000610352</ele>
        <time>2023-06-17T07:44:28.000Z</time>
      </trkpt>
      <trkpt lat="47.21866" lon="4.63501">
        <ele>390</ele>
        <time>2023-06-17T07:44:29.000Z</time>
      </trkpt>
      <trkpt lat="47.21872" lon="4.63493">
        <ele>388.79998779297</ele>
        <time>2023-06-17T07:44:30.000Z</time>
      </trkpt>
      <trkpt lat="47.21878" lon="4.63485">
        <ele>387</ele>
        <time>2023-06-17T07:44:31.000Z</time>
      </trkpt>
      <trkpt lat="47.2189" lon="4.63472">
        <ele>384.60000610352</ele>
        <time>2023-06-17T07:44:33.000Z</time>
      </trkpt>
      <trkpt lat="47.21899" lon="4.63459">
        <ele>382.39999389648</ele>
        <time>2023-06-17T07:44:35.000Z</time>
      </trkpt>
      <trkpt lat="47.21902" lon="4.63443">
        <ele>380.39999389648</ele>
        <time>2023-06-17T07:44:37.000Z</time>
      </trkpt>
      <trkpt lat="47.21899" lon="4.63437">
        <ele>378.39999389648</ele>
        <time>2023-06-17T07:44:38.000Z</time>
      </trkpt>
      <trkpt lat="47.21893" lon="4.63432">
        <ele>377.79998779297</ele>
        <time>2023-06-17T07:44:39.000Z</time>
      </trkpt>
      <trkpt lat="47.21887" lon="4.63429">
        <ele>376.60000610352</ele>
        <time>2023-06-17T07:44:40.000Z</time>
      </trkpt>
      <trkpt lat="47.21871" lon="4.6342">
        <ele>374.79998779297</ele>
        <time>2023-06-17T07:44:42.000Z</time>
      </trkpt>
      <trkpt lat="47.21863" lon="4.63415">
        <ele>374.39999389648</ele>
        <time>2023-06-17T07:44:43.000Z</time>
      </trkpt>
      <trkpt lat="47.21854" lon="4.63411">
        <ele>373.20001220703</ele>
        <time>2023-06-17T07:44:44.000Z</time>
      </trkpt>
      <trkpt lat="47.21845" lon="4.63406">
        <ele>371.39999389648</ele>
        <time>2023-06-17T07:44:45.000Z</time>
      </trkpt>
      <trkpt lat="47.21827" lon="4.63396">
        <ele>369.79998779297</ele>
        <time>2023-06-17T07:44:47.000Z</time>
      </trkpt>
      <trkpt lat="47.21816" lon="4.6339">
        <ele>368.39999389648</ele>
        <time>2023-06-17T07:44:48.000Z</time>
      </trkpt>
      <trkpt lat="47.21809" lon="4.63386">
        <ele>366.79998779297</ele>
        <time>2023-06-17T07:44:49.000Z</time>
      </trkpt>
      <trkpt lat="47.218" lon="4.63382">
        <ele>364.20001220703</ele>
        <time>2023-06-17T07:44:51.000Z</time>
      </trkpt>
      <trkpt lat="47.21783" lon="4.63372">
        <ele>363</ele>
        <time>2023-06-17T07:44:52.000Z</time>
      </trkpt>
      <trkpt lat="47.21765" lon="4.63363">
        <ele>361.20001220703</ele>
        <time>2023-06-17T07:44:54.000Z</time>
      </trkpt>
      <trkpt lat="47.21748" lon="4.63354">
        <ele>358.39999389648</ele>
        <time>2023-06-17T07:44:56.000Z</time>
      </trkpt>
      <trkpt lat="47.2174" lon="4.63347">
        <ele>357.20001220703</ele>
        <time>2023-06-17T07:44:57.000Z</time>
      </trkpt>
      <trkpt lat="47.21732" lon="4.63338">
        <ele>355</ele>
        <time>2023-06-17T07:44:58.000Z</time>
      </trkpt>
      <trkpt lat="47.21726" lon="4.63326">
        <ele>353.60000610352</ele>
        <time>2023-06-17T07:44:59.000Z</time>
      </trkpt>
      <trkpt lat="47.21722" lon="4.63312">
        <ele>353.20001220703</ele>
        <time>2023-06-17T07:45:00.000Z</time>
      </trkpt>
      <trkpt lat="47.21719" lon="4.63297">
        <ele>352</ele>
        <time>2023-06-17T07:45:01.000Z</time>
      </trkpt>
      <trkpt lat="47.21716" lon="4.63282">
        <ele>351.20001220703</ele>
        <time>2023-06-17T07:45:02.000Z</time>
      </trkpt>
      <trkpt lat="47.21712" lon="4.63265">
        <ele>350.20001220703</ele>
        <time>2023-06-17T07:45:03.000Z</time>
      </trkpt>
      <trkpt lat="47.21703" lon="4.6324">
        <ele>348.79998779297</ele>
        <time>2023-06-17T07:45:05.000Z</time>
      </trkpt>
      <trkpt lat="47.21693" lon="4.63216">
        <ele>347.39999389648</ele>
        <time>2023-06-17T07:45:07.000Z</time>
      </trkpt>
      <trkpt lat="47.21688" lon="4.63205">
        <ele>346.39999389648</ele>
        <time>2023-06-17T07:45:08.000Z</time>
      </trkpt>
      <trkpt lat="47.21678" lon="4.63183">
        <ele>345.20001220703</ele>
        <time>2023-06-17T07:45:10.000Z</time>
      </trkpt>
      <trkpt lat="47.2167" lon="4.63165">
        <ele>344</ele>
        <time>2023-06-17T07:45:12.000Z</time>
      </trkpt>
      <trkpt lat="47.21653" lon="4.63121">
        <ele>343.20001220703</ele>
        <time>2023-06-17T07:45:16.000Z</time>
      </trkpt>
      <trkpt lat="47.21649" lon="4.63111">
        <ele>343</ele>
        <time>2023-06-17T07:45:17.000Z</time>
      </trkpt>
      <trkpt lat="47.21634" lon="4.63072">
        <ele>342.60000610352</ele>
        <time>2023-06-17T07:45:21.000Z</time>
      </trkpt>
      <trkpt lat="47.21613" lon="4.63017">
        <ele>342.39999389648</ele>
        <time>2023-06-17T07:45:27.000Z</time>
      </trkpt>
      <trkpt lat="47.21593" lon="4.62964">
        <ele>342.20001220703</ele>
        <time>2023-06-17T07:45:33.000Z</time>
      </trkpt>
      <trkpt lat="47.21577" lon="4.62922">
        <ele>342</ele>
        <time>2023-06-17T07:45:38.000Z</time>
      </trkpt>
      <trkpt lat="47.21561" lon="4.62871">
        <ele>342.60000610352</ele>
        <time>2023-06-17T07:45:44.000Z</time>
      </trkpt>
      <trkpt lat="47.21552" lon="4.62842">
        <ele>343</ele>
        <time>2023-06-17T07:45:49.000Z</time>
      </trkpt>
      <trkpt lat="47.2155" lon="4.62837">
        <ele>343.20001220703</ele>
        <time>2023-06-17T07:45:50.000Z</time>
      </trkpt>
      <trkpt lat="47.21542" lon="4.62819">
        <ele>344.39999389648</ele>
        <time>2023-06-17T07:45:54.000Z</time>
      </trkpt>
      <trkpt lat="47.2154" lon="4.62814">
        <ele>345</ele>
        <time>2023-06-17T07:45:55.000Z</time>
      </trkpt>
      <trkpt lat="47.21536" lon="4.62806">
        <ele>345.60000610352</ele>
        <time>2023-06-17T07:45:57.000Z</time>
      </trkpt>
      <trkpt lat="47.21532" lon="4.628">
        <ele>346</ele>
        <time>2023-06-17T07:45:59.000Z</time>
      </trkpt>
      <trkpt lat="47.21529" lon="4.62798">
        <ele>346</ele>
        <time>2023-06-17T07:46:00.000Z</time>
      </trkpt>
      <trkpt lat="47.21526" lon="4.62799">
        <ele>346</ele>
        <time>2023-06-17T07:46:01.000Z</time>
      </trkpt>
      <trkpt lat="47.21519" lon="4.62806">
        <ele>346.20001220703</ele>
        <time>2023-06-17T07:46:03.000Z</time>
      </trkpt>
      <trkpt lat="47.21506" lon="4.62819">
        <ele>346</ele>
        <time>2023-06-17T07:46:06.000Z</time>
      </trkpt>
      <trkpt lat="47.21496" lon="4.62827">
        <ele>345.60000610352</ele>
        <time>2023-06-17T07:46:08.000Z</time>
      </trkpt>
      <trkpt lat="47.2149" lon="4.62831">
        <ele>345</ele>
        <time>2023-06-17T07:46:09.000Z</time>
      </trkpt>
      <trkpt lat="47.21484" lon="4.62835">
        <ele>344.39999389648</ele>
        <time>2023-06-17T07:46:10.000Z</time>
      </trkpt>
      <trkpt lat="47.21478" lon="4.62839">
        <ele>344.20001220703</ele>
        <time>2023-06-17T07:46:11.000Z</time>
      </trkpt>
      <trkpt lat="47.21472" lon="4.62844">
        <ele>343.60000610352</ele>
        <time>2023-06-17T07:46:12.000Z</time>
      </trkpt>
      <trkpt lat="47.21466" lon="4.6285">
        <ele>343.39999389648</ele>
        <time>2023-06-17T07:46:13.000Z</time>
      </trkpt>
      <trkpt lat="47.2145" lon="4.62868">
        <ele>342</ele>
        <time>2023-06-17T07:46:16.000Z</time>
      </trkpt>
      <trkpt lat="47.21433" lon="4.62885">
        <ele>341.60000610352</ele>
        <time>2023-06-17T07:46:19.000Z</time>
      </trkpt>
      <trkpt lat="47.21387" lon="4.62931">
        <ele>341.60000610352</ele>
        <time>2023-06-17T07:46:27.000Z</time>
      </trkpt>
      <trkpt lat="47.21376" lon="4.62944">
        <ele>341.39999389648</ele>
        <time>2023-06-17T07:46:29.000Z</time>
      </trkpt>
      <trkpt lat="47.21333" lon="4.62996">
        <ele>341.20001220703</ele>
        <time>2023-06-17T07:46:37.000Z</time>
      </trkpt>
      <trkpt lat="47.21322" lon="4.63007">
        <ele>341.20001220703</ele>
        <time>2023-06-17T07:46:39.000Z</time>
      </trkpt>
      <trkpt lat="47.21316" lon="4.63013">
        <ele>341.20001220703</ele>
        <time>2023-06-17T07:46:40.000Z</time>
      </trkpt>
      <trkpt lat="47.21274" lon="4.63046">
        <ele>341</ele>
        <time>2023-06-17T07:46:47.000Z</time>
      </trkpt>
      <trkpt lat="47.21247" lon="4.63056">
        <ele>341</ele>
        <time>2023-06-17T07:46:51.000Z</time>
      </trkpt>
      <trkpt lat="47.2124" lon="4.63056">
        <ele>341</ele>
        <time>2023-06-17T07:46:52.000Z</time>
      </trkpt>
      <trkpt lat="47.21196" lon="4.6306">
        <ele>340.60000610352</ele>
        <time>2023-06-17T07:46:59.000Z</time>
      </trkpt>
      <trkpt lat="47.21164" lon="4.63067">
        <ele>340.60000610352</ele>
        <time>2023-06-17T07:47:05.000Z</time>
      </trkpt>
      <trkpt lat="47.21159" lon="4.63057">
        <ele>340.60000610352</ele>
        <time>2023-06-17T07:47:07.000Z</time>
      </trkpt>
      <trkpt lat="47.21159" lon="4.6305">
        <ele>340.60000610352</ele>
        <time>2023-06-17T07:47:08.000Z</time>
      </trkpt>
      <trkpt lat="47.2116" lon="4.63033">
        <ele>340.60000610352</ele>
        <time>2023-06-17T07:47:10.000Z</time>
      </trkpt>
      <trkpt lat="47.21161" lon="4.63024">
        <ele>340.60000610352</ele>
        <time>2023-06-17T07:47:11.000Z</time>
      </trkpt>
      <trkpt lat="47.21163" lon="4.63008">
        <ele>340.60000610352</ele>
        <time>2023-06-17T07:47:13.000Z</time>
      </trkpt>
      <trkpt lat="47.21162" lon="4.62992">
        <ele>340.60000610352</ele>
        <time>2023-06-17T07:47:15.000Z</time>
      </trkpt>
      <trkpt lat="47.2116" lon="4.62984">
        <ele>340.39999389648</ele>
        <time>2023-06-17T07:47:16.000Z</time>
      </trkpt>
      <trkpt lat="47.21155" lon="4.62967">
        <ele>340.39999389648</ele>
        <time>2023-06-17T07:47:18.000Z</time>
      </trkpt>
      <trkpt lat="47.21149" lon="4.6295">
        <ele>340.20001220703</ele>
        <time>2023-06-17T07:47:20.000Z</time>
      </trkpt>
      <trkpt lat="47.21142" lon="4.62934">
        <ele>340.20001220703</ele>
        <time>2023-06-17T07:47:22.000Z</time>
      </trkpt>
      <trkpt lat="47.2113" lon="4.62904">
        <ele>340</ele>
        <time>2023-06-17T07:47:26.000Z</time>
      </trkpt>
      <trkpt lat="47.21127" lon="4.62898">
        <ele>340</ele>
        <time>2023-06-17T07:47:27.000Z</time>
      </trkpt>
      <trkpt lat="47.21122" lon="4.62893">
        <ele>340</ele>
        <time>2023-06-17T07:47:28.000Z</time>
      </trkpt>
      <trkpt lat="47.21112" lon="4.62884">
        <ele>340</ele>
        <time>2023-06-17T07:47:30.000Z</time>
      </trkpt>
      <trkpt lat="47.21108" lon="4.62879">
        <ele>340</ele>
        <time>2023-06-17T07:47:31.000Z</time>
      </trkpt>
      <trkpt lat="47.21106" lon="4.62873">
        <ele>340.20001220703</ele>
        <time>2023-06-17T07:47:32.000Z</time>
      </trkpt>
      <trkpt lat="47.21104" lon="4.62858">
        <ele>340.39999389648</ele>
        <time>2023-06-17T07:47:34.000Z</time>
      </trkpt>
      <trkpt lat="47.21104" lon="4.62843">
        <ele>341</ele>
        <time>2023-06-17T07:47:36.000Z</time>
      </trkpt>
      <trkpt lat="47.21103" lon="4.62828">
        <ele>341.39999389648</ele>
        <time>2023-06-17T07:47:38.000Z</time>
      </trkpt>
      <trkpt lat="47.21101" lon="4.6281">
        <ele>342</ele>
        <time>2023-06-17T07:47:40.000Z</time>
      </trkpt>
      <trkpt lat="47.21088" lon="4.62757">
        <ele>342.39999389648</ele>
        <time>2023-06-17T07:47:46.000Z</time>
      </trkpt>
      <trkpt lat="47.21069" lon="4.6268">
        <ele>343.20001220703</ele>
        <time>2023-06-17T07:47:55.000Z</time>
      </trkpt>
      <trkpt lat="47.21065" lon="4.62663">
        <ele>343.39999389648</ele>
        <time>2023-06-17T07:47:57.000Z</time>
      </trkpt>
      <trkpt lat="47.21054" lon="4.62623">
        <ele>343.60000610352</ele>
        <time>2023-06-17T07:48:02.000Z</time>
      </trkpt>
      <trkpt lat="47.21027" lon="4.62559">
        <ele>344.60000610352</ele>
        <time>2023-06-17T07:48:11.000Z</time>
      </trkpt>
      <trkpt lat="47.21024" lon="4.62553">
        <ele>345</ele>
        <time>2023-06-17T07:48:12.000Z</time>
      </trkpt>
      <trkpt lat="47.21016" lon="4.62534">
        <ele>345.79998779297</ele>
        <time>2023-06-17T07:48:15.000Z</time>
      </trkpt>
      <trkpt lat="47.21004" lon="4.62507">
        <ele>347</ele>
        <time>2023-06-17T07:48:19.000Z</time>
      </trkpt>
      <trkpt lat="47.21001" lon="4.62501">
        <ele>347.20001220703</ele>
        <time>2023-06-17T07:48:20.000Z</time>
      </trkpt>
      <trkpt lat="47.2098" lon="4.62456">
        <ele>348</ele>
        <time>2023-06-17T07:48:27.000Z</time>
      </trkpt>
      <trkpt lat="47.2097" lon="4.62436">
        <ele>348.20001220703</ele>
        <time>2023-06-17T07:48:30.000Z</time>
      </trkpt>
      <trkpt lat="47.20948" lon="4.6239">
        <ele>349</ele>
        <time>2023-06-17T07:48:37.000Z</time>
      </trkpt>
      <trkpt lat="47.20945" lon="4.62384">
        <ele>349.20001220703</ele>
        <time>2023-06-17T07:48:38.000Z</time>
      </trkpt>
      <trkpt lat="47.20931" lon="4.62355">
        <ele>350.39999389648</ele>
        <time>2023-06-17T07:48:43.000Z</time>
      </trkpt>
      <trkpt lat="47.20928" lon="4.62349">
        <ele>350.60000610352</ele>
        <time>2023-06-17T07:48:44.000Z</time>
      </trkpt>
      <trkpt lat="47.20921" lon="4.62331">
        <ele>351</ele>
        <time>2023-06-17T07:48:47.000Z</time>
      </trkpt>
      <trkpt lat="47.20916" lon="4.6232">
        <ele>351.60000610352</ele>
        <time>2023-06-17T07:48:49.000Z</time>
      </trkpt>
      <trkpt lat="47.20914" lon="4.62316">
        <ele>351.79998779297</ele>
        <time>2023-06-17T07:48:50.000Z</time>
      </trkpt>
      <trkpt lat="47.20911" lon="4.6231">
        <ele>352</ele>
        <time>2023-06-17T07:48:51.000Z</time>
      </trkpt>
      <trkpt lat="47.20903" lon="4.62297">
        <ele>352.39999389648</ele>
        <time>2023-06-17T07:48:54.000Z</time>
      </trkpt>
      <trkpt lat="47.209" lon="4.62293">
        <ele>352.60000610352</ele>
        <time>2023-06-17T07:48:55.000Z</time>
      </trkpt>
      <trkpt lat="47.20895" lon="4.62289">
        <ele>352.60000610352</ele>
        <time>2023-06-17T07:48:56.000Z</time>
      </trkpt>
      <trkpt lat="47.20878" lon="4.62277">
        <ele>353.79998779297</ele>
        <time>2023-06-17T07:49:00.000Z</time>
      </trkpt>
      <trkpt lat="47.20864" lon="4.62268">
        <ele>354.39999389648</ele>
        <time>2023-06-17T07:49:03.000Z</time>
      </trkpt>
      <trkpt lat="47.20854" lon="4.62262">
        <ele>355.20001220703</ele>
        <time>2023-06-17T07:49:05.000Z</time>
      </trkpt>
      <trkpt lat="47.20835" lon="4.6225">
        <ele>356.20001220703</ele>
        <time>2023-06-17T07:49:09.000Z</time>
      </trkpt>
      <trkpt lat="47.20823" lon="4.62245">
        <ele>356.39999389648</ele>
        <time>2023-06-17T07:49:11.000Z</time>
      </trkpt>
      <trkpt lat="47.20804" lon="4.62232">
        <ele>356.60000610352</ele>
        <time>2023-06-17T07:49:15.000Z</time>
      </trkpt>
      <trkpt lat="47.20796" lon="4.62218">
        <ele>356.60000610352</ele>
        <time>2023-06-17T07:49:17.000Z</time>
      </trkpt>
      <trkpt lat="47.20796" lon="4.622">
        <ele>356.60000610352</ele>
        <time>2023-06-17T07:49:19.000Z</time>
      </trkpt>
      <trkpt lat="47.20798" lon="4.62191">
        <ele>356.60000610352</ele>
        <time>2023-06-17T07:49:20.000Z</time>
      </trkpt>
      <trkpt lat="47.208" lon="4.62183">
        <ele>356.39999389648</ele>
        <time>2023-06-17T07:49:21.000Z</time>
      </trkpt>
      <trkpt lat="47.20812" lon="4.62146">
        <ele>356.39999389648</ele>
        <time>2023-06-17T07:49:26.000Z</time>
      </trkpt>
      <trkpt lat="47.20824" lon="4.62103">
        <ele>357</ele>
        <time>2023-06-17T07:49:32.000Z</time>
      </trkpt>
      <trkpt lat="47.20823" lon="4.62088">
        <ele>357.20001220703</ele>
        <time>2023-06-17T07:49:34.000Z</time>
      </trkpt>
      <trkpt lat="47.20821" lon="4.62082">
        <ele>357.39999389648</ele>
        <time>2023-06-17T07:49:35.000Z</time>
      </trkpt>
      <trkpt lat="47.20817" lon="4.62076">
        <ele>357.79998779297</ele>
        <time>2023-06-17T07:49:36.000Z</time>
      </trkpt>
      <trkpt lat="47.20801" lon="4.62058">
        <ele>359</ele>
        <time>2023-06-17T07:49:40.000Z</time>
      </trkpt>
      <trkpt lat="47.20792" lon="4.62046">
        <ele>359.79998779297</ele>
        <time>2023-06-17T07:49:44.000Z</time>
      </trkpt>
      <trkpt lat="47.20792" lon="4.62046">
        <ele>360.20001220703</ele>
        <time>2023-06-17T07:49:45.000Z</time>
      </trkpt>
      <trkpt lat="47.20792" lon="4.62046">
        <ele>360.39999389648</ele>
        <time>2023-06-17T07:49:46.000Z</time>
      </trkpt>
      <trkpt lat="47.20788" lon="4.62043">
        <ele>360.79998779297</ele>
        <time>2023-06-17T07:49:54.000Z</time>
      </trkpt>
      <trkpt lat="47.20778" lon="4.62028">
        <ele>361</ele>
        <time>2023-06-17T07:50:00.000Z</time>
      </trkpt>
      <trkpt lat="47.20773" lon="4.6202">
        <ele>361.39999389648</ele>
        <time>2023-06-17T07:50:02.000Z</time>
      </trkpt>
      <trkpt lat="47.20765" lon="4.62009">
        <ele>361.60000610352</ele>
        <time>2023-06-17T07:50:05.000Z</time>
      </trkpt>
      <trkpt lat="47.20753" lon="4.61994">
        <ele>362.60000610352</ele>
        <time>2023-06-17T07:50:09.000Z</time>
      </trkpt>
      <trkpt lat="47.20739" lon="4.6198">
        <ele>363.79998779297</ele>
        <time>2023-06-17T07:50:13.000Z</time>
      </trkpt>
      <trkpt lat="47.20721" lon="4.61966">
        <ele>365.20001220703</ele>
        <time>2023-06-17T07:50:18.000Z</time>
      </trkpt>
      <trkpt lat="47.2071" lon="4.61956">
        <ele>366</ele>
        <time>2023-06-17T07:50:21.000Z</time>
      </trkpt>
      <trkpt lat="47.20706" lon="4.61953">
        <ele>366.20001220703</ele>
        <time>2023-06-17T07:50:22.000Z</time>
      </trkpt>
      <trkpt lat="47.20692" lon="4.6194">
        <ele>367.20001220703</ele>
        <time>2023-06-17T07:50:26.000Z</time>
      </trkpt>
      <trkpt lat="47.20677" lon="4.61928">
        <ele>368.39999389648</ele>
        <time>2023-06-17T07:50:30.000Z</time>
      </trkpt>
      <trkpt lat="47.20672" lon="4.61925">
        <ele>368.39999389648</ele>
        <time>2023-06-17T07:50:31.000Z</time>
      </trkpt>
      <trkpt lat="47.20656" lon="4.61913">
        <ele>369.60000610352</ele>
        <time>2023-06-17T07:50:35.000Z</time>
      </trkpt>
      <trkpt lat="47.20637" lon="4.61903">
        <ele>370.60000610352</ele>
        <time>2023-06-17T07:50:39.000Z</time>
      </trkpt>
      <trkpt lat="47.20633" lon="4.619">
        <ele>370.79998779297</ele>
        <time>2023-06-17T07:50:40.000Z</time>
      </trkpt>
      <trkpt lat="47.20612" lon="4.61893">
        <ele>372</ele>
        <time>2023-06-17T07:50:44.000Z</time>
      </trkpt>
      <trkpt lat="47.20592" lon="4.61887">
        <ele>372.39999389648</ele>
        <time>2023-06-17T07:50:48.000Z</time>
      </trkpt>
      <trkpt lat="47.20543" lon="4.61875">
        <ele>372.39999389648</ele>
        <time>2023-06-17T07:50:57.000Z</time>
      </trkpt>
      <trkpt lat="47.20493" lon="4.61866">
        <ele>373</ele>
        <time>2023-06-17T07:51:06.000Z</time>
      </trkpt>
      <trkpt lat="47.20477" lon="4.61861">
        <ele>373.20001220703</ele>
        <time>2023-06-17T07:51:09.000Z</time>
      </trkpt>
      <trkpt lat="47.20443" lon="4.61849">
        <ele>373.60000610352</ele>
        <time>2023-06-17T07:51:15.000Z</time>
      </trkpt>
      <trkpt lat="47.2039" lon="4.61833">
        <ele>374.20001220703</ele>
        <time>2023-06-17T07:51:24.000Z</time>
      </trkpt>
      <trkpt lat="47.20384" lon="4.61831">
        <ele>374.20001220703</ele>
        <time>2023-06-17T07:51:25.000Z</time>
      </trkpt>
      <trkpt lat="47.2033" lon="4.61811">
        <ele>374.20001220703</ele>
        <time>2023-06-17T07:51:34.000Z</time>
      </trkpt>
      <trkpt lat="47.2029" lon="4.6178">
        <ele>374.39999389648</ele>
        <time>2023-06-17T07:51:41.000Z</time>
      </trkpt>
      <trkpt lat="47.2025" lon="4.61731">
        <ele>375.20001220703</ele>
        <time>2023-06-17T07:51:49.000Z</time>
      </trkpt>
      <trkpt lat="47.20206" lon="4.61675">
        <ele>375.20001220703</ele>
        <time>2023-06-17T07:51:58.000Z</time>
      </trkpt>
      <trkpt lat="47.2017" lon="4.61633">
        <ele>375.20001220703</ele>
        <time>2023-06-17T07:52:05.000Z</time>
      </trkpt>
      <trkpt lat="47.20159" lon="4.61623">
        <ele>375</ele>
        <time>2023-06-17T07:52:07.000Z</time>
      </trkpt>
      <trkpt lat="47.20134" lon="4.61615">
        <ele>375</ele>
        <time>2023-06-17T07:52:11.000Z</time>
      </trkpt>
      <trkpt lat="47.20109" lon="4.61605">
        <ele>375.20001220703</ele>
        <time>2023-06-17T07:52:15.000Z</time>
      </trkpt>
      <trkpt lat="47.20104" lon="4.61601">
        <ele>375.39999389648</ele>
        <time>2023-06-17T07:52:16.000Z</time>
      </trkpt>
      <trkpt lat="47.20099" lon="4.61595">
        <ele>375.39999389648</ele>
        <time>2023-06-17T07:52:17.000Z</time>
      </trkpt>
      <trkpt lat="47.20092" lon="4.6158">
        <ele>375.39999389648</ele>
        <time>2023-06-17T07:52:19.000Z</time>
      </trkpt>
      <trkpt lat="47.20086" lon="4.61566">
        <ele>375.60000610352</ele>
        <time>2023-06-17T07:52:21.000Z</time>
      </trkpt>
      <trkpt lat="47.20079" lon="4.61554">
        <ele>375.79998779297</ele>
        <time>2023-06-17T07:52:23.000Z</time>
      </trkpt>
      <trkpt lat="47.20059" lon="4.61531">
        <ele>376.39999389648</ele>
        <time>2023-06-17T07:52:29.000Z</time>
      </trkpt>
      <trkpt lat="47.20057" lon="4.61528">
        <ele>376.60000610352</ele>
        <time>2023-06-17T07:52:30.000Z</time>
      </trkpt>
      <trkpt lat="47.20054" lon="4.61525">
        <ele>376.60000610352</ele>
        <time>2023-06-17T07:52:31.000Z</time>
      </trkpt>
      <trkpt lat="47.20047" lon="4.61525">
        <ele>376.60000610352</ele>
        <time>2023-06-17T07:52:33.000Z</time>
      </trkpt>
      <trkpt lat="47.2003" lon="4.61542">
        <ele>377</ele>
        <time>2023-06-17T07:52:37.000Z</time>
      </trkpt>
      <trkpt lat="47.19996" lon="4.61581">
        <ele>377.20001220703</ele>
        <time>2023-06-17T07:52:44.000Z</time>
      </trkpt>
      <trkpt lat="47.19971" lon="4.61608">
        <ele>377.60000610352</ele>
        <time>2023-06-17T07:52:49.000Z</time>
      </trkpt>
      <trkpt lat="47.19959" lon="4.61623">
        <ele>378.20001220703</ele>
        <time>2023-06-17T07:52:52.000Z</time>
      </trkpt>
      <trkpt lat="47.19954" lon="4.61628">
        <ele>378.20001220703</ele>
        <time>2023-06-17T07:52:53.000Z</time>
      </trkpt>
      <trkpt lat="47.1995" lon="4.61633">
        <ele>378.79998779297</ele>
        <time>2023-06-17T07:52:54.000Z</time>
      </trkpt>
      <trkpt lat="47.19927" lon="4.61658">
        <ele>380</ele>
        <time>2023-06-17T07:52:59.000Z</time>
      </trkpt>
      <trkpt lat="47.19917" lon="4.61669">
        <ele>380.39999389648</ele>
        <time>2023-06-17T07:53:01.000Z</time>
      </trkpt>
      <trkpt lat="47.19903" lon="4.61684">
        <ele>381.20001220703</ele>
        <time>2023-06-17T07:53:04.000Z</time>
      </trkpt>
      <trkpt lat="47.19875" lon="4.61716">
        <ele>381.79998779297</ele>
        <time>2023-06-17T07:53:10.000Z</time>
      </trkpt>
      <trkpt lat="47.19858" lon="4.61734">
        <ele>382.20001220703</ele>
        <time>2023-06-17T07:53:13.000Z</time>
      </trkpt>
      <trkpt lat="47.19847" lon="4.61746">
        <ele>382.39999389648</ele>
        <time>2023-06-17T07:53:15.000Z</time>
      </trkpt>
      <trkpt lat="47.19803" lon="4.61798">
        <ele>381</ele>
        <time>2023-06-17T07:53:22.000Z</time>
      </trkpt>
      <trkpt lat="47.19769" lon="4.61836">
        <ele>379.60000610352</ele>
        <time>2023-06-17T07:53:27.000Z</time>
      </trkpt>
      <trkpt lat="47.19748" lon="4.6186">
        <ele>378.60000610352</ele>
        <time>2023-06-17T07:53:30.000Z</time>
      </trkpt>
      <trkpt lat="47.19741" lon="4.61868">
        <ele>378.39999389648</ele>
        <time>2023-06-17T07:53:31.000Z</time>
      </trkpt>
      <trkpt lat="47.1972" lon="4.61892">
        <ele>377</ele>
        <time>2023-06-17T07:53:34.000Z</time>
      </trkpt>
      <trkpt lat="47.19693" lon="4.61922">
        <ele>376</ele>
        <time>2023-06-17T07:53:38.000Z</time>
      </trkpt>
      <trkpt lat="47.19656" lon="4.61963">
        <ele>374.60000610352</ele>
        <time>2023-06-17T07:53:43.000Z</time>
      </trkpt>
      <trkpt lat="47.19635" lon="4.61988">
        <ele>373.39999389648</ele>
        <time>2023-06-17T07:53:46.000Z</time>
      </trkpt>
      <trkpt lat="47.19628" lon="4.61996">
        <ele>373</ele>
        <time>2023-06-17T07:53:47.000Z</time>
      </trkpt>
      <trkpt lat="47.19614" lon="4.62012">
        <ele>372.20001220703</ele>
        <time>2023-06-17T07:53:49.000Z</time>
      </trkpt>
      <trkpt lat="47.19599" lon="4.62028">
        <ele>371.20001220703</ele>
        <time>2023-06-17T07:53:51.000Z</time>
      </trkpt>
      <trkpt lat="47.1958" lon="4.62056">
        <ele>370.39999389648</ele>
        <time>2023-06-17T07:53:54.000Z</time>
      </trkpt>
      <trkpt lat="47.19574" lon="4.62066">
        <ele>369.79998779297</ele>
        <time>2023-06-17T07:53:55.000Z</time>
      </trkpt>
      <trkpt lat="47.1956" lon="4.62102">
        <ele>368.79998779297</ele>
        <time>2023-06-17T07:53:58.000Z</time>
      </trkpt>
      <trkpt lat="47.1955" lon="4.62126">
        <ele>367.60000610352</ele>
        <time>2023-06-17T07:54:00.000Z</time>
      </trkpt>
      <trkpt lat="47.19537" lon="4.62163">
        <ele>366</ele>
        <time>2023-06-17T07:54:03.000Z</time>
      </trkpt>
      <trkpt lat="47.19528" lon="4.62187">
        <ele>364.79998779297</ele>
        <time>2023-06-17T07:54:05.000Z</time>
      </trkpt>
      <trkpt lat="47.19519" lon="4.62211">
        <ele>363.60000610352</ele>
        <time>2023-06-17T07:54:07.000Z</time>
      </trkpt>
      <trkpt lat="47.19508" lon="4.62235">
        <ele>362.79998779297</ele>
        <time>2023-06-17T07:54:09.000Z</time>
      </trkpt>
      <trkpt lat="47.19494" lon="4.62258">
        <ele>362</ele>
        <time>2023-06-17T07:54:11.000Z</time>
      </trkpt>
      <trkpt lat="47.19488" lon="4.62267">
        <ele>361.39999389648</ele>
        <time>2023-06-17T07:54:12.000Z</time>
      </trkpt>
      <trkpt lat="47.19471" lon="4.62292">
        <ele>360</ele>
        <time>2023-06-17T07:54:14.000Z</time>
      </trkpt>
      <trkpt lat="47.19458" lon="4.62312">
        <ele>358</ele>
        <time>2023-06-17T07:54:16.000Z</time>
      </trkpt>
      <trkpt lat="47.19441" lon="4.62334">
        <ele>356.60000610352</ele>
        <time>2023-06-17T07:54:18.000Z</time>
      </trkpt>
      <trkpt lat="47.19423" lon="4.62351">
        <ele>355.20001220703</ele>
        <time>2023-06-17T07:54:20.000Z</time>
      </trkpt>
      <trkpt lat="47.19414" lon="4.62357">
        <ele>354</ele>
        <time>2023-06-17T07:54:21.000Z</time>
      </trkpt>
      <trkpt lat="47.19394" lon="4.62364">
        <ele>352.79998779297</ele>
        <time>2023-06-17T07:54:23.000Z</time>
      </trkpt>
      <trkpt lat="47.19375" lon="4.62365">
        <ele>352.20001220703</ele>
        <time>2023-06-17T07:54:25.000Z</time>
      </trkpt>
      <trkpt lat="47.19349" lon="4.62362">
        <ele>351.39999389648</ele>
        <time>2023-06-17T07:54:28.000Z</time>
      </trkpt>
      <trkpt lat="47.19326" lon="4.62361">
        <ele>350.60000610352</ele>
        <time>2023-06-17T07:54:31.000Z</time>
      </trkpt>
      <trkpt lat="47.19311" lon="4.62362">
        <ele>350.39999389648</ele>
        <time>2023-06-17T07:54:33.000Z</time>
      </trkpt>
      <trkpt lat="47.19291" lon="4.62367">
        <ele>350.39999389648</ele>
        <time>2023-06-17T07:54:36.000Z</time>
      </trkpt>
      <trkpt lat="47.19278" lon="4.62372">
        <ele>350.39999389648</ele>
        <time>2023-06-17T07:54:38.000Z</time>
      </trkpt>
      <trkpt lat="47.19263" lon="4.62377">
        <ele>350.79998779297</ele>
        <time>2023-06-17T07:54:41.000Z</time>
      </trkpt>
      <trkpt lat="47.19248" lon="4.62382">
        <ele>351.60000610352</ele>
        <time>2023-06-17T07:54:44.000Z</time>
      </trkpt>
      <trkpt lat="47.19235" lon="4.62388">
        <ele>353</ele>
        <time>2023-06-17T07:54:47.000Z</time>
      </trkpt>
      <trkpt lat="47.19224" lon="4.62392">
        <ele>354.20001220703</ele>
        <time>2023-06-17T07:54:50.000Z</time>
      </trkpt>
      <trkpt lat="47.19211" lon="4.62397">
        <ele>355.20001220703</ele>
        <time>2023-06-17T07:54:53.000Z</time>
      </trkpt>
      <trkpt lat="47.19207" lon="4.62398">
        <ele>355.60000610352</ele>
        <time>2023-06-17T07:54:54.000Z</time>
      </trkpt>
      <trkpt lat="47.19188" lon="4.62404">
        <ele>356.60000610352</ele>
        <time>2023-06-17T07:54:58.000Z</time>
      </trkpt>
      <trkpt lat="47.19176" lon="4.62405">
        <ele>357.20001220703</ele>
        <time>2023-06-17T07:55:00.000Z</time>
      </trkpt>
      <trkpt lat="47.1916" lon="4.62406">
        <ele>357.60000610352</ele>
        <time>2023-06-17T07:55:03.000Z</time>
      </trkpt>
      <trkpt lat="47.19149" lon="4.62405">
        <ele>357.79998779297</ele>
        <time>2023-06-17T07:55:05.000Z</time>
      </trkpt>
      <trkpt lat="47.191" lon="4.62398">
        <ele>358.39999389648</ele>
        <time>2023-06-17T07:55:14.000Z</time>
      </trkpt>
      <trkpt lat="47.19053" lon="4.62387">
        <ele>358.39999389648</ele>
        <time>2023-06-17T07:55:22.000Z</time>
      </trkpt>
      <trkpt lat="47.1903" lon="4.62378">
        <ele>358.39999389648</ele>
        <time>2023-06-17T07:55:26.000Z</time>
      </trkpt>
      <trkpt lat="47.19014" lon="4.62368">
        <ele>358.39999389648</ele>
        <time>2023-06-17T07:55:29.000Z</time>
      </trkpt>
      <trkpt lat="47.18999" lon="4.62358">
        <ele>358.79998779297</ele>
        <time>2023-06-17T07:55:32.000Z</time>
      </trkpt>
      <trkpt lat="47.18974" lon="4.62344">
        <ele>359.79998779297</ele>
        <time>2023-06-17T07:55:37.000Z</time>
      </trkpt>
      <trkpt lat="47.18958" lon="4.62331">
        <ele>360.20001220703</ele>
        <time>2023-06-17T07:55:40.000Z</time>
      </trkpt>
      <trkpt lat="47.18945" lon="4.62306">
        <ele>361.20001220703</ele>
        <time>2023-06-17T07:55:44.000Z</time>
      </trkpt>
      <trkpt lat="47.18939" lon="4.62295">
        <ele>361.79998779297</ele>
        <time>2023-06-17T07:55:46.000Z</time>
      </trkpt>
      <trkpt lat="47.18922" lon="4.62262">
        <ele>362.20001220703</ele>
        <time>2023-06-17T07:55:51.000Z</time>
      </trkpt>
      <trkpt lat="47.18901" lon="4.62217">
        <ele>363.60000610352</ele>
        <time>2023-06-17T07:55:58.000Z</time>
      </trkpt>
      <trkpt lat="47.18889" lon="4.62196">
        <ele>364.79998779297</ele>
        <time>2023-06-17T07:56:02.000Z</time>
      </trkpt>
      <trkpt lat="47.18877" lon="4.62171">
        <ele>365.60000610352</ele>
        <time>2023-06-17T07:56:06.000Z</time>
      </trkpt>
      <trkpt lat="47.18875" lon="4.62166">
        <ele>365.79998779297</ele>
        <time>2023-06-17T07:56:07.000Z</time>
      </trkpt>
      <trkpt lat="47.1886" lon="4.62138">
        <ele>367.20001220703</ele>
        <time>2023-06-17T07:56:12.000Z</time>
      </trkpt>
      <trkpt lat="47.18857" lon="4.62132">
        <ele>367.39999389648</ele>
        <time>2023-06-17T07:56:13.000Z</time>
      </trkpt>
      <trkpt lat="47.18847" lon="4.62108">
        <ele>368.39999389648</ele>
        <time>2023-06-17T07:56:17.000Z</time>
      </trkpt>
      <trkpt lat="47.18835" lon="4.62087">
        <ele>369</ele>
        <time>2023-06-17T07:56:21.000Z</time>
      </trkpt>
      <trkpt lat="47.18829" lon="4.62077">
        <ele>369.60000610352</ele>
        <time>2023-06-17T07:56:23.000Z</time>
      </trkpt>
      <trkpt lat="47.18811" lon="4.62053">
        <ele>371</ele>
        <time>2023-06-17T07:56:28.000Z</time>
      </trkpt>
      <trkpt lat="47.18807" lon="4.62049">
        <ele>371.20001220703</ele>
        <time>2023-06-17T07:56:29.000Z</time>
      </trkpt>
      <trkpt lat="47.18798" lon="4.62042">
        <ele>371.60000610352</ele>
        <time>2023-06-17T07:56:31.000Z</time>
      </trkpt>
      <trkpt lat="47.18783" lon="4.62033">
        <ele>372.20001220703</ele>
        <time>2023-06-17T07:56:34.000Z</time>
      </trkpt>
      <trkpt lat="47.18772" lon="4.62027">
        <ele>372.20001220703</ele>
        <time>2023-06-17T07:56:36.000Z</time>
      </trkpt>
      <trkpt lat="47.18742" lon="4.62012">
        <ele>373.39999389648</ele>
        <time>2023-06-17T07:56:42.000Z</time>
      </trkpt>
      <trkpt lat="47.18716" lon="4.61999">
        <ele>374</ele>
        <time>2023-06-17T07:56:47.000Z</time>
      </trkpt>
      <trkpt lat="47.1869" lon="4.61986">
        <ele>374.39999389648</ele>
        <time>2023-06-17T07:56:52.000Z</time>
      </trkpt>
      <trkpt lat="47.18665" lon="4.61974">
        <ele>375</ele>
        <time>2023-06-17T07:56:57.000Z</time>
      </trkpt>
      <trkpt lat="47.18646" lon="4.61965">
        <ele>375.60000610352</ele>
        <time>2023-06-17T07:57:01.000Z</time>
      </trkpt>
      <trkpt lat="47.18627" lon="4.61955">
        <ele>376.79998779297</ele>
        <time>2023-06-17T07:57:05.000Z</time>
      </trkpt>
      <trkpt lat="47.18618" lon="4.6195">
        <ele>377</ele>
        <time>2023-06-17T07:57:07.000Z</time>
      </trkpt>
      <trkpt lat="47.18599" lon="4.6194">
        <ele>378</ele>
        <time>2023-06-17T07:57:11.000Z</time>
      </trkpt>
      <trkpt lat="47.18569" lon="4.61925">
        <ele>379.20001220703</ele>
        <time>2023-06-17T07:57:17.000Z</time>
      </trkpt>
      <trkpt lat="47.18559" lon="4.61919">
        <ele>379.60000610352</ele>
        <time>2023-06-17T07:57:19.000Z</time>
      </trkpt>
      <trkpt lat="47.18534" lon="4.61906">
        <ele>380.20001220703</ele>
        <time>2023-06-17T07:57:24.000Z</time>
      </trkpt>
      <trkpt lat="47.18502" lon="4.6189">
        <ele>380.79998779297</ele>
        <time>2023-06-17T07:57:30.000Z</time>
      </trkpt>
      <trkpt lat="47.18471" lon="4.61873">
        <ele>381.39999389648</ele>
        <time>2023-06-17T07:57:36.000Z</time>
      </trkpt>
      <trkpt lat="47.1845" lon="4.61862">
        <ele>381.79998779297</ele>
        <time>2023-06-17T07:57:40.000Z</time>
      </trkpt>
      <trkpt lat="47.1842" lon="4.61844">
        <ele>382.60000610352</ele>
        <time>2023-06-17T07:57:46.000Z</time>
      </trkpt>
      <trkpt lat="47.18399" lon="4.61833">
        <ele>383</ele>
        <time>2023-06-17T07:57:50.000Z</time>
      </trkpt>
      <trkpt lat="47.18364" lon="4.61814">
        <ele>383.60000610352</ele>
        <time>2023-06-17T07:57:57.000Z</time>
      </trkpt>
      <trkpt lat="47.18337" lon="4.61801">
        <ele>384.39999389648</ele>
        <time>2023-06-17T07:58:02.000Z</time>
      </trkpt>
      <trkpt lat="47.18326" lon="4.61795">
        <ele>384.79998779297</ele>
        <time>2023-06-17T07:58:04.000Z</time>
      </trkpt>
      <trkpt lat="47.1828" lon="4.61773">
        <ele>384.79998779297</ele>
        <time>2023-06-17T07:58:12.000Z</time>
      </trkpt>
      <trkpt lat="47.18229" lon="4.61748">
        <ele>384.39999389648</ele>
        <time>2023-06-17T07:58:20.000Z</time>
      </trkpt>
      <trkpt lat="47.18222" lon="4.61745">
        <ele>384.39999389648</ele>
        <time>2023-06-17T07:58:21.000Z</time>
      </trkpt>
      <trkpt lat="47.18169" lon="4.6172">
        <ele>384</ele>
        <time>2023-06-17T07:58:29.000Z</time>
      </trkpt>
      <trkpt lat="47.18163" lon="4.61717">
        <ele>383.79998779297</ele>
        <time>2023-06-17T07:58:30.000Z</time>
      </trkpt>
      <trkpt lat="47.18143" lon="4.61707">
        <ele>383.60000610352</ele>
        <time>2023-06-17T07:58:33.000Z</time>
      </trkpt>
      <trkpt lat="47.18093" lon="4.61683">
        <ele>382.79998779297</ele>
        <time>2023-06-17T07:58:40.000Z</time>
      </trkpt>
      <trkpt lat="47.18071" lon="4.61673">
        <ele>382.39999389648</ele>
        <time>2023-06-17T07:58:43.000Z</time>
      </trkpt>
      <trkpt lat="47.18056" lon="4.61666">
        <ele>381.39999389648</ele>
        <time>2023-06-17T07:58:45.000Z</time>
      </trkpt>
      <trkpt lat="47.18001" lon="4.6164">
        <ele>381</ele>
        <time>2023-06-17T07:58:53.000Z</time>
      </trkpt>
      <trkpt lat="47.17988" lon="4.61634">
        <ele>381</ele>
        <time>2023-06-17T07:58:55.000Z</time>
      </trkpt>
      <trkpt lat="47.17958" lon="4.61623">
        <ele>381.79998779297</ele>
        <time>2023-06-17T07:59:00.000Z</time>
      </trkpt>
      <trkpt lat="47.17953" lon="4.61622">
        <ele>382</ele>
        <time>2023-06-17T07:59:01.000Z</time>
      </trkpt>
      <trkpt lat="47.17942" lon="4.6162">
        <ele>382.60000610352</ele>
        <time>2023-06-17T07:59:03.000Z</time>
      </trkpt>
      <trkpt lat="47.17927" lon="4.61618">
        <ele>383.60000610352</ele>
        <time>2023-06-17T07:59:06.000Z</time>
      </trkpt>
      <trkpt lat="47.17922" lon="4.61618">
        <ele>383.79998779297</ele>
        <time>2023-06-17T07:59:07.000Z</time>
      </trkpt>
      <trkpt lat="47.17907" lon="4.61617">
        <ele>384.79998779297</ele>
        <time>2023-06-17T07:59:10.000Z</time>
      </trkpt>
      <trkpt lat="47.17893" lon="4.61615">
        <ele>385.39999389648</ele>
        <time>2023-06-17T07:59:13.000Z</time>
      </trkpt>
      <trkpt lat="47.17883" lon="4.61614">
        <ele>386</ele>
        <time>2023-06-17T07:59:15.000Z</time>
      </trkpt>
      <trkpt lat="47.17864" lon="4.61615">
        <ele>387.20001220703</ele>
        <time>2023-06-17T07:59:19.000Z</time>
      </trkpt>
      <trkpt lat="47.1786" lon="4.61615">
        <ele>387.79998779297</ele>
        <time>2023-06-17T07:59:20.000Z</time>
      </trkpt>
      <trkpt lat="47.17855" lon="4.61615">
        <ele>388</ele>
        <time>2023-06-17T07:59:21.000Z</time>
      </trkpt>
      <trkpt lat="47.1785" lon="4.61615">
        <ele>388.39999389648</ele>
        <time>2023-06-17T07:59:22.000Z</time>
      </trkpt>
      <trkpt lat="47.17831" lon="4.61613">
        <ele>389.60000610352</ele>
        <time>2023-06-17T07:59:26.000Z</time>
      </trkpt>
      <trkpt lat="47.17815" lon="4.61613">
        <ele>390.60000610352</ele>
        <time>2023-06-17T07:59:29.000Z</time>
      </trkpt>
      <trkpt lat="47.1779" lon="4.61613">
        <ele>391.79998779297</ele>
        <time>2023-06-17T07:59:34.000Z</time>
      </trkpt>
      <trkpt lat="47.17776" lon="4.61613">
        <ele>392.39999389648</ele>
        <time>2023-06-17T07:59:38.000Z</time>
      </trkpt>
      <trkpt lat="47.17761" lon="4.61613">
        <ele>393</ele>
        <time>2023-06-17T07:59:41.000Z</time>
      </trkpt>
      <trkpt lat="47.17731" lon="4.61613">
        <ele>394.20001220703</ele>
        <time>2023-06-17T07:59:46.000Z</time>
      </trkpt>
      <trkpt lat="47.17721" lon="4.61613">
        <ele>394.20001220703</ele>
        <time>2023-06-17T07:59:48.000Z</time>
      </trkpt>
      <trkpt lat="47.17684" lon="4.61613">
        <ele>395.60000610352</ele>
        <time>2023-06-17T07:59:55.000Z</time>
      </trkpt>
      <trkpt lat="47.17663" lon="4.61613">
        <ele>396</ele>
        <time>2023-06-17T07:59:59.000Z</time>
      </trkpt>
      <trkpt lat="47.17638" lon="4.61613">
        <ele>396.60000610352</ele>
        <time>2023-06-17T08:00:04.000Z</time>
      </trkpt>
      <trkpt lat="47.17612" lon="4.61614">
        <ele>397.60000610352</ele>
        <time>2023-06-17T08:00:09.000Z</time>
      </trkpt>
      <trkpt lat="47.17607" lon="4.61614">
        <ele>397.79998779297</ele>
        <time>2023-06-17T08:00:10.000Z</time>
      </trkpt>
      <trkpt lat="47.17578" lon="4.61614">
        <ele>399</ele>
        <time>2023-06-17T08:00:16.000Z</time>
      </trkpt>
      <trkpt lat="47.17562" lon="4.61615">
        <ele>399.39999389648</ele>
        <time>2023-06-17T08:00:19.000Z</time>
      </trkpt>
      <trkpt lat="47.17536" lon="4.61615">
        <ele>400</ele>
        <time>2023-06-17T08:00:25.000Z</time>
      </trkpt>
      <trkpt lat="47.17519" lon="4.61615">
        <ele>400.20001220703</ele>
        <time>2023-06-17T08:00:27.000Z</time>
      </trkpt>
      <trkpt lat="47.17465" lon="4.61617">
        <ele>400.79998779297</ele>
        <time>2023-06-17T08:00:37.000Z</time>
      </trkpt>
      <trkpt lat="47.17459" lon="4.61617">
        <ele>401</ele>
        <time>2023-06-17T08:00:38.000Z</time>
      </trkpt>
      <trkpt lat="47.17454" lon="4.61617">
        <ele>401.20001220703</ele>
        <time>2023-06-17T08:00:39.000Z</time>
      </trkpt>
      <trkpt lat="47.17444" lon="4.61617">
        <ele>401.39999389648</ele>
        <time>2023-06-17T08:00:41.000Z</time>
      </trkpt>
      <trkpt lat="47.17421" lon="4.61618">
        <ele>401.60000610352</ele>
        <time>2023-06-17T08:00:45.000Z</time>
      </trkpt>
      <trkpt lat="47.17398" lon="4.61616">
        <ele>402.20001220703</ele>
        <time>2023-06-17T08:00:49.000Z</time>
      </trkpt>
      <trkpt lat="47.17376" lon="4.6161">
        <ele>402.39999389648</ele>
        <time>2023-06-17T08:00:53.000Z</time>
      </trkpt>
      <trkpt lat="47.17336" lon="4.61591">
        <ele>403.20001220703</ele>
        <time>2023-06-17T08:01:01.000Z</time>
      </trkpt>
      <trkpt lat="47.17331" lon="4.61589">
        <ele>403.39999389648</ele>
        <time>2023-06-17T08:01:02.000Z</time>
      </trkpt>
      <trkpt lat="47.173" lon="4.61572">
        <ele>404.20001220703</ele>
        <time>2023-06-17T08:01:08.000Z</time>
      </trkpt>
      <trkpt lat="47.17277" lon="4.61561">
        <ele>404.79998779297</ele>
        <time>2023-06-17T08:01:12.000Z</time>
      </trkpt>
      <trkpt lat="47.17233" lon="4.61539">
        <ele>405.20001220703</ele>
        <time>2023-06-17T08:01:20.000Z</time>
      </trkpt>
      <trkpt lat="47.17211" lon="4.6153">
        <ele>405.39999389648</ele>
        <time>2023-06-17T08:01:24.000Z</time>
      </trkpt>
      <trkpt lat="47.17191" lon="4.61523">
        <ele>405.60000610352</ele>
        <time>2023-06-17T08:01:28.000Z</time>
      </trkpt>
      <trkpt lat="47.17165" lon="4.61516">
        <ele>406.39999389648</ele>
        <time>2023-06-17T08:01:33.000Z</time>
      </trkpt>
      <trkpt lat="47.17149" lon="4.61514">
        <ele>407</ele>
        <time>2023-06-17T08:01:36.000Z</time>
      </trkpt>
      <trkpt lat="47.17122" lon="4.61511">
        <ele>407.60000610352</ele>
        <time>2023-06-17T08:01:41.000Z</time>
      </trkpt>
      <trkpt lat="47.17088" lon="4.61508">
        <ele>407.79998779297</ele>
        <time>2023-06-17T08:01:47.000Z</time>
      </trkpt>
      <trkpt lat="47.17033" lon="4.61502">
        <ele>408.39999389648</ele>
        <time>2023-06-17T08:01:57.000Z</time>
      </trkpt>
      <trkpt lat="47.17027" lon="4.61501">
        <ele>408.60000610352</ele>
        <time>2023-06-17T08:01:58.000Z</time>
      </trkpt>
      <trkpt lat="47.16969" lon="4.61496">
        <ele>408.20001220703</ele>
        <time>2023-06-17T08:02:07.000Z</time>
      </trkpt>
      <trkpt lat="47.16962" lon="4.61496">
        <ele>408.20001220703</ele>
        <time>2023-06-17T08:02:08.000Z</time>
      </trkpt>
      <trkpt lat="47.16907" lon="4.6149">
        <ele>407.60000610352</ele>
        <time>2023-06-17T08:02:16.000Z</time>
      </trkpt>
      <trkpt lat="47.16886" lon="4.61488">
        <ele>407.39999389648</ele>
        <time>2023-06-17T08:02:19.000Z</time>
      </trkpt>
      <trkpt lat="47.16832" lon="4.61482">
        <ele>407.39999389648</ele>
        <time>2023-06-17T08:02:27.000Z</time>
      </trkpt>
      <trkpt lat="47.16805" lon="4.6148">
        <ele>407.39999389648</ele>
        <time>2023-06-17T08:02:31.000Z</time>
      </trkpt>
      <trkpt lat="47.1675" lon="4.61475">
        <ele>406.79998779297</ele>
        <time>2023-06-17T08:02:39.000Z</time>
      </trkpt>
      <trkpt lat="47.16736" lon="4.61473">
        <ele>406.60000610352</ele>
        <time>2023-06-17T08:02:41.000Z</time>
      </trkpt>
      <trkpt lat="47.16729" lon="4.61473">
        <ele>406.60000610352</ele>
        <time>2023-06-17T08:02:42.000Z</time>
      </trkpt>
      <trkpt lat="47.16672" lon="4.61468">
        <ele>406</ele>
        <time>2023-06-17T08:02:50.000Z</time>
      </trkpt>
      <trkpt lat="47.16658" lon="4.61466">
        <ele>406</ele>
        <time>2023-06-17T08:02:52.000Z</time>
      </trkpt>
      <trkpt lat="47.16601" lon="4.6146">
        <ele>406.60000610352</ele>
        <time>2023-06-17T08:03:01.000Z</time>
      </trkpt>
      <trkpt lat="47.16595" lon="4.6146">
        <ele>406.60000610352</ele>
        <time>2023-06-17T08:03:02.000Z</time>
      </trkpt>
      <trkpt lat="47.16545" lon="4.61455">
        <ele>408.20001220703</ele>
        <time>2023-06-17T08:03:11.000Z</time>
      </trkpt>
      <trkpt lat="47.16508" lon="4.61452">
        <ele>409.20001220703</ele>
        <time>2023-06-17T08:03:18.000Z</time>
      </trkpt>
      <trkpt lat="47.16492" lon="4.6145">
        <ele>409.79998779297</ele>
        <time>2023-06-17T08:03:21.000Z</time>
      </trkpt>
      <trkpt lat="47.16465" lon="4.61447">
        <ele>410.39999389648</ele>
        <time>2023-06-17T08:03:26.000Z</time>
      </trkpt>
      <trkpt lat="47.16438" lon="4.61445">
        <ele>410.79998779297</ele>
        <time>2023-06-17T08:03:31.000Z</time>
      </trkpt>
      <trkpt lat="47.16401" lon="4.61441">
        <ele>411.39999389648</ele>
        <time>2023-06-17T08:03:38.000Z</time>
      </trkpt>
      <trkpt lat="47.1639" lon="4.6144">
        <ele>411.79998779297</ele>
        <time>2023-06-17T08:03:40.000Z</time>
      </trkpt>
      <trkpt lat="47.1636" lon="4.61438">
        <ele>412.60000610352</ele>
        <time>2023-06-17T08:03:46.000Z</time>
      </trkpt>
      <trkpt lat="47.16339" lon="4.61436">
        <ele>413</ele>
        <time>2023-06-17T08:03:50.000Z</time>
      </trkpt>
      <trkpt lat="47.16328" lon="4.61435">
        <ele>413</ele>
        <time>2023-06-17T08:03:52.000Z</time>
      </trkpt>
      <trkpt lat="47.16306" lon="4.61433">
        <ele>413.60000610352</ele>
        <time>2023-06-17T08:03:56.000Z</time>
      </trkpt>
      <trkpt lat="47.16265" lon="4.61429">
        <ele>414</ele>
        <time>2023-06-17T08:04:03.000Z</time>
      </trkpt>
      <trkpt lat="47.16209" lon="4.61423">
        <ele>414.20001220703</ele>
        <time>2023-06-17T08:04:12.000Z</time>
      </trkpt>
      <trkpt lat="47.16195" lon="4.61422">
        <ele>414.20001220703</ele>
        <time>2023-06-17T08:04:14.000Z</time>
      </trkpt>
      <trkpt lat="47.16139" lon="4.61416">
        <ele>413.20001220703</ele>
        <time>2023-06-17T08:04:22.000Z</time>
      </trkpt>
      <trkpt lat="47.1611" lon="4.61414">
        <ele>413</ele>
        <time>2023-06-17T08:04:26.000Z</time>
      </trkpt>
      <trkpt lat="47.16073" lon="4.6141">
        <ele>412.39999389648</ele>
        <time>2023-06-17T08:04:31.000Z</time>
      </trkpt>
      <trkpt lat="47.16013" lon="4.61405">
        <ele>411.60000610352</ele>
        <time>2023-06-17T08:04:39.000Z</time>
      </trkpt>
      <trkpt lat="47.1599" lon="4.61402">
        <ele>411.39999389648</ele>
        <time>2023-06-17T08:04:42.000Z</time>
      </trkpt>
      <trkpt lat="47.15933" lon="4.61396">
        <ele>410.60000610352</ele>
        <time>2023-06-17T08:04:50.000Z</time>
      </trkpt>
      <trkpt lat="47.15926" lon="4.61395">
        <ele>410.60000610352</ele>
        <time>2023-06-17T08:04:51.000Z</time>
      </trkpt>
      <trkpt lat="47.15867" lon="4.61389">
        <ele>410.60000610352</ele>
        <time>2023-06-17T08:05:00.000Z</time>
      </trkpt>
      <trkpt lat="47.15854" lon="4.61388">
        <ele>410.60000610352</ele>
        <time>2023-06-17T08:05:02.000Z</time>
      </trkpt>
      <trkpt lat="47.15798" lon="4.61383">
        <ele>410.60000610352</ele>
        <time>2023-06-17T08:05:11.000Z</time>
      </trkpt>
      <trkpt lat="47.15769" lon="4.6138">
        <ele>411</ele>
        <time>2023-06-17T08:05:16.000Z</time>
      </trkpt>
      <trkpt lat="47.15711" lon="4.61374">
        <ele>411.60000610352</ele>
        <time>2023-06-17T08:05:25.000Z</time>
      </trkpt>
      <trkpt lat="47.15704" lon="4.61374">
        <ele>411.60000610352</ele>
        <time>2023-06-17T08:05:26.000Z</time>
      </trkpt>
      <trkpt lat="47.15648" lon="4.61368">
        <ele>411.20001220703</ele>
        <time>2023-06-17T08:05:34.000Z</time>
      </trkpt>
      <trkpt lat="47.15633" lon="4.61366">
        <ele>411.20001220703</ele>
        <time>2023-06-17T08:05:36.000Z</time>
      </trkpt>
      <trkpt lat="47.15574" lon="4.6136">
        <ele>410.60000610352</ele>
        <time>2023-06-17T08:05:44.000Z</time>
      </trkpt>
      <trkpt lat="47.15567" lon="4.61359">
        <ele>410.39999389648</ele>
        <time>2023-06-17T08:05:45.000Z</time>
      </trkpt>
      <trkpt lat="47.1556" lon="4.61358">
        <ele>410.39999389648</ele>
        <time>2023-06-17T08:05:46.000Z</time>
      </trkpt>
      <trkpt lat="47.15511" lon="4.61354">
        <ele>409.60000610352</ele>
        <time>2023-06-17T08:05:53.000Z</time>
      </trkpt>
      <trkpt lat="47.15454" lon="4.61349">
        <ele>409.20001220703</ele>
        <time>2023-06-17T08:06:01.000Z</time>
      </trkpt>
      <trkpt lat="47.15434" lon="4.61346">
        <ele>409</ele>
        <time>2023-06-17T08:06:04.000Z</time>
      </trkpt>
      <trkpt lat="47.15379" lon="4.61341">
        <ele>408.79998779297</ele>
        <time>2023-06-17T08:06:12.000Z</time>
      </trkpt>
      <trkpt lat="47.1535" lon="4.61337">
        <ele>408.20001220703</ele>
        <time>2023-06-17T08:06:16.000Z</time>
      </trkpt>
      <trkpt lat="47.15342" lon="4.61337">
        <ele>408.39999389648</ele>
        <time>2023-06-17T08:06:17.000Z</time>
      </trkpt>
      <trkpt lat="47.15294" lon="4.61333">
        <ele>407.39999389648</ele>
        <time>2023-06-17T08:06:23.000Z</time>
      </trkpt>
      <trkpt lat="47.15268" lon="4.61331">
        <ele>406.20001220703</ele>
        <time>2023-06-17T08:06:26.000Z</time>
      </trkpt>
      <trkpt lat="47.1524" lon="4.61327">
        <ele>405.20001220703</ele>
        <time>2023-06-17T08:06:29.000Z</time>
      </trkpt>
      <trkpt lat="47.1521" lon="4.61323">
        <ele>404</ele>
        <time>2023-06-17T08:06:32.000Z</time>
      </trkpt>
      <trkpt lat="47.15192" lon="4.61321">
        <ele>402.79998779297</ele>
        <time>2023-06-17T08:06:34.000Z</time>
      </trkpt>
      <trkpt lat="47.15174" lon="4.61318">
        <ele>401.39999389648</ele>
        <time>2023-06-17T08:06:36.000Z</time>
      </trkpt>
      <trkpt lat="47.15149" lon="4.61315">
        <ele>400.39999389648</ele>
        <time>2023-06-17T08:06:39.000Z</time>
      </trkpt>
      <trkpt lat="47.15134" lon="4.61314">
        <ele>400.20001220703</ele>
        <time>2023-06-17T08:06:41.000Z</time>
      </trkpt>
      <trkpt lat="47.15119" lon="4.61315">
        <ele>400.20001220703</ele>
        <time>2023-06-17T08:06:43.000Z</time>
      </trkpt>
      <trkpt lat="47.15097" lon="4.6132">
        <ele>400.20001220703</ele>
        <time>2023-06-17T08:06:46.000Z</time>
      </trkpt>
      <trkpt lat="47.1505" lon="4.61336">
        <ele>399.79998779297</ele>
        <time>2023-06-17T08:06:52.000Z</time>
      </trkpt>
      <trkpt lat="47.15024" lon="4.61345">
        <ele>399.20001220703</ele>
        <time>2023-06-17T08:06:55.000Z</time>
      </trkpt>
      <trkpt lat="47.15015" lon="4.61346">
        <ele>398.60000610352</ele>
        <time>2023-06-17T08:06:56.000Z</time>
      </trkpt>
      <trkpt lat="47.15004" lon="4.61347">
        <ele>398.20001220703</ele>
        <time>2023-06-17T08:06:57.000Z</time>
      </trkpt>
      <trkpt lat="47.14994" lon="4.61346">
        <ele>397.60000610352</ele>
        <time>2023-06-17T08:06:58.000Z</time>
      </trkpt>
      <trkpt lat="47.14972" lon="4.6134">
        <ele>396.39999389648</ele>
        <time>2023-06-17T08:07:00.000Z</time>
      </trkpt>
      <trkpt lat="47.14952" lon="4.6133">
        <ele>394.79998779297</ele>
        <time>2023-06-17T08:07:02.000Z</time>
      </trkpt>
      <trkpt lat="47.14932" lon="4.61319">
        <ele>393.60000610352</ele>
        <time>2023-06-17T08:07:04.000Z</time>
      </trkpt>
      <trkpt lat="47.14912" lon="4.61308">
        <ele>392.79998779297</ele>
        <time>2023-06-17T08:07:06.000Z</time>
      </trkpt>
      <trkpt lat="47.14902" lon="4.61302">
        <ele>392.20001220703</ele>
        <time>2023-06-17T08:07:07.000Z</time>
      </trkpt>
      <trkpt lat="47.14883" lon="4.61293">
        <ele>390.79998779297</ele>
        <time>2023-06-17T08:07:09.000Z</time>
      </trkpt>
      <trkpt lat="47.14865" lon="4.61284">
        <ele>389.60000610352</ele>
        <time>2023-06-17T08:07:11.000Z</time>
      </trkpt>
      <trkpt lat="47.14856" lon="4.61283">
        <ele>388.79998779297</ele>
        <time>2023-06-17T08:07:12.000Z</time>
      </trkpt>
      <trkpt lat="47.14848" lon="4.61286">
        <ele>388.60000610352</ele>
        <time>2023-06-17T08:07:13.000Z</time>
      </trkpt>
      <trkpt lat="47.1484" lon="4.61292">
        <ele>388.20001220703</ele>
        <time>2023-06-17T08:07:14.000Z</time>
      </trkpt>
      <trkpt lat="47.14825" lon="4.61306">
        <ele>387.39999389648</ele>
        <time>2023-06-17T08:07:16.000Z</time>
      </trkpt>
      <trkpt lat="47.14803" lon="4.61327">
        <ele>386.60000610352</ele>
        <time>2023-06-17T08:07:19.000Z</time>
      </trkpt>
      <trkpt lat="47.14788" lon="4.61337">
        <ele>386.20001220703</ele>
        <time>2023-06-17T08:07:21.000Z</time>
      </trkpt>
      <trkpt lat="47.14772" lon="4.61344">
        <ele>386</ele>
        <time>2023-06-17T08:07:23.000Z</time>
      </trkpt>
      <trkpt lat="47.14723" lon="4.61353">
        <ele>385.39999389648</ele>
        <time>2023-06-17T08:07:29.000Z</time>
      </trkpt>
      <trkpt lat="47.147" lon="4.61357">
        <ele>385.20001220703</ele>
        <time>2023-06-17T08:07:32.000Z</time>
      </trkpt>
      <trkpt lat="47.14661" lon="4.61367">
        <ele>384.79998779297</ele>
        <time>2023-06-17T08:07:37.000Z</time>
      </trkpt>
      <trkpt lat="47.14606" lon="4.61389">
        <ele>384.39999389648</ele>
        <time>2023-06-17T08:07:45.000Z</time>
      </trkpt>
      <trkpt lat="47.14553" lon="4.61412">
        <ele>384.20001220703</ele>
        <time>2023-06-17T08:07:53.000Z</time>
      </trkpt>
      <trkpt lat="47.14503" lon="4.61433">
        <ele>383.79998779297</ele>
        <time>2023-06-17T08:08:00.000Z</time>
      </trkpt>
      <trkpt lat="47.14482" lon="4.61442">
        <ele>383.39999389648</ele>
        <time>2023-06-17T08:08:03.000Z</time>
      </trkpt>
      <trkpt lat="47.14447" lon="4.61457">
        <ele>382.79998779297</ele>
        <time>2023-06-17T08:08:08.000Z</time>
      </trkpt>
      <trkpt lat="47.14403" lon="4.61477">
        <ele>382.60000610352</ele>
        <time>2023-06-17T08:08:15.000Z</time>
      </trkpt>
      <trkpt lat="47.14353" lon="4.61498">
        <ele>383</ele>
        <time>2023-06-17T08:08:23.000Z</time>
      </trkpt>
      <trkpt lat="47.14317" lon="4.61512">
        <ele>383</ele>
        <time>2023-06-17T08:08:29.000Z</time>
      </trkpt>
      <trkpt lat="47.14305" lon="4.6151">
        <ele>383.20001220703</ele>
        <time>2023-06-17T08:08:31.000Z</time>
      </trkpt>
      <trkpt lat="47.14288" lon="4.615">
        <ele>383.20001220703</ele>
        <time>2023-06-17T08:08:34.000Z</time>
      </trkpt>
      <trkpt lat="47.14277" lon="4.61493">
        <ele>383.20001220703</ele>
        <time>2023-06-17T08:08:36.000Z</time>
      </trkpt>
      <trkpt lat="47.14227" lon="4.61465">
        <ele>383.39999389648</ele>
        <time>2023-06-17T08:08:44.000Z</time>
      </trkpt>
      <trkpt lat="47.14179" lon="4.61443">
        <ele>382.60000610352</ele>
        <time>2023-06-17T08:08:51.000Z</time>
      </trkpt>
      <trkpt lat="47.14165" lon="4.61439">
        <ele>382.20001220703</ele>
        <time>2023-06-17T08:08:53.000Z</time>
      </trkpt>
      <trkpt lat="47.14144" lon="4.61438">
        <ele>382.20001220703</ele>
        <time>2023-06-17T08:08:56.000Z</time>
      </trkpt>
      <trkpt lat="47.14088" lon="4.6144">
        <ele>381.39999389648</ele>
        <time>2023-06-17T08:09:04.000Z</time>
      </trkpt>
      <trkpt lat="47.14073" lon="4.61441">
        <ele>381.39999389648</ele>
        <time>2023-06-17T08:09:06.000Z</time>
      </trkpt>
      <trkpt lat="47.14066" lon="4.61441">
        <ele>381.20001220703</ele>
        <time>2023-06-17T08:09:07.000Z</time>
      </trkpt>
      <trkpt lat="47.14008" lon="4.61443">
        <ele>380.39999389648</ele>
        <time>2023-06-17T08:09:15.000Z</time>
      </trkpt>
      <trkpt lat="47.13994" lon="4.61442">
        <ele>380.39999389648</ele>
        <time>2023-06-17T08:09:17.000Z</time>
      </trkpt>
      <trkpt lat="47.13966" lon="4.61444">
        <ele>380.20001220703</ele>
        <time>2023-06-17T08:09:21.000Z</time>
      </trkpt>
      <trkpt lat="47.13926" lon="4.61448">
        <ele>379.60000610352</ele>
        <time>2023-06-17T08:09:27.000Z</time>
      </trkpt>
      <trkpt lat="47.13872" lon="4.61461">
        <ele>379.39999389648</ele>
        <time>2023-06-17T08:09:35.000Z</time>
      </trkpt>
      <trkpt lat="47.13865" lon="4.61463">
        <ele>379.39999389648</ele>
        <time>2023-06-17T08:09:36.000Z</time>
      </trkpt>
      <trkpt lat="47.13807" lon="4.61481">
        <ele>379.79998779297</ele>
        <time>2023-06-17T08:09:45.000Z</time>
      </trkpt>
      <trkpt lat="47.138" lon="4.61482">
        <ele>379.79998779297</ele>
        <time>2023-06-17T08:09:46.000Z</time>
      </trkpt>
      <trkpt lat="47.13786" lon="4.61481">
        <ele>379.79998779297</ele>
        <time>2023-06-17T08:09:48.000Z</time>
      </trkpt>
      <trkpt lat="47.13771" lon="4.61476">
        <ele>379.60000610352</ele>
        <time>2023-06-17T08:09:50.000Z</time>
      </trkpt>
      <trkpt lat="47.13739" lon="4.61463">
        <ele>378.79998779297</ele>
        <time>2023-06-17T08:09:54.000Z</time>
      </trkpt>
      <trkpt lat="47.13731" lon="4.61458">
        <ele>378.79998779297</ele>
        <time>2023-06-17T08:09:55.000Z</time>
      </trkpt>
      <trkpt lat="47.13723" lon="4.61453">
        <ele>378.60000610352</ele>
        <time>2023-06-17T08:09:56.000Z</time>
      </trkpt>
      <trkpt lat="47.13716" lon="4.61446">
        <ele>378.60000610352</ele>
        <time>2023-06-17T08:09:57.000Z</time>
      </trkpt>
      <trkpt lat="47.13709" lon="4.61439">
        <ele>377.79998779297</ele>
        <time>2023-06-17T08:09:58.000Z</time>
      </trkpt>
      <trkpt lat="47.1369" lon="4.61418">
        <ele>376.60000610352</ele>
        <time>2023-06-17T08:10:01.000Z</time>
      </trkpt>
      <trkpt lat="47.13644" lon="4.61359">
        <ele>376</ele>
        <time>2023-06-17T08:10:09.000Z</time>
      </trkpt>
      <trkpt lat="47.13599" lon="4.613">
        <ele>376.20001220703</ele>
        <time>2023-06-17T08:10:17.000Z</time>
      </trkpt>
      <trkpt lat="47.13559" lon="4.61246">
        <ele>375.60000610352</ele>
        <time>2023-06-17T08:10:24.000Z</time>
      </trkpt>
      <trkpt lat="47.1355" lon="4.61228">
        <ele>375.39999389648</ele>
        <time>2023-06-17T08:10:26.000Z</time>
      </trkpt>
      <trkpt lat="47.1352" lon="4.6116">
        <ele>375</ele>
        <time>2023-06-17T08:10:33.000Z</time>
      </trkpt>
      <trkpt lat="47.13516" lon="4.61152">
        <ele>375</ele>
        <time>2023-06-17T08:10:34.000Z</time>
      </trkpt>
      <trkpt lat="47.13483" lon="4.61113">
        <ele>375</ele>
        <time>2023-06-17T08:10:40.000Z</time>
      </trkpt>
      <trkpt lat="47.13469" lon="4.61096">
        <ele>375.60000610352</ele>
        <time>2023-06-17T08:10:43.000Z</time>
      </trkpt>
      <trkpt lat="47.1346" lon="4.61086">
        <ele>376</ele>
        <time>2023-06-17T08:10:45.000Z</time>
      </trkpt>
      <trkpt lat="47.13446" lon="4.61072">
        <ele>377</ele>
        <time>2023-06-17T08:10:48.000Z</time>
      </trkpt>
      <trkpt lat="47.13431" lon="4.61057">
        <ele>377.39999389648</ele>
        <time>2023-06-17T08:10:51.000Z</time>
      </trkpt>
      <trkpt lat="47.13421" lon="4.61048">
        <ele>378</ele>
        <time>2023-06-17T08:10:53.000Z</time>
      </trkpt>
      <trkpt lat="47.13396" lon="4.61025">
        <ele>378.39999389648</ele>
        <time>2023-06-17T08:10:58.000Z</time>
      </trkpt>
      <trkpt lat="47.13345" lon="4.60982">
        <ele>379</ele>
        <time>2023-06-17T08:11:08.000Z</time>
      </trkpt>
      <trkpt lat="47.1334" lon="4.60977">
        <ele>379</ele>
        <time>2023-06-17T08:11:09.000Z</time>
      </trkpt>
      <trkpt lat="47.13335" lon="4.60973">
        <ele>379</ele>
        <time>2023-06-17T08:11:10.000Z</time>
      </trkpt>
      <trkpt lat="47.13289" lon="4.60933">
        <ele>379.60000610352</ele>
        <time>2023-06-17T08:11:19.000Z</time>
      </trkpt>
      <trkpt lat="47.13245" lon="4.60885">
        <ele>380</ele>
        <time>2023-06-17T08:11:28.000Z</time>
      </trkpt>
      <trkpt lat="47.13214" lon="4.60838">
        <ele>380.20001220703</ele>
        <time>2023-06-17T08:11:35.000Z</time>
      </trkpt>
      <trkpt lat="47.13203" lon="4.60815">
        <ele>380.20001220703</ele>
        <time>2023-06-17T08:11:38.000Z</time>
      </trkpt>
      <trkpt lat="47.13192" lon="4.60803">
        <ele>380.20001220703</ele>
        <time>2023-06-17T08:11:40.000Z</time>
      </trkpt>
      <trkpt lat="47.13158" lon="4.60778">
        <ele>380.20001220703</ele>
        <time>2023-06-17T08:11:46.000Z</time>
      </trkpt>
      <trkpt lat="47.13125" lon="4.60758">
        <ele>381.20001220703</ele>
        <time>2023-06-17T08:11:52.000Z</time>
      </trkpt>
      <trkpt lat="47.13115" lon="4.6075">
        <ele>381.60000610352</ele>
        <time>2023-06-17T08:11:54.000Z</time>
      </trkpt>
      <trkpt lat="47.13106" lon="4.60742">
        <ele>382.20001220703</ele>
        <time>2023-06-17T08:11:56.000Z</time>
      </trkpt>
      <trkpt lat="47.1308" lon="4.60721">
        <ele>382.79998779297</ele>
        <time>2023-06-17T08:12:01.000Z</time>
      </trkpt>
      <trkpt lat="47.13068" lon="4.60715">
        <ele>383</ele>
        <time>2023-06-17T08:12:03.000Z</time>
      </trkpt>
      <trkpt lat="47.13056" lon="4.60714">
        <ele>383.20001220703</ele>
        <time>2023-06-17T08:12:05.000Z</time>
      </trkpt>
      <trkpt lat="47.13049" lon="4.60714">
        <ele>383.20001220703</ele>
        <time>2023-06-17T08:12:06.000Z</time>
      </trkpt>
      <trkpt lat="47.13037" lon="4.60717">
        <ele>383.20001220703</ele>
        <time>2023-06-17T08:12:08.000Z</time>
      </trkpt>
      <trkpt lat="47.13007" lon="4.60724">
        <ele>383.39999389648</ele>
        <time>2023-06-17T08:12:13.000Z</time>
      </trkpt>
      <trkpt lat="47.12962" lon="4.60734">
        <ele>383.79998779297</ele>
        <time>2023-06-17T08:12:20.000Z</time>
      </trkpt>
      <trkpt lat="47.12955" lon="4.60734">
        <ele>383.79998779297</ele>
        <time>2023-06-17T08:12:21.000Z</time>
      </trkpt>
      <trkpt lat="47.12949" lon="4.60732">
        <ele>383.79998779297</ele>
        <time>2023-06-17T08:12:22.000Z</time>
      </trkpt>
      <trkpt lat="47.12936" lon="4.60725">
        <ele>384</ele>
        <time>2023-06-17T08:12:24.000Z</time>
      </trkpt>
      <trkpt lat="47.1293" lon="4.6072">
        <ele>384</ele>
        <time>2023-06-17T08:12:25.000Z</time>
      </trkpt>
      <trkpt lat="47.12926" lon="4.60714">
        <ele>384</ele>
        <time>2023-06-17T08:12:26.000Z</time>
      </trkpt>
      <trkpt lat="47.12918" lon="4.60699">
        <ele>384.20001220703</ele>
        <time>2023-06-17T08:12:28.000Z</time>
      </trkpt>
      <trkpt lat="47.12914" lon="4.60691">
        <ele>384.20001220703</ele>
        <time>2023-06-17T08:12:29.000Z</time>
      </trkpt>
      <trkpt lat="47.12912" lon="4.60682">
        <ele>384.20001220703</ele>
        <time>2023-06-17T08:12:30.000Z</time>
      </trkpt>
      <trkpt lat="47.12908" lon="4.60655">
        <ele>384.20001220703</ele>
        <time>2023-06-17T08:12:33.000Z</time>
      </trkpt>
      <trkpt lat="47.12903" lon="4.60629">
        <ele>384.39999389648</ele>
        <time>2023-06-17T08:12:36.000Z</time>
      </trkpt>
      <trkpt lat="47.12895" lon="4.60604">
        <ele>384.60000610352</ele>
        <time>2023-06-17T08:12:39.000Z</time>
      </trkpt>
      <trkpt lat="47.12892" lon="4.60597">
        <ele>384.79998779297</ele>
        <time>2023-06-17T08:12:40.000Z</time>
      </trkpt>
      <trkpt lat="47.12878" lon="4.60567">
        <ele>385.39999389648</ele>
        <time>2023-06-17T08:12:44.000Z</time>
      </trkpt>
      <trkpt lat="47.12875" lon="4.60559">
        <ele>385.60000610352</ele>
        <time>2023-06-17T08:12:45.000Z</time>
      </trkpt>
      <trkpt lat="47.12842" lon="4.60489">
        <ele>386</ele>
        <time>2023-06-17T08:12:54.000Z</time>
      </trkpt>
      <trkpt lat="47.12821" lon="4.6044">
        <ele>386.20001220703</ele>
        <time>2023-06-17T08:13:00.000Z</time>
      </trkpt>
      <trkpt lat="47.12816" lon="4.60422">
        <ele>386.20001220703</ele>
        <time>2023-06-17T08:13:02.000Z</time>
      </trkpt>
      <trkpt lat="47.12806" lon="4.60371">
        <ele>386.20001220703</ele>
        <time>2023-06-17T08:13:07.000Z</time>
      </trkpt>
      <trkpt lat="47.12805" lon="4.60349">
        <ele>386</ele>
        <time>2023-06-17T08:13:09.000Z</time>
      </trkpt>
      <trkpt lat="47.12808" lon="4.60327">
        <ele>385.79998779297</ele>
        <time>2023-06-17T08:13:11.000Z</time>
      </trkpt>
      <trkpt lat="47.12811" lon="4.60318">
        <ele>385.39999389648</ele>
        <time>2023-06-17T08:13:12.000Z</time>
      </trkpt>
      <trkpt lat="47.12815" lon="4.6031">
        <ele>385.20001220703</ele>
        <time>2023-06-17T08:13:13.000Z</time>
      </trkpt>
      <trkpt lat="47.12831" lon="4.60273">
        <ele>385</ele>
        <time>2023-06-17T08:13:17.000Z</time>
      </trkpt>
      <trkpt lat="47.12837" lon="4.60243">
        <ele>384.79998779297</ele>
        <time>2023-06-17T08:13:20.000Z</time>
      </trkpt>
      <trkpt lat="47.12837" lon="4.60233">
        <ele>384.79998779297</ele>
        <time>2023-06-17T08:13:21.000Z</time>
      </trkpt>
      <trkpt lat="47.12836" lon="4.60223">
        <ele>385</ele>
        <time>2023-06-17T08:13:22.000Z</time>
      </trkpt>
      <trkpt lat="47.12831" lon="4.60185">
        <ele>385</ele>
        <time>2023-06-17T08:13:26.000Z</time>
      </trkpt>
      <trkpt lat="47.12823" lon="4.60122">
        <ele>386</ele>
        <time>2023-06-17T08:13:33.000Z</time>
      </trkpt>
      <trkpt lat="47.12821" lon="4.60068">
        <ele>386.39999389648</ele>
        <time>2023-06-17T08:13:39.000Z</time>
      </trkpt>
      <trkpt lat="47.12821" lon="4.6004">
        <ele>386.60000610352</ele>
        <time>2023-06-17T08:13:42.000Z</time>
      </trkpt>
      <trkpt lat="47.12826" lon="4.59959">
        <ele>387</ele>
        <time>2023-06-17T08:13:51.000Z</time>
      </trkpt>
      <trkpt lat="47.12827" lon="4.59941">
        <ele>387.20001220703</ele>
        <time>2023-06-17T08:13:53.000Z</time>
      </trkpt>
      <trkpt lat="47.12827" lon="4.59932">
        <ele>387.20001220703</ele>
        <time>2023-06-17T08:13:54.000Z</time>
      </trkpt>
      <trkpt lat="47.12823" lon="4.59914">
        <ele>387.20001220703</ele>
        <time>2023-06-17T08:13:56.000Z</time>
      </trkpt>
      <trkpt lat="47.1282" lon="4.59906">
        <ele>387.20001220703</ele>
        <time>2023-06-17T08:13:57.000Z</time>
      </trkpt>
      <trkpt lat="47.12815" lon="4.599">
        <ele>387.20001220703</ele>
        <time>2023-06-17T08:13:58.000Z</time>
      </trkpt>
      <trkpt lat="47.12804" lon="4.59892">
        <ele>387.20001220703</ele>
        <time>2023-06-17T08:14:00.000Z</time>
      </trkpt>
      <trkpt lat="47.12752" lon="4.59881">
        <ele>387.20001220703</ele>
        <time>2023-06-17T08:14:08.000Z</time>
      </trkpt>
      <trkpt lat="47.12696" lon="4.5987">
        <ele>387</ele>
        <time>2023-06-17T08:14:17.000Z</time>
      </trkpt>
      <trkpt lat="47.12672" lon="4.59878">
        <ele>387.20001220703</ele>
        <time>2023-06-17T08:14:21.000Z</time>
      </trkpt>
      <trkpt lat="47.12661" lon="4.59888">
        <ele>387</ele>
        <time>2023-06-17T08:14:23.000Z</time>
      </trkpt>
      <trkpt lat="47.12653" lon="4.59901">
        <ele>387</ele>
        <time>2023-06-17T08:14:25.000Z</time>
      </trkpt>
      <trkpt lat="47.12638" lon="4.59933">
        <ele>386.79998779297</ele>
        <time>2023-06-17T08:14:29.000Z</time>
      </trkpt>
      <trkpt lat="47.12625" lon="4.59955">
        <ele>387</ele>
        <time>2023-06-17T08:14:32.000Z</time>
      </trkpt>
      <trkpt lat="47.12603" lon="4.59997">
        <ele>387.39999389648</ele>
        <time>2023-06-17T08:14:38.000Z</time>
      </trkpt>
      <trkpt lat="47.12596" lon="4.60011">
        <ele>387.60000610352</ele>
        <time>2023-06-17T08:14:40.000Z</time>
      </trkpt>
      <trkpt lat="47.12592" lon="4.60015">
        <ele>387.79998779297</ele>
        <time>2023-06-17T08:14:41.000Z</time>
      </trkpt>
      <trkpt lat="47.12588" lon="4.60018">
        <ele>387.79998779297</ele>
        <time>2023-06-17T08:14:42.000Z</time>
      </trkpt>
      <trkpt lat="47.12577" lon="4.60016">
        <ele>388</ele>
        <time>2023-06-17T08:14:44.000Z</time>
      </trkpt>
      <trkpt lat="47.12571" lon="4.60012">
        <ele>388.20001220703</ele>
        <time>2023-06-17T08:14:45.000Z</time>
      </trkpt>
      <trkpt lat="47.12529" lon="4.59981">
        <ele>388.60000610352</ele>
        <time>2023-06-17T08:14:53.000Z</time>
      </trkpt>
      <trkpt lat="47.125" lon="4.59962">
        <ele>388.60000610352</ele>
        <time>2023-06-17T08:15:00.000Z</time>
      </trkpt>
      <trkpt lat="47.12495" lon="4.59961">
        <ele>388.60000610352</ele>
        <time>2023-06-17T08:15:02.000Z</time>
      </trkpt>
      <trkpt lat="47.12489" lon="4.59968">
        <ele>388.60000610352</ele>
        <time>2023-06-17T08:15:04.000Z</time>
      </trkpt>
      <trkpt lat="47.12477" lon="4.60001">
        <ele>388.60000610352</ele>
        <time>2023-06-17T08:15:09.000Z</time>
      </trkpt>
      <trkpt lat="47.12471" lon="4.60011">
        <ele>388.60000610352</ele>
        <time>2023-06-17T08:15:11.000Z</time>
      </trkpt>
      <trkpt lat="47.12466" lon="4.60014">
        <ele>388.60000610352</ele>
        <time>2023-06-17T08:15:12.000Z</time>
      </trkpt>
      <trkpt lat="47.1246" lon="4.60016">
        <ele>388.60000610352</ele>
        <time>2023-06-17T08:15:13.000Z</time>
      </trkpt>
      <trkpt lat="47.12444" lon="4.60023">
        <ele>388.39999389648</ele>
        <time>2023-06-17T08:15:16.000Z</time>
      </trkpt>
      <trkpt lat="47.12398" lon="4.60047">
        <ele>388.60000610352</ele>
        <time>2023-06-17T08:15:24.000Z</time>
      </trkpt>
      <trkpt lat="47.12393" lon="4.6005">
        <ele>388.79998779297</ele>
        <time>2023-06-17T08:15:25.000Z</time>
      </trkpt>
      <trkpt lat="47.12344" lon="4.60078">
        <ele>389.20001220703</ele>
        <time>2023-06-17T08:15:34.000Z</time>
      </trkpt>
      <trkpt lat="47.12306" lon="4.60101">
        <ele>389.39999389648</ele>
        <time>2023-06-17T08:15:40.000Z</time>
      </trkpt>
      <trkpt lat="47.12256" lon="4.60127">
        <ele>388.79998779297</ele>
        <time>2023-06-17T08:15:48.000Z</time>
      </trkpt>
      <trkpt lat="47.12202" lon="4.60152">
        <ele>388.60000610352</ele>
        <time>2023-06-17T08:15:57.000Z</time>
      </trkpt>
      <trkpt lat="47.12149" lon="4.60174">
        <ele>388.60000610352</ele>
        <time>2023-06-17T08:16:06.000Z</time>
      </trkpt>
      <trkpt lat="47.12129" lon="4.60182">
        <ele>388.60000610352</ele>
        <time>2023-06-17T08:16:09.000Z</time>
      </trkpt>
      <trkpt lat="47.12075" lon="4.60202">
        <ele>388.20001220703</ele>
        <time>2023-06-17T08:16:17.000Z</time>
      </trkpt>
      <trkpt lat="47.12068" lon="4.60205">
        <ele>388</ele>
        <time>2023-06-17T08:16:18.000Z</time>
      </trkpt>
      <trkpt lat="47.12055" lon="4.6021">
        <ele>387.60000610352</ele>
        <time>2023-06-17T08:16:20.000Z</time>
      </trkpt>
      <trkpt lat="47.11999" lon="4.60238">
        <ele>387.60000610352</ele>
        <time>2023-06-17T08:16:29.000Z</time>
      </trkpt>
      <trkpt lat="47.11944" lon="4.60269">
        <ele>388</ele>
        <time>2023-06-17T08:16:38.000Z</time>
      </trkpt>
      <trkpt lat="47.11938" lon="4.60273">
        <ele>388</ele>
        <time>2023-06-17T08:16:39.000Z</time>
      </trkpt>
      <trkpt lat="47.11932" lon="4.60278">
        <ele>388</ele>
        <time>2023-06-17T08:16:40.000Z</time>
      </trkpt>
      <trkpt lat="47.11921" lon="4.60291">
        <ele>387.79998779297</ele>
        <time>2023-06-17T08:16:42.000Z</time>
      </trkpt>
      <trkpt lat="47.11917" lon="4.603">
        <ele>387.60000610352</ele>
        <time>2023-06-17T08:16:43.000Z</time>
      </trkpt>
      <trkpt lat="47.11913" lon="4.60308">
        <ele>387.60000610352</ele>
        <time>2023-06-17T08:16:44.000Z</time>
      </trkpt>
      <trkpt lat="47.11906" lon="4.60337">
        <ele>387.20001220703</ele>
        <time>2023-06-17T08:16:47.000Z</time>
      </trkpt>
      <trkpt lat="47.11898" lon="4.60398">
        <ele>386.79998779297</ele>
        <time>2023-06-17T08:16:53.000Z</time>
      </trkpt>
      <trkpt lat="47.11896" lon="4.60408">
        <ele>386.60000610352</ele>
        <time>2023-06-17T08:16:54.000Z</time>
      </trkpt>
      <trkpt lat="47.11893" lon="4.60418">
        <ele>386.60000610352</ele>
        <time>2023-06-17T08:16:55.000Z</time>
      </trkpt>
      <trkpt lat="47.1189" lon="4.60427">
        <ele>386.60000610352</ele>
        <time>2023-06-17T08:16:56.000Z</time>
      </trkpt>
      <trkpt lat="47.11886" lon="4.60435">
        <ele>386.60000610352</ele>
        <time>2023-06-17T08:16:57.000Z</time>
      </trkpt>
      <trkpt lat="47.11881" lon="4.60443">
        <ele>386.60000610352</ele>
        <time>2023-06-17T08:16:58.000Z</time>
      </trkpt>
      <trkpt lat="47.1187" lon="4.60455">
        <ele>386.60000610352</ele>
        <time>2023-06-17T08:17:00.000Z</time>
      </trkpt>
      <trkpt lat="47.11864" lon="4.60459">
        <ele>386.60000610352</ele>
        <time>2023-06-17T08:17:01.000Z</time>
      </trkpt>
      <trkpt lat="47.11857" lon="4.60462">
        <ele>386.60000610352</ele>
        <time>2023-06-17T08:17:02.000Z</time>
      </trkpt>
      <trkpt lat="47.11844" lon="4.60464">
        <ele>386.39999389648</ele>
        <time>2023-06-17T08:17:04.000Z</time>
      </trkpt>
      <trkpt lat="47.11837" lon="4.60463">
        <ele>386.39999389648</ele>
        <time>2023-06-17T08:17:05.000Z</time>
      </trkpt>
      <trkpt lat="47.11793" lon="4.60452">
        <ele>386.60000610352</ele>
        <time>2023-06-17T08:17:12.000Z</time>
      </trkpt>
      <trkpt lat="47.11761" lon="4.60445">
        <ele>387.60000610352</ele>
        <time>2023-06-17T08:17:18.000Z</time>
      </trkpt>
      <trkpt lat="47.11755" lon="4.60445">
        <ele>387.79998779297</ele>
        <time>2023-06-17T08:17:19.000Z</time>
      </trkpt>
      <trkpt lat="47.11741" lon="4.60446">
        <ele>388.60000610352</ele>
        <time>2023-06-17T08:17:22.000Z</time>
      </trkpt>
      <trkpt lat="47.11736" lon="4.60448">
        <ele>388.79998779297</ele>
        <time>2023-06-17T08:17:23.000Z</time>
      </trkpt>
      <trkpt lat="47.11717" lon="4.60456">
        <ele>389.60000610352</ele>
        <time>2023-06-17T08:17:27.000Z</time>
      </trkpt>
      <trkpt lat="47.11712" lon="4.60459">
        <ele>390</ele>
        <time>2023-06-17T08:17:28.000Z</time>
      </trkpt>
      <trkpt lat="47.11708" lon="4.60462">
        <ele>390</ele>
        <time>2023-06-17T08:17:29.000Z</time>
      </trkpt>
      <trkpt lat="47.11685" lon="4.60474">
        <ele>390.20001220703</ele>
        <time>2023-06-17T08:17:33.000Z</time>
      </trkpt>
      <trkpt lat="47.11679" lon="4.60475">
        <ele>390.20001220703</ele>
        <time>2023-06-17T08:17:34.000Z</time>
      </trkpt>
      <trkpt lat="47.11673" lon="4.60473">
        <ele>390.20001220703</ele>
        <time>2023-06-17T08:17:35.000Z</time>
      </trkpt>
      <trkpt lat="47.11661" lon="4.60466">
        <ele>390</ele>
        <time>2023-06-17T08:17:37.000Z</time>
      </trkpt>
      <trkpt lat="47.1165" lon="4.60454">
        <ele>389.79998779297</ele>
        <time>2023-06-17T08:17:39.000Z</time>
      </trkpt>
      <trkpt lat="47.11637" lon="4.60435">
        <ele>389.60000610352</ele>
        <time>2023-06-17T08:17:42.000Z</time>
      </trkpt>
      <trkpt lat="47.11633" lon="4.60429">
        <ele>389.60000610352</ele>
        <time>2023-06-17T08:17:43.000Z</time>
      </trkpt>
      <trkpt lat="47.11612" lon="4.60399">
        <ele>390</ele>
        <time>2023-06-17T08:17:48.000Z</time>
      </trkpt>
      <trkpt lat="47.11585" lon="4.60357">
        <ele>390.39999389648</ele>
        <time>2023-06-17T08:17:55.000Z</time>
      </trkpt>
      <trkpt lat="47.11581" lon="4.60351">
        <ele>390.60000610352</ele>
        <time>2023-06-17T08:17:56.000Z</time>
      </trkpt>
      <trkpt lat="47.11564" lon="4.60331">
        <ele>390.79998779297</ele>
        <time>2023-06-17T08:18:00.000Z</time>
      </trkpt>
      <trkpt lat="47.11553" lon="4.60324">
        <ele>390.79998779297</ele>
        <time>2023-06-17T08:18:02.000Z</time>
      </trkpt>
      <trkpt lat="47.1151" lon="4.60301">
        <ele>390.79998779297</ele>
        <time>2023-06-17T08:18:10.000Z</time>
      </trkpt>
      <trkpt lat="47.11477" lon="4.60287">
        <ele>391</ele>
        <time>2023-06-17T08:18:16.000Z</time>
      </trkpt>
      <trkpt lat="47.11472" lon="4.60286">
        <ele>391</ele>
        <time>2023-06-17T08:18:17.000Z</time>
      </trkpt>
      <trkpt lat="47.11467" lon="4.60285">
        <ele>391</ele>
        <time>2023-06-17T08:18:18.000Z</time>
      </trkpt>
      <trkpt lat="47.11456" lon="4.60287">
        <ele>391</ele>
        <time>2023-06-17T08:18:20.000Z</time>
      </trkpt>
      <trkpt lat="47.1145" lon="4.60289">
        <ele>391</ele>
        <time>2023-06-17T08:18:21.000Z</time>
      </trkpt>
      <trkpt lat="47.11445" lon="4.60292">
        <ele>391</ele>
        <time>2023-06-17T08:18:22.000Z</time>
      </trkpt>
      <trkpt lat="47.11431" lon="4.60303">
        <ele>391.39999389648</ele>
        <time>2023-06-17T08:18:25.000Z</time>
      </trkpt>
      <trkpt lat="47.11426" lon="4.60308">
        <ele>391.60000610352</ele>
        <time>2023-06-17T08:18:26.000Z</time>
      </trkpt>
      <trkpt lat="47.1141" lon="4.60323">
        <ele>391.60000610352</ele>
        <time>2023-06-17T08:18:29.000Z</time>
      </trkpt>
      <trkpt lat="47.11393" lon="4.60333">
        <ele>391.79998779297</ele>
        <time>2023-06-17T08:18:32.000Z</time>
      </trkpt>
      <trkpt lat="47.11347" lon="4.60347">
        <ele>391.79998779297</ele>
        <time>2023-06-17T08:18:39.000Z</time>
      </trkpt>
      <trkpt lat="47.1131" lon="4.60363">
        <ele>391.39999389648</ele>
        <time>2023-06-17T08:18:44.000Z</time>
      </trkpt>
      <trkpt lat="47.11272" lon="4.6039">
        <ele>389.60000610352</ele>
        <time>2023-06-17T08:18:49.000Z</time>
      </trkpt>
      <trkpt lat="47.11264" lon="4.60396">
        <ele>389.39999389648</ele>
        <time>2023-06-17T08:18:50.000Z</time>
      </trkpt>
      <trkpt lat="47.11247" lon="4.60401">
        <ele>389</ele>
        <time>2023-06-17T08:18:52.000Z</time>
      </trkpt>
      <trkpt lat="47.11228" lon="4.60398">
        <ele>388.20001220703</ele>
        <time>2023-06-17T08:18:54.000Z</time>
      </trkpt>
      <trkpt lat="47.1122" lon="4.60394">
        <ele>387.79998779297</ele>
        <time>2023-06-17T08:18:55.000Z</time>
      </trkpt>
      <trkpt lat="47.11197" lon="4.6038">
        <ele>386.79998779297</ele>
        <time>2023-06-17T08:18:58.000Z</time>
      </trkpt>
      <trkpt lat="47.11156" lon="4.60349">
        <ele>386.39999389648</ele>
        <time>2023-06-17T08:19:04.000Z</time>
      </trkpt>
      <trkpt lat="47.1113" lon="4.60317">
        <ele>386.60000610352</ele>
        <time>2023-06-17T08:19:09.000Z</time>
      </trkpt>
      <trkpt lat="47.11121" lon="4.60305">
        <ele>387</ele>
        <time>2023-06-17T08:19:11.000Z</time>
      </trkpt>
      <trkpt lat="47.1111" lon="4.60297">
        <ele>387.20001220703</ele>
        <time>2023-06-17T08:19:13.000Z</time>
      </trkpt>
      <trkpt lat="47.11103" lon="4.60294">
        <ele>387.20001220703</ele>
        <time>2023-06-17T08:19:14.000Z</time>
      </trkpt>
      <trkpt lat="47.11097" lon="4.60293">
        <ele>387.20001220703</ele>
        <time>2023-06-17T08:19:15.000Z</time>
      </trkpt>
      <trkpt lat="47.11076" lon="4.60296">
        <ele>387.20001220703</ele>
        <time>2023-06-17T08:19:18.000Z</time>
      </trkpt>
      <trkpt lat="47.11055" lon="4.60301">
        <ele>387.20001220703</ele>
        <time>2023-06-17T08:19:21.000Z</time>
      </trkpt>
      <trkpt lat="47.11042" lon="4.60308">
        <ele>387.20001220703</ele>
        <time>2023-06-17T08:19:23.000Z</time>
      </trkpt>
      <trkpt lat="47.11019" lon="4.60326">
        <ele>387.39999389648</ele>
        <time>2023-06-17T08:19:27.000Z</time>
      </trkpt>
      <trkpt lat="47.11014" lon="4.60333">
        <ele>387.39999389648</ele>
        <time>2023-06-17T08:19:28.000Z</time>
      </trkpt>
      <trkpt lat="47.11009" lon="4.6034">
        <ele>387.60000610352</ele>
        <time>2023-06-17T08:19:29.000Z</time>
      </trkpt>
      <trkpt lat="47.11" lon="4.60365">
        <ele>387.60000610352</ele>
        <time>2023-06-17T08:19:32.000Z</time>
      </trkpt>
      <trkpt lat="47.10997" lon="4.60401">
        <ele>388</ele>
        <time>2023-06-17T08:19:36.000Z</time>
      </trkpt>
      <trkpt lat="47.10996" lon="4.60416">
        <ele>388.20001220703</ele>
        <time>2023-06-17T08:19:38.000Z</time>
      </trkpt>
      <trkpt lat="47.10992" lon="4.6043">
        <ele>388.39999389648</ele>
        <time>2023-06-17T08:19:40.000Z</time>
      </trkpt>
      <trkpt lat="47.10991" lon="4.60436">
        <ele>388.79998779297</ele>
        <time>2023-06-17T08:19:41.000Z</time>
      </trkpt>
      <trkpt lat="47.10988" lon="4.6045">
        <ele>389.20001220703</ele>
        <time>2023-06-17T08:19:43.000Z</time>
      </trkpt>
      <trkpt lat="47.10984" lon="4.60464">
        <ele>389.79998779297</ele>
        <time>2023-06-17T08:19:45.000Z</time>
      </trkpt>
      <trkpt lat="47.10981" lon="4.60479">
        <ele>390.39999389648</ele>
        <time>2023-06-17T08:19:47.000Z</time>
      </trkpt>
      <trkpt lat="47.10971" lon="4.60531">
        <ele>391.39999389648</ele>
        <time>2023-06-17T08:19:54.000Z</time>
      </trkpt>
      <trkpt lat="47.10966" lon="4.60562">
        <ele>392</ele>
        <time>2023-06-17T08:19:58.000Z</time>
      </trkpt>
      <trkpt lat="47.1096" lon="4.60609">
        <ele>392.60000610352</ele>
        <time>2023-06-17T08:20:04.000Z</time>
      </trkpt>
      <trkpt lat="47.10958" lon="4.60634">
        <ele>392.79998779297</ele>
        <time>2023-06-17T08:20:07.000Z</time>
      </trkpt>
      <trkpt lat="47.10948" lon="4.60714">
        <ele>393.39999389648</ele>
        <time>2023-06-17T08:20:17.000Z</time>
      </trkpt>
      <trkpt lat="47.10941" lon="4.60771">
        <ele>393.60000610352</ele>
        <time>2023-06-17T08:20:24.000Z</time>
      </trkpt>
      <trkpt lat="47.10937" lon="4.60803">
        <ele>393.79998779297</ele>
        <time>2023-06-17T08:20:28.000Z</time>
      </trkpt>
      <trkpt lat="47.10933" lon="4.60818">
        <ele>394</ele>
        <time>2023-06-17T08:20:30.000Z</time>
      </trkpt>
      <trkpt lat="47.10924" lon="4.60829">
        <ele>394</ele>
        <time>2023-06-17T08:20:32.000Z</time>
      </trkpt>
      <trkpt lat="47.10914" lon="4.60833">
        <ele>394</ele>
        <time>2023-06-17T08:20:34.000Z</time>
      </trkpt>
      <trkpt lat="47.10908" lon="4.60833">
        <ele>394</ele>
        <time>2023-06-17T08:20:35.000Z</time>
      </trkpt>
      <trkpt lat="47.10864" lon="4.60823">
        <ele>394</ele>
        <time>2023-06-17T08:20:42.000Z</time>
      </trkpt>
      <trkpt lat="47.10812" lon="4.60809">
        <ele>393.60000610352</ele>
        <time>2023-06-17T08:20:50.000Z</time>
      </trkpt>
      <trkpt lat="47.10761" lon="4.60806">
        <ele>393.60000610352</ele>
        <time>2023-06-17T08:20:58.000Z</time>
      </trkpt>
      <trkpt lat="47.10707" lon="4.60814">
        <ele>394.20001220703</ele>
        <time>2023-06-17T08:21:07.000Z</time>
      </trkpt>
      <trkpt lat="47.10649" lon="4.60838">
        <ele>394.60000610352</ele>
        <time>2023-06-17T08:21:17.000Z</time>
      </trkpt>
      <trkpt lat="47.10644" lon="4.60841">
        <ele>394.79998779297</ele>
        <time>2023-06-17T08:21:18.000Z</time>
      </trkpt>
      <trkpt lat="47.10592" lon="4.60866">
        <ele>395.20001220703</ele>
        <time>2023-06-17T08:21:27.000Z</time>
      </trkpt>
      <trkpt lat="47.10539" lon="4.60892">
        <ele>395.20001220703</ele>
        <time>2023-06-17T08:21:36.000Z</time>
      </trkpt>
      <trkpt lat="47.10522" lon="4.60901">
        <ele>395.39999389648</ele>
        <time>2023-06-17T08:21:39.000Z</time>
      </trkpt>
      <trkpt lat="47.10488" lon="4.60918">
        <ele>395.79998779297</ele>
        <time>2023-06-17T08:21:45.000Z</time>
      </trkpt>
      <trkpt lat="47.10471" lon="4.60926">
        <ele>396.20001220703</ele>
        <time>2023-06-17T08:21:48.000Z</time>
      </trkpt>
      <trkpt lat="47.10455" lon="4.60934">
        <ele>396.60000610352</ele>
        <time>2023-06-17T08:21:51.000Z</time>
      </trkpt>
      <trkpt lat="47.10439" lon="4.60943">
        <ele>397</ele>
        <time>2023-06-17T08:21:54.000Z</time>
      </trkpt>
      <trkpt lat="47.10388" lon="4.60969">
        <ele>397.79998779297</ele>
        <time>2023-06-17T08:22:04.000Z</time>
      </trkpt>
      <trkpt lat="47.10383" lon="4.60971">
        <ele>398.20001220703</ele>
        <time>2023-06-17T08:22:05.000Z</time>
      </trkpt>
      <trkpt lat="47.1035" lon="4.60987">
        <ele>399</ele>
        <time>2023-06-17T08:22:12.000Z</time>
      </trkpt>
      <trkpt lat="47.10345" lon="4.60989">
        <ele>399.20001220703</ele>
        <time>2023-06-17T08:22:13.000Z</time>
      </trkpt>
      <trkpt lat="47.10321" lon="4.61002">
        <ele>400.20001220703</ele>
        <time>2023-06-17T08:22:18.000Z</time>
      </trkpt>
      <trkpt lat="47.10316" lon="4.61004">
        <ele>400.20001220703</ele>
        <time>2023-06-17T08:22:19.000Z</time>
      </trkpt>
      <trkpt lat="47.10266" lon="4.61026">
        <ele>400.39999389648</ele>
        <time>2023-06-17T08:22:28.000Z</time>
      </trkpt>
      <trkpt lat="47.10212" lon="4.61048">
        <ele>400.20001220703</ele>
        <time>2023-06-17T08:22:37.000Z</time>
      </trkpt>
      <trkpt lat="47.10206" lon="4.61051">
        <ele>400.20001220703</ele>
        <time>2023-06-17T08:22:38.000Z</time>
      </trkpt>
      <trkpt lat="47.10153" lon="4.61073">
        <ele>400.20001220703</ele>
        <time>2023-06-17T08:22:47.000Z</time>
      </trkpt>
      <trkpt lat="47.10147" lon="4.61075">
        <ele>400.20001220703</ele>
        <time>2023-06-17T08:22:48.000Z</time>
      </trkpt>
      <trkpt lat="47.10103" lon="4.61094">
        <ele>400.60000610352</ele>
        <time>2023-06-17T08:22:56.000Z</time>
      </trkpt>
      <trkpt lat="47.10068" lon="4.61108">
        <ele>401.20001220703</ele>
        <time>2023-06-17T08:23:02.000Z</time>
      </trkpt>
      <trkpt lat="47.10037" lon="4.6112">
        <ele>401.39999389648</ele>
        <time>2023-06-17T08:23:07.000Z</time>
      </trkpt>
      <trkpt lat="47.0998" lon="4.61146">
        <ele>401.20001220703</ele>
        <time>2023-06-17T08:23:16.000Z</time>
      </trkpt>
      <trkpt lat="47.09935" lon="4.6116">
        <ele>400.79998779297</ele>
        <time>2023-06-17T08:23:23.000Z</time>
      </trkpt>
      <trkpt lat="47.0989" lon="4.61172">
        <ele>400.39999389648</ele>
        <time>2023-06-17T08:23:30.000Z</time>
      </trkpt>
      <trkpt lat="47.09884" lon="4.61175">
        <ele>400.39999389648</ele>
        <time>2023-06-17T08:23:31.000Z</time>
      </trkpt>
      <trkpt lat="47.09855" lon="4.61197">
        <ele>400.39999389648</ele>
        <time>2023-06-17T08:23:36.000Z</time>
      </trkpt>
      <trkpt lat="47.09835" lon="4.6121">
        <ele>400.39999389648</ele>
        <time>2023-06-17T08:23:40.000Z</time>
      </trkpt>
      <trkpt lat="47.09831" lon="4.61213">
        <ele>400.39999389648</ele>
        <time>2023-06-17T08:23:41.000Z</time>
      </trkpt>
      <trkpt lat="47.09823" lon="4.6122">
        <ele>400.39999389648</ele>
        <time>2023-06-17T08:23:43.000Z</time>
      </trkpt>
      <trkpt lat="47.09818" lon="4.61233">
        <ele>400.39999389648</ele>
        <time>2023-06-17T08:23:45.000Z</time>
      </trkpt>
      <trkpt lat="47.0981" lon="4.61274">
        <ele>400.39999389648</ele>
        <time>2023-06-17T08:23:50.000Z</time>
      </trkpt>
      <trkpt lat="47.09802" lon="4.61329">
        <ele>400.60000610352</ele>
        <time>2023-06-17T08:23:57.000Z</time>
      </trkpt>
      <trkpt lat="47.098" lon="4.61343">
        <ele>400.79998779297</ele>
        <time>2023-06-17T08:23:59.000Z</time>
      </trkpt>
      <trkpt lat="47.09794" lon="4.61353">
        <ele>401.20001220703</ele>
        <time>2023-06-17T08:24:01.000Z</time>
      </trkpt>
      <trkpt lat="47.0977" lon="4.61375">
        <ele>402.39999389648</ele>
        <time>2023-06-17T08:24:07.000Z</time>
      </trkpt>
      <trkpt lat="47.09766" lon="4.61379">
        <ele>402.79998779297</ele>
        <time>2023-06-17T08:24:08.000Z</time>
      </trkpt>
      <trkpt lat="47.09755" lon="4.61393">
        <ele>404</ele>
        <time>2023-06-17T08:24:11.000Z</time>
      </trkpt>
      <trkpt lat="47.09751" lon="4.61397">
        <ele>404.39999389648</ele>
        <time>2023-06-17T08:24:12.000Z</time>
      </trkpt>
      <trkpt lat="47.0974" lon="4.61406">
        <ele>405.39999389648</ele>
        <time>2023-06-17T08:24:15.000Z</time>
      </trkpt>
      <trkpt lat="47.09721" lon="4.61417">
        <ele>406.60000610352</ele>
        <time>2023-06-17T08:24:20.000Z</time>
      </trkpt>
      <trkpt lat="47.09713" lon="4.61421">
        <ele>407.39999389648</ele>
        <time>2023-06-17T08:24:22.000Z</time>
      </trkpt>
      <trkpt lat="47.09709" lon="4.61423">
        <ele>407.79998779297</ele>
        <time>2023-06-17T08:24:23.000Z</time>
      </trkpt>
      <trkpt lat="47.09699" lon="4.6143">
        <ele>408.79998779297</ele>
        <time>2023-06-17T08:24:26.000Z</time>
      </trkpt>
      <trkpt lat="47.09695" lon="4.61432">
        <ele>409</ele>
        <time>2023-06-17T08:24:27.000Z</time>
      </trkpt>
      <trkpt lat="47.09692" lon="4.61435">
        <ele>409.20001220703</ele>
        <time>2023-06-17T08:24:28.000Z</time>
      </trkpt>
      <trkpt lat="47.09681" lon="4.61444">
        <ele>410.20001220703</ele>
        <time>2023-06-17T08:24:31.000Z</time>
      </trkpt>
      <trkpt lat="47.09665" lon="4.61453">
        <ele>411.20001220703</ele>
        <time>2023-06-17T08:24:35.000Z</time>
      </trkpt>
      <trkpt lat="47.09637" lon="4.61461">
        <ele>412.39999389648</ele>
        <time>2023-06-17T08:24:41.000Z</time>
      </trkpt>
      <trkpt lat="47.09632" lon="4.61462">
        <ele>412.39999389648</ele>
        <time>2023-06-17T08:24:42.000Z</time>
      </trkpt>
      <trkpt lat="47.09599" lon="4.61467">
        <ele>413.39999389648</ele>
        <time>2023-06-17T08:24:49.000Z</time>
      </trkpt>
      <trkpt lat="47.09585" lon="4.6147">
        <ele>413.79998779297</ele>
        <time>2023-06-17T08:24:52.000Z</time>
      </trkpt>
      <trkpt lat="47.09549" lon="4.61479">
        <ele>414.60000610352</ele>
        <time>2023-06-17T08:24:59.000Z</time>
      </trkpt>
      <trkpt lat="47.09545" lon="4.6148">
        <ele>414.79998779297</ele>
        <time>2023-06-17T08:25:00.000Z</time>
      </trkpt>
      <trkpt lat="47.095" lon="4.61493">
        <ele>415.79998779297</ele>
        <time>2023-06-17T08:25:09.000Z</time>
      </trkpt>
      <trkpt lat="47.09467" lon="4.61513">
        <ele>416.39999389648</ele>
        <time>2023-06-17T08:25:16.000Z</time>
      </trkpt>
      <trkpt lat="47.09425" lon="4.61537">
        <ele>416.79998779297</ele>
        <time>2023-06-17T08:25:24.000Z</time>
      </trkpt>
      <trkpt lat="47.09419" lon="4.61539">
        <ele>416.79998779297</ele>
        <time>2023-06-17T08:25:25.000Z</time>
      </trkpt>
      <trkpt lat="47.09398" lon="4.61542">
        <ele>416.79998779297</ele>
        <time>2023-06-17T08:25:29.000Z</time>
      </trkpt>
      <trkpt lat="47.09352" lon="4.61533">
        <ele>416.79998779297</ele>
        <time>2023-06-17T08:25:37.000Z</time>
      </trkpt>
      <trkpt lat="47.0931" lon="4.61522">
        <ele>417</ele>
        <time>2023-06-17T08:25:44.000Z</time>
      </trkpt>
      <trkpt lat="47.0928" lon="4.6151">
        <ele>417.20001220703</ele>
        <time>2023-06-17T08:25:49.000Z</time>
      </trkpt>
      <trkpt lat="47.09269" lon="4.61504">
        <ele>417.20001220703</ele>
        <time>2023-06-17T08:25:51.000Z</time>
      </trkpt>
      <trkpt lat="47.09232" lon="4.61494">
        <ele>417</ele>
        <time>2023-06-17T08:25:57.000Z</time>
      </trkpt>
      <trkpt lat="47.09194" lon="4.61498">
        <ele>416.60000610352</ele>
        <time>2023-06-17T08:26:03.000Z</time>
      </trkpt>
      <trkpt lat="47.09148" lon="4.61505">
        <ele>415.79998779297</ele>
        <time>2023-06-17T08:26:10.000Z</time>
      </trkpt>
      <trkpt lat="47.09134" lon="4.61507">
        <ele>415.60000610352</ele>
        <time>2023-06-17T08:26:12.000Z</time>
      </trkpt>
      <trkpt lat="47.09093" lon="4.61516">
        <ele>414.60000610352</ele>
        <time>2023-06-17T08:26:18.000Z</time>
      </trkpt>
      <trkpt lat="47.0908" lon="4.61521">
        <ele>414</ele>
        <time>2023-06-17T08:26:20.000Z</time>
      </trkpt>
      <trkpt lat="47.09058" lon="4.6153">
        <ele>413.60000610352</ele>
        <time>2023-06-17T08:26:23.000Z</time>
      </trkpt>
      <trkpt lat="47.09036" lon="4.61539">
        <ele>413</ele>
        <time>2023-06-17T08:26:26.000Z</time>
      </trkpt>
      <trkpt lat="47.09021" lon="4.61545">
        <ele>412.39999389648</ele>
        <time>2023-06-17T08:26:28.000Z</time>
      </trkpt>
      <trkpt lat="47.08978" lon="4.61561">
        <ele>411.39999389648</ele>
        <time>2023-06-17T08:26:34.000Z</time>
      </trkpt>
      <trkpt lat="47.08963" lon="4.61566">
        <ele>411</ele>
        <time>2023-06-17T08:26:36.000Z</time>
      </trkpt>
      <trkpt lat="47.08904" lon="4.61585">
        <ele>410.39999389648</ele>
        <time>2023-06-17T08:26:44.000Z</time>
      </trkpt>
      <trkpt lat="47.08874" lon="4.61594">
        <ele>410.20001220703</ele>
        <time>2023-06-17T08:26:48.000Z</time>
      </trkpt>
      <trkpt lat="47.08813" lon="4.61607">
        <ele>410</ele>
        <time>2023-06-17T08:26:56.000Z</time>
      </trkpt>
      <trkpt lat="47.08799" lon="4.61611">
        <ele>409.79998779297</ele>
        <time>2023-06-17T08:26:58.000Z</time>
      </trkpt>
      <trkpt lat="47.08767" lon="4.61631">
        <ele>410</ele>
        <time>2023-06-17T08:27:03.000Z</time>
      </trkpt>
      <trkpt lat="47.08728" lon="4.61669">
        <ele>409.79998779297</ele>
        <time>2023-06-17T08:27:09.000Z</time>
      </trkpt>
      <trkpt lat="47.08723" lon="4.61677">
        <ele>409.79998779297</ele>
        <time>2023-06-17T08:27:10.000Z</time>
      </trkpt>
      <trkpt lat="47.08711" lon="4.61696">
        <ele>409.39999389648</ele>
        <time>2023-06-17T08:27:12.000Z</time>
      </trkpt>
      <trkpt lat="47.08693" lon="4.61728">
        <ele>408.39999389648</ele>
        <time>2023-06-17T08:27:15.000Z</time>
      </trkpt>
      <trkpt lat="47.08675" lon="4.6176">
        <ele>407.20001220703</ele>
        <time>2023-06-17T08:27:18.000Z</time>
      </trkpt>
      <trkpt lat="47.08663" lon="4.61779">
        <ele>406.20001220703</ele>
        <time>2023-06-17T08:27:20.000Z</time>
      </trkpt>
      <trkpt lat="47.08656" lon="4.61786">
        <ele>405.79998779297</ele>
        <time>2023-06-17T08:27:21.000Z</time>
      </trkpt>
      <trkpt lat="47.08635" lon="4.61805">
        <ele>405.39999389648</ele>
        <time>2023-06-17T08:27:24.000Z</time>
      </trkpt>
      <trkpt lat="47.08628" lon="4.61809">
        <ele>405.20001220703</ele>
        <time>2023-06-17T08:27:25.000Z</time>
      </trkpt>
      <trkpt lat="47.08604" lon="4.61822">
        <ele>405.60000610352</ele>
        <time>2023-06-17T08:27:29.000Z</time>
      </trkpt>
      <trkpt lat="47.08598" lon="4.61825">
        <ele>405.79998779297</ele>
        <time>2023-06-17T08:27:30.000Z</time>
      </trkpt>
      <trkpt lat="47.0857" lon="4.61837">
        <ele>407.20001220703</ele>
        <time>2023-06-17T08:27:35.000Z</time>
      </trkpt>
      <trkpt lat="47.08565" lon="4.61838">
        <ele>407.39999389648</ele>
        <time>2023-06-17T08:27:36.000Z</time>
      </trkpt>
      <trkpt lat="47.08548" lon="4.61843">
        <ele>408.39999389648</ele>
        <time>2023-06-17T08:27:39.000Z</time>
      </trkpt>
      <trkpt lat="47.08531" lon="4.61847">
        <ele>409.39999389648</ele>
        <time>2023-06-17T08:27:42.000Z</time>
      </trkpt>
      <trkpt lat="47.0852" lon="4.61849">
        <ele>409.79998779297</ele>
        <time>2023-06-17T08:27:44.000Z</time>
      </trkpt>
      <trkpt lat="47.08515" lon="4.6185">
        <ele>410</ele>
        <time>2023-06-17T08:27:45.000Z</time>
      </trkpt>
      <trkpt lat="47.08488" lon="4.61856">
        <ele>410.39999389648</ele>
        <time>2023-06-17T08:27:50.000Z</time>
      </trkpt>
      <trkpt lat="47.08483" lon="4.61858">
        <ele>410.60000610352</ele>
        <time>2023-06-17T08:27:51.000Z</time>
      </trkpt>
      <trkpt lat="47.08445" lon="4.61866">
        <ele>411.20001220703</ele>
        <time>2023-06-17T08:27:58.000Z</time>
      </trkpt>
      <trkpt lat="47.08418" lon="4.61868">
        <ele>411.60000610352</ele>
        <time>2023-06-17T08:28:03.000Z</time>
      </trkpt>
      <trkpt lat="47.08397" lon="4.61869">
        <ele>411.60000610352</ele>
        <time>2023-06-17T08:28:07.000Z</time>
      </trkpt>
      <trkpt lat="47.08382" lon="4.61869">
        <ele>411.60000610352</ele>
        <time>2023-06-17T08:28:11.000Z</time>
      </trkpt>
      <trkpt lat="47.08364" lon="4.61876">
        <ele>411.60000610352</ele>
        <time>2023-06-17T08:28:16.000Z</time>
      </trkpt>
      <trkpt lat="47.08341" lon="4.61878">
        <ele>412.20001220703</ele>
        <time>2023-06-17T08:28:21.000Z</time>
      </trkpt>
      <trkpt lat="47.08333" lon="4.6188">
        <ele>412.39999389648</ele>
        <time>2023-06-17T08:28:23.000Z</time>
      </trkpt>
      <trkpt lat="47.08329" lon="4.61882">
        <ele>412.60000610352</ele>
        <time>2023-06-17T08:28:24.000Z</time>
      </trkpt>
      <trkpt lat="47.0832" lon="4.61883">
        <ele>412.79998779297</ele>
        <time>2023-06-17T08:28:26.000Z</time>
      </trkpt>
      <trkpt lat="47.08311" lon="4.61883">
        <ele>412.79998779297</ele>
        <time>2023-06-17T08:28:28.000Z</time>
      </trkpt>
      <trkpt lat="47.08302" lon="4.61884">
        <ele>413.20001220703</ele>
        <time>2023-06-17T08:28:30.000Z</time>
      </trkpt>
      <trkpt lat="47.08292" lon="4.61885">
        <ele>413.60000610352</ele>
        <time>2023-06-17T08:28:32.000Z</time>
      </trkpt>
      <trkpt lat="47.08287" lon="4.61886">
        <ele>413.60000610352</ele>
        <time>2023-06-17T08:28:33.000Z</time>
      </trkpt>
      <trkpt lat="47.08282" lon="4.61886">
        <ele>413.79998779297</ele>
        <time>2023-06-17T08:28:34.000Z</time>
      </trkpt>
      <trkpt lat="47.08247" lon="4.61891">
        <ele>414.39999389648</ele>
        <time>2023-06-17T08:28:41.000Z</time>
      </trkpt>
      <trkpt lat="47.08237" lon="4.61893">
        <ele>414.79998779297</ele>
        <time>2023-06-17T08:28:43.000Z</time>
      </trkpt>
      <trkpt lat="47.08196" lon="4.619">
        <ele>415.79998779297</ele>
        <time>2023-06-17T08:28:51.000Z</time>
      </trkpt>
      <trkpt lat="47.08191" lon="4.61901">
        <ele>415.79998779297</ele>
        <time>2023-06-17T08:28:52.000Z</time>
      </trkpt>
      <trkpt lat="47.08157" lon="4.61909">
        <ele>416.79998779297</ele>
        <time>2023-06-17T08:28:59.000Z</time>
      </trkpt>
      <trkpt lat="47.08126" lon="4.61919">
        <ele>417.60000610352</ele>
        <time>2023-06-17T08:29:05.000Z</time>
      </trkpt>
      <trkpt lat="47.08116" lon="4.61922">
        <ele>417.79998779297</ele>
        <time>2023-06-17T08:29:07.000Z</time>
      </trkpt>
      <trkpt lat="47.08076" lon="4.61937">
        <ele>418.79998779297</ele>
        <time>2023-06-17T08:29:15.000Z</time>
      </trkpt>
      <trkpt lat="47.08061" lon="4.61943">
        <ele>418.79998779297</ele>
        <time>2023-06-17T08:29:18.000Z</time>
      </trkpt>
      <trkpt lat="47.08036" lon="4.61953">
        <ele>419.60000610352</ele>
        <time>2023-06-17T08:29:23.000Z</time>
      </trkpt>
      <trkpt lat="47.0802" lon="4.61959">
        <ele>420</ele>
        <time>2023-06-17T08:29:26.000Z</time>
      </trkpt>
      <trkpt lat="47.07993" lon="4.61968">
        <ele>420.60000610352</ele>
        <time>2023-06-17T08:29:31.000Z</time>
      </trkpt>
      <trkpt lat="47.07972" lon="4.61975">
        <ele>421</ele>
        <time>2023-06-17T08:29:35.000Z</time>
      </trkpt>
      <trkpt lat="47.0795" lon="4.6198">
        <ele>421.39999389648</ele>
        <time>2023-06-17T08:29:39.000Z</time>
      </trkpt>
      <trkpt lat="47.07945" lon="4.61981">
        <ele>421.60000610352</ele>
        <time>2023-06-17T08:29:40.000Z</time>
      </trkpt>
      <trkpt lat="47.07923" lon="4.61981">
        <ele>422.20001220703</ele>
        <time>2023-06-17T08:29:44.000Z</time>
      </trkpt>
      <trkpt lat="47.07907" lon="4.61977">
        <ele>422.60000610352</ele>
        <time>2023-06-17T08:29:47.000Z</time>
      </trkpt>
      <trkpt lat="47.07876" lon="4.61962">
        <ele>423.20001220703</ele>
        <time>2023-06-17T08:29:53.000Z</time>
      </trkpt>
      <trkpt lat="47.07871" lon="4.6196">
        <ele>423.39999389648</ele>
        <time>2023-06-17T08:29:54.000Z</time>
      </trkpt>
      <trkpt lat="47.07829" lon="4.61934">
        <ele>424</ele>
        <time>2023-06-17T08:30:02.000Z</time>
      </trkpt>
      <trkpt lat="47.07778" lon="4.61902">
        <ele>423.79998779297</ele>
        <time>2023-06-17T08:30:11.000Z</time>
      </trkpt>
      <trkpt lat="47.07771" lon="4.61898">
        <ele>423.79998779297</ele>
        <time>2023-06-17T08:30:12.000Z</time>
      </trkpt>
      <trkpt lat="47.07721" lon="4.61868">
        <ele>423.20001220703</ele>
        <time>2023-06-17T08:30:20.000Z</time>
      </trkpt>
      <trkpt lat="47.07715" lon="4.61864">
        <ele>423.20001220703</ele>
        <time>2023-06-17T08:30:21.000Z</time>
      </trkpt>
      <trkpt lat="47.07665" lon="4.6183">
        <ele>422.60000610352</ele>
        <time>2023-06-17T08:30:29.000Z</time>
      </trkpt>
      <trkpt lat="47.07654" lon="4.61821">
        <ele>422.60000610352</ele>
        <time>2023-06-17T08:30:31.000Z</time>
      </trkpt>
      <trkpt lat="47.07624" lon="4.61784">
        <ele>422.39999389648</ele>
        <time>2023-06-17T08:30:37.000Z</time>
      </trkpt>
      <trkpt lat="47.07584" lon="4.61724">
        <ele>422.60000610352</ele>
        <time>2023-06-17T08:30:46.000Z</time>
      </trkpt>
      <trkpt lat="47.07545" lon="4.61665">
        <ele>422.79998779297</ele>
        <time>2023-06-17T08:30:55.000Z</time>
      </trkpt>
      <trkpt lat="47.07532" lon="4.61646">
        <ele>423</ele>
        <time>2023-06-17T08:30:58.000Z</time>
      </trkpt>
      <trkpt lat="47.0749" lon="4.61584">
        <ele>423.39999389648</ele>
        <time>2023-06-17T08:31:08.000Z</time>
      </trkpt>
      <trkpt lat="47.07478" lon="4.61566">
        <ele>423.60000610352</ele>
        <time>2023-06-17T08:31:11.000Z</time>
      </trkpt>
      <trkpt lat="47.07456" lon="4.61532">
        <ele>424.20001220703</ele>
        <time>2023-06-17T08:31:17.000Z</time>
      </trkpt>
      <trkpt lat="47.07436" lon="4.61503">
        <ele>424.39999389648</ele>
        <time>2023-06-17T08:31:22.000Z</time>
      </trkpt>
      <trkpt lat="47.07396" lon="4.61446">
        <ele>425.39999389648</ele>
        <time>2023-06-17T08:31:32.000Z</time>
      </trkpt>
      <trkpt lat="47.07388" lon="4.61434">
        <ele>425.39999389648</ele>
        <time>2023-06-17T08:31:34.000Z</time>
      </trkpt>
      <trkpt lat="47.07346" lon="4.6138">
        <ele>426.39999389648</ele>
        <time>2023-06-17T08:31:44.000Z</time>
      </trkpt>
      <trkpt lat="47.07341" lon="4.61375">
        <ele>426.39999389648</ele>
        <time>2023-06-17T08:31:45.000Z</time>
      </trkpt>
      <trkpt lat="47.07293" lon="4.61332">
        <ele>427</ele>
        <time>2023-06-17T08:31:55.000Z</time>
      </trkpt>
      <trkpt lat="47.07288" lon="4.61327">
        <ele>427</ele>
        <time>2023-06-17T08:31:56.000Z</time>
      </trkpt>
      <trkpt lat="47.0724" lon="4.61279">
        <ele>427.20001220703</ele>
        <time>2023-06-17T08:32:06.000Z</time>
      </trkpt>
      <trkpt lat="47.07217" lon="4.6124">
        <ele>427.20001220703</ele>
        <time>2023-06-17T08:32:12.000Z</time>
      </trkpt>
      <trkpt lat="47.07196" lon="4.61177">
        <ele>427.39999389648</ele>
        <time>2023-06-17T08:32:20.000Z</time>
      </trkpt>
      <trkpt lat="47.07194" lon="4.61169">
        <ele>427.39999389648</ele>
        <time>2023-06-17T08:32:21.000Z</time>
      </trkpt>
      <trkpt lat="47.07184" lon="4.61128">
        <ele>427.39999389648</ele>
        <time>2023-06-17T08:32:26.000Z</time>
      </trkpt>
      <trkpt lat="47.0718" lon="4.61122">
        <ele>427.39999389648</ele>
        <time>2023-06-17T08:32:27.000Z</time>
      </trkpt>
      <trkpt lat="47.07175" lon="4.61118">
        <ele>427.20001220703</ele>
        <time>2023-06-17T08:32:28.000Z</time>
      </trkpt>
      <trkpt lat="47.07153" lon="4.61104">
        <ele>427.20001220703</ele>
        <time>2023-06-17T08:32:32.000Z</time>
      </trkpt>
      <trkpt lat="47.07116" lon="4.61093">
        <ele>427</ele>
        <time>2023-06-17T08:32:38.000Z</time>
      </trkpt>
      <trkpt lat="47.0708" lon="4.61097">
        <ele>426.39999389648</ele>
        <time>2023-06-17T08:32:43.000Z</time>
      </trkpt>
      <trkpt lat="47.07065" lon="4.61099">
        <ele>426</ele>
        <time>2023-06-17T08:32:45.000Z</time>
      </trkpt>
      <trkpt lat="47.07051" lon="4.61104">
        <ele>425.39999389648</ele>
        <time>2023-06-17T08:32:47.000Z</time>
      </trkpt>
      <trkpt lat="47.07043" lon="4.61106">
        <ele>424.79998779297</ele>
        <time>2023-06-17T08:32:48.000Z</time>
      </trkpt>
      <trkpt lat="47.07028" lon="4.61114">
        <ele>424</ele>
        <time>2023-06-17T08:32:50.000Z</time>
      </trkpt>
      <trkpt lat="47.07021" lon="4.61117">
        <ele>423.79998779297</ele>
        <time>2023-06-17T08:32:51.000Z</time>
      </trkpt>
      <trkpt lat="47.07013" lon="4.61118">
        <ele>423.39999389648</ele>
        <time>2023-06-17T08:32:52.000Z</time>
      </trkpt>
      <trkpt lat="47.07006" lon="4.61115">
        <ele>422.79998779297</ele>
        <time>2023-06-17T08:32:53.000Z</time>
      </trkpt>
      <trkpt lat="47.06999" lon="4.6111">
        <ele>422.39999389648</ele>
        <time>2023-06-17T08:32:54.000Z</time>
      </trkpt>
      <trkpt lat="47.06994" lon="4.61103">
        <ele>421.60000610352</ele>
        <time>2023-06-17T08:32:55.000Z</time>
      </trkpt>
      <trkpt lat="47.06984" lon="4.6109">
        <ele>420.39999389648</ele>
        <time>2023-06-17T08:32:57.000Z</time>
      </trkpt>
      <trkpt lat="47.06973" lon="4.61081">
        <ele>419.20001220703</ele>
        <time>2023-06-17T08:32:59.000Z</time>
      </trkpt>
      <trkpt lat="47.06954" lon="4.6107">
        <ele>417.60000610352</ele>
        <time>2023-06-17T08:33:02.000Z</time>
      </trkpt>
      <trkpt lat="47.06949" lon="4.61068">
        <ele>417.39999389648</ele>
        <time>2023-06-17T08:33:03.000Z</time>
      </trkpt>
      <trkpt lat="47.06944" lon="4.61068">
        <ele>416.79998779297</ele>
        <time>2023-06-17T08:33:04.000Z</time>
      </trkpt>
      <trkpt lat="47.06938" lon="4.61072">
        <ele>416.60000610352</ele>
        <time>2023-06-17T08:33:05.000Z</time>
      </trkpt>
      <trkpt lat="47.06934" lon="4.6108">
        <ele>416</ele>
        <time>2023-06-17T08:33:06.000Z</time>
      </trkpt>
      <trkpt lat="47.06932" lon="4.61088">
        <ele>415.20001220703</ele>
        <time>2023-06-17T08:33:07.000Z</time>
      </trkpt>
      <trkpt lat="47.06931" lon="4.61108">
        <ele>414.20001220703</ele>
        <time>2023-06-17T08:33:09.000Z</time>
      </trkpt>
      <trkpt lat="47.06929" lon="4.61117">
        <ele>414</ele>
        <time>2023-06-17T08:33:10.000Z</time>
      </trkpt>
      <trkpt lat="47.06923" lon="4.61131">
        <ele>413.39999389648</ele>
        <time>2023-06-17T08:33:12.000Z</time>
      </trkpt>
      <trkpt lat="47.06913" lon="4.61138">
        <ele>413.20001220703</ele>
        <time>2023-06-17T08:33:14.000Z</time>
      </trkpt>
      <trkpt lat="47.06908" lon="4.6114">
        <ele>413.20001220703</ele>
        <time>2023-06-17T08:33:15.000Z</time>
      </trkpt>
      <trkpt lat="47.06885" lon="4.61149">
        <ele>413.39999389648</ele>
        <time>2023-06-17T08:33:20.000Z</time>
      </trkpt>
      <trkpt lat="47.06882" lon="4.61151">
        <ele>413.79998779297</ele>
        <time>2023-06-17T08:33:21.000Z</time>
      </trkpt>
      <trkpt lat="47.06878" lon="4.61153">
        <ele>414</ele>
        <time>2023-06-17T08:33:22.000Z</time>
      </trkpt>
      <trkpt lat="47.06864" lon="4.61159">
        <ele>415.20001220703</ele>
        <time>2023-06-17T08:33:26.000Z</time>
      </trkpt>
      <trkpt lat="47.06857" lon="4.61162">
        <ele>415.60000610352</ele>
        <time>2023-06-17T08:33:28.000Z</time>
      </trkpt>
      <trkpt lat="47.0685" lon="4.61164">
        <ele>416.39999389648</ele>
        <time>2023-06-17T08:33:30.000Z</time>
      </trkpt>
      <trkpt lat="47.06836" lon="4.61169">
        <ele>417.79998779297</ele>
        <time>2023-06-17T08:33:34.000Z</time>
      </trkpt>
      <trkpt lat="47.06826" lon="4.61173">
        <ele>419</ele>
        <time>2023-06-17T08:33:37.000Z</time>
      </trkpt>
      <trkpt lat="47.06813" lon="4.61178">
        <ele>419.79998779297</ele>
        <time>2023-06-17T08:33:41.000Z</time>
      </trkpt>
      <trkpt lat="47.06809" lon="4.6118">
        <ele>420.20001220703</ele>
        <time>2023-06-17T08:33:42.000Z</time>
      </trkpt>
      <trkpt lat="47.06796" lon="4.61189">
        <ele>421.39999389648</ele>
        <time>2023-06-17T08:33:46.000Z</time>
      </trkpt>
      <trkpt lat="47.0679" lon="4.61196">
        <ele>422</ele>
        <time>2023-06-17T08:33:48.000Z</time>
      </trkpt>
      <trkpt lat="47.06782" lon="4.6121">
        <ele>422.39999389648</ele>
        <time>2023-06-17T08:33:51.000Z</time>
      </trkpt>
      <trkpt lat="47.06775" lon="4.61224">
        <ele>422.79998779297</ele>
        <time>2023-06-17T08:33:54.000Z</time>
      </trkpt>
      <trkpt lat="47.06766" lon="4.61244">
        <ele>423.79998779297</ele>
        <time>2023-06-17T08:33:58.000Z</time>
      </trkpt>
      <trkpt lat="47.06755" lon="4.61267">
        <ele>424.60000610352</ele>
        <time>2023-06-17T08:34:03.000Z</time>
      </trkpt>
      <trkpt lat="47.06753" lon="4.61272">
        <ele>424.79998779297</ele>
        <time>2023-06-17T08:34:04.000Z</time>
      </trkpt>
      <trkpt lat="47.06738" lon="4.6131">
        <ele>425.79998779297</ele>
        <time>2023-06-17T08:34:11.000Z</time>
      </trkpt>
      <trkpt lat="47.06731" lon="4.61327">
        <ele>426.20001220703</ele>
        <time>2023-06-17T08:34:14.000Z</time>
      </trkpt>
      <trkpt lat="47.06706" lon="4.61374">
        <ele>426.79998779297</ele>
        <time>2023-06-17T08:34:22.000Z</time>
      </trkpt>
      <trkpt lat="47.06674" lon="4.61424">
        <ele>426.79998779297</ele>
        <time>2023-06-17T08:34:30.000Z</time>
      </trkpt>
      <trkpt lat="47.0667" lon="4.61431">
        <ele>427</ele>
        <time>2023-06-17T08:34:31.000Z</time>
      </trkpt>
      <trkpt lat="47.06642" lon="4.61485">
        <ele>428</ele>
        <time>2023-06-17T08:34:39.000Z</time>
      </trkpt>
      <trkpt lat="47.06623" lon="4.61534">
        <ele>429.20001220703</ele>
        <time>2023-06-17T08:34:46.000Z</time>
      </trkpt>
      <trkpt lat="47.06618" lon="4.6155">
        <ele>429.39999389648</ele>
        <time>2023-06-17T08:34:48.000Z</time>
      </trkpt>
      <trkpt lat="47.06595" lon="4.61622">
        <ele>430.20001220703</ele>
        <time>2023-06-17T08:34:57.000Z</time>
      </trkpt>
      <trkpt lat="47.06573" lon="4.61665">
        <ele>430.79998779297</ele>
        <time>2023-06-17T08:35:03.000Z</time>
      </trkpt>
      <trkpt lat="47.06535" lon="4.6172">
        <ele>431.20001220703</ele>
        <time>2023-06-17T08:35:12.000Z</time>
      </trkpt>
      <trkpt lat="47.06526" lon="4.6173">
        <ele>431.39999389648</ele>
        <time>2023-06-17T08:35:14.000Z</time>
      </trkpt>
      <trkpt lat="47.06506" lon="4.61751">
        <ele>431.39999389648</ele>
        <time>2023-06-17T08:35:18.000Z</time>
      </trkpt>
      <trkpt lat="47.0647" lon="4.61801">
        <ele>432</ele>
        <time>2023-06-17T08:35:26.000Z</time>
      </trkpt>
      <trkpt lat="47.06447" lon="4.61848">
        <ele>432.39999389648</ele>
        <time>2023-06-17T08:35:33.000Z</time>
      </trkpt>
      <trkpt lat="47.06429" lon="4.61889">
        <ele>433.39999389648</ele>
        <time>2023-06-17T08:35:39.000Z</time>
      </trkpt>
      <trkpt lat="47.06419" lon="4.61916">
        <ele>434.20001220703</ele>
        <time>2023-06-17T08:35:43.000Z</time>
      </trkpt>
      <trkpt lat="47.06412" lon="4.61937">
        <ele>434.60000610352</ele>
        <time>2023-06-17T08:35:46.000Z</time>
      </trkpt>
      <trkpt lat="47.06403" lon="4.61971">
        <ele>435.20001220703</ele>
        <time>2023-06-17T08:35:51.000Z</time>
      </trkpt>
      <trkpt lat="47.064" lon="4.61984">
        <ele>435.60000610352</ele>
        <time>2023-06-17T08:35:53.000Z</time>
      </trkpt>
      <trkpt lat="47.06394" lon="4.62017">
        <ele>436.79998779297</ele>
        <time>2023-06-17T08:35:58.000Z</time>
      </trkpt>
      <trkpt lat="47.06385" lon="4.62062">
        <ele>437.79998779297</ele>
        <time>2023-06-17T08:36:04.000Z</time>
      </trkpt>
      <trkpt lat="47.06381" lon="4.62087">
        <ele>438</ele>
        <time>2023-06-17T08:36:07.000Z</time>
      </trkpt>
      <trkpt lat="47.06375" lon="4.62133">
        <ele>437.79998779297</ele>
        <time>2023-06-17T08:36:12.000Z</time>
      </trkpt>
      <trkpt lat="47.06373" lon="4.62162">
        <ele>437.60000610352</ele>
        <time>2023-06-17T08:36:15.000Z</time>
      </trkpt>
      <trkpt lat="47.06371" lon="4.62204">
        <ele>437.79998779297</ele>
        <time>2023-06-17T08:36:19.000Z</time>
      </trkpt>
      <trkpt lat="47.06375" lon="4.62281">
        <ele>437</ele>
        <time>2023-06-17T08:36:26.000Z</time>
      </trkpt>
      <trkpt lat="47.0638" lon="4.62325">
        <ele>436.79998779297</ele>
        <time>2023-06-17T08:36:30.000Z</time>
      </trkpt>
      <trkpt lat="47.06385" lon="4.62379">
        <ele>436.60000610352</ele>
        <time>2023-06-17T08:36:35.000Z</time>
      </trkpt>
      <trkpt lat="47.06387" lon="4.62455">
        <ele>436.39999389648</ele>
        <time>2023-06-17T08:36:42.000Z</time>
      </trkpt>
      <trkpt lat="47.0638" lon="4.62538">
        <ele>436.79998779297</ele>
        <time>2023-06-17T08:36:50.000Z</time>
      </trkpt>
      <trkpt lat="47.06378" lon="4.62558">
        <ele>437</ele>
        <time>2023-06-17T08:36:52.000Z</time>
      </trkpt>
      <trkpt lat="47.06369" lon="4.62641">
        <ele>437</ele>
        <time>2023-06-17T08:37:00.000Z</time>
      </trkpt>
      <trkpt lat="47.06366" lon="4.62671">
        <ele>437.20001220703</ele>
        <time>2023-06-17T08:37:03.000Z</time>
      </trkpt>
      <trkpt lat="47.06357" lon="4.62741">
        <ele>437.20001220703</ele>
        <time>2023-06-17T08:37:10.000Z</time>
      </trkpt>
      <trkpt lat="47.06344" lon="4.62819">
        <ele>437.79998779297</ele>
        <time>2023-06-17T08:37:18.000Z</time>
      </trkpt>
      <trkpt lat="47.06327" lon="4.629">
        <ele>438.20001220703</ele>
        <time>2023-06-17T08:37:27.000Z</time>
      </trkpt>
      <trkpt lat="47.06325" lon="4.62909">
        <ele>438.39999389648</ele>
        <time>2023-06-17T08:37:28.000Z</time>
      </trkpt>
      <trkpt lat="47.06308" lon="4.6295">
        <ele>438.39999389648</ele>
        <time>2023-06-17T08:37:33.000Z</time>
      </trkpt>
      <trkpt lat="47.06281" lon="4.6298">
        <ele>438.39999389648</ele>
        <time>2023-06-17T08:37:38.000Z</time>
      </trkpt>
      <trkpt lat="47.06269" lon="4.62987">
        <ele>438.39999389648</ele>
        <time>2023-06-17T08:37:40.000Z</time>
      </trkpt>
      <trkpt lat="47.06249" lon="4.62996">
        <ele>438.20001220703</ele>
        <time>2023-06-17T08:37:43.000Z</time>
      </trkpt>
      <trkpt lat="47.06211" lon="4.63008">
        <ele>437.60000610352</ele>
        <time>2023-06-17T08:37:48.000Z</time>
      </trkpt>
      <trkpt lat="47.06185" lon="4.63015">
        <ele>436.20001220703</ele>
        <time>2023-06-17T08:37:51.000Z</time>
      </trkpt>
      <trkpt lat="47.06166" lon="4.63018">
        <ele>435.20001220703</ele>
        <time>2023-06-17T08:37:53.000Z</time>
      </trkpt>
      <trkpt lat="47.06156" lon="4.63021">
        <ele>435</ele>
        <time>2023-06-17T08:37:54.000Z</time>
      </trkpt>
      <trkpt lat="47.06128" lon="4.63035">
        <ele>433.79998779297</ele>
        <time>2023-06-17T08:37:57.000Z</time>
      </trkpt>
      <trkpt lat="47.06118" lon="4.63041">
        <ele>433.20001220703</ele>
        <time>2023-06-17T08:37:58.000Z</time>
      </trkpt>
      <trkpt lat="47.06109" lon="4.63049">
        <ele>433</ele>
        <time>2023-06-17T08:37:59.000Z</time>
      </trkpt>
      <trkpt lat="47.061" lon="4.63058">
        <ele>432</ele>
        <time>2023-06-17T08:38:00.000Z</time>
      </trkpt>
      <trkpt lat="47.06092" lon="4.63069">
        <ele>431.60000610352</ele>
        <time>2023-06-17T08:38:01.000Z</time>
      </trkpt>
      <trkpt lat="47.06085" lon="4.63079">
        <ele>430.79998779297</ele>
        <time>2023-06-17T08:38:02.000Z</time>
      </trkpt>
      <trkpt lat="47.06074" lon="4.63102">
        <ele>430</ele>
        <time>2023-06-17T08:38:04.000Z</time>
      </trkpt>
      <trkpt lat="47.06071" lon="4.63113">
        <ele>429.60000610352</ele>
        <time>2023-06-17T08:38:05.000Z</time>
      </trkpt>
      <trkpt lat="47.06069" lon="4.63123">
        <ele>429.39999389648</ele>
        <time>2023-06-17T08:38:06.000Z</time>
      </trkpt>
      <trkpt lat="47.06068" lon="4.63128">
        <ele>429</ele>
        <time>2023-06-17T08:38:07.000Z</time>
      </trkpt>
      <trkpt lat="47.06066" lon="4.63131">
        <ele>429</ele>
        <time>2023-06-17T08:38:08.000Z</time>
      </trkpt>
      <trkpt lat="47.06065" lon="4.63131">
        <ele>429</ele>
        <time>2023-06-17T08:38:09.000Z</time>
      </trkpt>
      <trkpt lat="47.06064" lon="4.63113">
        <ele>428.79998779297</ele>
        <time>2023-06-17T08:38:12.000Z</time>
      </trkpt>
      <trkpt lat="47.06062" lon="4.6309">
        <ele>428.60000610352</ele>
        <time>2023-06-17T08:38:15.000Z</time>
      </trkpt>
      <trkpt lat="47.0606" lon="4.63085">
        <ele>428.39999389648</ele>
        <time>2023-06-17T08:38:16.000Z</time>
      </trkpt>
      <trkpt lat="47.06056" lon="4.63082">
        <ele>427.79998779297</ele>
        <time>2023-06-17T08:38:17.000Z</time>
      </trkpt>
      <trkpt lat="47.06048" lon="4.63082">
        <ele>427.20001220703</ele>
        <time>2023-06-17T08:38:19.000Z</time>
      </trkpt>
      <trkpt lat="47.06045" lon="4.63084">
        <ele>427.20001220703</ele>
        <time>2023-06-17T08:38:20.000Z</time>
      </trkpt>
      <trkpt lat="47.06032" lon="4.63091">
        <ele>427</ele>
        <time>2023-06-17T08:38:23.000Z</time>
      </trkpt>
      <trkpt lat="47.06018" lon="4.631">
        <ele>426.79998779297</ele>
        <time>2023-06-17T08:38:26.000Z</time>
      </trkpt>
      <trkpt lat="47.05981" lon="4.63135">
        <ele>427.39999389648</ele>
        <time>2023-06-17T08:38:34.000Z</time>
      </trkpt>
      <trkpt lat="47.05939" lon="4.63182">
        <ele>427.60000610352</ele>
        <time>2023-06-17T08:38:43.000Z</time>
      </trkpt>
      <trkpt lat="47.05934" lon="4.63186">
        <ele>427.60000610352</ele>
        <time>2023-06-17T08:38:44.000Z</time>
      </trkpt>
      <trkpt lat="47.05921" lon="4.63191">
        <ele>427.79998779297</ele>
        <time>2023-06-17T08:38:46.000Z</time>
      </trkpt>
      <trkpt lat="47.05915" lon="4.63192">
        <ele>428</ele>
        <time>2023-06-17T08:38:47.000Z</time>
      </trkpt>
      <trkpt lat="47.05896" lon="4.63192">
        <ele>428.20001220703</ele>
        <time>2023-06-17T08:38:50.000Z</time>
      </trkpt>
      <trkpt lat="47.05873" lon="4.63192">
        <ele>428.60000610352</ele>
        <time>2023-06-17T08:38:54.000Z</time>
      </trkpt>
      <trkpt lat="47.05857" lon="4.63197">
        <ele>428.60000610352</ele>
        <time>2023-06-17T08:38:57.000Z</time>
      </trkpt>
      <trkpt lat="47.05842" lon="4.63204">
        <ele>429.20001220703</ele>
        <time>2023-06-17T08:39:00.000Z</time>
      </trkpt>
      <trkpt lat="47.05837" lon="4.63206">
        <ele>429.20001220703</ele>
        <time>2023-06-17T08:39:01.000Z</time>
      </trkpt>
      <trkpt lat="47.0582" lon="4.63213">
        <ele>430.20001220703</ele>
        <time>2023-06-17T08:39:05.000Z</time>
      </trkpt>
      <trkpt lat="47.05816" lon="4.63214">
        <ele>430.20001220703</ele>
        <time>2023-06-17T08:39:06.000Z</time>
      </trkpt>
      <trkpt lat="47.05797" lon="4.63222">
        <ele>431.39999389648</ele>
        <time>2023-06-17T08:39:11.000Z</time>
      </trkpt>
      <trkpt lat="47.05787" lon="4.63228">
        <ele>432.20001220703</ele>
        <time>2023-06-17T08:39:14.000Z</time>
      </trkpt>
      <trkpt lat="47.0578" lon="4.63231">
        <ele>432.60000610352</ele>
        <time>2023-06-17T08:39:16.000Z</time>
      </trkpt>
      <trkpt lat="47.05763" lon="4.63239">
        <ele>433.79998779297</ele>
        <time>2023-06-17T08:39:21.000Z</time>
      </trkpt>
      <trkpt lat="47.05753" lon="4.63244">
        <ele>434.60000610352</ele>
        <time>2023-06-17T08:39:24.000Z</time>
      </trkpt>
      <trkpt lat="47.0575" lon="4.63245">
        <ele>434.79998779297</ele>
        <time>2023-06-17T08:39:25.000Z</time>
      </trkpt>
      <trkpt lat="47.05741" lon="4.6325">
        <ele>435.79998779297</ele>
        <time>2023-06-17T08:39:28.000Z</time>
      </trkpt>
      <trkpt lat="47.05732" lon="4.63255">
        <ele>437</ele>
        <time>2023-06-17T08:39:31.000Z</time>
      </trkpt>
      <trkpt lat="47.05726" lon="4.63257">
        <ele>437.60000610352</ele>
        <time>2023-06-17T08:39:33.000Z</time>
      </trkpt>
      <trkpt lat="47.05716" lon="4.63262">
        <ele>438</ele>
        <time>2023-06-17T08:39:36.000Z</time>
      </trkpt>
      <trkpt lat="47.05699" lon="4.63271">
        <ele>439.20001220703</ele>
        <time>2023-06-17T08:39:41.000Z</time>
      </trkpt>
      <trkpt lat="47.05685" lon="4.63277">
        <ele>440.20001220703</ele>
        <time>2023-06-17T08:39:45.000Z</time>
      </trkpt>
      <trkpt lat="47.05681" lon="4.63279">
        <ele>440.20001220703</ele>
        <time>2023-06-17T08:39:46.000Z</time>
      </trkpt>
      <trkpt lat="47.0566" lon="4.63286">
        <ele>441.39999389648</ele>
        <time>2023-06-17T08:39:52.000Z</time>
      </trkpt>
      <trkpt lat="47.05652" lon="4.63289">
        <ele>442</ele>
        <time>2023-06-17T08:39:54.000Z</time>
      </trkpt>
      <trkpt lat="47.05644" lon="4.63291">
        <ele>442.39999389648</ele>
        <time>2023-06-17T08:39:56.000Z</time>
      </trkpt>
      <trkpt lat="47.05626" lon="4.63297">
        <ele>443.39999389648</ele>
        <time>2023-06-17T08:40:01.000Z</time>
      </trkpt>
      <trkpt lat="47.05615" lon="4.63301">
        <ele>443.79998779297</ele>
        <time>2023-06-17T08:40:04.000Z</time>
      </trkpt>
      <trkpt lat="47.05594" lon="4.63307">
        <ele>444.39999389648</ele>
        <time>2023-06-17T08:40:09.000Z</time>
      </trkpt>
      <trkpt lat="47.0559" lon="4.63307">
        <ele>444.60000610352</ele>
        <time>2023-06-17T08:40:10.000Z</time>
      </trkpt>
      <trkpt lat="47.05571" lon="4.63311">
        <ele>444.79998779297</ele>
        <time>2023-06-17T08:40:14.000Z</time>
      </trkpt>
      <trkpt lat="47.05559" lon="4.63315">
        <ele>444.79998779297</ele>
        <time>2023-06-17T08:40:16.000Z</time>
      </trkpt>
      <trkpt lat="47.05512" lon="4.63329">
        <ele>444.79998779297</ele>
        <time>2023-06-17T08:40:24.000Z</time>
      </trkpt>
      <trkpt lat="47.05471" lon="4.63341">
        <ele>444.79998779297</ele>
        <time>2023-06-17T08:40:31.000Z</time>
      </trkpt>
      <trkpt lat="47.05464" lon="4.6334">
        <ele>445</ele>
        <time>2023-06-17T08:40:32.000Z</time>
      </trkpt>
      <trkpt lat="47.05458" lon="4.63339">
        <ele>445</ele>
        <time>2023-06-17T08:40:33.000Z</time>
      </trkpt>
      <trkpt lat="47.05437" lon="4.63332">
        <ele>445.60000610352</ele>
        <time>2023-06-17T08:40:37.000Z</time>
      </trkpt>
      <trkpt lat="47.05432" lon="4.6333">
        <ele>445.79998779297</ele>
        <time>2023-06-17T08:40:38.000Z</time>
      </trkpt>
      <trkpt lat="47.05415" lon="4.63326">
        <ele>446.20001220703</ele>
        <time>2023-06-17T08:40:41.000Z</time>
      </trkpt>
      <trkpt lat="47.05405" lon="4.63325">
        <ele>446.79998779297</ele>
        <time>2023-06-17T08:40:43.000Z</time>
      </trkpt>
      <trkpt lat="47.054" lon="4.63325">
        <ele>447</ele>
        <time>2023-06-17T08:40:44.000Z</time>
      </trkpt>
      <trkpt lat="47.05395" lon="4.63325">
        <ele>447.20001220703</ele>
        <time>2023-06-17T08:40:45.000Z</time>
      </trkpt>
      <trkpt lat="47.05377" lon="4.63331">
        <ele>447.79998779297</ele>
        <time>2023-06-17T08:40:49.000Z</time>
      </trkpt>
      <trkpt lat="47.05348" lon="4.63337">
        <ele>449</ele>
        <time>2023-06-17T08:40:55.000Z</time>
      </trkpt>
      <trkpt lat="47.05333" lon="4.63342">
        <ele>449.79998779297</ele>
        <time>2023-06-17T08:40:58.000Z</time>
      </trkpt>
      <trkpt lat="47.05322" lon="4.63347">
        <ele>450.20001220703</ele>
        <time>2023-06-17T08:41:00.000Z</time>
      </trkpt>
      <trkpt lat="47.05296" lon="4.6336">
        <ele>450.79998779297</ele>
        <time>2023-06-17T08:41:05.000Z</time>
      </trkpt>
      <trkpt lat="47.05287" lon="4.63365">
        <ele>451.20001220703</ele>
        <time>2023-06-17T08:41:07.000Z</time>
      </trkpt>
      <trkpt lat="47.05238" lon="4.63394">
        <ele>451.79998779297</ele>
        <time>2023-06-17T08:41:17.000Z</time>
      </trkpt>
      <trkpt lat="47.05198" lon="4.63424">
        <ele>452.20001220703</ele>
        <time>2023-06-17T08:41:25.000Z</time>
      </trkpt>
      <trkpt lat="47.05193" lon="4.63428">
        <ele>452.20001220703</ele>
        <time>2023-06-17T08:41:26.000Z</time>
      </trkpt>
      <trkpt lat="47.05153" lon="4.63463">
        <ele>452.39999389648</ele>
        <time>2023-06-17T08:41:34.000Z</time>
      </trkpt>
      <trkpt lat="47.05126" lon="4.63489">
        <ele>453</ele>
        <time>2023-06-17T08:41:40.000Z</time>
      </trkpt>
      <trkpt lat="47.05121" lon="4.63492">
        <ele>453</ele>
        <time>2023-06-17T08:41:41.000Z</time>
      </trkpt>
      <trkpt lat="47.05115" lon="4.63493">
        <ele>453</ele>
        <time>2023-06-17T08:41:42.000Z</time>
      </trkpt>
      <trkpt lat="47.05098" lon="4.63497">
        <ele>453.39999389648</ele>
        <time>2023-06-17T08:41:45.000Z</time>
      </trkpt>
      <trkpt lat="47.05092" lon="4.63497">
        <ele>453.39999389648</ele>
        <time>2023-06-17T08:41:46.000Z</time>
      </trkpt>
      <trkpt lat="47.05065" lon="4.63496">
        <ele>453.60000610352</ele>
        <time>2023-06-17T08:41:50.000Z</time>
      </trkpt>
      <trkpt lat="47.05058" lon="4.63498">
        <ele>453.60000610352</ele>
        <time>2023-06-17T08:41:51.000Z</time>
      </trkpt>
      <trkpt lat="47.05019" lon="4.63514">
        <ele>452.60000610352</ele>
        <time>2023-06-17T08:41:56.000Z</time>
      </trkpt>
      <trkpt lat="47.05" lon="4.63519">
        <ele>451.79998779297</ele>
        <time>2023-06-17T08:41:58.000Z</time>
      </trkpt>
      <trkpt lat="47.04969" lon="4.63526">
        <ele>450.39999389648</ele>
        <time>2023-06-17T08:42:01.000Z</time>
      </trkpt>
      <trkpt lat="47.04947" lon="4.63531">
        <ele>449.20001220703</ele>
        <time>2023-06-17T08:42:03.000Z</time>
      </trkpt>
      <trkpt lat="47.04923" lon="4.63537">
        <ele>448.20001220703</ele>
        <time>2023-06-17T08:42:05.000Z</time>
      </trkpt>
      <trkpt lat="47.04911" lon="4.63542">
        <ele>447.39999389648</ele>
        <time>2023-06-17T08:42:06.000Z</time>
      </trkpt>
      <trkpt lat="47.04899" lon="4.63547">
        <ele>446.39999389648</ele>
        <time>2023-06-17T08:42:07.000Z</time>
      </trkpt>
      <trkpt lat="47.04887" lon="4.63552">
        <ele>445.20001220703</ele>
        <time>2023-06-17T08:42:08.000Z</time>
      </trkpt>
      <trkpt lat="47.04866" lon="4.63565">
        <ele>443.39999389648</ele>
        <time>2023-06-17T08:42:10.000Z</time>
      </trkpt>
      <trkpt lat="47.04857" lon="4.63571">
        <ele>443.20001220703</ele>
        <time>2023-06-17T08:42:11.000Z</time>
      </trkpt>
      <trkpt lat="47.04847" lon="4.63577">
        <ele>442.20001220703</ele>
        <time>2023-06-17T08:42:12.000Z</time>
      </trkpt>
      <trkpt lat="47.04815" lon="4.63597">
        <ele>441.20001220703</ele>
        <time>2023-06-17T08:42:16.000Z</time>
      </trkpt>
      <trkpt lat="47.04784" lon="4.63615">
        <ele>442</ele>
        <time>2023-06-17T08:42:21.000Z</time>
      </trkpt>
      <trkpt lat="47.04762" lon="4.63625">
        <ele>443.39999389648</ele>
        <time>2023-06-17T08:42:25.000Z</time>
      </trkpt>
      <trkpt lat="47.04752" lon="4.6363">
        <ele>444.20001220703</ele>
        <time>2023-06-17T08:42:27.000Z</time>
      </trkpt>
      <trkpt lat="47.04748" lon="4.63631">
        <ele>444.60000610352</ele>
        <time>2023-06-17T08:42:28.000Z</time>
      </trkpt>
      <trkpt lat="47.0474" lon="4.63636">
        <ele>445.20001220703</ele>
        <time>2023-06-17T08:42:30.000Z</time>
      </trkpt>
      <trkpt lat="47.04735" lon="4.6364">
        <ele>445.79998779297</ele>
        <time>2023-06-17T08:42:31.000Z</time>
      </trkpt>
      <trkpt lat="47.04727" lon="4.63648">
        <ele>446.20001220703</ele>
        <time>2023-06-17T08:42:33.000Z</time>
      </trkpt>
      <trkpt lat="47.0472" lon="4.63658">
        <ele>446.79998779297</ele>
        <time>2023-06-17T08:42:35.000Z</time>
      </trkpt>
      <trkpt lat="47.04704" lon="4.63682">
        <ele>448.20001220703</ele>
        <time>2023-06-17T08:42:40.000Z</time>
      </trkpt>
      <trkpt lat="47.04701" lon="4.63687">
        <ele>448.39999389648</ele>
        <time>2023-06-17T08:42:41.000Z</time>
      </trkpt>
      <trkpt lat="47.04689" lon="4.63706">
        <ele>449.20001220703</ele>
        <time>2023-06-17T08:42:45.000Z</time>
      </trkpt>
      <trkpt lat="47.04677" lon="4.63724">
        <ele>450.60000610352</ele>
        <time>2023-06-17T08:42:49.000Z</time>
      </trkpt>
      <trkpt lat="47.04671" lon="4.63732">
        <ele>450.79998779297</ele>
        <time>2023-06-17T08:42:51.000Z</time>
      </trkpt>
      <trkpt lat="47.04662" lon="4.63745">
        <ele>451.79998779297</ele>
        <time>2023-06-17T08:42:54.000Z</time>
      </trkpt>
      <trkpt lat="47.04648" lon="4.63762">
        <ele>453</ele>
        <time>2023-06-17T08:42:58.000Z</time>
      </trkpt>
      <trkpt lat="47.04645" lon="4.63766">
        <ele>453.20001220703</ele>
        <time>2023-06-17T08:42:59.000Z</time>
      </trkpt>
      <trkpt lat="47.04634" lon="4.63779">
        <ele>454</ele>
        <time>2023-06-17T08:43:02.000Z</time>
      </trkpt>
      <trkpt lat="47.04618" lon="4.63803">
        <ele>455</ele>
        <time>2023-06-17T08:43:07.000Z</time>
      </trkpt>
      <trkpt lat="47.04611" lon="4.63813">
        <ele>455.20001220703</ele>
        <time>2023-06-17T08:43:09.000Z</time>
      </trkpt>
      <trkpt lat="47.04586" lon="4.63847">
        <ele>456</ele>
        <time>2023-06-17T08:43:16.000Z</time>
      </trkpt>
      <trkpt lat="47.04579" lon="4.63858">
        <ele>456.20001220703</ele>
        <time>2023-06-17T08:43:18.000Z</time>
      </trkpt>
      <trkpt lat="47.04557" lon="4.63888">
        <ele>457.39999389648</ele>
        <time>2023-06-17T08:43:24.000Z</time>
      </trkpt>
      <trkpt lat="47.04521" lon="4.63939">
        <ele>457.60000610352</ele>
        <time>2023-06-17T08:43:33.000Z</time>
      </trkpt>
      <trkpt lat="47.04511" lon="4.6396">
        <ele>457.39999389648</ele>
        <time>2023-06-17T08:43:36.000Z</time>
      </trkpt>
      <trkpt lat="47.04503" lon="4.63983">
        <ele>457.60000610352</ele>
        <time>2023-06-17T08:43:39.000Z</time>
      </trkpt>
      <trkpt lat="47.04487" lon="4.64032">
        <ele>457.60000610352</ele>
        <time>2023-06-17T08:43:45.000Z</time>
      </trkpt>
      <trkpt lat="47.04483" lon="4.64039">
        <ele>457.60000610352</ele>
        <time>2023-06-17T08:43:46.000Z</time>
      </trkpt>
      <trkpt lat="47.04462" lon="4.64071">
        <ele>458</ele>
        <time>2023-06-17T08:43:51.000Z</time>
      </trkpt>
      <trkpt lat="47.04428" lon="4.64126">
        <ele>458.20001220703</ele>
        <time>2023-06-17T08:43:59.000Z</time>
      </trkpt>
      <trkpt lat="47.0442" lon="4.64141">
        <ele>458.20001220703</ele>
        <time>2023-06-17T08:44:01.000Z</time>
      </trkpt>
      <trkpt lat="47.04416" lon="4.64148">
        <ele>458.20001220703</ele>
        <time>2023-06-17T08:44:02.000Z</time>
      </trkpt>
      <trkpt lat="47.04408" lon="4.64171">
        <ele>458.39999389648</ele>
        <time>2023-06-17T08:44:05.000Z</time>
      </trkpt>
      <trkpt lat="47.04394" lon="4.64208">
        <ele>458.79998779297</ele>
        <time>2023-06-17T08:44:10.000Z</time>
      </trkpt>
      <trkpt lat="47.04391" lon="4.64215">
        <ele>458.79998779297</ele>
        <time>2023-06-17T08:44:11.000Z</time>
      </trkpt>
      <trkpt lat="47.04383" lon="4.64226">
        <ele>459</ele>
        <time>2023-06-17T08:44:13.000Z</time>
      </trkpt>
      <trkpt lat="47.04374" lon="4.64236">
        <ele>459.20001220703</ele>
        <time>2023-06-17T08:44:15.000Z</time>
      </trkpt>
      <trkpt lat="47.04369" lon="4.6424">
        <ele>459.20001220703</ele>
        <time>2023-06-17T08:44:16.000Z</time>
      </trkpt>
      <trkpt lat="47.0435" lon="4.64253">
        <ele>460.20001220703</ele>
        <time>2023-06-17T08:44:20.000Z</time>
      </trkpt>
      <trkpt lat="47.04346" lon="4.64255">
        <ele>460.20001220703</ele>
        <time>2023-06-17T08:44:21.000Z</time>
      </trkpt>
      <trkpt lat="47.04341" lon="4.64257">
        <ele>460.39999389648</ele>
        <time>2023-06-17T08:44:22.000Z</time>
      </trkpt>
      <trkpt lat="47.04337" lon="4.64258">
        <ele>460.60000610352</ele>
        <time>2023-06-17T08:44:23.000Z</time>
      </trkpt>
      <trkpt lat="47.04327" lon="4.64259">
        <ele>461.20001220703</ele>
        <time>2023-06-17T08:44:25.000Z</time>
      </trkpt>
      <trkpt lat="47.04322" lon="4.64258">
        <ele>461.60000610352</ele>
        <time>2023-06-17T08:44:26.000Z</time>
      </trkpt>
      <trkpt lat="47.04307" lon="4.64253">
        <ele>462.60000610352</ele>
        <time>2023-06-17T08:44:30.000Z</time>
      </trkpt>
      <trkpt lat="47.043" lon="4.64249">
        <ele>463</ele>
        <time>2023-06-17T08:44:32.000Z</time>
      </trkpt>
      <trkpt lat="47.04293" lon="4.64246">
        <ele>464</ele>
        <time>2023-06-17T08:44:34.000Z</time>
      </trkpt>
      <trkpt lat="47.0427" lon="4.6424">
        <ele>465</ele>
        <time>2023-06-17T08:44:40.000Z</time>
      </trkpt>
      <trkpt lat="47.04266" lon="4.64239">
        <ele>465.39999389648</ele>
        <time>2023-06-17T08:44:41.000Z</time>
      </trkpt>
      <trkpt lat="47.04247" lon="4.64232">
        <ele>466.20001220703</ele>
        <time>2023-06-17T08:44:46.000Z</time>
      </trkpt>
      <trkpt lat="47.0423" lon="4.64226">
        <ele>467.20001220703</ele>
        <time>2023-06-17T08:44:51.000Z</time>
      </trkpt>
      <trkpt lat="47.04226" lon="4.64225">
        <ele>467.60000610352</ele>
        <time>2023-06-17T08:44:52.000Z</time>
      </trkpt>
      <trkpt lat="47.04209" lon="4.64219">
        <ele>469.20001220703</ele>
        <time>2023-06-17T08:44:57.000Z</time>
      </trkpt>
      <trkpt lat="47.04196" lon="4.64214">
        <ele>470.39999389648</ele>
        <time>2023-06-17T08:45:01.000Z</time>
      </trkpt>
      <trkpt lat="47.04193" lon="4.64213">
        <ele>470.60000610352</ele>
        <time>2023-06-17T08:45:02.000Z</time>
      </trkpt>
      <trkpt lat="47.04185" lon="4.64208">
        <ele>471.60000610352</ele>
        <time>2023-06-17T08:45:05.000Z</time>
      </trkpt>
      <trkpt lat="47.04176" lon="4.64204">
        <ele>472.79998779297</ele>
        <time>2023-06-17T08:45:08.000Z</time>
      </trkpt>
      <trkpt lat="47.04163" lon="4.64194">
        <ele>473.79998779297</ele>
        <time>2023-06-17T08:45:12.000Z</time>
      </trkpt>
      <trkpt lat="47.04153" lon="4.64187">
        <ele>475</ele>
        <time>2023-06-17T08:45:15.000Z</time>
      </trkpt>
      <trkpt lat="47.04138" lon="4.64177">
        <ele>476.20001220703</ele>
        <time>2023-06-17T08:45:19.000Z</time>
      </trkpt>
      <trkpt lat="47.04125" lon="4.64167">
        <ele>476.79998779297</ele>
        <time>2023-06-17T08:45:23.000Z</time>
      </trkpt>
      <trkpt lat="47.04118" lon="4.6416">
        <ele>477.20001220703</ele>
        <time>2023-06-17T08:45:25.000Z</time>
      </trkpt>
      <trkpt lat="47.04105" lon="4.64149">
        <ele>478.20001220703</ele>
        <time>2023-06-17T08:45:29.000Z</time>
      </trkpt>
      <trkpt lat="47.04098" lon="4.64147">
        <ele>478.79998779297</ele>
        <time>2023-06-17T08:45:31.000Z</time>
      </trkpt>
      <trkpt lat="47.04087" lon="4.64146">
        <ele>479.39999389648</ele>
        <time>2023-06-17T08:45:34.000Z</time>
      </trkpt>
      <trkpt lat="47.04076" lon="4.64146">
        <ele>480</ele>
        <time>2023-06-17T08:45:37.000Z</time>
      </trkpt>
      <trkpt lat="47.04072" lon="4.64147">
        <ele>480.39999389648</ele>
        <time>2023-06-17T08:45:38.000Z</time>
      </trkpt>
      <trkpt lat="47.04049" lon="4.64148">
        <ele>481</ele>
        <time>2023-06-17T08:45:44.000Z</time>
      </trkpt>
      <trkpt lat="47.04042" lon="4.64143">
        <ele>481.39999389648</ele>
        <time>2023-06-17T08:45:46.000Z</time>
      </trkpt>
      <trkpt lat="47.04027" lon="4.64132">
        <ele>482.20001220703</ele>
        <time>2023-06-17T08:45:50.000Z</time>
      </trkpt>
      <trkpt lat="47.04009" lon="4.64117">
        <ele>482.39999389648</ele>
        <time>2023-06-17T08:45:55.000Z</time>
      </trkpt>
      <trkpt lat="47.04005" lon="4.64114">
        <ele>482.39999389648</ele>
        <time>2023-06-17T08:45:56.000Z</time>
      </trkpt>
      <trkpt lat="47.04001" lon="4.64111">
        <ele>482.60000610352</ele>
        <time>2023-06-17T08:45:57.000Z</time>
      </trkpt>
      <trkpt lat="47.03994" lon="4.64106">
        <ele>482.39999389648</ele>
        <time>2023-06-17T08:45:59.000Z</time>
      </trkpt>
      <trkpt lat="47.03986" lon="4.641">
        <ele>482.39999389648</ele>
        <time>2023-06-17T08:46:01.000Z</time>
      </trkpt>
      <trkpt lat="47.03977" lon="4.64094">
        <ele>482.60000610352</ele>
        <time>2023-06-17T08:46:03.000Z</time>
      </trkpt>
      <trkpt lat="47.03961" lon="4.64084">
        <ele>482.20001220703</ele>
        <time>2023-06-17T08:46:06.000Z</time>
      </trkpt>
      <trkpt lat="47.03949" lon="4.64079">
        <ele>482.20001220703</ele>
        <time>2023-06-17T08:46:08.000Z</time>
      </trkpt>
      <trkpt lat="47.03918" lon="4.64072">
        <ele>481.20001220703</ele>
        <time>2023-06-17T08:46:13.000Z</time>
      </trkpt>
      <trkpt lat="47.03911" lon="4.64072">
        <ele>480.79998779297</ele>
        <time>2023-06-17T08:46:14.000Z</time>
      </trkpt>
      <trkpt lat="47.03893" lon="4.6407">
        <ele>480</ele>
        <time>2023-06-17T08:46:17.000Z</time>
      </trkpt>
      <trkpt lat="47.03868" lon="4.64068">
        <ele>479</ele>
        <time>2023-06-17T08:46:21.000Z</time>
      </trkpt>
      <trkpt lat="47.03854" lon="4.64066">
        <ele>478.20001220703</ele>
        <time>2023-06-17T08:46:23.000Z</time>
      </trkpt>
      <trkpt lat="47.03846" lon="4.64065">
        <ele>477.60000610352</ele>
        <time>2023-06-17T08:46:24.000Z</time>
      </trkpt>
      <trkpt lat="47.03821" lon="4.64061">
        <ele>476.20001220703</ele>
        <time>2023-06-17T08:46:27.000Z</time>
      </trkpt>
      <trkpt lat="47.03813" lon="4.64059">
        <ele>476</ele>
        <time>2023-06-17T08:46:28.000Z</time>
      </trkpt>
      <trkpt lat="47.03772" lon="4.64044">
        <ele>474.60000610352</ele>
        <time>2023-06-17T08:46:33.000Z</time>
      </trkpt>
      <trkpt lat="47.0375" lon="4.64029">
        <ele>473.60000610352</ele>
        <time>2023-06-17T08:46:36.000Z</time>
      </trkpt>
      <trkpt lat="47.03731" lon="4.64011">
        <ele>473</ele>
        <time>2023-06-17T08:46:39.000Z</time>
      </trkpt>
      <trkpt lat="47.03715" lon="4.63993">
        <ele>472.60000610352</ele>
        <time>2023-06-17T08:46:42.000Z</time>
      </trkpt>
      <trkpt lat="47.03711" lon="4.63987">
        <ele>472.60000610352</ele>
        <time>2023-06-17T08:46:43.000Z</time>
      </trkpt>
      <trkpt lat="47.03679" lon="4.63946">
        <ele>473.60000610352</ele>
        <time>2023-06-17T08:46:50.000Z</time>
      </trkpt>
      <trkpt lat="47.03663" lon="4.63929">
        <ele>474.60000610352</ele>
        <time>2023-06-17T08:46:54.000Z</time>
      </trkpt>
      <trkpt lat="47.03659" lon="4.63925">
        <ele>475</ele>
        <time>2023-06-17T08:46:55.000Z</time>
      </trkpt>
      <trkpt lat="47.03655" lon="4.63922">
        <ele>475</ele>
        <time>2023-06-17T08:46:56.000Z</time>
      </trkpt>
      <trkpt lat="47.03643" lon="4.63916">
        <ele>476.20001220703</ele>
        <time>2023-06-17T08:46:59.000Z</time>
      </trkpt>
      <trkpt lat="47.0363" lon="4.63913">
        <ele>477.39999389648</ele>
        <time>2023-06-17T08:47:02.000Z</time>
      </trkpt>
      <trkpt lat="47.03625" lon="4.63912">
        <ele>477.39999389648</ele>
        <time>2023-06-17T08:47:03.000Z</time>
      </trkpt>
      <trkpt lat="47.036" lon="4.63914">
        <ele>478.20001220703</ele>
        <time>2023-06-17T08:47:08.000Z</time>
      </trkpt>
      <trkpt lat="47.03595" lon="4.63914">
        <ele>478.60000610352</ele>
        <time>2023-06-17T08:47:09.000Z</time>
      </trkpt>
      <trkpt lat="47.03564" lon="4.63919">
        <ele>479.60000610352</ele>
        <time>2023-06-17T08:47:15.000Z</time>
      </trkpt>
      <trkpt lat="47.0356" lon="4.6392">
        <ele>479.79998779297</ele>
        <time>2023-06-17T08:47:16.000Z</time>
      </trkpt>
      <trkpt lat="47.0353" lon="4.63924">
        <ele>480.79998779297</ele>
        <time>2023-06-17T08:47:22.000Z</time>
      </trkpt>
      <trkpt lat="47.03512" lon="4.63925">
        <ele>481.39999389648</ele>
        <time>2023-06-17T08:47:25.000Z</time>
      </trkpt>
      <trkpt lat="47.03463" lon="4.63927">
        <ele>481.20001220703</ele>
        <time>2023-06-17T08:47:34.000Z</time>
      </trkpt>
      <trkpt lat="47.0341" lon="4.63928">
        <ele>480.39999389648</ele>
        <time>2023-06-17T08:47:43.000Z</time>
      </trkpt>
      <trkpt lat="47.03356" lon="4.63921">
        <ele>479.39999389648</ele>
        <time>2023-06-17T08:47:52.000Z</time>
      </trkpt>
      <trkpt lat="47.03349" lon="4.63918">
        <ele>479.39999389648</ele>
        <time>2023-06-17T08:47:53.000Z</time>
      </trkpt>
      <trkpt lat="47.03322" lon="4.63905">
        <ele>479</ele>
        <time>2023-06-17T08:47:58.000Z</time>
      </trkpt>
      <trkpt lat="47.03312" lon="4.63897">
        <ele>478.79998779297</ele>
        <time>2023-06-17T08:48:00.000Z</time>
      </trkpt>
      <trkpt lat="47.03293" lon="4.63878">
        <ele>478.79998779297</ele>
        <time>2023-06-17T08:48:05.000Z</time>
      </trkpt>
      <trkpt lat="47.03281" lon="4.63869">
        <ele>479.20001220703</ele>
        <time>2023-06-17T08:48:09.000Z</time>
      </trkpt>
      <trkpt lat="47.03257" lon="4.63874">
        <ele>479.20001220703</ele>
        <time>2023-06-17T08:48:13.000Z</time>
      </trkpt>
      <trkpt lat="47.03243" lon="4.63877">
        <ele>479</ele>
        <time>2023-06-17T08:48:15.000Z</time>
      </trkpt>
      <trkpt lat="47.0323" lon="4.63875">
        <ele>478.79998779297</ele>
        <time>2023-06-17T08:48:17.000Z</time>
      </trkpt>
      <trkpt lat="47.03211" lon="4.63868">
        <ele>478.39999389648</ele>
        <time>2023-06-17T08:48:20.000Z</time>
      </trkpt>
      <trkpt lat="47.03185" lon="4.63857">
        <ele>477.79998779297</ele>
        <time>2023-06-17T08:48:24.000Z</time>
      </trkpt>
      <trkpt lat="47.03152" lon="4.63844">
        <ele>477.20001220703</ele>
        <time>2023-06-17T08:48:29.000Z</time>
      </trkpt>
      <trkpt lat="47.03127" lon="4.63833">
        <ele>477</ele>
        <time>2023-06-17T08:48:33.000Z</time>
      </trkpt>
      <trkpt lat="47.03073" lon="4.6381">
        <ele>477.60000610352</ele>
        <time>2023-06-17T08:48:42.000Z</time>
      </trkpt>
      <trkpt lat="47.03014" lon="4.63789">
        <ele>477.39999389648</ele>
        <time>2023-06-17T08:48:51.000Z</time>
      </trkpt>
      <trkpt lat="47.02972" lon="4.63774">
        <ele>476</ele>
        <time>2023-06-17T08:48:57.000Z</time>
      </trkpt>
      <trkpt lat="47.02957" lon="4.63768">
        <ele>475</ele>
        <time>2023-06-17T08:48:59.000Z</time>
      </trkpt>
      <trkpt lat="47.02951" lon="4.63766">
        <ele>474.79998779297</ele>
        <time>2023-06-17T08:49:00.000Z</time>
      </trkpt>
      <trkpt lat="47.02934" lon="4.63759">
        <ele>473.79998779297</ele>
        <time>2023-06-17T08:49:03.000Z</time>
      </trkpt>
      <trkpt lat="47.02929" lon="4.63755">
        <ele>473.60000610352</ele>
        <time>2023-06-17T08:49:04.000Z</time>
      </trkpt>
      <trkpt lat="47.02921" lon="4.63748">
        <ele>473.39999389648</ele>
        <time>2023-06-17T08:49:06.000Z</time>
      </trkpt>
      <trkpt lat="47.02917" lon="4.63746">
        <ele>473.20001220703</ele>
        <time>2023-06-17T08:49:07.000Z</time>
      </trkpt>
      <trkpt lat="47.02909" lon="4.63741">
        <ele>473</ele>
        <time>2023-06-17T08:49:09.000Z</time>
      </trkpt>
      <trkpt lat="47.02895" lon="4.63727">
        <ele>472.79998779297</ele>
        <time>2023-06-17T08:49:12.000Z</time>
      </trkpt>
      <trkpt lat="47.02883" lon="4.63715">
        <ele>472.79998779297</ele>
        <time>2023-06-17T08:49:15.000Z</time>
      </trkpt>
      <trkpt lat="47.02879" lon="4.63711">
        <ele>472.39999389648</ele>
        <time>2023-06-17T08:49:17.000Z</time>
      </trkpt>
      <trkpt lat="47.02876" lon="4.6371">
        <ele>472</ele>
        <time>2023-06-17T08:49:18.000Z</time>
      </trkpt>
      <trkpt lat="47.02874" lon="4.63712">
        <ele>471.60000610352</ele>
        <time>2023-06-17T08:49:19.000Z</time>
      </trkpt>
      <trkpt lat="47.02871" lon="4.63715">
        <ele>471.39999389648</ele>
        <time>2023-06-17T08:49:20.000Z</time>
      </trkpt>
      <trkpt lat="47.02856" lon="4.63739">
        <ele>470.79998779297</ele>
        <time>2023-06-17T08:49:24.000Z</time>
      </trkpt>
      <trkpt lat="47.02849" lon="4.63748">
        <ele>470.39999389648</ele>
        <time>2023-06-17T08:49:25.000Z</time>
      </trkpt>
      <trkpt lat="47.02829" lon="4.63776">
        <ele>469</ele>
        <time>2023-06-17T08:49:29.000Z</time>
      </trkpt>
      <trkpt lat="47.02824" lon="4.63784">
        <ele>468.39999389648</ele>
        <time>2023-06-17T08:49:30.000Z</time>
      </trkpt>
      <trkpt lat="47.02813" lon="4.63804">
        <ele>467.60000610352</ele>
        <time>2023-06-17T08:49:32.000Z</time>
      </trkpt>
      <trkpt lat="47.02793" lon="4.6384">
        <ele>466.20001220703</ele>
        <time>2023-06-17T08:49:36.000Z</time>
      </trkpt>
      <trkpt lat="47.02777" lon="4.63871">
        <ele>464.79998779297</ele>
        <time>2023-06-17T08:49:39.000Z</time>
      </trkpt>
      <trkpt lat="47.02771" lon="4.6388">
        <ele>464.79998779297</ele>
        <time>2023-06-17T08:49:40.000Z</time>
      </trkpt>
      <trkpt lat="47.02755" lon="4.63894">
        <ele>464.20001220703</ele>
        <time>2023-06-17T08:49:42.000Z</time>
      </trkpt>
      <trkpt lat="47.02747" lon="4.63899">
        <ele>463.79998779297</ele>
        <time>2023-06-17T08:49:43.000Z</time>
      </trkpt>
      <trkpt lat="47.02738" lon="4.63902">
        <ele>463.60000610352</ele>
        <time>2023-06-17T08:49:44.000Z</time>
      </trkpt>
      <trkpt lat="47.02719" lon="4.63903">
        <ele>462.79998779297</ele>
        <time>2023-06-17T08:49:46.000Z</time>
      </trkpt>
      <trkpt lat="47.02711" lon="4.639">
        <ele>462.60000610352</ele>
        <time>2023-06-17T08:49:47.000Z</time>
      </trkpt>
      <trkpt lat="47.02693" lon="4.63892">
        <ele>461.39999389648</ele>
        <time>2023-06-17T08:49:49.000Z</time>
      </trkpt>
      <trkpt lat="47.02682" lon="4.63885">
        <ele>460.79998779297</ele>
        <time>2023-06-17T08:49:50.000Z</time>
      </trkpt>
      <trkpt lat="47.02666" lon="4.63874">
        <ele>460</ele>
        <time>2023-06-17T08:49:52.000Z</time>
      </trkpt>
      <trkpt lat="47.02637" lon="4.63853">
        <ele>458.60000610352</ele>
        <time>2023-06-17T08:49:55.000Z</time>
      </trkpt>
      <trkpt lat="47.02619" lon="4.6384">
        <ele>457.39999389648</ele>
        <time>2023-06-17T08:49:57.000Z</time>
      </trkpt>
      <trkpt lat="47.0261" lon="4.63834">
        <ele>457.39999389648</ele>
        <time>2023-06-17T08:49:58.000Z</time>
      </trkpt>
      <trkpt lat="47.026" lon="4.63829">
        <ele>456.79998779297</ele>
        <time>2023-06-17T08:49:59.000Z</time>
      </trkpt>
      <trkpt lat="47.02589" lon="4.63825">
        <ele>456.20001220703</ele>
        <time>2023-06-17T08:50:00.000Z</time>
      </trkpt>
      <trkpt lat="47.02579" lon="4.63823">
        <ele>455.60000610352</ele>
        <time>2023-06-17T08:50:01.000Z</time>
      </trkpt>
      <trkpt lat="47.02567" lon="4.63822">
        <ele>454.60000610352</ele>
        <time>2023-06-17T08:50:02.000Z</time>
      </trkpt>
      <trkpt lat="47.02545" lon="4.63827">
        <ele>454</ele>
        <time>2023-06-17T08:50:04.000Z</time>
      </trkpt>
      <trkpt lat="47.02534" lon="4.63832">
        <ele>453.60000610352</ele>
        <time>2023-06-17T08:50:05.000Z</time>
      </trkpt>
      <trkpt lat="47.02522" lon="4.63837">
        <ele>452.39999389648</ele>
        <time>2023-06-17T08:50:06.000Z</time>
      </trkpt>
      <trkpt lat="47.02499" lon="4.63846">
        <ele>451</ele>
        <time>2023-06-17T08:50:08.000Z</time>
      </trkpt>
      <trkpt lat="47.02488" lon="4.63849">
        <ele>450</ele>
        <time>2023-06-17T08:50:09.000Z</time>
      </trkpt>
      <trkpt lat="47.02476" lon="4.63849">
        <ele>449.39999389648</ele>
        <time>2023-06-17T08:50:10.000Z</time>
      </trkpt>
      <trkpt lat="47.02464" lon="4.63848">
        <ele>448.60000610352</ele>
        <time>2023-06-17T08:50:11.000Z</time>
      </trkpt>
      <trkpt lat="47.0244" lon="4.63844">
        <ele>447</ele>
        <time>2023-06-17T08:50:13.000Z</time>
      </trkpt>
      <trkpt lat="47.02416" lon="4.63839">
        <ele>445.79998779297</ele>
        <time>2023-06-17T08:50:15.000Z</time>
      </trkpt>
      <trkpt lat="47.02393" lon="4.63833">
        <ele>444.60000610352</ele>
        <time>2023-06-17T08:50:17.000Z</time>
      </trkpt>
      <trkpt lat="47.02369" lon="4.63828">
        <ele>443.39999389648</ele>
        <time>2023-06-17T08:50:19.000Z</time>
      </trkpt>
      <trkpt lat="47.02358" lon="4.63826">
        <ele>443</ele>
        <time>2023-06-17T08:50:20.000Z</time>
      </trkpt>
      <trkpt lat="47.02346" lon="4.63825">
        <ele>442</ele>
        <time>2023-06-17T08:50:21.000Z</time>
      </trkpt>
      <trkpt lat="47.02324" lon="4.63823">
        <ele>440.79998779297</ele>
        <time>2023-06-17T08:50:23.000Z</time>
      </trkpt>
      <trkpt lat="47.02291" lon="4.63817">
        <ele>439.60000610352</ele>
        <time>2023-06-17T08:50:26.000Z</time>
      </trkpt>
      <trkpt lat="47.0226" lon="4.63808">
        <ele>438.20001220703</ele>
        <time>2023-06-17T08:50:29.000Z</time>
      </trkpt>
      <trkpt lat="47.02251" lon="4.63805">
        <ele>437.79998779297</ele>
        <time>2023-06-17T08:50:30.000Z</time>
      </trkpt>
      <trkpt lat="47.02214" lon="4.63794">
        <ele>437</ele>
        <time>2023-06-17T08:50:34.000Z</time>
      </trkpt>
      <trkpt lat="47.02188" lon="4.63787">
        <ele>436</ele>
        <time>2023-06-17T08:50:37.000Z</time>
      </trkpt>
      <trkpt lat="47.02173" lon="4.63783">
        <ele>435.79998779297</ele>
        <time>2023-06-17T08:50:39.000Z</time>
      </trkpt>
      <trkpt lat="47.02152" lon="4.63776">
        <ele>435.60000610352</ele>
        <time>2023-06-17T08:50:42.000Z</time>
      </trkpt>
      <trkpt lat="47.02117" lon="4.63766">
        <ele>436.39999389648</ele>
        <time>2023-06-17T08:50:48.000Z</time>
      </trkpt>
      <trkpt lat="47.02107" lon="4.63762">
        <ele>437</ele>
        <time>2023-06-17T08:50:50.000Z</time>
      </trkpt>
      <trkpt lat="47.02093" lon="4.63756">
        <ele>438.20001220703</ele>
        <time>2023-06-17T08:50:53.000Z</time>
      </trkpt>
      <trkpt lat="47.02084" lon="4.63753">
        <ele>438.39999389648</ele>
        <time>2023-06-17T08:50:54.000Z</time>
      </trkpt>
      <trkpt lat="47.02077" lon="4.63749">
        <ele>439.79998779297</ele>
        <time>2023-06-17T08:50:57.000Z</time>
      </trkpt>
      <trkpt lat="47.02064" lon="4.63745">
        <ele>440.60000610352</ele>
        <time>2023-06-17T08:50:59.000Z</time>
      </trkpt>
      <trkpt lat="47.02064" lon="4.63745">
        <ele>440.79998779297</ele>
        <time>2023-06-17T08:51:00.000Z</time>
      </trkpt>
      <trkpt lat="47.0205" lon="4.63738">
        <ele>441.39999389648</ele>
        <time>2023-06-17T08:51:02.000Z</time>
      </trkpt>
      <trkpt lat="47.02046" lon="4.63735">
        <ele>442</ele>
        <time>2023-06-17T08:51:04.000Z</time>
      </trkpt>
      <trkpt lat="47.02032" lon="4.63729">
        <ele>443</ele>
        <time>2023-06-17T08:51:07.000Z</time>
      </trkpt>
      <trkpt lat="47.02018" lon="4.63723">
        <ele>443.20001220703</ele>
        <time>2023-06-17T08:51:09.000Z</time>
      </trkpt>
      <trkpt lat="47.02002" lon="4.63716">
        <ele>443.79998779297</ele>
        <time>2023-06-17T08:51:14.000Z</time>
      </trkpt>
      <trkpt lat="47.01977" lon="4.63705">
        <ele>444.39999389648</ele>
        <time>2023-06-17T08:51:19.000Z</time>
      </trkpt>
      <trkpt lat="47.01961" lon="4.63697">
        <ele>444.79998779297</ele>
        <time>2023-06-17T08:51:23.000Z</time>
      </trkpt>
      <trkpt lat="47.01942" lon="4.63689">
        <ele>445.39999389648</ele>
        <time>2023-06-17T08:51:28.000Z</time>
      </trkpt>
      <trkpt lat="47.01923" lon="4.63683">
        <ele>446.39999389648</ele>
        <time>2023-06-17T08:51:34.000Z</time>
      </trkpt>
      <trkpt lat="47.01889" lon="4.63671">
        <ele>447.60000610352</ele>
        <time>2023-06-17T08:51:42.000Z</time>
      </trkpt>
      <trkpt lat="47.01881" lon="4.63669">
        <ele>447.79998779297</ele>
        <time>2023-06-17T08:51:44.000Z</time>
      </trkpt>
      <trkpt lat="47.01849" lon="4.6366">
        <ele>448.60000610352</ele>
        <time>2023-06-17T08:51:52.000Z</time>
      </trkpt>
      <trkpt lat="47.01846" lon="4.63658">
        <ele>448.60000610352</ele>
        <time>2023-06-17T08:51:53.000Z</time>
      </trkpt>
      <trkpt lat="47.01814" lon="4.63649">
        <ele>449.79998779297</ele>
        <time>2023-06-17T08:52:01.000Z</time>
      </trkpt>
      <trkpt lat="47.01789" lon="4.63642">
        <ele>450.60000610352</ele>
        <time>2023-06-17T08:52:08.000Z</time>
      </trkpt>
      <trkpt lat="47.01765" lon="4.63633">
        <ele>451.39999389648</ele>
        <time>2023-06-17T08:52:13.000Z</time>
      </trkpt>
      <trkpt lat="47.01757" lon="4.6363">
        <ele>451.79998779297</ele>
        <time>2023-06-17T08:52:15.000Z</time>
      </trkpt>
      <trkpt lat="47.01734" lon="4.63622">
        <ele>452.60000610352</ele>
        <time>2023-06-17T08:52:22.000Z</time>
      </trkpt>
      <trkpt lat="47.01726" lon="4.63618">
        <ele>452.79998779297</ele>
        <time>2023-06-17T08:52:23.000Z</time>
      </trkpt>
      <trkpt lat="47.01696" lon="4.63606">
        <ele>453.79998779297</ele>
        <time>2023-06-17T08:52:31.000Z</time>
      </trkpt>
      <trkpt lat="47.01686" lon="4.636">
        <ele>454.60000610352</ele>
        <time>2023-06-17T08:52:34.000Z</time>
      </trkpt>
      <trkpt lat="47.01682" lon="4.63599">
        <ele>455</ele>
        <time>2023-06-17T08:52:35.000Z</time>
      </trkpt>
      <trkpt lat="47.01669" lon="4.63593">
        <ele>456</ele>
        <time>2023-06-17T08:52:39.000Z</time>
      </trkpt>
      <trkpt lat="47.01653" lon="4.63585">
        <ele>457</ele>
        <time>2023-06-17T08:52:44.000Z</time>
      </trkpt>
      <trkpt lat="47.01637" lon="4.63577">
        <ele>458</ele>
        <time>2023-06-17T08:52:49.000Z</time>
      </trkpt>
      <trkpt lat="47.01622" lon="4.63566">
        <ele>459.39999389648</ele>
        <time>2023-06-17T08:52:54.000Z</time>
      </trkpt>
      <trkpt lat="47.01603" lon="4.63553">
        <ele>460.39999389648</ele>
        <time>2023-06-17T08:53:00.000Z</time>
      </trkpt>
      <trkpt lat="47.01593" lon="4.63547">
        <ele>461.60000610352</ele>
        <time>2023-06-17T08:53:03.000Z</time>
      </trkpt>
      <trkpt lat="47.0159" lon="4.63545">
        <ele>461.60000610352</ele>
        <time>2023-06-17T08:53:04.000Z</time>
      </trkpt>
      <trkpt lat="47.01574" lon="4.63537">
        <ele>462.60000610352</ele>
        <time>2023-06-17T08:53:09.000Z</time>
      </trkpt>
      <trkpt lat="47.01557" lon="4.63529">
        <ele>463.79998779297</ele>
        <time>2023-06-17T08:53:14.000Z</time>
      </trkpt>
      <trkpt lat="47.0155" lon="4.63525">
        <ele>464.20001220703</ele>
        <time>2023-06-17T08:53:16.000Z</time>
      </trkpt>
      <trkpt lat="47.01544" lon="4.63521">
        <ele>465</ele>
        <time>2023-06-17T08:53:19.000Z</time>
      </trkpt>
      <trkpt lat="47.01525" lon="4.63512">
        <ele>466.20001220703</ele>
        <time>2023-06-17T08:53:24.000Z</time>
      </trkpt>
      <trkpt lat="47.01519" lon="4.63509">
        <ele>466.60000610352</ele>
        <time>2023-06-17T08:53:26.000Z</time>
      </trkpt>
      <trkpt lat="47.0151" lon="4.63504">
        <ele>467.39999389648</ele>
        <time>2023-06-17T08:53:29.000Z</time>
      </trkpt>
      <trkpt lat="47.01495" lon="4.63492">
        <ele>468.39999389648</ele>
        <time>2023-06-17T08:53:34.000Z</time>
      </trkpt>
      <trkpt lat="47.01487" lon="4.63488">
        <ele>468.79998779297</ele>
        <time>2023-06-17T08:53:36.000Z</time>
      </trkpt>
      <trkpt lat="47.01481" lon="4.63484">
        <ele>469.60000610352</ele>
        <time>2023-06-17T08:53:38.000Z</time>
      </trkpt>
      <trkpt lat="47.01454" lon="4.63469">
        <ele>470.39999389648</ele>
        <time>2023-06-17T08:53:45.000Z</time>
      </trkpt>
      <trkpt lat="47.01451" lon="4.63466">
        <ele>470.60000610352</ele>
        <time>2023-06-17T08:53:46.000Z</time>
      </trkpt>
      <trkpt lat="47.01433" lon="4.63458">
        <ele>470.79998779297</ele>
        <time>2023-06-17T08:53:50.000Z</time>
      </trkpt>
      <trkpt lat="47.01423" lon="4.63455">
        <ele>470.79998779297</ele>
        <time>2023-06-17T08:53:52.000Z</time>
      </trkpt>
      <trkpt lat="47.01391" lon="4.6345">
        <ele>470.79998779297</ele>
        <time>2023-06-17T08:53:57.000Z</time>
      </trkpt>
      <trkpt lat="47.01349" lon="4.63453">
        <ele>470</ele>
        <time>2023-06-17T08:54:03.000Z</time>
      </trkpt>
      <trkpt lat="47.01334" lon="4.63454">
        <ele>469.39999389648</ele>
        <time>2023-06-17T08:54:05.000Z</time>
      </trkpt>
      <trkpt lat="47.01293" lon="4.63459">
        <ele>468.20001220703</ele>
        <time>2023-06-17T08:54:10.000Z</time>
      </trkpt>
      <trkpt lat="47.01252" lon="4.63459">
        <ele>467</ele>
        <time>2023-06-17T08:54:15.000Z</time>
      </trkpt>
      <trkpt lat="47.01246" lon="4.63457">
        <ele>466.79998779297</ele>
        <time>2023-06-17T08:54:16.000Z</time>
      </trkpt>
      <trkpt lat="47.01222" lon="4.63445">
        <ele>466</ele>
        <time>2023-06-17T08:54:19.000Z</time>
      </trkpt>
      <trkpt lat="47.01209" lon="4.63437">
        <ele>465.39999389648</ele>
        <time>2023-06-17T08:54:21.000Z</time>
      </trkpt>
      <trkpt lat="47.01174" lon="4.63408">
        <ele>464.79998779297</ele>
        <time>2023-06-17T08:54:26.000Z</time>
      </trkpt>
      <trkpt lat="47.0116" lon="4.63395">
        <ele>464.60000610352</ele>
        <time>2023-06-17T08:54:28.000Z</time>
      </trkpt>
      <trkpt lat="47.01109" lon="4.63354">
        <ele>464.20001220703</ele>
        <time>2023-06-17T08:54:36.000Z</time>
      </trkpt>
      <trkpt lat="47.01083" lon="4.63337">
        <ele>463.79998779297</ele>
        <time>2023-06-17T08:54:40.000Z</time>
      </trkpt>
      <trkpt lat="47.0107" lon="4.63331">
        <ele>463.60000610352</ele>
        <time>2023-06-17T08:54:42.000Z</time>
      </trkpt>
      <trkpt lat="47.01015" lon="4.63311">
        <ele>463.39999389648</ele>
        <time>2023-06-17T08:54:50.000Z</time>
      </trkpt>
      <trkpt lat="47.01009" lon="4.6331">
        <ele>463.39999389648</ele>
        <time>2023-06-17T08:54:51.000Z</time>
      </trkpt>
      <trkpt lat="47.00958" lon="4.633">
        <ele>462.60000610352</ele>
        <time>2023-06-17T08:54:58.000Z</time>
      </trkpt>
      <trkpt lat="47.00919" lon="4.63294">
        <ele>461.60000610352</ele>
        <time>2023-06-17T08:55:04.000Z</time>
      </trkpt>
      <trkpt lat="47.00887" lon="4.63286">
        <ele>461</ele>
        <time>2023-06-17T08:55:07.000Z</time>
      </trkpt>
      <trkpt lat="47.00851" lon="4.63267">
        <ele>460.60000610352</ele>
        <time>2023-06-17T08:55:12.000Z</time>
      </trkpt>
      <trkpt lat="47.00844" lon="4.63261">
        <ele>460.60000610352</ele>
        <time>2023-06-17T08:55:13.000Z</time>
      </trkpt>
      <trkpt lat="47.00819" lon="4.63233">
        <ele>459.39999389648</ele>
        <time>2023-06-17T08:55:18.000Z</time>
      </trkpt>
      <trkpt lat="47.00813" lon="4.63225">
        <ele>459.20001220703</ele>
        <time>2023-06-17T08:55:19.000Z</time>
      </trkpt>
      <trkpt lat="47.00789" lon="4.63179">
        <ele>458.20001220703</ele>
        <time>2023-06-17T08:55:24.000Z</time>
      </trkpt>
      <trkpt lat="47.00774" lon="4.63148">
        <ele>457.60000610352</ele>
        <time>2023-06-17T08:55:26.000Z</time>
      </trkpt>
      <trkpt lat="47.00764" lon="4.63127">
        <ele>457</ele>
        <time>2023-06-17T08:55:28.000Z</time>
      </trkpt>
      <trkpt lat="47.00737" lon="4.63073">
        <ele>455.60000610352</ele>
        <time>2023-06-17T08:55:33.000Z</time>
      </trkpt>
      <trkpt lat="47.00731" lon="4.63063">
        <ele>455.20001220703</ele>
        <time>2023-06-17T08:55:34.000Z</time>
      </trkpt>
      <trkpt lat="47.00725" lon="4.63053">
        <ele>454.60000610352</ele>
        <time>2023-06-17T08:55:35.000Z</time>
      </trkpt>
      <trkpt lat="47.00705" lon="4.63026">
        <ele>453.39999389648</ele>
        <time>2023-06-17T08:55:38.000Z</time>
      </trkpt>
      <trkpt lat="47.00699" lon="4.6302">
        <ele>453</ele>
        <time>2023-06-17T08:55:39.000Z</time>
      </trkpt>
      <trkpt lat="47.00681" lon="4.63005">
        <ele>452.20001220703</ele>
        <time>2023-06-17T08:55:41.000Z</time>
      </trkpt>
      <trkpt lat="47.00655" lon="4.62991">
        <ele>451</ele>
        <time>2023-06-17T08:55:44.000Z</time>
      </trkpt>
      <trkpt lat="47.00638" lon="4.62985">
        <ele>450.39999389648</ele>
        <time>2023-06-17T08:55:46.000Z</time>
      </trkpt>
      <trkpt lat="47.00629" lon="4.62984">
        <ele>449.39999389648</ele>
        <time>2023-06-17T08:55:47.000Z</time>
      </trkpt>
      <trkpt lat="47.00612" lon="4.62983">
        <ele>448.39999389648</ele>
        <time>2023-06-17T08:55:49.000Z</time>
      </trkpt>
      <trkpt lat="47.00595" lon="4.62986">
        <ele>447.60000610352</ele>
        <time>2023-06-17T08:55:51.000Z</time>
      </trkpt>
      <trkpt lat="47.00586" lon="4.62988">
        <ele>446.79998779297</ele>
        <time>2023-06-17T08:55:52.000Z</time>
      </trkpt>
      <trkpt lat="47.0057" lon="4.62995">
        <ele>446</ele>
        <time>2023-06-17T08:55:54.000Z</time>
      </trkpt>
      <trkpt lat="47.00555" lon="4.63004">
        <ele>445.39999389648</ele>
        <time>2023-06-17T08:55:56.000Z</time>
      </trkpt>
      <trkpt lat="47.00541" lon="4.63015">
        <ele>444.20001220703</ele>
        <time>2023-06-17T08:55:58.000Z</time>
      </trkpt>
      <trkpt lat="47.00534" lon="4.6302">
        <ele>443.60000610352</ele>
        <time>2023-06-17T08:55:59.000Z</time>
      </trkpt>
      <trkpt lat="47.00505" lon="4.63038">
        <ele>443.20001220703</ele>
        <time>2023-06-17T08:56:04.000Z</time>
      </trkpt>
      <trkpt lat="47.00476" lon="4.63059">
        <ele>444.60000610352</ele>
        <time>2023-06-17T08:56:11.000Z</time>
      </trkpt>
      <trkpt lat="47.0046" lon="4.63069">
        <ele>445.60000610352</ele>
        <time>2023-06-17T08:56:15.000Z</time>
      </trkpt>
      <trkpt lat="47.00449" lon="4.63076">
        <ele>446.60000610352</ele>
        <time>2023-06-17T08:56:19.000Z</time>
      </trkpt>
      <trkpt lat="47.00441" lon="4.63081">
        <ele>446.60000610352</ele>
        <time>2023-06-17T08:56:20.000Z</time>
      </trkpt>
      <trkpt lat="47.00423" lon="4.63095">
        <ele>447.60000610352</ele>
        <time>2023-06-17T08:56:25.000Z</time>
      </trkpt>
      <trkpt lat="47.00412" lon="4.63103">
        <ele>448.39999389648</ele>
        <time>2023-06-17T08:56:28.000Z</time>
      </trkpt>
      <trkpt lat="47.00408" lon="4.63105">
        <ele>448.79998779297</ele>
        <time>2023-06-17T08:56:29.000Z</time>
      </trkpt>
      <trkpt lat="47.00388" lon="4.63119">
        <ele>450</ele>
        <time>2023-06-17T08:56:35.000Z</time>
      </trkpt>
      <trkpt lat="47.00384" lon="4.63121">
        <ele>450.39999389648</ele>
        <time>2023-06-17T08:56:36.000Z</time>
      </trkpt>
      <trkpt lat="47.00371" lon="4.63127">
        <ele>451</ele>
        <time>2023-06-17T08:56:40.000Z</time>
      </trkpt>
      <trkpt lat="47.00349" lon="4.63136">
        <ele>452</ele>
        <time>2023-06-17T08:56:46.000Z</time>
      </trkpt>
      <trkpt lat="47.0033" lon="4.63141">
        <ele>453.20001220703</ele>
        <time>2023-06-17T08:56:51.000Z</time>
      </trkpt>
      <trkpt lat="47.00315" lon="4.63143">
        <ele>454.20001220703</ele>
        <time>2023-06-17T08:56:56.000Z</time>
      </trkpt>
      <trkpt lat="47.00308" lon="4.63144">
        <ele>454.39999389648</ele>
        <time>2023-06-17T08:56:57.000Z</time>
      </trkpt>
      <trkpt lat="47.00289" lon="4.63145">
        <ele>455.20001220703</ele>
        <time>2023-06-17T08:57:02.000Z</time>
      </trkpt>
      <trkpt lat="47.00271" lon="4.63142">
        <ele>456.39999389648</ele>
        <time>2023-06-17T08:57:07.000Z</time>
      </trkpt>
      <trkpt lat="47.00255" lon="4.63136">
        <ele>457.39999389648</ele>
        <time>2023-06-17T08:57:12.000Z</time>
      </trkpt>
      <trkpt lat="47.00241" lon="4.63131">
        <ele>458.39999389648</ele>
        <time>2023-06-17T08:57:16.000Z</time>
      </trkpt>
      <trkpt lat="47.00238" lon="4.6313">
        <ele>458.79998779297</ele>
        <time>2023-06-17T08:57:17.000Z</time>
      </trkpt>
      <trkpt lat="47.00221" lon="4.63121">
        <ele>460</ele>
        <time>2023-06-17T08:57:22.000Z</time>
      </trkpt>
      <trkpt lat="47.00208" lon="4.63113">
        <ele>460.60000610352</ele>
        <time>2023-06-17T08:57:26.000Z</time>
      </trkpt>
      <trkpt lat="47.00204" lon="4.63111">
        <ele>461</ele>
        <time>2023-06-17T08:57:27.000Z</time>
      </trkpt>
      <trkpt lat="47.00185" lon="4.63097">
        <ele>462</ele>
        <time>2023-06-17T08:57:33.000Z</time>
      </trkpt>
      <trkpt lat="47.00176" lon="4.63089">
        <ele>462.60000610352</ele>
        <time>2023-06-17T08:57:36.000Z</time>
      </trkpt>
      <trkpt lat="47.00168" lon="4.6308">
        <ele>463.20001220703</ele>
        <time>2023-06-17T08:57:39.000Z</time>
      </trkpt>
      <trkpt lat="47.00151" lon="4.63061">
        <ele>464.20001220703</ele>
        <time>2023-06-17T08:57:45.000Z</time>
      </trkpt>
      <trkpt lat="47.00133" lon="4.63037">
        <ele>465.60000610352</ele>
        <time>2023-06-17T08:57:52.000Z</time>
      </trkpt>
      <trkpt lat="47.00124" lon="4.63021">
        <ele>466.39999389648</ele>
        <time>2023-06-17T08:57:56.000Z</time>
      </trkpt>
      <trkpt lat="47.00122" lon="4.63016">
        <ele>466.60000610352</ele>
        <time>2023-06-17T08:57:57.000Z</time>
      </trkpt>
      <trkpt lat="47.0011" lon="4.62992">
        <ele>467.60000610352</ele>
        <time>2023-06-17T08:58:03.000Z</time>
      </trkpt>
      <trkpt lat="47.001" lon="4.6297">
        <ele>468.60000610352</ele>
        <time>2023-06-17T08:58:08.000Z</time>
      </trkpt>
      <trkpt lat="47.00098" lon="4.62965">
        <ele>469</ele>
        <time>2023-06-17T08:58:10.000Z</time>
      </trkpt>
      <trkpt lat="47.00088" lon="4.62938">
        <ele>470.20001220703</ele>
        <time>2023-06-17T08:58:15.000Z</time>
      </trkpt>
      <trkpt lat="47.00082" lon="4.62925">
        <ele>471</ele>
        <time>2023-06-17T08:58:18.000Z</time>
      </trkpt>
      <trkpt lat="47.00079" lon="4.62917">
        <ele>471.20001220703</ele>
        <time>2023-06-17T08:58:20.000Z</time>
      </trkpt>
      <trkpt lat="47.00067" lon="4.62887">
        <ele>472.39999389648</ele>
        <time>2023-06-17T08:58:27.000Z</time>
      </trkpt>
      <trkpt lat="47.0006" lon="4.62873">
        <ele>473</ele>
        <time>2023-06-17T08:58:30.000Z</time>
      </trkpt>
      <trkpt lat="47.00053" lon="4.62859">
        <ele>473.60000610352</ele>
        <time>2023-06-17T08:58:33.000Z</time>
      </trkpt>
      <trkpt lat="47.00045" lon="4.62843">
        <ele>474.79998779297</ele>
        <time>2023-06-17T08:58:37.000Z</time>
      </trkpt>
      <trkpt lat="47.00041" lon="4.62834">
        <ele>475</ele>
        <time>2023-06-17T08:58:39.000Z</time>
      </trkpt>
      <trkpt lat="47.00035" lon="4.62821">
        <ele>475.79998779297</ele>
        <time>2023-06-17T08:58:42.000Z</time>
      </trkpt>
      <trkpt lat="47.00021" lon="4.62791">
        <ele>476.79998779297</ele>
        <time>2023-06-17T08:58:49.000Z</time>
      </trkpt>
      <trkpt lat="47.00019" lon="4.62785">
        <ele>477</ele>
        <time>2023-06-17T08:58:50.000Z</time>
      </trkpt>
      <trkpt lat="47.00004" lon="4.6275">
        <ele>478</ele>
        <time>2023-06-17T08:58:58.000Z</time>
      </trkpt>
      <trkpt lat="47" lon="4.6274">
        <ele>478.39999389648</ele>
        <time>2023-06-17T08:59:00.000Z</time>
      </trkpt>
      <trkpt lat="46.99994" lon="4.62726">
        <ele>479</ele>
        <time>2023-06-17T08:59:04.000Z</time>
      </trkpt>
      <trkpt lat="46.99987" lon="4.62709">
        <ele>480.20001220703</ele>
        <time>2023-06-17T08:59:08.000Z</time>
      </trkpt>
      <trkpt lat="46.99985" lon="4.62705">
        <ele>480.39999389648</ele>
        <time>2023-06-17T08:59:09.000Z</time>
      </trkpt>
      <trkpt lat="46.99982" lon="4.62698">
        <ele>481.20001220703</ele>
        <time>2023-06-17T08:59:11.000Z</time>
      </trkpt>
      <trkpt lat="46.9997" lon="4.6268">
        <ele>482.39999389648</ele>
        <time>2023-06-17T08:59:16.000Z</time>
      </trkpt>
      <trkpt lat="46.99967" lon="4.62676">
        <ele>483</ele>
        <time>2023-06-17T08:59:18.000Z</time>
      </trkpt>
      <trkpt lat="46.99958" lon="4.62667">
        <ele>483.60000610352</ele>
        <time>2023-06-17T08:59:20.000Z</time>
      </trkpt>
      <trkpt lat="46.99943" lon="4.6266">
        <ele>484.60000610352</ele>
        <time>2023-06-17T08:59:24.000Z</time>
      </trkpt>
      <trkpt lat="46.99922" lon="4.62661">
        <ele>485</ele>
        <time>2023-06-17T08:59:29.000Z</time>
      </trkpt>
      <trkpt lat="46.99917" lon="4.62664">
        <ele>485</ele>
        <time>2023-06-17T08:59:30.000Z</time>
      </trkpt>
      <trkpt lat="46.99905" lon="4.62677">
        <ele>485</ele>
        <time>2023-06-17T08:59:33.000Z</time>
      </trkpt>
      <trkpt lat="46.99897" lon="4.6269">
        <ele>484.79998779297</ele>
        <time>2023-06-17T08:59:35.000Z</time>
      </trkpt>
      <trkpt lat="46.99891" lon="4.62706">
        <ele>484.60000610352</ele>
        <time>2023-06-17T08:59:37.000Z</time>
      </trkpt>
      <trkpt lat="46.99888" lon="4.62715">
        <ele>484.60000610352</ele>
        <time>2023-06-17T08:59:38.000Z</time>
      </trkpt>
      <trkpt lat="46.99878" lon="4.62766">
        <ele>483.20001220703</ele>
        <time>2023-06-17T08:59:43.000Z</time>
      </trkpt>
      <trkpt lat="46.99871" lon="4.62787">
        <ele>482.79998779297</ele>
        <time>2023-06-17T08:59:45.000Z</time>
      </trkpt>
      <trkpt lat="46.99865" lon="4.62798">
        <ele>482.60000610352</ele>
        <time>2023-06-17T08:59:46.000Z</time>
      </trkpt>
      <trkpt lat="46.99859" lon="4.62806">
        <ele>482.39999389648</ele>
        <time>2023-06-17T08:59:47.000Z</time>
      </trkpt>
      <trkpt lat="46.99852" lon="4.6281">
        <ele>482</ele>
        <time>2023-06-17T08:59:48.000Z</time>
      </trkpt>
      <trkpt lat="46.99843" lon="4.62814">
        <ele>482</ele>
        <time>2023-06-17T08:59:49.000Z</time>
      </trkpt>
      <trkpt lat="46.99822" lon="4.62813">
        <ele>481.60000610352</ele>
        <time>2023-06-17T08:59:51.000Z</time>
      </trkpt>
      <trkpt lat="46.99805" lon="4.628">
        <ele>481.20001220703</ele>
        <time>2023-06-17T08:59:53.000Z</time>
      </trkpt>
      <trkpt lat="46.99799" lon="4.62793">
        <ele>480.60000610352</ele>
        <time>2023-06-17T08:59:54.000Z</time>
      </trkpt>
      <trkpt lat="46.99793" lon="4.6278">
        <ele>480</ele>
        <time>2023-06-17T08:59:55.000Z</time>
      </trkpt>
      <trkpt lat="46.99785" lon="4.62754">
        <ele>479.20001220703</ele>
        <time>2023-06-17T08:59:57.000Z</time>
      </trkpt>
      <trkpt lat="46.9978" lon="4.62726">
        <ele>478</ele>
        <time>2023-06-17T08:59:59.000Z</time>
      </trkpt>
      <trkpt lat="46.99774" lon="4.62685">
        <ele>476.60000610352</ele>
        <time>2023-06-17T09:00:02.000Z</time>
      </trkpt>
      <trkpt lat="46.99767" lon="4.62647">
        <ele>475.39999389648</ele>
        <time>2023-06-17T09:00:05.000Z</time>
      </trkpt>
      <trkpt lat="46.9976" lon="4.62604">
        <ele>474</ele>
        <time>2023-06-17T09:00:08.000Z</time>
      </trkpt>
      <trkpt lat="46.99753" lon="4.62564">
        <ele>472.79998779297</ele>
        <time>2023-06-17T09:00:11.000Z</time>
      </trkpt>
      <trkpt lat="46.99748" lon="4.62539">
        <ele>471.79998779297</ele>
        <time>2023-06-17T09:00:13.000Z</time>
      </trkpt>
      <trkpt lat="46.99741" lon="4.62503">
        <ele>470.60000610352</ele>
        <time>2023-06-17T09:00:16.000Z</time>
      </trkpt>
      <trkpt lat="46.9973" lon="4.62445">
        <ele>470</ele>
        <time>2023-06-17T09:00:21.000Z</time>
      </trkpt>
      <trkpt lat="46.99728" lon="4.62437">
        <ele>469.79998779297</ele>
        <time>2023-06-17T09:00:22.000Z</time>
      </trkpt>
      <trkpt lat="46.99716" lon="4.624">
        <ele>469.79998779297</ele>
        <time>2023-06-17T09:00:26.000Z</time>
      </trkpt>
      <trkpt lat="46.99696" lon="4.62365">
        <ele>470.79998779297</ele>
        <time>2023-06-17T09:00:31.000Z</time>
      </trkpt>
      <trkpt lat="46.99691" lon="4.62358">
        <ele>470.79998779297</ele>
        <time>2023-06-17T09:00:32.000Z</time>
      </trkpt>
      <trkpt lat="46.99671" lon="4.62339">
        <ele>471.20001220703</ele>
        <time>2023-06-17T09:00:36.000Z</time>
      </trkpt>
      <trkpt lat="46.99653" lon="4.62323">
        <ele>471.79998779297</ele>
        <time>2023-06-17T09:00:40.000Z</time>
      </trkpt>
      <trkpt lat="46.99648" lon="4.6232">
        <ele>471.79998779297</ele>
        <time>2023-06-17T09:00:41.000Z</time>
      </trkpt>
      <trkpt lat="46.99639" lon="4.62316">
        <ele>472</ele>
        <time>2023-06-17T09:00:43.000Z</time>
      </trkpt>
      <trkpt lat="46.9962" lon="4.62307">
        <ele>473</ele>
        <time>2023-06-17T09:00:47.000Z</time>
      </trkpt>
      <trkpt lat="46.99603" lon="4.623">
        <ele>474</ele>
        <time>2023-06-17T09:00:51.000Z</time>
      </trkpt>
      <trkpt lat="46.99585" lon="4.62295">
        <ele>475</ele>
        <time>2023-06-17T09:00:55.000Z</time>
      </trkpt>
      <trkpt lat="46.9958" lon="4.62294">
        <ele>475.20001220703</ele>
        <time>2023-06-17T09:00:56.000Z</time>
      </trkpt>
      <trkpt lat="46.99558" lon="4.6229">
        <ele>476.39999389648</ele>
        <time>2023-06-17T09:01:01.000Z</time>
      </trkpt>
      <trkpt lat="46.99548" lon="4.62287">
        <ele>476.79998779297</ele>
        <time>2023-06-17T09:01:03.000Z</time>
      </trkpt>
      <trkpt lat="46.99544" lon="4.62285">
        <ele>477.20001220703</ele>
        <time>2023-06-17T09:01:04.000Z</time>
      </trkpt>
      <trkpt lat="46.99535" lon="4.6228">
        <ele>477.60000610352</ele>
        <time>2023-06-17T09:01:06.000Z</time>
      </trkpt>
      <trkpt lat="46.99518" lon="4.62268">
        <ele>478</ele>
        <time>2023-06-17T09:01:10.000Z</time>
      </trkpt>
      <trkpt lat="46.99505" lon="4.62258">
        <ele>478.79998779297</ele>
        <time>2023-06-17T09:01:13.000Z</time>
      </trkpt>
      <trkpt lat="46.99496" lon="4.62251">
        <ele>479.20001220703</ele>
        <time>2023-06-17T09:01:15.000Z</time>
      </trkpt>
      <trkpt lat="46.99483" lon="4.6224">
        <ele>479.79998779297</ele>
        <time>2023-06-17T09:01:18.000Z</time>
      </trkpt>
      <trkpt lat="46.99452" lon="4.62216">
        <ele>480.79998779297</ele>
        <time>2023-06-17T09:01:25.000Z</time>
      </trkpt>
      <trkpt lat="46.99444" lon="4.62209">
        <ele>481.20001220703</ele>
        <time>2023-06-17T09:01:27.000Z</time>
      </trkpt>
      <trkpt lat="46.9943" lon="4.62198">
        <ele>482</ele>
        <time>2023-06-17T09:01:30.000Z</time>
      </trkpt>
      <trkpt lat="46.99399" lon="4.62174">
        <ele>482.79998779297</ele>
        <time>2023-06-17T09:01:37.000Z</time>
      </trkpt>
      <trkpt lat="46.99395" lon="4.62171">
        <ele>483</ele>
        <time>2023-06-17T09:01:38.000Z</time>
      </trkpt>
      <trkpt lat="46.99364" lon="4.62147">
        <ele>484</ele>
        <time>2023-06-17T09:01:45.000Z</time>
      </trkpt>
      <trkpt lat="46.99359" lon="4.62143">
        <ele>484.20001220703</ele>
        <time>2023-06-17T09:01:46.000Z</time>
      </trkpt>
      <trkpt lat="46.99339" lon="4.62127">
        <ele>485.39999389648</ele>
        <time>2023-06-17T09:01:51.000Z</time>
      </trkpt>
      <trkpt lat="46.99326" lon="4.62117">
        <ele>485.79998779297</ele>
        <time>2023-06-17T09:01:54.000Z</time>
      </trkpt>
      <trkpt lat="46.99319" lon="4.62112">
        <ele>486.39999389648</ele>
        <time>2023-06-17T09:01:56.000Z</time>
      </trkpt>
      <trkpt lat="46.99291" lon="4.6209">
        <ele>487.60000610352</ele>
        <time>2023-06-17T09:02:03.000Z</time>
      </trkpt>
      <trkpt lat="46.99286" lon="4.62086">
        <ele>487.79998779297</ele>
        <time>2023-06-17T09:02:04.000Z</time>
      </trkpt>
      <trkpt lat="46.99267" lon="4.62072">
        <ele>488.39999389648</ele>
        <time>2023-06-17T09:02:09.000Z</time>
      </trkpt>
      <trkpt lat="46.99258" lon="4.62065">
        <ele>488.60000610352</ele>
        <time>2023-06-17T09:02:11.000Z</time>
      </trkpt>
      <trkpt lat="46.99254" lon="4.62062">
        <ele>488.79998779297</ele>
        <time>2023-06-17T09:02:12.000Z</time>
      </trkpt>
      <trkpt lat="46.99236" lon="4.62048">
        <ele>488.79998779297</ele>
        <time>2023-06-17T09:02:16.000Z</time>
      </trkpt>
      <trkpt lat="46.99227" lon="4.6204">
        <ele>488.79998779297</ele>
        <time>2023-06-17T09:02:18.000Z</time>
      </trkpt>
      <trkpt lat="46.9919" lon="4.62012">
        <ele>488.20001220703</ele>
        <time>2023-06-17T09:02:24.000Z</time>
      </trkpt>
      <trkpt lat="46.99177" lon="4.62002">
        <ele>487.39999389648</ele>
        <time>2023-06-17T09:02:26.000Z</time>
      </trkpt>
      <trkpt lat="46.9915" lon="4.61982">
        <ele>486.20001220703</ele>
        <time>2023-06-17T09:02:30.000Z</time>
      </trkpt>
      <trkpt lat="46.99138" lon="4.61973">
        <ele>485.39999389648</ele>
        <time>2023-06-17T09:02:32.000Z</time>
      </trkpt>
      <trkpt lat="46.99133" lon="4.61968">
        <ele>485</ele>
        <time>2023-06-17T09:02:33.000Z</time>
      </trkpt>
      <trkpt lat="46.99121" lon="4.61958">
        <ele>483.39999389648</ele>
        <time>2023-06-17T09:02:35.000Z</time>
      </trkpt>
      <trkpt lat="46.99108" lon="4.61946">
        <ele>482.60000610352</ele>
        <time>2023-06-17T09:02:37.000Z</time>
      </trkpt>
      <trkpt lat="46.99101" lon="4.61939">
        <ele>482.20001220703</ele>
        <time>2023-06-17T09:02:38.000Z</time>
      </trkpt>
      <trkpt lat="46.99078" lon="4.61921">
        <ele>480.60000610352</ele>
        <time>2023-06-17T09:02:41.000Z</time>
      </trkpt>
      <trkpt lat="46.9907" lon="4.61917">
        <ele>480</ele>
        <time>2023-06-17T09:02:42.000Z</time>
      </trkpt>
      <trkpt lat="46.99054" lon="4.61909">
        <ele>479.20001220703</ele>
        <time>2023-06-17T09:02:44.000Z</time>
      </trkpt>
      <trkpt lat="46.99028" lon="4.61894">
        <ele>478.39999389648</ele>
        <time>2023-06-17T09:02:48.000Z</time>
      </trkpt>
      <trkpt lat="46.99011" lon="4.61884">
        <ele>478.20001220703</ele>
        <time>2023-06-17T09:02:51.000Z</time>
      </trkpt>
      <trkpt lat="46.99001" lon="4.61879">
        <ele>478.60000610352</ele>
        <time>2023-06-17T09:02:53.000Z</time>
      </trkpt>
      <trkpt lat="46.98972" lon="4.61862">
        <ele>480.20001220703</ele>
        <time>2023-06-17T09:02:59.000Z</time>
      </trkpt>
      <trkpt lat="46.98968" lon="4.6186">
        <ele>480.79998779297</ele>
        <time>2023-06-17T09:03:00.000Z</time>
      </trkpt>
      <trkpt lat="46.98959" lon="4.61855">
        <ele>481.39999389648</ele>
        <time>2023-06-17T09:03:02.000Z</time>
      </trkpt>
      <trkpt lat="46.98936" lon="4.61843">
        <ele>482.60000610352</ele>
        <time>2023-06-17T09:03:07.000Z</time>
      </trkpt>
      <trkpt lat="46.98932" lon="4.6184">
        <ele>482.60000610352</ele>
        <time>2023-06-17T09:03:08.000Z</time>
      </trkpt>
      <trkpt lat="46.98915" lon="4.61829">
        <ele>483.60000610352</ele>
        <time>2023-06-17T09:03:12.000Z</time>
      </trkpt>
      <trkpt lat="46.98897" lon="4.61821">
        <ele>484.39999389648</ele>
        <time>2023-06-17T09:03:16.000Z</time>
      </trkpt>
      <trkpt lat="46.98888" lon="4.61817">
        <ele>484.60000610352</ele>
        <time>2023-06-17T09:03:18.000Z</time>
      </trkpt>
      <trkpt lat="46.98873" lon="4.61812">
        <ele>485.39999389648</ele>
        <time>2023-06-17T09:03:21.000Z</time>
      </trkpt>
      <trkpt lat="46.98863" lon="4.6181">
        <ele>485.79998779297</ele>
        <time>2023-06-17T09:03:23.000Z</time>
      </trkpt>
      <trkpt lat="46.98838" lon="4.6181">
        <ele>487</ele>
        <time>2023-06-17T09:03:28.000Z</time>
      </trkpt>
      <trkpt lat="46.98823" lon="4.61813">
        <ele>487.39999389648</ele>
        <time>2023-06-17T09:03:31.000Z</time>
      </trkpt>
      <trkpt lat="46.98782" lon="4.61824">
        <ele>487.79998779297</ele>
        <time>2023-06-17T09:03:39.000Z</time>
      </trkpt>
      <trkpt lat="46.98777" lon="4.61826">
        <ele>488</ele>
        <time>2023-06-17T09:03:40.000Z</time>
      </trkpt>
      <trkpt lat="46.98772" lon="4.61828">
        <ele>488</ele>
        <time>2023-06-17T09:03:41.000Z</time>
      </trkpt>
      <trkpt lat="46.98723" lon="4.61856">
        <ele>487.60000610352</ele>
        <time>2023-06-17T09:03:50.000Z</time>
      </trkpt>
      <trkpt lat="46.98711" lon="4.61866">
        <ele>487</ele>
        <time>2023-06-17T09:03:52.000Z</time>
      </trkpt>
      <trkpt lat="46.98686" lon="4.61888">
        <ele>486</ele>
        <time>2023-06-17T09:03:56.000Z</time>
      </trkpt>
      <trkpt lat="46.98679" lon="4.61895">
        <ele>485.79998779297</ele>
        <time>2023-06-17T09:03:57.000Z</time>
      </trkpt>
      <trkpt lat="46.98651" lon="4.61923">
        <ele>484.79998779297</ele>
        <time>2023-06-17T09:04:01.000Z</time>
      </trkpt>
      <trkpt lat="46.98644" lon="4.6193">
        <ele>484.39999389648</ele>
        <time>2023-06-17T09:04:02.000Z</time>
      </trkpt>
      <trkpt lat="46.9862" lon="4.61954">
        <ele>483</ele>
        <time>2023-06-17T09:04:05.000Z</time>
      </trkpt>
      <trkpt lat="46.98593" lon="4.6198">
        <ele>481.79998779297</ele>
        <time>2023-06-17T09:04:08.000Z</time>
      </trkpt>
      <trkpt lat="46.98577" lon="4.61995">
        <ele>480.39999389648</ele>
        <time>2023-06-17T09:04:10.000Z</time>
      </trkpt>
      <trkpt lat="46.98558" lon="4.62012">
        <ele>479.20001220703</ele>
        <time>2023-06-17T09:04:12.000Z</time>
      </trkpt>
      <trkpt lat="46.98538" lon="4.62025">
        <ele>478.20001220703</ele>
        <time>2023-06-17T09:04:14.000Z</time>
      </trkpt>
      <trkpt lat="46.98528" lon="4.62032">
        <ele>478</ele>
        <time>2023-06-17T09:04:15.000Z</time>
      </trkpt>
      <trkpt lat="46.98506" lon="4.62043">
        <ele>476.79998779297</ele>
        <time>2023-06-17T09:04:17.000Z</time>
      </trkpt>
      <trkpt lat="46.98482" lon="4.62052">
        <ele>475.39999389648</ele>
        <time>2023-06-17T09:04:19.000Z</time>
      </trkpt>
      <trkpt lat="46.98462" lon="4.62056">
        <ele>474</ele>
        <time>2023-06-17T09:04:21.000Z</time>
      </trkpt>
      <trkpt lat="46.9844" lon="4.6206">
        <ele>472.60000610352</ele>
        <time>2023-06-17T09:04:23.000Z</time>
      </trkpt>
      <trkpt lat="46.98428" lon="4.6206">
        <ele>472.20001220703</ele>
        <time>2023-06-17T09:04:24.000Z</time>
      </trkpt>
      <trkpt lat="46.9841" lon="4.6206">
        <ele>471.39999389648</ele>
        <time>2023-06-17T09:04:26.000Z</time>
      </trkpt>
      <trkpt lat="46.98392" lon="4.62056">
        <ele>471</ele>
        <time>2023-06-17T09:04:28.000Z</time>
      </trkpt>
      <trkpt lat="46.98368" lon="4.62046">
        <ele>471</ele>
        <time>2023-06-17T09:04:32.000Z</time>
      </trkpt>
      <trkpt lat="46.9833" lon="4.62028">
        <ele>471.60000610352</ele>
        <time>2023-06-17T09:04:37.000Z</time>
      </trkpt>
      <trkpt lat="46.98308" lon="4.62017">
        <ele>472.39999389648</ele>
        <time>2023-06-17T09:04:41.000Z</time>
      </trkpt>
      <trkpt lat="46.98292" lon="4.6201">
        <ele>473.20001220703</ele>
        <time>2023-06-17T09:04:44.000Z</time>
      </trkpt>
      <trkpt lat="46.98282" lon="4.62006">
        <ele>473.60000610352</ele>
        <time>2023-06-17T09:04:46.000Z</time>
      </trkpt>
      <trkpt lat="46.98252" lon="4.61995">
        <ele>474.60000610352</ele>
        <time>2023-06-17T09:04:52.000Z</time>
      </trkpt>
      <trkpt lat="46.98247" lon="4.61993">
        <ele>474.60000610352</ele>
        <time>2023-06-17T09:04:53.000Z</time>
      </trkpt>
      <trkpt lat="46.98203" lon="4.6198">
        <ele>475.79998779297</ele>
        <time>2023-06-17T09:05:02.000Z</time>
      </trkpt>
      <trkpt lat="46.98174" lon="4.61975">
        <ele>477</ele>
        <time>2023-06-17T09:05:08.000Z</time>
      </trkpt>
      <trkpt lat="46.98169" lon="4.61975">
        <ele>477.20001220703</ele>
        <time>2023-06-17T09:05:09.000Z</time>
      </trkpt>
      <trkpt lat="46.98145" lon="4.61976">
        <ele>478</ele>
        <time>2023-06-17T09:05:14.000Z</time>
      </trkpt>
      <trkpt lat="46.98131" lon="4.61978">
        <ele>478.60000610352</ele>
        <time>2023-06-17T09:05:17.000Z</time>
      </trkpt>
      <trkpt lat="46.98107" lon="4.61985">
        <ele>479.20001220703</ele>
        <time>2023-06-17T09:05:22.000Z</time>
      </trkpt>
      <trkpt lat="46.98075" lon="4.61996">
        <ele>480</ele>
        <time>2023-06-17T09:05:29.000Z</time>
      </trkpt>
      <trkpt lat="46.98056" lon="4.62002">
        <ele>480.20001220703</ele>
        <time>2023-06-17T09:05:33.000Z</time>
      </trkpt>
      <trkpt lat="46.98022" lon="4.62013">
        <ele>481</ele>
        <time>2023-06-17T09:05:40.000Z</time>
      </trkpt>
      <trkpt lat="46.98007" lon="4.62018">
        <ele>481.39999389648</ele>
        <time>2023-06-17T09:05:43.000Z</time>
      </trkpt>
      <trkpt lat="46.97973" lon="4.6203">
        <ele>482</ele>
        <time>2023-06-17T09:05:50.000Z</time>
      </trkpt>
      <trkpt lat="46.97944" lon="4.62039">
        <ele>482.39999389648</ele>
        <time>2023-06-17T09:05:56.000Z</time>
      </trkpt>
      <trkpt lat="46.97928" lon="4.62043">
        <ele>482.79998779297</ele>
        <time>2023-06-17T09:05:59.000Z</time>
      </trkpt>
      <trkpt lat="46.97898" lon="4.62053">
        <ele>483.39999389648</ele>
        <time>2023-06-17T09:06:05.000Z</time>
      </trkpt>
      <trkpt lat="46.97887" lon="4.62056">
        <ele>483.60000610352</ele>
        <time>2023-06-17T09:06:07.000Z</time>
      </trkpt>
      <trkpt lat="46.9783" lon="4.62074">
        <ele>484.20001220703</ele>
        <time>2023-06-17T09:06:17.000Z</time>
      </trkpt>
      <trkpt lat="46.97781" lon="4.62091">
        <ele>484.39999389648</ele>
        <time>2023-06-17T09:06:25.000Z</time>
      </trkpt>
      <trkpt lat="46.97731" lon="4.62107">
        <ele>484.39999389648</ele>
        <time>2023-06-17T09:06:33.000Z</time>
      </trkpt>
      <trkpt lat="46.97711" lon="4.62114">
        <ele>484.39999389648</ele>
        <time>2023-06-17T09:06:36.000Z</time>
      </trkpt>
      <trkpt lat="46.97661" lon="4.6213">
        <ele>484.79998779297</ele>
        <time>2023-06-17T09:06:44.000Z</time>
      </trkpt>
      <trkpt lat="46.97604" lon="4.62146">
        <ele>485</ele>
        <time>2023-06-17T09:06:53.000Z</time>
      </trkpt>
      <trkpt lat="46.97559" lon="4.62149">
        <ele>485.20001220703</ele>
        <time>2023-06-17T09:07:00.000Z</time>
      </trkpt>
      <trkpt lat="46.97515" lon="4.62137">
        <ele>485</ele>
        <time>2023-06-17T09:07:07.000Z</time>
      </trkpt>
      <trkpt lat="46.9749" lon="4.62123">
        <ele>485</ele>
        <time>2023-06-17T09:07:11.000Z</time>
      </trkpt>
      <trkpt lat="46.97472" lon="4.62108">
        <ele>485</ele>
        <time>2023-06-17T09:07:14.000Z</time>
      </trkpt>
      <trkpt lat="46.97466" lon="4.62103">
        <ele>484.79998779297</ele>
        <time>2023-06-17T09:07:15.000Z</time>
      </trkpt>
      <trkpt lat="46.97455" lon="4.6209">
        <ele>484.60000610352</ele>
        <time>2023-06-17T09:07:17.000Z</time>
      </trkpt>
      <trkpt lat="46.97445" lon="4.62075">
        <ele>484.60000610352</ele>
        <time>2023-06-17T09:07:19.000Z</time>
      </trkpt>
      <trkpt lat="46.97403" lon="4.62017">
        <ele>483.39999389648</ele>
        <time>2023-06-17T09:07:27.000Z</time>
      </trkpt>
      <trkpt lat="46.97392" lon="4.62003">
        <ele>483.20001220703</ele>
        <time>2023-06-17T09:07:29.000Z</time>
      </trkpt>
      <trkpt lat="46.97345" lon="4.61948">
        <ele>482.20001220703</ele>
        <time>2023-06-17T09:07:37.000Z</time>
      </trkpt>
      <trkpt lat="46.97324" lon="4.61928">
        <ele>481.20001220703</ele>
        <time>2023-06-17T09:07:40.000Z</time>
      </trkpt>
      <trkpt lat="46.97293" lon="4.61901">
        <ele>480</ele>
        <time>2023-06-17T09:07:44.000Z</time>
      </trkpt>
      <trkpt lat="46.97268" lon="4.61882">
        <ele>478.79998779297</ele>
        <time>2023-06-17T09:07:47.000Z</time>
      </trkpt>
      <trkpt lat="46.9725" lon="4.61868">
        <ele>478</ele>
        <time>2023-06-17T09:07:49.000Z</time>
      </trkpt>
      <trkpt lat="46.97243" lon="4.61863">
        <ele>477.39999389648</ele>
        <time>2023-06-17T09:07:50.000Z</time>
      </trkpt>
      <trkpt lat="46.97216" lon="4.61837">
        <ele>476.39999389648</ele>
        <time>2023-06-17T09:07:53.000Z</time>
      </trkpt>
      <trkpt lat="46.972" lon="4.61819">
        <ele>475.60000610352</ele>
        <time>2023-06-17T09:07:55.000Z</time>
      </trkpt>
      <trkpt lat="46.97183" lon="4.61796">
        <ele>474.60000610352</ele>
        <time>2023-06-17T09:07:57.000Z</time>
      </trkpt>
      <trkpt lat="46.97162" lon="4.61764">
        <ele>473.39999389648</ele>
        <time>2023-06-17T09:08:00.000Z</time>
      </trkpt>
      <trkpt lat="46.97154" lon="4.61751">
        <ele>473</ele>
        <time>2023-06-17T09:08:01.000Z</time>
      </trkpt>
      <trkpt lat="46.97138" lon="4.6173">
        <ele>472.20001220703</ele>
        <time>2023-06-17T09:08:03.000Z</time>
      </trkpt>
      <trkpt lat="46.97114" lon="4.61701">
        <ele>470.79998779297</ele>
        <time>2023-06-17T09:08:06.000Z</time>
      </trkpt>
      <trkpt lat="46.97105" lon="4.61692">
        <ele>470.60000610352</ele>
        <time>2023-06-17T09:08:07.000Z</time>
      </trkpt>
      <trkpt lat="46.97087" lon="4.61676">
        <ele>469.60000610352</ele>
        <time>2023-06-17T09:08:09.000Z</time>
      </trkpt>
      <trkpt lat="46.9707" lon="4.61662">
        <ele>468.20001220703</ele>
        <time>2023-06-17T09:08:11.000Z</time>
      </trkpt>
      <trkpt lat="46.97052" lon="4.61649">
        <ele>467.39999389648</ele>
        <time>2023-06-17T09:08:13.000Z</time>
      </trkpt>
      <trkpt lat="46.97042" lon="4.61644">
        <ele>467.20001220703</ele>
        <time>2023-06-17T09:08:14.000Z</time>
      </trkpt>
      <trkpt lat="46.97014" lon="4.61634">
        <ele>466.60000610352</ele>
        <time>2023-06-17T09:08:17.000Z</time>
      </trkpt>
      <trkpt lat="46.97005" lon="4.61631">
        <ele>465.60000610352</ele>
        <time>2023-06-17T09:08:18.000Z</time>
      </trkpt>
      <trkpt lat="46.96961" lon="4.61621">
        <ele>464.60000610352</ele>
        <time>2023-06-17T09:08:23.000Z</time>
      </trkpt>
      <trkpt lat="46.96952" lon="4.61618">
        <ele>464.60000610352</ele>
        <time>2023-06-17T09:08:24.000Z</time>
      </trkpt>
      <trkpt lat="46.96909" lon="4.61599">
        <ele>463.60000610352</ele>
        <time>2023-06-17T09:08:29.000Z</time>
      </trkpt>
      <trkpt lat="46.96899" lon="4.61593">
        <ele>463.39999389648</ele>
        <time>2023-06-17T09:08:30.000Z</time>
      </trkpt>
      <trkpt lat="46.96871" lon="4.61574">
        <ele>462.79998779297</ele>
        <time>2023-06-17T09:08:34.000Z</time>
      </trkpt>
      <trkpt lat="46.96865" lon="4.61569">
        <ele>462.79998779297</ele>
        <time>2023-06-17T09:08:35.000Z</time>
      </trkpt>
      <trkpt lat="46.96846" lon="4.61552">
        <ele>462.39999389648</ele>
        <time>2023-06-17T09:08:38.000Z</time>
      </trkpt>
      <trkpt lat="46.96817" lon="4.6152">
        <ele>462</ele>
        <time>2023-06-17T09:08:42.000Z</time>
      </trkpt>
      <trkpt lat="46.96787" lon="4.61487">
        <ele>461.39999389648</ele>
        <time>2023-06-17T09:08:46.000Z</time>
      </trkpt>
      <trkpt lat="46.96766" lon="4.61463">
        <ele>460.39999389648</ele>
        <time>2023-06-17T09:08:49.000Z</time>
      </trkpt>
      <trkpt lat="46.96759" lon="4.61454">
        <ele>460.20001220703</ele>
        <time>2023-06-17T09:08:50.000Z</time>
      </trkpt>
      <trkpt lat="46.96716" lon="4.61406">
        <ele>459.20001220703</ele>
        <time>2023-06-17T09:08:56.000Z</time>
      </trkpt>
      <trkpt lat="46.96682" lon="4.61367">
        <ele>457.79998779297</ele>
        <time>2023-06-17T09:09:01.000Z</time>
      </trkpt>
      <trkpt lat="46.96663" lon="4.61346">
        <ele>456.79998779297</ele>
        <time>2023-06-17T09:09:04.000Z</time>
      </trkpt>
      <trkpt lat="46.9665" lon="4.61332">
        <ele>456.20001220703</ele>
        <time>2023-06-17T09:09:06.000Z</time>
      </trkpt>
      <trkpt lat="46.96622" lon="4.61305">
        <ele>455.60000610352</ele>
        <time>2023-06-17T09:09:10.000Z</time>
      </trkpt>
      <trkpt lat="46.96614" lon="4.613">
        <ele>455.20001220703</ele>
        <time>2023-06-17T09:09:11.000Z</time>
      </trkpt>
      <trkpt lat="46.96606" lon="4.61295">
        <ele>455.20001220703</ele>
        <time>2023-06-17T09:09:12.000Z</time>
      </trkpt>
      <trkpt lat="46.9658" lon="4.61284">
        <ele>454.60000610352</ele>
        <time>2023-06-17T09:09:15.000Z</time>
      </trkpt>
      <trkpt lat="46.96562" lon="4.6128">
        <ele>454</ele>
        <time>2023-06-17T09:09:17.000Z</time>
      </trkpt>
      <trkpt lat="46.96552" lon="4.61279">
        <ele>453.39999389648</ele>
        <time>2023-06-17T09:09:18.000Z</time>
      </trkpt>
      <trkpt lat="46.96542" lon="4.6128">
        <ele>453.20001220703</ele>
        <time>2023-06-17T09:09:19.000Z</time>
      </trkpt>
      <trkpt lat="46.96523" lon="4.61284">
        <ele>452.39999389648</ele>
        <time>2023-06-17T09:09:21.000Z</time>
      </trkpt>
      <trkpt lat="46.96514" lon="4.61288">
        <ele>451.60000610352</ele>
        <time>2023-06-17T09:09:22.000Z</time>
      </trkpt>
      <trkpt lat="46.96485" lon="4.61305">
        <ele>450.39999389648</ele>
        <time>2023-06-17T09:09:25.000Z</time>
      </trkpt>
      <trkpt lat="46.96475" lon="4.61313">
        <ele>450</ele>
        <time>2023-06-17T09:09:26.000Z</time>
      </trkpt>
      <trkpt lat="46.96466" lon="4.61321">
        <ele>449.20001220703</ele>
        <time>2023-06-17T09:09:27.000Z</time>
      </trkpt>
      <trkpt lat="46.96441" lon="4.61347">
        <ele>447.20001220703</ele>
        <time>2023-06-17T09:09:30.000Z</time>
      </trkpt>
      <trkpt lat="46.96424" lon="4.61364">
        <ele>446</ele>
        <time>2023-06-17T09:09:32.000Z</time>
      </trkpt>
      <trkpt lat="46.96407" lon="4.61382">
        <ele>444.20001220703</ele>
        <time>2023-06-17T09:09:34.000Z</time>
      </trkpt>
      <trkpt lat="46.96398" lon="4.61391">
        <ele>443.79998779297</ele>
        <time>2023-06-17T09:09:35.000Z</time>
      </trkpt>
      <trkpt lat="46.96389" lon="4.61399">
        <ele>442.79998779297</ele>
        <time>2023-06-17T09:09:36.000Z</time>
      </trkpt>
      <trkpt lat="46.9638" lon="4.61408">
        <ele>441.79998779297</ele>
        <time>2023-06-17T09:09:37.000Z</time>
      </trkpt>
      <trkpt lat="46.96363" lon="4.61423">
        <ele>440.79998779297</ele>
        <time>2023-06-17T09:09:39.000Z</time>
      </trkpt>
      <trkpt lat="46.9634" lon="4.61442">
        <ele>439.60000610352</ele>
        <time>2023-06-17T09:09:42.000Z</time>
      </trkpt>
      <trkpt lat="46.96323" lon="4.61455">
        <ele>437.79998779297</ele>
        <time>2023-06-17T09:09:44.000Z</time>
      </trkpt>
      <trkpt lat="46.96308" lon="4.61465">
        <ele>436</ele>
        <time>2023-06-17T09:09:46.000Z</time>
      </trkpt>
      <trkpt lat="46.96291" lon="4.61476">
        <ele>435.20001220703</ele>
        <time>2023-06-17T09:09:48.000Z</time>
      </trkpt>
      <trkpt lat="46.96282" lon="4.61482">
        <ele>434.79998779297</ele>
        <time>2023-06-17T09:09:49.000Z</time>
      </trkpt>
      <trkpt lat="46.96265" lon="4.61494">
        <ele>433.60000610352</ele>
        <time>2023-06-17T09:09:51.000Z</time>
      </trkpt>
      <trkpt lat="46.96237" lon="4.61513">
        <ele>432.60000610352</ele>
        <time>2023-06-17T09:09:54.000Z</time>
      </trkpt>
      <trkpt lat="46.96228" lon="4.61519">
        <ele>431.79998779297</ele>
        <time>2023-06-17T09:09:55.000Z</time>
      </trkpt>
      <trkpt lat="46.96198" lon="4.61538">
        <ele>430.79998779297</ele>
        <time>2023-06-17T09:09:58.000Z</time>
      </trkpt>
      <trkpt lat="46.96178" lon="4.61551">
        <ele>429.20001220703</ele>
        <time>2023-06-17T09:10:00.000Z</time>
      </trkpt>
      <trkpt lat="46.96168" lon="4.61558">
        <ele>428.60000610352</ele>
        <time>2023-06-17T09:10:01.000Z</time>
      </trkpt>
      <trkpt lat="46.96157" lon="4.61563">
        <ele>427.39999389648</ele>
        <time>2023-06-17T09:10:02.000Z</time>
      </trkpt>
      <trkpt lat="46.96125" lon="4.6158">
        <ele>426.20001220703</ele>
        <time>2023-06-17T09:10:05.000Z</time>
      </trkpt>
      <trkpt lat="46.96102" lon="4.61591">
        <ele>424.20001220703</ele>
        <time>2023-06-17T09:10:07.000Z</time>
      </trkpt>
      <trkpt lat="46.96091" lon="4.61596">
        <ele>423.79998779297</ele>
        <time>2023-06-17T09:10:08.000Z</time>
      </trkpt>
      <trkpt lat="46.9608" lon="4.61601">
        <ele>422.60000610352</ele>
        <time>2023-06-17T09:10:09.000Z</time>
      </trkpt>
      <trkpt lat="46.96047" lon="4.61616">
        <ele>421.60000610352</ele>
        <time>2023-06-17T09:10:12.000Z</time>
      </trkpt>
      <trkpt lat="46.96025" lon="4.61628">
        <ele>419.79998779297</ele>
        <time>2023-06-17T09:10:14.000Z</time>
      </trkpt>
      <trkpt lat="46.96014" lon="4.61635">
        <ele>419.39999389648</ele>
        <time>2023-06-17T09:10:15.000Z</time>
      </trkpt>
      <trkpt lat="46.96004" lon="4.61644">
        <ele>418.60000610352</ele>
        <time>2023-06-17T09:10:16.000Z</time>
      </trkpt>
      <trkpt lat="46.95985" lon="4.61663">
        <ele>417.39999389648</ele>
        <time>2023-06-17T09:10:18.000Z</time>
      </trkpt>
      <trkpt lat="46.95976" lon="4.61674">
        <ele>417</ele>
        <time>2023-06-17T09:10:19.000Z</time>
      </trkpt>
      <trkpt lat="46.95968" lon="4.61686">
        <ele>416.20001220703</ele>
        <time>2023-06-17T09:10:20.000Z</time>
      </trkpt>
      <trkpt lat="46.9596" lon="4.61698">
        <ele>415</ele>
        <time>2023-06-17T09:10:21.000Z</time>
      </trkpt>
      <trkpt lat="46.95946" lon="4.61724">
        <ele>413.79998779297</ele>
        <time>2023-06-17T09:10:23.000Z</time>
      </trkpt>
      <trkpt lat="46.95933" lon="4.61753">
        <ele>412</ele>
        <time>2023-06-17T09:10:25.000Z</time>
      </trkpt>
      <trkpt lat="46.95921" lon="4.61782">
        <ele>410.79998779297</ele>
        <time>2023-06-17T09:10:27.000Z</time>
      </trkpt>
      <trkpt lat="46.95916" lon="4.61797">
        <ele>409.60000610352</ele>
        <time>2023-06-17T09:10:28.000Z</time>
      </trkpt>
      <trkpt lat="46.95911" lon="4.61812">
        <ele>409.20001220703</ele>
        <time>2023-06-17T09:10:29.000Z</time>
      </trkpt>
      <trkpt lat="46.95907" lon="4.61828">
        <ele>408.60000610352</ele>
        <time>2023-06-17T09:10:30.000Z</time>
      </trkpt>
      <trkpt lat="46.95901" lon="4.6186">
        <ele>407</ele>
        <time>2023-06-17T09:10:32.000Z</time>
      </trkpt>
      <trkpt lat="46.95899" lon="4.61876">
        <ele>406.60000610352</ele>
        <time>2023-06-17T09:10:33.000Z</time>
      </trkpt>
      <trkpt lat="46.95897" lon="4.61892">
        <ele>405.79998779297</ele>
        <time>2023-06-17T09:10:34.000Z</time>
      </trkpt>
      <trkpt lat="46.95896" lon="4.61926">
        <ele>404.39999389648</ele>
        <time>2023-06-17T09:10:36.000Z</time>
      </trkpt>
      <trkpt lat="46.95895" lon="4.61959">
        <ele>403.20001220703</ele>
        <time>2023-06-17T09:10:38.000Z</time>
      </trkpt>
      <trkpt lat="46.95894" lon="4.61991">
        <ele>402.20001220703</ele>
        <time>2023-06-17T09:10:40.000Z</time>
      </trkpt>
      <trkpt lat="46.95893" lon="4.62007">
        <ele>401.60000610352</ele>
        <time>2023-06-17T09:10:41.000Z</time>
      </trkpt>
      <trkpt lat="46.95892" lon="4.6204">
        <ele>400.60000610352</ele>
        <time>2023-06-17T09:10:43.000Z</time>
      </trkpt>
      <trkpt lat="46.9589" lon="4.62072">
        <ele>399.39999389648</ele>
        <time>2023-06-17T09:10:45.000Z</time>
      </trkpt>
      <trkpt lat="46.95889" lon="4.62101">
        <ele>398</ele>
        <time>2023-06-17T09:10:47.000Z</time>
      </trkpt>
      <trkpt lat="46.95888" lon="4.62115">
        <ele>397</ele>
        <time>2023-06-17T09:10:48.000Z</time>
      </trkpt>
      <trkpt lat="46.95884" lon="4.62153">
        <ele>395.39999389648</ele>
        <time>2023-06-17T09:10:51.000Z</time>
      </trkpt>
      <trkpt lat="46.95883" lon="4.62167">
        <ele>395</ele>
        <time>2023-06-17T09:10:52.000Z</time>
      </trkpt>
      <trkpt lat="46.95881" lon="4.62181">
        <ele>393.60000610352</ele>
        <time>2023-06-17T09:10:53.000Z</time>
      </trkpt>
      <trkpt lat="46.95878" lon="4.62209">
        <ele>392.20001220703</ele>
        <time>2023-06-17T09:10:55.000Z</time>
      </trkpt>
      <trkpt lat="46.95875" lon="4.62238">
        <ele>391.20001220703</ele>
        <time>2023-06-17T09:10:57.000Z</time>
      </trkpt>
      <trkpt lat="46.95871" lon="4.62268">
        <ele>390.20001220703</ele>
        <time>2023-06-17T09:10:59.000Z</time>
      </trkpt>
      <trkpt lat="46.95863" lon="4.6231">
        <ele>389</ele>
        <time>2023-06-17T09:11:02.000Z</time>
      </trkpt>
      <trkpt lat="46.9586" lon="4.62322">
        <ele>389</ele>
        <time>2023-06-17T09:11:03.000Z</time>
      </trkpt>
      <trkpt lat="46.95857" lon="4.62335">
        <ele>388</ele>
        <time>2023-06-17T09:11:04.000Z</time>
      </trkpt>
      <trkpt lat="46.9585" lon="4.62361">
        <ele>386.79998779297</ele>
        <time>2023-06-17T09:11:06.000Z</time>
      </trkpt>
      <trkpt lat="46.95847" lon="4.62375">
        <ele>385.79998779297</ele>
        <time>2023-06-17T09:11:07.000Z</time>
      </trkpt>
      <trkpt lat="46.9584" lon="4.62402">
        <ele>384.60000610352</ele>
        <time>2023-06-17T09:11:09.000Z</time>
      </trkpt>
      <trkpt lat="46.95834" lon="4.62428">
        <ele>383.39999389648</ele>
        <time>2023-06-17T09:11:11.000Z</time>
      </trkpt>
      <trkpt lat="46.95825" lon="4.62463">
        <ele>382</ele>
        <time>2023-06-17T09:11:14.000Z</time>
      </trkpt>
      <trkpt lat="46.95822" lon="4.62474">
        <ele>381.20001220703</ele>
        <time>2023-06-17T09:11:15.000Z</time>
      </trkpt>
      <trkpt lat="46.95819" lon="4.62486">
        <ele>380.39999389648</ele>
        <time>2023-06-17T09:11:16.000Z</time>
      </trkpt>
      <trkpt lat="46.95813" lon="4.6251">
        <ele>379.20001220703</ele>
        <time>2023-06-17T09:11:18.000Z</time>
      </trkpt>
      <trkpt lat="46.95811" lon="4.62523">
        <ele>378.20001220703</ele>
        <time>2023-06-17T09:11:19.000Z</time>
      </trkpt>
      <trkpt lat="46.95804" lon="4.62548">
        <ele>376.20001220703</ele>
        <time>2023-06-17T09:11:21.000Z</time>
      </trkpt>
      <trkpt lat="46.95795" lon="4.62571">
        <ele>375</ele>
        <time>2023-06-17T09:11:23.000Z</time>
      </trkpt>
      <trkpt lat="46.95789" lon="4.6258">
        <ele>374.60000610352</ele>
        <time>2023-06-17T09:11:24.000Z</time>
      </trkpt>
      <trkpt lat="46.95783" lon="4.62588">
        <ele>374</ele>
        <time>2023-06-17T09:11:25.000Z</time>
      </trkpt>
      <trkpt lat="46.95776" lon="4.62595">
        <ele>373</ele>
        <time>2023-06-17T09:11:26.000Z</time>
      </trkpt>
      <trkpt lat="46.9576" lon="4.6261">
        <ele>372.20001220703</ele>
        <time>2023-06-17T09:11:28.000Z</time>
      </trkpt>
      <trkpt lat="46.95751" lon="4.62616">
        <ele>372</ele>
        <time>2023-06-17T09:11:29.000Z</time>
      </trkpt>
      <trkpt lat="46.95734" lon="4.6263">
        <ele>370.79998779297</ele>
        <time>2023-06-17T09:11:31.000Z</time>
      </trkpt>
      <trkpt lat="46.95716" lon="4.62645">
        <ele>369.60000610352</ele>
        <time>2023-06-17T09:11:33.000Z</time>
      </trkpt>
      <trkpt lat="46.95707" lon="4.62653">
        <ele>368.79998779297</ele>
        <time>2023-06-17T09:11:34.000Z</time>
      </trkpt>
      <trkpt lat="46.95697" lon="4.6266">
        <ele>367.79998779297</ele>
        <time>2023-06-17T09:11:35.000Z</time>
      </trkpt>
      <trkpt lat="46.95678" lon="4.62676">
        <ele>366.79998779297</ele>
        <time>2023-06-17T09:11:37.000Z</time>
      </trkpt>
      <trkpt lat="46.95648" lon="4.627">
        <ele>365</ele>
        <time>2023-06-17T09:11:40.000Z</time>
      </trkpt>
      <trkpt lat="46.95638" lon="4.62708">
        <ele>364.60000610352</ele>
        <time>2023-06-17T09:11:41.000Z</time>
      </trkpt>
      <trkpt lat="46.95619" lon="4.62723">
        <ele>363.60000610352</ele>
        <time>2023-06-17T09:11:43.000Z</time>
      </trkpt>
      <trkpt lat="46.95609" lon="4.62732">
        <ele>362.39999389648</ele>
        <time>2023-06-17T09:11:44.000Z</time>
      </trkpt>
      <trkpt lat="46.95588" lon="4.62748">
        <ele>361</ele>
        <time>2023-06-17T09:11:46.000Z</time>
      </trkpt>
      <trkpt lat="46.95579" lon="4.62757">
        <ele>360</ele>
        <time>2023-06-17T09:11:47.000Z</time>
      </trkpt>
      <trkpt lat="46.95569" lon="4.62765">
        <ele>359.39999389648</ele>
        <time>2023-06-17T09:11:48.000Z</time>
      </trkpt>
      <trkpt lat="46.95559" lon="4.62774">
        <ele>358.60000610352</ele>
        <time>2023-06-17T09:11:49.000Z</time>
      </trkpt>
      <trkpt lat="46.95539" lon="4.6279">
        <ele>357.60000610352</ele>
        <time>2023-06-17T09:11:51.000Z</time>
      </trkpt>
      <trkpt lat="46.95519" lon="4.62806">
        <ele>355.79998779297</ele>
        <time>2023-06-17T09:11:53.000Z</time>
      </trkpt>
      <trkpt lat="46.95499" lon="4.62822">
        <ele>354.39999389648</ele>
        <time>2023-06-17T09:11:55.000Z</time>
      </trkpt>
      <trkpt lat="46.95489" lon="4.6283">
        <ele>353.20001220703</ele>
        <time>2023-06-17T09:11:56.000Z</time>
      </trkpt>
      <trkpt lat="46.9547" lon="4.62846">
        <ele>351.79998779297</ele>
        <time>2023-06-17T09:11:58.000Z</time>
      </trkpt>
      <trkpt lat="46.95451" lon="4.62861">
        <ele>349.79998779297</ele>
        <time>2023-06-17T09:12:00.000Z</time>
      </trkpt>
      <trkpt lat="46.95433" lon="4.62877">
        <ele>347.79998779297</ele>
        <time>2023-06-17T09:12:02.000Z</time>
      </trkpt>
      <trkpt lat="46.95425" lon="4.62884">
        <ele>346.79998779297</ele>
        <time>2023-06-17T09:12:03.000Z</time>
      </trkpt>
      <trkpt lat="46.95407" lon="4.62901">
        <ele>345.39999389648</ele>
        <time>2023-06-17T09:12:05.000Z</time>
      </trkpt>
      <trkpt lat="46.95391" lon="4.62919">
        <ele>343.79998779297</ele>
        <time>2023-06-17T09:12:07.000Z</time>
      </trkpt>
      <trkpt lat="46.95375" lon="4.62938">
        <ele>342</ele>
        <time>2023-06-17T09:12:09.000Z</time>
      </trkpt>
      <trkpt lat="46.95362" lon="4.62958">
        <ele>340.79998779297</ele>
        <time>2023-06-17T09:12:11.000Z</time>
      </trkpt>
      <trkpt lat="46.95356" lon="4.62968">
        <ele>339.60000610352</ele>
        <time>2023-06-17T09:12:12.000Z</time>
      </trkpt>
      <trkpt lat="46.95339" lon="4.63003">
        <ele>338</ele>
        <time>2023-06-17T09:12:15.000Z</time>
      </trkpt>
      <trkpt lat="46.95329" lon="4.63027">
        <ele>336.60000610352</ele>
        <time>2023-06-17T09:12:17.000Z</time>
      </trkpt>
      <trkpt lat="46.95319" lon="4.63052">
        <ele>335.20001220703</ele>
        <time>2023-06-17T09:12:19.000Z</time>
      </trkpt>
      <trkpt lat="46.9531" lon="4.63076">
        <ele>333.79998779297</ele>
        <time>2023-06-17T09:12:21.000Z</time>
      </trkpt>
      <trkpt lat="46.95301" lon="4.63098">
        <ele>332.79998779297</ele>
        <time>2023-06-17T09:12:23.000Z</time>
      </trkpt>
      <trkpt lat="46.95292" lon="4.63121">
        <ele>331.60000610352</ele>
        <time>2023-06-17T09:12:25.000Z</time>
      </trkpt>
      <trkpt lat="46.95287" lon="4.63131">
        <ele>330.39999389648</ele>
        <time>2023-06-17T09:12:26.000Z</time>
      </trkpt>
      <trkpt lat="46.95279" lon="4.63151">
        <ele>329.39999389648</ele>
        <time>2023-06-17T09:12:28.000Z</time>
      </trkpt>
      <trkpt lat="46.95272" lon="4.6317">
        <ele>328</ele>
        <time>2023-06-17T09:12:30.000Z</time>
      </trkpt>
      <trkpt lat="46.95268" lon="4.63178">
        <ele>327.20001220703</ele>
        <time>2023-06-17T09:12:31.000Z</time>
      </trkpt>
      <trkpt lat="46.95265" lon="4.63185">
        <ele>326.60000610352</ele>
        <time>2023-06-17T09:12:32.000Z</time>
      </trkpt>
      <trkpt lat="46.95261" lon="4.63193">
        <ele>326</ele>
        <time>2023-06-17T09:12:33.000Z</time>
      </trkpt>
      <trkpt lat="46.95251" lon="4.63204">
        <ele>325.20001220703</ele>
        <time>2023-06-17T09:12:35.000Z</time>
      </trkpt>
      <trkpt lat="46.95241" lon="4.6321">
        <ele>324.79998779297</ele>
        <time>2023-06-17T09:12:37.000Z</time>
      </trkpt>
      <trkpt lat="46.95236" lon="4.6321">
        <ele>324.60000610352</ele>
        <time>2023-06-17T09:12:38.000Z</time>
      </trkpt>
      <trkpt lat="46.95231" lon="4.6321">
        <ele>324</ele>
        <time>2023-06-17T09:12:39.000Z</time>
      </trkpt>
      <trkpt lat="46.95223" lon="4.6321">
        <ele>322.79998779297</ele>
        <time>2023-06-17T09:12:42.000Z</time>
      </trkpt>
      <trkpt lat="46.95225" lon="4.63223">
        <ele>322.20001220703</ele>
        <time>2023-06-17T09:12:45.000Z</time>
      </trkpt>
      <trkpt lat="46.95231" lon="4.6325">
        <ele>321.79998779297</ele>
        <time>2023-06-17T09:12:49.000Z</time>
      </trkpt>
      <trkpt lat="46.95232" lon="4.63257">
        <ele>321.79998779297</ele>
        <time>2023-06-17T09:12:50.000Z</time>
      </trkpt>
      <trkpt lat="46.95233" lon="4.63264">
        <ele>321.79998779297</ele>
        <time>2023-06-17T09:12:51.000Z</time>
      </trkpt>
      <trkpt lat="46.95237" lon="4.6328">
        <ele>322</ele>
        <time>2023-06-17T09:12:53.000Z</time>
      </trkpt>
      <trkpt lat="46.95238" lon="4.63288">
        <ele>322.20001220703</ele>
        <time>2023-06-17T09:12:54.000Z</time>
      </trkpt>
      <trkpt lat="46.95243" lon="4.63314">
        <ele>322.39999389648</ele>
        <time>2023-06-17T09:12:57.000Z</time>
      </trkpt>
      <trkpt lat="46.95246" lon="4.63331">
        <ele>322.79998779297</ele>
        <time>2023-06-17T09:12:59.000Z</time>
      </trkpt>
      <trkpt lat="46.95248" lon="4.63348">
        <ele>323.20001220703</ele>
        <time>2023-06-17T09:13:01.000Z</time>
      </trkpt>
      <trkpt lat="46.95246" lon="4.63372">
        <ele>323.79998779297</ele>
        <time>2023-06-17T09:13:04.000Z</time>
      </trkpt>
      <trkpt lat="46.95246" lon="4.63382">
        <ele>324</ele>
        <time>2023-06-17T09:13:05.000Z</time>
      </trkpt>
      <trkpt lat="46.95242" lon="4.63406">
        <ele>324.20001220703</ele>
        <time>2023-06-17T09:13:08.000Z</time>
      </trkpt>
      <trkpt lat="46.9524" lon="4.63414">
        <ele>324.20001220703</ele>
        <time>2023-06-17T09:13:09.000Z</time>
      </trkpt>
      <trkpt lat="46.95237" lon="4.63423">
        <ele>324.20001220703</ele>
        <time>2023-06-17T09:13:10.000Z</time>
      </trkpt>
      <trkpt lat="46.9523" lon="4.63444">
        <ele>324.20001220703</ele>
        <time>2023-06-17T09:13:13.000Z</time>
      </trkpt>
      <trkpt lat="46.95221" lon="4.63456">
        <ele>324.20001220703</ele>
        <time>2023-06-17T09:13:15.000Z</time>
      </trkpt>
      <trkpt lat="46.95211" lon="4.63456">
        <ele>324</ele>
        <time>2023-06-17T09:13:17.000Z</time>
      </trkpt>
      <trkpt lat="46.95186" lon="4.63447">
        <ele>323.79998779297</ele>
        <time>2023-06-17T09:13:21.000Z</time>
      </trkpt>
      <trkpt lat="46.95173" lon="4.63444">
        <ele>323.39999389648</ele>
        <time>2023-06-17T09:13:23.000Z</time>
      </trkpt>
      <trkpt lat="46.95167" lon="4.6345">
        <ele>323</ele>
        <time>2023-06-17T09:13:24.000Z</time>
      </trkpt>
      <trkpt lat="46.95162" lon="4.63458">
        <ele>322.79998779297</ele>
        <time>2023-06-17T09:13:25.000Z</time>
      </trkpt>
      <trkpt lat="46.95156" lon="4.63476">
        <ele>322.39999389648</ele>
        <time>2023-06-17T09:13:27.000Z</time>
      </trkpt>
      <trkpt lat="46.95153" lon="4.63485">
        <ele>322.39999389648</ele>
        <time>2023-06-17T09:13:28.000Z</time>
      </trkpt>
      <trkpt lat="46.95142" lon="4.63515">
        <ele>322.39999389648</ele>
        <time>2023-06-17T09:13:32.000Z</time>
      </trkpt>
      <trkpt lat="46.95139" lon="4.63521">
        <ele>322.60000610352</ele>
        <time>2023-06-17T09:13:33.000Z</time>
      </trkpt>
      <trkpt lat="46.9513" lon="4.63538">
        <ele>323</ele>
        <time>2023-06-17T09:13:36.000Z</time>
      </trkpt>
      <trkpt lat="46.95125" lon="4.63547">
        <ele>323.79998779297</ele>
        <time>2023-06-17T09:13:38.000Z</time>
      </trkpt>
      <trkpt lat="46.95123" lon="4.63552">
        <ele>324</ele>
        <time>2023-06-17T09:13:39.000Z</time>
      </trkpt>
      <trkpt lat="46.9512" lon="4.63557">
        <ele>324.39999389648</ele>
        <time>2023-06-17T09:13:40.000Z</time>
      </trkpt>
      <trkpt lat="46.95112" lon="4.63572">
        <ele>325</ele>
        <time>2023-06-17T09:13:43.000Z</time>
      </trkpt>
      <trkpt lat="46.95098" lon="4.63596">
        <ele>326</ele>
        <time>2023-06-17T09:13:48.000Z</time>
      </trkpt>
      <trkpt lat="46.95093" lon="4.63606">
        <ele>326.79998779297</ele>
        <time>2023-06-17T09:13:50.000Z</time>
      </trkpt>
      <trkpt lat="46.95088" lon="4.63616">
        <ele>327.20001220703</ele>
        <time>2023-06-17T09:13:52.000Z</time>
      </trkpt>
      <trkpt lat="46.95077" lon="4.63635">
        <ele>328.39999389648</ele>
        <time>2023-06-17T09:13:56.000Z</time>
      </trkpt>
      <trkpt lat="46.95072" lon="4.63645">
        <ele>328.60000610352</ele>
        <time>2023-06-17T09:13:58.000Z</time>
      </trkpt>
      <trkpt lat="46.95067" lon="4.63654">
        <ele>329</ele>
        <time>2023-06-17T09:14:00.000Z</time>
      </trkpt>
      <trkpt lat="46.95062" lon="4.63664">
        <ele>329.60000610352</ele>
        <time>2023-06-17T09:14:02.000Z</time>
      </trkpt>
      <trkpt lat="46.9506" lon="4.63669">
        <ele>330</ele>
        <time>2023-06-17T09:14:03.000Z</time>
      </trkpt>
      <trkpt lat="46.95058" lon="4.63674">
        <ele>330</ele>
        <time>2023-06-17T09:14:04.000Z</time>
      </trkpt>
      <trkpt lat="46.95055" lon="4.63679">
        <ele>330.60000610352</ele>
        <time>2023-06-17T09:14:05.000Z</time>
      </trkpt>
      <trkpt lat="46.95047" lon="4.63701">
        <ele>331.60000610352</ele>
        <time>2023-06-17T09:14:09.000Z</time>
      </trkpt>
      <trkpt lat="46.95042" lon="4.63713">
        <ele>331.79998779297</ele>
        <time>2023-06-17T09:14:11.000Z</time>
      </trkpt>
      <trkpt lat="46.95034" lon="4.6373">
        <ele>332.60000610352</ele>
        <time>2023-06-17T09:14:14.000Z</time>
      </trkpt>
      <trkpt lat="46.95031" lon="4.63736">
        <ele>332.79998779297</ele>
        <time>2023-06-17T09:14:15.000Z</time>
      </trkpt>
      <trkpt lat="46.95028" lon="4.63742">
        <ele>333</ele>
        <time>2023-06-17T09:14:16.000Z</time>
      </trkpt>
      <trkpt lat="46.95013" lon="4.63768">
        <ele>334.20001220703</ele>
        <time>2023-06-17T09:14:21.000Z</time>
      </trkpt>
      <trkpt lat="46.95007" lon="4.63778">
        <ele>334.60000610352</ele>
        <time>2023-06-17T09:14:23.000Z</time>
      </trkpt>
      <trkpt lat="46.94996" lon="4.63799">
        <ele>335.20001220703</ele>
        <time>2023-06-17T09:14:27.000Z</time>
      </trkpt>
      <trkpt lat="46.94983" lon="4.63826">
        <ele>336</ele>
        <time>2023-06-17T09:14:32.000Z</time>
      </trkpt>
      <trkpt lat="46.94981" lon="4.63831">
        <ele>336.20001220703</ele>
        <time>2023-06-17T09:14:33.000Z</time>
      </trkpt>
      <trkpt lat="46.94975" lon="4.63844">
        <ele>336.39999389648</ele>
        <time>2023-06-17T09:14:35.000Z</time>
      </trkpt>
      <trkpt lat="46.94963" lon="4.63869">
        <ele>337</ele>
        <time>2023-06-17T09:14:39.000Z</time>
      </trkpt>
      <trkpt lat="46.94942" lon="4.63913">
        <ele>337.60000610352</ele>
        <time>2023-06-17T09:14:46.000Z</time>
      </trkpt>
      <trkpt lat="46.94932" lon="4.63931">
        <ele>338.20001220703</ele>
        <time>2023-06-17T09:14:49.000Z</time>
      </trkpt>
      <trkpt lat="46.94922" lon="4.63949">
        <ele>338.60000610352</ele>
        <time>2023-06-17T09:14:52.000Z</time>
      </trkpt>
      <trkpt lat="46.94914" lon="4.63966">
        <ele>339</ele>
        <time>2023-06-17T09:14:55.000Z</time>
      </trkpt>
      <trkpt lat="46.94906" lon="4.63982">
        <ele>340</ele>
        <time>2023-06-17T09:14:58.000Z</time>
      </trkpt>
      <trkpt lat="46.94898" lon="4.63997">
        <ele>340.60000610352</ele>
        <time>2023-06-17T09:15:01.000Z</time>
      </trkpt>
      <trkpt lat="46.94895" lon="4.64001">
        <ele>340.79998779297</ele>
        <time>2023-06-17T09:15:02.000Z</time>
      </trkpt>
      <trkpt lat="46.94893" lon="4.64006">
        <ele>341.20001220703</ele>
        <time>2023-06-17T09:15:03.000Z</time>
      </trkpt>
      <trkpt lat="46.94884" lon="4.64025">
        <ele>342.39999389648</ele>
        <time>2023-06-17T09:15:07.000Z</time>
      </trkpt>
      <trkpt lat="46.94878" lon="4.64035">
        <ele>343.20001220703</ele>
        <time>2023-06-17T09:15:09.000Z</time>
      </trkpt>
      <trkpt lat="46.94876" lon="4.6404">
        <ele>343.60000610352</ele>
        <time>2023-06-17T09:15:10.000Z</time>
      </trkpt>
      <trkpt lat="46.94863" lon="4.64064">
        <ele>344.79998779297</ele>
        <time>2023-06-17T09:15:15.000Z</time>
      </trkpt>
      <trkpt lat="46.94854" lon="4.64077">
        <ele>345.39999389648</ele>
        <time>2023-06-17T09:15:18.000Z</time>
      </trkpt>
      <trkpt lat="46.94851" lon="4.64082">
        <ele>346</ele>
        <time>2023-06-17T09:15:19.000Z</time>
      </trkpt>
      <trkpt lat="46.94837" lon="4.64104">
        <ele>347</ele>
        <time>2023-06-17T09:15:24.000Z</time>
      </trkpt>
      <trkpt lat="46.9483" lon="4.64117">
        <ele>347.60000610352</ele>
        <time>2023-06-17T09:15:27.000Z</time>
      </trkpt>
      <trkpt lat="46.94824" lon="4.64128">
        <ele>348.20001220703</ele>
        <time>2023-06-17T09:15:29.000Z</time>
      </trkpt>
      <trkpt lat="46.94812" lon="4.64147">
        <ele>349.60000610352</ele>
        <time>2023-06-17T09:15:33.000Z</time>
      </trkpt>
      <trkpt lat="46.94804" lon="4.64161">
        <ele>350</ele>
        <time>2023-06-17T09:15:36.000Z</time>
      </trkpt>
      <trkpt lat="46.94793" lon="4.64178">
        <ele>350.60000610352</ele>
        <time>2023-06-17T09:15:39.000Z</time>
      </trkpt>
      <trkpt lat="46.94777" lon="4.64205">
        <ele>351.60000610352</ele>
        <time>2023-06-17T09:15:44.000Z</time>
      </trkpt>
      <trkpt lat="46.9477" lon="4.64215">
        <ele>352</ele>
        <time>2023-06-17T09:15:46.000Z</time>
      </trkpt>
      <trkpt lat="46.94755" lon="4.64241">
        <ele>352.79998779297</ele>
        <time>2023-06-17T09:15:51.000Z</time>
      </trkpt>
      <trkpt lat="46.94736" lon="4.64273">
        <ele>353.79998779297</ele>
        <time>2023-06-17T09:15:57.000Z</time>
      </trkpt>
      <trkpt lat="46.94733" lon="4.64278">
        <ele>354</ele>
        <time>2023-06-17T09:15:58.000Z</time>
      </trkpt>
      <trkpt lat="46.94717" lon="4.64303">
        <ele>355</ele>
        <time>2023-06-17T09:16:03.000Z</time>
      </trkpt>
      <trkpt lat="46.94699" lon="4.64334">
        <ele>355.79998779297</ele>
        <time>2023-06-17T09:16:09.000Z</time>
      </trkpt>
      <trkpt lat="46.94695" lon="4.64339">
        <ele>356</ele>
        <time>2023-06-17T09:16:10.000Z</time>
      </trkpt>
      <trkpt lat="46.94692" lon="4.64344">
        <ele>356.20001220703</ele>
        <time>2023-06-17T09:16:11.000Z</time>
      </trkpt>
      <trkpt lat="46.94676" lon="4.64371">
        <ele>357</ele>
        <time>2023-06-17T09:16:16.000Z</time>
      </trkpt>
      <trkpt lat="46.94661" lon="4.64397">
        <ele>358.20001220703</ele>
        <time>2023-06-17T09:16:21.000Z</time>
      </trkpt>
      <trkpt lat="46.94658" lon="4.64401">
        <ele>358.20001220703</ele>
        <time>2023-06-17T09:16:22.000Z</time>
      </trkpt>
      <trkpt lat="46.94644" lon="4.64427">
        <ele>359.20001220703</ele>
        <time>2023-06-17T09:16:27.000Z</time>
      </trkpt>
      <trkpt lat="46.94632" lon="4.64448">
        <ele>360.39999389648</ele>
        <time>2023-06-17T09:16:31.000Z</time>
      </trkpt>
      <trkpt lat="46.94619" lon="4.64471">
        <ele>361.39999389648</ele>
        <time>2023-06-17T09:16:35.000Z</time>
      </trkpt>
      <trkpt lat="46.9461" lon="4.64488">
        <ele>361.79998779297</ele>
        <time>2023-06-17T09:16:38.000Z</time>
      </trkpt>
      <trkpt lat="46.94602" lon="4.64506">
        <ele>362.20001220703</ele>
        <time>2023-06-17T09:16:41.000Z</time>
      </trkpt>
      <trkpt lat="46.94598" lon="4.64511">
        <ele>362.39999389648</ele>
        <time>2023-06-17T09:16:42.000Z</time>
      </trkpt>
      <trkpt lat="46.94589" lon="4.64527">
        <ele>362.79998779297</ele>
        <time>2023-06-17T09:16:45.000Z</time>
      </trkpt>
      <trkpt lat="46.94579" lon="4.64548">
        <ele>363.60000610352</ele>
        <time>2023-06-17T09:16:49.000Z</time>
      </trkpt>
      <trkpt lat="46.94558" lon="4.64589">
        <ele>364.79998779297</ele>
        <time>2023-06-17T09:16:56.000Z</time>
      </trkpt>
      <trkpt lat="46.94542" lon="4.6462">
        <ele>365.39999389648</ele>
        <time>2023-06-17T09:17:01.000Z</time>
      </trkpt>
      <trkpt lat="46.94535" lon="4.64633">
        <ele>365.79998779297</ele>
        <time>2023-06-17T09:17:03.000Z</time>
      </trkpt>
      <trkpt lat="46.94529" lon="4.64646">
        <ele>366.39999389648</ele>
        <time>2023-06-17T09:17:05.000Z</time>
      </trkpt>
      <trkpt lat="46.9452" lon="4.64664">
        <ele>366.79998779297</ele>
        <time>2023-06-17T09:17:08.000Z</time>
      </trkpt>
      <trkpt lat="46.94517" lon="4.64669">
        <ele>367</ele>
        <time>2023-06-17T09:17:09.000Z</time>
      </trkpt>
      <trkpt lat="46.94509" lon="4.64688">
        <ele>367.39999389648</ele>
        <time>2023-06-17T09:17:12.000Z</time>
      </trkpt>
      <trkpt lat="46.94492" lon="4.64726">
        <ele>368.20001220703</ele>
        <time>2023-06-17T09:17:18.000Z</time>
      </trkpt>
      <trkpt lat="46.94487" lon="4.64739">
        <ele>368.60000610352</ele>
        <time>2023-06-17T09:17:20.000Z</time>
      </trkpt>
      <trkpt lat="46.94475" lon="4.64773">
        <ele>369.39999389648</ele>
        <time>2023-06-17T09:17:25.000Z</time>
      </trkpt>
      <trkpt lat="46.9446" lon="4.64819">
        <ele>370.60000610352</ele>
        <time>2023-06-17T09:17:32.000Z</time>
      </trkpt>
      <trkpt lat="46.94443" lon="4.64863">
        <ele>371.60000610352</ele>
        <time>2023-06-17T09:17:39.000Z</time>
      </trkpt>
      <trkpt lat="46.94434" lon="4.64889">
        <ele>372.20001220703</ele>
        <time>2023-06-17T09:17:43.000Z</time>
      </trkpt>
      <trkpt lat="46.94432" lon="4.64896">
        <ele>372.39999389648</ele>
        <time>2023-06-17T09:17:44.000Z</time>
      </trkpt>
      <trkpt lat="46.94428" lon="4.64909">
        <ele>372.79998779297</ele>
        <time>2023-06-17T09:17:46.000Z</time>
      </trkpt>
      <trkpt lat="46.9442" lon="4.64936">
        <ele>373.39999389648</ele>
        <time>2023-06-17T09:17:50.000Z</time>
      </trkpt>
      <trkpt lat="46.94415" lon="4.64954">
        <ele>374.20001220703</ele>
        <time>2023-06-17T09:17:53.000Z</time>
      </trkpt>
      <trkpt lat="46.94405" lon="4.64987">
        <ele>375.39999389648</ele>
        <time>2023-06-17T09:17:58.000Z</time>
      </trkpt>
      <trkpt lat="46.94394" lon="4.65028">
        <ele>376.39999389648</ele>
        <time>2023-06-17T09:18:04.000Z</time>
      </trkpt>
      <trkpt lat="46.9439" lon="4.65042">
        <ele>376.79998779297</ele>
        <time>2023-06-17T09:18:06.000Z</time>
      </trkpt>
      <trkpt lat="46.94368" lon="4.65112">
        <ele>377.20001220703</ele>
        <time>2023-06-17T09:18:15.000Z</time>
      </trkpt>
      <trkpt lat="46.94345" lon="4.65176">
        <ele>377.20001220703</ele>
        <time>2023-06-17T09:18:23.000Z</time>
      </trkpt>
      <trkpt lat="46.94317" lon="4.65224">
        <ele>377</ele>
        <time>2023-06-17T09:18:30.000Z</time>
      </trkpt>
      <trkpt lat="46.94297" lon="4.65271">
        <ele>377</ele>
        <time>2023-06-17T09:18:36.000Z</time>
      </trkpt>
      <trkpt lat="46.94282" lon="4.65337">
        <ele>376.39999389648</ele>
        <time>2023-06-17T09:18:43.000Z</time>
      </trkpt>
      <trkpt lat="46.94273" lon="4.65421">
        <ele>376</ele>
        <time>2023-06-17T09:18:52.000Z</time>
      </trkpt>
      <trkpt lat="46.94268" lon="4.65503">
        <ele>376</ele>
        <time>2023-06-17T09:19:01.000Z</time>
      </trkpt>
      <trkpt lat="46.94271" lon="4.65561">
        <ele>376.20001220703</ele>
        <time>2023-06-17T09:19:08.000Z</time>
      </trkpt>
      <trkpt lat="46.94278" lon="4.65615">
        <ele>377.20001220703</ele>
        <time>2023-06-17T09:19:15.000Z</time>
      </trkpt>
      <trkpt lat="46.94283" lon="4.65645">
        <ele>377.60000610352</ele>
        <time>2023-06-17T09:19:19.000Z</time>
      </trkpt>
      <trkpt lat="46.9429" lon="4.65688">
        <ele>378.39999389648</ele>
        <time>2023-06-17T09:19:25.000Z</time>
      </trkpt>
      <trkpt lat="46.94291" lon="4.65703">
        <ele>378.60000610352</ele>
        <time>2023-06-17T09:19:27.000Z</time>
      </trkpt>
      <trkpt lat="46.94294" lon="4.65752">
        <ele>379.79998779297</ele>
        <time>2023-06-17T09:19:34.000Z</time>
      </trkpt>
      <trkpt lat="46.94295" lon="4.65759">
        <ele>379.79998779297</ele>
        <time>2023-06-17T09:19:35.000Z</time>
      </trkpt>
      <trkpt lat="46.94293" lon="4.65798">
        <ele>381</ele>
        <time>2023-06-17T09:19:41.000Z</time>
      </trkpt>
      <trkpt lat="46.94293" lon="4.65813">
        <ele>381.60000610352</ele>
        <time>2023-06-17T09:19:43.000Z</time>
      </trkpt>
      <trkpt lat="46.94294" lon="4.65841">
        <ele>382.20001220703</ele>
        <time>2023-06-17T09:19:47.000Z</time>
      </trkpt>
      <trkpt lat="46.94293" lon="4.65882">
        <ele>383</ele>
        <time>2023-06-17T09:19:53.000Z</time>
      </trkpt>
      <trkpt lat="46.94293" lon="4.65896">
        <ele>383.39999389648</ele>
        <time>2023-06-17T09:19:55.000Z</time>
      </trkpt>
      <trkpt lat="46.94295" lon="4.65929">
        <ele>384.39999389648</ele>
        <time>2023-06-17T09:20:00.000Z</time>
      </trkpt>
      <trkpt lat="46.94296" lon="4.65941">
        <ele>384.79998779297</ele>
        <time>2023-06-17T09:20:02.000Z</time>
      </trkpt>
      <trkpt lat="46.94301" lon="4.65981">
        <ele>386</ele>
        <time>2023-06-17T09:20:08.000Z</time>
      </trkpt>
      <trkpt lat="46.94303" lon="4.65993">
        <ele>386.39999389648</ele>
        <time>2023-06-17T09:20:10.000Z</time>
      </trkpt>
      <trkpt lat="46.94306" lon="4.66012">
        <ele>387</ele>
        <time>2023-06-17T09:20:13.000Z</time>
      </trkpt>
      <trkpt lat="46.94311" lon="4.66048">
        <ele>388</ele>
        <time>2023-06-17T09:20:19.000Z</time>
      </trkpt>
      <trkpt lat="46.94313" lon="4.66054">
        <ele>388</ele>
        <time>2023-06-17T09:20:20.000Z</time>
      </trkpt>
      <trkpt lat="46.9432" lon="4.66095">
        <ele>389.20001220703</ele>
        <time>2023-06-17T09:20:27.000Z</time>
      </trkpt>
      <trkpt lat="46.94324" lon="4.66112">
        <ele>389.39999389648</ele>
        <time>2023-06-17T09:20:30.000Z</time>
      </trkpt>
      <trkpt lat="46.9433" lon="4.66135">
        <ele>390.20001220703</ele>
        <time>2023-06-17T09:20:34.000Z</time>
      </trkpt>
      <trkpt lat="46.94341" lon="4.66181">
        <ele>391.39999389648</ele>
        <time>2023-06-17T09:20:42.000Z</time>
      </trkpt>
      <trkpt lat="46.94353" lon="4.66229">
        <ele>392.60000610352</ele>
        <time>2023-06-17T09:20:50.000Z</time>
      </trkpt>
      <trkpt lat="46.94357" lon="4.66249">
        <ele>393</ele>
        <time>2023-06-17T09:20:53.000Z</time>
      </trkpt>
      <trkpt lat="46.94363" lon="4.66275">
        <ele>393.39999389648</ele>
        <time>2023-06-17T09:20:57.000Z</time>
      </trkpt>
      <trkpt lat="46.94368" lon="4.663">
        <ele>393.79998779297</ele>
        <time>2023-06-17T09:21:01.000Z</time>
      </trkpt>
      <trkpt lat="46.9437" lon="4.66306">
        <ele>394</ele>
        <time>2023-06-17T09:21:02.000Z</time>
      </trkpt>
      <trkpt lat="46.94382" lon="4.66361">
        <ele>395</ele>
        <time>2023-06-17T09:21:11.000Z</time>
      </trkpt>
      <trkpt lat="46.94388" lon="4.66385">
        <ele>396</ele>
        <time>2023-06-17T09:21:15.000Z</time>
      </trkpt>
      <trkpt lat="46.94395" lon="4.66413">
        <ele>397</ele>
        <time>2023-06-17T09:21:20.000Z</time>
      </trkpt>
      <trkpt lat="46.94401" lon="4.66439">
        <ele>398.20001220703</ele>
        <time>2023-06-17T09:21:25.000Z</time>
      </trkpt>
      <trkpt lat="46.94404" lon="4.66453">
        <ele>398.79998779297</ele>
        <time>2023-06-17T09:21:28.000Z</time>
      </trkpt>
      <trkpt lat="46.94407" lon="4.66464">
        <ele>399.39999389648</ele>
        <time>2023-06-17T09:21:30.000Z</time>
      </trkpt>
      <trkpt lat="46.94412" lon="4.66489">
        <ele>400.60000610352</ele>
        <time>2023-06-17T09:21:35.000Z</time>
      </trkpt>
      <trkpt lat="46.94414" lon="4.66494">
        <ele>400.79998779297</ele>
        <time>2023-06-17T09:21:36.000Z</time>
      </trkpt>
      <trkpt lat="46.9442" lon="4.66518">
        <ele>401.79998779297</ele>
        <time>2023-06-17T09:21:41.000Z</time>
      </trkpt>
      <trkpt lat="46.94425" lon="4.66543">
        <ele>402.79998779297</ele>
        <time>2023-06-17T09:21:46.000Z</time>
      </trkpt>
      <trkpt lat="46.94434" lon="4.66578">
        <ele>403.79998779297</ele>
        <time>2023-06-17T09:21:53.000Z</time>
      </trkpt>
      <trkpt lat="46.94435" lon="4.66583">
        <ele>404.20001220703</ele>
        <time>2023-06-17T09:21:54.000Z</time>
      </trkpt>
      <trkpt lat="46.94438" lon="4.66599">
        <ele>404.79998779297</ele>
        <time>2023-06-17T09:21:57.000Z</time>
      </trkpt>
      <trkpt lat="46.94444" lon="4.66619">
        <ele>406</ele>
        <time>2023-06-17T09:22:01.000Z</time>
      </trkpt>
      <trkpt lat="46.94453" lon="4.66645">
        <ele>407.20001220703</ele>
        <time>2023-06-17T09:22:07.000Z</time>
      </trkpt>
      <trkpt lat="46.94454" lon="4.6665">
        <ele>407.39999389648</ele>
        <time>2023-06-17T09:22:08.000Z</time>
      </trkpt>
      <trkpt lat="46.9446" lon="4.66669">
        <ele>408.20001220703</ele>
        <time>2023-06-17T09:22:12.000Z</time>
      </trkpt>
      <trkpt lat="46.94466" lon="4.6669">
        <ele>409</ele>
        <time>2023-06-17T09:22:16.000Z</time>
      </trkpt>
      <trkpt lat="46.94468" lon="4.66695">
        <ele>409.20001220703</ele>
        <time>2023-06-17T09:22:17.000Z</time>
      </trkpt>
      <trkpt lat="46.94479" lon="4.66728">
        <ele>410.39999389648</ele>
        <time>2023-06-17T09:22:23.000Z</time>
      </trkpt>
      <trkpt lat="46.94492" lon="4.66763">
        <ele>411.39999389648</ele>
        <time>2023-06-17T09:22:30.000Z</time>
      </trkpt>
      <trkpt lat="46.94497" lon="4.66776">
        <ele>411.79998779297</ele>
        <time>2023-06-17T09:22:33.000Z</time>
      </trkpt>
      <trkpt lat="46.94505" lon="4.66796">
        <ele>412.60000610352</ele>
        <time>2023-06-17T09:22:37.000Z</time>
      </trkpt>
      <trkpt lat="46.94509" lon="4.66809">
        <ele>413.60000610352</ele>
        <time>2023-06-17T09:22:40.000Z</time>
      </trkpt>
      <trkpt lat="46.94512" lon="4.66818">
        <ele>413.79998779297</ele>
        <time>2023-06-17T09:22:42.000Z</time>
      </trkpt>
      <trkpt lat="46.9452" lon="4.66836">
        <ele>414.60000610352</ele>
        <time>2023-06-17T09:22:46.000Z</time>
      </trkpt>
      <trkpt lat="46.94523" lon="4.66845">
        <ele>415</ele>
        <time>2023-06-17T09:22:48.000Z</time>
      </trkpt>
      <trkpt lat="46.94535" lon="4.66874">
        <ele>416.20001220703</ele>
        <time>2023-06-17T09:22:55.000Z</time>
      </trkpt>
      <trkpt lat="46.94541" lon="4.66886">
        <ele>417</ele>
        <time>2023-06-17T09:22:58.000Z</time>
      </trkpt>
      <trkpt lat="46.94543" lon="4.66891">
        <ele>417.20001220703</ele>
        <time>2023-06-17T09:22:59.000Z</time>
      </trkpt>
      <trkpt lat="46.94557" lon="4.66915">
        <ele>418.39999389648</ele>
        <time>2023-06-17T09:23:05.000Z</time>
      </trkpt>
      <trkpt lat="46.94572" lon="4.66942">
        <ele>419.60000610352</ele>
        <time>2023-06-17T09:23:12.000Z</time>
      </trkpt>
      <trkpt lat="46.94582" lon="4.66957">
        <ele>420.39999389648</ele>
        <time>2023-06-17T09:23:16.000Z</time>
      </trkpt>
      <trkpt lat="46.94587" lon="4.66965">
        <ele>420.79998779297</ele>
        <time>2023-06-17T09:23:18.000Z</time>
      </trkpt>
      <trkpt lat="46.946" lon="4.6698">
        <ele>421.79998779297</ele>
        <time>2023-06-17T09:23:23.000Z</time>
      </trkpt>
      <trkpt lat="46.94605" lon="4.66986">
        <ele>422.20001220703</ele>
        <time>2023-06-17T09:23:25.000Z</time>
      </trkpt>
      <trkpt lat="46.94612" lon="4.66995">
        <ele>423</ele>
        <time>2023-06-17T09:23:28.000Z</time>
      </trkpt>
      <trkpt lat="46.94625" lon="4.67011">
        <ele>424</ele>
        <time>2023-06-17T09:23:33.000Z</time>
      </trkpt>
      <trkpt lat="46.94628" lon="4.67015">
        <ele>424.20001220703</ele>
        <time>2023-06-17T09:23:34.000Z</time>
      </trkpt>
      <trkpt lat="46.9464" lon="4.67031">
        <ele>425.20001220703</ele>
        <time>2023-06-17T09:23:39.000Z</time>
      </trkpt>
      <trkpt lat="46.94648" lon="4.67041">
        <ele>425.79998779297</ele>
        <time>2023-06-17T09:23:42.000Z</time>
      </trkpt>
      <trkpt lat="46.94654" lon="4.67047">
        <ele>426.20001220703</ele>
        <time>2023-06-17T09:23:44.000Z</time>
      </trkpt>
      <trkpt lat="46.94668" lon="4.67062">
        <ele>427.39999389648</ele>
        <time>2023-06-17T09:23:49.000Z</time>
      </trkpt>
      <trkpt lat="46.94673" lon="4.67068">
        <ele>427.79998779297</ele>
        <time>2023-06-17T09:23:51.000Z</time>
      </trkpt>
      <trkpt lat="46.94676" lon="4.67071">
        <ele>427.79998779297</ele>
        <time>2023-06-17T09:23:52.000Z</time>
      </trkpt>
      <trkpt lat="46.94684" lon="4.67079">
        <ele>428.60000610352</ele>
        <time>2023-06-17T09:23:55.000Z</time>
      </trkpt>
      <trkpt lat="46.9469" lon="4.67085">
        <ele>429</ele>
        <time>2023-06-17T09:23:57.000Z</time>
      </trkpt>
      <trkpt lat="46.94705" lon="4.67099">
        <ele>429.79998779297</ele>
        <time>2023-06-17T09:24:02.000Z</time>
      </trkpt>
      <trkpt lat="46.94714" lon="4.67109">
        <ele>430.20001220703</ele>
        <time>2023-06-17T09:24:05.000Z</time>
      </trkpt>
      <trkpt lat="46.9473" lon="4.67121">
        <ele>430.79998779297</ele>
        <time>2023-06-17T09:24:09.000Z</time>
      </trkpt>
      <trkpt lat="46.94741" lon="4.6713">
        <ele>431.39999389648</ele>
        <time>2023-06-17T09:24:12.000Z</time>
      </trkpt>
      <trkpt lat="46.94757" lon="4.67142">
        <ele>431.79998779297</ele>
        <time>2023-06-17T09:24:16.000Z</time>
      </trkpt>
      <trkpt lat="46.94773" lon="4.67155">
        <ele>432.39999389648</ele>
        <time>2023-06-17T09:24:21.000Z</time>
      </trkpt>
      <trkpt lat="46.94782" lon="4.67164">
        <ele>433</ele>
        <time>2023-06-17T09:24:24.000Z</time>
      </trkpt>
      <trkpt lat="46.94791" lon="4.67177">
        <ele>433.60000610352</ele>
        <time>2023-06-17T09:24:29.000Z</time>
      </trkpt>
      <trkpt lat="46.94792" lon="4.6718">
        <ele>434</ele>
        <time>2023-06-17T09:24:31.000Z</time>
      </trkpt>
      <trkpt lat="46.94792" lon="4.67182">
        <ele>434.39999389648</ele>
        <time>2023-06-17T09:24:34.000Z</time>
      </trkpt>
      <trkpt lat="46.94793" lon="4.67194">
        <ele>434.60000610352</ele>
        <time>2023-06-17T09:24:38.000Z</time>
      </trkpt>
      <trkpt lat="46.94795" lon="4.67202">
        <ele>434.60000610352</ele>
        <time>2023-06-17T09:24:40.000Z</time>
      </trkpt>
      <trkpt lat="46.94801" lon="4.67211">
        <ele>434.79998779297</ele>
        <time>2023-06-17T09:24:42.000Z</time>
      </trkpt>
      <trkpt lat="46.94808" lon="4.67213">
        <ele>434.79998779297</ele>
        <time>2023-06-17T09:24:44.000Z</time>
      </trkpt>
      <trkpt lat="46.94813" lon="4.67213">
        <ele>434.60000610352</ele>
        <time>2023-06-17T09:24:45.000Z</time>
      </trkpt>
      <trkpt lat="46.94818" lon="4.67211">
        <ele>434.39999389648</ele>
        <time>2023-06-17T09:24:46.000Z</time>
      </trkpt>
      <trkpt lat="46.94828" lon="4.67208">
        <ele>434.39999389648</ele>
        <time>2023-06-17T09:24:48.000Z</time>
      </trkpt>
      <trkpt lat="46.94834" lon="4.67208">
        <ele>434.39999389648</ele>
        <time>2023-06-17T09:24:49.000Z</time>
      </trkpt>
      <trkpt lat="46.94866" lon="4.67211">
        <ele>434.20001220703</ele>
        <time>2023-06-17T09:24:54.000Z</time>
      </trkpt>
      <trkpt lat="46.94911" lon="4.67206">
        <ele>433</ele>
        <time>2023-06-17T09:25:00.000Z</time>
      </trkpt>
      <trkpt lat="46.94927" lon="4.67205">
        <ele>432.39999389648</ele>
        <time>2023-06-17T09:25:02.000Z</time>
      </trkpt>
      <trkpt lat="46.94961" lon="4.6721">
        <ele>431.20001220703</ele>
        <time>2023-06-17T09:25:06.000Z</time>
      </trkpt>
      <trkpt lat="46.94988" lon="4.67219">
        <ele>430</ele>
        <time>2023-06-17T09:25:09.000Z</time>
      </trkpt>
      <trkpt lat="46.95016" lon="4.67231">
        <ele>429</ele>
        <time>2023-06-17T09:25:12.000Z</time>
      </trkpt>
      <trkpt lat="46.95035" lon="4.6724">
        <ele>428</ele>
        <time>2023-06-17T09:25:14.000Z</time>
      </trkpt>
      <trkpt lat="46.9506" lon="4.67255">
        <ele>426.79998779297</ele>
        <time>2023-06-17T09:25:17.000Z</time>
      </trkpt>
      <trkpt lat="46.95085" lon="4.67271">
        <ele>425.79998779297</ele>
        <time>2023-06-17T09:25:20.000Z</time>
      </trkpt>
      <trkpt lat="46.95124" lon="4.67292">
        <ele>424.79998779297</ele>
        <time>2023-06-17T09:25:25.000Z</time>
      </trkpt>
      <trkpt lat="46.95131" lon="4.67296">
        <ele>424.60000610352</ele>
        <time>2023-06-17T09:25:26.000Z</time>
      </trkpt>
      <trkpt lat="46.95143" lon="4.67301">
        <ele>423.60000610352</ele>
        <time>2023-06-17T09:25:28.000Z</time>
      </trkpt>
      <trkpt lat="46.95157" lon="4.67308">
        <ele>421.79998779297</ele>
        <time>2023-06-17T09:25:30.000Z</time>
      </trkpt>
      <trkpt lat="46.95169" lon="4.67313">
        <ele>420.60000610352</ele>
        <time>2023-06-17T09:25:32.000Z</time>
      </trkpt>
      <trkpt lat="46.95178" lon="4.67318">
        <ele>419.20001220703</ele>
        <time>2023-06-17T09:25:34.000Z</time>
      </trkpt>
      <trkpt lat="46.95183" lon="4.6732">
        <ele>417.79998779297</ele>
        <time>2023-06-17T09:25:36.000Z</time>
      </trkpt>
      <trkpt lat="46.95185" lon="4.67321">
        <ele>416.60000610352</ele>
        <time>2023-06-17T09:25:38.000Z</time>
      </trkpt>
      <trkpt lat="46.95185" lon="4.67321">
        <ele>415.60000610352</ele>
        <time>2023-06-17T09:25:40.000Z</time>
      </trkpt>
      <trkpt lat="46.95191" lon="4.67323">
        <ele>413.39999389648</ele>
        <time>2023-06-17T09:26:35.000Z</time>
      </trkpt>
      <trkpt lat="46.95193" lon="4.67324">
        <ele>413.39999389648</ele>
        <time>2023-06-17T09:26:36.000Z</time>
      </trkpt>
      <trkpt lat="46.95206" lon="4.67329">
        <ele>413.39999389648</ele>
        <time>2023-06-17T09:26:39.000Z</time>
      </trkpt>
      <trkpt lat="46.95241" lon="4.67344">
        <ele>412.79998779297</ele>
        <time>2023-06-17T09:26:45.000Z</time>
      </trkpt>
      <trkpt lat="46.95254" lon="4.67349">
        <ele>412.39999389648</ele>
        <time>2023-06-17T09:26:47.000Z</time>
      </trkpt>
      <trkpt lat="46.95284" lon="4.67363">
        <ele>411.20001220703</ele>
        <time>2023-06-17T09:26:52.000Z</time>
      </trkpt>
      <trkpt lat="46.95335" lon="4.67387">
        <ele>410.20001220703</ele>
        <time>2023-06-17T09:27:00.000Z</time>
      </trkpt>
      <trkpt lat="46.95348" lon="4.67393">
        <ele>409.60000610352</ele>
        <time>2023-06-17T09:27:02.000Z</time>
      </trkpt>
      <trkpt lat="46.95368" lon="4.67403">
        <ele>409</ele>
        <time>2023-06-17T09:27:05.000Z</time>
      </trkpt>
      <trkpt lat="46.95409" lon="4.67426">
        <ele>408</ele>
        <time>2023-06-17T09:27:11.000Z</time>
      </trkpt>
      <trkpt lat="46.95416" lon="4.67431">
        <ele>408</ele>
        <time>2023-06-17T09:27:12.000Z</time>
      </trkpt>
      <trkpt lat="46.95443" lon="4.67453">
        <ele>406.60000610352</ele>
        <time>2023-06-17T09:27:16.000Z</time>
      </trkpt>
      <trkpt lat="46.9545" lon="4.67459">
        <ele>406.39999389648</ele>
        <time>2023-06-17T09:27:17.000Z</time>
      </trkpt>
      <trkpt lat="46.9547" lon="4.67478">
        <ele>405.39999389648</ele>
        <time>2023-06-17T09:27:20.000Z</time>
      </trkpt>
      <trkpt lat="46.95494" lon="4.675">
        <ele>404.20001220703</ele>
        <time>2023-06-17T09:27:24.000Z</time>
      </trkpt>
      <trkpt lat="46.95499" lon="4.67504">
        <ele>404</ele>
        <time>2023-06-17T09:27:25.000Z</time>
      </trkpt>
      <trkpt lat="46.95537" lon="4.6754">
        <ele>403.39999389648</ele>
        <time>2023-06-17T09:27:32.000Z</time>
      </trkpt>
      <trkpt lat="46.95553" lon="4.67555">
        <ele>403.39999389648</ele>
        <time>2023-06-17T09:27:35.000Z</time>
      </trkpt>
      <trkpt lat="46.95569" lon="4.67571">
        <ele>403.20001220703</ele>
        <time>2023-06-17T09:27:38.000Z</time>
      </trkpt>
      <trkpt lat="46.95574" lon="4.67577">
        <ele>403</ele>
        <time>2023-06-17T09:27:39.000Z</time>
      </trkpt>
      <trkpt lat="46.95582" lon="4.67588">
        <ele>402.79998779297</ele>
        <time>2023-06-17T09:27:41.000Z</time>
      </trkpt>
      <trkpt lat="46.95604" lon="4.67613">
        <ele>402.60000610352</ele>
        <time>2023-06-17T09:27:45.000Z</time>
      </trkpt>
      <trkpt lat="46.95635" lon="4.6765">
        <ele>402.20001220703</ele>
        <time>2023-06-17T09:27:51.000Z</time>
      </trkpt>
      <trkpt lat="46.95645" lon="4.67662">
        <ele>401.79998779297</ele>
        <time>2023-06-17T09:27:53.000Z</time>
      </trkpt>
      <trkpt lat="46.9566" lon="4.67673">
        <ele>401.20001220703</ele>
        <time>2023-06-17T09:27:56.000Z</time>
      </trkpt>
      <trkpt lat="46.95664" lon="4.67676">
        <ele>401</ele>
        <time>2023-06-17T09:27:57.000Z</time>
      </trkpt>
      <trkpt lat="46.95684" lon="4.67691">
        <ele>400.79998779297</ele>
        <time>2023-06-17T09:28:02.000Z</time>
      </trkpt>
      <trkpt lat="46.95696" lon="4.67702">
        <ele>400.60000610352</ele>
        <time>2023-06-17T09:28:05.000Z</time>
      </trkpt>
      <trkpt lat="46.95706" lon="4.67708">
        <ele>400.39999389648</ele>
        <time>2023-06-17T09:28:07.000Z</time>
      </trkpt>
      <trkpt lat="46.95711" lon="4.67712">
        <ele>400.39999389648</ele>
        <time>2023-06-17T09:28:08.000Z</time>
      </trkpt>
      <trkpt lat="46.95732" lon="4.67732">
        <ele>399.79998779297</ele>
        <time>2023-06-17T09:28:12.000Z</time>
      </trkpt>
      <trkpt lat="46.95742" lon="4.67742">
        <ele>399.60000610352</ele>
        <time>2023-06-17T09:28:14.000Z</time>
      </trkpt>
      <trkpt lat="46.95758" lon="4.67764">
        <ele>399.39999389648</ele>
        <time>2023-06-17T09:28:18.000Z</time>
      </trkpt>
      <trkpt lat="46.95765" lon="4.67774">
        <ele>399</ele>
        <time>2023-06-17T09:28:20.000Z</time>
      </trkpt>
      <trkpt lat="46.95782" lon="4.67797">
        <ele>399.60000610352</ele>
        <time>2023-06-17T09:28:25.000Z</time>
      </trkpt>
      <trkpt lat="46.95784" lon="4.67802">
        <ele>399.60000610352</ele>
        <time>2023-06-17T09:28:26.000Z</time>
      </trkpt>
      <trkpt lat="46.95788" lon="4.67812">
        <ele>400</ele>
        <time>2023-06-17T09:28:28.000Z</time>
      </trkpt>
      <trkpt lat="46.95791" lon="4.67817">
        <ele>400.20001220703</ele>
        <time>2023-06-17T09:28:29.000Z</time>
      </trkpt>
      <trkpt lat="46.95793" lon="4.67822">
        <ele>400.20001220703</ele>
        <time>2023-06-17T09:28:30.000Z</time>
      </trkpt>
      <trkpt lat="46.95797" lon="4.67839">
        <ele>400.79998779297</ele>
        <time>2023-06-17T09:28:33.000Z</time>
      </trkpt>
      <trkpt lat="46.95803" lon="4.67857">
        <ele>401.20001220703</ele>
        <time>2023-06-17T09:28:36.000Z</time>
      </trkpt>
      <trkpt lat="46.95813" lon="4.6788">
        <ele>401.60000610352</ele>
        <time>2023-06-17T09:28:40.000Z</time>
      </trkpt>
      <trkpt lat="46.95824" lon="4.679">
        <ele>401.60000610352</ele>
        <time>2023-06-17T09:28:44.000Z</time>
      </trkpt>
      <trkpt lat="46.9583" lon="4.67908">
        <ele>401.39999389648</ele>
        <time>2023-06-17T09:28:46.000Z</time>
      </trkpt>
      <trkpt lat="46.95844" lon="4.67934">
        <ele>400.79998779297</ele>
        <time>2023-06-17T09:28:53.000Z</time>
      </trkpt>
      <trkpt lat="46.95845" lon="4.67948">
        <ele>400.20001220703</ele>
        <time>2023-06-17T09:28:58.000Z</time>
      </trkpt>
      <trkpt lat="46.95841" lon="4.67955">
        <ele>399.20001220703</ele>
        <time>2023-06-17T09:29:03.000Z</time>
      </trkpt>
      <trkpt lat="46.95838" lon="4.67956">
        <ele>399.20001220703</ele>
        <time>2023-06-17T09:29:04.000Z</time>
      </trkpt>
      <trkpt lat="46.9583" lon="4.67959">
        <ele>399</ele>
        <time>2023-06-17T09:29:06.000Z</time>
      </trkpt>
      <trkpt lat="46.95826" lon="4.6796">
        <ele>398.79998779297</ele>
        <time>2023-06-17T09:29:07.000Z</time>
      </trkpt>
      <trkpt lat="46.95814" lon="4.67963">
        <ele>398.39999389648</ele>
        <time>2023-06-17T09:29:10.000Z</time>
      </trkpt>
      <trkpt lat="46.95805" lon="4.67965">
        <ele>397.79998779297</ele>
        <time>2023-06-17T09:29:12.000Z</time>
      </trkpt>
      <trkpt lat="46.95797" lon="4.67965">
        <ele>397.20001220703</ele>
        <time>2023-06-17T09:29:14.000Z</time>
      </trkpt>
      <trkpt lat="46.95793" lon="4.67965">
        <ele>396.20001220703</ele>
        <time>2023-06-17T09:29:15.000Z</time>
      </trkpt>
      <trkpt lat="46.95789" lon="4.67966">
        <ele>395.79998779297</ele>
        <time>2023-06-17T09:29:16.000Z</time>
      </trkpt>
      <trkpt lat="46.95781" lon="4.67967">
        <ele>395.20001220703</ele>
        <time>2023-06-17T09:29:18.000Z</time>
      </trkpt>
      <trkpt lat="46.95773" lon="4.6797">
        <ele>393.79998779297</ele>
        <time>2023-06-17T09:29:20.000Z</time>
      </trkpt>
      <trkpt lat="46.95759" lon="4.67974">
        <ele>392.39999389648</ele>
        <time>2023-06-17T09:29:23.000Z</time>
      </trkpt>
      <trkpt lat="46.9575" lon="4.67973">
        <ele>391.39999389648</ele>
        <time>2023-06-17T09:29:25.000Z</time>
      </trkpt>
      <trkpt lat="46.95747" lon="4.67971">
        <ele>391</ele>
        <time>2023-06-17T09:29:26.000Z</time>
      </trkpt>
      <trkpt lat="46.95745" lon="4.6797">
        <ele>390.60000610352</ele>
        <time>2023-06-17T09:29:27.000Z</time>
      </trkpt>
      <trkpt lat="46.95744" lon="4.67968">
        <ele>390.20001220703</ele>
        <time>2023-06-17T09:29:28.000Z</time>
      </trkpt>
      <trkpt lat="46.95744" lon="4.67968">
        <ele>389.79998779297</ele>
        <time>2023-06-17T09:29:29.000Z</time>
      </trkpt>
      <trkpt lat="46.95744" lon="4.67968">
        <ele>389</ele>
        <time>2023-06-17T09:29:31.000Z</time>
      </trkpt>
      <trkpt lat="46.95742" lon="4.67969">
        <ele>387.20001220703</ele>
        <time>2023-06-17T09:30:26.000Z</time>
      </trkpt>
      <trkpt lat="46.9574" lon="4.6797">
        <ele>387.20001220703</ele>
        <time>2023-06-17T09:30:27.000Z</time>
      </trkpt>
      <trkpt lat="46.95727" lon="4.67973">
        <ele>387.20001220703</ele>
        <time>2023-06-17T09:30:32.000Z</time>
      </trkpt>
      <trkpt lat="46.95708" lon="4.67979">
        <ele>388</ele>
        <time>2023-06-17T09:30:40.000Z</time>
      </trkpt>
      <trkpt lat="46.95703" lon="4.6798">
        <ele>388.39999389648</ele>
        <time>2023-06-17T09:30:42.000Z</time>
      </trkpt>
      <trkpt lat="46.95693" lon="4.67982">
        <ele>389.60000610352</ele>
        <time>2023-06-17T09:30:47.000Z</time>
      </trkpt>
      <trkpt lat="46.95691" lon="4.67982">
        <ele>389.60000610352</ele>
        <time>2023-06-17T09:30:48.000Z</time>
      </trkpt>
      <trkpt lat="46.95685" lon="4.67984">
        <ele>390.79998779297</ele>
        <time>2023-06-17T09:30:52.000Z</time>
      </trkpt>
      <trkpt lat="46.95679" lon="4.67985">
        <ele>392</ele>
        <time>2023-06-17T09:30:56.000Z</time>
      </trkpt>
      <trkpt lat="46.95673" lon="4.67985">
        <ele>393.39999389648</ele>
        <time>2023-06-17T09:31:00.000Z</time>
      </trkpt>
      <trkpt lat="46.95672" lon="4.67985">
        <ele>393.79998779297</ele>
        <time>2023-06-17T09:31:01.000Z</time>
      </trkpt>
      <trkpt lat="46.95669" lon="4.67986">
        <ele>394.20001220703</ele>
        <time>2023-06-17T09:31:03.000Z</time>
      </trkpt>
      <trkpt lat="46.95667" lon="4.67985">
        <ele>394.60000610352</ele>
        <time>2023-06-17T09:31:04.000Z</time>
      </trkpt>
      <trkpt lat="46.9566" lon="4.67986">
        <ele>396</ele>
        <time>2023-06-17T09:31:08.000Z</time>
      </trkpt>
      <trkpt lat="46.95652" lon="4.67986">
        <ele>397.60000610352</ele>
        <time>2023-06-17T09:31:12.000Z</time>
      </trkpt>
      <trkpt lat="46.95645" lon="4.67987">
        <ele>398.39999389648</ele>
        <time>2023-06-17T09:31:15.000Z</time>
      </trkpt>
      <trkpt lat="46.95644" lon="4.67988">
        <ele>398.60000610352</ele>
        <time>2023-06-17T09:31:16.000Z</time>
      </trkpt>
      <trkpt lat="46.9564" lon="4.67988">
        <ele>400</ele>
        <time>2023-06-17T09:31:20.000Z</time>
      </trkpt>
      <trkpt lat="46.95635" lon="4.67987">
        <ele>401.20001220703</ele>
        <time>2023-06-17T09:31:23.000Z</time>
      </trkpt>
      <trkpt lat="46.95629" lon="4.67985">
        <ele>401.60000610352</ele>
        <time>2023-06-17T09:31:25.000Z</time>
      </trkpt>
      <trkpt lat="46.95624" lon="4.67984">
        <ele>402.39999389648</ele>
        <time>2023-06-17T09:31:27.000Z</time>
      </trkpt>
      <trkpt lat="46.95616" lon="4.67983">
        <ele>403.60000610352</ele>
        <time>2023-06-17T09:31:31.000Z</time>
      </trkpt>
      <trkpt lat="46.9561" lon="4.67981">
        <ele>404.39999389648</ele>
        <time>2023-06-17T09:31:33.000Z</time>
      </trkpt>
      <trkpt lat="46.95608" lon="4.6798">
        <ele>404.60000610352</ele>
        <time>2023-06-17T09:31:34.000Z</time>
      </trkpt>
      <trkpt lat="46.95602" lon="4.67978">
        <ele>405.79998779297</ele>
        <time>2023-06-17T09:31:38.000Z</time>
      </trkpt>
      <trkpt lat="46.95597" lon="4.67974">
        <ele>406.79998779297</ele>
        <time>2023-06-17T09:31:41.000Z</time>
      </trkpt>
      <trkpt lat="46.95595" lon="4.67973">
        <ele>407.20001220703</ele>
        <time>2023-06-17T09:31:42.000Z</time>
      </trkpt>
      <trkpt lat="46.95591" lon="4.67968">
        <ele>408.20001220703</ele>
        <time>2023-06-17T09:31:44.000Z</time>
      </trkpt>
      <trkpt lat="46.95585" lon="4.67963">
        <ele>409.39999389648</ele>
        <time>2023-06-17T09:31:47.000Z</time>
      </trkpt>
      <trkpt lat="46.95581" lon="4.6796">
        <ele>410.20001220703</ele>
        <time>2023-06-17T09:31:49.000Z</time>
      </trkpt>
      <trkpt lat="46.9558" lon="4.6796">
        <ele>410.79998779297</ele>
        <time>2023-06-17T09:31:50.000Z</time>
      </trkpt>
      <trkpt lat="46.95577" lon="4.67964">
        <ele>411.39999389648</ele>
        <time>2023-06-17T09:31:52.000Z</time>
      </trkpt>
      <trkpt lat="46.95576" lon="4.67966">
        <ele>411.79998779297</ele>
        <time>2023-06-17T09:31:53.000Z</time>
      </trkpt>
      <trkpt lat="46.95576" lon="4.67984">
        <ele>412.60000610352</ele>
        <time>2023-06-17T09:31:58.000Z</time>
      </trkpt>
      <trkpt lat="46.95575" lon="4.67996">
        <ele>412.79998779297</ele>
        <time>2023-06-17T09:32:01.000Z</time>
      </trkpt>
      <trkpt lat="46.95575" lon="4.68005">
        <ele>413.20001220703</ele>
        <time>2023-06-17T09:32:03.000Z</time>
      </trkpt>
      <trkpt lat="46.95574" lon="4.68024">
        <ele>413.79998779297</ele>
        <time>2023-06-17T09:32:08.000Z</time>
      </trkpt>
      <trkpt lat="46.95573" lon="4.68036">
        <ele>414.60000610352</ele>
        <time>2023-06-17T09:32:11.000Z</time>
      </trkpt>
      <trkpt lat="46.95572" lon="4.68048">
        <ele>415</ele>
        <time>2023-06-17T09:32:14.000Z</time>
      </trkpt>
      <trkpt lat="46.95572" lon="4.68064">
        <ele>415.60000610352</ele>
        <time>2023-06-17T09:32:18.000Z</time>
      </trkpt>
      <trkpt lat="46.95574" lon="4.6808">
        <ele>416</ele>
        <time>2023-06-17T09:32:22.000Z</time>
      </trkpt>
      <trkpt lat="46.95576" lon="4.6809">
        <ele>416.20001220703</ele>
        <time>2023-06-17T09:32:24.000Z</time>
      </trkpt>
      <trkpt lat="46.95583" lon="4.68111">
        <ele>417</ele>
        <time>2023-06-17T09:32:29.000Z</time>
      </trkpt>
      <trkpt lat="46.95587" lon="4.68117">
        <ele>417</ele>
        <time>2023-06-17T09:32:31.000Z</time>
      </trkpt>
      <trkpt lat="46.95596" lon="4.68132">
        <ele>418</ele>
        <time>2023-06-17T09:32:35.000Z</time>
      </trkpt>
      <trkpt lat="46.95605" lon="4.68143">
        <ele>418.20001220703</ele>
        <time>2023-06-17T09:32:38.000Z</time>
      </trkpt>
      <trkpt lat="46.95618" lon="4.68166">
        <ele>419.20001220703</ele>
        <time>2023-06-17T09:32:43.000Z</time>
      </trkpt>
      <trkpt lat="46.95626" lon="4.68181">
        <ele>419.39999389648</ele>
        <time>2023-06-17T09:32:46.000Z</time>
      </trkpt>
      <trkpt lat="46.95638" lon="4.68208">
        <ele>420.20001220703</ele>
        <time>2023-06-17T09:32:51.000Z</time>
      </trkpt>
      <trkpt lat="46.95645" lon="4.68225">
        <ele>420.60000610352</ele>
        <time>2023-06-17T09:32:54.000Z</time>
      </trkpt>
      <trkpt lat="46.95653" lon="4.68248">
        <ele>421.20001220703</ele>
        <time>2023-06-17T09:32:58.000Z</time>
      </trkpt>
      <trkpt lat="46.95665" lon="4.68289">
        <ele>422.20001220703</ele>
        <time>2023-06-17T09:33:05.000Z</time>
      </trkpt>
      <trkpt lat="46.95667" lon="4.68301">
        <ele>422.60000610352</ele>
        <time>2023-06-17T09:33:07.000Z</time>
      </trkpt>
      <trkpt lat="46.95669" lon="4.68337">
        <ele>423.20001220703</ele>
        <time>2023-06-17T09:33:13.000Z</time>
      </trkpt>
      <trkpt lat="46.95669" lon="4.68349">
        <ele>423.60000610352</ele>
        <time>2023-06-17T09:33:15.000Z</time>
      </trkpt>
      <trkpt lat="46.95668" lon="4.68355">
        <ele>423.60000610352</ele>
        <time>2023-06-17T09:33:16.000Z</time>
      </trkpt>
      <trkpt lat="46.95667" lon="4.68363">
        <ele>423.79998779297</ele>
        <time>2023-06-17T09:33:17.000Z</time>
      </trkpt>
      <trkpt lat="46.95665" lon="4.68374">
        <ele>424.20001220703</ele>
        <time>2023-06-17T09:33:19.000Z</time>
      </trkpt>
      <trkpt lat="46.95658" lon="4.684">
        <ele>425</ele>
        <time>2023-06-17T09:33:23.000Z</time>
      </trkpt>
      <trkpt lat="46.9565" lon="4.68427">
        <ele>425.79998779297</ele>
        <time>2023-06-17T09:33:28.000Z</time>
      </trkpt>
      <trkpt lat="46.95643" lon="4.68447">
        <ele>426.20001220703</ele>
        <time>2023-06-17T09:33:32.000Z</time>
      </trkpt>
      <trkpt lat="46.95633" lon="4.68467">
        <ele>426.79998779297</ele>
        <time>2023-06-17T09:33:36.000Z</time>
      </trkpt>
      <trkpt lat="46.95631" lon="4.68473">
        <ele>427.20001220703</ele>
        <time>2023-06-17T09:33:37.000Z</time>
      </trkpt>
      <trkpt lat="46.95628" lon="4.68477">
        <ele>427.39999389648</ele>
        <time>2023-06-17T09:33:38.000Z</time>
      </trkpt>
      <trkpt lat="46.95615" lon="4.68499">
        <ele>428.20001220703</ele>
        <time>2023-06-17T09:33:43.000Z</time>
      </trkpt>
      <trkpt lat="46.95613" lon="4.68502">
        <ele>428.79998779297</ele>
        <time>2023-06-17T09:33:44.000Z</time>
      </trkpt>
      <trkpt lat="46.95596" lon="4.68524">
        <ele>429.79998779297</ele>
        <time>2023-06-17T09:33:50.000Z</time>
      </trkpt>
      <trkpt lat="46.95593" lon="4.68527">
        <ele>430.20001220703</ele>
        <time>2023-06-17T09:33:51.000Z</time>
      </trkpt>
      <trkpt lat="46.95581" lon="4.68541">
        <ele>431.20001220703</ele>
        <time>2023-06-17T09:33:55.000Z</time>
      </trkpt>
      <trkpt lat="46.9557" lon="4.68554">
        <ele>432</ele>
        <time>2023-06-17T09:33:59.000Z</time>
      </trkpt>
      <trkpt lat="46.95567" lon="4.68557">
        <ele>432.39999389648</ele>
        <time>2023-06-17T09:34:00.000Z</time>
      </trkpt>
      <trkpt lat="46.9555" lon="4.68575">
        <ele>433.39999389648</ele>
        <time>2023-06-17T09:34:06.000Z</time>
      </trkpt>
      <trkpt lat="46.95542" lon="4.68583">
        <ele>433.79998779297</ele>
        <time>2023-06-17T09:34:09.000Z</time>
      </trkpt>
      <trkpt lat="46.95528" lon="4.686">
        <ele>434.39999389648</ele>
        <time>2023-06-17T09:34:14.000Z</time>
      </trkpt>
      <trkpt lat="46.95521" lon="4.68607">
        <ele>434.79998779297</ele>
        <time>2023-06-17T09:34:16.000Z</time>
      </trkpt>
      <trkpt lat="46.9551" lon="4.68617">
        <ele>435.60000610352</ele>
        <time>2023-06-17T09:34:20.000Z</time>
      </trkpt>
      <trkpt lat="46.95494" lon="4.68628">
        <ele>436.20001220703</ele>
        <time>2023-06-17T09:34:25.000Z</time>
      </trkpt>
      <trkpt lat="46.95481" lon="4.68632">
        <ele>436.79998779297</ele>
        <time>2023-06-17T09:34:29.000Z</time>
      </trkpt>
      <trkpt lat="46.95474" lon="4.68632">
        <ele>437.20001220703</ele>
        <time>2023-06-17T09:34:31.000Z</time>
      </trkpt>
      <trkpt lat="46.95468" lon="4.68632">
        <ele>437.79998779297</ele>
        <time>2023-06-17T09:34:33.000Z</time>
      </trkpt>
      <trkpt lat="46.95454" lon="4.68626">
        <ele>439</ele>
        <time>2023-06-17T09:34:37.000Z</time>
      </trkpt>
      <trkpt lat="46.95449" lon="4.68622">
        <ele>440</ele>
        <time>2023-06-17T09:34:39.000Z</time>
      </trkpt>
      <trkpt lat="46.95438" lon="4.68621">
        <ele>440.60000610352</ele>
        <time>2023-06-17T09:34:42.000Z</time>
      </trkpt>
      <trkpt lat="46.95436" lon="4.68622">
        <ele>441</ele>
        <time>2023-06-17T09:34:43.000Z</time>
      </trkpt>
      <trkpt lat="46.95431" lon="4.68626">
        <ele>441.39999389648</ele>
        <time>2023-06-17T09:34:45.000Z</time>
      </trkpt>
      <trkpt lat="46.95429" lon="4.68625">
        <ele>441.60000610352</ele>
        <time>2023-06-17T09:34:46.000Z</time>
      </trkpt>
      <trkpt lat="46.95427" lon="4.68623">
        <ele>441.79998779297</ele>
        <time>2023-06-17T09:34:47.000Z</time>
      </trkpt>
      <trkpt lat="46.95426" lon="4.6862">
        <ele>442</ele>
        <time>2023-06-17T09:34:48.000Z</time>
      </trkpt>
      <trkpt lat="46.95423" lon="4.68614">
        <ele>442.39999389648</ele>
        <time>2023-06-17T09:34:50.000Z</time>
      </trkpt>
      <trkpt lat="46.95413" lon="4.68609">
        <ele>442.60000610352</ele>
        <time>2023-06-17T09:34:54.000Z</time>
      </trkpt>
      <trkpt lat="46.95394" lon="4.68617">
        <ele>443</ele>
        <time>2023-06-17T09:34:59.000Z</time>
      </trkpt>
      <trkpt lat="46.95365" lon="4.68636">
        <ele>443.20001220703</ele>
        <time>2023-06-17T09:35:05.000Z</time>
      </trkpt>
      <trkpt lat="46.95351" lon="4.68651">
        <ele>443.20001220703</ele>
        <time>2023-06-17T09:35:08.000Z</time>
      </trkpt>
      <trkpt lat="46.95344" lon="4.68665">
        <ele>442.39999389648</ele>
        <time>2023-06-17T09:35:10.000Z</time>
      </trkpt>
      <trkpt lat="46.95343" lon="4.68673">
        <ele>442</ele>
        <time>2023-06-17T09:35:11.000Z</time>
      </trkpt>
      <trkpt lat="46.95343" lon="4.68692">
        <ele>441</ele>
        <time>2023-06-17T09:35:13.000Z</time>
      </trkpt>
      <trkpt lat="46.95344" lon="4.68702">
        <ele>440.60000610352</ele>
        <time>2023-06-17T09:35:14.000Z</time>
      </trkpt>
      <trkpt lat="46.95344" lon="4.68724">
        <ele>439.20001220703</ele>
        <time>2023-06-17T09:35:16.000Z</time>
      </trkpt>
      <trkpt lat="46.95343" lon="4.68749">
        <ele>437.60000610352</ele>
        <time>2023-06-17T09:35:18.000Z</time>
      </trkpt>
      <trkpt lat="46.95339" lon="4.68772">
        <ele>435.79998779297</ele>
        <time>2023-06-17T09:35:20.000Z</time>
      </trkpt>
      <trkpt lat="46.95334" lon="4.68793">
        <ele>434</ele>
        <time>2023-06-17T09:35:22.000Z</time>
      </trkpt>
      <trkpt lat="46.95331" lon="4.68803">
        <ele>433.79998779297</ele>
        <time>2023-06-17T09:35:23.000Z</time>
      </trkpt>
      <trkpt lat="46.95326" lon="4.68812">
        <ele>432.60000610352</ele>
        <time>2023-06-17T09:35:24.000Z</time>
      </trkpt>
      <trkpt lat="46.9532" lon="4.6882">
        <ele>431.39999389648</ele>
        <time>2023-06-17T09:35:25.000Z</time>
      </trkpt>
      <trkpt lat="46.95314" lon="4.68827">
        <ele>430.60000610352</ele>
        <time>2023-06-17T09:35:26.000Z</time>
      </trkpt>
      <trkpt lat="46.95307" lon="4.68835">
        <ele>429.79998779297</ele>
        <time>2023-06-17T09:35:27.000Z</time>
      </trkpt>
      <trkpt lat="46.95294" lon="4.68847">
        <ele>427.79998779297</ele>
        <time>2023-06-17T09:35:29.000Z</time>
      </trkpt>
      <trkpt lat="46.9528" lon="4.68861">
        <ele>426.39999389648</ele>
        <time>2023-06-17T09:35:31.000Z</time>
      </trkpt>
      <trkpt lat="46.95273" lon="4.68868">
        <ele>425.39999389648</ele>
        <time>2023-06-17T09:35:32.000Z</time>
      </trkpt>
      <trkpt lat="46.95265" lon="4.68875">
        <ele>425</ele>
        <time>2023-06-17T09:35:33.000Z</time>
      </trkpt>
      <trkpt lat="46.95252" lon="4.68888">
        <ele>424</ele>
        <time>2023-06-17T09:35:35.000Z</time>
      </trkpt>
      <trkpt lat="46.95235" lon="4.68905">
        <ele>422.60000610352</ele>
        <time>2023-06-17T09:35:37.000Z</time>
      </trkpt>
      <trkpt lat="46.9522" lon="4.68921">
        <ele>420.60000610352</ele>
        <time>2023-06-17T09:35:39.000Z</time>
      </trkpt>
      <trkpt lat="46.95204" lon="4.68936">
        <ele>419.60000610352</ele>
        <time>2023-06-17T09:35:41.000Z</time>
      </trkpt>
      <trkpt lat="46.95181" lon="4.68956">
        <ele>418.39999389648</ele>
        <time>2023-06-17T09:35:44.000Z</time>
      </trkpt>
      <trkpt lat="46.95167" lon="4.68969">
        <ele>417.60000610352</ele>
        <time>2023-06-17T09:35:46.000Z</time>
      </trkpt>
      <trkpt lat="46.9516" lon="4.68975">
        <ele>417</ele>
        <time>2023-06-17T09:35:47.000Z</time>
      </trkpt>
      <trkpt lat="46.95138" lon="4.68991">
        <ele>415.60000610352</ele>
        <time>2023-06-17T09:35:50.000Z</time>
      </trkpt>
      <trkpt lat="46.95123" lon="4.69">
        <ele>414.60000610352</ele>
        <time>2023-06-17T09:35:52.000Z</time>
      </trkpt>
      <trkpt lat="46.95116" lon="4.69003">
        <ele>414.20001220703</ele>
        <time>2023-06-17T09:35:53.000Z</time>
      </trkpt>
      <trkpt lat="46.951" lon="4.69008">
        <ele>413.20001220703</ele>
        <time>2023-06-17T09:35:55.000Z</time>
      </trkpt>
      <trkpt lat="46.95085" lon="4.69013">
        <ele>412.60000610352</ele>
        <time>2023-06-17T09:35:57.000Z</time>
      </trkpt>
      <trkpt lat="46.95078" lon="4.69018">
        <ele>412.60000610352</ele>
        <time>2023-06-17T09:35:58.000Z</time>
      </trkpt>
      <trkpt lat="46.9507" lon="4.69025">
        <ele>411.79998779297</ele>
        <time>2023-06-17T09:35:59.000Z</time>
      </trkpt>
      <trkpt lat="46.95062" lon="4.69033">
        <ele>411.39999389648</ele>
        <time>2023-06-17T09:36:00.000Z</time>
      </trkpt>
      <trkpt lat="46.95048" lon="4.69052">
        <ele>410.20001220703</ele>
        <time>2023-06-17T09:36:02.000Z</time>
      </trkpt>
      <trkpt lat="46.95034" lon="4.69071">
        <ele>408.79998779297</ele>
        <time>2023-06-17T09:36:04.000Z</time>
      </trkpt>
      <trkpt lat="46.9502" lon="4.69091">
        <ele>407.60000610352</ele>
        <time>2023-06-17T09:36:06.000Z</time>
      </trkpt>
      <trkpt lat="46.95007" lon="4.6911">
        <ele>405.79998779297</ele>
        <time>2023-06-17T09:36:08.000Z</time>
      </trkpt>
      <trkpt lat="46.94994" lon="4.6913">
        <ele>403.20001220703</ele>
        <time>2023-06-17T09:36:10.000Z</time>
      </trkpt>
      <trkpt lat="46.94988" lon="4.69137">
        <ele>402</ele>
        <time>2023-06-17T09:36:11.000Z</time>
      </trkpt>
      <trkpt lat="46.94974" lon="4.69159">
        <ele>400.79998779297</ele>
        <time>2023-06-17T09:36:13.000Z</time>
      </trkpt>
      <trkpt lat="46.94959" lon="4.69178">
        <ele>399.20001220703</ele>
        <time>2023-06-17T09:36:15.000Z</time>
      </trkpt>
      <trkpt lat="46.94947" lon="4.69194">
        <ele>397.39999389648</ele>
        <time>2023-06-17T09:36:17.000Z</time>
      </trkpt>
      <trkpt lat="46.94939" lon="4.69204">
        <ele>396</ele>
        <time>2023-06-17T09:36:18.000Z</time>
      </trkpt>
      <trkpt lat="46.94927" lon="4.69217">
        <ele>394.20001220703</ele>
        <time>2023-06-17T09:36:20.000Z</time>
      </trkpt>
      <trkpt lat="46.94922" lon="4.69224">
        <ele>393.79998779297</ele>
        <time>2023-06-17T09:36:21.000Z</time>
      </trkpt>
      <trkpt lat="46.94917" lon="4.69229">
        <ele>393</ele>
        <time>2023-06-17T09:36:22.000Z</time>
      </trkpt>
      <trkpt lat="46.94914" lon="4.69234">
        <ele>391.60000610352</ele>
        <time>2023-06-17T09:36:23.000Z</time>
      </trkpt>
      <trkpt lat="46.9491" lon="4.69237">
        <ele>389.79998779297</ele>
        <time>2023-06-17T09:36:24.000Z</time>
      </trkpt>
      <trkpt lat="46.94907" lon="4.6924">
        <ele>389</ele>
        <time>2023-06-17T09:36:25.000Z</time>
      </trkpt>
      <trkpt lat="46.94906" lon="4.69244">
        <ele>388.39999389648</ele>
        <time>2023-06-17T09:36:26.000Z</time>
      </trkpt>
      <trkpt lat="46.94904" lon="4.69247">
        <ele>387.20001220703</ele>
        <time>2023-06-17T09:36:27.000Z</time>
      </trkpt>
      <trkpt lat="46.94901" lon="4.69252">
        <ele>385.39999389648</ele>
        <time>2023-06-17T09:36:29.000Z</time>
      </trkpt>
      <trkpt lat="46.949" lon="4.69257">
        <ele>384</ele>
        <time>2023-06-17T09:36:31.000Z</time>
      </trkpt>
      <trkpt lat="46.949" lon="4.69258">
        <ele>383.20001220703</ele>
        <time>2023-06-17T09:36:33.000Z</time>
      </trkpt>
      <trkpt lat="46.949" lon="4.69258">
        <ele>382.79998779297</ele>
        <time>2023-06-17T09:36:34.000Z</time>
      </trkpt>
      <trkpt lat="46.949" lon="4.69258">
        <ele>382.39999389648</ele>
        <time>2023-06-17T09:36:35.000Z</time>
      </trkpt>
      <trkpt lat="46.94895" lon="4.69254">
        <ele>380.79998779297</ele>
        <time>2023-06-17T09:41:48.000Z</time>
      </trkpt>
      <trkpt lat="46.9489" lon="4.69257">
        <ele>380.60000610352</ele>
        <time>2023-06-17T09:41:50.000Z</time>
      </trkpt>
      <trkpt lat="46.94874" lon="4.69271">
        <ele>380.20001220703</ele>
        <time>2023-06-17T09:41:54.000Z</time>
      </trkpt>
      <trkpt lat="46.94863" lon="4.69282">
        <ele>379.60000610352</ele>
        <time>2023-06-17T09:41:56.000Z</time>
      </trkpt>
      <trkpt lat="46.94853" lon="4.69296">
        <ele>379.20001220703</ele>
        <time>2023-06-17T09:41:58.000Z</time>
      </trkpt>
      <trkpt lat="46.94844" lon="4.69311">
        <ele>378</ele>
        <time>2023-06-17T09:42:01.000Z</time>
      </trkpt>
      <trkpt lat="46.94839" lon="4.69321">
        <ele>376.79998779297</ele>
        <time>2023-06-17T09:42:04.000Z</time>
      </trkpt>
      <trkpt lat="46.94836" lon="4.69327">
        <ele>376.20001220703</ele>
        <time>2023-06-17T09:42:05.000Z</time>
      </trkpt>
      <trkpt lat="46.9483" lon="4.6934">
        <ele>375.20001220703</ele>
        <time>2023-06-17T09:42:07.000Z</time>
      </trkpt>
      <trkpt lat="46.94823" lon="4.69358">
        <ele>374.60000610352</ele>
        <time>2023-06-17T09:42:09.000Z</time>
      </trkpt>
      <trkpt lat="46.94818" lon="4.69368">
        <ele>374</ele>
        <time>2023-06-17T09:42:10.000Z</time>
      </trkpt>
      <trkpt lat="46.94804" lon="4.694">
        <ele>372.79998779297</ele>
        <time>2023-06-17T09:42:13.000Z</time>
      </trkpt>
      <trkpt lat="46.94799" lon="4.6941">
        <ele>372</ele>
        <time>2023-06-17T09:42:14.000Z</time>
      </trkpt>
      <trkpt lat="46.94793" lon="4.69421">
        <ele>371.20001220703</ele>
        <time>2023-06-17T09:42:15.000Z</time>
      </trkpt>
      <trkpt lat="46.94781" lon="4.69441">
        <ele>369.60000610352</ele>
        <time>2023-06-17T09:42:17.000Z</time>
      </trkpt>
      <trkpt lat="46.9477" lon="4.69459">
        <ele>367.60000610352</ele>
        <time>2023-06-17T09:42:19.000Z</time>
      </trkpt>
      <trkpt lat="46.9476" lon="4.69475">
        <ele>365.79998779297</ele>
        <time>2023-06-17T09:42:21.000Z</time>
      </trkpt>
      <trkpt lat="46.94753" lon="4.69488">
        <ele>364.20001220703</ele>
        <time>2023-06-17T09:42:23.000Z</time>
      </trkpt>
      <trkpt lat="46.94743" lon="4.69514">
        <ele>362.20001220703</ele>
        <time>2023-06-17T09:42:26.000Z</time>
      </trkpt>
      <trkpt lat="46.94741" lon="4.69523">
        <ele>361.60000610352</ele>
        <time>2023-06-17T09:42:27.000Z</time>
      </trkpt>
      <trkpt lat="46.94739" lon="4.69533">
        <ele>360.39999389648</ele>
        <time>2023-06-17T09:42:28.000Z</time>
      </trkpt>
      <trkpt lat="46.94736" lon="4.69557">
        <ele>359</ele>
        <time>2023-06-17T09:42:30.000Z</time>
      </trkpt>
      <trkpt lat="46.94733" lon="4.69583">
        <ele>358</ele>
        <time>2023-06-17T09:42:32.000Z</time>
      </trkpt>
      <trkpt lat="46.94731" lon="4.69597">
        <ele>357.39999389648</ele>
        <time>2023-06-17T09:42:33.000Z</time>
      </trkpt>
      <trkpt lat="46.94728" lon="4.69628">
        <ele>356.20001220703</ele>
        <time>2023-06-17T09:42:35.000Z</time>
      </trkpt>
      <trkpt lat="46.94727" lon="4.69654">
        <ele>354.79998779297</ele>
        <time>2023-06-17T09:42:37.000Z</time>
      </trkpt>
      <trkpt lat="46.94728" lon="4.69672">
        <ele>354</ele>
        <time>2023-06-17T09:42:38.000Z</time>
      </trkpt>
      <trkpt lat="46.94728" lon="4.69687">
        <ele>353.79998779297</ele>
        <time>2023-06-17T09:42:39.000Z</time>
      </trkpt>
      <trkpt lat="46.9473" lon="4.69718">
        <ele>352.39999389648</ele>
        <time>2023-06-17T09:42:41.000Z</time>
      </trkpt>
      <trkpt lat="46.94732" lon="4.69733">
        <ele>351.39999389648</ele>
        <time>2023-06-17T09:42:42.000Z</time>
      </trkpt>
      <trkpt lat="46.94735" lon="4.69764">
        <ele>350</ele>
        <time>2023-06-17T09:42:44.000Z</time>
      </trkpt>
      <trkpt lat="46.9474" lon="4.69809">
        <ele>348.20001220703</ele>
        <time>2023-06-17T09:42:47.000Z</time>
      </trkpt>
      <trkpt lat="46.94744" lon="4.69838">
        <ele>346.79998779297</ele>
        <time>2023-06-17T09:42:49.000Z</time>
      </trkpt>
      <trkpt lat="46.94748" lon="4.69867">
        <ele>345</ele>
        <time>2023-06-17T09:42:51.000Z</time>
      </trkpt>
      <trkpt lat="46.94751" lon="4.69893">
        <ele>344</ele>
        <time>2023-06-17T09:42:53.000Z</time>
      </trkpt>
      <trkpt lat="46.94758" lon="4.69937">
        <ele>342.20001220703</ele>
        <time>2023-06-17T09:42:56.000Z</time>
      </trkpt>
      <trkpt lat="46.94763" lon="4.69964">
        <ele>341.20001220703</ele>
        <time>2023-06-17T09:42:58.000Z</time>
      </trkpt>
      <trkpt lat="46.94768" lon="4.69992">
        <ele>339.79998779297</ele>
        <time>2023-06-17T09:43:00.000Z</time>
      </trkpt>
      <trkpt lat="46.94773" lon="4.7002">
        <ele>339</ele>
        <time>2023-06-17T09:43:02.000Z</time>
      </trkpt>
      <trkpt lat="46.94776" lon="4.70033">
        <ele>338.60000610352</ele>
        <time>2023-06-17T09:43:03.000Z</time>
      </trkpt>
      <trkpt lat="46.94784" lon="4.70076">
        <ele>337.39999389648</ele>
        <time>2023-06-17T09:43:06.000Z</time>
      </trkpt>
      <trkpt lat="46.94788" lon="4.70103">
        <ele>336</ele>
        <time>2023-06-17T09:43:08.000Z</time>
      </trkpt>
      <trkpt lat="46.94792" lon="4.70136">
        <ele>334.60000610352</ele>
        <time>2023-06-17T09:43:10.000Z</time>
      </trkpt>
      <trkpt lat="46.94796" lon="4.70181">
        <ele>333.60000610352</ele>
        <time>2023-06-17T09:43:13.000Z</time>
      </trkpt>
      <trkpt lat="46.948" lon="4.70211">
        <ele>332.20001220703</ele>
        <time>2023-06-17T09:43:15.000Z</time>
      </trkpt>
      <trkpt lat="46.94803" lon="4.7024">
        <ele>330.79998779297</ele>
        <time>2023-06-17T09:43:17.000Z</time>
      </trkpt>
      <trkpt lat="46.94805" lon="4.70254">
        <ele>330.20001220703</ele>
        <time>2023-06-17T09:43:18.000Z</time>
      </trkpt>
      <trkpt lat="46.94807" lon="4.70268">
        <ele>329.60000610352</ele>
        <time>2023-06-17T09:43:19.000Z</time>
      </trkpt>
      <trkpt lat="46.94811" lon="4.70296">
        <ele>328.20001220703</ele>
        <time>2023-06-17T09:43:21.000Z</time>
      </trkpt>
      <trkpt lat="46.94816" lon="4.70324">
        <ele>327</ele>
        <time>2023-06-17T09:43:23.000Z</time>
      </trkpt>
      <trkpt lat="46.94822" lon="4.70351">
        <ele>325.79998779297</ele>
        <time>2023-06-17T09:43:25.000Z</time>
      </trkpt>
      <trkpt lat="46.94833" lon="4.70392">
        <ele>324</ele>
        <time>2023-06-17T09:43:28.000Z</time>
      </trkpt>
      <trkpt lat="46.94841" lon="4.70418">
        <ele>322.79998779297</ele>
        <time>2023-06-17T09:43:30.000Z</time>
      </trkpt>
      <trkpt lat="46.94849" lon="4.70445">
        <ele>321.79998779297</ele>
        <time>2023-06-17T09:43:32.000Z</time>
      </trkpt>
      <trkpt lat="46.94858" lon="4.70471">
        <ele>320.60000610352</ele>
        <time>2023-06-17T09:43:34.000Z</time>
      </trkpt>
      <trkpt lat="46.94862" lon="4.70484">
        <ele>319.60000610352</ele>
        <time>2023-06-17T09:43:35.000Z</time>
      </trkpt>
      <trkpt lat="46.94871" lon="4.7051">
        <ele>318.39999389648</ele>
        <time>2023-06-17T09:43:37.000Z</time>
      </trkpt>
      <trkpt lat="46.94879" lon="4.70533">
        <ele>317.39999389648</ele>
        <time>2023-06-17T09:43:39.000Z</time>
      </trkpt>
      <trkpt lat="46.94893" lon="4.70573">
        <ele>316.39999389648</ele>
        <time>2023-06-17T09:43:42.000Z</time>
      </trkpt>
      <trkpt lat="46.94905" lon="4.70609">
        <ele>315.20001220703</ele>
        <time>2023-06-17T09:43:45.000Z</time>
      </trkpt>
      <trkpt lat="46.94909" lon="4.7062">
        <ele>314.39999389648</ele>
        <time>2023-06-17T09:43:46.000Z</time>
      </trkpt>
      <trkpt lat="46.94913" lon="4.7063">
        <ele>314</ele>
        <time>2023-06-17T09:43:47.000Z</time>
      </trkpt>
      <trkpt lat="46.94925" lon="4.70657">
        <ele>312.79998779297</ele>
        <time>2023-06-17T09:43:50.000Z</time>
      </trkpt>
      <trkpt lat="46.94929" lon="4.70666">
        <ele>312.39999389648</ele>
        <time>2023-06-17T09:43:51.000Z</time>
      </trkpt>
      <trkpt lat="46.94938" lon="4.70684">
        <ele>311.39999389648</ele>
        <time>2023-06-17T09:43:53.000Z</time>
      </trkpt>
      <trkpt lat="46.94953" lon="4.70711">
        <ele>310.20001220703</ele>
        <time>2023-06-17T09:43:56.000Z</time>
      </trkpt>
      <trkpt lat="46.94967" lon="4.70736">
        <ele>309.39999389648</ele>
        <time>2023-06-17T09:43:59.000Z</time>
      </trkpt>
      <trkpt lat="46.94972" lon="4.70745">
        <ele>309</ele>
        <time>2023-06-17T09:44:00.000Z</time>
      </trkpt>
      <trkpt lat="46.94976" lon="4.70752">
        <ele>308</ele>
        <time>2023-06-17T09:44:01.000Z</time>
      </trkpt>
      <trkpt lat="46.94982" lon="4.70766">
        <ele>306.79998779297</ele>
        <time>2023-06-17T09:44:03.000Z</time>
      </trkpt>
      <trkpt lat="46.94984" lon="4.70774">
        <ele>306.60000610352</ele>
        <time>2023-06-17T09:44:04.000Z</time>
      </trkpt>
      <trkpt lat="46.94986" lon="4.70781">
        <ele>306</ele>
        <time>2023-06-17T09:44:05.000Z</time>
      </trkpt>
      <trkpt lat="46.94988" lon="4.70795">
        <ele>305</ele>
        <time>2023-06-17T09:44:07.000Z</time>
      </trkpt>
      <trkpt lat="46.9499" lon="4.70808">
        <ele>304.20001220703</ele>
        <time>2023-06-17T09:44:09.000Z</time>
      </trkpt>
      <trkpt lat="46.94989" lon="4.70816">
        <ele>303.79998779297</ele>
        <time>2023-06-17T09:44:10.000Z</time>
      </trkpt>
      <trkpt lat="46.94988" lon="4.70834">
        <ele>302.79998779297</ele>
        <time>2023-06-17T09:44:12.000Z</time>
      </trkpt>
      <trkpt lat="46.94986" lon="4.70843">
        <ele>302.60000610352</ele>
        <time>2023-06-17T09:44:13.000Z</time>
      </trkpt>
      <trkpt lat="46.94984" lon="4.70851">
        <ele>301.60000610352</ele>
        <time>2023-06-17T09:44:14.000Z</time>
      </trkpt>
      <trkpt lat="46.94983" lon="4.70858">
        <ele>301.20001220703</ele>
        <time>2023-06-17T09:44:15.000Z</time>
      </trkpt>
      <trkpt lat="46.94982" lon="4.70872">
        <ele>300</ele>
        <time>2023-06-17T09:44:17.000Z</time>
      </trkpt>
      <trkpt lat="46.94983" lon="4.70879">
        <ele>299.60000610352</ele>
        <time>2023-06-17T09:44:18.000Z</time>
      </trkpt>
      <trkpt lat="46.94983" lon="4.70887">
        <ele>298.39999389648</ele>
        <time>2023-06-17T09:44:19.000Z</time>
      </trkpt>
      <trkpt lat="46.94984" lon="4.70893">
        <ele>297.79998779297</ele>
        <time>2023-06-17T09:44:20.000Z</time>
      </trkpt>
      <trkpt lat="46.94986" lon="4.709">
        <ele>297.20001220703</ele>
        <time>2023-06-17T09:44:21.000Z</time>
      </trkpt>
      <trkpt lat="46.94988" lon="4.70911">
        <ele>296.39999389648</ele>
        <time>2023-06-17T09:44:23.000Z</time>
      </trkpt>
      <trkpt lat="46.94989" lon="4.70916">
        <ele>295.79998779297</ele>
        <time>2023-06-17T09:44:24.000Z</time>
      </trkpt>
      <trkpt lat="46.94993" lon="4.70924">
        <ele>294.60000610352</ele>
        <time>2023-06-17T09:44:26.000Z</time>
      </trkpt>
      <trkpt lat="46.94996" lon="4.70927">
        <ele>294.20001220703</ele>
        <time>2023-06-17T09:44:27.000Z</time>
      </trkpt>
      <trkpt lat="46.95007" lon="4.70936">
        <ele>293.39999389648</ele>
        <time>2023-06-17T09:44:30.000Z</time>
      </trkpt>
      <trkpt lat="46.95012" lon="4.70939">
        <ele>293.20001220703</ele>
        <time>2023-06-17T09:44:31.000Z</time>
      </trkpt>
      <trkpt lat="46.95018" lon="4.70942">
        <ele>293</ele>
        <time>2023-06-17T09:44:32.000Z</time>
      </trkpt>
      <trkpt lat="46.95027" lon="4.70946">
        <ele>292.60000610352</ele>
        <time>2023-06-17T09:44:34.000Z</time>
      </trkpt>
      <trkpt lat="46.95033" lon="4.70947">
        <ele>292.20001220703</ele>
        <time>2023-06-17T09:44:35.000Z</time>
      </trkpt>
      <trkpt lat="46.95038" lon="4.70948">
        <ele>292.20001220703</ele>
        <time>2023-06-17T09:44:36.000Z</time>
      </trkpt>
      <trkpt lat="46.9505" lon="4.70955">
        <ele>292</ele>
        <time>2023-06-17T09:44:38.000Z</time>
      </trkpt>
      <trkpt lat="46.95053" lon="4.70959">
        <ele>291.60000610352</ele>
        <time>2023-06-17T09:44:39.000Z</time>
      </trkpt>
      <trkpt lat="46.95057" lon="4.70967">
        <ele>291.20001220703</ele>
        <time>2023-06-17T09:44:40.000Z</time>
      </trkpt>
      <trkpt lat="46.95059" lon="4.70976">
        <ele>291</ele>
        <time>2023-06-17T09:44:41.000Z</time>
      </trkpt>
      <trkpt lat="46.95061" lon="4.70984">
        <ele>290.79998779297</ele>
        <time>2023-06-17T09:44:42.000Z</time>
      </trkpt>
      <trkpt lat="46.95065" lon="4.71">
        <ele>290.39999389648</ele>
        <time>2023-06-17T09:44:44.000Z</time>
      </trkpt>
      <trkpt lat="46.95067" lon="4.71006">
        <ele>289.79998779297</ele>
        <time>2023-06-17T09:44:45.000Z</time>
      </trkpt>
      <trkpt lat="46.95069" lon="4.71016">
        <ele>289</ele>
        <time>2023-06-17T09:44:46.000Z</time>
      </trkpt>
      <trkpt lat="46.95071" lon="4.71025">
        <ele>288.39999389648</ele>
        <time>2023-06-17T09:44:47.000Z</time>
      </trkpt>
      <trkpt lat="46.95075" lon="4.71045">
        <ele>287.20001220703</ele>
        <time>2023-06-17T09:44:50.000Z</time>
      </trkpt>
      <trkpt lat="46.95076" lon="4.7105">
        <ele>286.39999389648</ele>
        <time>2023-06-17T09:44:51.000Z</time>
      </trkpt>
      <trkpt lat="46.95077" lon="4.71053">
        <ele>286</ele>
        <time>2023-06-17T09:44:52.000Z</time>
      </trkpt>
      <trkpt lat="46.9508" lon="4.71063">
        <ele>284.60000610352</ele>
        <time>2023-06-17T09:44:55.000Z</time>
      </trkpt>
      <trkpt lat="46.95086" lon="4.71085">
        <ele>284</ele>
        <time>2023-06-17T09:45:00.000Z</time>
      </trkpt>
      <trkpt lat="46.95089" lon="4.71097">
        <ele>283.39999389648</ele>
        <time>2023-06-17T09:45:02.000Z</time>
      </trkpt>
      <trkpt lat="46.95092" lon="4.71115">
        <ele>282.60000610352</ele>
        <time>2023-06-17T09:45:05.000Z</time>
      </trkpt>
      <trkpt lat="46.95093" lon="4.71121">
        <ele>282.60000610352</ele>
        <time>2023-06-17T09:45:06.000Z</time>
      </trkpt>
      <trkpt lat="46.95096" lon="4.71135">
        <ele>282.20001220703</ele>
        <time>2023-06-17T09:45:08.000Z</time>
      </trkpt>
      <trkpt lat="46.95101" lon="4.71156">
        <ele>281.60000610352</ele>
        <time>2023-06-17T09:45:11.000Z</time>
      </trkpt>
      <trkpt lat="46.95103" lon="4.71163">
        <ele>281.39999389648</ele>
        <time>2023-06-17T09:45:12.000Z</time>
      </trkpt>
      <trkpt lat="46.95112" lon="4.71196">
        <ele>280.60000610352</ele>
        <time>2023-06-17T09:45:16.000Z</time>
      </trkpt>
      <trkpt lat="46.95116" lon="4.71215">
        <ele>280</ele>
        <time>2023-06-17T09:45:18.000Z</time>
      </trkpt>
      <trkpt lat="46.95121" lon="4.71234">
        <ele>279.79998779297</ele>
        <time>2023-06-17T09:45:20.000Z</time>
      </trkpt>
      <trkpt lat="46.95124" lon="4.71246">
        <ele>279.39999389648</ele>
        <time>2023-06-17T09:45:21.000Z</time>
      </trkpt>
      <trkpt lat="46.9513" lon="4.71267">
        <ele>279</ele>
        <time>2023-06-17T09:45:23.000Z</time>
      </trkpt>
      <trkpt lat="46.95141" lon="4.71298">
        <ele>277.79998779297</ele>
        <time>2023-06-17T09:45:26.000Z</time>
      </trkpt>
      <trkpt lat="46.95145" lon="4.71308">
        <ele>277.60000610352</ele>
        <time>2023-06-17T09:45:27.000Z</time>
      </trkpt>
      <trkpt lat="46.95162" lon="4.71357">
        <ele>276.60000610352</ele>
        <time>2023-06-17T09:45:32.000Z</time>
      </trkpt>
      <trkpt lat="46.95169" lon="4.71375">
        <ele>276.39999389648</ele>
        <time>2023-06-17T09:45:34.000Z</time>
      </trkpt>
      <trkpt lat="46.9518" lon="4.71398">
        <ele>275.79998779297</ele>
        <time>2023-06-17T09:45:37.000Z</time>
      </trkpt>
      <trkpt lat="46.95182" lon="4.71406">
        <ele>275.60000610352</ele>
        <time>2023-06-17T09:45:38.000Z</time>
      </trkpt>
      <trkpt lat="46.95183" lon="4.71413">
        <ele>275.39999389648</ele>
        <time>2023-06-17T09:45:39.000Z</time>
      </trkpt>
      <trkpt lat="46.95183" lon="4.71424">
        <ele>275.39999389648</ele>
        <time>2023-06-17T09:45:41.000Z</time>
      </trkpt>
      <trkpt lat="46.95183" lon="4.7143">
        <ele>275.39999389648</ele>
        <time>2023-06-17T09:45:42.000Z</time>
      </trkpt>
      <trkpt lat="46.95189" lon="4.71441">
        <ele>275.20001220703</ele>
        <time>2023-06-17T09:45:44.000Z</time>
      </trkpt>
      <trkpt lat="46.9521" lon="4.71485">
        <ele>275.39999389648</ele>
        <time>2023-06-17T09:45:51.000Z</time>
      </trkpt>
      <trkpt lat="46.95213" lon="4.71491">
        <ele>275.39999389648</ele>
        <time>2023-06-17T09:45:52.000Z</time>
      </trkpt>
      <trkpt lat="46.95227" lon="4.71543">
        <ele>275.60000610352</ele>
        <time>2023-06-17T09:45:59.000Z</time>
      </trkpt>
      <trkpt lat="46.95244" lon="4.7161">
        <ele>275.60000610352</ele>
        <time>2023-06-17T09:46:08.000Z</time>
      </trkpt>
      <trkpt lat="46.95257" lon="4.71662">
        <ele>276.20001220703</ele>
        <time>2023-06-17T09:46:15.000Z</time>
      </trkpt>
      <trkpt lat="46.95266" lon="4.71696">
        <ele>276</ele>
        <time>2023-06-17T09:46:20.000Z</time>
      </trkpt>
      <trkpt lat="46.95266" lon="4.71708">
        <ele>276.20001220703</ele>
        <time>2023-06-17T09:46:22.000Z</time>
      </trkpt>
      <trkpt lat="46.95265" lon="4.71721">
        <ele>276.39999389648</ele>
        <time>2023-06-17T09:46:24.000Z</time>
      </trkpt>
      <trkpt lat="46.95267" lon="4.71736">
        <ele>276.39999389648</ele>
        <time>2023-06-17T09:46:26.000Z</time>
      </trkpt>
      <trkpt lat="46.95284" lon="4.71795">
        <ele>276.39999389648</ele>
        <time>2023-06-17T09:46:33.000Z</time>
      </trkpt>
      <trkpt lat="46.95296" lon="4.71847">
        <ele>276.20001220703</ele>
        <time>2023-06-17T09:46:39.000Z</time>
      </trkpt>
      <trkpt lat="46.953" lon="4.71867">
        <ele>276.20001220703</ele>
        <time>2023-06-17T09:46:43.000Z</time>
      </trkpt>
      <trkpt lat="46.95309" lon="4.71889">
        <ele>275.60000610352</ele>
        <time>2023-06-17T09:46:48.000Z</time>
      </trkpt>
      <trkpt lat="46.95324" lon="4.71927">
        <ele>275.20001220703</ele>
        <time>2023-06-17T09:46:54.000Z</time>
      </trkpt>
      <trkpt lat="46.95331" lon="4.7194">
        <ele>275.20001220703</ele>
        <time>2023-06-17T09:46:56.000Z</time>
      </trkpt>
      <trkpt lat="46.95336" lon="4.71957">
        <ele>275.20001220703</ele>
        <time>2023-06-17T09:46:58.000Z</time>
      </trkpt>
      <trkpt lat="46.95345" lon="4.72">
        <ele>274.60000610352</ele>
        <time>2023-06-17T09:47:02.000Z</time>
      </trkpt>
      <trkpt lat="46.95347" lon="4.72011">
        <ele>274.39999389648</ele>
        <time>2023-06-17T09:47:03.000Z</time>
      </trkpt>
      <trkpt lat="46.95353" lon="4.72043">
        <ele>273.39999389648</ele>
        <time>2023-06-17T09:47:06.000Z</time>
      </trkpt>
      <trkpt lat="46.95358" lon="4.72063">
        <ele>273</ele>
        <time>2023-06-17T09:47:08.000Z</time>
      </trkpt>
      <trkpt lat="46.95361" lon="4.72074">
        <ele>272.39999389648</ele>
        <time>2023-06-17T09:47:09.000Z</time>
      </trkpt>
      <trkpt lat="46.95365" lon="4.72084">
        <ele>272.39999389648</ele>
        <time>2023-06-17T09:47:10.000Z</time>
      </trkpt>
      <trkpt lat="46.95369" lon="4.72094">
        <ele>272</ele>
        <time>2023-06-17T09:47:11.000Z</time>
      </trkpt>
      <trkpt lat="46.95378" lon="4.72115">
        <ele>271.20001220703</ele>
        <time>2023-06-17T09:47:13.000Z</time>
      </trkpt>
      <trkpt lat="46.95383" lon="4.72125">
        <ele>270.39999389648</ele>
        <time>2023-06-17T09:47:14.000Z</time>
      </trkpt>
      <trkpt lat="46.95388" lon="4.72135">
        <ele>270.20001220703</ele>
        <time>2023-06-17T09:47:15.000Z</time>
      </trkpt>
      <trkpt lat="46.95405" lon="4.72162">
        <ele>268.39999389648</ele>
        <time>2023-06-17T09:47:18.000Z</time>
      </trkpt>
      <trkpt lat="46.95414" lon="4.72179">
        <ele>267.39999389648</ele>
        <time>2023-06-17T09:47:20.000Z</time>
      </trkpt>
      <trkpt lat="46.95418" lon="4.72188">
        <ele>267</ele>
        <time>2023-06-17T09:47:21.000Z</time>
      </trkpt>
      <trkpt lat="46.95422" lon="4.72207">
        <ele>266.39999389648</ele>
        <time>2023-06-17T09:47:23.000Z</time>
      </trkpt>
      <trkpt lat="46.95421" lon="4.72226">
        <ele>266</ele>
        <time>2023-06-17T09:47:25.000Z</time>
      </trkpt>
      <trkpt lat="46.95419" lon="4.72235">
        <ele>266</ele>
        <time>2023-06-17T09:47:26.000Z</time>
      </trkpt>
      <trkpt lat="46.95416" lon="4.72243">
        <ele>265.79998779297</ele>
        <time>2023-06-17T09:47:27.000Z</time>
      </trkpt>
      <trkpt lat="46.95404" lon="4.72266">
        <ele>265.60000610352</ele>
        <time>2023-06-17T09:47:30.000Z</time>
      </trkpt>
      <trkpt lat="46.95396" lon="4.72281">
        <ele>265.60000610352</ele>
        <time>2023-06-17T09:47:32.000Z</time>
      </trkpt>
      <trkpt lat="46.95376" lon="4.72307">
        <ele>265</ele>
        <time>2023-06-17T09:47:36.000Z</time>
      </trkpt>
      <trkpt lat="46.95373" lon="4.72311">
        <ele>264.79998779297</ele>
        <time>2023-06-17T09:47:37.000Z</time>
      </trkpt>
      <trkpt lat="46.95368" lon="4.72318">
        <ele>264.60000610352</ele>
        <time>2023-06-17T09:47:39.000Z</time>
      </trkpt>
      <trkpt lat="46.95363" lon="4.72325">
        <ele>264.39999389648</ele>
        <time>2023-06-17T09:47:42.000Z</time>
      </trkpt>
      <trkpt lat="46.95363" lon="4.72328">
        <ele>264.20001220703</ele>
        <time>2023-06-17T09:47:43.000Z</time>
      </trkpt>
      <trkpt lat="46.95369" lon="4.72325">
        <ele>264</ele>
        <time>2023-06-17T09:47:46.000Z</time>
      </trkpt>
      <trkpt lat="46.95384" lon="4.72304">
        <ele>264</ele>
        <time>2023-06-17T09:47:51.000Z</time>
      </trkpt>
      <trkpt lat="46.95387" lon="4.72299">
        <ele>264</ele>
        <time>2023-06-17T09:47:52.000Z</time>
      </trkpt>
      <trkpt lat="46.95401" lon="4.72273">
        <ele>264.39999389648</ele>
        <time>2023-06-17T09:47:57.000Z</time>
      </trkpt>
      <trkpt lat="46.95404" lon="4.72269">
        <ele>264.39999389648</ele>
        <time>2023-06-17T09:47:58.000Z</time>
      </trkpt>
      <trkpt lat="46.95407" lon="4.7227">
        <ele>264.60000610352</ele>
        <time>2023-06-17T09:48:00.000Z</time>
      </trkpt>
      <trkpt lat="46.95404" lon="4.72281">
        <ele>264.79998779297</ele>
        <time>2023-06-17T09:48:03.000Z</time>
      </trkpt>
      <trkpt lat="46.95402" lon="4.72285">
        <ele>265</ele>
        <time>2023-06-17T09:48:04.000Z</time>
      </trkpt>
      <trkpt lat="46.95388" lon="4.72311">
        <ele>266</ele>
        <time>2023-06-17T09:48:11.000Z</time>
      </trkpt>
      <trkpt lat="46.95386" lon="4.72315">
        <ele>266.20001220703</ele>
        <time>2023-06-17T09:48:12.000Z</time>
      </trkpt>
      <trkpt lat="46.95375" lon="4.72334">
        <ele>267</ele>
        <time>2023-06-17T09:48:17.000Z</time>
      </trkpt>
      <trkpt lat="46.9537" lon="4.72343">
        <ele>267.20001220703</ele>
        <time>2023-06-17T09:48:19.000Z</time>
      </trkpt>
      <trkpt lat="46.95358" lon="4.72366">
        <ele>268</ele>
        <time>2023-06-17T09:48:24.000Z</time>
      </trkpt>
      <trkpt lat="46.95352" lon="4.72379">
        <ele>269</ele>
        <time>2023-06-17T09:48:27.000Z</time>
      </trkpt>
      <trkpt lat="46.95348" lon="4.72387">
        <ele>269.20001220703</ele>
        <time>2023-06-17T09:48:29.000Z</time>
      </trkpt>
      <trkpt lat="46.95342" lon="4.724">
        <ele>270.39999389648</ele>
        <time>2023-06-17T09:48:32.000Z</time>
      </trkpt>
      <trkpt lat="46.95338" lon="4.72407">
        <ele>270.79998779297</ele>
        <time>2023-06-17T09:48:34.000Z</time>
      </trkpt>
      <trkpt lat="46.95331" lon="4.72417">
        <ele>271.39999389648</ele>
        <time>2023-06-17T09:48:37.000Z</time>
      </trkpt>
      <trkpt lat="46.95325" lon="4.72427">
        <ele>271.79998779297</ele>
        <time>2023-06-17T09:48:40.000Z</time>
      </trkpt>
      <trkpt lat="46.95318" lon="4.7244">
        <ele>272.39999389648</ele>
        <time>2023-06-17T09:48:44.000Z</time>
      </trkpt>
      <trkpt lat="46.95315" lon="4.72443">
        <ele>272.60000610352</ele>
        <time>2023-06-17T09:48:45.000Z</time>
      </trkpt>
      <trkpt lat="46.95304" lon="4.72465">
        <ele>273.60000610352</ele>
        <time>2023-06-17T09:48:52.000Z</time>
      </trkpt>
      <trkpt lat="46.95301" lon="4.7247">
        <ele>274</ele>
        <time>2023-06-17T09:48:54.000Z</time>
      </trkpt>
      <trkpt lat="46.95293" lon="4.72484">
        <ele>274.79998779297</ele>
        <time>2023-06-17T09:48:59.000Z</time>
      </trkpt>
      <trkpt lat="46.95285" lon="4.72497">
        <ele>276.20001220703</ele>
        <time>2023-06-17T09:49:04.000Z</time>
      </trkpt>
      <trkpt lat="46.95278" lon="4.72515">
        <ele>277</ele>
        <time>2023-06-17T09:49:10.000Z</time>
      </trkpt>
      <trkpt lat="46.95275" lon="4.7252">
        <ele>277.60000610352</ele>
        <time>2023-06-17T09:49:12.000Z</time>
      </trkpt>
      <trkpt lat="46.95274" lon="4.72523">
        <ele>278.20001220703</ele>
        <time>2023-06-17T09:49:13.000Z</time>
      </trkpt>
      <trkpt lat="46.95269" lon="4.72537">
        <ele>279.20001220703</ele>
        <time>2023-06-17T09:49:18.000Z</time>
      </trkpt>
      <trkpt lat="46.95268" lon="4.7254">
        <ele>279.39999389648</ele>
        <time>2023-06-17T09:49:19.000Z</time>
      </trkpt>
      <trkpt lat="46.95267" lon="4.72543">
        <ele>279.60000610352</ele>
        <time>2023-06-17T09:49:20.000Z</time>
      </trkpt>
      <trkpt lat="46.95266" lon="4.72549">
        <ele>280.20001220703</ele>
        <time>2023-06-17T09:49:22.000Z</time>
      </trkpt>
      <trkpt lat="46.95264" lon="4.72556">
        <ele>281.20001220703</ele>
        <time>2023-06-17T09:49:24.000Z</time>
      </trkpt>
      <trkpt lat="46.95263" lon="4.72562">
        <ele>281.60000610352</ele>
        <time>2023-06-17T09:49:26.000Z</time>
      </trkpt>
      <trkpt lat="46.95262" lon="4.72572">
        <ele>282</ele>
        <time>2023-06-17T09:49:29.000Z</time>
      </trkpt>
      <trkpt lat="46.95261" lon="4.72581">
        <ele>282.60000610352</ele>
        <time>2023-06-17T09:49:32.000Z</time>
      </trkpt>
      <trkpt lat="46.95261" lon="4.72586">
        <ele>283.20001220703</ele>
        <time>2023-06-17T09:49:34.000Z</time>
      </trkpt>
      <trkpt lat="46.95259" lon="4.72589">
        <ele>283.39999389648</ele>
        <time>2023-06-17T09:49:35.000Z</time>
      </trkpt>
      <trkpt lat="46.95258" lon="4.72591">
        <ele>283.60000610352</ele>
        <time>2023-06-17T09:49:36.000Z</time>
      </trkpt>
      <trkpt lat="46.95252" lon="4.72598">
        <ele>284.79998779297</ele>
        <time>2023-06-17T09:49:40.000Z</time>
      </trkpt>
      <trkpt lat="46.95248" lon="4.72601">
        <ele>285.60000610352</ele>
        <time>2023-06-17T09:49:42.000Z</time>
      </trkpt>
      <trkpt lat="46.95246" lon="4.72603">
        <ele>286.20001220703</ele>
        <time>2023-06-17T09:49:43.000Z</time>
      </trkpt>
      <trkpt lat="46.95239" lon="4.7261">
        <ele>287.20001220703</ele>
        <time>2023-06-17T09:49:47.000Z</time>
      </trkpt>
      <trkpt lat="46.95237" lon="4.72611">
        <ele>287.39999389648</ele>
        <time>2023-06-17T09:49:48.000Z</time>
      </trkpt>
      <trkpt lat="46.95231" lon="4.72616">
        <ele>288.20001220703</ele>
        <time>2023-06-17T09:49:51.000Z</time>
      </trkpt>
      <trkpt lat="46.95222" lon="4.72623">
        <ele>289.39999389648</ele>
        <time>2023-06-17T09:49:56.000Z</time>
      </trkpt>
      <trkpt lat="46.95218" lon="4.72627">
        <ele>290</ele>
        <time>2023-06-17T09:49:58.000Z</time>
      </trkpt>
      <trkpt lat="46.95212" lon="4.72632">
        <ele>290.60000610352</ele>
        <time>2023-06-17T09:50:01.000Z</time>
      </trkpt>
      <trkpt lat="46.95206" lon="4.72636">
        <ele>291.20001220703</ele>
        <time>2023-06-17T09:50:04.000Z</time>
      </trkpt>
      <trkpt lat="46.95203" lon="4.72639">
        <ele>291.60000610352</ele>
        <time>2023-06-17T09:50:06.000Z</time>
      </trkpt>
      <trkpt lat="46.95202" lon="4.72641">
        <ele>291.79998779297</ele>
        <time>2023-06-17T09:50:07.000Z</time>
      </trkpt>
      <trkpt lat="46.95197" lon="4.72648">
        <ele>292.79998779297</ele>
        <time>2023-06-17T09:50:10.000Z</time>
      </trkpt>
      <trkpt lat="46.95196" lon="4.7265">
        <ele>293</ele>
        <time>2023-06-17T09:50:11.000Z</time>
      </trkpt>
      <trkpt lat="46.95192" lon="4.72658">
        <ele>294.20001220703</ele>
        <time>2023-06-17T09:50:14.000Z</time>
      </trkpt>
      <trkpt lat="46.95188" lon="4.72665">
        <ele>295.39999389648</ele>
        <time>2023-06-17T09:50:17.000Z</time>
      </trkpt>
      <trkpt lat="46.95187" lon="4.72667">
        <ele>295.39999389648</ele>
        <time>2023-06-17T09:50:18.000Z</time>
      </trkpt>
      <trkpt lat="46.95183" lon="4.72674">
        <ele>296.60000610352</ele>
        <time>2023-06-17T09:50:21.000Z</time>
      </trkpt>
      <trkpt lat="46.95178" lon="4.72684">
        <ele>297.60000610352</ele>
        <time>2023-06-17T09:50:25.000Z</time>
      </trkpt>
      <trkpt lat="46.95176" lon="4.72687">
        <ele>298</ele>
        <time>2023-06-17T09:50:26.000Z</time>
      </trkpt>
      <trkpt lat="46.9517" lon="4.72699">
        <ele>299</ele>
        <time>2023-06-17T09:50:31.000Z</time>
      </trkpt>
      <trkpt lat="46.95166" lon="4.72711">
        <ele>300.39999389648</ele>
        <time>2023-06-17T09:50:35.000Z</time>
      </trkpt>
      <trkpt lat="46.95161" lon="4.72725">
        <ele>301.79998779297</ele>
        <time>2023-06-17T09:50:40.000Z</time>
      </trkpt>
      <trkpt lat="46.95155" lon="4.72738">
        <ele>303.20001220703</ele>
        <time>2023-06-17T09:50:45.000Z</time>
      </trkpt>
      <trkpt lat="46.95148" lon="4.72752">
        <ele>304.20001220703</ele>
        <time>2023-06-17T09:50:50.000Z</time>
      </trkpt>
      <trkpt lat="46.95143" lon="4.72759">
        <ele>305</ele>
        <time>2023-06-17T09:50:53.000Z</time>
      </trkpt>
      <trkpt lat="46.95141" lon="4.72762">
        <ele>305.39999389648</ele>
        <time>2023-06-17T09:50:54.000Z</time>
      </trkpt>
      <trkpt lat="46.95135" lon="4.72771">
        <ele>305.79998779297</ele>
        <time>2023-06-17T09:50:57.000Z</time>
      </trkpt>
      <trkpt lat="46.9513" lon="4.72781">
        <ele>306.39999389648</ele>
        <time>2023-06-17T09:51:00.000Z</time>
      </trkpt>
      <trkpt lat="46.95128" lon="4.72785">
        <ele>306.60000610352</ele>
        <time>2023-06-17T09:51:01.000Z</time>
      </trkpt>
      <trkpt lat="46.95114" lon="4.72807">
        <ele>307.39999389648</ele>
        <time>2023-06-17T09:51:08.000Z</time>
      </trkpt>
      <trkpt lat="46.9511" lon="4.72814">
        <ele>307.60000610352</ele>
        <time>2023-06-17T09:51:10.000Z</time>
      </trkpt>
      <trkpt lat="46.95099" lon="4.72841">
        <ele>308.60000610352</ele>
        <time>2023-06-17T09:51:17.000Z</time>
      </trkpt>
      <trkpt lat="46.95097" lon="4.72849">
        <ele>308.79998779297</ele>
        <time>2023-06-17T09:51:19.000Z</time>
      </trkpt>
      <trkpt lat="46.9509" lon="4.72875">
        <ele>309.79998779297</ele>
        <time>2023-06-17T09:51:25.000Z</time>
      </trkpt>
      <trkpt lat="46.95087" lon="4.72883">
        <ele>310</ele>
        <time>2023-06-17T09:51:27.000Z</time>
      </trkpt>
      <trkpt lat="46.95075" lon="4.72921">
        <ele>310.60000610352</ele>
        <time>2023-06-17T09:51:35.000Z</time>
      </trkpt>
      <trkpt lat="46.9507" lon="4.72938">
        <ele>310.60000610352</ele>
        <time>2023-06-17T09:51:38.000Z</time>
      </trkpt>
      <trkpt lat="46.95066" lon="4.72956">
        <ele>309.79998779297</ele>
        <time>2023-06-17T09:51:41.000Z</time>
      </trkpt>
      <trkpt lat="46.95065" lon="4.72968">
        <ele>309.60000610352</ele>
        <time>2023-06-17T09:51:43.000Z</time>
      </trkpt>
      <trkpt lat="46.95061" lon="4.72979">
        <ele>309.39999389648</ele>
        <time>2023-06-17T09:51:45.000Z</time>
      </trkpt>
      <trkpt lat="46.95058" lon="4.72983">
        <ele>309.20001220703</ele>
        <time>2023-06-17T09:51:46.000Z</time>
      </trkpt>
      <trkpt lat="46.9504" lon="4.73008">
        <ele>309</ele>
        <time>2023-06-17T09:51:53.000Z</time>
      </trkpt>
      <trkpt lat="46.95032" lon="4.73023">
        <ele>310.20001220703</ele>
        <time>2023-06-17T09:51:58.000Z</time>
      </trkpt>
      <trkpt lat="46.95026" lon="4.73042">
        <ele>311.20001220703</ele>
        <time>2023-06-17T09:52:04.000Z</time>
      </trkpt>
      <trkpt lat="46.95023" lon="4.73051">
        <ele>312.20001220703</ele>
        <time>2023-06-17T09:52:07.000Z</time>
      </trkpt>
      <trkpt lat="46.95021" lon="4.73058">
        <ele>312.39999389648</ele>
        <time>2023-06-17T09:52:09.000Z</time>
      </trkpt>
      <trkpt lat="46.9502" lon="4.73062">
        <ele>312.60000610352</ele>
        <time>2023-06-17T09:52:10.000Z</time>
      </trkpt>
      <trkpt lat="46.95017" lon="4.73069">
        <ele>313.20001220703</ele>
        <time>2023-06-17T09:52:12.000Z</time>
      </trkpt>
      <trkpt lat="46.95014" lon="4.7308">
        <ele>314.39999389648</ele>
        <time>2023-06-17T09:52:15.000Z</time>
      </trkpt>
      <trkpt lat="46.95013" lon="4.73084">
        <ele>314.79998779297</ele>
        <time>2023-06-17T09:52:16.000Z</time>
      </trkpt>
      <trkpt lat="46.95009" lon="4.731">
        <ele>315.60000610352</ele>
        <time>2023-06-17T09:52:20.000Z</time>
      </trkpt>
      <trkpt lat="46.95008" lon="4.73113">
        <ele>316.39999389648</ele>
        <time>2023-06-17T09:52:23.000Z</time>
      </trkpt>
      <trkpt lat="46.95008" lon="4.73117">
        <ele>316.60000610352</ele>
        <time>2023-06-17T09:52:24.000Z</time>
      </trkpt>
      <trkpt lat="46.95007" lon="4.73134">
        <ele>317.60000610352</ele>
        <time>2023-06-17T09:52:28.000Z</time>
      </trkpt>
      <trkpt lat="46.95002" lon="4.73161">
        <ele>318.79998779297</ele>
        <time>2023-06-17T09:52:34.000Z</time>
      </trkpt>
      <trkpt lat="46.94992" lon="4.73187">
        <ele>319.20001220703</ele>
        <time>2023-06-17T09:52:40.000Z</time>
      </trkpt>
      <trkpt lat="46.94983" lon="4.73214">
        <ele>319.20001220703</ele>
        <time>2023-06-17T09:52:45.000Z</time>
      </trkpt>
      <trkpt lat="46.94981" lon="4.73221">
        <ele>319.20001220703</ele>
        <time>2023-06-17T09:52:46.000Z</time>
      </trkpt>
      <trkpt lat="46.94978" lon="4.73238">
        <ele>319.20001220703</ele>
        <time>2023-06-17T09:52:49.000Z</time>
      </trkpt>
      <trkpt lat="46.94975" lon="4.73252">
        <ele>319.39999389648</ele>
        <time>2023-06-17T09:52:51.000Z</time>
      </trkpt>
      <trkpt lat="46.94974" lon="4.73258">
        <ele>319.20001220703</ele>
        <time>2023-06-17T09:52:52.000Z</time>
      </trkpt>
      <trkpt lat="46.94977" lon="4.73275">
        <ele>319.60000610352</ele>
        <time>2023-06-17T09:52:56.000Z</time>
      </trkpt>
      <trkpt lat="46.94984" lon="4.73283">
        <ele>320</ele>
        <time>2023-06-17T09:53:00.000Z</time>
      </trkpt>
      <trkpt lat="46.94986" lon="4.73283">
        <ele>320.20001220703</ele>
        <time>2023-06-17T09:53:01.000Z</time>
      </trkpt>
      <trkpt lat="46.94993" lon="4.73283">
        <ele>321.20001220703</ele>
        <time>2023-06-17T09:53:05.000Z</time>
      </trkpt>
      <trkpt lat="46.94993" lon="4.73283">
        <ele>321.60000610352</ele>
        <time>2023-06-17T09:53:07.000Z</time>
      </trkpt>
      <trkpt lat="46.94991" lon="4.73284">
        <ele>322</ele>
        <time>2023-06-17T09:53:09.000Z</time>
      </trkpt>
      <trkpt lat="46.94986" lon="4.73286">
        <ele>322.20001220703</ele>
        <time>2023-06-17T09:53:12.000Z</time>
      </trkpt>
      <trkpt lat="46.94983" lon="4.73294">
        <ele>322.20001220703</ele>
        <time>2023-06-17T09:53:15.000Z</time>
      </trkpt>
      <trkpt lat="46.94985" lon="4.73305">
        <ele>322</ele>
        <time>2023-06-17T09:53:18.000Z</time>
      </trkpt>
      <trkpt lat="46.94992" lon="4.73327">
        <ele>322</ele>
        <time>2023-06-17T09:53:24.000Z</time>
      </trkpt>
      <trkpt lat="46.94999" lon="4.73357">
        <ele>322</ele>
        <time>2023-06-17T09:53:31.000Z</time>
      </trkpt>
      <trkpt lat="46.95008" lon="4.73386">
        <ele>322</ele>
        <time>2023-06-17T09:53:38.000Z</time>
      </trkpt>
      <trkpt lat="46.95014" lon="4.73402">
        <ele>322.20001220703</ele>
        <time>2023-06-17T09:53:42.000Z</time>
      </trkpt>
      <trkpt lat="46.95019" lon="4.73414">
        <ele>322.20001220703</ele>
        <time>2023-06-17T09:53:45.000Z</time>
      </trkpt>
      <trkpt lat="46.9503" lon="4.73438">
        <ele>322.39999389648</ele>
        <time>2023-06-17T09:53:51.000Z</time>
      </trkpt>
      <trkpt lat="46.95041" lon="4.7347">
        <ele>322.39999389648</ele>
        <time>2023-06-17T09:53:58.000Z</time>
      </trkpt>
      <trkpt lat="46.95044" lon="4.73506">
        <ele>321.79998779297</ele>
        <time>2023-06-17T09:54:05.000Z</time>
      </trkpt>
      <trkpt lat="46.95048" lon="4.73523">
        <ele>321</ele>
        <time>2023-06-17T09:54:08.000Z</time>
      </trkpt>
      <trkpt lat="46.95052" lon="4.73535">
        <ele>320.60000610352</ele>
        <time>2023-06-17T09:54:10.000Z</time>
      </trkpt>
      <trkpt lat="46.95056" lon="4.73547">
        <ele>320.39999389648</ele>
        <time>2023-06-17T09:54:12.000Z</time>
      </trkpt>
      <trkpt lat="46.95066" lon="4.73569">
        <ele>320</ele>
        <time>2023-06-17T09:54:16.000Z</time>
      </trkpt>
      <trkpt lat="46.95069" lon="4.73574">
        <ele>320</ele>
        <time>2023-06-17T09:54:17.000Z</time>
      </trkpt>
      <trkpt lat="46.95085" lon="4.73612">
        <ele>319.20001220703</ele>
        <time>2023-06-17T09:54:24.000Z</time>
      </trkpt>
      <trkpt lat="46.95096" lon="4.73638">
        <ele>319</ele>
        <time>2023-06-17T09:54:29.000Z</time>
      </trkpt>
      <trkpt lat="46.95099" lon="4.73643">
        <ele>319</ele>
        <time>2023-06-17T09:54:30.000Z</time>
      </trkpt>
      <trkpt lat="46.95111" lon="4.73654">
        <ele>318.60000610352</ele>
        <time>2023-06-17T09:54:33.000Z</time>
      </trkpt>
      <trkpt lat="46.95134" lon="4.73679">
        <ele>318</ele>
        <time>2023-06-17T09:54:40.000Z</time>
      </trkpt>
      <trkpt lat="46.95137" lon="4.73681">
        <ele>318</ele>
        <time>2023-06-17T09:54:41.000Z</time>
      </trkpt>
      <trkpt lat="46.95152" lon="4.73704">
        <ele>318.20001220703</ele>
        <time>2023-06-17T09:54:46.000Z</time>
      </trkpt>
      <trkpt lat="46.95158" lon="4.73715">
        <ele>318.20001220703</ele>
        <time>2023-06-17T09:54:48.000Z</time>
      </trkpt>
      <trkpt lat="46.9517" lon="4.73728">
        <ele>318.39999389648</ele>
        <time>2023-06-17T09:54:51.000Z</time>
      </trkpt>
      <trkpt lat="46.95178" lon="4.73735">
        <ele>318.39999389648</ele>
        <time>2023-06-17T09:54:53.000Z</time>
      </trkpt>
      <trkpt lat="46.95187" lon="4.7374">
        <ele>318.39999389648</ele>
        <time>2023-06-17T09:54:55.000Z</time>
      </trkpt>
      <trkpt lat="46.95199" lon="4.73749">
        <ele>318.20001220703</ele>
        <time>2023-06-17T09:54:58.000Z</time>
      </trkpt>
      <trkpt lat="46.95205" lon="4.73756">
        <ele>318</ele>
        <time>2023-06-17T09:55:00.000Z</time>
      </trkpt>
      <trkpt lat="46.95225" lon="4.73778">
        <ele>317.79998779297</ele>
        <time>2023-06-17T09:55:06.000Z</time>
      </trkpt>
      <trkpt lat="46.95252" lon="4.73804">
        <ele>317.60000610352</ele>
        <time>2023-06-17T09:55:12.000Z</time>
      </trkpt>
      <trkpt lat="46.95258" lon="4.73808">
        <ele>317.39999389648</ele>
        <time>2023-06-17T09:55:13.000Z</time>
      </trkpt>
      <trkpt lat="46.9527" lon="4.73813">
        <ele>317.39999389648</ele>
        <time>2023-06-17T09:55:15.000Z</time>
      </trkpt>
      <trkpt lat="46.95286" lon="4.73819">
        <ele>317.20001220703</ele>
        <time>2023-06-17T09:55:18.000Z</time>
      </trkpt>
      <trkpt lat="46.95298" lon="4.73825">
        <ele>317</ele>
        <time>2023-06-17T09:55:20.000Z</time>
      </trkpt>
      <trkpt lat="46.95315" lon="4.73836">
        <ele>316.79998779297</ele>
        <time>2023-06-17T09:55:23.000Z</time>
      </trkpt>
      <trkpt lat="46.95321" lon="4.73841">
        <ele>316.79998779297</ele>
        <time>2023-06-17T09:55:24.000Z</time>
      </trkpt>
      <trkpt lat="46.95357" lon="4.73881">
        <ele>315.60000610352</ele>
        <time>2023-06-17T09:55:30.000Z</time>
      </trkpt>
      <trkpt lat="46.95363" lon="4.73889">
        <ele>315.39999389648</ele>
        <time>2023-06-17T09:55:31.000Z</time>
      </trkpt>
      <trkpt lat="46.95375" lon="4.73903">
        <ele>314.60000610352</ele>
        <time>2023-06-17T09:55:33.000Z</time>
      </trkpt>
      <trkpt lat="46.95404" lon="4.73939">
        <ele>313.39999389648</ele>
        <time>2023-06-17T09:55:38.000Z</time>
      </trkpt>
      <trkpt lat="46.95427" lon="4.73983">
        <ele>312.20001220703</ele>
        <time>2023-06-17T09:55:43.000Z</time>
      </trkpt>
      <trkpt lat="46.95432" lon="4.73993">
        <ele>312.20001220703</ele>
        <time>2023-06-17T09:55:44.000Z</time>
      </trkpt>
      <trkpt lat="46.95448" lon="4.74021">
        <ele>311.20001220703</ele>
        <time>2023-06-17T09:55:47.000Z</time>
      </trkpt>
      <trkpt lat="46.95468" lon="4.74057">
        <ele>309.79998779297</ele>
        <time>2023-06-17T09:55:51.000Z</time>
      </trkpt>
      <trkpt lat="46.95475" lon="4.74075">
        <ele>308.60000610352</ele>
        <time>2023-06-17T09:55:53.000Z</time>
      </trkpt>
      <trkpt lat="46.95482" lon="4.74097">
        <ele>307.79998779297</ele>
        <time>2023-06-17T09:55:55.000Z</time>
      </trkpt>
      <trkpt lat="46.95485" lon="4.74109">
        <ele>307.60000610352</ele>
        <time>2023-06-17T09:55:56.000Z</time>
      </trkpt>
      <trkpt lat="46.95488" lon="4.74121">
        <ele>306.39999389648</ele>
        <time>2023-06-17T09:55:57.000Z</time>
      </trkpt>
      <trkpt lat="46.95495" lon="4.74148">
        <ele>304.60000610352</ele>
        <time>2023-06-17T09:55:59.000Z</time>
      </trkpt>
      <trkpt lat="46.95503" lon="4.74175">
        <ele>303.39999389648</ele>
        <time>2023-06-17T09:56:01.000Z</time>
      </trkpt>
      <trkpt lat="46.95513" lon="4.74201">
        <ele>302.39999389648</ele>
        <time>2023-06-17T09:56:03.000Z</time>
      </trkpt>
      <trkpt lat="46.95518" lon="4.74214">
        <ele>302</ele>
        <time>2023-06-17T09:56:04.000Z</time>
      </trkpt>
      <trkpt lat="46.95524" lon="4.74225">
        <ele>301.20001220703</ele>
        <time>2023-06-17T09:56:05.000Z</time>
      </trkpt>
      <trkpt lat="46.95529" lon="4.74232">
        <ele>300.20001220703</ele>
        <time>2023-06-17T09:56:06.000Z</time>
      </trkpt>
      <trkpt lat="46.95537" lon="4.7424">
        <ele>300</ele>
        <time>2023-06-17T09:56:07.000Z</time>
      </trkpt>
      <trkpt lat="46.95545" lon="4.74246">
        <ele>299.39999389648</ele>
        <time>2023-06-17T09:56:08.000Z</time>
      </trkpt>
      <trkpt lat="46.9556" lon="4.74254">
        <ele>298.20001220703</ele>
        <time>2023-06-17T09:56:10.000Z</time>
      </trkpt>
      <trkpt lat="46.95568" lon="4.74261">
        <ele>297.79998779297</ele>
        <time>2023-06-17T09:56:11.000Z</time>
      </trkpt>
      <trkpt lat="46.95577" lon="4.74276">
        <ele>297.20001220703</ele>
        <time>2023-06-17T09:56:13.000Z</time>
      </trkpt>
      <trkpt lat="46.95585" lon="4.74295">
        <ele>296.79998779297</ele>
        <time>2023-06-17T09:56:15.000Z</time>
      </trkpt>
      <trkpt lat="46.95601" lon="4.74331">
        <ele>296</ele>
        <time>2023-06-17T09:56:19.000Z</time>
      </trkpt>
      <trkpt lat="46.9561" lon="4.74357">
        <ele>294.79998779297</ele>
        <time>2023-06-17T09:56:22.000Z</time>
      </trkpt>
      <trkpt lat="46.95619" lon="4.74384">
        <ele>293.60000610352</ele>
        <time>2023-06-17T09:56:25.000Z</time>
      </trkpt>
      <trkpt lat="46.95624" lon="4.744">
        <ele>292.39999389648</ele>
        <time>2023-06-17T09:56:27.000Z</time>
      </trkpt>
      <trkpt lat="46.95627" lon="4.74411">
        <ele>290.79998779297</ele>
        <time>2023-06-17T09:56:29.000Z</time>
      </trkpt>
      <trkpt lat="46.95629" lon="4.74421">
        <ele>289</ele>
        <time>2023-06-17T09:56:31.000Z</time>
      </trkpt>
      <trkpt lat="46.9563" lon="4.74423">
        <ele>288.60000610352</ele>
        <time>2023-06-17T09:56:32.000Z</time>
      </trkpt>
      <trkpt lat="46.9563" lon="4.74424">
        <ele>288</ele>
        <time>2023-06-17T09:56:33.000Z</time>
      </trkpt>
      <trkpt lat="46.9563" lon="4.74424">
        <ele>287.20001220703</ele>
        <time>2023-06-17T09:56:35.000Z</time>
      </trkpt>
      <trkpt lat="46.95634" lon="4.74428">
        <ele>286.60000610352</ele>
        <time>2023-06-17T09:56:37.000Z</time>
      </trkpt>
      <trkpt lat="46.95645" lon="4.74442">
        <ele>285.60000610352</ele>
        <time>2023-06-17T09:56:42.000Z</time>
      </trkpt>
      <trkpt lat="46.95647" lon="4.74447">
        <ele>285.60000610352</ele>
        <time>2023-06-17T09:56:43.000Z</time>
      </trkpt>
      <trkpt lat="46.9566" lon="4.74476">
        <ele>285.20001220703</ele>
        <time>2023-06-17T09:56:47.000Z</time>
      </trkpt>
      <trkpt lat="46.95672" lon="4.74517">
        <ele>284.60000610352</ele>
        <time>2023-06-17T09:56:51.000Z</time>
      </trkpt>
      <trkpt lat="46.95676" lon="4.7453">
        <ele>284</ele>
        <time>2023-06-17T09:56:52.000Z</time>
      </trkpt>
      <trkpt lat="46.95677" lon="4.74552">
        <ele>283.39999389648</ele>
        <time>2023-06-17T09:56:54.000Z</time>
      </trkpt>
      <trkpt lat="46.95673" lon="4.74577">
        <ele>282.39999389648</ele>
        <time>2023-06-17T09:56:56.000Z</time>
      </trkpt>
      <trkpt lat="46.95669" lon="4.74591">
        <ele>282</ele>
        <time>2023-06-17T09:56:57.000Z</time>
      </trkpt>
      <trkpt lat="46.95661" lon="4.74617">
        <ele>281.20001220703</ele>
        <time>2023-06-17T09:56:59.000Z</time>
      </trkpt>
      <trkpt lat="46.95655" lon="4.7463">
        <ele>280.20001220703</ele>
        <time>2023-06-17T09:57:00.000Z</time>
      </trkpt>
      <trkpt lat="46.9565" lon="4.74642">
        <ele>279.20001220703</ele>
        <time>2023-06-17T09:57:01.000Z</time>
      </trkpt>
      <trkpt lat="46.95637" lon="4.74664">
        <ele>277.20001220703</ele>
        <time>2023-06-17T09:57:03.000Z</time>
      </trkpt>
      <trkpt lat="46.95623" lon="4.74686">
        <ele>275.20001220703</ele>
        <time>2023-06-17T09:57:05.000Z</time>
      </trkpt>
      <trkpt lat="46.9561" lon="4.74704">
        <ele>273.20001220703</ele>
        <time>2023-06-17T09:57:07.000Z</time>
      </trkpt>
      <trkpt lat="46.95599" lon="4.7472">
        <ele>272</ele>
        <time>2023-06-17T09:57:09.000Z</time>
      </trkpt>
      <trkpt lat="46.95596" lon="4.74729">
        <ele>270.79998779297</ele>
        <time>2023-06-17T09:57:10.000Z</time>
      </trkpt>
      <trkpt lat="46.95593" lon="4.74738">
        <ele>270</ele>
        <time>2023-06-17T09:57:11.000Z</time>
      </trkpt>
      <trkpt lat="46.9559" lon="4.74746">
        <ele>269</ele>
        <time>2023-06-17T09:57:12.000Z</time>
      </trkpt>
      <trkpt lat="46.95586" lon="4.74763">
        <ele>267.60000610352</ele>
        <time>2023-06-17T09:57:14.000Z</time>
      </trkpt>
      <trkpt lat="46.95588" lon="4.74779">
        <ele>266.60000610352</ele>
        <time>2023-06-17T09:57:16.000Z</time>
      </trkpt>
      <trkpt lat="46.95592" lon="4.74786">
        <ele>265.39999389648</ele>
        <time>2023-06-17T09:57:17.000Z</time>
      </trkpt>
      <trkpt lat="46.95601" lon="4.74799">
        <ele>263.79998779297</ele>
        <time>2023-06-17T09:57:19.000Z</time>
      </trkpt>
      <trkpt lat="46.95622" lon="4.74827">
        <ele>262.79998779297</ele>
        <time>2023-06-17T09:57:23.000Z</time>
      </trkpt>
      <trkpt lat="46.95662" lon="4.74881">
        <ele>261.79998779297</ele>
        <time>2023-06-17T09:57:30.000Z</time>
      </trkpt>
      <trkpt lat="46.95674" lon="4.74898">
        <ele>261.39999389648</ele>
        <time>2023-06-17T09:57:32.000Z</time>
      </trkpt>
      <trkpt lat="46.95692" lon="4.74925">
        <ele>260.60000610352</ele>
        <time>2023-06-17T09:57:35.000Z</time>
      </trkpt>
      <trkpt lat="46.95705" lon="4.74941">
        <ele>260.20001220703</ele>
        <time>2023-06-17T09:57:37.000Z</time>
      </trkpt>
      <trkpt lat="46.95725" lon="4.74964">
        <ele>259</ele>
        <time>2023-06-17T09:57:40.000Z</time>
      </trkpt>
      <trkpt lat="46.95732" lon="4.7497">
        <ele>258.79998779297</ele>
        <time>2023-06-17T09:57:41.000Z</time>
      </trkpt>
      <trkpt lat="46.95746" lon="4.74984">
        <ele>258</ele>
        <time>2023-06-17T09:57:43.000Z</time>
      </trkpt>
      <trkpt lat="46.95772" lon="4.75016">
        <ele>257.20001220703</ele>
        <time>2023-06-17T09:57:47.000Z</time>
      </trkpt>
      <trkpt lat="46.95782" lon="4.75035">
        <ele>256.79998779297</ele>
        <time>2023-06-17T09:57:49.000Z</time>
      </trkpt>
      <trkpt lat="46.95798" lon="4.7506">
        <ele>256.20001220703</ele>
        <time>2023-06-17T09:57:52.000Z</time>
      </trkpt>
      <trkpt lat="46.95804" lon="4.75068">
        <ele>256</ele>
        <time>2023-06-17T09:57:53.000Z</time>
      </trkpt>
      <trkpt lat="46.95811" lon="4.75074">
        <ele>255.80000305176</ele>
        <time>2023-06-17T09:57:54.000Z</time>
      </trkpt>
      <trkpt lat="46.95846" lon="4.75102">
        <ele>254.80000305176</ele>
        <time>2023-06-17T09:57:59.000Z</time>
      </trkpt>
      <trkpt lat="46.95846" lon="4.75102">
        <ele>254.80000305176</ele>
        <time>2023-06-17T09:58:00.000Z</time>
      </trkpt>
      <trkpt lat="46.95893" lon="4.75141">
        <ele>254.60000610352</ele>
        <time>2023-06-17T09:58:06.000Z</time>
      </trkpt>
      <trkpt lat="46.959" lon="4.75145">
        <ele>254.60000610352</ele>
        <time>2023-06-17T09:58:07.000Z</time>
      </trkpt>
      <trkpt lat="46.95954" lon="4.75181">
        <ele>255.60000610352</ele>
        <time>2023-06-17T09:58:16.000Z</time>
      </trkpt>
      <trkpt lat="46.95965" lon="4.7519">
        <ele>256</ele>
        <time>2023-06-17T09:58:18.000Z</time>
      </trkpt>
      <trkpt lat="46.95993" lon="4.75213">
        <ele>256.39999389648</ele>
        <time>2023-06-17T09:58:23.000Z</time>
      </trkpt>
      <trkpt lat="46.96037" lon="4.75252">
        <ele>256.79998779297</ele>
        <time>2023-06-17T09:58:31.000Z</time>
      </trkpt>
      <trkpt lat="46.96042" lon="4.75257">
        <ele>257</ele>
        <time>2023-06-17T09:58:32.000Z</time>
      </trkpt>
      <trkpt lat="46.96092" lon="4.75302">
        <ele>257.39999389648</ele>
        <time>2023-06-17T09:58:41.000Z</time>
      </trkpt>
      <trkpt lat="46.96143" lon="4.75348">
        <ele>257.39999389648</ele>
        <time>2023-06-17T09:58:50.000Z</time>
      </trkpt>
      <trkpt lat="46.96155" lon="4.75358">
        <ele>257.20001220703</ele>
        <time>2023-06-17T09:58:52.000Z</time>
      </trkpt>
      <trkpt lat="46.96187" lon="4.75388">
        <ele>256.60000610352</ele>
        <time>2023-06-17T09:58:58.000Z</time>
      </trkpt>
      <trkpt lat="46.96218" lon="4.7541">
        <ele>256</ele>
        <time>2023-06-17T09:59:03.000Z</time>
      </trkpt>
      <trkpt lat="46.96237" lon="4.75425">
        <ele>255.80000305176</ele>
        <time>2023-06-17T09:59:06.000Z</time>
      </trkpt>
      <trkpt lat="46.96265" lon="4.75454">
        <ele>255.19999694824</ele>
        <time>2023-06-17T09:59:11.000Z</time>
      </trkpt>
      <trkpt lat="46.9627" lon="4.75462">
        <ele>255.19999694824</ele>
        <time>2023-06-17T09:59:12.000Z</time>
      </trkpt>
      <trkpt lat="46.96274" lon="4.7547">
        <ele>255.19999694824</ele>
        <time>2023-06-17T09:59:13.000Z</time>
      </trkpt>
      <trkpt lat="46.96304" lon="4.75516">
        <ele>254.60000610352</ele>
        <time>2023-06-17T09:59:19.000Z</time>
      </trkpt>
      <trkpt lat="46.96309" lon="4.75522">
        <ele>254.60000610352</ele>
        <time>2023-06-17T09:59:20.000Z</time>
      </trkpt>
      <trkpt lat="46.96331" lon="4.75549">
        <ele>254</ele>
        <time>2023-06-17T09:59:24.000Z</time>
      </trkpt>
      <trkpt lat="46.96353" lon="4.75577">
        <ele>253.60000610352</ele>
        <time>2023-06-17T09:59:28.000Z</time>
      </trkpt>
      <trkpt lat="46.9637" lon="4.756">
        <ele>253.19999694824</ele>
        <time>2023-06-17T09:59:31.000Z</time>
      </trkpt>
      <trkpt lat="46.96383" lon="4.75617">
        <ele>253</ele>
        <time>2023-06-17T09:59:33.000Z</time>
      </trkpt>
      <trkpt lat="46.96401" lon="4.75647">
        <ele>252</ele>
        <time>2023-06-17T09:59:36.000Z</time>
      </trkpt>
      <trkpt lat="46.96407" lon="4.75656">
        <ele>251.39999389648</ele>
        <time>2023-06-17T09:59:37.000Z</time>
      </trkpt>
      <trkpt lat="46.96412" lon="4.75665">
        <ele>250.80000305176</ele>
        <time>2023-06-17T09:59:38.000Z</time>
      </trkpt>
      <trkpt lat="46.96437" lon="4.75698">
        <ele>249.60000610352</ele>
        <time>2023-06-17T09:59:42.000Z</time>
      </trkpt>
      <trkpt lat="46.96444" lon="4.75705">
        <ele>249</ele>
        <time>2023-06-17T09:59:43.000Z</time>
      </trkpt>
      <trkpt lat="46.96457" lon="4.7572">
        <ele>248.39999389648</ele>
        <time>2023-06-17T09:59:45.000Z</time>
      </trkpt>
      <trkpt lat="46.96462" lon="4.75728">
        <ele>248.19999694824</ele>
        <time>2023-06-17T09:59:46.000Z</time>
      </trkpt>
      <trkpt lat="46.96467" lon="4.75738">
        <ele>247.80000305176</ele>
        <time>2023-06-17T09:59:47.000Z</time>
      </trkpt>
      <trkpt lat="46.96479" lon="4.75768">
        <ele>247.39999389648</ele>
        <time>2023-06-17T09:59:50.000Z</time>
      </trkpt>
      <trkpt lat="46.96486" lon="4.75789">
        <ele>247</ele>
        <time>2023-06-17T09:59:52.000Z</time>
      </trkpt>
      <trkpt lat="46.96504" lon="4.75827">
        <ele>246.19999694824</ele>
        <time>2023-06-17T09:59:56.000Z</time>
      </trkpt>
      <trkpt lat="46.96513" lon="4.75845">
        <ele>245.80000305176</ele>
        <time>2023-06-17T09:59:58.000Z</time>
      </trkpt>
      <trkpt lat="46.96528" lon="4.75872">
        <ele>245</ele>
        <time>2023-06-17T10:00:01.000Z</time>
      </trkpt>
      <trkpt lat="46.9655" lon="4.75917">
        <ele>244</ele>
        <time>2023-06-17T10:00:06.000Z</time>
      </trkpt>
      <trkpt lat="46.96554" lon="4.75927">
        <ele>243.80000305176</ele>
        <time>2023-06-17T10:00:07.000Z</time>
      </trkpt>
      <trkpt lat="46.96573" lon="4.75965">
        <ele>242.80000305176</ele>
        <time>2023-06-17T10:00:11.000Z</time>
      </trkpt>
      <trkpt lat="46.96583" lon="4.75984">
        <ele>242.39999389648</ele>
        <time>2023-06-17T10:00:13.000Z</time>
      </trkpt>
      <trkpt lat="46.96587" lon="4.75995">
        <ele>242</ele>
        <time>2023-06-17T10:00:14.000Z</time>
      </trkpt>
      <trkpt lat="46.9659" lon="4.76006">
        <ele>241.60000610352</ele>
        <time>2023-06-17T10:00:15.000Z</time>
      </trkpt>
      <trkpt lat="46.96598" lon="4.76027">
        <ele>241</ele>
        <time>2023-06-17T10:00:17.000Z</time>
      </trkpt>
      <trkpt lat="46.96609" lon="4.76044">
        <ele>240.60000610352</ele>
        <time>2023-06-17T10:00:19.000Z</time>
      </trkpt>
      <trkpt lat="46.96615" lon="4.76052">
        <ele>240.39999389648</ele>
        <time>2023-06-17T10:00:20.000Z</time>
      </trkpt>
      <trkpt lat="46.96626" lon="4.76066">
        <ele>240</ele>
        <time>2023-06-17T10:00:22.000Z</time>
      </trkpt>
      <trkpt lat="46.9663" lon="4.76073">
        <ele>240</ele>
        <time>2023-06-17T10:00:23.000Z</time>
      </trkpt>
      <trkpt lat="46.96634" lon="4.76082">
        <ele>239.19999694824</ele>
        <time>2023-06-17T10:00:24.000Z</time>
      </trkpt>
      <trkpt lat="46.96645" lon="4.76111">
        <ele>238.39999389648</ele>
        <time>2023-06-17T10:00:27.000Z</time>
      </trkpt>
      <trkpt lat="46.96649" lon="4.76122">
        <ele>238</ele>
        <time>2023-06-17T10:00:28.000Z</time>
      </trkpt>
      <trkpt lat="46.96665" lon="4.76165">
        <ele>236.80000305176</ele>
        <time>2023-06-17T10:00:32.000Z</time>
      </trkpt>
      <trkpt lat="46.96677" lon="4.76198">
        <ele>236.19999694824</ele>
        <time>2023-06-17T10:00:35.000Z</time>
      </trkpt>
      <trkpt lat="46.96684" lon="4.7622">
        <ele>235.80000305176</ele>
        <time>2023-06-17T10:00:37.000Z</time>
      </trkpt>
      <trkpt lat="46.96688" lon="4.76243">
        <ele>235.19999694824</ele>
        <time>2023-06-17T10:00:39.000Z</time>
      </trkpt>
      <trkpt lat="46.96689" lon="4.76255">
        <ele>235</ele>
        <time>2023-06-17T10:00:40.000Z</time>
      </trkpt>
      <trkpt lat="46.9669" lon="4.7628">
        <ele>234.60000610352</ele>
        <time>2023-06-17T10:00:42.000Z</time>
      </trkpt>
      <trkpt lat="46.9669" lon="4.76329">
        <ele>234.19999694824</ele>
        <time>2023-06-17T10:00:46.000Z</time>
      </trkpt>
      <trkpt lat="46.96688" lon="4.76352">
        <ele>234</ele>
        <time>2023-06-17T10:00:48.000Z</time>
      </trkpt>
      <trkpt lat="46.96687" lon="4.76363">
        <ele>233.80000305176</ele>
        <time>2023-06-17T10:00:49.000Z</time>
      </trkpt>
      <trkpt lat="46.96675" lon="4.76418">
        <ele>232.60000610352</ele>
        <time>2023-06-17T10:00:54.000Z</time>
      </trkpt>
      <trkpt lat="46.96667" lon="4.76458">
        <ele>232</ele>
        <time>2023-06-17T10:00:58.000Z</time>
      </trkpt>
      <trkpt lat="46.96667" lon="4.76467">
        <ele>232</ele>
        <time>2023-06-17T10:00:59.000Z</time>
      </trkpt>
      <trkpt lat="46.96667" lon="4.76476">
        <ele>231.80000305176</ele>
        <time>2023-06-17T10:01:00.000Z</time>
      </trkpt>
      <trkpt lat="46.96673" lon="4.76493">
        <ele>231.39999389648</ele>
        <time>2023-06-17T10:01:02.000Z</time>
      </trkpt>
      <trkpt lat="46.96684" lon="4.76503">
        <ele>231.19999694824</ele>
        <time>2023-06-17T10:01:04.000Z</time>
      </trkpt>
      <trkpt lat="46.96691" lon="4.76508">
        <ele>231.19999694824</ele>
        <time>2023-06-17T10:01:05.000Z</time>
      </trkpt>
      <trkpt lat="46.96738" lon="4.76534">
        <ele>230.39999389648</ele>
        <time>2023-06-17T10:01:12.000Z</time>
      </trkpt>
      <trkpt lat="46.96744" lon="4.76538">
        <ele>230.39999389648</ele>
        <time>2023-06-17T10:01:13.000Z</time>
      </trkpt>
      <trkpt lat="46.96772" lon="4.76548">
        <ele>230.39999389648</ele>
        <time>2023-06-17T10:01:17.000Z</time>
      </trkpt>
      <trkpt lat="46.96822" lon="4.7656">
        <ele>230.39999389648</ele>
        <time>2023-06-17T10:01:24.000Z</time>
      </trkpt>
      <trkpt lat="46.96855" lon="4.76574">
        <ele>230.39999389648</ele>
        <time>2023-06-17T10:01:29.000Z</time>
      </trkpt>
      <trkpt lat="46.96897" lon="4.76607">
        <ele>230.39999389648</ele>
        <time>2023-06-17T10:01:36.000Z</time>
      </trkpt>
      <trkpt lat="46.96936" lon="4.76631">
        <ele>230.19999694824</ele>
        <time>2023-06-17T10:01:42.000Z</time>
      </trkpt>
      <trkpt lat="46.96978" lon="4.76657">
        <ele>230.19999694824</ele>
        <time>2023-06-17T10:01:49.000Z</time>
      </trkpt>
      <trkpt lat="46.97018" lon="4.76698">
        <ele>230.80000305176</ele>
        <time>2023-06-17T10:01:57.000Z</time>
      </trkpt>
      <trkpt lat="46.97048" lon="4.76727">
        <ele>231.19999694824</ele>
        <time>2023-06-17T10:02:03.000Z</time>
      </trkpt>
      <trkpt lat="46.97065" lon="4.76737">
        <ele>231.39999389648</ele>
        <time>2023-06-17T10:02:06.000Z</time>
      </trkpt>
      <trkpt lat="46.97075" lon="4.76745">
        <ele>231.60000610352</ele>
        <time>2023-06-17T10:02:08.000Z</time>
      </trkpt>
      <trkpt lat="46.9708" lon="4.76749">
        <ele>231.60000610352</ele>
        <time>2023-06-17T10:02:09.000Z</time>
      </trkpt>
      <trkpt lat="46.97095" lon="4.76762">
        <ele>231.80000305176</ele>
        <time>2023-06-17T10:02:12.000Z</time>
      </trkpt>
      <trkpt lat="46.97105" lon="4.76773">
        <ele>232.19999694824</ele>
        <time>2023-06-17T10:02:14.000Z</time>
      </trkpt>
      <trkpt lat="46.97123" lon="4.76795">
        <ele>232.39999389648</ele>
        <time>2023-06-17T10:02:18.000Z</time>
      </trkpt>
      <trkpt lat="46.97134" lon="4.76806">
        <ele>232.39999389648</ele>
        <time>2023-06-17T10:02:20.000Z</time>
      </trkpt>
      <trkpt lat="46.97164" lon="4.7683">
        <ele>232.80000305176</ele>
        <time>2023-06-17T10:02:26.000Z</time>
      </trkpt>
      <trkpt lat="46.9717" lon="4.76834">
        <ele>232.80000305176</ele>
        <time>2023-06-17T10:02:27.000Z</time>
      </trkpt>
      <trkpt lat="46.97213" lon="4.76868">
        <ele>233.19999694824</ele>
        <time>2023-06-17T10:02:35.000Z</time>
      </trkpt>
      <trkpt lat="46.97251" lon="4.76902">
        <ele>233.39999389648</ele>
        <time>2023-06-17T10:02:42.000Z</time>
      </trkpt>
      <trkpt lat="46.97255" lon="4.76907">
        <ele>233.39999389648</ele>
        <time>2023-06-17T10:02:43.000Z</time>
      </trkpt>
      <trkpt lat="46.97267" lon="4.76915">
        <ele>233.39999389648</ele>
        <time>2023-06-17T10:02:45.000Z</time>
      </trkpt>
      <trkpt lat="46.97276" lon="4.76922">
        <ele>233.39999389648</ele>
        <time>2023-06-17T10:02:47.000Z</time>
      </trkpt>
      <trkpt lat="46.97292" lon="4.76931">
        <ele>233.60000610352</ele>
        <time>2023-06-17T10:02:50.000Z</time>
      </trkpt>
      <trkpt lat="46.97304" lon="4.76932">
        <ele>233.60000610352</ele>
        <time>2023-06-17T10:02:52.000Z</time>
      </trkpt>
      <trkpt lat="46.9731" lon="4.76932">
        <ele>233.60000610352</ele>
        <time>2023-06-17T10:02:53.000Z</time>
      </trkpt>
      <trkpt lat="46.97333" lon="4.76939">
        <ele>233.80000305176</ele>
        <time>2023-06-17T10:02:57.000Z</time>
      </trkpt>
      <trkpt lat="46.97344" lon="4.76947">
        <ele>233.80000305176</ele>
        <time>2023-06-17T10:02:59.000Z</time>
      </trkpt>
      <trkpt lat="46.97358" lon="4.76963">
        <ele>233.80000305176</ele>
        <time>2023-06-17T10:03:02.000Z</time>
      </trkpt>
      <trkpt lat="46.97374" lon="4.76989">
        <ele>233.80000305176</ele>
        <time>2023-06-17T10:03:06.000Z</time>
      </trkpt>
      <trkpt lat="46.97383" lon="4.77001">
        <ele>234</ele>
        <time>2023-06-17T10:03:08.000Z</time>
      </trkpt>
      <trkpt lat="46.97414" lon="4.77038">
        <ele>234.19999694824</ele>
        <time>2023-06-17T10:03:15.000Z</time>
      </trkpt>
      <trkpt lat="46.97434" lon="4.77072">
        <ele>234</ele>
        <time>2023-06-17T10:03:20.000Z</time>
      </trkpt>
      <trkpt lat="46.97438" lon="4.77078">
        <ele>234</ele>
        <time>2023-06-17T10:03:21.000Z</time>
      </trkpt>
      <trkpt lat="46.97452" lon="4.77095">
        <ele>233.80000305176</ele>
        <time>2023-06-17T10:03:24.000Z</time>
      </trkpt>
      <trkpt lat="46.97471" lon="4.77118">
        <ele>233.39999389648</ele>
        <time>2023-06-17T10:03:28.000Z</time>
      </trkpt>
      <trkpt lat="46.97505" lon="4.77157">
        <ele>233.39999389648</ele>
        <time>2023-06-17T10:03:35.000Z</time>
      </trkpt>
      <trkpt lat="46.97525" lon="4.7718">
        <ele>233.39999389648</ele>
        <time>2023-06-17T10:03:39.000Z</time>
      </trkpt>
      <trkpt lat="46.97535" lon="4.77189">
        <ele>233.39999389648</ele>
        <time>2023-06-17T10:03:41.000Z</time>
      </trkpt>
      <trkpt lat="46.97565" lon="4.77214">
        <ele>233.60000610352</ele>
        <time>2023-06-17T10:03:47.000Z</time>
      </trkpt>
      <trkpt lat="46.97569" lon="4.7722">
        <ele>233.60000610352</ele>
        <time>2023-06-17T10:03:48.000Z</time>
      </trkpt>
      <trkpt lat="46.97573" lon="4.77226">
        <ele>233.80000305176</ele>
        <time>2023-06-17T10:03:49.000Z</time>
      </trkpt>
      <trkpt lat="46.9759" lon="4.7725">
        <ele>234.19999694824</ele>
        <time>2023-06-17T10:03:53.000Z</time>
      </trkpt>
      <trkpt lat="46.97622" lon="4.77293">
        <ele>234.39999389648</ele>
        <time>2023-06-17T10:04:00.000Z</time>
      </trkpt>
      <trkpt lat="46.97655" lon="4.7734">
        <ele>234.39999389648</ele>
        <time>2023-06-17T10:04:08.000Z</time>
      </trkpt>
      <trkpt lat="46.97691" lon="4.7739">
        <ele>233.60000610352</ele>
        <time>2023-06-17T10:04:17.000Z</time>
      </trkpt>
      <trkpt lat="46.97696" lon="4.77402">
        <ele>233.39999389648</ele>
        <time>2023-06-17T10:04:19.000Z</time>
      </trkpt>
      <trkpt lat="46.97696" lon="4.7741">
        <ele>233.39999389648</ele>
        <time>2023-06-17T10:04:20.000Z</time>
      </trkpt>
      <trkpt lat="46.97696" lon="4.77418">
        <ele>233.19999694824</ele>
        <time>2023-06-17T10:04:21.000Z</time>
      </trkpt>
      <trkpt lat="46.9769" lon="4.77432">
        <ele>233</ele>
        <time>2023-06-17T10:04:23.000Z</time>
      </trkpt>
      <trkpt lat="46.97675" lon="4.77458">
        <ele>232</ele>
        <time>2023-06-17T10:04:27.000Z</time>
      </trkpt>
      <trkpt lat="46.97662" lon="4.77479">
        <ele>231.39999389648</ele>
        <time>2023-06-17T10:04:30.000Z</time>
      </trkpt>
      <trkpt lat="46.97653" lon="4.77494">
        <ele>231</ele>
        <time>2023-06-17T10:04:32.000Z</time>
      </trkpt>
      <trkpt lat="46.97627" lon="4.77539">
        <ele>230</ele>
        <time>2023-06-17T10:04:38.000Z</time>
      </trkpt>
      <trkpt lat="46.97601" lon="4.77598">
        <ele>229.19999694824</ele>
        <time>2023-06-17T10:04:45.000Z</time>
      </trkpt>
      <trkpt lat="46.97578" lon="4.77659">
        <ele>229</ele>
        <time>2023-06-17T10:04:52.000Z</time>
      </trkpt>
      <trkpt lat="46.97559" lon="4.77721">
        <ele>229</ele>
        <time>2023-06-17T10:04:59.000Z</time>
      </trkpt>
      <trkpt lat="46.97556" lon="4.77731">
        <ele>228.80000305176</ele>
        <time>2023-06-17T10:05:00.000Z</time>
      </trkpt>
      <trkpt lat="46.97535" lon="4.77805">
        <ele>228</ele>
        <time>2023-06-17T10:05:08.000Z</time>
      </trkpt>
      <trkpt lat="46.97532" lon="4.77814">
        <ele>228</ele>
        <time>2023-06-17T10:05:09.000Z</time>
      </trkpt>
      <trkpt lat="46.97529" lon="4.77823">
        <ele>228</ele>
        <time>2023-06-17T10:05:10.000Z</time>
      </trkpt>
      <trkpt lat="46.97515" lon="4.77869">
        <ele>227.80000305176</ele>
        <time>2023-06-17T10:05:15.000Z</time>
      </trkpt>
      <trkpt lat="46.97508" lon="4.77886">
        <ele>227.80000305176</ele>
        <time>2023-06-17T10:05:17.000Z</time>
      </trkpt>
      <trkpt lat="46.97488" lon="4.7795">
        <ele>227.39999389648</ele>
        <time>2023-06-17T10:05:24.000Z</time>
      </trkpt>
      <trkpt lat="46.97477" lon="4.77987">
        <ele>227</ele>
        <time>2023-06-17T10:05:28.000Z</time>
      </trkpt>
      <trkpt lat="46.97466" lon="4.78024">
        <ele>226.80000305176</ele>
        <time>2023-06-17T10:05:32.000Z</time>
      </trkpt>
      <trkpt lat="46.97443" lon="4.78098">
        <ele>226.39999389648</ele>
        <time>2023-06-17T10:05:40.000Z</time>
      </trkpt>
      <trkpt lat="46.97437" lon="4.78116">
        <ele>226.19999694824</ele>
        <time>2023-06-17T10:05:42.000Z</time>
      </trkpt>
      <trkpt lat="46.97425" lon="4.78153">
        <ele>226</ele>
        <time>2023-06-17T10:05:46.000Z</time>
      </trkpt>
      <trkpt lat="46.97409" lon="4.78198">
        <ele>225.39999389648</ele>
        <time>2023-06-17T10:05:51.000Z</time>
      </trkpt>
      <trkpt lat="46.9739" lon="4.78248">
        <ele>224.80000305176</ele>
        <time>2023-06-17T10:05:57.000Z</time>
      </trkpt>
      <trkpt lat="46.97384" lon="4.78264">
        <ele>224.60000610352</ele>
        <time>2023-06-17T10:05:59.000Z</time>
      </trkpt>
      <trkpt lat="46.97368" lon="4.78296">
        <ele>224.39999389648</ele>
        <time>2023-06-17T10:06:04.000Z</time>
      </trkpt>
      <trkpt lat="46.97358" lon="4.78314">
        <ele>224.19999694824</ele>
        <time>2023-06-17T10:06:09.000Z</time>
      </trkpt>
      <trkpt lat="46.97357" lon="4.78315">
        <ele>224.19999694824</ele>
        <time>2023-06-17T10:06:12.000Z</time>
      </trkpt>
      <trkpt lat="46.97354" lon="4.7832">
        <ele>223.39999389648</ele>
        <time>2023-06-17T10:06:39.000Z</time>
      </trkpt>
      <trkpt lat="46.97343" lon="4.78344">
        <ele>223.19999694824</ele>
        <time>2023-06-17T10:06:44.000Z</time>
      </trkpt>
      <trkpt lat="46.97329" lon="4.78381">
        <ele>223.19999694824</ele>
        <time>2023-06-17T10:06:49.000Z</time>
      </trkpt>
      <trkpt lat="46.97304" lon="4.78443">
        <ele>223.19999694824</ele>
        <time>2023-06-17T10:06:57.000Z</time>
      </trkpt>
      <trkpt lat="46.97279" lon="4.78513">
        <ele>223</ele>
        <time>2023-06-17T10:07:06.000Z</time>
      </trkpt>
      <trkpt lat="46.97277" lon="4.78519">
        <ele>223</ele>
        <time>2023-06-17T10:07:07.000Z</time>
      </trkpt>
      <trkpt lat="46.97249" lon="4.78571">
        <ele>223.39999389648</ele>
        <time>2023-06-17T10:07:14.000Z</time>
      </trkpt>
      <trkpt lat="46.9723" lon="4.78597">
        <ele>223.39999389648</ele>
        <time>2023-06-17T10:07:18.000Z</time>
      </trkpt>
      <trkpt lat="46.97213" lon="4.78621">
        <ele>223.19999694824</ele>
        <time>2023-06-17T10:07:22.000Z</time>
      </trkpt>
      <trkpt lat="46.97177" lon="4.78676">
        <ele>222.80000305176</ele>
        <time>2023-06-17T10:07:30.000Z</time>
      </trkpt>
      <trkpt lat="46.97147" lon="4.7873">
        <ele>222.39999389648</ele>
        <time>2023-06-17T10:07:37.000Z</time>
      </trkpt>
      <trkpt lat="46.97143" lon="4.78738">
        <ele>222.39999389648</ele>
        <time>2023-06-17T10:07:38.000Z</time>
      </trkpt>
      <trkpt lat="46.97107" lon="4.78807">
        <ele>221.60000610352</ele>
        <time>2023-06-17T10:07:47.000Z</time>
      </trkpt>
      <trkpt lat="46.97103" lon="4.78815">
        <ele>221.60000610352</ele>
        <time>2023-06-17T10:07:48.000Z</time>
      </trkpt>
      <trkpt lat="46.97083" lon="4.78851">
        <ele>221.39999389648</ele>
        <time>2023-06-17T10:07:53.000Z</time>
      </trkpt>
      <trkpt lat="46.97067" lon="4.78873">
        <ele>221.19999694824</ele>
        <time>2023-06-17T10:07:56.000Z</time>
      </trkpt>
      <trkpt lat="46.9702" lon="4.78925">
        <ele>220.60000610352</ele>
        <time>2023-06-17T10:08:05.000Z</time>
      </trkpt>
      <trkpt lat="46.9697" lon="4.78958">
        <ele>220.39999389648</ele>
        <time>2023-06-17T10:08:13.000Z</time>
      </trkpt>
      <trkpt lat="46.96964" lon="4.78963">
        <ele>220.39999389648</ele>
        <time>2023-06-17T10:08:14.000Z</time>
      </trkpt>
      <trkpt lat="46.96917" lon="4.79001">
        <ele>220.19999694824</ele>
        <time>2023-06-17T10:08:22.000Z</time>
      </trkpt>
      <trkpt lat="46.96905" lon="4.7901">
        <ele>220</ele>
        <time>2023-06-17T10:08:24.000Z</time>
      </trkpt>
      <trkpt lat="46.96853" lon="4.79053">
        <ele>219.39999389648</ele>
        <time>2023-06-17T10:08:33.000Z</time>
      </trkpt>
      <trkpt lat="46.96847" lon="4.79058">
        <ele>219.39999389648</ele>
        <time>2023-06-17T10:08:34.000Z</time>
      </trkpt>
      <trkpt lat="46.9684" lon="4.79064">
        <ele>219.39999389648</ele>
        <time>2023-06-17T10:08:35.000Z</time>
      </trkpt>
      <trkpt lat="46.96789" lon="4.79109">
        <ele>219.39999389648</ele>
        <time>2023-06-17T10:08:44.000Z</time>
      </trkpt>
      <trkpt lat="46.96779" lon="4.7912">
        <ele>219.39999389648</ele>
        <time>2023-06-17T10:08:46.000Z</time>
      </trkpt>
      <trkpt lat="46.96742" lon="4.79171">
        <ele>219.80000305176</ele>
        <time>2023-06-17T10:08:54.000Z</time>
      </trkpt>
      <trkpt lat="46.96716" lon="4.79223">
        <ele>220.39999389648</ele>
        <time>2023-06-17T10:09:02.000Z</time>
      </trkpt>
      <trkpt lat="46.96713" lon="4.79229">
        <ele>220.60000610352</ele>
        <time>2023-06-17T10:09:03.000Z</time>
      </trkpt>
      <trkpt lat="46.96697" lon="4.7927">
        <ele>221.60000610352</ele>
        <time>2023-06-17T10:09:09.000Z</time>
      </trkpt>
      <trkpt lat="46.96692" lon="4.79283">
        <ele>222</ele>
        <time>2023-06-17T10:09:11.000Z</time>
      </trkpt>
      <trkpt lat="46.96679" lon="4.79315">
        <ele>222.80000305176</ele>
        <time>2023-06-17T10:09:16.000Z</time>
      </trkpt>
      <trkpt lat="46.96662" lon="4.7936">
        <ele>223.39999389648</ele>
        <time>2023-06-17T10:09:22.000Z</time>
      </trkpt>
      <trkpt lat="46.96639" lon="4.79419">
        <ele>223.19999694824</ele>
        <time>2023-06-17T10:09:29.000Z</time>
      </trkpt>
      <trkpt lat="46.96627" lon="4.79478">
        <ele>222</ele>
        <time>2023-06-17T10:09:35.000Z</time>
      </trkpt>
      <trkpt lat="46.96625" lon="4.79489">
        <ele>221.80000305176</ele>
        <time>2023-06-17T10:09:36.000Z</time>
      </trkpt>
      <trkpt lat="46.96622" lon="4.79547">
        <ele>220.39999389648</ele>
        <time>2023-06-17T10:09:41.000Z</time>
      </trkpt>
      <trkpt lat="46.96623" lon="4.79584">
        <ele>219.39999389648</ele>
        <time>2023-06-17T10:09:44.000Z</time>
      </trkpt>
      <trkpt lat="46.96626" lon="4.79612">
        <ele>218.39999389648</ele>
        <time>2023-06-17T10:09:46.000Z</time>
      </trkpt>
      <trkpt lat="46.96635" lon="4.79659">
        <ele>217</ele>
        <time>2023-06-17T10:09:50.000Z</time>
      </trkpt>
      <trkpt lat="46.96642" lon="4.79684">
        <ele>216.39999389648</ele>
        <time>2023-06-17T10:09:52.000Z</time>
      </trkpt>
      <trkpt lat="46.96648" lon="4.79704">
        <ele>216</ele>
        <time>2023-06-17T10:09:54.000Z</time>
      </trkpt>
      <trkpt lat="46.96664" lon="4.79747">
        <ele>215.39999389648</ele>
        <time>2023-06-17T10:09:58.000Z</time>
      </trkpt>
      <trkpt lat="46.96688" lon="4.79817">
        <ele>215</ele>
        <time>2023-06-17T10:10:05.000Z</time>
      </trkpt>
      <trkpt lat="46.96691" lon="4.79828">
        <ele>215</ele>
        <time>2023-06-17T10:10:06.000Z</time>
      </trkpt>
      <trkpt lat="46.96703" lon="4.7989">
        <ele>215</ele>
        <time>2023-06-17T10:10:12.000Z</time>
      </trkpt>
      <trkpt lat="46.96708" lon="4.79959">
        <ele>214.60000610352</ele>
        <time>2023-06-17T10:10:19.000Z</time>
      </trkpt>
      <trkpt lat="46.96704" lon="4.80039">
        <ele>214.60000610352</ele>
        <time>2023-06-17T10:10:27.000Z</time>
      </trkpt>
      <trkpt lat="46.96703" lon="4.80049">
        <ele>214.60000610352</ele>
        <time>2023-06-17T10:10:28.000Z</time>
      </trkpt>
      <trkpt lat="46.96698" lon="4.80121">
        <ele>214</ele>
        <time>2023-06-17T10:10:35.000Z</time>
      </trkpt>
      <trkpt lat="46.96694" lon="4.8018">
        <ele>213.80000305176</ele>
        <time>2023-06-17T10:10:41.000Z</time>
      </trkpt>
      <trkpt lat="46.96687" lon="4.80261">
        <ele>213.19999694824</ele>
        <time>2023-06-17T10:10:49.000Z</time>
      </trkpt>
      <trkpt lat="46.96685" lon="4.80279">
        <ele>213</ele>
        <time>2023-06-17T10:10:51.000Z</time>
      </trkpt>
      <trkpt lat="46.96682" lon="4.80311">
        <ele>212.80000305176</ele>
        <time>2023-06-17T10:10:54.000Z</time>
      </trkpt>
      <trkpt lat="46.96673" lon="4.8039">
        <ele>212.39999389648</ele>
        <time>2023-06-17T10:11:02.000Z</time>
      </trkpt>
      <trkpt lat="46.96672" lon="4.804">
        <ele>212.39999389648</ele>
        <time>2023-06-17T10:11:03.000Z</time>
      </trkpt>
      <trkpt lat="46.96662" lon="4.80486">
        <ele>212.19999694824</ele>
        <time>2023-06-17T10:11:12.000Z</time>
      </trkpt>
      <trkpt lat="46.9666" lon="4.80505">
        <ele>212.19999694824</ele>
        <time>2023-06-17T10:11:14.000Z</time>
      </trkpt>
      <trkpt lat="46.9665" lon="4.80589">
        <ele>211.60000610352</ele>
        <time>2023-06-17T10:11:23.000Z</time>
      </trkpt>
      <trkpt lat="46.96647" lon="4.80606">
        <ele>211.60000610352</ele>
        <time>2023-06-17T10:11:25.000Z</time>
      </trkpt>
      <trkpt lat="46.96643" lon="4.80646">
        <ele>211.19999694824</ele>
        <time>2023-06-17T10:11:29.000Z</time>
      </trkpt>
      <trkpt lat="46.96635" lon="4.80702">
        <ele>210.80000305176</ele>
        <time>2023-06-17T10:11:35.000Z</time>
      </trkpt>
      <trkpt lat="46.96625" lon="4.8078">
        <ele>210.39999389648</ele>
        <time>2023-06-17T10:11:43.000Z</time>
      </trkpt>
      <trkpt lat="46.96624" lon="4.80788">
        <ele>210.19999694824</ele>
        <time>2023-06-17T10:11:44.000Z</time>
      </trkpt>
      <trkpt lat="46.96613" lon="4.80865">
        <ele>209.60000610352</ele>
        <time>2023-06-17T10:11:52.000Z</time>
      </trkpt>
      <trkpt lat="46.96609" lon="4.80884">
        <ele>209.39999389648</ele>
        <time>2023-06-17T10:11:54.000Z</time>
      </trkpt>
      <trkpt lat="46.96603" lon="4.80911">
        <ele>209.19999694824</ele>
        <time>2023-06-17T10:11:57.000Z</time>
      </trkpt>
      <trkpt lat="46.96586" lon="4.80965">
        <ele>208.80000305176</ele>
        <time>2023-06-17T10:12:03.000Z</time>
      </trkpt>
      <trkpt lat="46.96563" lon="4.81034">
        <ele>208.19999694824</ele>
        <time>2023-06-17T10:12:11.000Z</time>
      </trkpt>
      <trkpt lat="46.96554" lon="4.81063">
        <ele>208.19999694824</ele>
        <time>2023-06-17T10:12:14.000Z</time>
      </trkpt>
      <trkpt lat="46.96527" lon="4.81143">
        <ele>207.80000305176</ele>
        <time>2023-06-17T10:12:23.000Z</time>
      </trkpt>
      <trkpt lat="46.96501" lon="4.81218">
        <ele>207.19999694824</ele>
        <time>2023-06-17T10:12:32.000Z</time>
      </trkpt>
      <trkpt lat="46.96493" lon="4.81243">
        <ele>207.19999694824</ele>
        <time>2023-06-17T10:12:35.000Z</time>
      </trkpt>
      <trkpt lat="46.96466" lon="4.81321">
        <ele>206.60000610352</ele>
        <time>2023-06-17T10:12:44.000Z</time>
      </trkpt>
      <trkpt lat="46.96446" lon="4.8138">
        <ele>206.19999694824</ele>
        <time>2023-06-17T10:12:51.000Z</time>
      </trkpt>
      <trkpt lat="46.96427" lon="4.81431">
        <ele>205.80000305176</ele>
        <time>2023-06-17T10:12:57.000Z</time>
      </trkpt>
      <trkpt lat="46.96401" lon="4.81506">
        <ele>205.80000305176</ele>
        <time>2023-06-17T10:13:06.000Z</time>
      </trkpt>
      <trkpt lat="46.96393" lon="4.81529">
        <ele>205.60000610352</ele>
        <time>2023-06-17T10:13:09.000Z</time>
      </trkpt>
      <trkpt lat="46.96366" lon="4.81605">
        <ele>205.39999389648</ele>
        <time>2023-06-17T10:13:18.000Z</time>
      </trkpt>
      <trkpt lat="46.96363" lon="4.81611">
        <ele>205.39999389648</ele>
        <time>2023-06-17T10:13:19.000Z</time>
      </trkpt>
      <trkpt lat="46.96354" lon="4.81637">
        <ele>205.19999694824</ele>
        <time>2023-06-17T10:13:22.000Z</time>
      </trkpt>
      <trkpt lat="46.96331" lon="4.81687">
        <ele>205</ele>
        <time>2023-06-17T10:13:29.000Z</time>
      </trkpt>
      <trkpt lat="46.96323" lon="4.81702">
        <ele>204.80000305176</ele>
        <time>2023-06-17T10:13:31.000Z</time>
      </trkpt>
      <trkpt lat="46.9631" lon="4.81719">
        <ele>204.60000610352</ele>
        <time>2023-06-17T10:13:34.000Z</time>
      </trkpt>
      <trkpt lat="46.96307" lon="4.81734">
        <ele>204.60000610352</ele>
        <time>2023-06-17T10:13:36.000Z</time>
      </trkpt>
      <trkpt lat="46.96308" lon="4.81741">
        <ele>204.39999389648</ele>
        <time>2023-06-17T10:13:37.000Z</time>
      </trkpt>
      <trkpt lat="46.96311" lon="4.81748">
        <ele>204.39999389648</ele>
        <time>2023-06-17T10:13:38.000Z</time>
      </trkpt>
      <trkpt lat="46.96317" lon="4.81753">
        <ele>204.39999389648</ele>
        <time>2023-06-17T10:13:39.000Z</time>
      </trkpt>
      <trkpt lat="46.96323" lon="4.81754">
        <ele>204.39999389648</ele>
        <time>2023-06-17T10:13:40.000Z</time>
      </trkpt>
      <trkpt lat="46.96334" lon="4.81751">
        <ele>204.39999389648</ele>
        <time>2023-06-17T10:13:42.000Z</time>
      </trkpt>
      <trkpt lat="46.96347" lon="4.81749">
        <ele>204.39999389648</ele>
        <time>2023-06-17T10:13:44.000Z</time>
      </trkpt>
      <trkpt lat="46.96358" lon="4.81752">
        <ele>204.39999389648</ele>
        <time>2023-06-17T10:13:46.000Z</time>
      </trkpt>
      <trkpt lat="46.96409" lon="4.81768">
        <ele>204.39999389648</ele>
        <time>2023-06-17T10:13:54.000Z</time>
      </trkpt>
      <trkpt lat="46.96451" lon="4.81775">
        <ele>204.39999389648</ele>
        <time>2023-06-17T10:14:01.000Z</time>
      </trkpt>
      <trkpt lat="46.96506" lon="4.81765">
        <ele>204.80000305176</ele>
        <time>2023-06-17T10:14:10.000Z</time>
      </trkpt>
      <trkpt lat="46.96563" lon="4.81753">
        <ele>205.39999389648</ele>
        <time>2023-06-17T10:14:19.000Z</time>
      </trkpt>
      <trkpt lat="46.96587" lon="4.81748">
        <ele>205.39999389648</ele>
        <time>2023-06-17T10:14:23.000Z</time>
      </trkpt>
      <trkpt lat="46.96642" lon="4.81736">
        <ele>205.60000610352</ele>
        <time>2023-06-17T10:14:33.000Z</time>
      </trkpt>
      <trkpt lat="46.96696" lon="4.81725">
        <ele>205.80000305176</ele>
        <time>2023-06-17T10:14:42.000Z</time>
      </trkpt>
      <trkpt lat="46.96744" lon="4.81723">
        <ele>206.60000610352</ele>
        <time>2023-06-17T10:14:50.000Z</time>
      </trkpt>
      <trkpt lat="46.96793" lon="4.81741">
        <ele>207.39999389648</ele>
        <time>2023-06-17T10:14:58.000Z</time>
      </trkpt>
      <trkpt lat="46.96849" lon="4.81764">
        <ele>207.39999389648</ele>
        <time>2023-06-17T10:15:07.000Z</time>
      </trkpt>
      <trkpt lat="46.96855" lon="4.81767">
        <ele>207.39999389648</ele>
        <time>2023-06-17T10:15:08.000Z</time>
      </trkpt>
      <trkpt lat="46.96911" lon="4.8179">
        <ele>207.19999694824</ele>
        <time>2023-06-17T10:15:17.000Z</time>
      </trkpt>
      <trkpt lat="46.96936" lon="4.818">
        <ele>206.80000305176</ele>
        <time>2023-06-17T10:15:21.000Z</time>
      </trkpt>
      <trkpt lat="46.96991" lon="4.81809">
        <ele>206.80000305176</ele>
        <time>2023-06-17T10:15:30.000Z</time>
      </trkpt>
      <trkpt lat="46.97048" lon="4.81811">
        <ele>207.19999694824</ele>
        <time>2023-06-17T10:15:39.000Z</time>
      </trkpt>
      <trkpt lat="46.97055" lon="4.81811">
        <ele>207.19999694824</ele>
        <time>2023-06-17T10:15:40.000Z</time>
      </trkpt>
      <trkpt lat="46.97107" lon="4.81818">
        <ele>206.80000305176</ele>
        <time>2023-06-17T10:15:48.000Z</time>
      </trkpt>
      <trkpt lat="46.97159" lon="4.81842">
        <ele>207</ele>
        <time>2023-06-17T10:15:56.000Z</time>
      </trkpt>
      <trkpt lat="46.97211" lon="4.81869">
        <ele>206.80000305176</ele>
        <time>2023-06-17T10:16:04.000Z</time>
      </trkpt>
      <trkpt lat="46.97237" lon="4.81883">
        <ele>206.19999694824</ele>
        <time>2023-06-17T10:16:08.000Z</time>
      </trkpt>
      <trkpt lat="46.97288" lon="4.81907">
        <ele>205.80000305176</ele>
        <time>2023-06-17T10:16:16.000Z</time>
      </trkpt>
      <trkpt lat="46.97294" lon="4.81909">
        <ele>205.80000305176</ele>
        <time>2023-06-17T10:16:17.000Z</time>
      </trkpt>
      <trkpt lat="46.97337" lon="4.81925">
        <ele>205.80000305176</ele>
        <time>2023-06-17T10:16:24.000Z</time>
      </trkpt>
      <trkpt lat="46.97379" lon="4.81938">
        <ele>206.60000610352</ele>
        <time>2023-06-17T10:16:31.000Z</time>
      </trkpt>
      <trkpt lat="46.97415" lon="4.81944">
        <ele>207</ele>
        <time>2023-06-17T10:16:37.000Z</time>
      </trkpt>
      <trkpt lat="46.97427" lon="4.81945">
        <ele>207.19999694824</ele>
        <time>2023-06-17T10:16:39.000Z</time>
      </trkpt>
      <trkpt lat="46.97483" lon="4.81952">
        <ele>208</ele>
        <time>2023-06-17T10:16:49.000Z</time>
      </trkpt>
      <trkpt lat="46.97489" lon="4.81952">
        <ele>208</ele>
        <time>2023-06-17T10:16:50.000Z</time>
      </trkpt>
      <trkpt lat="46.975" lon="4.81955">
        <ele>208</ele>
        <time>2023-06-17T10:16:52.000Z</time>
      </trkpt>
      <trkpt lat="46.97538" lon="4.81964">
        <ele>208.39999389648</ele>
        <time>2023-06-17T10:16:59.000Z</time>
      </trkpt>
      <trkpt lat="46.97588" lon="4.81977">
        <ele>208.80000305176</ele>
        <time>2023-06-17T10:17:08.000Z</time>
      </trkpt>
      <trkpt lat="46.97609" lon="4.81984">
        <ele>209.19999694824</ele>
        <time>2023-06-17T10:17:12.000Z</time>
      </trkpt>
      <trkpt lat="46.97637" lon="4.81991">
        <ele>209.19999694824</ele>
        <time>2023-06-17T10:17:17.000Z</time>
      </trkpt>
      <trkpt lat="46.97689" lon="4.82005">
        <ele>209.60000610352</ele>
        <time>2023-06-17T10:17:27.000Z</time>
      </trkpt>
      <trkpt lat="46.97744" lon="4.82021">
        <ele>209.60000610352</ele>
        <time>2023-06-17T10:17:35.000Z</time>
      </trkpt>
      <trkpt lat="46.97799" lon="4.82037">
        <ele>209.39999389648</ele>
        <time>2023-06-17T10:17:44.000Z</time>
      </trkpt>
      <trkpt lat="46.97806" lon="4.82039">
        <ele>209.39999389648</ele>
        <time>2023-06-17T10:17:45.000Z</time>
      </trkpt>
      <trkpt lat="46.97859" lon="4.82055">
        <ele>208.80000305176</ele>
        <time>2023-06-17T10:17:53.000Z</time>
      </trkpt>
      <trkpt lat="46.97884" lon="4.82063">
        <ele>208.19999694824</ele>
        <time>2023-06-17T10:17:57.000Z</time>
      </trkpt>
      <trkpt lat="46.9794" lon="4.8208">
        <ele>208</ele>
        <time>2023-06-17T10:18:06.000Z</time>
      </trkpt>
      <trkpt lat="46.97964" lon="4.82087">
        <ele>208.19999694824</ele>
        <time>2023-06-17T10:18:10.000Z</time>
      </trkpt>
      <trkpt lat="46.9802" lon="4.82104">
        <ele>208.19999694824</ele>
        <time>2023-06-17T10:18:19.000Z</time>
      </trkpt>
      <trkpt lat="46.98026" lon="4.82106">
        <ele>208.19999694824</ele>
        <time>2023-06-17T10:18:20.000Z</time>
      </trkpt>
      <trkpt lat="46.98084" lon="4.82123">
        <ele>207.80000305176</ele>
        <time>2023-06-17T10:18:29.000Z</time>
      </trkpt>
      <trkpt lat="46.98091" lon="4.82125">
        <ele>207.80000305176</ele>
        <time>2023-06-17T10:18:30.000Z</time>
      </trkpt>
      <trkpt lat="46.98139" lon="4.82135">
        <ele>208.19999694824</ele>
        <time>2023-06-17T10:18:39.000Z</time>
      </trkpt>
      <trkpt lat="46.98198" lon="4.82143">
        <ele>209.19999694824</ele>
        <time>2023-06-17T10:18:48.000Z</time>
      </trkpt>
      <trkpt lat="46.98228" lon="4.82149">
        <ele>209.39999389648</ele>
        <time>2023-06-17T10:18:53.000Z</time>
      </trkpt>
      <trkpt lat="46.98234" lon="4.82151">
        <ele>209.39999389648</ele>
        <time>2023-06-17T10:18:54.000Z</time>
      </trkpt>
      <trkpt lat="46.98239" lon="4.82153">
        <ele>209.60000610352</ele>
        <time>2023-06-17T10:18:55.000Z</time>
      </trkpt>
      <trkpt lat="46.9829" lon="4.82178">
        <ele>210.19999694824</ele>
        <time>2023-06-17T10:19:04.000Z</time>
      </trkpt>
      <trkpt lat="46.98324" lon="4.82195">
        <ele>210.39999389648</ele>
        <time>2023-06-17T10:19:10.000Z</time>
      </trkpt>
      <trkpt lat="46.9835" lon="4.82213">
        <ele>210.80000305176</ele>
        <time>2023-06-17T10:19:15.000Z</time>
      </trkpt>
      <trkpt lat="46.98385" lon="4.82255">
        <ele>211.19999694824</ele>
        <time>2023-06-17T10:19:23.000Z</time>
      </trkpt>
      <trkpt lat="46.98405" lon="4.82283">
        <ele>211.60000610352</ele>
        <time>2023-06-17T10:19:28.000Z</time>
      </trkpt>
      <trkpt lat="46.98426" lon="4.82309">
        <ele>211.80000305176</ele>
        <time>2023-06-17T10:19:33.000Z</time>
      </trkpt>
      <trkpt lat="46.98458" lon="4.82338">
        <ele>212.39999389648</ele>
        <time>2023-06-17T10:19:40.000Z</time>
      </trkpt>
      <trkpt lat="46.98468" lon="4.82345">
        <ele>212.60000610352</ele>
        <time>2023-06-17T10:19:42.000Z</time>
      </trkpt>
      <trkpt lat="46.98495" lon="4.82365">
        <ele>213</ele>
        <time>2023-06-17T10:19:48.000Z</time>
      </trkpt>
      <trkpt lat="46.98499" lon="4.82367">
        <ele>213.19999694824</ele>
        <time>2023-06-17T10:19:49.000Z</time>
      </trkpt>
      <trkpt lat="46.98509" lon="4.82372">
        <ele>213.60000610352</ele>
        <time>2023-06-17T10:19:51.000Z</time>
      </trkpt>
      <trkpt lat="46.98533" lon="4.82383">
        <ele>214.60000610352</ele>
        <time>2023-06-17T10:19:56.000Z</time>
      </trkpt>
      <trkpt lat="46.98561" lon="4.82392">
        <ele>215.60000610352</ele>
        <time>2023-06-17T10:20:02.000Z</time>
      </trkpt>
      <trkpt lat="46.98565" lon="4.82394">
        <ele>215.80000305176</ele>
        <time>2023-06-17T10:20:03.000Z</time>
      </trkpt>
      <trkpt lat="46.98569" lon="4.82395">
        <ele>215.80000305176</ele>
        <time>2023-06-17T10:20:04.000Z</time>
      </trkpt>
      <trkpt lat="46.98574" lon="4.82397">
        <ele>216</ele>
        <time>2023-06-17T10:20:05.000Z</time>
      </trkpt>
      <trkpt lat="46.9858" lon="4.82405">
        <ele>216.19999694824</ele>
        <time>2023-06-17T10:20:07.000Z</time>
      </trkpt>
      <trkpt lat="46.98582" lon="4.82418">
        <ele>216.60000610352</ele>
        <time>2023-06-17T10:20:09.000Z</time>
      </trkpt>
      <trkpt lat="46.98581" lon="4.82424">
        <ele>216.80000305176</ele>
        <time>2023-06-17T10:20:10.000Z</time>
      </trkpt>
      <trkpt lat="46.98579" lon="4.82432">
        <ele>217</ele>
        <time>2023-06-17T10:20:11.000Z</time>
      </trkpt>
      <trkpt lat="46.98577" lon="4.82444">
        <ele>217.39999389648</ele>
        <time>2023-06-17T10:20:13.000Z</time>
      </trkpt>
      <trkpt lat="46.98577" lon="4.82457">
        <ele>217.80000305176</ele>
        <time>2023-06-17T10:20:15.000Z</time>
      </trkpt>
      <trkpt lat="46.98586" lon="4.82474">
        <ele>218</ele>
        <time>2023-06-17T10:20:18.000Z</time>
      </trkpt>
      <trkpt lat="46.98594" lon="4.82484">
        <ele>218</ele>
        <time>2023-06-17T10:20:20.000Z</time>
      </trkpt>
      <trkpt lat="46.98615" lon="4.82507">
        <ele>218.39999389648</ele>
        <time>2023-06-17T10:20:25.000Z</time>
      </trkpt>
      <trkpt lat="46.98648" lon="4.82533">
        <ele>219</ele>
        <time>2023-06-17T10:20:33.000Z</time>
      </trkpt>
      <trkpt lat="46.98665" lon="4.82547">
        <ele>219.39999389648</ele>
        <time>2023-06-17T10:20:37.000Z</time>
      </trkpt>
      <trkpt lat="46.98675" lon="4.82553">
        <ele>219.60000610352</ele>
        <time>2023-06-17T10:20:39.000Z</time>
      </trkpt>
      <trkpt lat="46.98688" lon="4.82562">
        <ele>220.19999694824</ele>
        <time>2023-06-17T10:20:42.000Z</time>
      </trkpt>
      <trkpt lat="46.98707" lon="4.82569">
        <ele>220.39999389648</ele>
        <time>2023-06-17T10:20:46.000Z</time>
      </trkpt>
      <trkpt lat="46.98734" lon="4.82579">
        <ele>220.80000305176</ele>
        <time>2023-06-17T10:20:51.000Z</time>
      </trkpt>
      <trkpt lat="46.98742" lon="4.82583">
        <ele>221.19999694824</ele>
        <time>2023-06-17T10:20:53.000Z</time>
      </trkpt>
      <trkpt lat="46.98776" lon="4.82604">
        <ele>222.19999694824</ele>
        <time>2023-06-17T10:21:00.000Z</time>
      </trkpt>
      <trkpt lat="46.98824" lon="4.82645">
        <ele>222.39999389648</ele>
        <time>2023-06-17T10:21:10.000Z</time>
      </trkpt>
      <trkpt lat="46.98862" lon="4.82676">
        <ele>221.39999389648</ele>
        <time>2023-06-17T10:21:16.000Z</time>
      </trkpt>
      <trkpt lat="46.98868" lon="4.82682">
        <ele>221.19999694824</ele>
        <time>2023-06-17T10:21:17.000Z</time>
      </trkpt>
      <trkpt lat="46.98882" lon="4.82695">
        <ele>220</ele>
        <time>2023-06-17T10:21:19.000Z</time>
      </trkpt>
      <trkpt lat="46.98902" lon="4.82715">
        <ele>219</ele>
        <time>2023-06-17T10:21:22.000Z</time>
      </trkpt>
      <trkpt lat="46.9891" lon="4.82721">
        <ele>218.60000610352</ele>
        <time>2023-06-17T10:21:23.000Z</time>
      </trkpt>
      <trkpt lat="46.98917" lon="4.82727">
        <ele>218.19999694824</ele>
        <time>2023-06-17T10:21:24.000Z</time>
      </trkpt>
      <trkpt lat="46.98927" lon="4.82731">
        <ele>217.80000305176</ele>
        <time>2023-06-17T10:21:25.000Z</time>
      </trkpt>
      <trkpt lat="46.98935" lon="4.82734">
        <ele>217.60000610352</ele>
        <time>2023-06-17T10:21:26.000Z</time>
      </trkpt>
      <trkpt lat="46.9895" lon="4.82733">
        <ele>217</ele>
        <time>2023-06-17T10:21:28.000Z</time>
      </trkpt>
      <trkpt lat="46.98958" lon="4.82731">
        <ele>216.80000305176</ele>
        <time>2023-06-17T10:21:29.000Z</time>
      </trkpt>
      <trkpt lat="46.98965" lon="4.82729">
        <ele>216.39999389648</ele>
        <time>2023-06-17T10:21:30.000Z</time>
      </trkpt>
      <trkpt lat="46.99013" lon="4.82707">
        <ele>216</ele>
        <time>2023-06-17T10:21:37.000Z</time>
      </trkpt>
      <trkpt lat="46.99053" lon="4.82689">
        <ele>216.39999389648</ele>
        <time>2023-06-17T10:21:44.000Z</time>
      </trkpt>
      <trkpt lat="46.99096" lon="4.82669">
        <ele>217</ele>
        <time>2023-06-17T10:21:51.000Z</time>
      </trkpt>
      <trkpt lat="46.99142" lon="4.8265">
        <ele>217.39999389648</ele>
        <time>2023-06-17T10:21:59.000Z</time>
      </trkpt>
      <trkpt lat="46.99198" lon="4.82624">
        <ele>217.80000305176</ele>
        <time>2023-06-17T10:22:09.000Z</time>
      </trkpt>
      <trkpt lat="46.99221" lon="4.82616">
        <ele>218</ele>
        <time>2023-06-17T10:22:13.000Z</time>
      </trkpt>
      <trkpt lat="46.9926" lon="4.82604">
        <ele>218.39999389648</ele>
        <time>2023-06-17T10:22:20.000Z</time>
      </trkpt>
      <trkpt lat="46.99305" lon="4.82591">
        <ele>218.80000305176</ele>
        <time>2023-06-17T10:22:28.000Z</time>
      </trkpt>
      <trkpt lat="46.99321" lon="4.82587">
        <ele>219</ele>
        <time>2023-06-17T10:22:31.000Z</time>
      </trkpt>
      <trkpt lat="46.99365" lon="4.82573">
        <ele>219.19999694824</ele>
        <time>2023-06-17T10:22:39.000Z</time>
      </trkpt>
      <trkpt lat="46.9937" lon="4.82571">
        <ele>219.19999694824</ele>
        <time>2023-06-17T10:22:40.000Z</time>
      </trkpt>
      <trkpt lat="46.99425" lon="4.82556">
        <ele>219.80000305176</ele>
        <time>2023-06-17T10:22:50.000Z</time>
      </trkpt>
      <trkpt lat="46.99432" lon="4.82554">
        <ele>219.80000305176</ele>
        <time>2023-06-17T10:22:51.000Z</time>
      </trkpt>
      <trkpt lat="46.99447" lon="4.8255">
        <ele>220</ele>
        <time>2023-06-17T10:22:54.000Z</time>
      </trkpt>
      <trkpt lat="46.99488" lon="4.82539">
        <ele>220.39999389648</ele>
        <time>2023-06-17T10:23:01.000Z</time>
      </trkpt>
      <trkpt lat="46.99536" lon="4.82524">
        <ele>221.19999694824</ele>
        <time>2023-06-17T10:23:10.000Z</time>
      </trkpt>
      <trkpt lat="46.99541" lon="4.82522">
        <ele>221.19999694824</ele>
        <time>2023-06-17T10:23:11.000Z</time>
      </trkpt>
      <trkpt lat="46.99588" lon="4.82507">
        <ele>221.80000305176</ele>
        <time>2023-06-17T10:23:20.000Z</time>
      </trkpt>
      <trkpt lat="46.99642" lon="4.82491">
        <ele>222</ele>
        <time>2023-06-17T10:23:30.000Z</time>
      </trkpt>
      <trkpt lat="46.99652" lon="4.82488">
        <ele>222.19999694824</ele>
        <time>2023-06-17T10:23:32.000Z</time>
      </trkpt>
      <trkpt lat="46.99658" lon="4.82487">
        <ele>222.19999694824</ele>
        <time>2023-06-17T10:23:33.000Z</time>
      </trkpt>
      <trkpt lat="46.99681" lon="4.82484">
        <ele>222.39999389648</ele>
        <time>2023-06-17T10:23:37.000Z</time>
      </trkpt>
      <trkpt lat="46.99693" lon="4.82485">
        <ele>222.39999389648</ele>
        <time>2023-06-17T10:23:39.000Z</time>
      </trkpt>
      <trkpt lat="46.99745" lon="4.82493">
        <ele>222.60000610352</ele>
        <time>2023-06-17T10:23:48.000Z</time>
      </trkpt>
      <trkpt lat="46.99797" lon="4.82502">
        <ele>222.60000610352</ele>
        <time>2023-06-17T10:23:57.000Z</time>
      </trkpt>
      <trkpt lat="46.99813" lon="4.825">
        <ele>222.60000610352</ele>
        <time>2023-06-17T10:24:00.000Z</time>
      </trkpt>
      <trkpt lat="46.99822" lon="4.82496">
        <ele>222.80000305176</ele>
        <time>2023-06-17T10:24:02.000Z</time>
      </trkpt>
      <trkpt lat="46.99835" lon="4.82485">
        <ele>223.19999694824</ele>
        <time>2023-06-17T10:24:05.000Z</time>
      </trkpt>
      <trkpt lat="46.99839" lon="4.82481">
        <ele>223.39999389648</ele>
        <time>2023-06-17T10:24:06.000Z</time>
      </trkpt>
      <trkpt lat="46.99843" lon="4.82475">
        <ele>223.60000610352</ele>
        <time>2023-06-17T10:24:07.000Z</time>
      </trkpt>
      <trkpt lat="46.99847" lon="4.82469">
        <ele>223.80000305176</ele>
        <time>2023-06-17T10:24:08.000Z</time>
      </trkpt>
      <trkpt lat="46.99855" lon="4.82451">
        <ele>224.60000610352</ele>
        <time>2023-06-17T10:24:11.000Z</time>
      </trkpt>
      <trkpt lat="46.99865" lon="4.8243">
        <ele>225.19999694824</ele>
        <time>2023-06-17T10:24:14.000Z</time>
      </trkpt>
      <trkpt lat="46.99884" lon="4.82408">
        <ele>225.39999389648</ele>
        <time>2023-06-17T10:24:18.000Z</time>
      </trkpt>
      <trkpt lat="46.99902" lon="4.824">
        <ele>225.19999694824</ele>
        <time>2023-06-17T10:24:21.000Z</time>
      </trkpt>
      <trkpt lat="46.9991" lon="4.82401">
        <ele>225</ele>
        <time>2023-06-17T10:24:22.000Z</time>
      </trkpt>
      <trkpt lat="46.99917" lon="4.82403">
        <ele>224.80000305176</ele>
        <time>2023-06-17T10:24:23.000Z</time>
      </trkpt>
      <trkpt lat="46.99935" lon="4.82411">
        <ele>224</ele>
        <time>2023-06-17T10:24:26.000Z</time>
      </trkpt>
      <trkpt lat="46.99953" lon="4.82422">
        <ele>223.39999389648</ele>
        <time>2023-06-17T10:24:29.000Z</time>
      </trkpt>
      <trkpt lat="46.99972" lon="4.82432">
        <ele>223.39999389648</ele>
        <time>2023-06-17T10:24:32.000Z</time>
      </trkpt>
      <trkpt lat="46.99983" lon="4.82436">
        <ele>223.19999694824</ele>
        <time>2023-06-17T10:24:34.000Z</time>
      </trkpt>
      <trkpt lat="47.0002" lon="4.82442">
        <ele>223.19999694824</ele>
        <time>2023-06-17T10:24:40.000Z</time>
      </trkpt>
      <trkpt lat="47.00076" lon="4.82441">
        <ele>223</ele>
        <time>2023-06-17T10:24:49.000Z</time>
      </trkpt>
      <trkpt lat="47.00083" lon="4.82441">
        <ele>223</ele>
        <time>2023-06-17T10:24:50.000Z</time>
      </trkpt>
      <trkpt lat="47.0014" lon="4.82441">
        <ele>223</ele>
        <time>2023-06-17T10:24:59.000Z</time>
      </trkpt>
      <trkpt lat="47.0016" lon="4.82444">
        <ele>223.19999694824</ele>
        <time>2023-06-17T10:25:02.000Z</time>
      </trkpt>
      <trkpt lat="47.00202" lon="4.82455">
        <ele>223.39999389648</ele>
        <time>2023-06-17T10:25:09.000Z</time>
      </trkpt>
      <trkpt lat="47.00256" lon="4.82475">
        <ele>223.60000610352</ele>
        <time>2023-06-17T10:25:18.000Z</time>
      </trkpt>
      <trkpt lat="47.00262" lon="4.82478">
        <ele>223.80000305176</ele>
        <time>2023-06-17T10:25:19.000Z</time>
      </trkpt>
      <trkpt lat="47.00314" lon="4.82505">
        <ele>224.60000610352</ele>
        <time>2023-06-17T10:25:28.000Z</time>
      </trkpt>
      <trkpt lat="47.00365" lon="4.82532">
        <ele>224.60000610352</ele>
        <time>2023-06-17T10:25:37.000Z</time>
      </trkpt>
      <trkpt lat="47.00384" lon="4.82542">
        <ele>224.60000610352</ele>
        <time>2023-06-17T10:25:40.000Z</time>
      </trkpt>
      <trkpt lat="47.00436" lon="4.82571">
        <ele>224.60000610352</ele>
        <time>2023-06-17T10:25:49.000Z</time>
      </trkpt>
      <trkpt lat="47.00447" lon="4.82578">
        <ele>224.39999389648</ele>
        <time>2023-06-17T10:25:51.000Z</time>
      </trkpt>
      <trkpt lat="47.005" lon="4.82613">
        <ele>224.19999694824</ele>
        <time>2023-06-17T10:26:01.000Z</time>
      </trkpt>
      <trkpt lat="47.00509" lon="4.82622">
        <ele>224.19999694824</ele>
        <time>2023-06-17T10:26:03.000Z</time>
      </trkpt>
      <trkpt lat="47.00519" lon="4.82632">
        <ele>224.19999694824</ele>
        <time>2023-06-17T10:26:06.000Z</time>
      </trkpt>
      <trkpt lat="47.00524" lon="4.82644">
        <ele>224.19999694824</ele>
        <time>2023-06-17T10:26:08.000Z</time>
      </trkpt>
      <trkpt lat="47.0053" lon="4.82657">
        <ele>224.39999389648</ele>
        <time>2023-06-17T10:26:10.000Z</time>
      </trkpt>
      <trkpt lat="47.0054" lon="4.82664">
        <ele>224.39999389648</ele>
        <time>2023-06-17T10:26:12.000Z</time>
      </trkpt>
      <trkpt lat="47.00554" lon="4.82663">
        <ele>224.39999389648</ele>
        <time>2023-06-17T10:26:14.000Z</time>
      </trkpt>
      <trkpt lat="47.00559" lon="4.82662">
        <ele>224.39999389648</ele>
        <time>2023-06-17T10:26:15.000Z</time>
      </trkpt>
      <trkpt lat="47.00565" lon="4.82661">
        <ele>224.39999389648</ele>
        <time>2023-06-17T10:26:16.000Z</time>
      </trkpt>
      <trkpt lat="47.00579" lon="4.82665">
        <ele>224.39999389648</ele>
        <time>2023-06-17T10:26:18.000Z</time>
      </trkpt>
      <trkpt lat="47.00628" lon="4.82694">
        <ele>223.80000305176</ele>
        <time>2023-06-17T10:26:26.000Z</time>
      </trkpt>
      <trkpt lat="47.00662" lon="4.82715">
        <ele>223.39999389648</ele>
        <time>2023-06-17T10:26:32.000Z</time>
      </trkpt>
      <trkpt lat="47.00673" lon="4.82721">
        <ele>223.39999389648</ele>
        <time>2023-06-17T10:26:34.000Z</time>
      </trkpt>
      <trkpt lat="47.00716" lon="4.82738">
        <ele>223.39999389648</ele>
        <time>2023-06-17T10:26:41.000Z</time>
      </trkpt>
      <trkpt lat="47.00772" lon="4.82752">
        <ele>223.19999694824</ele>
        <time>2023-06-17T10:26:50.000Z</time>
      </trkpt>
      <trkpt lat="47.00817" lon="4.82768">
        <ele>222.80000305176</ele>
        <time>2023-06-17T10:26:57.000Z</time>
      </trkpt>
      <trkpt lat="47.00823" lon="4.8277">
        <ele>222.80000305176</ele>
        <time>2023-06-17T10:26:58.000Z</time>
      </trkpt>
      <trkpt lat="47.00879" lon="4.82793">
        <ele>222.39999389648</ele>
        <time>2023-06-17T10:27:07.000Z</time>
      </trkpt>
      <trkpt lat="47.00902" lon="4.82803">
        <ele>222.39999389648</ele>
        <time>2023-06-17T10:27:11.000Z</time>
      </trkpt>
      <trkpt lat="47.00955" lon="4.82832">
        <ele>222.19999694824</ele>
        <time>2023-06-17T10:27:20.000Z</time>
      </trkpt>
      <trkpt lat="47.00961" lon="4.82836">
        <ele>222.19999694824</ele>
        <time>2023-06-17T10:27:21.000Z</time>
      </trkpt>
      <trkpt lat="47.01016" lon="4.82872">
        <ele>222.19999694824</ele>
        <time>2023-06-17T10:27:30.000Z</time>
      </trkpt>
      <trkpt lat="47.01028" lon="4.8288">
        <ele>222</ele>
        <time>2023-06-17T10:27:32.000Z</time>
      </trkpt>
      <trkpt lat="47.01034" lon="4.82884">
        <ele>222</ele>
        <time>2023-06-17T10:27:33.000Z</time>
      </trkpt>
      <trkpt lat="47.01089" lon="4.82921">
        <ele>221.39999389648</ele>
        <time>2023-06-17T10:27:42.000Z</time>
      </trkpt>
      <trkpt lat="47.01139" lon="4.82952">
        <ele>221</ele>
        <time>2023-06-17T10:27:50.000Z</time>
      </trkpt>
      <trkpt lat="47.0117" lon="4.82969">
        <ele>220.80000305176</ele>
        <time>2023-06-17T10:27:55.000Z</time>
      </trkpt>
      <trkpt lat="47.01226" lon="4.82994">
        <ele>220</ele>
        <time>2023-06-17T10:28:04.000Z</time>
      </trkpt>
      <trkpt lat="47.01232" lon="4.82997">
        <ele>220</ele>
        <time>2023-06-17T10:28:05.000Z</time>
      </trkpt>
      <trkpt lat="47.01251" lon="4.83005">
        <ele>220</ele>
        <time>2023-06-17T10:28:08.000Z</time>
      </trkpt>
      <trkpt lat="47.01302" lon="4.83026">
        <ele>219.60000610352</ele>
        <time>2023-06-17T10:28:16.000Z</time>
      </trkpt>
      <trkpt lat="47.01321" lon="4.83033">
        <ele>219.60000610352</ele>
        <time>2023-06-17T10:28:19.000Z</time>
      </trkpt>
      <trkpt lat="47.01339" lon="4.83042">
        <ele>219.39999389648</ele>
        <time>2023-06-17T10:28:22.000Z</time>
      </trkpt>
      <trkpt lat="47.01395" lon="4.83067">
        <ele>219.60000610352</ele>
        <time>2023-06-17T10:28:31.000Z</time>
      </trkpt>
      <trkpt lat="47.01401" lon="4.83069">
        <ele>219.80000305176</ele>
        <time>2023-06-17T10:28:32.000Z</time>
      </trkpt>
      <trkpt lat="47.01456" lon="4.8309">
        <ele>220</ele>
        <time>2023-06-17T10:28:41.000Z</time>
      </trkpt>
      <trkpt lat="47.01469" lon="4.83093">
        <ele>220</ele>
        <time>2023-06-17T10:28:43.000Z</time>
      </trkpt>
      <trkpt lat="47.01512" lon="4.8309">
        <ele>220.19999694824</ele>
        <time>2023-06-17T10:28:50.000Z</time>
      </trkpt>
      <trkpt lat="47.01543" lon="4.83088">
        <ele>220.60000610352</ele>
        <time>2023-06-17T10:28:55.000Z</time>
      </trkpt>
      <trkpt lat="47.01555" lon="4.8309">
        <ele>220.60000610352</ele>
        <time>2023-06-17T10:28:57.000Z</time>
      </trkpt>
      <trkpt lat="47.01595" lon="4.83108">
        <ele>220.60000610352</ele>
        <time>2023-06-17T10:29:04.000Z</time>
      </trkpt>
      <trkpt lat="47.01648" lon="4.83134">
        <ele>220.39999389648</ele>
        <time>2023-06-17T10:29:13.000Z</time>
      </trkpt>
      <trkpt lat="47.0169" lon="4.83154">
        <ele>219.80000305176</ele>
        <time>2023-06-17T10:29:20.000Z</time>
      </trkpt>
      <trkpt lat="47.01709" lon="4.83158">
        <ele>219.60000610352</ele>
        <time>2023-06-17T10:29:23.000Z</time>
      </trkpt>
      <trkpt lat="47.01728" lon="4.83158">
        <ele>219.39999389648</ele>
        <time>2023-06-17T10:29:26.000Z</time>
      </trkpt>
      <trkpt lat="47.01774" lon="4.83152">
        <ele>219.19999694824</ele>
        <time>2023-06-17T10:29:33.000Z</time>
      </trkpt>
      <trkpt lat="47.0178" lon="4.8315">
        <ele>219</ele>
        <time>2023-06-17T10:29:34.000Z</time>
      </trkpt>
      <trkpt lat="47.01833" lon="4.83142">
        <ele>219.19999694824</ele>
        <time>2023-06-17T10:29:43.000Z</time>
      </trkpt>
      <trkpt lat="47.01838" lon="4.83144">
        <ele>219.19999694824</ele>
        <time>2023-06-17T10:29:44.000Z</time>
      </trkpt>
      <trkpt lat="47.01842" lon="4.83149">
        <ele>219</ele>
        <time>2023-06-17T10:29:45.000Z</time>
      </trkpt>
      <trkpt lat="47.01845" lon="4.83165">
        <ele>219</ele>
        <time>2023-06-17T10:29:47.000Z</time>
      </trkpt>
      <trkpt lat="47.01837" lon="4.83219">
        <ele>218.60000610352</ele>
        <time>2023-06-17T10:29:53.000Z</time>
      </trkpt>
      <trkpt lat="47.01834" lon="4.83235">
        <ele>218.60000610352</ele>
        <time>2023-06-17T10:29:55.000Z</time>
      </trkpt>
      <trkpt lat="47.01827" lon="4.83257">
        <ele>218</ele>
        <time>2023-06-17T10:29:58.000Z</time>
      </trkpt>
      <trkpt lat="47.01828" lon="4.8327">
        <ele>217.80000305176</ele>
        <time>2023-06-17T10:30:00.000Z</time>
      </trkpt>
      <trkpt lat="47.01832" lon="4.83275">
        <ele>217.60000610352</ele>
        <time>2023-06-17T10:30:01.000Z</time>
      </trkpt>
      <trkpt lat="47.01837" lon="4.83281">
        <ele>217.39999389648</ele>
        <time>2023-06-17T10:30:02.000Z</time>
      </trkpt>
      <trkpt lat="47.01852" lon="4.83297">
        <ele>217.19999694824</ele>
        <time>2023-06-17T10:30:05.000Z</time>
      </trkpt>
      <trkpt lat="47.01862" lon="4.83309">
        <ele>217</ele>
        <time>2023-06-17T10:30:07.000Z</time>
      </trkpt>
      <trkpt lat="47.01901" lon="4.83356">
        <ele>216.80000305176</ele>
        <time>2023-06-17T10:30:15.000Z</time>
      </trkpt>
      <trkpt lat="47.01934" lon="4.83393">
        <ele>216.80000305176</ele>
        <time>2023-06-17T10:30:22.000Z</time>
      </trkpt>
      <trkpt lat="47.0198" lon="4.83446">
        <ele>216.80000305176</ele>
        <time>2023-06-17T10:30:32.000Z</time>
      </trkpt>
      <trkpt lat="47.0199" lon="4.83457">
        <ele>216.80000305176</ele>
        <time>2023-06-17T10:30:34.000Z</time>
      </trkpt>
      <trkpt lat="47.01999" lon="4.83469">
        <ele>216.60000610352</ele>
        <time>2023-06-17T10:30:36.000Z</time>
      </trkpt>
      <trkpt lat="47.02029" lon="4.83506">
        <ele>216.60000610352</ele>
        <time>2023-06-17T10:30:43.000Z</time>
      </trkpt>
      <trkpt lat="47.02035" lon="4.83514">
        <ele>216.39999389648</ele>
        <time>2023-06-17T10:30:45.000Z</time>
      </trkpt>
      <trkpt lat="47.0204" lon="4.83522">
        <ele>216.39999389648</ele>
        <time>2023-06-17T10:30:49.000Z</time>
      </trkpt>
      <trkpt lat="47.02041" lon="4.83523">
        <ele>216.39999389648</ele>
        <time>2023-06-17T10:30:51.000Z</time>
      </trkpt>
      <trkpt lat="47.02045" lon="4.83528">
        <ele>216.19999694824</ele>
        <time>2023-06-17T10:30:58.000Z</time>
      </trkpt>
      <trkpt lat="47.02056" lon="4.8355">
        <ele>216.19999694824</ele>
        <time>2023-06-17T10:31:03.000Z</time>
      </trkpt>
      <trkpt lat="47.02059" lon="4.83563">
        <ele>216.19999694824</ele>
        <time>2023-06-17T10:31:05.000Z</time>
      </trkpt>
      <trkpt lat="47.02057" lon="4.83578">
        <ele>216.19999694824</ele>
        <time>2023-06-17T10:31:07.000Z</time>
      </trkpt>
      <trkpt lat="47.02056" lon="4.83595">
        <ele>216.39999389648</ele>
        <time>2023-06-17T10:31:09.000Z</time>
      </trkpt>
      <trkpt lat="47.02058" lon="4.83602">
        <ele>216.39999389648</ele>
        <time>2023-06-17T10:31:10.000Z</time>
      </trkpt>
      <trkpt lat="47.02062" lon="4.83617">
        <ele>216.60000610352</ele>
        <time>2023-06-17T10:31:12.000Z</time>
      </trkpt>
      <trkpt lat="47.02067" lon="4.8364">
        <ele>216.60000610352</ele>
        <time>2023-06-17T10:31:15.000Z</time>
      </trkpt>
      <trkpt lat="47.02072" lon="4.83694">
        <ele>216.60000610352</ele>
        <time>2023-06-17T10:31:21.000Z</time>
      </trkpt>
      <trkpt lat="47.02071" lon="4.83711">
        <ele>216.60000610352</ele>
        <time>2023-06-17T10:31:23.000Z</time>
      </trkpt>
      <trkpt lat="47.02071" lon="4.83736">
        <ele>216.39999389648</ele>
        <time>2023-06-17T10:31:26.000Z</time>
      </trkpt>
      <trkpt lat="47.0207" lon="4.83742">
        <ele>216.39999389648</ele>
        <time>2023-06-17T10:31:27.000Z</time>
      </trkpt>
      <trkpt lat="47.02064" lon="4.83774">
        <ele>216</ele>
        <time>2023-06-17T10:31:31.000Z</time>
      </trkpt>
      <trkpt lat="47.02048" lon="4.83841">
        <ele>215.80000305176</ele>
        <time>2023-06-17T10:31:39.000Z</time>
      </trkpt>
      <trkpt lat="47.02047" lon="4.8385">
        <ele>215.60000610352</ele>
        <time>2023-06-17T10:31:40.000Z</time>
      </trkpt>
      <trkpt lat="47.02046" lon="4.83868">
        <ele>215.80000305176</ele>
        <time>2023-06-17T10:31:42.000Z</time>
      </trkpt>
      <trkpt lat="47.02047" lon="4.83876">
        <ele>215.80000305176</ele>
        <time>2023-06-17T10:31:43.000Z</time>
      </trkpt>
      <trkpt lat="47.02049" lon="4.83885">
        <ele>216</ele>
        <time>2023-06-17T10:31:44.000Z</time>
      </trkpt>
      <trkpt lat="47.02054" lon="4.839">
        <ele>216</ele>
        <time>2023-06-17T10:31:46.000Z</time>
      </trkpt>
      <trkpt lat="47.02058" lon="4.83907">
        <ele>216.19999694824</ele>
        <time>2023-06-17T10:31:47.000Z</time>
      </trkpt>
      <trkpt lat="47.02063" lon="4.83913">
        <ele>216.19999694824</ele>
        <time>2023-06-17T10:31:48.000Z</time>
      </trkpt>
      <trkpt lat="47.02085" lon="4.83938">
        <ele>216.60000610352</ele>
        <time>2023-06-17T10:31:53.000Z</time>
      </trkpt>
      <trkpt lat="47.02097" lon="4.83953">
        <ele>216.80000305176</ele>
        <time>2023-06-17T10:31:56.000Z</time>
      </trkpt>
      <trkpt lat="47.02104" lon="4.83965">
        <ele>217</ele>
        <time>2023-06-17T10:31:58.000Z</time>
      </trkpt>
      <trkpt lat="47.02107" lon="4.8397">
        <ele>217.39999389648</ele>
        <time>2023-06-17T10:31:59.000Z</time>
      </trkpt>
      <trkpt lat="47.02111" lon="4.83977">
        <ele>217.60000610352</ele>
        <time>2023-06-17T10:32:00.000Z</time>
      </trkpt>
      <trkpt lat="47.02121" lon="4.83996">
        <ele>218</ele>
        <time>2023-06-17T10:32:03.000Z</time>
      </trkpt>
      <trkpt lat="47.02124" lon="4.84003">
        <ele>218.39999389648</ele>
        <time>2023-06-17T10:32:04.000Z</time>
      </trkpt>
      <trkpt lat="47.02127" lon="4.84009">
        <ele>218.60000610352</ele>
        <time>2023-06-17T10:32:05.000Z</time>
      </trkpt>
      <trkpt lat="47.02136" lon="4.84026">
        <ele>218.80000305176</ele>
        <time>2023-06-17T10:32:08.000Z</time>
      </trkpt>
      <trkpt lat="47.02147" lon="4.84042">
        <ele>219.60000610352</ele>
        <time>2023-06-17T10:32:13.000Z</time>
      </trkpt>
      <trkpt lat="47.02151" lon="4.8405">
        <ele>219.60000610352</ele>
        <time>2023-06-17T10:32:18.000Z</time>
      </trkpt>
      <trkpt lat="47.02151" lon="4.8405">
        <ele>219.60000610352</ele>
        <time>2023-06-17T10:32:19.000Z</time>
      </trkpt>
      <trkpt lat="47.02154" lon="4.84054">
        <ele>218</ele>
        <time>2023-06-17T10:32:46.000Z</time>
      </trkpt>
      <trkpt lat="47.02157" lon="4.84061">
        <ele>218</ele>
        <time>2023-06-17T10:32:48.000Z</time>
      </trkpt>
      <trkpt lat="47.02156" lon="4.84065">
        <ele>218</ele>
        <time>2023-06-17T10:32:49.000Z</time>
      </trkpt>
      <trkpt lat="47.02151" lon="4.84076">
        <ele>218</ele>
        <time>2023-06-17T10:32:51.000Z</time>
      </trkpt>
      <trkpt lat="47.02143" lon="4.84092">
        <ele>218</ele>
        <time>2023-06-17T10:32:54.000Z</time>
      </trkpt>
      <trkpt lat="47.02137" lon="4.84103">
        <ele>218</ele>
        <time>2023-06-17T10:32:56.000Z</time>
      </trkpt>
      <trkpt lat="47.02133" lon="4.84108">
        <ele>218</ele>
        <time>2023-06-17T10:32:57.000Z</time>
      </trkpt>
      <trkpt lat="47.02121" lon="4.84135">
        <ele>217.39999389648</ele>
        <time>2023-06-17T10:33:02.000Z</time>
      </trkpt>
      <trkpt lat="47.02106" lon="4.84168">
        <ele>217</ele>
        <time>2023-06-17T10:33:08.000Z</time>
      </trkpt>
      <trkpt lat="47.021" lon="4.84187">
        <ele>217</ele>
        <time>2023-06-17T10:33:11.000Z</time>
      </trkpt>
      <trkpt lat="47.02098" lon="4.84193">
        <ele>217</ele>
        <time>2023-06-17T10:33:12.000Z</time>
      </trkpt>
      <trkpt lat="47.02095" lon="4.84199">
        <ele>217</ele>
        <time>2023-06-17T10:33:13.000Z</time>
      </trkpt>
      <trkpt lat="47.02094" lon="4.84204">
        <ele>216.80000305176</ele>
        <time>2023-06-17T10:33:14.000Z</time>
      </trkpt>
      <trkpt lat="47.0209" lon="4.84217">
        <ele>216.80000305176</ele>
        <time>2023-06-17T10:33:16.000Z</time>
      </trkpt>
      <trkpt lat="47.02084" lon="4.84239">
        <ele>216.60000610352</ele>
        <time>2023-06-17T10:33:20.000Z</time>
      </trkpt>
      <trkpt lat="47.02082" lon="4.84244">
        <ele>216.60000610352</ele>
        <time>2023-06-17T10:33:21.000Z</time>
      </trkpt>
      <trkpt lat="47.02081" lon="4.84248">
        <ele>216.60000610352</ele>
        <time>2023-06-17T10:33:22.000Z</time>
      </trkpt>
      <trkpt lat="47.02079" lon="4.84259">
        <ele>216.39999389648</ele>
        <time>2023-06-17T10:33:25.000Z</time>
      </trkpt>
      <trkpt lat="47.02089" lon="4.84273">
        <ele>216.19999694824</ele>
        <time>2023-06-17T10:33:30.000Z</time>
      </trkpt>
      <trkpt lat="47.02097" lon="4.84283">
        <ele>216.19999694824</ele>
        <time>2023-06-17T10:33:36.000Z</time>
      </trkpt>
      <trkpt lat="47.02097" lon="4.84284">
        <ele>216.19999694824</ele>
        <time>2023-06-17T10:33:39.000Z</time>
      </trkpt>
      <trkpt lat="47.02096" lon="4.84275">
        <ele>216.60000610352</ele>
        <time>2023-06-17T10:40:45.000Z</time>
      </trkpt>
      <trkpt lat="47.02089" lon="4.8426">
        <ele>216.60000610352</ele>
        <time>2023-06-17T10:40:49.000Z</time>
      </trkpt>
      <trkpt lat="47.02086" lon="4.84256">
        <ele>216.39999389648</ele>
        <time>2023-06-17T10:40:53.000Z</time>
      </trkpt>
      <trkpt lat="47.02084" lon="4.84258">
        <ele>216.19999694824</ele>
        <time>2023-06-17T10:40:55.000Z</time>
      </trkpt>
      <trkpt lat="47.0208" lon="4.84259">
        <ele>216</ele>
        <time>2023-06-17T10:40:57.000Z</time>
      </trkpt>
      <trkpt lat="47.02078" lon="4.84261">
        <ele>216</ele>
        <time>2023-06-17T10:40:58.000Z</time>
      </trkpt>
      <trkpt lat="47.02072" lon="4.84274">
        <ele>216</ele>
        <time>2023-06-17T10:41:01.000Z</time>
      </trkpt>
      <trkpt lat="47.02056" lon="4.84308">
        <ele>216</ele>
        <time>2023-06-17T10:41:06.000Z</time>
      </trkpt>
      <trkpt lat="47.0205" lon="4.84321">
        <ele>216</ele>
        <time>2023-06-17T10:41:08.000Z</time>
      </trkpt>
      <trkpt lat="47.02039" lon="4.84341">
        <ele>216</ele>
        <time>2023-06-17T10:41:11.000Z</time>
      </trkpt>
      <trkpt lat="47.02008" lon="4.84393">
        <ele>215.80000305176</ele>
        <time>2023-06-17T10:41:19.000Z</time>
      </trkpt>
      <trkpt lat="47.02006" lon="4.84396">
        <ele>215.60000610352</ele>
        <time>2023-06-17T10:41:20.000Z</time>
      </trkpt>
      <trkpt lat="47.02004" lon="4.844">
        <ele>215.39999389648</ele>
        <time>2023-06-17T10:41:23.000Z</time>
      </trkpt>
      <trkpt lat="47.01999" lon="4.84408">
        <ele>214.80000305176</ele>
        <time>2023-06-17T10:41:29.000Z</time>
      </trkpt>
      <trkpt lat="47.01998" lon="4.84408">
        <ele>214.80000305176</ele>
        <time>2023-06-17T10:41:30.000Z</time>
      </trkpt>
      <trkpt lat="47.01997" lon="4.84409">
        <ele>214.80000305176</ele>
        <time>2023-06-17T10:41:31.000Z</time>
      </trkpt>
      <trkpt lat="47.01988" lon="4.8441">
        <ele>214.80000305176</ele>
        <time>2023-06-17T10:41:34.000Z</time>
      </trkpt>
      <trkpt lat="47.01984" lon="4.84413">
        <ele>214.60000610352</ele>
        <time>2023-06-17T10:41:35.000Z</time>
      </trkpt>
      <trkpt lat="47.0198" lon="4.84426">
        <ele>214.60000610352</ele>
        <time>2023-06-17T10:41:37.000Z</time>
      </trkpt>
      <trkpt lat="47.01984" lon="4.84451">
        <ele>214.60000610352</ele>
        <time>2023-06-17T10:41:40.000Z</time>
      </trkpt>
      <trkpt lat="47.01984" lon="4.84488">
        <ele>214.80000305176</ele>
        <time>2023-06-17T10:41:44.000Z</time>
      </trkpt>
      <trkpt lat="47.01982" lon="4.84535">
        <ele>215.39999389648</ele>
        <time>2023-06-17T10:41:49.000Z</time>
      </trkpt>
      <trkpt lat="47.01982" lon="4.84544">
        <ele>215.39999389648</ele>
        <time>2023-06-17T10:41:50.000Z</time>
      </trkpt>
      <trkpt lat="47.01982" lon="4.84552">
        <ele>215.39999389648</ele>
        <time>2023-06-17T10:41:51.000Z</time>
      </trkpt>
      <trkpt lat="47.01981" lon="4.8456">
        <ele>215.60000610352</ele>
        <time>2023-06-17T10:41:52.000Z</time>
      </trkpt>
      <trkpt lat="47.01979" lon="4.84587">
        <ele>215.60000610352</ele>
        <time>2023-06-17T10:41:55.000Z</time>
      </trkpt>
      <trkpt lat="47.01978" lon="4.84596">
        <ele>215.80000305176</ele>
        <time>2023-06-17T10:41:56.000Z</time>
      </trkpt>
      <trkpt lat="47.01976" lon="4.84613">
        <ele>215.80000305176</ele>
        <time>2023-06-17T10:41:58.000Z</time>
      </trkpt>
      <trkpt lat="47.01973" lon="4.8465">
        <ele>215.39999389648</ele>
        <time>2023-06-17T10:42:02.000Z</time>
      </trkpt>
      <trkpt lat="47.01968" lon="4.84678">
        <ele>215.60000610352</ele>
        <time>2023-06-17T10:42:05.000Z</time>
      </trkpt>
      <trkpt lat="47.01965" lon="4.84686">
        <ele>215.60000610352</ele>
        <time>2023-06-17T10:42:06.000Z</time>
      </trkpt>
      <trkpt lat="47.01962" lon="4.84693">
        <ele>215.60000610352</ele>
        <time>2023-06-17T10:42:07.000Z</time>
      </trkpt>
      <trkpt lat="47.01961" lon="4.8471">
        <ele>215.80000305176</ele>
        <time>2023-06-17T10:42:09.000Z</time>
      </trkpt>
      <trkpt lat="47.01967" lon="4.84725">
        <ele>216</ele>
        <time>2023-06-17T10:42:11.000Z</time>
      </trkpt>
      <trkpt lat="47.01973" lon="4.84739">
        <ele>216</ele>
        <time>2023-06-17T10:42:13.000Z</time>
      </trkpt>
      <trkpt lat="47.01984" lon="4.84786">
        <ele>216.39999389648</ele>
        <time>2023-06-17T10:42:19.000Z</time>
      </trkpt>
      <trkpt lat="47.01998" lon="4.84844">
        <ele>217</ele>
        <time>2023-06-17T10:42:26.000Z</time>
      </trkpt>
      <trkpt lat="47.0201" lon="4.84903">
        <ele>217.19999694824</ele>
        <time>2023-06-17T10:42:33.000Z</time>
      </trkpt>
      <trkpt lat="47.02015" lon="4.84929">
        <ele>217.39999389648</ele>
        <time>2023-06-17T10:42:36.000Z</time>
      </trkpt>
      <trkpt lat="47.02015" lon="4.84945">
        <ele>217.39999389648</ele>
        <time>2023-06-17T10:42:38.000Z</time>
      </trkpt>
      <trkpt lat="47.02016" lon="4.84954">
        <ele>217.39999389648</ele>
        <time>2023-06-17T10:42:39.000Z</time>
      </trkpt>
      <trkpt lat="47.02014" lon="4.84972">
        <ele>217.39999389648</ele>
        <time>2023-06-17T10:42:41.000Z</time>
      </trkpt>
      <trkpt lat="47.02013" lon="4.84981">
        <ele>217.19999694824</ele>
        <time>2023-06-17T10:42:42.000Z</time>
      </trkpt>
      <trkpt lat="47.02003" lon="4.85051">
        <ele>216.80000305176</ele>
        <time>2023-06-17T10:42:50.000Z</time>
      </trkpt>
      <trkpt lat="47.02002" lon="4.85068">
        <ele>216.80000305176</ele>
        <time>2023-06-17T10:42:52.000Z</time>
      </trkpt>
      <trkpt lat="47.01996" lon="4.85102">
        <ele>216.60000610352</ele>
        <time>2023-06-17T10:42:56.000Z</time>
      </trkpt>
      <trkpt lat="47.01993" lon="4.8511">
        <ele>216.60000610352</ele>
        <time>2023-06-17T10:42:57.000Z</time>
      </trkpt>
      <trkpt lat="47.01991" lon="4.85117">
        <ele>216.39999389648</ele>
        <time>2023-06-17T10:42:58.000Z</time>
      </trkpt>
      <trkpt lat="47.01991" lon="4.85131">
        <ele>216.39999389648</ele>
        <time>2023-06-17T10:43:00.000Z</time>
      </trkpt>
      <trkpt lat="47.01996" lon="4.85137">
        <ele>216.19999694824</ele>
        <time>2023-06-17T10:43:02.000Z</time>
      </trkpt>
      <trkpt lat="47.01997" lon="4.8514">
        <ele>216.19999694824</ele>
        <time>2023-06-17T10:43:03.000Z</time>
      </trkpt>
      <trkpt lat="47.01998" lon="4.85148">
        <ele>216.19999694824</ele>
        <time>2023-06-17T10:43:05.000Z</time>
      </trkpt>
      <trkpt lat="47.01995" lon="4.85166">
        <ele>216</ele>
        <time>2023-06-17T10:43:08.000Z</time>
      </trkpt>
      <trkpt lat="47.01994" lon="4.85172">
        <ele>216</ele>
        <time>2023-06-17T10:43:09.000Z</time>
      </trkpt>
      <trkpt lat="47.01993" lon="4.85178">
        <ele>216</ele>
        <time>2023-06-17T10:43:10.000Z</time>
      </trkpt>
      <trkpt lat="47.0199" lon="4.85197">
        <ele>216</ele>
        <time>2023-06-17T10:43:13.000Z</time>
      </trkpt>
      <trkpt lat="47.01984" lon="4.85249">
        <ele>216</ele>
        <time>2023-06-17T10:43:20.000Z</time>
      </trkpt>
      <trkpt lat="47.01974" lon="4.85315">
        <ele>216.39999389648</ele>
        <time>2023-06-17T10:43:28.000Z</time>
      </trkpt>
      <trkpt lat="47.01965" lon="4.85397">
        <ele>216</ele>
        <time>2023-06-17T10:43:37.000Z</time>
      </trkpt>
      <trkpt lat="47.01959" lon="4.85443">
        <ele>215.80000305176</ele>
        <time>2023-06-17T10:43:42.000Z</time>
      </trkpt>
      <trkpt lat="47.01955" lon="4.85471">
        <ele>215.80000305176</ele>
        <time>2023-06-17T10:43:45.000Z</time>
      </trkpt>
      <trkpt lat="47.01946" lon="4.85545">
        <ele>215.80000305176</ele>
        <time>2023-06-17T10:43:53.000Z</time>
      </trkpt>
      <trkpt lat="47.0194" lon="4.85598">
        <ele>215.80000305176</ele>
        <time>2023-06-17T10:43:59.000Z</time>
      </trkpt>
      <trkpt lat="47.01931" lon="4.85662">
        <ele>215.39999389648</ele>
        <time>2023-06-17T10:44:07.000Z</time>
      </trkpt>
      <trkpt lat="47.0193" lon="4.85669">
        <ele>215.39999389648</ele>
        <time>2023-06-17T10:44:08.000Z</time>
      </trkpt>
      <trkpt lat="47.0193" lon="4.85681">
        <ele>215.39999389648</ele>
        <time>2023-06-17T10:44:10.000Z</time>
      </trkpt>
      <trkpt lat="47.01932" lon="4.85686">
        <ele>215.39999389648</ele>
        <time>2023-06-17T10:44:11.000Z</time>
      </trkpt>
      <trkpt lat="47.01934" lon="4.85691">
        <ele>215.60000610352</ele>
        <time>2023-06-17T10:44:12.000Z</time>
      </trkpt>
      <trkpt lat="47.01938" lon="4.85697">
        <ele>215.39999389648</ele>
        <time>2023-06-17T10:44:14.000Z</time>
      </trkpt>
      <trkpt lat="47.0194" lon="4.85698">
        <ele>215.39999389648</ele>
        <time>2023-06-17T10:44:15.000Z</time>
      </trkpt>
      <trkpt lat="47.01944" lon="4.85702">
        <ele>215.19999694824</ele>
        <time>2023-06-17T10:44:18.000Z</time>
      </trkpt>
      <trkpt lat="47.01945" lon="4.85705">
        <ele>215</ele>
        <time>2023-06-17T10:44:19.000Z</time>
      </trkpt>
      <trkpt lat="47.01943" lon="4.8571">
        <ele>214.80000305176</ele>
        <time>2023-06-17T10:44:21.000Z</time>
      </trkpt>
      <trkpt lat="47.01943" lon="4.85711">
        <ele>214.80000305176</ele>
        <time>2023-06-17T10:44:23.000Z</time>
      </trkpt>
      <trkpt lat="47.01942" lon="4.85718">
        <ele>214.60000610352</ele>
        <time>2023-06-17T10:44:26.000Z</time>
      </trkpt>
      <trkpt lat="47.01939" lon="4.85724">
        <ele>214.39999389648</ele>
        <time>2023-06-17T10:44:28.000Z</time>
      </trkpt>
      <trkpt lat="47.01926" lon="4.85737">
        <ele>214.39999389648</ele>
        <time>2023-06-17T10:44:32.000Z</time>
      </trkpt>
      <trkpt lat="47.01923" lon="4.85742">
        <ele>214.39999389648</ele>
        <time>2023-06-17T10:44:33.000Z</time>
      </trkpt>
      <trkpt lat="47.01921" lon="4.85749">
        <ele>214.39999389648</ele>
        <time>2023-06-17T10:44:34.000Z</time>
      </trkpt>
      <trkpt lat="47.01918" lon="4.85772">
        <ele>214.39999389648</ele>
        <time>2023-06-17T10:44:37.000Z</time>
      </trkpt>
      <trkpt lat="47.01911" lon="4.85821">
        <ele>214.60000610352</ele>
        <time>2023-06-17T10:44:43.000Z</time>
      </trkpt>
      <trkpt lat="47.01906" lon="4.85848">
        <ele>214.60000610352</ele>
        <time>2023-06-17T10:44:46.000Z</time>
      </trkpt>
      <trkpt lat="47.019" lon="4.85885">
        <ele>214.60000610352</ele>
        <time>2023-06-17T10:44:50.000Z</time>
      </trkpt>
      <trkpt lat="47.0189" lon="4.8596">
        <ele>214.39999389648</ele>
        <time>2023-06-17T10:44:58.000Z</time>
      </trkpt>
      <trkpt lat="47.0188" lon="4.86044">
        <ele>214.19999694824</ele>
        <time>2023-06-17T10:45:07.000Z</time>
      </trkpt>
      <trkpt lat="47.01877" lon="4.86092">
        <ele>214</ele>
        <time>2023-06-17T10:45:12.000Z</time>
      </trkpt>
      <trkpt lat="47.01873" lon="4.8613">
        <ele>214</ele>
        <time>2023-06-17T10:45:16.000Z</time>
      </trkpt>
      <trkpt lat="47.01864" lon="4.86217">
        <ele>213.39999389648</ele>
        <time>2023-06-17T10:45:25.000Z</time>
      </trkpt>
      <trkpt lat="47.01863" lon="4.86224">
        <ele>213.39999389648</ele>
        <time>2023-06-17T10:45:26.000Z</time>
      </trkpt>
      <trkpt lat="47.01856" lon="4.8631">
        <ele>213.19999694824</ele>
        <time>2023-06-17T10:45:35.000Z</time>
      </trkpt>
      <trkpt lat="47.01855" lon="4.8632">
        <ele>213.19999694824</ele>
        <time>2023-06-17T10:45:36.000Z</time>
      </trkpt>
      <trkpt lat="47.01854" lon="4.86329">
        <ele>213.19999694824</ele>
        <time>2023-06-17T10:45:37.000Z</time>
      </trkpt>
      <trkpt lat="47.01851" lon="4.86349">
        <ele>213</ele>
        <time>2023-06-17T10:45:40.000Z</time>
      </trkpt>
      <trkpt lat="47.01851" lon="4.86355">
        <ele>213</ele>
        <time>2023-06-17T10:45:41.000Z</time>
      </trkpt>
      <trkpt lat="47.01849" lon="4.8636">
        <ele>212.80000305176</ele>
        <time>2023-06-17T10:45:43.000Z</time>
      </trkpt>
      <trkpt lat="47.01847" lon="4.86363">
        <ele>212.80000305176</ele>
        <time>2023-06-17T10:45:44.000Z</time>
      </trkpt>
      <trkpt lat="47.01843" lon="4.86386">
        <ele>212.60000610352</ele>
        <time>2023-06-17T10:45:49.000Z</time>
      </trkpt>
      <trkpt lat="47.01841" lon="4.86391">
        <ele>212.39999389648</ele>
        <time>2023-06-17T10:45:51.000Z</time>
      </trkpt>
      <trkpt lat="47.01836" lon="4.86408">
        <ele>212.39999389648</ele>
        <time>2023-06-17T10:45:53.000Z</time>
      </trkpt>
      <trkpt lat="47.01833" lon="4.86428">
        <ele>212.19999694824</ele>
        <time>2023-06-17T10:45:56.000Z</time>
      </trkpt>
      <trkpt lat="47.01826" lon="4.86469">
        <ele>212.39999389648</ele>
        <time>2023-06-17T10:46:01.000Z</time>
      </trkpt>
      <trkpt lat="47.01814" lon="4.86549">
        <ele>212.19999694824</ele>
        <time>2023-06-17T10:46:10.000Z</time>
      </trkpt>
      <trkpt lat="47.01804" lon="4.8662">
        <ele>212.19999694824</ele>
        <time>2023-06-17T10:46:18.000Z</time>
      </trkpt>
      <trkpt lat="47.01797" lon="4.86676">
        <ele>212.60000610352</ele>
        <time>2023-06-17T10:46:25.000Z</time>
      </trkpt>
      <trkpt lat="47.01789" lon="4.86727">
        <ele>214.39999389648</ele>
        <time>2023-06-17T10:46:32.000Z</time>
      </trkpt>
      <trkpt lat="47.01788" lon="4.86734">
        <ele>214.60000610352</ele>
        <time>2023-06-17T10:46:33.000Z</time>
      </trkpt>
      <trkpt lat="47.01787" lon="4.86742">
        <ele>214.80000305176</ele>
        <time>2023-06-17T10:46:34.000Z</time>
      </trkpt>
      <trkpt lat="47.01785" lon="4.86763">
        <ele>215.39999389648</ele>
        <time>2023-06-17T10:46:37.000Z</time>
      </trkpt>
      <trkpt lat="47.01783" lon="4.86779">
        <ele>215.60000610352</ele>
        <time>2023-06-17T10:46:39.000Z</time>
      </trkpt>
      <trkpt lat="47.01778" lon="4.86816">
        <ele>216.39999389648</ele>
        <time>2023-06-17T10:46:44.000Z</time>
      </trkpt>
      <trkpt lat="47.01772" lon="4.8686">
        <ele>217.19999694824</ele>
        <time>2023-06-17T10:46:50.000Z</time>
      </trkpt>
      <trkpt lat="47.01766" lon="4.86902">
        <ele>217.60000610352</ele>
        <time>2023-06-17T10:46:56.000Z</time>
      </trkpt>
      <trkpt lat="47.01761" lon="4.86939">
        <ele>217.60000610352</ele>
        <time>2023-06-17T10:47:01.000Z</time>
      </trkpt>
      <trkpt lat="47.01752" lon="4.87012">
        <ele>217.19999694824</ele>
        <time>2023-06-17T10:47:10.000Z</time>
      </trkpt>
      <trkpt lat="47.01747" lon="4.87048">
        <ele>216.60000610352</ele>
        <time>2023-06-17T10:47:14.000Z</time>
      </trkpt>
      <trkpt lat="47.01744" lon="4.87067">
        <ele>216.39999389648</ele>
        <time>2023-06-17T10:47:16.000Z</time>
      </trkpt>
      <trkpt lat="47.01739" lon="4.87108">
        <ele>215.39999389648</ele>
        <time>2023-06-17T10:47:20.000Z</time>
      </trkpt>
      <trkpt lat="47.01737" lon="4.8713">
        <ele>214.60000610352</ele>
        <time>2023-06-17T10:47:23.000Z</time>
      </trkpt>
      <trkpt lat="47.01734" lon="4.87152">
        <ele>214.39999389648</ele>
        <time>2023-06-17T10:47:24.000Z</time>
      </trkpt>
      <trkpt lat="47.01729" lon="4.872">
        <ele>213.39999389648</ele>
        <time>2023-06-17T10:47:28.000Z</time>
      </trkpt>
      <trkpt lat="47.01724" lon="4.8724">
        <ele>212.19999694824</ele>
        <time>2023-06-17T10:47:32.000Z</time>
      </trkpt>
      <trkpt lat="47.01724" lon="4.8724">
        <ele>212</ele>
        <time>2023-06-17T10:47:33.000Z</time>
      </trkpt>
      <trkpt lat="47.01721" lon="4.87266">
        <ele>211.39999389648</ele>
        <time>2023-06-17T10:47:35.000Z</time>
      </trkpt>
      <trkpt lat="47.01722" lon="4.87273">
        <ele>211</ele>
        <time>2023-06-17T10:47:36.000Z</time>
      </trkpt>
      <trkpt lat="47.01725" lon="4.87278">
        <ele>210.39999389648</ele>
        <time>2023-06-17T10:47:37.000Z</time>
      </trkpt>
      <trkpt lat="47.01734" lon="4.87291">
        <ele>209.80000305176</ele>
        <time>2023-06-17T10:47:40.000Z</time>
      </trkpt>
      <trkpt lat="47.01738" lon="4.87295">
        <ele>209.39999389648</ele>
        <time>2023-06-17T10:47:41.000Z</time>
      </trkpt>
      <trkpt lat="47.01743" lon="4.87297">
        <ele>209.39999389648</ele>
        <time>2023-06-17T10:47:42.000Z</time>
      </trkpt>
      <trkpt lat="47.01747" lon="4.87298">
        <ele>209.19999694824</ele>
        <time>2023-06-17T10:47:43.000Z</time>
      </trkpt>
      <trkpt lat="47.01773" lon="4.87303">
        <ele>209.19999694824</ele>
        <time>2023-06-17T10:47:48.000Z</time>
      </trkpt>
      <trkpt lat="47.01799" lon="4.87309">
        <ele>209.60000610352</ele>
        <time>2023-06-17T10:47:54.000Z</time>
      </trkpt>
      <trkpt lat="47.01801" lon="4.87311">
        <ele>209.60000610352</ele>
        <time>2023-06-17T10:47:55.000Z</time>
      </trkpt>
      <trkpt lat="47.01801" lon="4.87317">
        <ele>209.60000610352</ele>
        <time>2023-06-17T10:47:57.000Z</time>
      </trkpt>
      <trkpt lat="47.018" lon="4.8732">
        <ele>209.60000610352</ele>
        <time>2023-06-17T10:47:58.000Z</time>
      </trkpt>
      <trkpt lat="47.01798" lon="4.87326">
        <ele>209.60000610352</ele>
        <time>2023-06-17T10:48:00.000Z</time>
      </trkpt>
      <trkpt lat="47.01802" lon="4.87333">
        <ele>209.60000610352</ele>
        <time>2023-06-17T10:48:02.000Z</time>
      </trkpt>
      <trkpt lat="47.01806" lon="4.87334">
        <ele>209.60000610352</ele>
        <time>2023-06-17T10:48:03.000Z</time>
      </trkpt>
      <trkpt lat="47.01827" lon="4.8734">
        <ele>209.19999694824</ele>
        <time>2023-06-17T10:48:07.000Z</time>
      </trkpt>
      <trkpt lat="47.0188" lon="4.87354">
        <ele>209.39999389648</ele>
        <time>2023-06-17T10:48:16.000Z</time>
      </trkpt>
      <trkpt lat="47.01886" lon="4.87356">
        <ele>209.39999389648</ele>
        <time>2023-06-17T10:48:17.000Z</time>
      </trkpt>
      <trkpt lat="47.01938" lon="4.87377">
        <ele>209.80000305176</ele>
        <time>2023-06-17T10:48:26.000Z</time>
      </trkpt>
      <trkpt lat="47.01943" lon="4.8738">
        <ele>209.80000305176</ele>
        <time>2023-06-17T10:48:27.000Z</time>
      </trkpt>
      <trkpt lat="47.01982" lon="4.87406">
        <ele>210.19999694824</ele>
        <time>2023-06-17T10:48:34.000Z</time>
      </trkpt>
      <trkpt lat="47.02028" lon="4.87449">
        <ele>210.39999389648</ele>
        <time>2023-06-17T10:48:43.000Z</time>
      </trkpt>
      <trkpt lat="47.02072" lon="4.87494">
        <ele>210.80000305176</ele>
        <time>2023-06-17T10:48:52.000Z</time>
      </trkpt>
      <trkpt lat="47.02102" lon="4.87534">
        <ele>211</ele>
        <time>2023-06-17T10:48:59.000Z</time>
      </trkpt>
      <trkpt lat="47.02117" lon="4.87561">
        <ele>211</ele>
        <time>2023-06-17T10:49:03.000Z</time>
      </trkpt>
      <trkpt lat="47.02131" lon="4.87592">
        <ele>211.19999694824</ele>
        <time>2023-06-17T10:49:07.000Z</time>
      </trkpt>
      <trkpt lat="47.02137" lon="4.87608">
        <ele>211.19999694824</ele>
        <time>2023-06-17T10:49:09.000Z</time>
      </trkpt>
      <trkpt lat="47.02146" lon="4.87642">
        <ele>211</ele>
        <time>2023-06-17T10:49:13.000Z</time>
      </trkpt>
      <trkpt lat="47.02158" lon="4.87694">
        <ele>210.80000305176</ele>
        <time>2023-06-17T10:49:19.000Z</time>
      </trkpt>
      <trkpt lat="47.02168" lon="4.87735">
        <ele>210.19999694824</ele>
        <time>2023-06-17T10:49:23.000Z</time>
      </trkpt>
      <trkpt lat="47.0217" lon="4.87746">
        <ele>209.80000305176</ele>
        <time>2023-06-17T10:49:24.000Z</time>
      </trkpt>
      <trkpt lat="47.02177" lon="4.87773">
        <ele>209</ele>
        <time>2023-06-17T10:49:27.000Z</time>
      </trkpt>
      <trkpt lat="47.02178" lon="4.87781">
        <ele>208.60000610352</ele>
        <time>2023-06-17T10:49:28.000Z</time>
      </trkpt>
      <trkpt lat="47.02181" lon="4.87785">
        <ele>208.39999389648</ele>
        <time>2023-06-17T10:49:29.000Z</time>
      </trkpt>
      <trkpt lat="47.02184" lon="4.87786">
        <ele>208.19999694824</ele>
        <time>2023-06-17T10:49:30.000Z</time>
      </trkpt>
      <trkpt lat="47.02186" lon="4.87785">
        <ele>207.80000305176</ele>
        <time>2023-06-17T10:49:31.000Z</time>
      </trkpt>
      <trkpt lat="47.02193" lon="4.87777">
        <ele>207.80000305176</ele>
        <time>2023-06-17T10:49:35.000Z</time>
      </trkpt>
      <trkpt lat="47.0221" lon="4.87757">
        <ele>207.39999389648</ele>
        <time>2023-06-17T10:49:40.000Z</time>
      </trkpt>
      <trkpt lat="47.02238" lon="4.87726">
        <ele>207.19999694824</ele>
        <time>2023-06-17T10:49:47.000Z</time>
      </trkpt>
      <trkpt lat="47.02282" lon="4.87676">
        <ele>208</ele>
        <time>2023-06-17T10:49:57.000Z</time>
      </trkpt>
      <trkpt lat="47.02328" lon="4.87624">
        <ele>208.19999694824</ele>
        <time>2023-06-17T10:50:07.000Z</time>
      </trkpt>
      <trkpt lat="47.02338" lon="4.87612">
        <ele>208</ele>
        <time>2023-06-17T10:50:09.000Z</time>
      </trkpt>
      <trkpt lat="47.02384" lon="4.87561">
        <ele>208</ele>
        <time>2023-06-17T10:50:19.000Z</time>
      </trkpt>
      <trkpt lat="47.02411" lon="4.87528">
        <ele>208</ele>
        <time>2023-06-17T10:50:26.000Z</time>
      </trkpt>
      <trkpt lat="47.02414" lon="4.87523">
        <ele>208</ele>
        <time>2023-06-17T10:50:27.000Z</time>
      </trkpt>
      <trkpt lat="47.02417" lon="4.87519">
        <ele>208</ele>
        <time>2023-06-17T10:50:28.000Z</time>
      </trkpt>
      <trkpt lat="47.02425" lon="4.87515">
        <ele>208.19999694824</ele>
        <time>2023-06-17T10:50:30.000Z</time>
      </trkpt>
      <trkpt lat="47.02463" lon="4.87516">
        <ele>209</ele>
        <time>2023-06-17T10:50:37.000Z</time>
      </trkpt>
      <trkpt lat="47.02512" lon="4.87531">
        <ele>209.19999694824</ele>
        <time>2023-06-17T10:50:46.000Z</time>
      </trkpt>
      <trkpt lat="47.02518" lon="4.87533">
        <ele>209.19999694824</ele>
        <time>2023-06-17T10:50:47.000Z</time>
      </trkpt>
      <trkpt lat="47.02561" lon="4.87549">
        <ele>210.19999694824</ele>
        <time>2023-06-17T10:50:55.000Z</time>
      </trkpt>
      <trkpt lat="47.02605" lon="4.87563">
        <ele>210.60000610352</ele>
        <time>2023-06-17T10:51:03.000Z</time>
      </trkpt>
      <trkpt lat="47.02651" lon="4.87573">
        <ele>210.60000610352</ele>
        <time>2023-06-17T10:51:11.000Z</time>
      </trkpt>
      <trkpt lat="47.02657" lon="4.87572">
        <ele>210.60000610352</ele>
        <time>2023-06-17T10:51:12.000Z</time>
      </trkpt>
      <trkpt lat="47.02691" lon="4.87565">
        <ele>210.80000305176</ele>
        <time>2023-06-17T10:51:18.000Z</time>
      </trkpt>
      <trkpt lat="47.02732" lon="4.8757">
        <ele>210.60000610352</ele>
        <time>2023-06-17T10:51:25.000Z</time>
      </trkpt>
      <trkpt lat="47.02743" lon="4.87574">
        <ele>210.60000610352</ele>
        <time>2023-06-17T10:51:27.000Z</time>
      </trkpt>
      <trkpt lat="47.02754" lon="4.87582">
        <ele>210.39999389648</ele>
        <time>2023-06-17T10:51:29.000Z</time>
      </trkpt>
      <trkpt lat="47.02765" lon="4.87599">
        <ele>210.19999694824</ele>
        <time>2023-06-17T10:51:32.000Z</time>
      </trkpt>
      <trkpt lat="47.02769" lon="4.87607">
        <ele>210.19999694824</ele>
        <time>2023-06-17T10:51:33.000Z</time>
      </trkpt>
      <trkpt lat="47.02785" lon="4.87661">
        <ele>210</ele>
        <time>2023-06-17T10:51:40.000Z</time>
      </trkpt>
      <trkpt lat="47.02813" lon="4.87721">
        <ele>209.80000305176</ele>
        <time>2023-06-17T10:51:48.000Z</time>
      </trkpt>
      <trkpt lat="47.02835" lon="4.87774">
        <ele>209.19999694824</ele>
        <time>2023-06-17T10:51:55.000Z</time>
      </trkpt>
      <trkpt lat="47.02838" lon="4.87783">
        <ele>209</ele>
        <time>2023-06-17T10:51:56.000Z</time>
      </trkpt>
      <trkpt lat="47.02868" lon="4.87858">
        <ele>208.60000610352</ele>
        <time>2023-06-17T10:52:06.000Z</time>
      </trkpt>
      <trkpt lat="47.02883" lon="4.87893">
        <ele>208.60000610352</ele>
        <time>2023-06-17T10:52:11.000Z</time>
      </trkpt>
      <trkpt lat="47.02895" lon="4.8792">
        <ele>209</ele>
        <time>2023-06-17T10:52:15.000Z</time>
      </trkpt>
      <trkpt lat="47.02922" lon="4.87978">
        <ele>209</ele>
        <time>2023-06-17T10:52:24.000Z</time>
      </trkpt>
      <trkpt lat="47.02953" lon="4.88036">
        <ele>208.39999389648</ele>
        <time>2023-06-17T10:52:33.000Z</time>
      </trkpt>
      <trkpt lat="47.02967" lon="4.88061">
        <ele>208.19999694824</ele>
        <time>2023-06-17T10:52:37.000Z</time>
      </trkpt>
      <trkpt lat="47.03003" lon="4.88121">
        <ele>208.80000305176</ele>
        <time>2023-06-17T10:52:47.000Z</time>
      </trkpt>
      <trkpt lat="47.03037" lon="4.88177">
        <ele>208.60000610352</ele>
        <time>2023-06-17T10:52:56.000Z</time>
      </trkpt>
      <trkpt lat="47.03054" lon="4.88229">
        <ele>208.39999389648</ele>
        <time>2023-06-17T10:53:03.000Z</time>
      </trkpt>
      <trkpt lat="47.03068" lon="4.88277">
        <ele>208.39999389648</ele>
        <time>2023-06-17T10:53:09.000Z</time>
      </trkpt>
      <trkpt lat="47.03091" lon="4.88326">
        <ele>208.60000610352</ele>
        <time>2023-06-17T10:53:16.000Z</time>
      </trkpt>
      <trkpt lat="47.03131" lon="4.88388">
        <ele>208</ele>
        <time>2023-06-17T10:53:25.000Z</time>
      </trkpt>
      <trkpt lat="47.03138" lon="4.884">
        <ele>207.80000305176</ele>
        <time>2023-06-17T10:53:27.000Z</time>
      </trkpt>
      <trkpt lat="47.03143" lon="4.88416">
        <ele>207.80000305176</ele>
        <time>2023-06-17T10:53:29.000Z</time>
      </trkpt>
      <trkpt lat="47.03149" lon="4.88428">
        <ele>207.80000305176</ele>
        <time>2023-06-17T10:53:31.000Z</time>
      </trkpt>
      <trkpt lat="47.0316" lon="4.88437">
        <ele>207.60000610352</ele>
        <time>2023-06-17T10:53:33.000Z</time>
      </trkpt>
      <trkpt lat="47.03168" lon="4.88449">
        <ele>207.60000610352</ele>
        <time>2023-06-17T10:53:35.000Z</time>
      </trkpt>
      <trkpt lat="47.03175" lon="4.88461">
        <ele>207.60000610352</ele>
        <time>2023-06-17T10:53:37.000Z</time>
      </trkpt>
      <trkpt lat="47.03181" lon="4.88478">
        <ele>207.39999389648</ele>
        <time>2023-06-17T10:53:39.000Z</time>
      </trkpt>
      <trkpt lat="47.03189" lon="4.88488">
        <ele>207.60000610352</ele>
        <time>2023-06-17T10:53:41.000Z</time>
      </trkpt>
      <trkpt lat="47.03194" lon="4.88491">
        <ele>207.60000610352</ele>
        <time>2023-06-17T10:53:42.000Z</time>
      </trkpt>
      <trkpt lat="47.03211" lon="4.885">
        <ele>207.39999389648</ele>
        <time>2023-06-17T10:53:45.000Z</time>
      </trkpt>
      <trkpt lat="47.03223" lon="4.8851">
        <ele>207.39999389648</ele>
        <time>2023-06-17T10:53:47.000Z</time>
      </trkpt>
      <trkpt lat="47.03228" lon="4.88516">
        <ele>207.39999389648</ele>
        <time>2023-06-17T10:53:48.000Z</time>
      </trkpt>
      <trkpt lat="47.03265" lon="4.88565">
        <ele>207.19999694824</ele>
        <time>2023-06-17T10:53:56.000Z</time>
      </trkpt>
      <trkpt lat="47.0331" lon="4.88621">
        <ele>207</ele>
        <time>2023-06-17T10:54:05.000Z</time>
      </trkpt>
      <trkpt lat="47.03314" lon="4.88627">
        <ele>207</ele>
        <time>2023-06-17T10:54:06.000Z</time>
      </trkpt>
      <trkpt lat="47.03358" lon="4.88679">
        <ele>206.80000305176</ele>
        <time>2023-06-17T10:54:15.000Z</time>
      </trkpt>
      <trkpt lat="47.03364" lon="4.88686">
        <ele>206.80000305176</ele>
        <time>2023-06-17T10:54:16.000Z</time>
      </trkpt>
      <trkpt lat="47.03407" lon="4.88736">
        <ele>206.60000610352</ele>
        <time>2023-06-17T10:54:25.000Z</time>
      </trkpt>
      <trkpt lat="47.03449" lon="4.88788">
        <ele>206.60000610352</ele>
        <time>2023-06-17T10:54:34.000Z</time>
      </trkpt>
      <trkpt lat="47.0346" lon="4.88801">
        <ele>206.39999389648</ele>
        <time>2023-06-17T10:54:36.000Z</time>
      </trkpt>
      <trkpt lat="47.03504" lon="4.88855">
        <ele>206.19999694824</ele>
        <time>2023-06-17T10:54:46.000Z</time>
      </trkpt>
      <trkpt lat="47.03546" lon="4.88907">
        <ele>206.19999694824</ele>
        <time>2023-06-17T10:54:55.000Z</time>
      </trkpt>
      <trkpt lat="47.03559" lon="4.88922">
        <ele>206</ele>
        <time>2023-06-17T10:54:58.000Z</time>
      </trkpt>
      <trkpt lat="47.03605" lon="4.88978">
        <ele>205.80000305176</ele>
        <time>2023-06-17T10:55:08.000Z</time>
      </trkpt>
      <trkpt lat="47.03615" lon="4.8899">
        <ele>205.80000305176</ele>
        <time>2023-06-17T10:55:10.000Z</time>
      </trkpt>
      <trkpt lat="47.03657" lon="4.8904">
        <ele>205.80000305176</ele>
        <time>2023-06-17T10:55:19.000Z</time>
      </trkpt>
      <trkpt lat="47.03671" lon="4.89055">
        <ele>205.80000305176</ele>
        <time>2023-06-17T10:55:22.000Z</time>
      </trkpt>
      <trkpt lat="47.03686" lon="4.89072">
        <ele>205.60000610352</ele>
        <time>2023-06-17T10:55:25.000Z</time>
      </trkpt>
      <trkpt lat="47.03723" lon="4.89107">
        <ele>205.60000610352</ele>
        <time>2023-06-17T10:55:32.000Z</time>
      </trkpt>
      <trkpt lat="47.03772" lon="4.89145">
        <ele>205</ele>
        <time>2023-06-17T10:55:40.000Z</time>
      </trkpt>
      <trkpt lat="47.03791" lon="4.89159">
        <ele>204.60000610352</ele>
        <time>2023-06-17T10:55:43.000Z</time>
      </trkpt>
      <trkpt lat="47.03831" lon="4.89183">
        <ele>204.19999694824</ele>
        <time>2023-06-17T10:55:49.000Z</time>
      </trkpt>
      <trkpt lat="47.03879" lon="4.89206">
        <ele>203.60000610352</ele>
        <time>2023-06-17T10:55:56.000Z</time>
      </trkpt>
      <trkpt lat="47.03887" lon="4.8921">
        <ele>203.60000610352</ele>
        <time>2023-06-17T10:55:57.000Z</time>
      </trkpt>
      <trkpt lat="47.0394" lon="4.89229">
        <ele>203.19999694824</ele>
        <time>2023-06-17T10:56:05.000Z</time>
      </trkpt>
      <trkpt lat="47.03947" lon="4.89231">
        <ele>203.19999694824</ele>
        <time>2023-06-17T10:56:06.000Z</time>
      </trkpt>
      <trkpt lat="47.04006" lon="4.89244">
        <ele>203</ele>
        <time>2023-06-17T10:56:15.000Z</time>
      </trkpt>
      <trkpt lat="47.04019" lon="4.89246">
        <ele>203</ele>
        <time>2023-06-17T10:56:17.000Z</time>
      </trkpt>
      <trkpt lat="47.04049" lon="4.89248">
        <ele>203</ele>
        <time>2023-06-17T10:56:22.000Z</time>
      </trkpt>
      <trkpt lat="47.04056" lon="4.89248">
        <ele>203</ele>
        <time>2023-06-17T10:56:24.000Z</time>
      </trkpt>
      <trkpt lat="47.0408" lon="4.89249">
        <ele>203.19999694824</ele>
        <time>2023-06-17T10:56:27.000Z</time>
      </trkpt>
      <trkpt lat="47.04089" lon="4.8926">
        <ele>203.39999389648</ele>
        <time>2023-06-17T10:56:29.000Z</time>
      </trkpt>
      <trkpt lat="47.0409" lon="4.89286">
        <ele>203.60000610352</ele>
        <time>2023-06-17T10:56:32.000Z</time>
      </trkpt>
      <trkpt lat="47.04089" lon="4.89379">
        <ele>203.39999389648</ele>
        <time>2023-06-17T10:56:42.000Z</time>
      </trkpt>
      <trkpt lat="47.04089" lon="4.89416">
        <ele>203</ele>
        <time>2023-06-17T10:56:46.000Z</time>
      </trkpt>
      <trkpt lat="47.04089" lon="4.89498">
        <ele>203</ele>
        <time>2023-06-17T10:56:55.000Z</time>
      </trkpt>
      <trkpt lat="47.0409" lon="4.89585">
        <ele>203.19999694824</ele>
        <time>2023-06-17T10:57:05.000Z</time>
      </trkpt>
      <trkpt lat="47.0409" lon="4.89595">
        <ele>203.19999694824</ele>
        <time>2023-06-17T10:57:06.000Z</time>
      </trkpt>
      <trkpt lat="47.04091" lon="4.89666">
        <ele>203.80000305176</ele>
        <time>2023-06-17T10:57:15.000Z</time>
      </trkpt>
      <trkpt lat="47.04093" lon="4.8975">
        <ele>204</ele>
        <time>2023-06-17T10:57:25.000Z</time>
      </trkpt>
      <trkpt lat="47.04093" lon="4.89833">
        <ele>203.60000610352</ele>
        <time>2023-06-17T10:57:35.000Z</time>
      </trkpt>
      <trkpt lat="47.04093" lon="4.89874">
        <ele>203.39999389648</ele>
        <time>2023-06-17T10:57:40.000Z</time>
      </trkpt>
      <trkpt lat="47.04093" lon="4.89944">
        <ele>203.39999389648</ele>
        <time>2023-06-17T10:57:48.000Z</time>
      </trkpt>
      <trkpt lat="47.04092" lon="4.90007">
        <ele>202.80000305176</ele>
        <time>2023-06-17T10:57:55.000Z</time>
      </trkpt>
      <trkpt lat="47.04092" lon="4.90088">
        <ele>202</ele>
        <time>2023-06-17T10:58:04.000Z</time>
      </trkpt>
      <trkpt lat="47.04091" lon="4.90113">
        <ele>201.80000305176</ele>
        <time>2023-06-17T10:58:07.000Z</time>
      </trkpt>
      <trkpt lat="47.04091" lon="4.90132">
        <ele>201.80000305176</ele>
        <time>2023-06-17T10:58:09.000Z</time>
      </trkpt>
      <trkpt lat="47.0409" lon="4.90192">
        <ele>201.80000305176</ele>
        <time>2023-06-17T10:58:16.000Z</time>
      </trkpt>
      <trkpt lat="47.04088" lon="4.90278">
        <ele>201</ele>
        <time>2023-06-17T10:58:26.000Z</time>
      </trkpt>
      <trkpt lat="47.04088" lon="4.90297">
        <ele>201</ele>
        <time>2023-06-17T10:58:28.000Z</time>
      </trkpt>
      <trkpt lat="47.04087" lon="4.90361">
        <ele>200.80000305176</ele>
        <time>2023-06-17T10:58:36.000Z</time>
      </trkpt>
      <trkpt lat="47.04086" lon="4.90385">
        <ele>200.80000305176</ele>
        <time>2023-06-17T10:58:39.000Z</time>
      </trkpt>
      <trkpt lat="47.04085" lon="4.90464">
        <ele>201</ele>
        <time>2023-06-17T10:58:49.000Z</time>
      </trkpt>
      <trkpt lat="47.04083" lon="4.90545">
        <ele>201</ele>
        <time>2023-06-17T10:58:59.000Z</time>
      </trkpt>
      <trkpt lat="47.04083" lon="4.90563">
        <ele>201</ele>
        <time>2023-06-17T10:59:01.000Z</time>
      </trkpt>
      <trkpt lat="47.0408" lon="4.90644">
        <ele>201.19999694824</ele>
        <time>2023-06-17T10:59:11.000Z</time>
      </trkpt>
      <trkpt lat="47.0408" lon="4.90652">
        <ele>201.19999694824</ele>
        <time>2023-06-17T10:59:12.000Z</time>
      </trkpt>
      <trkpt lat="47.04078" lon="4.90707">
        <ele>201.80000305176</ele>
        <time>2023-06-17T10:59:19.000Z</time>
      </trkpt>
      <trkpt lat="47.04079" lon="4.90741">
        <ele>201.80000305176</ele>
        <time>2023-06-17T10:59:23.000Z</time>
      </trkpt>
      <trkpt lat="47.04081" lon="4.90816">
        <ele>202.19999694824</ele>
        <time>2023-06-17T10:59:32.000Z</time>
      </trkpt>
      <trkpt lat="47.04083" lon="4.90872">
        <ele>202.80000305176</ele>
        <time>2023-06-17T10:59:39.000Z</time>
      </trkpt>
      <trkpt lat="47.04084" lon="4.90889">
        <ele>203</ele>
        <time>2023-06-17T10:59:41.000Z</time>
      </trkpt>
      <trkpt lat="47.04085" lon="4.90964">
        <ele>204</ele>
        <time>2023-06-17T10:59:51.000Z</time>
      </trkpt>
      <trkpt lat="47.04085" lon="4.90971">
        <ele>204.19999694824</ele>
        <time>2023-06-17T10:59:52.000Z</time>
      </trkpt>
      <trkpt lat="47.04085" lon="4.91032">
        <ele>205.19999694824</ele>
        <time>2023-06-17T11:00:00.000Z</time>
      </trkpt>
      <trkpt lat="47.04085" lon="4.91038">
        <ele>205.39999389648</ele>
        <time>2023-06-17T11:00:01.000Z</time>
      </trkpt>
      <trkpt lat="47.04084" lon="4.91083">
        <ele>206.39999389648</ele>
        <time>2023-06-17T11:00:07.000Z</time>
      </trkpt>
      <trkpt lat="47.04084" lon="4.91106">
        <ele>206.80000305176</ele>
        <time>2023-06-17T11:00:10.000Z</time>
      </trkpt>
      <trkpt lat="47.04084" lon="4.91142">
        <ele>207.39999389648</ele>
        <time>2023-06-17T11:00:15.000Z</time>
      </trkpt>
      <trkpt lat="47.04084" lon="4.91165">
        <ele>207.80000305176</ele>
        <time>2023-06-17T11:00:18.000Z</time>
      </trkpt>
      <trkpt lat="47.04084" lon="4.91211">
        <ele>208.60000610352</ele>
        <time>2023-06-17T11:00:24.000Z</time>
      </trkpt>
      <trkpt lat="47.04084" lon="4.91248">
        <ele>209</ele>
        <time>2023-06-17T11:00:29.000Z</time>
      </trkpt>
      <trkpt lat="47.04084" lon="4.91293">
        <ele>209.60000610352</ele>
        <time>2023-06-17T11:00:35.000Z</time>
      </trkpt>
      <trkpt lat="47.04083" lon="4.9134">
        <ele>210</ele>
        <time>2023-06-17T11:00:41.000Z</time>
      </trkpt>
      <trkpt lat="47.04083" lon="4.91404">
        <ele>210.60000610352</ele>
        <time>2023-06-17T11:00:49.000Z</time>
      </trkpt>
      <trkpt lat="47.04083" lon="4.91412">
        <ele>210.60000610352</ele>
        <time>2023-06-17T11:00:50.000Z</time>
      </trkpt>
      <trkpt lat="47.04082" lon="4.91491">
        <ele>210.80000305176</ele>
        <time>2023-06-17T11:01:00.000Z</time>
      </trkpt>
      <trkpt lat="47.04082" lon="4.91501">
        <ele>210.80000305176</ele>
        <time>2023-06-17T11:01:01.000Z</time>
      </trkpt>
      <trkpt lat="47.04081" lon="4.91581">
        <ele>211.39999389648</ele>
        <time>2023-06-17T11:01:11.000Z</time>
      </trkpt>
      <trkpt lat="47.04081" lon="4.91612">
        <ele>211.60000610352</ele>
        <time>2023-06-17T11:01:15.000Z</time>
      </trkpt>
      <trkpt lat="47.04081" lon="4.91688">
        <ele>212.39999389648</ele>
        <time>2023-06-17T11:01:25.000Z</time>
      </trkpt>
      <trkpt lat="47.04081" lon="4.91696">
        <ele>212.39999389648</ele>
        <time>2023-06-17T11:01:26.000Z</time>
      </trkpt>
      <trkpt lat="47.0408" lon="4.9171">
        <ele>212.60000610352</ele>
        <time>2023-06-17T11:01:28.000Z</time>
      </trkpt>
      <trkpt lat="47.0408" lon="4.91771">
        <ele>213.60000610352</ele>
        <time>2023-06-17T11:01:36.000Z</time>
      </trkpt>
      <trkpt lat="47.0408" lon="4.91788">
        <ele>213.80000305176</ele>
        <time>2023-06-17T11:01:38.000Z</time>
      </trkpt>
      <trkpt lat="47.04079" lon="4.91856">
        <ele>214.80000305176</ele>
        <time>2023-06-17T11:01:47.000Z</time>
      </trkpt>
      <trkpt lat="47.04079" lon="4.91872">
        <ele>215</ele>
        <time>2023-06-17T11:01:49.000Z</time>
      </trkpt>
      <trkpt lat="47.04078" lon="4.91934">
        <ele>216</ele>
        <time>2023-06-17T11:01:57.000Z</time>
      </trkpt>
      <trkpt lat="47.04078" lon="4.91942">
        <ele>216.39999389648</ele>
        <time>2023-06-17T11:01:58.000Z</time>
      </trkpt>
      <trkpt lat="47.04078" lon="4.92001">
        <ele>217.19999694824</ele>
        <time>2023-06-17T11:02:06.000Z</time>
      </trkpt>
      <trkpt lat="47.04078" lon="4.9201">
        <ele>217.19999694824</ele>
        <time>2023-06-17T11:02:07.000Z</time>
      </trkpt>
      <trkpt lat="47.04077" lon="4.92055">
        <ele>218.39999389648</ele>
        <time>2023-06-17T11:02:13.000Z</time>
      </trkpt>
      <trkpt lat="47.04077" lon="4.92085">
        <ele>219.19999694824</ele>
        <time>2023-06-17T11:02:17.000Z</time>
      </trkpt>
      <trkpt lat="47.04077" lon="4.92099">
        <ele>219.60000610352</ele>
        <time>2023-06-17T11:02:19.000Z</time>
      </trkpt>
      <trkpt lat="47.04077" lon="4.92123">
        <ele>219.80000305176</ele>
        <time>2023-06-17T11:02:22.000Z</time>
      </trkpt>
      <trkpt lat="47.0408" lon="4.92153">
        <ele>220.19999694824</ele>
        <time>2023-06-17T11:02:26.000Z</time>
      </trkpt>
      <trkpt lat="47.04087" lon="4.92208">
        <ele>220.60000610352</ele>
        <time>2023-06-17T11:02:33.000Z</time>
      </trkpt>
      <trkpt lat="47.04091" lon="4.92234">
        <ele>220.60000610352</ele>
        <time>2023-06-17T11:02:36.000Z</time>
      </trkpt>
      <trkpt lat="47.04101" lon="4.92294">
        <ele>220.80000305176</ele>
        <time>2023-06-17T11:02:43.000Z</time>
      </trkpt>
      <trkpt lat="47.04114" lon="4.92376">
        <ele>220.19999694824</ele>
        <time>2023-06-17T11:02:52.000Z</time>
      </trkpt>
      <trkpt lat="47.04119" lon="4.92407">
        <ele>220.19999694824</ele>
        <time>2023-06-17T11:02:55.000Z</time>
      </trkpt>
      <trkpt lat="47.04132" lon="4.92493">
        <ele>219.80000305176</ele>
        <time>2023-06-17T11:03:04.000Z</time>
      </trkpt>
      <trkpt lat="47.04133" lon="4.92503">
        <ele>219.80000305176</ele>
        <time>2023-06-17T11:03:05.000Z</time>
      </trkpt>
      <trkpt lat="47.04145" lon="4.9258">
        <ele>219.39999389648</ele>
        <time>2023-06-17T11:03:13.000Z</time>
      </trkpt>
      <trkpt lat="47.04148" lon="4.92597">
        <ele>219.39999389648</ele>
        <time>2023-06-17T11:03:15.000Z</time>
      </trkpt>
      <trkpt lat="47.04153" lon="4.92628">
        <ele>219.39999389648</ele>
        <time>2023-06-17T11:03:18.000Z</time>
      </trkpt>
      <trkpt lat="47.04164" lon="4.92705">
        <ele>219.39999389648</ele>
        <time>2023-06-17T11:03:26.000Z</time>
      </trkpt>
      <trkpt lat="47.04175" lon="4.92775">
        <ele>219</ele>
        <time>2023-06-17T11:03:33.000Z</time>
      </trkpt>
      <trkpt lat="47.04188" lon="4.92859">
        <ele>218.60000610352</ele>
        <time>2023-06-17T11:03:42.000Z</time>
      </trkpt>
      <trkpt lat="47.04194" lon="4.92896">
        <ele>218.60000610352</ele>
        <time>2023-06-17T11:03:46.000Z</time>
      </trkpt>
      <trkpt lat="47.04204" lon="4.9296">
        <ele>218.60000610352</ele>
        <time>2023-06-17T11:03:53.000Z</time>
      </trkpt>
      <trkpt lat="47.04212" lon="4.93012">
        <ele>218</ele>
        <time>2023-06-17T11:03:59.000Z</time>
      </trkpt>
      <trkpt lat="47.04214" lon="4.93032">
        <ele>218</ele>
        <time>2023-06-17T11:04:01.000Z</time>
      </trkpt>
      <trkpt lat="47.04226" lon="4.93109">
        <ele>218</ele>
        <time>2023-06-17T11:04:10.000Z</time>
      </trkpt>
      <trkpt lat="47.04231" lon="4.93141">
        <ele>218.19999694824</ele>
        <time>2023-06-17T11:04:14.000Z</time>
      </trkpt>
      <trkpt lat="47.04243" lon="4.93218">
        <ele>218.39999389648</ele>
        <time>2023-06-17T11:04:23.000Z</time>
      </trkpt>
      <trkpt lat="47.04244" lon="4.93228">
        <ele>218.39999389648</ele>
        <time>2023-06-17T11:04:24.000Z</time>
      </trkpt>
      <trkpt lat="47.04257" lon="4.93313">
        <ele>218</ele>
        <time>2023-06-17T11:04:33.000Z</time>
      </trkpt>
      <trkpt lat="47.0426" lon="4.93332">
        <ele>217.80000305176</ele>
        <time>2023-06-17T11:04:35.000Z</time>
      </trkpt>
      <trkpt lat="47.04271" lon="4.93413">
        <ele>217.60000610352</ele>
        <time>2023-06-17T11:04:44.000Z</time>
      </trkpt>
      <trkpt lat="47.04283" lon="4.93492">
        <ele>217.19999694824</ele>
        <time>2023-06-17T11:04:53.000Z</time>
      </trkpt>
      <trkpt lat="47.04293" lon="4.93564">
        <ele>217.19999694824</ele>
        <time>2023-06-17T11:05:01.000Z</time>
      </trkpt>
      <trkpt lat="47.04303" lon="4.93636">
        <ele>217.60000610352</ele>
        <time>2023-06-17T11:05:09.000Z</time>
      </trkpt>
      <trkpt lat="47.04309" lon="4.93686">
        <ele>218</ele>
        <time>2023-06-17T11:05:15.000Z</time>
      </trkpt>
      <trkpt lat="47.04311" lon="4.93709">
        <ele>218.19999694824</ele>
        <time>2023-06-17T11:05:18.000Z</time>
      </trkpt>
      <trkpt lat="47.04312" lon="4.93731">
        <ele>218.39999389648</ele>
        <time>2023-06-17T11:05:21.000Z</time>
      </trkpt>
      <trkpt lat="47.04312" lon="4.93738">
        <ele>218.19999694824</ele>
        <time>2023-06-17T11:05:22.000Z</time>
      </trkpt>
      <trkpt lat="47.04313" lon="4.93745">
        <ele>218.19999694824</ele>
        <time>2023-06-17T11:05:23.000Z</time>
      </trkpt>
      <trkpt lat="47.04314" lon="4.9376">
        <ele>218.19999694824</ele>
        <time>2023-06-17T11:05:25.000Z</time>
      </trkpt>
      <trkpt lat="47.04317" lon="4.93776">
        <ele>218</ele>
        <time>2023-06-17T11:05:27.000Z</time>
      </trkpt>
      <trkpt lat="47.04322" lon="4.93813">
        <ele>217.60000610352</ele>
        <time>2023-06-17T11:05:31.000Z</time>
      </trkpt>
      <trkpt lat="47.04324" lon="4.93822">
        <ele>217.60000610352</ele>
        <time>2023-06-17T11:05:32.000Z</time>
      </trkpt>
      <trkpt lat="47.04332" lon="4.9387">
        <ele>217.19999694824</ele>
        <time>2023-06-17T11:05:37.000Z</time>
      </trkpt>
      <trkpt lat="47.04336" lon="4.9389">
        <ele>217</ele>
        <time>2023-06-17T11:05:39.000Z</time>
      </trkpt>
      <trkpt lat="47.04337" lon="4.939">
        <ele>216.80000305176</ele>
        <time>2023-06-17T11:05:40.000Z</time>
      </trkpt>
      <trkpt lat="47.04351" lon="4.93969">
        <ele>216</ele>
        <time>2023-06-17T11:05:47.000Z</time>
      </trkpt>
      <trkpt lat="47.04355" lon="4.93988">
        <ele>215.80000305176</ele>
        <time>2023-06-17T11:05:49.000Z</time>
      </trkpt>
      <trkpt lat="47.04366" lon="4.94028">
        <ele>214.60000610352</ele>
        <time>2023-06-17T11:05:53.000Z</time>
      </trkpt>
      <trkpt lat="47.04368" lon="4.94039">
        <ele>214.39999389648</ele>
        <time>2023-06-17T11:05:54.000Z</time>
      </trkpt>
      <trkpt lat="47.04376" lon="4.94084">
        <ele>213.39999389648</ele>
        <time>2023-06-17T11:05:58.000Z</time>
      </trkpt>
      <trkpt lat="47.04377" lon="4.94095">
        <ele>213.19999694824</ele>
        <time>2023-06-17T11:05:59.000Z</time>
      </trkpt>
      <trkpt lat="47.0438" lon="4.9413">
        <ele>211.80000305176</ele>
        <time>2023-06-17T11:06:02.000Z</time>
      </trkpt>
      <trkpt lat="47.04381" lon="4.94165">
        <ele>211</ele>
        <time>2023-06-17T11:06:05.000Z</time>
      </trkpt>
      <trkpt lat="47.04382" lon="4.94177">
        <ele>210.80000305176</ele>
        <time>2023-06-17T11:06:06.000Z</time>
      </trkpt>
      <trkpt lat="47.04387" lon="4.9425">
        <ele>210.19999694824</ele>
        <time>2023-06-17T11:06:13.000Z</time>
      </trkpt>
      <trkpt lat="47.04392" lon="4.94287">
        <ele>210.60000610352</ele>
        <time>2023-06-17T11:06:17.000Z</time>
      </trkpt>
      <trkpt lat="47.04394" lon="4.94304">
        <ele>211</ele>
        <time>2023-06-17T11:06:19.000Z</time>
      </trkpt>
      <trkpt lat="47.04407" lon="4.94372">
        <ele>211.60000610352</ele>
        <time>2023-06-17T11:06:27.000Z</time>
      </trkpt>
      <trkpt lat="47.0441" lon="4.94388">
        <ele>211.80000305176</ele>
        <time>2023-06-17T11:06:29.000Z</time>
      </trkpt>
      <trkpt lat="47.04419" lon="4.94446">
        <ele>212.39999389648</ele>
        <time>2023-06-17T11:06:36.000Z</time>
      </trkpt>
      <trkpt lat="47.04431" lon="4.94526">
        <ele>212.39999389648</ele>
        <time>2023-06-17T11:06:45.000Z</time>
      </trkpt>
      <trkpt lat="47.04432" lon="4.94535">
        <ele>212.60000610352</ele>
        <time>2023-06-17T11:06:46.000Z</time>
      </trkpt>
      <trkpt lat="47.0444" lon="4.94596">
        <ele>212.39999389648</ele>
        <time>2023-06-17T11:06:53.000Z</time>
      </trkpt>
      <trkpt lat="47.04442" lon="4.94613">
        <ele>212.60000610352</ele>
        <time>2023-06-17T11:06:55.000Z</time>
      </trkpt>
      <trkpt lat="47.04445" lon="4.9463">
        <ele>212.80000305176</ele>
        <time>2023-06-17T11:06:57.000Z</time>
      </trkpt>
      <trkpt lat="47.0445" lon="4.94664">
        <ele>213.19999694824</ele>
        <time>2023-06-17T11:07:01.000Z</time>
      </trkpt>
      <trkpt lat="47.04463" lon="4.94742">
        <ele>213.39999389648</ele>
        <time>2023-06-17T11:07:10.000Z</time>
      </trkpt>
      <trkpt lat="47.04476" lon="4.94824">
        <ele>213.39999389648</ele>
        <time>2023-06-17T11:07:19.000Z</time>
      </trkpt>
      <trkpt lat="47.04485" lon="4.94887">
        <ele>213</ele>
        <time>2023-06-17T11:07:26.000Z</time>
      </trkpt>
      <trkpt lat="47.04498" lon="4.94971">
        <ele>213</ele>
        <time>2023-06-17T11:07:35.000Z</time>
      </trkpt>
      <trkpt lat="47.04511" lon="4.9505">
        <ele>213</ele>
        <time>2023-06-17T11:07:44.000Z</time>
      </trkpt>
      <trkpt lat="47.04521" lon="4.9513">
        <ele>212.80000305176</ele>
        <time>2023-06-17T11:07:53.000Z</time>
      </trkpt>
      <trkpt lat="47.04522" lon="4.95136">
        <ele>212.60000610352</ele>
        <time>2023-06-17T11:07:54.000Z</time>
      </trkpt>
      <trkpt lat="47.04528" lon="4.95166">
        <ele>212.80000305176</ele>
        <time>2023-06-17T11:07:58.000Z</time>
      </trkpt>
      <trkpt lat="47.04537" lon="4.95228">
        <ele>212.80000305176</ele>
        <time>2023-06-17T11:08:05.000Z</time>
      </trkpt>
      <trkpt lat="47.04549" lon="4.9531">
        <ele>212.80000305176</ele>
        <time>2023-06-17T11:08:14.000Z</time>
      </trkpt>
      <trkpt lat="47.04558" lon="4.95368">
        <ele>212.39999389648</ele>
        <time>2023-06-17T11:08:20.000Z</time>
      </trkpt>
      <trkpt lat="47.0457" lon="4.95453">
        <ele>212.19999694824</ele>
        <time>2023-06-17T11:08:29.000Z</time>
      </trkpt>
      <trkpt lat="47.04573" lon="4.95472">
        <ele>212.19999694824</ele>
        <time>2023-06-17T11:08:31.000Z</time>
      </trkpt>
      <trkpt lat="47.04584" lon="4.9555">
        <ele>211.80000305176</ele>
        <time>2023-06-17T11:08:39.000Z</time>
      </trkpt>
      <trkpt lat="47.04587" lon="4.95569">
        <ele>211.80000305176</ele>
        <time>2023-06-17T11:08:41.000Z</time>
      </trkpt>
      <trkpt lat="47.04599" lon="4.95653">
        <ele>211.80000305176</ele>
        <time>2023-06-17T11:08:50.000Z</time>
      </trkpt>
      <trkpt lat="47.04603" lon="4.9568">
        <ele>211.80000305176</ele>
        <time>2023-06-17T11:08:53.000Z</time>
      </trkpt>
      <trkpt lat="47.04614" lon="4.9576">
        <ele>212.19999694824</ele>
        <time>2023-06-17T11:09:02.000Z</time>
      </trkpt>
      <trkpt lat="47.04616" lon="4.95768">
        <ele>212.19999694824</ele>
        <time>2023-06-17T11:09:03.000Z</time>
      </trkpt>
      <trkpt lat="47.04619" lon="4.95793">
        <ele>212.39999389648</ele>
        <time>2023-06-17T11:09:06.000Z</time>
      </trkpt>
      <trkpt lat="47.04625" lon="4.95826">
        <ele>212.60000610352</ele>
        <time>2023-06-17T11:09:10.000Z</time>
      </trkpt>
      <trkpt lat="47.04636" lon="4.95896">
        <ele>213.19999694824</ele>
        <time>2023-06-17T11:09:19.000Z</time>
      </trkpt>
      <trkpt lat="47.04639" lon="4.9591">
        <ele>213.60000610352</ele>
        <time>2023-06-17T11:09:21.000Z</time>
      </trkpt>
      <trkpt lat="47.04644" lon="4.95925">
        <ele>213.60000610352</ele>
        <time>2023-06-17T11:09:23.000Z</time>
      </trkpt>
      <trkpt lat="47.04653" lon="4.95951">
        <ele>214.19999694824</ele>
        <time>2023-06-17T11:09:27.000Z</time>
      </trkpt>
      <trkpt lat="47.04672" lon="4.9599">
        <ele>214.60000610352</ele>
        <time>2023-06-17T11:09:33.000Z</time>
      </trkpt>
      <trkpt lat="47.04688" lon="4.96019">
        <ele>214.80000305176</ele>
        <time>2023-06-17T11:09:38.000Z</time>
      </trkpt>
      <trkpt lat="47.0472" lon="4.96061">
        <ele>215.39999389648</ele>
        <time>2023-06-17T11:09:46.000Z</time>
      </trkpt>
      <trkpt lat="47.04762" lon="4.96119">
        <ele>215.39999389648</ele>
        <time>2023-06-17T11:09:56.000Z</time>
      </trkpt>
      <trkpt lat="47.04767" lon="4.96125">
        <ele>215.39999389648</ele>
        <time>2023-06-17T11:09:57.000Z</time>
      </trkpt>
      <trkpt lat="47.04801" lon="4.96185">
        <ele>214.39999389648</ele>
        <time>2023-06-17T11:10:05.000Z</time>
      </trkpt>
      <trkpt lat="47.04828" lon="4.96235">
        <ele>213.19999694824</ele>
        <time>2023-06-17T11:10:11.000Z</time>
      </trkpt>
      <trkpt lat="47.04837" lon="4.96252">
        <ele>212.80000305176</ele>
        <time>2023-06-17T11:10:13.000Z</time>
      </trkpt>
      <trkpt lat="47.04865" lon="4.96305">
        <ele>212</ele>
        <time>2023-06-17T11:10:19.000Z</time>
      </trkpt>
      <trkpt lat="47.04879" lon="4.96331">
        <ele>210.80000305176</ele>
        <time>2023-06-17T11:10:22.000Z</time>
      </trkpt>
      <trkpt lat="47.04908" lon="4.96378">
        <ele>209.80000305176</ele>
        <time>2023-06-17T11:10:28.000Z</time>
      </trkpt>
      <trkpt lat="47.04927" lon="4.96406">
        <ele>209.39999389648</ele>
        <time>2023-06-17T11:10:32.000Z</time>
      </trkpt>
      <trkpt lat="47.04951" lon="4.9645">
        <ele>209.39999389648</ele>
        <time>2023-06-17T11:10:38.000Z</time>
      </trkpt>
      <trkpt lat="47.04984" lon="4.96507">
        <ele>209.60000610352</ele>
        <time>2023-06-17T11:10:46.000Z</time>
      </trkpt>
      <trkpt lat="47.05013" lon="4.96555">
        <ele>210</ele>
        <time>2023-06-17T11:10:53.000Z</time>
      </trkpt>
      <trkpt lat="47.05017" lon="4.96563">
        <ele>210</ele>
        <time>2023-06-17T11:10:54.000Z</time>
      </trkpt>
      <trkpt lat="47.0504" lon="4.96597">
        <ele>210.19999694824</ele>
        <time>2023-06-17T11:10:59.000Z</time>
      </trkpt>
      <trkpt lat="47.05048" lon="4.96608">
        <ele>210.19999694824</ele>
        <time>2023-06-17T11:11:01.000Z</time>
      </trkpt>
      <trkpt lat="47.05057" lon="4.96621">
        <ele>210.19999694824</ele>
        <time>2023-06-17T11:11:03.000Z</time>
      </trkpt>
      <trkpt lat="47.05077" lon="4.96646">
        <ele>210.19999694824</ele>
        <time>2023-06-17T11:11:07.000Z</time>
      </trkpt>
      <trkpt lat="47.05111" lon="4.9669">
        <ele>209.80000305176</ele>
        <time>2023-06-17T11:11:14.000Z</time>
      </trkpt>
      <trkpt lat="47.0515" lon="4.9674">
        <ele>209</ele>
        <time>2023-06-17T11:11:22.000Z</time>
      </trkpt>
      <trkpt lat="47.05164" lon="4.9676">
        <ele>208.80000305176</ele>
        <time>2023-06-17T11:11:25.000Z</time>
      </trkpt>
      <trkpt lat="47.05203" lon="4.96809">
        <ele>208.80000305176</ele>
        <time>2023-06-17T11:11:33.000Z</time>
      </trkpt>
      <trkpt lat="47.05231" lon="4.96848">
        <ele>208.80000305176</ele>
        <time>2023-06-17T11:11:39.000Z</time>
      </trkpt>
      <trkpt lat="47.05241" lon="4.96861">
        <ele>208.80000305176</ele>
        <time>2023-06-17T11:11:41.000Z</time>
      </trkpt>
      <trkpt lat="47.05268" lon="4.96899">
        <ele>208.80000305176</ele>
        <time>2023-06-17T11:11:47.000Z</time>
      </trkpt>
      <trkpt lat="47.05298" lon="4.96938">
        <ele>208.39999389648</ele>
        <time>2023-06-17T11:11:53.000Z</time>
      </trkpt>
      <trkpt lat="47.05332" lon="4.96986">
        <ele>208.39999389648</ele>
        <time>2023-06-17T11:12:00.000Z</time>
      </trkpt>
      <trkpt lat="47.05354" lon="4.97018">
        <ele>208.19999694824</ele>
        <time>2023-06-17T11:12:05.000Z</time>
      </trkpt>
      <trkpt lat="47.05358" lon="4.97027">
        <ele>208.19999694824</ele>
        <time>2023-06-17T11:12:06.000Z</time>
      </trkpt>
      <trkpt lat="47.05371" lon="4.97045">
        <ele>208.39999389648</ele>
        <time>2023-06-17T11:12:09.000Z</time>
      </trkpt>
      <trkpt lat="47.05385" lon="4.97065">
        <ele>208.19999694824</ele>
        <time>2023-06-17T11:12:12.000Z</time>
      </trkpt>
      <trkpt lat="47.05399" lon="4.97085">
        <ele>207.80000305176</ele>
        <time>2023-06-17T11:12:15.000Z</time>
      </trkpt>
      <trkpt lat="47.05408" lon="4.97098">
        <ele>207.80000305176</ele>
        <time>2023-06-17T11:12:17.000Z</time>
      </trkpt>
      <trkpt lat="47.05439" lon="4.97144">
        <ele>207</ele>
        <time>2023-06-17T11:12:24.000Z</time>
      </trkpt>
      <trkpt lat="47.05453" lon="4.97163">
        <ele>206.80000305176</ele>
        <time>2023-06-17T11:12:27.000Z</time>
      </trkpt>
      <trkpt lat="47.0548" lon="4.97204">
        <ele>206.19999694824</ele>
        <time>2023-06-17T11:12:33.000Z</time>
      </trkpt>
      <trkpt lat="47.05523" lon="4.97266">
        <ele>205.80000305176</ele>
        <time>2023-06-17T11:12:42.000Z</time>
      </trkpt>
      <trkpt lat="47.05549" lon="4.9732">
        <ele>205.80000305176</ele>
        <time>2023-06-17T11:12:49.000Z</time>
      </trkpt>
      <trkpt lat="47.05567" lon="4.97387">
        <ele>206</ele>
        <time>2023-06-17T11:12:57.000Z</time>
      </trkpt>
      <trkpt lat="47.05572" lon="4.97441">
        <ele>206.19999694824</ele>
        <time>2023-06-17T11:13:03.000Z</time>
      </trkpt>
      <trkpt lat="47.05567" lon="4.97512">
        <ele>206.39999389648</ele>
        <time>2023-06-17T11:13:11.000Z</time>
      </trkpt>
      <trkpt lat="47.05567" lon="4.97547">
        <ele>206.39999389648</ele>
        <time>2023-06-17T11:13:15.000Z</time>
      </trkpt>
      <trkpt lat="47.05569" lon="4.97573">
        <ele>206.60000610352</ele>
        <time>2023-06-17T11:13:18.000Z</time>
      </trkpt>
      <trkpt lat="47.05573" lon="4.97599">
        <ele>206.80000305176</ele>
        <time>2023-06-17T11:13:21.000Z</time>
      </trkpt>
      <trkpt lat="47.05579" lon="4.97625">
        <ele>206.80000305176</ele>
        <time>2023-06-17T11:13:24.000Z</time>
      </trkpt>
      <trkpt lat="47.05598" lon="4.97681">
        <ele>207.39999389648</ele>
        <time>2023-06-17T11:13:31.000Z</time>
      </trkpt>
      <trkpt lat="47.05627" lon="4.9773">
        <ele>207.19999694824</ele>
        <time>2023-06-17T11:13:38.000Z</time>
      </trkpt>
      <trkpt lat="47.05668" lon="4.97788">
        <ele>207</ele>
        <time>2023-06-17T11:13:47.000Z</time>
      </trkpt>
      <trkpt lat="47.05708" lon="4.97846">
        <ele>207</ele>
        <time>2023-06-17T11:13:56.000Z</time>
      </trkpt>
      <trkpt lat="47.05717" lon="4.97858">
        <ele>207</ele>
        <time>2023-06-17T11:13:58.000Z</time>
      </trkpt>
      <trkpt lat="47.05743" lon="4.97879">
        <ele>207.19999694824</ele>
        <time>2023-06-17T11:14:03.000Z</time>
      </trkpt>
      <trkpt lat="47.05784" lon="4.97896">
        <ele>207.39999389648</ele>
        <time>2023-06-17T11:14:10.000Z</time>
      </trkpt>
      <trkpt lat="47.05833" lon="4.97915">
        <ele>207.39999389648</ele>
        <time>2023-06-17T11:14:18.000Z</time>
      </trkpt>
      <trkpt lat="47.0585" lon="4.97926">
        <ele>207.19999694824</ele>
        <time>2023-06-17T11:14:21.000Z</time>
      </trkpt>
      <trkpt lat="47.05861" lon="4.97935">
        <ele>207.19999694824</ele>
        <time>2023-06-17T11:14:23.000Z</time>
      </trkpt>
      <trkpt lat="47.05871" lon="4.97947">
        <ele>207</ele>
        <time>2023-06-17T11:14:25.000Z</time>
      </trkpt>
      <trkpt lat="47.0588" lon="4.97963">
        <ele>207</ele>
        <time>2023-06-17T11:14:27.000Z</time>
      </trkpt>
      <trkpt lat="47.0588" lon="4.97963">
        <ele>206.80000305176</ele>
        <time>2023-06-17T11:14:28.000Z</time>
      </trkpt>
      <trkpt lat="47.05885" lon="4.97977">
        <ele>206.80000305176</ele>
        <time>2023-06-17T11:14:29.000Z</time>
      </trkpt>
      <trkpt lat="47.05896" lon="4.98011">
        <ele>206.60000610352</ele>
        <time>2023-06-17T11:14:33.000Z</time>
      </trkpt>
      <trkpt lat="47.05898" lon="4.9803">
        <ele>206.39999389648</ele>
        <time>2023-06-17T11:14:35.000Z</time>
      </trkpt>
      <trkpt lat="47.05897" lon="4.98051">
        <ele>206.39999389648</ele>
        <time>2023-06-17T11:14:37.000Z</time>
      </trkpt>
      <trkpt lat="47.05895" lon="4.98081">
        <ele>206.39999389648</ele>
        <time>2023-06-17T11:14:40.000Z</time>
      </trkpt>
      <trkpt lat="47.05897" lon="4.98101">
        <ele>205.80000305176</ele>
        <time>2023-06-17T11:14:42.000Z</time>
      </trkpt>
      <trkpt lat="47.05906" lon="4.98117">
        <ele>205.60000610352</ele>
        <time>2023-06-17T11:14:44.000Z</time>
      </trkpt>
      <trkpt lat="47.05911" lon="4.98122">
        <ele>205.60000610352</ele>
        <time>2023-06-17T11:14:45.000Z</time>
      </trkpt>
      <trkpt lat="47.05929" lon="4.98133">
        <ele>205.60000610352</ele>
        <time>2023-06-17T11:14:48.000Z</time>
      </trkpt>
      <trkpt lat="47.05935" lon="4.98134">
        <ele>205.60000610352</ele>
        <time>2023-06-17T11:14:49.000Z</time>
      </trkpt>
      <trkpt lat="47.05963" lon="4.9815">
        <ele>206.19999694824</ele>
        <time>2023-06-17T11:14:54.000Z</time>
      </trkpt>
      <trkpt lat="47.06012" lon="4.9819">
        <ele>206.60000610352</ele>
        <time>2023-06-17T11:15:03.000Z</time>
      </trkpt>
      <trkpt lat="47.06017" lon="4.98195">
        <ele>206.60000610352</ele>
        <time>2023-06-17T11:15:04.000Z</time>
      </trkpt>
      <trkpt lat="47.06023" lon="4.98211">
        <ele>206.60000610352</ele>
        <time>2023-06-17T11:15:06.000Z</time>
      </trkpt>
      <trkpt lat="47.06024" lon="4.98221">
        <ele>206.60000610352</ele>
        <time>2023-06-17T11:15:07.000Z</time>
      </trkpt>
      <trkpt lat="47.06023" lon="4.9823">
        <ele>206.60000610352</ele>
        <time>2023-06-17T11:15:08.000Z</time>
      </trkpt>
      <trkpt lat="47.06018" lon="4.98267">
        <ele>206.60000610352</ele>
        <time>2023-06-17T11:15:12.000Z</time>
      </trkpt>
      <trkpt lat="47.06005" lon="4.98353">
        <ele>205.19999694824</ele>
        <time>2023-06-17T11:15:21.000Z</time>
      </trkpt>
      <trkpt lat="47.06004" lon="4.98362">
        <ele>205.19999694824</ele>
        <time>2023-06-17T11:15:22.000Z</time>
      </trkpt>
      <trkpt lat="47.06" lon="4.9841">
        <ele>204.80000305176</ele>
        <time>2023-06-17T11:15:27.000Z</time>
      </trkpt>
      <trkpt lat="47.05998" lon="4.9844">
        <ele>204.39999389648</ele>
        <time>2023-06-17T11:15:30.000Z</time>
      </trkpt>
      <trkpt lat="47.05996" lon="4.98477">
        <ele>203.60000610352</ele>
        <time>2023-06-17T11:15:34.000Z</time>
      </trkpt>
      <trkpt lat="47.05992" lon="4.98528">
        <ele>202.60000610352</ele>
        <time>2023-06-17T11:15:39.000Z</time>
      </trkpt>
      <trkpt lat="47.05993" lon="4.986">
        <ele>201.39999389648</ele>
        <time>2023-06-17T11:15:46.000Z</time>
      </trkpt>
      <trkpt lat="47.05994" lon="4.98611">
        <ele>201.39999389648</ele>
        <time>2023-06-17T11:15:47.000Z</time>
      </trkpt>
      <trkpt lat="47.06001" lon="4.98651">
        <ele>200.39999389648</ele>
        <time>2023-06-17T11:15:51.000Z</time>
      </trkpt>
      <trkpt lat="47.06006" lon="4.98671">
        <ele>200</ele>
        <time>2023-06-17T11:15:53.000Z</time>
      </trkpt>
      <trkpt lat="47.06014" lon="4.987">
        <ele>199.39999389648</ele>
        <time>2023-06-17T11:15:56.000Z</time>
      </trkpt>
      <trkpt lat="47.06025" lon="4.98726">
        <ele>198.80000305176</ele>
        <time>2023-06-17T11:15:59.000Z</time>
      </trkpt>
      <trkpt lat="47.06039" lon="4.9876">
        <ele>198.39999389648</ele>
        <time>2023-06-17T11:16:03.000Z</time>
      </trkpt>
      <trkpt lat="47.06061" lon="4.98811">
        <ele>197.80000305176</ele>
        <time>2023-06-17T11:16:09.000Z</time>
      </trkpt>
      <trkpt lat="47.06091" lon="4.98881">
        <ele>197.80000305176</ele>
        <time>2023-06-17T11:16:18.000Z</time>
      </trkpt>
      <trkpt lat="47.06095" lon="4.98889">
        <ele>197.80000305176</ele>
        <time>2023-06-17T11:16:19.000Z</time>
      </trkpt>
      <trkpt lat="47.06124" lon="4.98957">
        <ele>197.60000610352</ele>
        <time>2023-06-17T11:16:28.000Z</time>
      </trkpt>
      <trkpt lat="47.0613" lon="4.98972">
        <ele>197.39999389648</ele>
        <time>2023-06-17T11:16:30.000Z</time>
      </trkpt>
      <trkpt lat="47.06156" lon="4.99032">
        <ele>197.19999694824</ele>
        <time>2023-06-17T11:16:38.000Z</time>
      </trkpt>
      <trkpt lat="47.06188" lon="4.99106">
        <ele>197.19999694824</ele>
        <time>2023-06-17T11:16:48.000Z</time>
      </trkpt>
      <trkpt lat="47.06194" lon="4.99121">
        <ele>197.19999694824</ele>
        <time>2023-06-17T11:16:50.000Z</time>
      </trkpt>
      <trkpt lat="47.06223" lon="4.99187">
        <ele>197.19999694824</ele>
        <time>2023-06-17T11:16:59.000Z</time>
      </trkpt>
      <trkpt lat="47.06252" lon="4.99231">
        <ele>197.19999694824</ele>
        <time>2023-06-17T11:17:06.000Z</time>
      </trkpt>
      <trkpt lat="47.06292" lon="4.99284">
        <ele>197.19999694824</ele>
        <time>2023-06-17T11:17:15.000Z</time>
      </trkpt>
      <trkpt lat="47.06297" lon="4.99291">
        <ele>197.19999694824</ele>
        <time>2023-06-17T11:17:16.000Z</time>
      </trkpt>
      <trkpt lat="47.06338" lon="4.99343">
        <ele>197</ele>
        <time>2023-06-17T11:17:25.000Z</time>
      </trkpt>
      <trkpt lat="47.06356" lon="4.99365">
        <ele>196.80000305176</ele>
        <time>2023-06-17T11:17:29.000Z</time>
      </trkpt>
      <trkpt lat="47.06362" lon="4.99366">
        <ele>196.80000305176</ele>
        <time>2023-06-17T11:17:30.000Z</time>
      </trkpt>
      <trkpt lat="47.06367" lon="4.99366">
        <ele>196.80000305176</ele>
        <time>2023-06-17T11:17:31.000Z</time>
      </trkpt>
      <trkpt lat="47.06377" lon="4.99358">
        <ele>196.80000305176</ele>
        <time>2023-06-17T11:17:33.000Z</time>
      </trkpt>
      <trkpt lat="47.06409" lon="4.99315">
        <ele>196.80000305176</ele>
        <time>2023-06-17T11:17:40.000Z</time>
      </trkpt>
      <trkpt lat="47.0644" lon="4.99286">
        <ele>197</ele>
        <time>2023-06-17T11:17:46.000Z</time>
      </trkpt>
      <trkpt lat="47.06469" lon="4.99269">
        <ele>197.60000610352</ele>
        <time>2023-06-17T11:17:51.000Z</time>
      </trkpt>
      <trkpt lat="47.06476" lon="4.99267">
        <ele>197.60000610352</ele>
        <time>2023-06-17T11:17:52.000Z</time>
      </trkpt>
      <trkpt lat="47.06529" lon="4.99251">
        <ele>198.60000610352</ele>
        <time>2023-06-17T11:18:01.000Z</time>
      </trkpt>
      <trkpt lat="47.06579" lon="4.99239">
        <ele>198.60000610352</ele>
        <time>2023-06-17T11:18:09.000Z</time>
      </trkpt>
      <trkpt lat="47.06611" lon="4.99231">
        <ele>198.80000305176</ele>
        <time>2023-06-17T11:18:14.000Z</time>
      </trkpt>
      <trkpt lat="47.06649" lon="4.99222">
        <ele>199</ele>
        <time>2023-06-17T11:18:20.000Z</time>
      </trkpt>
      <trkpt lat="47.06656" lon="4.99222">
        <ele>199</ele>
        <time>2023-06-17T11:18:21.000Z</time>
      </trkpt>
      <trkpt lat="47.0667" lon="4.99225">
        <ele>199</ele>
        <time>2023-06-17T11:18:23.000Z</time>
      </trkpt>
      <trkpt lat="47.06676" lon="4.99229">
        <ele>199</ele>
        <time>2023-06-17T11:18:24.000Z</time>
      </trkpt>
      <trkpt lat="47.06682" lon="4.99233">
        <ele>199.19999694824</ele>
        <time>2023-06-17T11:18:25.000Z</time>
      </trkpt>
      <trkpt lat="47.06697" lon="4.99252">
        <ele>199.19999694824</ele>
        <time>2023-06-17T11:18:28.000Z</time>
      </trkpt>
      <trkpt lat="47.06738" lon="4.99308">
        <ele>199.39999389648</ele>
        <time>2023-06-17T11:18:37.000Z</time>
      </trkpt>
      <trkpt lat="47.06743" lon="4.99314">
        <ele>199.39999389648</ele>
        <time>2023-06-17T11:18:38.000Z</time>
      </trkpt>
      <trkpt lat="47.06782" lon="4.99361">
        <ele>199.80000305176</ele>
        <time>2023-06-17T11:18:46.000Z</time>
      </trkpt>
      <trkpt lat="47.06797" lon="4.99375">
        <ele>200</ele>
        <time>2023-06-17T11:18:49.000Z</time>
      </trkpt>
      <trkpt lat="47.06809" lon="4.99382">
        <ele>200</ele>
        <time>2023-06-17T11:18:51.000Z</time>
      </trkpt>
      <trkpt lat="47.06835" lon="4.99384">
        <ele>200</ele>
        <time>2023-06-17T11:18:55.000Z</time>
      </trkpt>
      <trkpt lat="47.06841" lon="4.99383">
        <ele>200</ele>
        <time>2023-06-17T11:18:56.000Z</time>
      </trkpt>
      <trkpt lat="47.06891" lon="4.99366">
        <ele>200.19999694824</ele>
        <time>2023-06-17T11:19:04.000Z</time>
      </trkpt>
      <trkpt lat="47.06932" lon="4.99338">
        <ele>200.60000610352</ele>
        <time>2023-06-17T11:19:11.000Z</time>
      </trkpt>
      <trkpt lat="47.06972" lon="4.99306">
        <ele>200.60000610352</ele>
        <time>2023-06-17T11:19:18.000Z</time>
      </trkpt>
      <trkpt lat="47.07006" lon="4.99278">
        <ele>200.60000610352</ele>
        <time>2023-06-17T11:19:24.000Z</time>
      </trkpt>
      <trkpt lat="47.07056" lon="4.99233">
        <ele>200.80000305176</ele>
        <time>2023-06-17T11:19:33.000Z</time>
      </trkpt>
      <trkpt lat="47.07067" lon="4.99224">
        <ele>200.80000305176</ele>
        <time>2023-06-17T11:19:35.000Z</time>
      </trkpt>
      <trkpt lat="47.07095" lon="4.992">
        <ele>201</ele>
        <time>2023-06-17T11:19:40.000Z</time>
      </trkpt>
      <trkpt lat="47.07106" lon="4.99191">
        <ele>201</ele>
        <time>2023-06-17T11:19:42.000Z</time>
      </trkpt>
      <trkpt lat="47.07112" lon="4.99186">
        <ele>201</ele>
        <time>2023-06-17T11:19:43.000Z</time>
      </trkpt>
      <trkpt lat="47.07144" lon="4.99155">
        <ele>201.19999694824</ele>
        <time>2023-06-17T11:19:49.000Z</time>
      </trkpt>
      <trkpt lat="47.07165" lon="4.99135">
        <ele>201.39999389648</ele>
        <time>2023-06-17T11:19:53.000Z</time>
      </trkpt>
      <trkpt lat="47.07177" lon="4.99127">
        <ele>201.60000610352</ele>
        <time>2023-06-17T11:19:55.000Z</time>
      </trkpt>
      <trkpt lat="47.07183" lon="4.99126">
        <ele>201.60000610352</ele>
        <time>2023-06-17T11:19:56.000Z</time>
      </trkpt>
      <trkpt lat="47.07189" lon="4.99125">
        <ele>201.80000305176</ele>
        <time>2023-06-17T11:19:57.000Z</time>
      </trkpt>
      <trkpt lat="47.07207" lon="4.99132">
        <ele>202.19999694824</ele>
        <time>2023-06-17T11:20:00.000Z</time>
      </trkpt>
      <trkpt lat="47.07263" lon="4.99155">
        <ele>202.19999694824</ele>
        <time>2023-06-17T11:20:09.000Z</time>
      </trkpt>
      <trkpt lat="47.07269" lon="4.99156">
        <ele>202</ele>
        <time>2023-06-17T11:20:10.000Z</time>
      </trkpt>
      <trkpt lat="47.07288" lon="4.99154">
        <ele>202</ele>
        <time>2023-06-17T11:20:13.000Z</time>
      </trkpt>
      <trkpt lat="47.07294" lon="4.99153">
        <ele>201.80000305176</ele>
        <time>2023-06-17T11:20:14.000Z</time>
      </trkpt>
      <trkpt lat="47.07318" lon="4.9914">
        <ele>201.80000305176</ele>
        <time>2023-06-17T11:20:18.000Z</time>
      </trkpt>
      <trkpt lat="47.07351" lon="4.99108">
        <ele>202</ele>
        <time>2023-06-17T11:20:24.000Z</time>
      </trkpt>
      <trkpt lat="47.07355" lon="4.99102">
        <ele>202</ele>
        <time>2023-06-17T11:20:25.000Z</time>
      </trkpt>
      <trkpt lat="47.07386" lon="4.99058">
        <ele>201.80000305176</ele>
        <time>2023-06-17T11:20:32.000Z</time>
      </trkpt>
      <trkpt lat="47.07428" lon="4.99006">
        <ele>201.80000305176</ele>
        <time>2023-06-17T11:20:41.000Z</time>
      </trkpt>
      <trkpt lat="47.07471" lon="4.98974">
        <ele>202</ele>
        <time>2023-06-17T11:20:49.000Z</time>
      </trkpt>
      <trkpt lat="47.07481" lon="4.98966">
        <ele>202.19999694824</ele>
        <time>2023-06-17T11:20:51.000Z</time>
      </trkpt>
      <trkpt lat="47.07497" lon="4.98954">
        <ele>202.39999389648</ele>
        <time>2023-06-17T11:20:54.000Z</time>
      </trkpt>
      <trkpt lat="47.07551" lon="4.98915">
        <ele>202.19999694824</ele>
        <time>2023-06-17T11:21:04.000Z</time>
      </trkpt>
      <trkpt lat="47.07601" lon="4.98878">
        <ele>202.39999389648</ele>
        <time>2023-06-17T11:21:13.000Z</time>
      </trkpt>
      <trkpt lat="47.07645" lon="4.98846">
        <ele>202.39999389648</ele>
        <time>2023-06-17T11:21:21.000Z</time>
      </trkpt>
      <trkpt lat="47.07697" lon="4.98817">
        <ele>202.60000610352</ele>
        <time>2023-06-17T11:21:30.000Z</time>
      </trkpt>
      <trkpt lat="47.07744" lon="4.9879">
        <ele>202.80000305176</ele>
        <time>2023-06-17T11:21:38.000Z</time>
      </trkpt>
      <trkpt lat="47.07798" lon="4.98757">
        <ele>202.80000305176</ele>
        <time>2023-06-17T11:21:47.000Z</time>
      </trkpt>
      <trkpt lat="47.07836" lon="4.9873">
        <ele>203</ele>
        <time>2023-06-17T11:21:54.000Z</time>
      </trkpt>
      <trkpt lat="47.07887" lon="4.98694">
        <ele>202.60000610352</ele>
        <time>2023-06-17T11:22:03.000Z</time>
      </trkpt>
      <trkpt lat="47.07899" lon="4.98685">
        <ele>202.60000610352</ele>
        <time>2023-06-17T11:22:05.000Z</time>
      </trkpt>
      <trkpt lat="47.07918" lon="4.98666">
        <ele>202.80000305176</ele>
        <time>2023-06-17T11:22:09.000Z</time>
      </trkpt>
      <trkpt lat="47.07922" lon="4.98659">
        <ele>202.80000305176</ele>
        <time>2023-06-17T11:22:10.000Z</time>
      </trkpt>
      <trkpt lat="47.07926" lon="4.98652">
        <ele>202.80000305176</ele>
        <time>2023-06-17T11:22:11.000Z</time>
      </trkpt>
      <trkpt lat="47.07936" lon="4.98618">
        <ele>202.80000305176</ele>
        <time>2023-06-17T11:22:15.000Z</time>
      </trkpt>
      <trkpt lat="47.07939" lon="4.98574">
        <ele>202.80000305176</ele>
        <time>2023-06-17T11:22:20.000Z</time>
      </trkpt>
      <trkpt lat="47.07942" lon="4.98513">
        <ele>203</ele>
        <time>2023-06-17T11:22:27.000Z</time>
      </trkpt>
      <trkpt lat="47.07947" lon="4.98486">
        <ele>203.19999694824</ele>
        <time>2023-06-17T11:22:30.000Z</time>
      </trkpt>
      <trkpt lat="47.07955" lon="4.98461">
        <ele>203.39999389648</ele>
        <time>2023-06-17T11:22:33.000Z</time>
      </trkpt>
      <trkpt lat="47.07957" lon="4.98453">
        <ele>203.39999389648</ele>
        <time>2023-06-17T11:22:34.000Z</time>
      </trkpt>
      <trkpt lat="47.07982" lon="4.98386">
        <ele>203.39999389648</ele>
        <time>2023-06-17T11:22:42.000Z</time>
      </trkpt>
      <trkpt lat="47.08002" lon="4.98315">
        <ele>203.39999389648</ele>
        <time>2023-06-17T11:22:50.000Z</time>
      </trkpt>
      <trkpt lat="47.08006" lon="4.98299">
        <ele>203.60000610352</ele>
        <time>2023-06-17T11:22:52.000Z</time>
      </trkpt>
      <trkpt lat="47.08018" lon="4.98267">
        <ele>203.80000305176</ele>
        <time>2023-06-17T11:22:56.000Z</time>
      </trkpt>
      <trkpt lat="47.08042" lon="4.98214">
        <ele>204.19999694824</ele>
        <time>2023-06-17T11:23:03.000Z</time>
      </trkpt>
      <trkpt lat="47.08074" lon="4.98147">
        <ele>204.39999389648</ele>
        <time>2023-06-17T11:23:12.000Z</time>
      </trkpt>
      <trkpt lat="47.08078" lon="4.98139">
        <ele>204.39999389648</ele>
        <time>2023-06-17T11:23:13.000Z</time>
      </trkpt>
      <trkpt lat="47.08081" lon="4.98132">
        <ele>204.39999389648</ele>
        <time>2023-06-17T11:23:14.000Z</time>
      </trkpt>
      <trkpt lat="47.0811" lon="4.98064">
        <ele>204.60000610352</ele>
        <time>2023-06-17T11:23:23.000Z</time>
      </trkpt>
      <trkpt lat="47.08112" lon="4.98057">
        <ele>204.80000305176</ele>
        <time>2023-06-17T11:23:24.000Z</time>
      </trkpt>
      <trkpt lat="47.0813" lon="4.97991">
        <ele>205.39999389648</ele>
        <time>2023-06-17T11:23:32.000Z</time>
      </trkpt>
      <trkpt lat="47.08138" lon="4.97968">
        <ele>205.80000305176</ele>
        <time>2023-06-17T11:23:35.000Z</time>
      </trkpt>
      <trkpt lat="47.08148" lon="4.97947">
        <ele>206</ele>
        <time>2023-06-17T11:23:38.000Z</time>
      </trkpt>
      <trkpt lat="47.08165" lon="4.97913">
        <ele>206.60000610352</ele>
        <time>2023-06-17T11:23:43.000Z</time>
      </trkpt>
      <trkpt lat="47.08173" lon="4.9789">
        <ele>206.80000305176</ele>
        <time>2023-06-17T11:23:46.000Z</time>
      </trkpt>
      <trkpt lat="47.08181" lon="4.97846">
        <ele>206.80000305176</ele>
        <time>2023-06-17T11:23:51.000Z</time>
      </trkpt>
      <trkpt lat="47.08191" lon="4.97762">
        <ele>206.19999694824</ele>
        <time>2023-06-17T11:24:00.000Z</time>
      </trkpt>
      <trkpt lat="47.08208" lon="4.97712">
        <ele>206.19999694824</ele>
        <time>2023-06-17T11:24:06.000Z</time>
      </trkpt>
      <trkpt lat="47.08231" lon="4.97668">
        <ele>206.39999389648</ele>
        <time>2023-06-17T11:24:12.000Z</time>
      </trkpt>
      <trkpt lat="47.0826" lon="4.97611">
        <ele>206.60000610352</ele>
        <time>2023-06-17T11:24:20.000Z</time>
      </trkpt>
      <trkpt lat="47.08287" lon="4.97546">
        <ele>206.80000305176</ele>
        <time>2023-06-17T11:24:28.000Z</time>
      </trkpt>
      <trkpt lat="47.08299" lon="4.97525">
        <ele>206.80000305176</ele>
        <time>2023-06-17T11:24:31.000Z</time>
      </trkpt>
      <trkpt lat="47.08304" lon="4.97519">
        <ele>206.80000305176</ele>
        <time>2023-06-17T11:24:32.000Z</time>
      </trkpt>
      <trkpt lat="47.08332" lon="4.97499">
        <ele>207.39999389648</ele>
        <time>2023-06-17T11:24:37.000Z</time>
      </trkpt>
      <trkpt lat="47.08371" lon="4.97477">
        <ele>207.60000610352</ele>
        <time>2023-06-17T11:24:44.000Z</time>
      </trkpt>
      <trkpt lat="47.08401" lon="4.97465">
        <ele>207.60000610352</ele>
        <time>2023-06-17T11:24:49.000Z</time>
      </trkpt>
      <trkpt lat="47.08425" lon="4.97456">
        <ele>207.80000305176</ele>
        <time>2023-06-17T11:24:53.000Z</time>
      </trkpt>
      <trkpt lat="47.08431" lon="4.97454">
        <ele>207.80000305176</ele>
        <time>2023-06-17T11:24:54.000Z</time>
      </trkpt>
      <trkpt lat="47.08483" lon="4.97428">
        <ele>208.19999694824</ele>
        <time>2023-06-17T11:25:03.000Z</time>
      </trkpt>
      <trkpt lat="47.08532" lon="4.97394">
        <ele>208.60000610352</ele>
        <time>2023-06-17T11:25:12.000Z</time>
      </trkpt>
      <trkpt lat="47.08537" lon="4.97389">
        <ele>208.60000610352</ele>
        <time>2023-06-17T11:25:13.000Z</time>
      </trkpt>
      <trkpt lat="47.08569" lon="4.97363">
        <ele>208.80000305176</ele>
        <time>2023-06-17T11:25:19.000Z</time>
      </trkpt>
      <trkpt lat="47.08595" lon="4.97343">
        <ele>209.19999694824</ele>
        <time>2023-06-17T11:25:24.000Z</time>
      </trkpt>
      <trkpt lat="47.08642" lon="4.97301">
        <ele>209.60000610352</ele>
        <time>2023-06-17T11:25:33.000Z</time>
      </trkpt>
      <trkpt lat="47.08646" lon="4.97296">
        <ele>209.80000305176</ele>
        <time>2023-06-17T11:25:34.000Z</time>
      </trkpt>
      <trkpt lat="47.08689" lon="4.97247">
        <ele>209.80000305176</ele>
        <time>2023-06-17T11:25:43.000Z</time>
      </trkpt>
      <trkpt lat="47.08694" lon="4.97241">
        <ele>209.80000305176</ele>
        <time>2023-06-17T11:25:44.000Z</time>
      </trkpt>
      <trkpt lat="47.08699" lon="4.97235">
        <ele>210</ele>
        <time>2023-06-17T11:25:45.000Z</time>
      </trkpt>
      <trkpt lat="47.08726" lon="4.97202">
        <ele>210</ele>
        <time>2023-06-17T11:25:51.000Z</time>
      </trkpt>
      <trkpt lat="47.08771" lon="4.97146">
        <ele>210.60000610352</ele>
        <time>2023-06-17T11:26:01.000Z</time>
      </trkpt>
      <trkpt lat="47.08808" lon="4.97116">
        <ele>210.60000610352</ele>
        <time>2023-06-17T11:26:08.000Z</time>
      </trkpt>
      <trkpt lat="47.08859" lon="4.97081">
        <ele>210.80000305176</ele>
        <time>2023-06-17T11:26:17.000Z</time>
      </trkpt>
      <trkpt lat="47.08864" lon="4.97077">
        <ele>211</ele>
        <time>2023-06-17T11:26:18.000Z</time>
      </trkpt>
      <trkpt lat="47.08917" lon="4.97044">
        <ele>211.19999694824</ele>
        <time>2023-06-17T11:26:27.000Z</time>
      </trkpt>
      <trkpt lat="47.08934" lon="4.97034">
        <ele>211.39999389648</ele>
        <time>2023-06-17T11:26:30.000Z</time>
      </trkpt>
      <trkpt lat="47.08981" lon="4.97008">
        <ele>211.60000610352</ele>
        <time>2023-06-17T11:26:38.000Z</time>
      </trkpt>
      <trkpt lat="47.09027" lon="4.96982">
        <ele>211.80000305176</ele>
        <time>2023-06-17T11:26:46.000Z</time>
      </trkpt>
      <trkpt lat="47.09063" lon="4.96964">
        <ele>212</ele>
        <time>2023-06-17T11:26:52.000Z</time>
      </trkpt>
      <trkpt lat="47.09075" lon="4.9696">
        <ele>212</ele>
        <time>2023-06-17T11:26:54.000Z</time>
      </trkpt>
      <trkpt lat="47.09129" lon="4.96952">
        <ele>212.60000610352</ele>
        <time>2023-06-17T11:27:03.000Z</time>
      </trkpt>
      <trkpt lat="47.09186" lon="4.96948">
        <ele>212.80000305176</ele>
        <time>2023-06-17T11:27:12.000Z</time>
      </trkpt>
      <trkpt lat="47.09211" lon="4.96945">
        <ele>213.19999694824</ele>
        <time>2023-06-17T11:27:16.000Z</time>
      </trkpt>
      <trkpt lat="47.09268" lon="4.9694">
        <ele>213.39999389648</ele>
        <time>2023-06-17T11:27:25.000Z</time>
      </trkpt>
      <trkpt lat="47.09286" lon="4.96939">
        <ele>213.39999389648</ele>
        <time>2023-06-17T11:27:28.000Z</time>
      </trkpt>
      <trkpt lat="47.0934" lon="4.96934">
        <ele>213.80000305176</ele>
        <time>2023-06-17T11:27:37.000Z</time>
      </trkpt>
      <trkpt lat="47.09364" lon="4.96931">
        <ele>214</ele>
        <time>2023-06-17T11:27:41.000Z</time>
      </trkpt>
      <trkpt lat="47.09412" lon="4.96923">
        <ele>214.19999694824</ele>
        <time>2023-06-17T11:27:49.000Z</time>
      </trkpt>
      <trkpt lat="47.09441" lon="4.96905">
        <ele>214.39999389648</ele>
        <time>2023-06-17T11:27:54.000Z</time>
      </trkpt>
      <trkpt lat="47.0949" lon="4.96869">
        <ele>214.60000610352</ele>
        <time>2023-06-17T11:28:03.000Z</time>
      </trkpt>
      <trkpt lat="47.095" lon="4.96861">
        <ele>214.80000305176</ele>
        <time>2023-06-17T11:28:05.000Z</time>
      </trkpt>
      <trkpt lat="47.09536" lon="4.96835">
        <ele>215</ele>
        <time>2023-06-17T11:28:12.000Z</time>
      </trkpt>
      <trkpt lat="47.09557" lon="4.9682">
        <ele>215.19999694824</ele>
        <time>2023-06-17T11:28:16.000Z</time>
      </trkpt>
      <trkpt lat="47.09598" lon="4.96789">
        <ele>215.60000610352</ele>
        <time>2023-06-17T11:28:24.000Z</time>
      </trkpt>
      <trkpt lat="47.09649" lon="4.96752">
        <ele>216</ele>
        <time>2023-06-17T11:28:34.000Z</time>
      </trkpt>
      <trkpt lat="47.09701" lon="4.96714">
        <ele>216.19999694824</ele>
        <time>2023-06-17T11:28:44.000Z</time>
      </trkpt>
      <trkpt lat="47.09711" lon="4.96706">
        <ele>216.19999694824</ele>
        <time>2023-06-17T11:28:46.000Z</time>
      </trkpt>
      <trkpt lat="47.09737" lon="4.96688">
        <ele>216.60000610352</ele>
        <time>2023-06-17T11:28:51.000Z</time>
      </trkpt>
      <trkpt lat="47.09748" lon="4.96683">
        <ele>216.60000610352</ele>
        <time>2023-06-17T11:28:53.000Z</time>
      </trkpt>
      <trkpt lat="47.09765" lon="4.96678">
        <ele>216.80000305176</ele>
        <time>2023-06-17T11:28:56.000Z</time>
      </trkpt>
      <trkpt lat="47.09782" lon="4.96677">
        <ele>216.80000305176</ele>
        <time>2023-06-17T11:28:59.000Z</time>
      </trkpt>
      <trkpt lat="47.09837" lon="4.96674">
        <ele>217.39999389648</ele>
        <time>2023-06-17T11:29:09.000Z</time>
      </trkpt>
      <trkpt lat="47.09843" lon="4.96673">
        <ele>217.39999389648</ele>
        <time>2023-06-17T11:29:10.000Z</time>
      </trkpt>
      <trkpt lat="47.09847" lon="4.96671">
        <ele>217.60000610352</ele>
        <time>2023-06-17T11:29:11.000Z</time>
      </trkpt>
      <trkpt lat="47.09852" lon="4.96667">
        <ele>217.60000610352</ele>
        <time>2023-06-17T11:29:12.000Z</time>
      </trkpt>
      <trkpt lat="47.09857" lon="4.96663">
        <ele>217.80000305176</ele>
        <time>2023-06-17T11:29:13.000Z</time>
      </trkpt>
      <trkpt lat="47.09885" lon="4.96628">
        <ele>217.80000305176</ele>
        <time>2023-06-17T11:29:20.000Z</time>
      </trkpt>
      <trkpt lat="47.09923" lon="4.96583">
        <ele>217.39999389648</ele>
        <time>2023-06-17T11:29:29.000Z</time>
      </trkpt>
      <trkpt lat="47.0996" lon="4.96556">
        <ele>217.60000610352</ele>
        <time>2023-06-17T11:29:37.000Z</time>
      </trkpt>
      <trkpt lat="47.10015" lon="4.96524">
        <ele>218.19999694824</ele>
        <time>2023-06-17T11:29:48.000Z</time>
      </trkpt>
      <trkpt lat="47.1002" lon="4.96521">
        <ele>218.19999694824</ele>
        <time>2023-06-17T11:29:49.000Z</time>
      </trkpt>
      <trkpt lat="47.10063" lon="4.96505">
        <ele>218.39999389648</ele>
        <time>2023-06-17T11:29:57.000Z</time>
      </trkpt>
      <trkpt lat="47.10091" lon="4.96507">
        <ele>218.60000610352</ele>
        <time>2023-06-17T11:30:02.000Z</time>
      </trkpt>
      <trkpt lat="47.10102" lon="4.96508">
        <ele>218.60000610352</ele>
        <time>2023-06-17T11:30:04.000Z</time>
      </trkpt>
      <trkpt lat="47.10155" lon="4.96519">
        <ele>219</ele>
        <time>2023-06-17T11:30:14.000Z</time>
      </trkpt>
      <trkpt lat="47.1021" lon="4.96529">
        <ele>219.60000610352</ele>
        <time>2023-06-17T11:30:24.000Z</time>
      </trkpt>
      <trkpt lat="47.10227" lon="4.96532">
        <ele>219.80000305176</ele>
        <time>2023-06-17T11:30:27.000Z</time>
      </trkpt>
      <trkpt lat="47.10266" lon="4.96539">
        <ele>219.80000305176</ele>
        <time>2023-06-17T11:30:34.000Z</time>
      </trkpt>
      <trkpt lat="47.10309" lon="4.96547">
        <ele>220</ele>
        <time>2023-06-17T11:30:42.000Z</time>
      </trkpt>
      <trkpt lat="47.10364" lon="4.96557">
        <ele>220.39999389648</ele>
        <time>2023-06-17T11:30:52.000Z</time>
      </trkpt>
      <trkpt lat="47.10375" lon="4.96559">
        <ele>220.39999389648</ele>
        <time>2023-06-17T11:30:54.000Z</time>
      </trkpt>
      <trkpt lat="47.10431" lon="4.96569">
        <ele>220.60000610352</ele>
        <time>2023-06-17T11:31:04.000Z</time>
      </trkpt>
      <trkpt lat="47.10453" lon="4.96573">
        <ele>220.80000305176</ele>
        <time>2023-06-17T11:31:08.000Z</time>
      </trkpt>
      <trkpt lat="47.10486" lon="4.96578">
        <ele>221.19999694824</ele>
        <time>2023-06-17T11:31:14.000Z</time>
      </trkpt>
      <trkpt lat="47.10497" lon="4.9658">
        <ele>221.39999389648</ele>
        <time>2023-06-17T11:31:16.000Z</time>
      </trkpt>
      <trkpt lat="47.10519" lon="4.96583">
        <ele>221.39999389648</ele>
        <time>2023-06-17T11:31:20.000Z</time>
      </trkpt>
      <trkpt lat="47.10555" lon="4.96577">
        <ele>221.19999694824</ele>
        <time>2023-06-17T11:31:27.000Z</time>
      </trkpt>
      <trkpt lat="47.10561" lon="4.96577">
        <ele>221.19999694824</ele>
        <time>2023-06-17T11:31:28.000Z</time>
      </trkpt>
      <trkpt lat="47.10582" lon="4.96582">
        <ele>221.39999389648</ele>
        <time>2023-06-17T11:31:32.000Z</time>
      </trkpt>
      <trkpt lat="47.10618" lon="4.96601">
        <ele>221.80000305176</ele>
        <time>2023-06-17T11:31:39.000Z</time>
      </trkpt>
      <trkpt lat="47.10638" lon="4.96613">
        <ele>222</ele>
        <time>2023-06-17T11:31:43.000Z</time>
      </trkpt>
      <trkpt lat="47.10669" lon="4.96631">
        <ele>222</ele>
        <time>2023-06-17T11:31:49.000Z</time>
      </trkpt>
      <trkpt lat="47.10694" lon="4.96645">
        <ele>222.39999389648</ele>
        <time>2023-06-17T11:31:54.000Z</time>
      </trkpt>
      <trkpt lat="47.10708" lon="4.96656">
        <ele>222.60000610352</ele>
        <time>2023-06-17T11:31:57.000Z</time>
      </trkpt>
      <trkpt lat="47.10728" lon="4.96684">
        <ele>222.80000305176</ele>
        <time>2023-06-17T11:32:02.000Z</time>
      </trkpt>
      <trkpt lat="47.10731" lon="4.9669">
        <ele>223</ele>
        <time>2023-06-17T11:32:03.000Z</time>
      </trkpt>
      <trkpt lat="47.10734" lon="4.96697">
        <ele>223</ele>
        <time>2023-06-17T11:32:04.000Z</time>
      </trkpt>
      <trkpt lat="47.10755" lon="4.96747">
        <ele>223</ele>
        <time>2023-06-17T11:32:11.000Z</time>
      </trkpt>
      <trkpt lat="47.10776" lon="4.96799">
        <ele>222.39999389648</ele>
        <time>2023-06-17T11:32:18.000Z</time>
      </trkpt>
      <trkpt lat="47.1081" lon="4.96859">
        <ele>222</ele>
        <time>2023-06-17T11:32:27.000Z</time>
      </trkpt>
      <trkpt lat="47.10838" lon="4.969">
        <ele>221.80000305176</ele>
        <time>2023-06-17T11:32:34.000Z</time>
      </trkpt>
      <trkpt lat="47.10881" lon="4.96955">
        <ele>221.60000610352</ele>
        <time>2023-06-17T11:32:44.000Z</time>
      </trkpt>
      <trkpt lat="47.10921" lon="4.97004">
        <ele>221.80000305176</ele>
        <time>2023-06-17T11:32:53.000Z</time>
      </trkpt>
      <trkpt lat="47.10964" lon="4.97055">
        <ele>222.19999694824</ele>
        <time>2023-06-17T11:33:03.000Z</time>
      </trkpt>
      <trkpt lat="47.10969" lon="4.9706">
        <ele>222.19999694824</ele>
        <time>2023-06-17T11:33:04.000Z</time>
      </trkpt>
      <trkpt lat="47.11001" lon="4.97104">
        <ele>222.19999694824</ele>
        <time>2023-06-17T11:33:12.000Z</time>
      </trkpt>
      <trkpt lat="47.11027" lon="4.97147">
        <ele>222.39999389648</ele>
        <time>2023-06-17T11:33:19.000Z</time>
      </trkpt>
      <trkpt lat="47.11038" lon="4.97166">
        <ele>222.39999389648</ele>
        <time>2023-06-17T11:33:22.000Z</time>
      </trkpt>
      <trkpt lat="47.1105" lon="4.9718">
        <ele>222.39999389648</ele>
        <time>2023-06-17T11:33:25.000Z</time>
      </trkpt>
      <trkpt lat="47.1108" lon="4.97196">
        <ele>223</ele>
        <time>2023-06-17T11:33:31.000Z</time>
      </trkpt>
      <trkpt lat="47.11085" lon="4.97198">
        <ele>223</ele>
        <time>2023-06-17T11:33:32.000Z</time>
      </trkpt>
      <trkpt lat="47.111" lon="4.97205">
        <ele>223.19999694824</ele>
        <time>2023-06-17T11:33:35.000Z</time>
      </trkpt>
      <trkpt lat="47.11111" lon="4.9721">
        <ele>223.19999694824</ele>
        <time>2023-06-17T11:33:37.000Z</time>
      </trkpt>
      <trkpt lat="47.11148" lon="4.97231">
        <ele>223.39999389648</ele>
        <time>2023-06-17T11:33:44.000Z</time>
      </trkpt>
      <trkpt lat="47.11159" lon="4.97235">
        <ele>223.39999389648</ele>
        <time>2023-06-17T11:33:46.000Z</time>
      </trkpt>
      <trkpt lat="47.11176" lon="4.97237">
        <ele>223.39999389648</ele>
        <time>2023-06-17T11:33:49.000Z</time>
      </trkpt>
      <trkpt lat="47.11198" lon="4.97241">
        <ele>223.39999389648</ele>
        <time>2023-06-17T11:33:53.000Z</time>
      </trkpt>
      <trkpt lat="47.11208" lon="4.97246">
        <ele>223.39999389648</ele>
        <time>2023-06-17T11:33:55.000Z</time>
      </trkpt>
      <trkpt lat="47.11228" lon="4.97261">
        <ele>223.60000610352</ele>
        <time>2023-06-17T11:33:59.000Z</time>
      </trkpt>
      <trkpt lat="47.11239" lon="4.97264">
        <ele>223.39999389648</ele>
        <time>2023-06-17T11:34:01.000Z</time>
      </trkpt>
      <trkpt lat="47.11249" lon="4.9726">
        <ele>223.39999389648</ele>
        <time>2023-06-17T11:34:03.000Z</time>
      </trkpt>
      <trkpt lat="47.11259" lon="4.97252">
        <ele>223.39999389648</ele>
        <time>2023-06-17T11:34:05.000Z</time>
      </trkpt>
      <trkpt lat="47.11273" lon="4.97238">
        <ele>223.39999389648</ele>
        <time>2023-06-17T11:34:08.000Z</time>
      </trkpt>
      <trkpt lat="47.11284" lon="4.97233">
        <ele>223.60000610352</ele>
        <time>2023-06-17T11:34:10.000Z</time>
      </trkpt>
      <trkpt lat="47.11295" lon="4.97233">
        <ele>223.60000610352</ele>
        <time>2023-06-17T11:34:12.000Z</time>
      </trkpt>
      <trkpt lat="47.11305" lon="4.97237">
        <ele>223.80000305176</ele>
        <time>2023-06-17T11:34:14.000Z</time>
      </trkpt>
      <trkpt lat="47.11314" lon="4.97244">
        <ele>223.80000305176</ele>
        <time>2023-06-17T11:34:16.000Z</time>
      </trkpt>
      <trkpt lat="47.11326" lon="4.97258">
        <ele>224.39999389648</ele>
        <time>2023-06-17T11:34:19.000Z</time>
      </trkpt>
      <trkpt lat="47.11359" lon="4.97285">
        <ele>225</ele>
        <time>2023-06-17T11:34:26.000Z</time>
      </trkpt>
      <trkpt lat="47.11404" lon="4.97312">
        <ele>225.39999389648</ele>
        <time>2023-06-17T11:34:35.000Z</time>
      </trkpt>
      <trkpt lat="47.11408" lon="4.97315">
        <ele>225.60000610352</ele>
        <time>2023-06-17T11:34:36.000Z</time>
      </trkpt>
      <trkpt lat="47.11424" lon="4.97329">
        <ele>225.80000305176</ele>
        <time>2023-06-17T11:34:40.000Z</time>
      </trkpt>
      <trkpt lat="47.11434" lon="4.97339">
        <ele>225.80000305176</ele>
        <time>2023-06-17T11:34:42.000Z</time>
      </trkpt>
      <trkpt lat="47.11465" lon="4.97378">
        <ele>225.80000305176</ele>
        <time>2023-06-17T11:34:49.000Z</time>
      </trkpt>
      <trkpt lat="47.11506" lon="4.97432">
        <ele>225.60000610352</ele>
        <time>2023-06-17T11:34:59.000Z</time>
      </trkpt>
      <trkpt lat="47.1155" lon="4.97483">
        <ele>225.39999389648</ele>
        <time>2023-06-17T11:35:09.000Z</time>
      </trkpt>
      <trkpt lat="47.11582" lon="4.97517">
        <ele>225.39999389648</ele>
        <time>2023-06-17T11:35:16.000Z</time>
      </trkpt>
      <trkpt lat="47.11593" lon="4.9753">
        <ele>225.39999389648</ele>
        <time>2023-06-17T11:35:19.000Z</time>
      </trkpt>
      <trkpt lat="47.11598" lon="4.9754">
        <ele>225.60000610352</ele>
        <time>2023-06-17T11:35:21.000Z</time>
      </trkpt>
      <trkpt lat="47.11612" lon="4.97556">
        <ele>225.60000610352</ele>
        <time>2023-06-17T11:35:26.000Z</time>
      </trkpt>
      <trkpt lat="47.1162" lon="4.97559">
        <ele>225.80000305176</ele>
        <time>2023-06-17T11:35:28.000Z</time>
      </trkpt>
      <trkpt lat="47.11635" lon="4.9756">
        <ele>225.80000305176</ele>
        <time>2023-06-17T11:35:31.000Z</time>
      </trkpt>
      <trkpt lat="47.11655" lon="4.97565">
        <ele>226.19999694824</ele>
        <time>2023-06-17T11:35:35.000Z</time>
      </trkpt>
      <trkpt lat="47.11663" lon="4.9757">
        <ele>226.19999694824</ele>
        <time>2023-06-17T11:35:37.000Z</time>
      </trkpt>
      <trkpt lat="47.11675" lon="4.97576">
        <ele>226.19999694824</ele>
        <time>2023-06-17T11:35:40.000Z</time>
      </trkpt>
      <trkpt lat="47.1168" lon="4.9758">
        <ele>226.39999389648</ele>
        <time>2023-06-17T11:35:42.000Z</time>
      </trkpt>
      <trkpt lat="47.11682" lon="4.97582">
        <ele>226.39999389648</ele>
        <time>2023-06-17T11:35:44.000Z</time>
      </trkpt>
      <trkpt lat="47.11682" lon="4.97582">
        <ele>226.39999389648</ele>
        <time>2023-06-17T11:35:45.000Z</time>
      </trkpt>
      <trkpt lat="47.11682" lon="4.97582">
        <ele>226.39999389648</ele>
        <time>2023-06-17T11:35:46.000Z</time>
      </trkpt>
      <trkpt lat="47.11687" lon="4.97582">
        <ele>227</ele>
        <time>2023-06-17T11:37:26.000Z</time>
      </trkpt>
      <trkpt lat="47.11691" lon="4.97584">
        <ele>227</ele>
        <time>2023-06-17T11:37:28.000Z</time>
      </trkpt>
      <trkpt lat="47.11708" lon="4.97594">
        <ele>227</ele>
        <time>2023-06-17T11:37:33.000Z</time>
      </trkpt>
      <trkpt lat="47.11716" lon="4.976">
        <ele>227</ele>
        <time>2023-06-17T11:37:35.000Z</time>
      </trkpt>
      <trkpt lat="47.11731" lon="4.9761">
        <ele>227</ele>
        <time>2023-06-17T11:37:38.000Z</time>
      </trkpt>
      <trkpt lat="47.11765" lon="4.97638">
        <ele>227</ele>
        <time>2023-06-17T11:37:45.000Z</time>
      </trkpt>
      <trkpt lat="47.11815" lon="4.97678">
        <ele>227</ele>
        <time>2023-06-17T11:37:55.000Z</time>
      </trkpt>
      <trkpt lat="47.11858" lon="4.97716">
        <ele>227.19999694824</ele>
        <time>2023-06-17T11:38:04.000Z</time>
      </trkpt>
      <trkpt lat="47.11906" lon="4.97766">
        <ele>227.39999389648</ele>
        <time>2023-06-17T11:38:14.000Z</time>
      </trkpt>
      <trkpt lat="47.11911" lon="4.97772">
        <ele>227.19999694824</ele>
        <time>2023-06-17T11:38:15.000Z</time>
      </trkpt>
      <trkpt lat="47.11958" lon="4.97825">
        <ele>226.80000305176</ele>
        <time>2023-06-17T11:38:25.000Z</time>
      </trkpt>
      <trkpt lat="47.11967" lon="4.97835">
        <ele>226.80000305176</ele>
        <time>2023-06-17T11:38:27.000Z</time>
      </trkpt>
      <trkpt lat="47.12015" lon="4.97885">
        <ele>227.19999694824</ele>
        <time>2023-06-17T11:38:37.000Z</time>
      </trkpt>
      <trkpt lat="47.1202" lon="4.9789">
        <ele>227.19999694824</ele>
        <time>2023-06-17T11:38:38.000Z</time>
      </trkpt>
      <trkpt lat="47.12058" lon="4.9793">
        <ele>227.39999389648</ele>
        <time>2023-06-17T11:38:46.000Z</time>
      </trkpt>
      <trkpt lat="47.12102" lon="4.97971">
        <ele>227.60000610352</ele>
        <time>2023-06-17T11:38:55.000Z</time>
      </trkpt>
      <trkpt lat="47.12137" lon="4.98003">
        <ele>227.39999389648</ele>
        <time>2023-06-17T11:39:02.000Z</time>
      </trkpt>
      <trkpt lat="47.1217" lon="4.98037">
        <ele>227.60000610352</ele>
        <time>2023-06-17T11:39:09.000Z</time>
      </trkpt>
      <trkpt lat="47.12179" lon="4.98049">
        <ele>227.60000610352</ele>
        <time>2023-06-17T11:39:11.000Z</time>
      </trkpt>
      <trkpt lat="47.12218" lon="4.98113">
        <ele>227.60000610352</ele>
        <time>2023-06-17T11:39:21.000Z</time>
      </trkpt>
      <trkpt lat="47.12257" lon="4.98174">
        <ele>227.80000305176</ele>
        <time>2023-06-17T11:39:31.000Z</time>
      </trkpt>
      <trkpt lat="47.12297" lon="4.98234">
        <ele>228</ele>
        <time>2023-06-17T11:39:41.000Z</time>
      </trkpt>
      <trkpt lat="47.12317" lon="4.98264">
        <ele>228</ele>
        <time>2023-06-17T11:39:46.000Z</time>
      </trkpt>
      <trkpt lat="47.12333" lon="4.98287">
        <ele>228.19999694824</ele>
        <time>2023-06-17T11:39:50.000Z</time>
      </trkpt>
      <trkpt lat="47.12378" lon="4.9834">
        <ele>228.19999694824</ele>
        <time>2023-06-17T11:40:00.000Z</time>
      </trkpt>
      <trkpt lat="47.12424" lon="4.98388">
        <ele>228.19999694824</ele>
        <time>2023-06-17T11:40:10.000Z</time>
      </trkpt>
      <trkpt lat="47.12473" lon="4.98433">
        <ele>228.19999694824</ele>
        <time>2023-06-17T11:40:20.000Z</time>
      </trkpt>
      <trkpt lat="47.12477" lon="4.98437">
        <ele>228.19999694824</ele>
        <time>2023-06-17T11:40:21.000Z</time>
      </trkpt>
      <trkpt lat="47.12525" lon="4.98479">
        <ele>228</ele>
        <time>2023-06-17T11:40:31.000Z</time>
      </trkpt>
      <trkpt lat="47.12534" lon="4.98487">
        <ele>228.19999694824</ele>
        <time>2023-06-17T11:40:33.000Z</time>
      </trkpt>
      <trkpt lat="47.12568" lon="4.98513">
        <ele>228.39999389648</ele>
        <time>2023-06-17T11:40:40.000Z</time>
      </trkpt>
      <trkpt lat="47.12612" lon="4.98542">
        <ele>229</ele>
        <time>2023-06-17T11:40:49.000Z</time>
      </trkpt>
      <trkpt lat="47.12646" lon="4.98564">
        <ele>229</ele>
        <time>2023-06-17T11:40:56.000Z</time>
      </trkpt>
      <trkpt lat="47.1268" lon="4.98587">
        <ele>229.19999694824</ele>
        <time>2023-06-17T11:41:04.000Z</time>
      </trkpt>
      <trkpt lat="47.12685" lon="4.98588">
        <ele>229.39999389648</ele>
        <time>2023-06-17T11:41:06.000Z</time>
      </trkpt>
      <trkpt lat="47.12688" lon="4.98584">
        <ele>229.39999389648</ele>
        <time>2023-06-17T11:41:07.000Z</time>
      </trkpt>
      <trkpt lat="47.1269" lon="4.98579">
        <ele>229.60000610352</ele>
        <time>2023-06-17T11:41:08.000Z</time>
      </trkpt>
      <trkpt lat="47.12696" lon="4.9856">
        <ele>229.60000610352</ele>
        <time>2023-06-17T11:41:11.000Z</time>
      </trkpt>
      <trkpt lat="47.1271" lon="4.98528">
        <ele>229.80000305176</ele>
        <time>2023-06-17T11:41:16.000Z</time>
      </trkpt>
      <trkpt lat="47.1273" lon="4.98485">
        <ele>230</ele>
        <time>2023-06-17T11:41:23.000Z</time>
      </trkpt>
      <trkpt lat="47.1275" lon="4.9844">
        <ele>230.39999389648</ele>
        <time>2023-06-17T11:41:30.000Z</time>
      </trkpt>
      <trkpt lat="47.12754" lon="4.98426">
        <ele>230.39999389648</ele>
        <time>2023-06-17T11:41:32.000Z</time>
      </trkpt>
      <trkpt lat="47.12768" lon="4.98374">
        <ele>231</ele>
        <time>2023-06-17T11:41:39.000Z</time>
      </trkpt>
      <trkpt lat="47.12771" lon="4.98359">
        <ele>231</ele>
        <time>2023-06-17T11:41:41.000Z</time>
      </trkpt>
      <trkpt lat="47.12775" lon="4.98335">
        <ele>231.19999694824</ele>
        <time>2023-06-17T11:41:44.000Z</time>
      </trkpt>
      <trkpt lat="47.12776" lon="4.98327">
        <ele>231.19999694824</ele>
        <time>2023-06-17T11:41:45.000Z</time>
      </trkpt>
      <trkpt lat="47.12783" lon="4.98289">
        <ele>231.39999389648</ele>
        <time>2023-06-17T11:41:50.000Z</time>
      </trkpt>
      <trkpt lat="47.12786" lon="4.98265">
        <ele>231.39999389648</ele>
        <time>2023-06-17T11:41:53.000Z</time>
      </trkpt>
      <trkpt lat="47.12799" lon="4.98185">
        <ele>231.39999389648</ele>
        <time>2023-06-17T11:42:03.000Z</time>
      </trkpt>
      <trkpt lat="47.12801" lon="4.98171">
        <ele>231.39999389648</ele>
        <time>2023-06-17T11:42:05.000Z</time>
      </trkpt>
      <trkpt lat="47.12808" lon="4.98119">
        <ele>231.60000610352</ele>
        <time>2023-06-17T11:42:12.000Z</time>
      </trkpt>
      <trkpt lat="47.12811" lon="4.98114">
        <ele>231.80000305176</ele>
        <time>2023-06-17T11:42:13.000Z</time>
      </trkpt>
      <trkpt lat="47.12814" lon="4.98111">
        <ele>231.80000305176</ele>
        <time>2023-06-17T11:42:14.000Z</time>
      </trkpt>
      <trkpt lat="47.12822" lon="4.98113">
        <ele>232</ele>
        <time>2023-06-17T11:42:16.000Z</time>
      </trkpt>
      <trkpt lat="47.1283" lon="4.9812">
        <ele>232.39999389648</ele>
        <time>2023-06-17T11:42:18.000Z</time>
      </trkpt>
      <trkpt lat="47.12834" lon="4.98123">
        <ele>232.60000610352</ele>
        <time>2023-06-17T11:42:19.000Z</time>
      </trkpt>
      <trkpt lat="47.12851" lon="4.98131">
        <ele>233.39999389648</ele>
        <time>2023-06-17T11:42:23.000Z</time>
      </trkpt>
      <trkpt lat="47.12856" lon="4.98134">
        <ele>233.80000305176</ele>
        <time>2023-06-17T11:42:24.000Z</time>
      </trkpt>
      <trkpt lat="47.12884" lon="4.98153">
        <ele>234.39999389648</ele>
        <time>2023-06-17T11:42:30.000Z</time>
      </trkpt>
      <trkpt lat="47.12899" lon="4.98163">
        <ele>234.80000305176</ele>
        <time>2023-06-17T11:42:33.000Z</time>
      </trkpt>
      <trkpt lat="47.12923" lon="4.98179">
        <ele>235.19999694824</ele>
        <time>2023-06-17T11:42:38.000Z</time>
      </trkpt>
      <trkpt lat="47.12959" lon="4.98203">
        <ele>235.80000305176</ele>
        <time>2023-06-17T11:42:45.000Z</time>
      </trkpt>
      <trkpt lat="47.1297" lon="4.98209">
        <ele>235.80000305176</ele>
        <time>2023-06-17T11:42:47.000Z</time>
      </trkpt>
      <trkpt lat="47.13017" lon="4.98239">
        <ele>236</ele>
        <time>2023-06-17T11:42:56.000Z</time>
      </trkpt>
      <trkpt lat="47.13064" lon="4.9827">
        <ele>236</ele>
        <time>2023-06-17T11:43:05.000Z</time>
      </trkpt>
      <trkpt lat="47.13107" lon="4.98298">
        <ele>236</ele>
        <time>2023-06-17T11:43:13.000Z</time>
      </trkpt>
      <trkpt lat="47.1316" lon="4.98333">
        <ele>236.39999389648</ele>
        <time>2023-06-17T11:43:23.000Z</time>
      </trkpt>
      <trkpt lat="47.1317" lon="4.9834">
        <ele>236.60000610352</ele>
        <time>2023-06-17T11:43:25.000Z</time>
      </trkpt>
      <trkpt lat="47.13196" lon="4.98357">
        <ele>236.80000305176</ele>
        <time>2023-06-17T11:43:30.000Z</time>
      </trkpt>
      <trkpt lat="47.13215" lon="4.98373">
        <ele>237.19999694824</ele>
        <time>2023-06-17T11:43:34.000Z</time>
      </trkpt>
      <trkpt lat="47.1322" lon="4.98378">
        <ele>237.19999694824</ele>
        <time>2023-06-17T11:43:35.000Z</time>
      </trkpt>
      <trkpt lat="47.13239" lon="4.98407">
        <ele>237.60000610352</ele>
        <time>2023-06-17T11:43:40.000Z</time>
      </trkpt>
      <trkpt lat="47.13253" lon="4.98441">
        <ele>238</ele>
        <time>2023-06-17T11:43:45.000Z</time>
      </trkpt>
      <trkpt lat="47.13272" lon="4.98483">
        <ele>238.19999694824</ele>
        <time>2023-06-17T11:43:51.000Z</time>
      </trkpt>
      <trkpt lat="47.13301" lon="4.98551">
        <ele>238</ele>
        <time>2023-06-17T11:44:00.000Z</time>
      </trkpt>
      <trkpt lat="47.13305" lon="4.98558">
        <ele>237.80000305176</ele>
        <time>2023-06-17T11:44:01.000Z</time>
      </trkpt>
      <trkpt lat="47.13317" lon="4.98581">
        <ele>237.80000305176</ele>
        <time>2023-06-17T11:44:04.000Z</time>
      </trkpt>
      <trkpt lat="47.13337" lon="4.98608">
        <ele>237.39999389648</ele>
        <time>2023-06-17T11:44:08.000Z</time>
      </trkpt>
      <trkpt lat="47.13357" lon="4.98635">
        <ele>237.19999694824</ele>
        <time>2023-06-17T11:44:12.000Z</time>
      </trkpt>
      <trkpt lat="47.13364" lon="4.98652">
        <ele>237</ele>
        <time>2023-06-17T11:44:14.000Z</time>
      </trkpt>
      <trkpt lat="47.13367" lon="4.98661">
        <ele>237</ele>
        <time>2023-06-17T11:44:15.000Z</time>
      </trkpt>
      <trkpt lat="47.1337" lon="4.98671">
        <ele>236.80000305176</ele>
        <time>2023-06-17T11:44:16.000Z</time>
      </trkpt>
      <trkpt lat="47.13371" lon="4.98681">
        <ele>236.80000305176</ele>
        <time>2023-06-17T11:44:17.000Z</time>
      </trkpt>
      <trkpt lat="47.13372" lon="4.98692">
        <ele>236.60000610352</ele>
        <time>2023-06-17T11:44:18.000Z</time>
      </trkpt>
      <trkpt lat="47.13372" lon="4.98702">
        <ele>236.80000305176</ele>
        <time>2023-06-17T11:44:19.000Z</time>
      </trkpt>
      <trkpt lat="47.13368" lon="4.98732">
        <ele>236.60000610352</ele>
        <time>2023-06-17T11:44:22.000Z</time>
      </trkpt>
      <trkpt lat="47.13354" lon="4.9879">
        <ele>236</ele>
        <time>2023-06-17T11:44:28.000Z</time>
      </trkpt>
      <trkpt lat="47.13346" lon="4.98819">
        <ele>235.60000610352</ele>
        <time>2023-06-17T11:44:31.000Z</time>
      </trkpt>
      <trkpt lat="47.13328" lon="4.98895">
        <ele>235</ele>
        <time>2023-06-17T11:44:39.000Z</time>
      </trkpt>
      <trkpt lat="47.13326" lon="4.98905">
        <ele>235</ele>
        <time>2023-06-17T11:44:40.000Z</time>
      </trkpt>
      <trkpt lat="47.13324" lon="4.98914">
        <ele>234.80000305176</ele>
        <time>2023-06-17T11:44:41.000Z</time>
      </trkpt>
      <trkpt lat="47.13307" lon="4.98988">
        <ele>234.60000610352</ele>
        <time>2023-06-17T11:44:49.000Z</time>
      </trkpt>
      <trkpt lat="47.13302" lon="4.99015">
        <ele>234.60000610352</ele>
        <time>2023-06-17T11:44:52.000Z</time>
      </trkpt>
      <trkpt lat="47.13302" lon="4.99035">
        <ele>234.60000610352</ele>
        <time>2023-06-17T11:44:54.000Z</time>
      </trkpt>
      <trkpt lat="47.13306" lon="4.99053">
        <ele>234.60000610352</ele>
        <time>2023-06-17T11:44:56.000Z</time>
      </trkpt>
      <trkpt lat="47.13313" lon="4.99071">
        <ele>234.60000610352</ele>
        <time>2023-06-17T11:44:58.000Z</time>
      </trkpt>
      <trkpt lat="47.13324" lon="4.99084">
        <ele>234.39999389648</ele>
        <time>2023-06-17T11:45:00.000Z</time>
      </trkpt>
      <trkpt lat="47.13338" lon="4.99094">
        <ele>234.19999694824</ele>
        <time>2023-06-17T11:45:02.000Z</time>
      </trkpt>
      <trkpt lat="47.13352" lon="4.99103">
        <ele>234</ele>
        <time>2023-06-17T11:45:04.000Z</time>
      </trkpt>
      <trkpt lat="47.13395" lon="4.99129">
        <ele>233</ele>
        <time>2023-06-17T11:45:10.000Z</time>
      </trkpt>
      <trkpt lat="47.13409" lon="4.99137">
        <ele>232.80000305176</ele>
        <time>2023-06-17T11:45:12.000Z</time>
      </trkpt>
      <trkpt lat="47.13451" lon="4.99163">
        <ele>232</ele>
        <time>2023-06-17T11:45:18.000Z</time>
      </trkpt>
      <trkpt lat="47.1347" lon="4.99178">
        <ele>231.80000305176</ele>
        <time>2023-06-17T11:45:21.000Z</time>
      </trkpt>
      <trkpt lat="47.13476" lon="4.99185">
        <ele>231.80000305176</ele>
        <time>2023-06-17T11:45:22.000Z</time>
      </trkpt>
      <trkpt lat="47.13481" lon="4.99193">
        <ele>231.80000305176</ele>
        <time>2023-06-17T11:45:23.000Z</time>
      </trkpt>
      <trkpt lat="47.13486" lon="4.99201">
        <ele>231.80000305176</ele>
        <time>2023-06-17T11:45:24.000Z</time>
      </trkpt>
      <trkpt lat="47.13489" lon="4.99211">
        <ele>231.80000305176</ele>
        <time>2023-06-17T11:45:25.000Z</time>
      </trkpt>
      <trkpt lat="47.13492" lon="4.99221">
        <ele>231.60000610352</ele>
        <time>2023-06-17T11:45:26.000Z</time>
      </trkpt>
      <trkpt lat="47.13499" lon="4.99261">
        <ele>230.60000610352</ele>
        <time>2023-06-17T11:45:30.000Z</time>
      </trkpt>
      <trkpt lat="47.13502" lon="4.9928">
        <ele>230.39999389648</ele>
        <time>2023-06-17T11:45:32.000Z</time>
      </trkpt>
      <trkpt lat="47.13506" lon="4.99298">
        <ele>230.19999694824</ele>
        <time>2023-06-17T11:45:34.000Z</time>
      </trkpt>
      <trkpt lat="47.13514" lon="4.99314">
        <ele>230</ele>
        <time>2023-06-17T11:45:36.000Z</time>
      </trkpt>
      <trkpt lat="47.13524" lon="4.99325">
        <ele>229.80000305176</ele>
        <time>2023-06-17T11:45:38.000Z</time>
      </trkpt>
      <trkpt lat="47.13536" lon="4.99332">
        <ele>229.60000610352</ele>
        <time>2023-06-17T11:45:40.000Z</time>
      </trkpt>
      <trkpt lat="47.13542" lon="4.99335">
        <ele>229.60000610352</ele>
        <time>2023-06-17T11:45:41.000Z</time>
      </trkpt>
      <trkpt lat="47.13584" lon="4.99353">
        <ele>229.80000305176</ele>
        <time>2023-06-17T11:45:48.000Z</time>
      </trkpt>
      <trkpt lat="47.136" lon="4.99364">
        <ele>230.19999694824</ele>
        <time>2023-06-17T11:45:51.000Z</time>
      </trkpt>
      <trkpt lat="47.13609" lon="4.99374">
        <ele>230.80000305176</ele>
        <time>2023-06-17T11:45:53.000Z</time>
      </trkpt>
      <trkpt lat="47.13614" lon="4.99378">
        <ele>230.80000305176</ele>
        <time>2023-06-17T11:45:54.000Z</time>
      </trkpt>
      <trkpt lat="47.13624" lon="4.99387">
        <ele>231.19999694824</ele>
        <time>2023-06-17T11:45:56.000Z</time>
      </trkpt>
      <trkpt lat="47.13633" lon="4.99398">
        <ele>231.80000305176</ele>
        <time>2023-06-17T11:45:58.000Z</time>
      </trkpt>
      <trkpt lat="47.13636" lon="4.99405">
        <ele>232</ele>
        <time>2023-06-17T11:45:59.000Z</time>
      </trkpt>
      <trkpt lat="47.1364" lon="4.99418">
        <ele>232.19999694824</ele>
        <time>2023-06-17T11:46:01.000Z</time>
      </trkpt>
      <trkpt lat="47.1364" lon="4.99425">
        <ele>232.60000610352</ele>
        <time>2023-06-17T11:46:02.000Z</time>
      </trkpt>
      <trkpt lat="47.13638" lon="4.99433">
        <ele>232.60000610352</ele>
        <time>2023-06-17T11:46:03.000Z</time>
      </trkpt>
      <trkpt lat="47.13632" lon="4.99445">
        <ele>232.60000610352</ele>
        <time>2023-06-17T11:46:05.000Z</time>
      </trkpt>
      <trkpt lat="47.13602" lon="4.99485">
        <ele>232</ele>
        <time>2023-06-17T11:46:12.000Z</time>
      </trkpt>
      <trkpt lat="47.13577" lon="4.99526">
        <ele>231</ele>
        <time>2023-06-17T11:46:19.000Z</time>
      </trkpt>
      <trkpt lat="47.13574" lon="4.99531">
        <ele>231.19999694824</ele>
        <time>2023-06-17T11:46:20.000Z</time>
      </trkpt>
      <trkpt lat="47.13563" lon="4.99557">
        <ele>230.60000610352</ele>
        <time>2023-06-17T11:46:25.000Z</time>
      </trkpt>
      <trkpt lat="47.13565" lon="4.99563">
        <ele>230.39999389648</ele>
        <time>2023-06-17T11:46:28.000Z</time>
      </trkpt>
      <trkpt lat="47.13565" lon="4.99563">
        <ele>230.60000610352</ele>
        <time>2023-06-17T11:46:29.000Z</time>
      </trkpt>
      <trkpt lat="47.13565" lon="4.99563">
        <ele>230.39999389648</ele>
        <time>2023-06-17T11:46:31.000Z</time>
      </trkpt>
    </trkseg>
  </trk>
</gpx>